<?xml version="1.0" encoding="UTF-8"?>
<gpx creator="Insta360 Studio" version="1.1" xmlns="http://www.topografix.com/GPX/1/1">
  <metadata>
    <link href="https://www.insta360.com">
      <text>Insta360 GPS Dashboard</text>
    </link>
    <time>2024-09-29T03:39:31Z</time>
    <bounds minlon="78.515859655735568" maxlat="17.64574029932071" minlat="17.629203477029794" maxlon="78.521425904315649"/>
  </metadata>
  <trk>
    <name>Insta360 GPS Data</name>
    <trkseg>
      <trkpt lon="78.515859655735568" lat="17.629203477029794">
        <ele>511.489</ele>
        <time>2024-09-25T11:08:00Z</time>
      </trkpt>
      <trkpt lon="78.515859655738254" lat="17.629203477033322">
        <ele>511.489</ele>
        <time>2024-09-25T11:08:00Z</time>
      </trkpt>
      <trkpt lon="78.515859655852523" lat="17.629203477183719">
        <ele>511.489</ele>
        <time>2024-09-25T11:08:00Z</time>
      </trkpt>
      <trkpt lon="78.51585965678251" lat="17.629203478407625">
        <ele>511.489</ele>
        <time>2024-09-25T11:08:00Z</time>
      </trkpt>
      <trkpt lon="78.515859660389012" lat="17.629203483153955">
        <ele>511.489</ele>
        <time>2024-09-25T11:08:00Z</time>
      </trkpt>
      <trkpt lon="78.515859669950544" lat="17.6292034957374">
        <ele>511.489</ele>
        <time>2024-09-25T11:08:00Z</time>
      </trkpt>
      <trkpt lon="78.515859689660417" lat="17.629203521676573">
        <ele>511.489</ele>
        <time>2024-09-25T11:08:00Z</time>
      </trkpt>
      <trkpt lon="78.515859723063144" lat="17.629203565636235">
        <ele>511.489</ele>
        <time>2024-09-25T11:08:00Z</time>
      </trkpt>
      <trkpt lon="78.515859771074588" lat="17.629203628821706">
        <ele>511.489</ele>
        <time>2024-09-25T11:08:00Z</time>
      </trkpt>
      <trkpt lon="78.515859831146599" lat="17.629203707879476">
        <ele>511.489</ele>
        <time>2024-09-25T11:08:00Z</time>
      </trkpt>
      <trkpt lon="78.515859898419137" lat="17.629203796413506">
        <ele>511.489</ele>
        <time>2024-09-25T11:08:00Z</time>
      </trkpt>
      <trkpt lon="78.51585996784047" lat="17.629203887775464">
        <ele>511.489</ele>
        <time>2024-09-25T11:08:00Z</time>
      </trkpt>
      <trkpt lon="78.515860035662328" lat="17.629203977032422">
        <ele>511.489</ele>
        <time>2024-09-25T11:08:00Z</time>
      </trkpt>
      <trkpt lon="78.515860099783808" lat="17.629204061419493">
        <ele>511.489</ele>
        <time>2024-09-25T11:08:00Z</time>
      </trkpt>
      <trkpt lon="78.515860159390229" lat="17.629204139864527">
        <ele>511.489</ele>
        <time>2024-09-25T11:08:00Z</time>
      </trkpt>
      <trkpt lon="78.515860214441375" lat="17.629204212314583">
        <ele>511.489</ele>
        <time>2024-09-25T11:08:00Z</time>
      </trkpt>
      <trkpt lon="78.515860265277752" lat="17.629204279217788">
        <ele>511.489</ele>
        <time>2024-09-25T11:08:00Z</time>
      </trkpt>
      <trkpt lon="78.515860312387147" lat="17.629204341216102">
        <ele>511.489</ele>
        <time>2024-09-25T11:08:00Z</time>
      </trkpt>
      <trkpt lon="78.515860356288485" lat="17.629204398992474">
        <ele>511.489</ele>
        <time>2024-09-25T11:08:00Z</time>
      </trkpt>
      <trkpt lon="78.515860397482669" lat="17.629204453206089">
        <ele>511.489</ele>
        <time>2024-09-25T11:08:00Z</time>
      </trkpt>
      <trkpt lon="78.515860436435261" lat="17.629204504469655">
        <ele>511.489</ele>
        <time>2024-09-25T11:08:00Z</time>
      </trkpt>
      <trkpt lon="78.515860473571806" lat="17.629204553343214">
        <ele>511.489</ele>
        <time>2024-09-25T11:08:00Z</time>
      </trkpt>
      <trkpt lon="78.515860509276735" lat="17.629204600332677">
        <ele>511.489</ele>
        <time>2024-09-25T11:08:00Z</time>
      </trkpt>
      <trkpt lon="78.515860543892629" lat="17.629204645888919">
        <ele>511.489</ele>
        <time>2024-09-25T11:08:00Z</time>
      </trkpt>
      <trkpt lon="78.515860577719536" lat="17.629204690406812">
        <ele>511.489</ele>
        <time>2024-09-25T11:08:00Z</time>
      </trkpt>
      <trkpt lon="78.515860611014659" lat="17.629204734224864">
        <ele>511.489</ele>
        <time>2024-09-25T11:08:00Z</time>
      </trkpt>
      <trkpt lon="78.515860643993037" lat="17.629204777626061">
        <ele>511.489</ele>
        <time>2024-09-25T11:08:00Z</time>
      </trkpt>
      <trkpt lon="78.515860676829377" lat="17.629204820840325">
        <ele>511.489</ele>
        <time>2024-09-25T11:08:00Z</time>
      </trkpt>
      <trkpt lon="78.515860709661013" lat="17.629204864048404">
        <ele>511.489</ele>
        <time>2024-09-25T11:08:00Z</time>
      </trkpt>
      <trkpt lon="78.515860742591755" lat="17.62920490738691">
        <ele>511.489</ele>
        <time>2024-09-25T11:08:01Z</time>
      </trkpt>
      <trkpt lon="78.515860775696183" lat="17.629204950953994">
        <ele>511.489</ele>
        <time>2024-09-25T11:08:01Z</time>
      </trkpt>
      <trkpt lon="78.515860809024119" lat="17.629204994815218">
        <ele>511.489</ele>
        <time>2024-09-25T11:08:01Z</time>
      </trkpt>
      <trkpt lon="78.515860842604994" lat="17.629205039009324">
        <ele>511.489</ele>
        <time>2024-09-25T11:08:01Z</time>
      </trkpt>
      <trkpt lon="78.515860876451896" lat="17.629205083553547">
        <ele>511.489</ele>
        <time>2024-09-25T11:08:01Z</time>
      </trkpt>
      <trkpt lon="78.515860910565252" lat="17.629205128448433">
        <ele>511.489</ele>
        <time>2024-09-25T11:08:01Z</time>
      </trkpt>
      <trkpt lon="78.51586094493598" lat="17.629205173682024">
        <ele>511.489</ele>
        <time>2024-09-25T11:08:01Z</time>
      </trkpt>
      <trkpt lon="78.515860979548194" lat="17.629205219233423">
        <ele>511.489</ele>
        <time>2024-09-25T11:08:01Z</time>
      </trkpt>
      <trkpt lon="78.515861014381485" lat="17.629205265075782">
        <ele>511.489</ele>
        <time>2024-09-25T11:08:01Z</time>
      </trkpt>
      <trkpt lon="78.515861049412777" lat="17.629205311178723">
        <ele>511.489</ele>
        <time>2024-09-25T11:08:01Z</time>
      </trkpt>
      <trkpt lon="78.515861084617796" lat="17.62920535751029">
        <ele>511.489</ele>
        <time>2024-09-25T11:08:01Z</time>
      </trkpt>
      <trkpt lon="78.515861119972186" lat="17.629205404038448">
        <ele>511.489</ele>
        <time>2024-09-25T11:08:01Z</time>
      </trkpt>
      <trkpt lon="78.515861155452427" lat="17.629205450732218">
        <ele>511.489</ele>
        <time>2024-09-25T11:08:01Z</time>
      </trkpt>
      <trkpt lon="78.515861191036393" lat="17.629205497562502">
        <ele>511.489</ele>
        <time>2024-09-25T11:08:01Z</time>
      </trkpt>
      <trkpt lon="78.515861226703834" lat="17.629205544502621">
        <ele>511.489</ele>
        <time>2024-09-25T11:08:01Z</time>
      </trkpt>
      <trkpt lon="78.515861262436545" lat="17.629205591528653">
        <ele>511.489</ele>
        <time>2024-09-25T11:08:01Z</time>
      </trkpt>
      <trkpt lon="78.515861298218553" lat="17.629205638619577">
        <ele>511.489</ele>
        <time>2024-09-25T11:08:01Z</time>
      </trkpt>
      <trkpt lon="78.515861334036131" lat="17.629205685757302">
        <ele>511.489</ele>
        <time>2024-09-25T11:08:01Z</time>
      </trkpt>
      <trkpt lon="78.515861369877655" lat="17.62920573292655">
        <ele>511.489</ele>
        <time>2024-09-25T11:08:01Z</time>
      </trkpt>
      <trkpt lon="78.515861405733574" lat="17.629205780114724">
        <ele>511.489</ele>
        <time>2024-09-25T11:08:01Z</time>
      </trkpt>
      <trkpt lon="78.515861441596144" lat="17.629205827311662">
        <ele>511.489</ele>
        <time>2024-09-25T11:08:01Z</time>
      </trkpt>
      <trkpt lon="78.515861477459325" lat="17.629205874509402">
        <ele>511.489</ele>
        <time>2024-09-25T11:08:01Z</time>
      </trkpt>
      <trkpt lon="78.515861513318526" lat="17.629205921701914">
        <ele>511.489</ele>
        <time>2024-09-25T11:08:01Z</time>
      </trkpt>
      <trkpt lon="78.515861549170438" lat="17.629205968884833">
        <ele>511.489</ele>
        <time>2024-09-25T11:08:01Z</time>
      </trkpt>
      <trkpt lon="78.515861585012829" lat="17.629206016055203">
        <ele>511.489</ele>
        <time>2024-09-25T11:08:01Z</time>
      </trkpt>
      <trkpt lon="78.515861620844319" lat="17.629206063211232">
        <ele>511.489</ele>
        <time>2024-09-25T11:08:01Z</time>
      </trkpt>
      <trkpt lon="78.515861656664271" lat="17.629206110352065">
        <ele>511.489</ele>
        <time>2024-09-25T11:08:01Z</time>
      </trkpt>
      <trkpt lon="78.515861692472583" lat="17.629206157477586">
        <ele>511.489</ele>
        <time>2024-09-25T11:08:01Z</time>
      </trkpt>
      <trkpt lon="78.515861728269599" lat="17.629206204588243">
        <ele>511.489</ele>
        <time>2024-09-25T11:08:01Z</time>
      </trkpt>
      <trkpt lon="78.515861764055956" lat="17.629206251684884">
        <ele>511.489</ele>
        <time>2024-09-25T11:08:02Z</time>
      </trkpt>
      <trkpt lon="78.515861799832521" lat="17.62920629876864">
        <ele>511.489</ele>
        <time>2024-09-25T11:08:02Z</time>
      </trkpt>
      <trkpt lon="78.51586183560029" lat="17.62920634584081">
        <ele>511.489</ele>
        <time>2024-09-25T11:08:02Z</time>
      </trkpt>
      <trkpt lon="78.5158618713603" lat="17.629206392902773">
        <ele>511.489</ele>
        <time>2024-09-25T11:08:02Z</time>
      </trkpt>
      <trkpt lon="78.515861907113617" lat="17.629206439955926">
        <ele>511.489</ele>
        <time>2024-09-25T11:08:02Z</time>
      </trkpt>
      <trkpt lon="78.515861942861278" lat="17.629206487001625">
        <ele>511.489</ele>
        <time>2024-09-25T11:08:02Z</time>
      </trkpt>
      <trkpt lon="78.515861978604235" lat="17.629206534041153">
        <ele>511.489</ele>
        <time>2024-09-25T11:08:02Z</time>
      </trkpt>
      <trkpt lon="78.515862014343412" lat="17.629206581075692">
        <ele>511.489</ele>
        <time>2024-09-25T11:08:02Z</time>
      </trkpt>
      <trkpt lon="78.515862050079591" lat="17.629206628106306">
        <ele>511.489</ele>
        <time>2024-09-25T11:08:02Z</time>
      </trkpt>
      <trkpt lon="78.515862085813509" lat="17.629206675133929">
        <ele>511.489</ele>
        <time>2024-09-25T11:08:02Z</time>
      </trkpt>
      <trkpt lon="78.515862121545766" lat="17.629206722159378">
        <ele>511.489</ele>
        <time>2024-09-25T11:08:02Z</time>
      </trkpt>
      <trkpt lon="78.515862157276899" lat="17.629206769183337">
        <ele>511.489</ele>
        <time>2024-09-25T11:08:02Z</time>
      </trkpt>
      <trkpt lon="78.515862193007337" lat="17.629206816206374">
        <ele>511.489</ele>
        <time>2024-09-25T11:08:02Z</time>
      </trkpt>
      <trkpt lon="78.515862228737419" lat="17.629206863228955">
        <ele>511.489</ele>
        <time>2024-09-25T11:08:02Z</time>
      </trkpt>
      <trkpt lon="78.51586226446743" lat="17.629206910251437">
        <ele>511.489</ele>
        <time>2024-09-25T11:08:02Z</time>
      </trkpt>
      <trkpt lon="78.515862300197583" lat="17.6292069572741">
        <ele>511.489</ele>
        <time>2024-09-25T11:08:02Z</time>
      </trkpt>
      <trkpt lon="78.515862335928034" lat="17.62920700429715">
        <ele>511.489</ele>
        <time>2024-09-25T11:08:02Z</time>
      </trkpt>
      <trkpt lon="78.515862371658869" lat="17.629207051320726">
        <ele>511.489</ele>
        <time>2024-09-25T11:08:02Z</time>
      </trkpt>
      <trkpt lon="78.515862407390173" lat="17.629207098344914">
        <ele>511.489</ele>
        <time>2024-09-25T11:08:02Z</time>
      </trkpt>
      <trkpt lon="78.515862443121975" lat="17.629207145369751">
        <ele>511.489</ele>
        <time>2024-09-25T11:08:02Z</time>
      </trkpt>
      <trkpt lon="78.515862478854288" lat="17.62920719239526">
        <ele>511.489</ele>
        <time>2024-09-25T11:08:02Z</time>
      </trkpt>
      <trkpt lon="78.515862514587099" lat="17.629207239421419">
        <ele>511.489</ele>
        <time>2024-09-25T11:08:02Z</time>
      </trkpt>
      <trkpt lon="78.515862550320364" lat="17.629207286448196">
        <ele>511.489</ele>
        <time>2024-09-25T11:08:02Z</time>
      </trkpt>
      <trkpt lon="78.51586258605407" lat="17.629207333475541">
        <ele>511.489</ele>
        <time>2024-09-25T11:08:02Z</time>
      </trkpt>
      <trkpt lon="78.515862621788173" lat="17.629207380503402">
        <ele>511.489</ele>
        <time>2024-09-25T11:08:02Z</time>
      </trkpt>
      <trkpt lon="78.515862657522618" lat="17.629207427531718">
        <ele>511.489</ele>
        <time>2024-09-25T11:08:02Z</time>
      </trkpt>
      <trkpt lon="78.515862693257347" lat="17.629207474560424">
        <ele>511.489</ele>
        <time>2024-09-25T11:08:02Z</time>
      </trkpt>
      <trkpt lon="78.515862728992346" lat="17.629207521589471">
        <ele>511.489</ele>
        <time>2024-09-25T11:08:02Z</time>
      </trkpt>
      <trkpt lon="78.515862764727558" lat="17.629207568618796">
        <ele>511.489</ele>
        <time>2024-09-25T11:08:02Z</time>
      </trkpt>
      <trkpt lon="78.515862800462941" lat="17.629207615648344">
        <ele>511.489</ele>
        <time>2024-09-25T11:08:02Z</time>
      </trkpt>
      <trkpt lon="78.515862836198465" lat="17.629207662678073">
        <ele>511.489</ele>
        <time>2024-09-25T11:08:03Z</time>
      </trkpt>
      <trkpt lon="78.51586287193409" lat="17.629207709707941">
        <ele>511.489</ele>
        <time>2024-09-25T11:08:03Z</time>
      </trkpt>
      <trkpt lon="78.515862907669785" lat="17.629207756737909">
        <ele>511.489</ele>
        <time>2024-09-25T11:08:03Z</time>
      </trkpt>
      <trkpt lon="78.515862943405537" lat="17.629207803767947">
        <ele>511.489</ele>
        <time>2024-09-25T11:08:03Z</time>
      </trkpt>
      <trkpt lon="78.515862979141332" lat="17.629207850798029">
        <ele>511.489</ele>
        <time>2024-09-25T11:08:03Z</time>
      </trkpt>
      <trkpt lon="78.515863014877141" lat="17.629207897828135">
        <ele>511.489</ele>
        <time>2024-09-25T11:08:03Z</time>
      </trkpt>
      <trkpt lon="78.51586305061295" lat="17.629207944858248">
        <ele>511.489</ele>
        <time>2024-09-25T11:08:03Z</time>
      </trkpt>
      <trkpt lon="78.515863086348745" lat="17.629207991888357">
        <ele>511.489</ele>
        <time>2024-09-25T11:08:03Z</time>
      </trkpt>
      <trkpt lon="78.515863122084539" lat="17.629208038918449">
        <ele>511.489</ele>
        <time>2024-09-25T11:08:03Z</time>
      </trkpt>
      <trkpt lon="78.515863157820306" lat="17.62920808594852">
        <ele>511.489</ele>
        <time>2024-09-25T11:08:03Z</time>
      </trkpt>
      <trkpt lon="78.515863193556072" lat="17.629208132978562">
        <ele>511.489</ele>
        <time>2024-09-25T11:08:03Z</time>
      </trkpt>
      <trkpt lon="78.51586322929181" lat="17.629208180008579">
        <ele>511.489</ele>
        <time>2024-09-25T11:08:03Z</time>
      </trkpt>
      <trkpt lon="78.515863265027534" lat="17.629208227038568">
        <ele>511.489</ele>
        <time>2024-09-25T11:08:03Z</time>
      </trkpt>
      <trkpt lon="78.515863300763229" lat="17.629208274068525">
        <ele>511.489</ele>
        <time>2024-09-25T11:08:03Z</time>
      </trkpt>
      <trkpt lon="78.515863336498896" lat="17.629208321098456">
        <ele>511.489</ele>
        <time>2024-09-25T11:08:03Z</time>
      </trkpt>
      <trkpt lon="78.515863372234548" lat="17.629208368128364">
        <ele>511.489</ele>
        <time>2024-09-25T11:08:03Z</time>
      </trkpt>
      <trkpt lon="78.515863407970173" lat="17.629208415158246">
        <ele>511.489</ele>
        <time>2024-09-25T11:08:03Z</time>
      </trkpt>
      <trkpt lon="78.515863443705783" lat="17.62920846218811">
        <ele>511.489</ele>
        <time>2024-09-25T11:08:03Z</time>
      </trkpt>
      <trkpt lon="78.515863479441393" lat="17.629208509217953">
        <ele>511.489</ele>
        <time>2024-09-25T11:08:03Z</time>
      </trkpt>
      <trkpt lon="78.515863515176989" lat="17.629208556247786">
        <ele>511.489</ele>
        <time>2024-09-25T11:08:03Z</time>
      </trkpt>
      <trkpt lon="78.515863550912584" lat="17.629208603277604">
        <ele>511.489</ele>
        <time>2024-09-25T11:08:03Z</time>
      </trkpt>
      <trkpt lon="78.515863586648152" lat="17.629208650307412">
        <ele>511.489</ele>
        <time>2024-09-25T11:08:03Z</time>
      </trkpt>
      <trkpt lon="78.515863622383719" lat="17.629208697337212">
        <ele>511.489</ele>
        <time>2024-09-25T11:08:03Z</time>
      </trkpt>
      <trkpt lon="78.515863658119287" lat="17.629208744367002">
        <ele>511.489</ele>
        <time>2024-09-25T11:08:03Z</time>
      </trkpt>
      <trkpt lon="78.515863693854854" lat="17.629208791396792">
        <ele>511.489</ele>
        <time>2024-09-25T11:08:03Z</time>
      </trkpt>
      <trkpt lon="78.515863729590421" lat="17.629208838426578">
        <ele>511.489</ele>
        <time>2024-09-25T11:08:03Z</time>
      </trkpt>
      <trkpt lon="78.515863765325975" lat="17.629208885456361">
        <ele>511.489</ele>
        <time>2024-09-25T11:08:03Z</time>
      </trkpt>
      <trkpt lon="78.515863801061542" lat="17.629208932486144">
        <ele>511.489</ele>
        <time>2024-09-25T11:08:03Z</time>
      </trkpt>
      <trkpt lon="78.515863836797109" lat="17.629208979515923">
        <ele>511.489</ele>
        <time>2024-09-25T11:08:03Z</time>
      </trkpt>
      <trkpt lon="78.515863872532677" lat="17.629209026545706">
        <ele>511.489</ele>
        <time>2024-09-25T11:08:04Z</time>
      </trkpt>
      <trkpt lon="78.51586390826823" lat="17.629209073575485">
        <ele>511.489</ele>
        <time>2024-09-25T11:08:04Z</time>
      </trkpt>
      <trkpt lon="78.515863944003783" lat="17.629209120605271">
        <ele>511.489</ele>
        <time>2024-09-25T11:08:04Z</time>
      </trkpt>
      <trkpt lon="78.515863979739336" lat="17.629209167635054">
        <ele>511.489</ele>
        <time>2024-09-25T11:08:04Z</time>
      </trkpt>
      <trkpt lon="78.515864015474889" lat="17.62920921466484">
        <ele>511.489</ele>
        <time>2024-09-25T11:08:04Z</time>
      </trkpt>
      <trkpt lon="78.515864051210457" lat="17.629209261694626">
        <ele>511.489</ele>
        <time>2024-09-25T11:08:04Z</time>
      </trkpt>
      <trkpt lon="78.515864086946024" lat="17.629209308724413">
        <ele>511.489</ele>
        <time>2024-09-25T11:08:04Z</time>
      </trkpt>
      <trkpt lon="78.515864122681592" lat="17.629209355754202">
        <ele>511.489</ele>
        <time>2024-09-25T11:08:04Z</time>
      </trkpt>
      <trkpt lon="78.515864158417159" lat="17.629209402783992">
        <ele>511.489</ele>
        <time>2024-09-25T11:08:04Z</time>
      </trkpt>
      <trkpt lon="78.515864194152726" lat="17.629209449813786">
        <ele>511.489</ele>
        <time>2024-09-25T11:08:04Z</time>
      </trkpt>
      <trkpt lon="78.515864229888294" lat="17.629209496843579">
        <ele>511.489</ele>
        <time>2024-09-25T11:08:04Z</time>
      </trkpt>
      <trkpt lon="78.515864265623861" lat="17.629209543873372">
        <ele>511.489</ele>
        <time>2024-09-25T11:08:04Z</time>
      </trkpt>
      <trkpt lon="78.515864301359414" lat="17.629209590903166">
        <ele>511.489</ele>
        <time>2024-09-25T11:08:04Z</time>
      </trkpt>
      <trkpt lon="78.515864337094968" lat="17.629209637932959">
        <ele>511.489</ele>
        <time>2024-09-25T11:08:04Z</time>
      </trkpt>
      <trkpt lon="78.515864372830521" lat="17.629209684962753">
        <ele>511.489</ele>
        <time>2024-09-25T11:08:04Z</time>
      </trkpt>
      <trkpt lon="78.515864408566074" lat="17.629209731992546">
        <ele>511.489</ele>
        <time>2024-09-25T11:08:04Z</time>
      </trkpt>
      <trkpt lon="78.515864444301641" lat="17.629209779022339">
        <ele>511.489</ele>
        <time>2024-09-25T11:08:04Z</time>
      </trkpt>
      <trkpt lon="78.515864480037223" lat="17.629209826052133">
        <ele>511.489</ele>
        <time>2024-09-25T11:08:04Z</time>
      </trkpt>
      <trkpt lon="78.51586451577279" lat="17.62920987308193">
        <ele>511.489</ele>
        <time>2024-09-25T11:08:04Z</time>
      </trkpt>
      <trkpt lon="78.515864551508358" lat="17.629209920111723">
        <ele>511.489</ele>
        <time>2024-09-25T11:08:04Z</time>
      </trkpt>
      <trkpt lon="78.515864587243925" lat="17.62920996714152">
        <ele>511.489</ele>
        <time>2024-09-25T11:08:04Z</time>
      </trkpt>
      <trkpt lon="78.515864622979493" lat="17.629210014171314">
        <ele>511.489</ele>
        <time>2024-09-25T11:08:04Z</time>
      </trkpt>
      <trkpt lon="78.51586465871506" lat="17.62921006120111">
        <ele>511.489</ele>
        <time>2024-09-25T11:08:04Z</time>
      </trkpt>
      <trkpt lon="78.515864694450627" lat="17.629210108230904">
        <ele>511.489</ele>
        <time>2024-09-25T11:08:04Z</time>
      </trkpt>
      <trkpt lon="78.515864730186195" lat="17.629210155260701">
        <ele>511.489</ele>
        <time>2024-09-25T11:08:04Z</time>
      </trkpt>
      <trkpt lon="78.515864765921762" lat="17.629210202290498">
        <ele>511.489</ele>
        <time>2024-09-25T11:08:04Z</time>
      </trkpt>
      <trkpt lon="78.51586480165733" lat="17.629210249320295">
        <ele>511.489</ele>
        <time>2024-09-25T11:08:04Z</time>
      </trkpt>
      <trkpt lon="78.515864837392897" lat="17.629210296350092">
        <ele>511.489</ele>
        <time>2024-09-25T11:08:04Z</time>
      </trkpt>
      <trkpt lon="78.515864873128464" lat="17.629210343379889">
        <ele>511.489</ele>
        <time>2024-09-25T11:08:04Z</time>
      </trkpt>
      <trkpt lon="78.515864908864032" lat="17.629210390409686">
        <ele>511.489</ele>
        <time>2024-09-25T11:08:04Z</time>
      </trkpt>
      <trkpt lon="78.515864944599613" lat="17.629210437439482">
        <ele>511.489</ele>
        <time>2024-09-25T11:08:05Z</time>
      </trkpt>
      <trkpt lon="78.515864980335195" lat="17.629210484469279">
        <ele>511.489</ele>
        <time>2024-09-25T11:08:05Z</time>
      </trkpt>
      <trkpt lon="78.515865016070777" lat="17.629210531499076">
        <ele>511.489</ele>
        <time>2024-09-25T11:08:05Z</time>
      </trkpt>
      <trkpt lon="78.515865051806358" lat="17.629210578528873">
        <ele>511.489</ele>
        <time>2024-09-25T11:08:05Z</time>
      </trkpt>
      <trkpt lon="78.515865087541926" lat="17.629210625558667">
        <ele>511.489</ele>
        <time>2024-09-25T11:08:05Z</time>
      </trkpt>
      <trkpt lon="78.515865123277493" lat="17.62921067258846">
        <ele>511.489</ele>
        <time>2024-09-25T11:08:05Z</time>
      </trkpt>
      <trkpt lon="78.51586515901306" lat="17.629210719618253">
        <ele>511.489</ele>
        <time>2024-09-25T11:08:05Z</time>
      </trkpt>
      <trkpt lon="78.515865194748628" lat="17.629210766648047">
        <ele>511.489</ele>
        <time>2024-09-25T11:08:05Z</time>
      </trkpt>
      <trkpt lon="78.515865230484195" lat="17.62921081367784">
        <ele>511.489</ele>
        <time>2024-09-25T11:08:05Z</time>
      </trkpt>
      <trkpt lon="78.515865266219762" lat="17.629210860707634">
        <ele>511.489</ele>
        <time>2024-09-25T11:08:05Z</time>
      </trkpt>
      <trkpt lon="78.51586530195533" lat="17.629210907737427">
        <ele>511.489</ele>
        <time>2024-09-25T11:08:05Z</time>
      </trkpt>
      <trkpt lon="78.515865337690897" lat="17.62921095476722">
        <ele>511.489</ele>
        <time>2024-09-25T11:08:05Z</time>
      </trkpt>
      <trkpt lon="78.515865373426465" lat="17.629211001797014">
        <ele>511.489</ele>
        <time>2024-09-25T11:08:05Z</time>
      </trkpt>
      <trkpt lon="78.515865409162032" lat="17.629211048826811">
        <ele>511.489</ele>
        <time>2024-09-25T11:08:05Z</time>
      </trkpt>
      <trkpt lon="78.515865444897599" lat="17.629211095856608">
        <ele>511.489</ele>
        <time>2024-09-25T11:08:05Z</time>
      </trkpt>
      <trkpt lon="78.515865480633167" lat="17.629211142886405">
        <ele>511.489</ele>
        <time>2024-09-25T11:08:05Z</time>
      </trkpt>
      <trkpt lon="78.515865516368734" lat="17.629211189916202">
        <ele>511.489</ele>
        <time>2024-09-25T11:08:05Z</time>
      </trkpt>
      <trkpt lon="78.515865552104302" lat="17.629211236945999">
        <ele>511.489</ele>
        <time>2024-09-25T11:08:05Z</time>
      </trkpt>
      <trkpt lon="78.515865587839869" lat="17.629211283975796">
        <ele>511.489</ele>
        <time>2024-09-25T11:08:05Z</time>
      </trkpt>
      <trkpt lon="78.515865623575436" lat="17.629211331005592">
        <ele>511.489</ele>
        <time>2024-09-25T11:08:05Z</time>
      </trkpt>
      <trkpt lon="78.515865659311004" lat="17.629211378035389">
        <ele>511.489</ele>
        <time>2024-09-25T11:08:05Z</time>
      </trkpt>
      <trkpt lon="78.515865695046571" lat="17.629211425065186">
        <ele>511.489</ele>
        <time>2024-09-25T11:08:05Z</time>
      </trkpt>
      <trkpt lon="78.515865730782139" lat="17.62921147209498">
        <ele>511.489</ele>
        <time>2024-09-25T11:08:05Z</time>
      </trkpt>
      <trkpt lon="78.515865766517706" lat="17.629211519124773">
        <ele>511.489</ele>
        <time>2024-09-25T11:08:05Z</time>
      </trkpt>
      <trkpt lon="78.515865802253273" lat="17.629211566154567">
        <ele>511.489</ele>
        <time>2024-09-25T11:08:05Z</time>
      </trkpt>
      <trkpt lon="78.515865837988841" lat="17.62921161318436">
        <ele>511.489</ele>
        <time>2024-09-25T11:08:05Z</time>
      </trkpt>
      <trkpt lon="78.515865873724394" lat="17.629211660214153">
        <ele>511.489</ele>
        <time>2024-09-25T11:08:05Z</time>
      </trkpt>
      <trkpt lon="78.515865909459947" lat="17.629211707243947">
        <ele>511.489</ele>
        <time>2024-09-25T11:08:05Z</time>
      </trkpt>
      <trkpt lon="78.515865945195515" lat="17.62921175427374">
        <ele>511.489</ele>
        <time>2024-09-25T11:08:05Z</time>
      </trkpt>
      <trkpt lon="78.515865980931082" lat="17.629211801303533">
        <ele>511.489</ele>
        <time>2024-09-25T11:08:06Z</time>
      </trkpt>
      <trkpt lon="78.515866016666649" lat="17.629211848333327">
        <ele>511.489</ele>
        <time>2024-09-25T11:08:06Z</time>
      </trkpt>
      <trkpt lon="78.515866052402217" lat="17.629211895363124">
        <ele>511.489</ele>
        <time>2024-09-25T11:08:06Z</time>
      </trkpt>
      <trkpt lon="78.515866088137784" lat="17.629211942392921">
        <ele>511.489</ele>
        <time>2024-09-25T11:08:06Z</time>
      </trkpt>
      <trkpt lon="78.515866123873352" lat="17.629211989422718">
        <ele>511.489</ele>
        <time>2024-09-25T11:08:06Z</time>
      </trkpt>
      <trkpt lon="78.515866159608919" lat="17.629212036452515">
        <ele>511.489</ele>
        <time>2024-09-25T11:08:06Z</time>
      </trkpt>
      <trkpt lon="78.515866195344486" lat="17.629212083482312">
        <ele>511.489</ele>
        <time>2024-09-25T11:08:06Z</time>
      </trkpt>
      <trkpt lon="78.515866231080054" lat="17.629212130512109">
        <ele>511.489</ele>
        <time>2024-09-25T11:08:06Z</time>
      </trkpt>
      <trkpt lon="78.515866266815621" lat="17.629212177541906">
        <ele>511.489</ele>
        <time>2024-09-25T11:08:06Z</time>
      </trkpt>
      <trkpt lon="78.515866302551188" lat="17.629212224571699">
        <ele>511.489</ele>
        <time>2024-09-25T11:08:06Z</time>
      </trkpt>
      <trkpt lon="78.515866338286756" lat="17.629212271601492">
        <ele>511.489</ele>
        <time>2024-09-25T11:08:06Z</time>
      </trkpt>
      <trkpt lon="78.515866374022323" lat="17.629212318631286">
        <ele>511.489</ele>
        <time>2024-09-25T11:08:06Z</time>
      </trkpt>
      <trkpt lon="78.515866409757891" lat="17.629212365661079">
        <ele>511.489</ele>
        <time>2024-09-25T11:08:06Z</time>
      </trkpt>
      <trkpt lon="78.515866445493458" lat="17.629212412690872">
        <ele>511.489</ele>
        <time>2024-09-25T11:08:06Z</time>
      </trkpt>
      <trkpt lon="78.515866481229025" lat="17.629212459720666">
        <ele>511.489</ele>
        <time>2024-09-25T11:08:06Z</time>
      </trkpt>
      <trkpt lon="78.515866516964593" lat="17.629212506750459">
        <ele>511.489</ele>
        <time>2024-09-25T11:08:06Z</time>
      </trkpt>
      <trkpt lon="78.51586655270016" lat="17.629212553780256">
        <ele>511.489</ele>
        <time>2024-09-25T11:08:06Z</time>
      </trkpt>
      <trkpt lon="78.515866588435742" lat="17.629212600810053">
        <ele>511.489</ele>
        <time>2024-09-25T11:08:06Z</time>
      </trkpt>
      <trkpt lon="78.515866624171323" lat="17.62921264783985">
        <ele>511.489</ele>
        <time>2024-09-25T11:08:06Z</time>
      </trkpt>
      <trkpt lon="78.515866659906905" lat="17.629212694869647">
        <ele>511.489</ele>
        <time>2024-09-25T11:08:06Z</time>
      </trkpt>
      <trkpt lon="78.515866695642487" lat="17.629212741899444">
        <ele>511.489</ele>
        <time>2024-09-25T11:08:06Z</time>
      </trkpt>
      <trkpt lon="78.515866731378054" lat="17.629212788929241">
        <ele>511.489</ele>
        <time>2024-09-25T11:08:06Z</time>
      </trkpt>
      <trkpt lon="78.515866767113621" lat="17.629212835959038">
        <ele>511.489</ele>
        <time>2024-09-25T11:08:06Z</time>
      </trkpt>
      <trkpt lon="78.515866802849189" lat="17.629212882988831">
        <ele>511.489</ele>
        <time>2024-09-25T11:08:06Z</time>
      </trkpt>
      <trkpt lon="78.515866838584756" lat="17.629212930018625">
        <ele>511.489</ele>
        <time>2024-09-25T11:08:06Z</time>
      </trkpt>
      <trkpt lon="78.515866874320324" lat="17.629212977048418">
        <ele>511.489</ele>
        <time>2024-09-25T11:08:06Z</time>
      </trkpt>
      <trkpt lon="78.515866910055891" lat="17.629213024078211">
        <ele>511.489</ele>
        <time>2024-09-25T11:08:06Z</time>
      </trkpt>
      <trkpt lon="78.515866945791458" lat="17.629213071108005">
        <ele>511.489</ele>
        <time>2024-09-25T11:08:06Z</time>
      </trkpt>
      <trkpt lon="78.515866981527026" lat="17.629213118137798">
        <ele>511.489</ele>
        <time>2024-09-25T11:08:06Z</time>
      </trkpt>
      <trkpt lon="78.515867017262593" lat="17.629213165167592">
        <ele>511.489</ele>
        <time>2024-09-25T11:08:07Z</time>
      </trkpt>
      <trkpt lon="78.515867052998161" lat="17.629213212197389">
        <ele>511.489</ele>
        <time>2024-09-25T11:08:07Z</time>
      </trkpt>
      <trkpt lon="78.515867088733728" lat="17.629213259227186">
        <ele>511.489</ele>
        <time>2024-09-25T11:08:07Z</time>
      </trkpt>
      <trkpt lon="78.515867124469295" lat="17.629213306256982">
        <ele>511.489</ele>
        <time>2024-09-25T11:08:07Z</time>
      </trkpt>
      <trkpt lon="78.515867160204863" lat="17.629213353286779">
        <ele>511.489</ele>
        <time>2024-09-25T11:08:07Z</time>
      </trkpt>
      <trkpt lon="78.51586719594043" lat="17.629213400316576">
        <ele>511.489</ele>
        <time>2024-09-25T11:08:07Z</time>
      </trkpt>
      <trkpt lon="78.515867231675998" lat="17.629213447346373">
        <ele>511.489</ele>
        <time>2024-09-25T11:08:07Z</time>
      </trkpt>
      <trkpt lon="78.515867267411565" lat="17.62921349437617">
        <ele>511.489</ele>
        <time>2024-09-25T11:08:07Z</time>
      </trkpt>
      <trkpt lon="78.515867303147132" lat="17.629213541405964">
        <ele>511.489</ele>
        <time>2024-09-25T11:08:07Z</time>
      </trkpt>
      <trkpt lon="78.5158673388827" lat="17.629213588435757">
        <ele>511.489</ele>
        <time>2024-09-25T11:08:07Z</time>
      </trkpt>
      <trkpt lon="78.515867374618267" lat="17.62921363546555">
        <ele>511.489</ele>
        <time>2024-09-25T11:08:07Z</time>
      </trkpt>
      <trkpt lon="78.51586741035382" lat="17.629213682495344">
        <ele>511.489</ele>
        <time>2024-09-25T11:08:07Z</time>
      </trkpt>
      <trkpt lon="78.515867446089374" lat="17.629213729525137">
        <ele>511.489</ele>
        <time>2024-09-25T11:08:07Z</time>
      </trkpt>
      <trkpt lon="78.515867481824941" lat="17.629213776554931">
        <ele>511.489</ele>
        <time>2024-09-25T11:08:07Z</time>
      </trkpt>
      <trkpt lon="78.515867517560508" lat="17.629213823584724">
        <ele>511.489</ele>
        <time>2024-09-25T11:08:07Z</time>
      </trkpt>
      <trkpt lon="78.515867553296076" lat="17.629213870614521">
        <ele>511.489</ele>
        <time>2024-09-25T11:08:07Z</time>
      </trkpt>
      <trkpt lon="78.515867589031643" lat="17.629213917644318">
        <ele>511.489</ele>
        <time>2024-09-25T11:08:07Z</time>
      </trkpt>
      <trkpt lon="78.51586762476721" lat="17.629213964674115">
        <ele>511.489</ele>
        <time>2024-09-25T11:08:07Z</time>
      </trkpt>
      <trkpt lon="78.515867660502778" lat="17.629214011703912">
        <ele>511.489</ele>
        <time>2024-09-25T11:08:07Z</time>
      </trkpt>
      <trkpt lon="78.515867696238345" lat="17.629214058733709">
        <ele>511.489</ele>
        <time>2024-09-25T11:08:07Z</time>
      </trkpt>
      <trkpt lon="78.515867731973913" lat="17.629214105763506">
        <ele>511.489</ele>
        <time>2024-09-25T11:08:07Z</time>
      </trkpt>
      <trkpt lon="78.51586776770948" lat="17.629214152793303">
        <ele>511.489</ele>
        <time>2024-09-25T11:08:07Z</time>
      </trkpt>
      <trkpt lon="78.515867803445047" lat="17.629214199823096">
        <ele>511.489</ele>
        <time>2024-09-25T11:08:07Z</time>
      </trkpt>
      <trkpt lon="78.515867839180615" lat="17.629214246852889">
        <ele>511.489</ele>
        <time>2024-09-25T11:08:07Z</time>
      </trkpt>
      <trkpt lon="78.515867874916182" lat="17.629214293882683">
        <ele>511.489</ele>
        <time>2024-09-25T11:08:07Z</time>
      </trkpt>
      <trkpt lon="78.51586791065175" lat="17.629214340912476">
        <ele>511.489</ele>
        <time>2024-09-25T11:08:07Z</time>
      </trkpt>
      <trkpt lon="78.515867946387317" lat="17.62921438794227">
        <ele>511.489</ele>
        <time>2024-09-25T11:08:07Z</time>
      </trkpt>
      <trkpt lon="78.515867982122884" lat="17.629214434972063">
        <ele>511.489</ele>
        <time>2024-09-25T11:08:07Z</time>
      </trkpt>
      <trkpt lon="78.515868017858452" lat="17.629214482001856">
        <ele>511.489</ele>
        <time>2024-09-25T11:08:07Z</time>
      </trkpt>
      <trkpt lon="78.515868053594019" lat="17.629214529031653">
        <ele>511.489</ele>
        <time>2024-09-25T11:08:07Z</time>
      </trkpt>
      <trkpt lon="78.515868089329587" lat="17.62921457606145">
        <ele>511.489</ele>
        <time>2024-09-25T11:08:08Z</time>
      </trkpt>
      <trkpt lon="78.515868125065154" lat="17.629214623091247">
        <ele>511.489</ele>
        <time>2024-09-25T11:08:08Z</time>
      </trkpt>
      <trkpt lon="78.515868160800721" lat="17.629214670121044">
        <ele>511.489</ele>
        <time>2024-09-25T11:08:08Z</time>
      </trkpt>
      <trkpt lon="78.515868196536303" lat="17.629214717150841">
        <ele>511.489</ele>
        <time>2024-09-25T11:08:08Z</time>
      </trkpt>
      <trkpt lon="78.515868232271885" lat="17.629214764180638">
        <ele>511.489</ele>
        <time>2024-09-25T11:08:08Z</time>
      </trkpt>
      <trkpt lon="78.515868268007466" lat="17.629214811210435">
        <ele>511.489</ele>
        <time>2024-09-25T11:08:08Z</time>
      </trkpt>
      <trkpt lon="78.515868303743048" lat="17.629214858240228">
        <ele>511.489</ele>
        <time>2024-09-25T11:08:08Z</time>
      </trkpt>
      <trkpt lon="78.515868339478615" lat="17.629214905270022">
        <ele>511.489</ele>
        <time>2024-09-25T11:08:08Z</time>
      </trkpt>
      <trkpt lon="78.515868375214183" lat="17.629214952299815">
        <ele>511.489</ele>
        <time>2024-09-25T11:08:08Z</time>
      </trkpt>
      <trkpt lon="78.51586841094975" lat="17.629214999329609">
        <ele>511.489</ele>
        <time>2024-09-25T11:08:08Z</time>
      </trkpt>
      <trkpt lon="78.515868446685317" lat="17.629215046359402">
        <ele>511.489</ele>
        <time>2024-09-25T11:08:08Z</time>
      </trkpt>
      <trkpt lon="78.515868482420885" lat="17.629215093389195">
        <ele>511.489</ele>
        <time>2024-09-25T11:08:08Z</time>
      </trkpt>
      <trkpt lon="78.515868518156452" lat="17.629215140418989">
        <ele>511.489</ele>
        <time>2024-09-25T11:08:08Z</time>
      </trkpt>
      <trkpt lon="78.51586855389202" lat="17.629215187448786">
        <ele>511.489</ele>
        <time>2024-09-25T11:08:08Z</time>
      </trkpt>
      <trkpt lon="78.515868589627587" lat="17.629215234478583">
        <ele>511.489</ele>
        <time>2024-09-25T11:08:08Z</time>
      </trkpt>
      <trkpt lon="78.515868625363154" lat="17.62921528150838">
        <ele>511.489</ele>
        <time>2024-09-25T11:08:08Z</time>
      </trkpt>
      <trkpt lon="78.515868661098722" lat="17.629215328538177">
        <ele>511.489</ele>
        <time>2024-09-25T11:08:08Z</time>
      </trkpt>
      <trkpt lon="78.515868696834289" lat="17.629215375567973">
        <ele>511.489</ele>
        <time>2024-09-25T11:08:08Z</time>
      </trkpt>
      <trkpt lon="78.515868732569857" lat="17.62921542259777">
        <ele>511.489</ele>
        <time>2024-09-25T11:08:08Z</time>
      </trkpt>
      <trkpt lon="78.515868768305424" lat="17.629215469627567">
        <ele>511.489</ele>
        <time>2024-09-25T11:08:08Z</time>
      </trkpt>
      <trkpt lon="78.515868804040991" lat="17.629215516657361">
        <ele>511.489</ele>
        <time>2024-09-25T11:08:08Z</time>
      </trkpt>
      <trkpt lon="78.515868839776545" lat="17.629215563687154">
        <ele>511.489</ele>
        <time>2024-09-25T11:08:08Z</time>
      </trkpt>
      <trkpt lon="78.515868875512098" lat="17.629215610716948">
        <ele>511.489</ele>
        <time>2024-09-25T11:08:08Z</time>
      </trkpt>
      <trkpt lon="78.515868911247665" lat="17.629215657746741">
        <ele>511.489</ele>
        <time>2024-09-25T11:08:08Z</time>
      </trkpt>
      <trkpt lon="78.515868946983232" lat="17.629215704776534">
        <ele>511.489</ele>
        <time>2024-09-25T11:08:08Z</time>
      </trkpt>
      <trkpt lon="78.5158689827188" lat="17.629215751806328">
        <ele>511.489</ele>
        <time>2024-09-25T11:08:08Z</time>
      </trkpt>
      <trkpt lon="78.515869018454367" lat="17.629215798836121">
        <ele>511.489</ele>
        <time>2024-09-25T11:08:08Z</time>
      </trkpt>
      <trkpt lon="78.515869054189935" lat="17.629215845865918">
        <ele>511.489</ele>
        <time>2024-09-25T11:08:08Z</time>
      </trkpt>
      <trkpt lon="78.515869089925502" lat="17.629215892895715">
        <ele>511.489</ele>
        <time>2024-09-25T11:08:08Z</time>
      </trkpt>
      <trkpt lon="78.515869125661069" lat="17.629215939925512">
        <ele>511.489</ele>
        <time>2024-09-25T11:08:09Z</time>
      </trkpt>
      <trkpt lon="78.515869161396637" lat="17.629215986955309">
        <ele>511.489</ele>
        <time>2024-09-25T11:08:09Z</time>
      </trkpt>
      <trkpt lon="78.515869197132204" lat="17.629216033985106">
        <ele>511.489</ele>
        <time>2024-09-25T11:08:09Z</time>
      </trkpt>
      <trkpt lon="78.515869232867772" lat="17.629216081014903">
        <ele>511.489</ele>
        <time>2024-09-25T11:08:09Z</time>
      </trkpt>
      <trkpt lon="78.515869268603339" lat="17.6292161280447">
        <ele>511.489</ele>
        <time>2024-09-25T11:08:09Z</time>
      </trkpt>
      <trkpt lon="78.515869304338906" lat="17.629216175074493">
        <ele>511.489</ele>
        <time>2024-09-25T11:08:09Z</time>
      </trkpt>
      <trkpt lon="78.515869340074474" lat="17.629216222104287">
        <ele>511.489</ele>
        <time>2024-09-25T11:08:09Z</time>
      </trkpt>
      <trkpt lon="78.515869375810041" lat="17.62921626913408">
        <ele>511.489</ele>
        <time>2024-09-25T11:08:09Z</time>
      </trkpt>
      <trkpt lon="78.515869411545609" lat="17.629216316163873">
        <ele>511.489</ele>
        <time>2024-09-25T11:08:09Z</time>
      </trkpt>
      <trkpt lon="78.515869447281176" lat="17.629216363193667">
        <ele>511.489</ele>
        <time>2024-09-25T11:08:09Z</time>
      </trkpt>
      <trkpt lon="78.515869483016743" lat="17.62921641022346">
        <ele>511.489</ele>
        <time>2024-09-25T11:08:09Z</time>
      </trkpt>
      <trkpt lon="78.515869518752311" lat="17.629216457253253">
        <ele>511.489</ele>
        <time>2024-09-25T11:08:09Z</time>
      </trkpt>
      <trkpt lon="78.515869554487878" lat="17.62921650428305">
        <ele>511.489</ele>
        <time>2024-09-25T11:08:09Z</time>
      </trkpt>
      <trkpt lon="78.515869590223446" lat="17.629216551312847">
        <ele>511.489</ele>
        <time>2024-09-25T11:08:09Z</time>
      </trkpt>
      <trkpt lon="78.515869625959013" lat="17.629216598342644">
        <ele>511.489</ele>
        <time>2024-09-25T11:08:09Z</time>
      </trkpt>
      <trkpt lon="78.51586966169458" lat="17.629216645372441">
        <ele>511.489</ele>
        <time>2024-09-25T11:08:09Z</time>
      </trkpt>
      <trkpt lon="78.515869697430148" lat="17.629216692402238">
        <ele>511.489</ele>
        <time>2024-09-25T11:08:09Z</time>
      </trkpt>
      <trkpt lon="78.515869733165715" lat="17.629216739432035">
        <ele>511.489</ele>
        <time>2024-09-25T11:08:09Z</time>
      </trkpt>
      <trkpt lon="78.515869768901283" lat="17.629216786461832">
        <ele>511.489</ele>
        <time>2024-09-25T11:08:09Z</time>
      </trkpt>
      <trkpt lon="78.515869804636864" lat="17.629216833491625">
        <ele>511.489</ele>
        <time>2024-09-25T11:08:09Z</time>
      </trkpt>
      <trkpt lon="78.515869840372446" lat="17.629216880521419">
        <ele>511.489</ele>
        <time>2024-09-25T11:08:09Z</time>
      </trkpt>
      <trkpt lon="78.515869876108027" lat="17.629216927551212">
        <ele>511.489</ele>
        <time>2024-09-25T11:08:09Z</time>
      </trkpt>
      <trkpt lon="78.515869911843609" lat="17.629216974581006">
        <ele>511.489</ele>
        <time>2024-09-25T11:08:09Z</time>
      </trkpt>
      <trkpt lon="78.515869947579176" lat="17.629217021610799">
        <ele>511.489</ele>
        <time>2024-09-25T11:08:09Z</time>
      </trkpt>
      <trkpt lon="78.515869983314744" lat="17.629217068640592">
        <ele>511.489</ele>
        <time>2024-09-25T11:08:09Z</time>
      </trkpt>
      <trkpt lon="78.515870019050311" lat="17.629217115670386">
        <ele>511.489</ele>
        <time>2024-09-25T11:08:09Z</time>
      </trkpt>
      <trkpt lon="78.515870054785879" lat="17.629217162700183">
        <ele>511.489</ele>
        <time>2024-09-25T11:08:09Z</time>
      </trkpt>
      <trkpt lon="78.515870090521446" lat="17.62921720972998">
        <ele>511.489</ele>
        <time>2024-09-25T11:08:09Z</time>
      </trkpt>
      <trkpt lon="78.515870126257013" lat="17.629217256759777">
        <ele>511.489</ele>
        <time>2024-09-25T11:08:09Z</time>
      </trkpt>
      <trkpt lon="78.515870161992581" lat="17.629217303789574">
        <ele>511.489</ele>
        <time>2024-09-25T11:08:09Z</time>
      </trkpt>
      <trkpt lon="78.515870197728148" lat="17.629217350819371">
        <ele>511.489</ele>
        <time>2024-09-25T11:08:10Z</time>
      </trkpt>
      <trkpt lon="78.515870233463716" lat="17.629217397849168">
        <ele>511.489</ele>
        <time>2024-09-25T11:08:10Z</time>
      </trkpt>
      <trkpt lon="78.515870269199283" lat="17.629217444878964">
        <ele>511.489</ele>
        <time>2024-09-25T11:08:10Z</time>
      </trkpt>
      <trkpt lon="78.51587030493485" lat="17.629217491908758">
        <ele>511.489</ele>
        <time>2024-09-25T11:08:10Z</time>
      </trkpt>
      <trkpt lon="78.515870340670418" lat="17.629217538938551">
        <ele>511.489</ele>
        <time>2024-09-25T11:08:10Z</time>
      </trkpt>
      <trkpt lon="78.515870376405985" lat="17.629217585968345">
        <ele>511.489</ele>
        <time>2024-09-25T11:08:10Z</time>
      </trkpt>
      <trkpt lon="78.515870412141552" lat="17.629217632998138">
        <ele>511.489</ele>
        <time>2024-09-25T11:08:10Z</time>
      </trkpt>
      <trkpt lon="78.515870447877106" lat="17.629217680027931">
        <ele>511.489</ele>
        <time>2024-09-25T11:08:10Z</time>
      </trkpt>
      <trkpt lon="78.515870483612659" lat="17.629217727057725">
        <ele>511.489</ele>
        <time>2024-09-25T11:08:10Z</time>
      </trkpt>
      <trkpt lon="78.515870519348212" lat="17.629217774087518">
        <ele>511.489</ele>
        <time>2024-09-25T11:08:10Z</time>
      </trkpt>
      <trkpt lon="78.515870555083765" lat="17.629217821117315">
        <ele>511.489</ele>
        <time>2024-09-25T11:08:10Z</time>
      </trkpt>
      <trkpt lon="78.515870590819347" lat="17.629217868147112">
        <ele>511.489</ele>
        <time>2024-09-25T11:08:10Z</time>
      </trkpt>
      <trkpt lon="78.515870626554914" lat="17.629217915176909">
        <ele>511.489</ele>
        <time>2024-09-25T11:08:10Z</time>
      </trkpt>
      <trkpt lon="78.515870662290482" lat="17.629217962206706">
        <ele>511.489</ele>
        <time>2024-09-25T11:08:10Z</time>
      </trkpt>
      <trkpt lon="78.515870698026049" lat="17.629218009236503">
        <ele>511.489</ele>
        <time>2024-09-25T11:08:10Z</time>
      </trkpt>
      <trkpt lon="78.515870733761616" lat="17.6292180562663">
        <ele>511.489</ele>
        <time>2024-09-25T11:08:10Z</time>
      </trkpt>
      <trkpt lon="78.515870769497184" lat="17.629218103296097">
        <ele>511.489</ele>
        <time>2024-09-25T11:08:10Z</time>
      </trkpt>
      <trkpt lon="78.515870805232751" lat="17.62921815032589">
        <ele>511.489</ele>
        <time>2024-09-25T11:08:10Z</time>
      </trkpt>
      <trkpt lon="78.515870840968319" lat="17.629218197355684">
        <ele>511.489</ele>
        <time>2024-09-25T11:08:10Z</time>
      </trkpt>
      <trkpt lon="78.515870876703886" lat="17.629218244385477">
        <ele>511.489</ele>
        <time>2024-09-25T11:08:10Z</time>
      </trkpt>
      <trkpt lon="78.515870912439453" lat="17.62921829141527">
        <ele>511.489</ele>
        <time>2024-09-25T11:08:10Z</time>
      </trkpt>
      <trkpt lon="78.515870948175021" lat="17.629218338445064">
        <ele>511.489</ele>
        <time>2024-09-25T11:08:10Z</time>
      </trkpt>
      <trkpt lon="78.515870983910588" lat="17.629218385474857">
        <ele>511.489</ele>
        <time>2024-09-25T11:08:10Z</time>
      </trkpt>
      <trkpt lon="78.515871019646156" lat="17.629218432504651">
        <ele>511.489</ele>
        <time>2024-09-25T11:08:10Z</time>
      </trkpt>
      <trkpt lon="78.515871055381737" lat="17.629218479534448">
        <ele>511.489</ele>
        <time>2024-09-25T11:08:10Z</time>
      </trkpt>
      <trkpt lon="78.515871091117319" lat="17.629218526564244">
        <ele>511.489</ele>
        <time>2024-09-25T11:08:10Z</time>
      </trkpt>
      <trkpt lon="78.5158711268529" lat="17.629218573594041">
        <ele>511.489</ele>
        <time>2024-09-25T11:08:10Z</time>
      </trkpt>
      <trkpt lon="78.515871162588482" lat="17.629218620623838">
        <ele>511.489</ele>
        <time>2024-09-25T11:08:10Z</time>
      </trkpt>
      <trkpt lon="78.515871198324049" lat="17.629218667653635">
        <ele>511.489</ele>
        <time>2024-09-25T11:08:10Z</time>
      </trkpt>
      <trkpt lon="78.515871234059617" lat="17.629218714683432">
        <ele>511.489</ele>
        <time>2024-09-25T11:08:11Z</time>
      </trkpt>
      <trkpt lon="78.515871269795184" lat="17.629218761713229">
        <ele>511.489</ele>
        <time>2024-09-25T11:08:11Z</time>
      </trkpt>
      <trkpt lon="78.515871305530752" lat="17.629218808743023">
        <ele>511.489</ele>
        <time>2024-09-25T11:08:11Z</time>
      </trkpt>
      <trkpt lon="78.515871341266319" lat="17.629218855772816">
        <ele>511.489</ele>
        <time>2024-09-25T11:08:11Z</time>
      </trkpt>
      <trkpt lon="78.515871377001886" lat="17.629218902802609">
        <ele>511.489</ele>
        <time>2024-09-25T11:08:11Z</time>
      </trkpt>
      <trkpt lon="78.515871412737454" lat="17.629218949832403">
        <ele>511.489</ele>
        <time>2024-09-25T11:08:11Z</time>
      </trkpt>
      <trkpt lon="78.515871448473021" lat="17.629218996862196">
        <ele>511.489</ele>
        <time>2024-09-25T11:08:11Z</time>
      </trkpt>
      <trkpt lon="78.515871484208589" lat="17.62921904389199">
        <ele>511.489</ele>
        <time>2024-09-25T11:08:11Z</time>
      </trkpt>
      <trkpt lon="78.515871519944156" lat="17.629219090921783">
        <ele>511.489</ele>
        <time>2024-09-25T11:08:11Z</time>
      </trkpt>
      <trkpt lon="78.515871555679723" lat="17.62921913795158">
        <ele>511.489</ele>
        <time>2024-09-25T11:08:11Z</time>
      </trkpt>
      <trkpt lon="78.515871591415291" lat="17.629219184981377">
        <ele>511.489</ele>
        <time>2024-09-25T11:08:11Z</time>
      </trkpt>
      <trkpt lon="78.515871627150858" lat="17.629219232011174">
        <ele>511.489</ele>
        <time>2024-09-25T11:08:11Z</time>
      </trkpt>
      <trkpt lon="78.515871662886425" lat="17.629219279040971">
        <ele>511.489</ele>
        <time>2024-09-25T11:08:11Z</time>
      </trkpt>
      <trkpt lon="78.515871698621993" lat="17.629219326070768">
        <ele>511.489</ele>
        <time>2024-09-25T11:08:11Z</time>
      </trkpt>
      <trkpt lon="78.51587173435756" lat="17.629219373100565">
        <ele>511.489</ele>
        <time>2024-09-25T11:08:11Z</time>
      </trkpt>
      <trkpt lon="78.515871770093128" lat="17.629219420130362">
        <ele>511.489</ele>
        <time>2024-09-25T11:08:11Z</time>
      </trkpt>
      <trkpt lon="78.515871805828695" lat="17.629219467160155">
        <ele>511.489</ele>
        <time>2024-09-25T11:08:11Z</time>
      </trkpt>
      <trkpt lon="78.515871841564262" lat="17.629219514189948">
        <ele>511.489</ele>
        <time>2024-09-25T11:08:11Z</time>
      </trkpt>
      <trkpt lon="78.51587187729983" lat="17.629219561219742">
        <ele>511.489</ele>
        <time>2024-09-25T11:08:11Z</time>
      </trkpt>
      <trkpt lon="78.515871913035397" lat="17.629219608249535">
        <ele>511.489</ele>
        <time>2024-09-25T11:08:11Z</time>
      </trkpt>
      <trkpt lon="78.51587194877095" lat="17.629219655279329">
        <ele>511.489</ele>
        <time>2024-09-25T11:08:11Z</time>
      </trkpt>
      <trkpt lon="78.515871984506504" lat="17.629219702309122">
        <ele>511.489</ele>
        <time>2024-09-25T11:08:11Z</time>
      </trkpt>
      <trkpt lon="78.515872020242071" lat="17.629219749338915">
        <ele>511.489</ele>
        <time>2024-09-25T11:08:11Z</time>
      </trkpt>
      <trkpt lon="78.515872055977638" lat="17.629219796368712">
        <ele>511.489</ele>
        <time>2024-09-25T11:08:11Z</time>
      </trkpt>
      <trkpt lon="78.515872091713206" lat="17.629219843398509">
        <ele>511.489</ele>
        <time>2024-09-25T11:08:11Z</time>
      </trkpt>
      <trkpt lon="78.515872127448773" lat="17.629219890428306">
        <ele>511.489</ele>
        <time>2024-09-25T11:08:11Z</time>
      </trkpt>
      <trkpt lon="78.515872163184341" lat="17.629219937458103">
        <ele>511.489</ele>
        <time>2024-09-25T11:08:11Z</time>
      </trkpt>
      <trkpt lon="78.515872198919908" lat="17.6292199844879">
        <ele>511.489</ele>
        <time>2024-09-25T11:08:11Z</time>
      </trkpt>
      <trkpt lon="78.515872234655475" lat="17.629220031517697">
        <ele>511.489</ele>
        <time>2024-09-25T11:08:11Z</time>
      </trkpt>
      <trkpt lon="78.515872270391043" lat="17.629220078547494">
        <ele>511.489</ele>
        <time>2024-09-25T11:08:12Z</time>
      </trkpt>
      <trkpt lon="78.51587230612661" lat="17.629220125577287">
        <ele>511.489</ele>
        <time>2024-09-25T11:08:12Z</time>
      </trkpt>
      <trkpt lon="78.515872341862178" lat="17.629220172607081">
        <ele>511.489</ele>
        <time>2024-09-25T11:08:12Z</time>
      </trkpt>
      <trkpt lon="78.515872377597745" lat="17.629220219636874">
        <ele>511.489</ele>
        <time>2024-09-25T11:08:12Z</time>
      </trkpt>
      <trkpt lon="78.515872413333312" lat="17.629220266666668">
        <ele>511.489</ele>
        <time>2024-09-25T11:08:12Z</time>
      </trkpt>
      <trkpt lon="78.51587244906888" lat="17.629220313696461">
        <ele>511.489</ele>
        <time>2024-09-25T11:08:12Z</time>
      </trkpt>
      <trkpt lon="78.515872484804447" lat="17.629220360726254">
        <ele>511.489</ele>
        <time>2024-09-25T11:08:12Z</time>
      </trkpt>
      <trkpt lon="78.515872520540015" lat="17.629220407756048">
        <ele>511.489</ele>
        <time>2024-09-25T11:08:12Z</time>
      </trkpt>
      <trkpt lon="78.515872556275582" lat="17.629220454785841">
        <ele>511.489</ele>
        <time>2024-09-25T11:08:12Z</time>
      </trkpt>
      <trkpt lon="78.515872592011149" lat="17.629220501815638">
        <ele>511.489</ele>
        <time>2024-09-25T11:08:12Z</time>
      </trkpt>
      <trkpt lon="78.515872627746717" lat="17.629220548845435">
        <ele>511.489</ele>
        <time>2024-09-25T11:08:12Z</time>
      </trkpt>
      <trkpt lon="78.515872663482298" lat="17.629220595875232">
        <ele>511.489</ele>
        <time>2024-09-25T11:08:12Z</time>
      </trkpt>
      <trkpt lon="78.51587269921788" lat="17.629220642905029">
        <ele>511.489</ele>
        <time>2024-09-25T11:08:12Z</time>
      </trkpt>
      <trkpt lon="78.515872734953462" lat="17.629220689934826">
        <ele>511.489</ele>
        <time>2024-09-25T11:08:12Z</time>
      </trkpt>
      <trkpt lon="78.515872770689043" lat="17.629220736964623">
        <ele>511.489</ele>
        <time>2024-09-25T11:08:12Z</time>
      </trkpt>
      <trkpt lon="78.515872806424611" lat="17.62922078399442">
        <ele>511.489</ele>
        <time>2024-09-25T11:08:12Z</time>
      </trkpt>
      <trkpt lon="78.515872842160178" lat="17.629220831024213">
        <ele>511.489</ele>
        <time>2024-09-25T11:08:12Z</time>
      </trkpt>
      <trkpt lon="78.515872877895745" lat="17.629220878054007">
        <ele>511.489</ele>
        <time>2024-09-25T11:08:12Z</time>
      </trkpt>
      <trkpt lon="78.515872913631313" lat="17.6292209250838">
        <ele>511.489</ele>
        <time>2024-09-25T11:08:12Z</time>
      </trkpt>
      <trkpt lon="78.51587294936688" lat="17.629220972113593">
        <ele>511.489</ele>
        <time>2024-09-25T11:08:12Z</time>
      </trkpt>
      <trkpt lon="78.515872985102448" lat="17.629221019143387">
        <ele>511.489</ele>
        <time>2024-09-25T11:08:12Z</time>
      </trkpt>
      <trkpt lon="78.515873020838015" lat="17.62922106617318">
        <ele>511.489</ele>
        <time>2024-09-25T11:08:12Z</time>
      </trkpt>
      <trkpt lon="78.515873056573582" lat="17.629221113202973">
        <ele>511.489</ele>
        <time>2024-09-25T11:08:12Z</time>
      </trkpt>
      <trkpt lon="78.51587309230915" lat="17.62922116023277">
        <ele>511.489</ele>
        <time>2024-09-25T11:08:12Z</time>
      </trkpt>
      <trkpt lon="78.515873128044717" lat="17.629221207262567">
        <ele>511.489</ele>
        <time>2024-09-25T11:08:12Z</time>
      </trkpt>
      <trkpt lon="78.515873163780284" lat="17.629221254292364">
        <ele>511.489</ele>
        <time>2024-09-25T11:08:12Z</time>
      </trkpt>
      <trkpt lon="78.515873199515852" lat="17.629221301322161">
        <ele>511.489</ele>
        <time>2024-09-25T11:08:12Z</time>
      </trkpt>
      <trkpt lon="78.515873235251419" lat="17.629221348351958">
        <ele>511.489</ele>
        <time>2024-09-25T11:08:12Z</time>
      </trkpt>
      <trkpt lon="78.515873270986987" lat="17.629221395381755">
        <ele>511.489</ele>
        <time>2024-09-25T11:08:12Z</time>
      </trkpt>
      <trkpt lon="78.515873306722554" lat="17.629221442411552">
        <ele>511.489</ele>
        <time>2024-09-25T11:08:12Z</time>
      </trkpt>
      <trkpt lon="78.515873342458121" lat="17.629221489441345">
        <ele>511.489</ele>
        <time>2024-09-25T11:08:13Z</time>
      </trkpt>
      <trkpt lon="78.515873378193689" lat="17.629221536471139">
        <ele>511.489</ele>
        <time>2024-09-25T11:08:13Z</time>
      </trkpt>
      <trkpt lon="78.515873413929256" lat="17.629221583500932">
        <ele>511.489</ele>
        <time>2024-09-25T11:08:13Z</time>
      </trkpt>
      <trkpt lon="78.515873449664809" lat="17.629221630530726">
        <ele>511.489</ele>
        <time>2024-09-25T11:08:13Z</time>
      </trkpt>
      <trkpt lon="78.515873485400363" lat="17.629221677560519">
        <ele>511.489</ele>
        <time>2024-09-25T11:08:13Z</time>
      </trkpt>
      <trkpt lon="78.51587352113593" lat="17.629221724590312">
        <ele>511.489</ele>
        <time>2024-09-25T11:08:13Z</time>
      </trkpt>
      <trkpt lon="78.515873556871497" lat="17.629221771620106">
        <ele>511.489</ele>
        <time>2024-09-25T11:08:13Z</time>
      </trkpt>
      <trkpt lon="78.515873592607065" lat="17.629221818649903">
        <ele>511.489</ele>
        <time>2024-09-25T11:08:13Z</time>
      </trkpt>
      <trkpt lon="78.515873628342632" lat="17.6292218656797">
        <ele>511.489</ele>
        <time>2024-09-25T11:08:13Z</time>
      </trkpt>
      <trkpt lon="78.5158736640782" lat="17.629221912709497">
        <ele>511.489</ele>
        <time>2024-09-25T11:08:13Z</time>
      </trkpt>
      <trkpt lon="78.515873699813767" lat="17.629221959739294">
        <ele>511.489</ele>
        <time>2024-09-25T11:08:13Z</time>
      </trkpt>
      <trkpt lon="78.515873735549334" lat="17.629222006769091">
        <ele>511.489</ele>
        <time>2024-09-25T11:08:13Z</time>
      </trkpt>
      <trkpt lon="78.515873771284902" lat="17.629222053798888">
        <ele>511.489</ele>
        <time>2024-09-25T11:08:13Z</time>
      </trkpt>
      <trkpt lon="78.515873807020469" lat="17.629222100828684">
        <ele>511.489</ele>
        <time>2024-09-25T11:08:13Z</time>
      </trkpt>
      <trkpt lon="78.515873842756037" lat="17.629222147858478">
        <ele>511.489</ele>
        <time>2024-09-25T11:08:13Z</time>
      </trkpt>
      <trkpt lon="78.515873878491604" lat="17.629222194888271">
        <ele>511.489</ele>
        <time>2024-09-25T11:08:13Z</time>
      </trkpt>
      <trkpt lon="78.515873914227171" lat="17.629222241918065">
        <ele>511.489</ele>
        <time>2024-09-25T11:08:13Z</time>
      </trkpt>
      <trkpt lon="78.515873949962739" lat="17.629222288947858">
        <ele>511.489</ele>
        <time>2024-09-25T11:08:13Z</time>
      </trkpt>
      <trkpt lon="78.515873985698306" lat="17.629222335977651">
        <ele>511.489</ele>
        <time>2024-09-25T11:08:13Z</time>
      </trkpt>
      <trkpt lon="78.515874021433874" lat="17.629222383007445">
        <ele>511.489</ele>
        <time>2024-09-25T11:08:13Z</time>
      </trkpt>
      <trkpt lon="78.515874057169441" lat="17.629222430037238">
        <ele>511.489</ele>
        <time>2024-09-25T11:08:13Z</time>
      </trkpt>
      <trkpt lon="78.515874092905008" lat="17.629222477067035">
        <ele>511.489</ele>
        <time>2024-09-25T11:08:13Z</time>
      </trkpt>
      <trkpt lon="78.515874128640576" lat="17.629222524096832">
        <ele>511.489</ele>
        <time>2024-09-25T11:08:13Z</time>
      </trkpt>
      <trkpt lon="78.515874164376143" lat="17.629222571126629">
        <ele>511.489</ele>
        <time>2024-09-25T11:08:13Z</time>
      </trkpt>
      <trkpt lon="78.51587420011171" lat="17.629222618156426">
        <ele>511.489</ele>
        <time>2024-09-25T11:08:13Z</time>
      </trkpt>
      <trkpt lon="78.515874235847278" lat="17.629222665186223">
        <ele>511.489</ele>
        <time>2024-09-25T11:08:13Z</time>
      </trkpt>
      <trkpt lon="78.515874271582859" lat="17.62922271221602">
        <ele>511.489</ele>
        <time>2024-09-25T11:08:13Z</time>
      </trkpt>
      <trkpt lon="78.515874307318441" lat="17.629222759245817">
        <ele>511.489</ele>
        <time>2024-09-25T11:08:13Z</time>
      </trkpt>
      <trkpt lon="78.515874343054023" lat="17.62922280627561">
        <ele>511.489</ele>
        <time>2024-09-25T11:08:13Z</time>
      </trkpt>
      <trkpt lon="78.515874378789604" lat="17.629222853305404">
        <ele>511.489</ele>
        <time>2024-09-25T11:08:14Z</time>
      </trkpt>
      <trkpt lon="78.515874414525172" lat="17.629222900335197">
        <ele>511.489</ele>
        <time>2024-09-25T11:08:14Z</time>
      </trkpt>
      <trkpt lon="78.515874450260739" lat="17.62922294736499">
        <ele>511.489</ele>
        <time>2024-09-25T11:08:14Z</time>
      </trkpt>
      <trkpt lon="78.515874485996306" lat="17.629222994394784">
        <ele>511.489</ele>
        <time>2024-09-25T11:08:14Z</time>
      </trkpt>
      <trkpt lon="78.515874521731874" lat="17.629223041424577">
        <ele>511.489</ele>
        <time>2024-09-25T11:08:14Z</time>
      </trkpt>
      <trkpt lon="78.515874557467441" lat="17.629223088454371">
        <ele>511.489</ele>
        <time>2024-09-25T11:08:14Z</time>
      </trkpt>
      <trkpt lon="78.515874593203009" lat="17.629223135484168">
        <ele>511.489</ele>
        <time>2024-09-25T11:08:14Z</time>
      </trkpt>
      <trkpt lon="78.515874628938576" lat="17.629223182513964">
        <ele>511.489</ele>
        <time>2024-09-25T11:08:14Z</time>
      </trkpt>
      <trkpt lon="78.515874664674143" lat="17.629223229543761">
        <ele>511.489</ele>
        <time>2024-09-25T11:08:14Z</time>
      </trkpt>
      <trkpt lon="78.515874700409711" lat="17.629223276573558">
        <ele>511.489</ele>
        <time>2024-09-25T11:08:14Z</time>
      </trkpt>
      <trkpt lon="78.515874736145278" lat="17.629223323603355">
        <ele>511.489</ele>
        <time>2024-09-25T11:08:14Z</time>
      </trkpt>
      <trkpt lon="78.515874771880846" lat="17.629223370633152">
        <ele>511.489</ele>
        <time>2024-09-25T11:08:14Z</time>
      </trkpt>
      <trkpt lon="78.515874807616413" lat="17.629223417662949">
        <ele>511.489</ele>
        <time>2024-09-25T11:08:14Z</time>
      </trkpt>
      <trkpt lon="78.51587484335198" lat="17.629223464692743">
        <ele>511.489</ele>
        <time>2024-09-25T11:08:14Z</time>
      </trkpt>
      <trkpt lon="78.515874879087548" lat="17.629223511722536">
        <ele>511.489</ele>
        <time>2024-09-25T11:08:14Z</time>
      </trkpt>
      <trkpt lon="78.515874914823101" lat="17.629223558752329">
        <ele>511.489</ele>
        <time>2024-09-25T11:08:14Z</time>
      </trkpt>
      <trkpt lon="78.515874950558654" lat="17.629223605782123">
        <ele>511.489</ele>
        <time>2024-09-25T11:08:14Z</time>
      </trkpt>
      <trkpt lon="78.515874986294207" lat="17.629223652811916">
        <ele>511.489</ele>
        <time>2024-09-25T11:08:14Z</time>
      </trkpt>
      <trkpt lon="78.515875022029775" lat="17.62922369984171">
        <ele>511.489</ele>
        <time>2024-09-25T11:08:14Z</time>
      </trkpt>
      <trkpt lon="78.515875057765342" lat="17.629223746871503">
        <ele>511.489</ele>
        <time>2024-09-25T11:08:14Z</time>
      </trkpt>
      <trkpt lon="78.51587509350091" lat="17.6292237939013">
        <ele>511.489</ele>
        <time>2024-09-25T11:08:14Z</time>
      </trkpt>
      <trkpt lon="78.515875129236477" lat="17.629223840931097">
        <ele>511.489</ele>
        <time>2024-09-25T11:08:14Z</time>
      </trkpt>
      <trkpt lon="78.515875164972044" lat="17.629223887960894">
        <ele>511.489</ele>
        <time>2024-09-25T11:08:14Z</time>
      </trkpt>
      <trkpt lon="78.515875200707612" lat="17.629223934990691">
        <ele>511.489</ele>
        <time>2024-09-25T11:08:14Z</time>
      </trkpt>
      <trkpt lon="78.515875236443179" lat="17.629223982020488">
        <ele>511.489</ele>
        <time>2024-09-25T11:08:14Z</time>
      </trkpt>
      <trkpt lon="78.515875272178747" lat="17.629224029050285">
        <ele>511.489</ele>
        <time>2024-09-25T11:08:14Z</time>
      </trkpt>
      <trkpt lon="78.515875307914314" lat="17.629224076080082">
        <ele>511.489</ele>
        <time>2024-09-25T11:08:14Z</time>
      </trkpt>
      <trkpt lon="78.515875343649881" lat="17.629224123109875">
        <ele>511.489</ele>
        <time>2024-09-25T11:08:14Z</time>
      </trkpt>
      <trkpt lon="78.515875379385449" lat="17.629224170139668">
        <ele>511.489</ele>
        <time>2024-09-25T11:08:14Z</time>
      </trkpt>
      <trkpt lon="78.515875415121016" lat="17.629224217169462">
        <ele>511.489</ele>
        <time>2024-09-25T11:08:14Z</time>
      </trkpt>
      <trkpt lon="78.515875450856583" lat="17.629224264199255">
        <ele>511.489</ele>
        <time>2024-09-25T11:08:15Z</time>
      </trkpt>
      <trkpt lon="78.515875486592151" lat="17.629224311229049">
        <ele>511.489</ele>
        <time>2024-09-25T11:08:15Z</time>
      </trkpt>
      <trkpt lon="78.515875522327732" lat="17.629224358258842">
        <ele>511.489</ele>
        <time>2024-09-25T11:08:15Z</time>
      </trkpt>
      <trkpt lon="78.515875558063314" lat="17.629224405288635">
        <ele>511.489</ele>
        <time>2024-09-25T11:08:15Z</time>
      </trkpt>
      <trkpt lon="78.515875593798896" lat="17.629224452318432">
        <ele>511.489</ele>
        <time>2024-09-25T11:08:15Z</time>
      </trkpt>
      <trkpt lon="78.515875629534477" lat="17.629224499348229">
        <ele>511.489</ele>
        <time>2024-09-25T11:08:15Z</time>
      </trkpt>
      <trkpt lon="78.515875665270045" lat="17.629224546378026">
        <ele>511.489</ele>
        <time>2024-09-25T11:08:15Z</time>
      </trkpt>
      <trkpt lon="78.515875701005612" lat="17.629224593407823">
        <ele>511.489</ele>
        <time>2024-09-25T11:08:15Z</time>
      </trkpt>
      <trkpt lon="78.515875736741179" lat="17.62922464043762">
        <ele>511.489</ele>
        <time>2024-09-25T11:08:15Z</time>
      </trkpt>
      <trkpt lon="78.515875772476747" lat="17.629224687467417">
        <ele>511.489</ele>
        <time>2024-09-25T11:08:15Z</time>
      </trkpt>
      <trkpt lon="78.515875808212314" lat="17.629224734497214">
        <ele>511.489</ele>
        <time>2024-09-25T11:08:15Z</time>
      </trkpt>
      <trkpt lon="78.515875843947882" lat="17.629224781527007">
        <ele>511.489</ele>
        <time>2024-09-25T11:08:15Z</time>
      </trkpt>
      <trkpt lon="78.515875879683449" lat="17.629224828556801">
        <ele>511.489</ele>
        <time>2024-09-25T11:08:15Z</time>
      </trkpt>
      <trkpt lon="78.515875915419016" lat="17.629224875586594">
        <ele>511.489</ele>
        <time>2024-09-25T11:08:15Z</time>
      </trkpt>
      <trkpt lon="78.515875951154584" lat="17.629224922616388">
        <ele>511.489</ele>
        <time>2024-09-25T11:08:15Z</time>
      </trkpt>
      <trkpt lon="78.515875986890151" lat="17.629224969646181">
        <ele>511.489</ele>
        <time>2024-09-25T11:08:15Z</time>
      </trkpt>
      <trkpt lon="78.515876022625719" lat="17.629225016675974">
        <ele>511.489</ele>
        <time>2024-09-25T11:08:15Z</time>
      </trkpt>
      <trkpt lon="78.515876058361286" lat="17.629225063705768">
        <ele>511.489</ele>
        <time>2024-09-25T11:08:15Z</time>
      </trkpt>
      <trkpt lon="78.515876094096853" lat="17.629225110735565">
        <ele>511.489</ele>
        <time>2024-09-25T11:08:15Z</time>
      </trkpt>
      <trkpt lon="78.515876129832421" lat="17.629225157765362">
        <ele>511.489</ele>
        <time>2024-09-25T11:08:15Z</time>
      </trkpt>
      <trkpt lon="78.515876165567988" lat="17.629225204795159">
        <ele>511.489</ele>
        <time>2024-09-25T11:08:15Z</time>
      </trkpt>
      <trkpt lon="78.515876201303556" lat="17.629225251824955">
        <ele>511.489</ele>
        <time>2024-09-25T11:08:15Z</time>
      </trkpt>
      <trkpt lon="78.515876237039123" lat="17.629225298854752">
        <ele>511.489</ele>
        <time>2024-09-25T11:08:15Z</time>
      </trkpt>
      <trkpt lon="78.51587627277469" lat="17.629225345884549">
        <ele>511.489</ele>
        <time>2024-09-25T11:08:15Z</time>
      </trkpt>
      <trkpt lon="78.515876308510258" lat="17.629225392914346">
        <ele>511.489</ele>
        <time>2024-09-25T11:08:15Z</time>
      </trkpt>
      <trkpt lon="78.515876344245825" lat="17.62922543994414">
        <ele>511.489</ele>
        <time>2024-09-25T11:08:15Z</time>
      </trkpt>
      <trkpt lon="78.515876379981393" lat="17.629225486973933">
        <ele>511.489</ele>
        <time>2024-09-25T11:08:15Z</time>
      </trkpt>
      <trkpt lon="78.51587641571696" lat="17.629225534003726">
        <ele>511.489</ele>
        <time>2024-09-25T11:08:15Z</time>
      </trkpt>
      <trkpt lon="78.515876451452527" lat="17.62922558103352">
        <ele>511.489</ele>
        <time>2024-09-25T11:08:15Z</time>
      </trkpt>
      <trkpt lon="78.515876487188095" lat="17.629225628063313">
        <ele>511.489</ele>
        <time>2024-09-25T11:08:16Z</time>
      </trkpt>
      <trkpt lon="78.515876522923662" lat="17.629225675093107">
        <ele>511.489</ele>
        <time>2024-09-25T11:08:16Z</time>
      </trkpt>
      <trkpt lon="78.515876558659215" lat="17.6292257221229">
        <ele>511.489</ele>
        <time>2024-09-25T11:08:16Z</time>
      </trkpt>
      <trkpt lon="78.515876594394769" lat="17.629225769152697">
        <ele>511.489</ele>
        <time>2024-09-25T11:08:16Z</time>
      </trkpt>
      <trkpt lon="78.515876630130336" lat="17.629225816182494">
        <ele>511.489</ele>
        <time>2024-09-25T11:08:16Z</time>
      </trkpt>
      <trkpt lon="78.515876665865903" lat="17.629225863212291">
        <ele>511.489</ele>
        <time>2024-09-25T11:08:16Z</time>
      </trkpt>
      <trkpt lon="78.515876701601471" lat="17.629225910242088">
        <ele>511.489</ele>
        <time>2024-09-25T11:08:16Z</time>
      </trkpt>
      <trkpt lon="78.515876737337038" lat="17.629225957271885">
        <ele>511.489</ele>
        <time>2024-09-25T11:08:16Z</time>
      </trkpt>
      <trkpt lon="78.515876773072605" lat="17.629226004301682">
        <ele>511.489</ele>
        <time>2024-09-25T11:08:16Z</time>
      </trkpt>
      <trkpt lon="78.515876808808173" lat="17.629226051331479">
        <ele>511.489</ele>
        <time>2024-09-25T11:08:16Z</time>
      </trkpt>
      <trkpt lon="78.51587684454374" lat="17.629226098361272">
        <ele>511.489</ele>
        <time>2024-09-25T11:08:16Z</time>
      </trkpt>
      <trkpt lon="78.515876880279308" lat="17.629226145391065">
        <ele>511.489</ele>
        <time>2024-09-25T11:08:16Z</time>
      </trkpt>
      <trkpt lon="78.515876916014875" lat="17.629226192420859">
        <ele>511.489</ele>
        <time>2024-09-25T11:08:16Z</time>
      </trkpt>
      <trkpt lon="78.515876951750442" lat="17.629226239450652">
        <ele>511.489</ele>
        <time>2024-09-25T11:08:16Z</time>
      </trkpt>
      <trkpt lon="78.51587698748601" lat="17.629226286480446">
        <ele>511.489</ele>
        <time>2024-09-25T11:08:16Z</time>
      </trkpt>
      <trkpt lon="78.515877023221577" lat="17.629226333510239">
        <ele>511.489</ele>
        <time>2024-09-25T11:08:16Z</time>
      </trkpt>
      <trkpt lon="78.515877058957145" lat="17.629226380540032">
        <ele>511.489</ele>
        <time>2024-09-25T11:08:16Z</time>
      </trkpt>
      <trkpt lon="78.515877094692712" lat="17.629226427569829">
        <ele>511.489</ele>
        <time>2024-09-25T11:08:16Z</time>
      </trkpt>
      <trkpt lon="78.515877130428294" lat="17.629226474599626">
        <ele>511.489</ele>
        <time>2024-09-25T11:08:16Z</time>
      </trkpt>
      <trkpt lon="78.515877166163875" lat="17.629226521629423">
        <ele>511.489</ele>
        <time>2024-09-25T11:08:16Z</time>
      </trkpt>
      <trkpt lon="78.515877201899457" lat="17.62922656865922">
        <ele>511.489</ele>
        <time>2024-09-25T11:08:16Z</time>
      </trkpt>
      <trkpt lon="78.515877237635038" lat="17.629226615689017">
        <ele>511.489</ele>
        <time>2024-09-25T11:08:16Z</time>
      </trkpt>
      <trkpt lon="78.515877273370606" lat="17.629226662718814">
        <ele>511.489</ele>
        <time>2024-09-25T11:08:16Z</time>
      </trkpt>
      <trkpt lon="78.515877309106173" lat="17.629226709748611">
        <ele>511.489</ele>
        <time>2024-09-25T11:08:16Z</time>
      </trkpt>
      <trkpt lon="78.515877344841741" lat="17.629226756778404">
        <ele>511.489</ele>
        <time>2024-09-25T11:08:16Z</time>
      </trkpt>
      <trkpt lon="78.515877380577308" lat="17.629226803808198">
        <ele>511.489</ele>
        <time>2024-09-25T11:08:16Z</time>
      </trkpt>
      <trkpt lon="78.515877416312875" lat="17.629226850837991">
        <ele>511.489</ele>
        <time>2024-09-25T11:08:16Z</time>
      </trkpt>
      <trkpt lon="78.515877452048443" lat="17.629226897867785">
        <ele>511.489</ele>
        <time>2024-09-25T11:08:16Z</time>
      </trkpt>
      <trkpt lon="78.51587748778401" lat="17.629226944897578">
        <ele>511.489</ele>
        <time>2024-09-25T11:08:16Z</time>
      </trkpt>
      <trkpt lon="78.515877523519578" lat="17.629226991927371">
        <ele>511.489</ele>
        <time>2024-09-25T11:08:17Z</time>
      </trkpt>
      <trkpt lon="78.515877559255145" lat="17.629227038957165">
        <ele>511.489</ele>
        <time>2024-09-25T11:08:17Z</time>
      </trkpt>
      <trkpt lon="78.515877594990712" lat="17.629227085986962">
        <ele>511.489</ele>
        <time>2024-09-25T11:08:17Z</time>
      </trkpt>
      <trkpt lon="78.51587763072628" lat="17.629227133016759">
        <ele>511.489</ele>
        <time>2024-09-25T11:08:17Z</time>
      </trkpt>
      <trkpt lon="78.515877666461847" lat="17.629227180046556">
        <ele>511.489</ele>
        <time>2024-09-25T11:08:17Z</time>
      </trkpt>
      <trkpt lon="78.515877702197415" lat="17.629227227076353">
        <ele>511.489</ele>
        <time>2024-09-25T11:08:17Z</time>
      </trkpt>
      <trkpt lon="78.515877737932982" lat="17.62922727410615">
        <ele>511.489</ele>
        <time>2024-09-25T11:08:17Z</time>
      </trkpt>
      <trkpt lon="78.515877773668549" lat="17.629227321135946">
        <ele>511.489</ele>
        <time>2024-09-25T11:08:17Z</time>
      </trkpt>
      <trkpt lon="78.515877809404117" lat="17.629227368165743">
        <ele>511.489</ele>
        <time>2024-09-25T11:08:17Z</time>
      </trkpt>
      <trkpt lon="78.515877845139684" lat="17.629227415195537">
        <ele>511.489</ele>
        <time>2024-09-25T11:08:17Z</time>
      </trkpt>
      <trkpt lon="78.515877880875252" lat="17.62922746222533">
        <ele>511.489</ele>
        <time>2024-09-25T11:08:17Z</time>
      </trkpt>
      <trkpt lon="78.515877916610819" lat="17.629227509255124">
        <ele>511.489</ele>
        <time>2024-09-25T11:08:17Z</time>
      </trkpt>
      <trkpt lon="78.515877952346386" lat="17.629227556284917">
        <ele>511.489</ele>
        <time>2024-09-25T11:08:17Z</time>
      </trkpt>
      <trkpt lon="78.51587798808194" lat="17.62922760331471">
        <ele>511.489</ele>
        <time>2024-09-25T11:08:17Z</time>
      </trkpt>
      <trkpt lon="78.515878023817493" lat="17.629227650344504">
        <ele>511.489</ele>
        <time>2024-09-25T11:08:17Z</time>
      </trkpt>
      <trkpt lon="78.51587805955306" lat="17.629227697374297">
        <ele>511.489</ele>
        <time>2024-09-25T11:08:17Z</time>
      </trkpt>
      <trkpt lon="78.515878095288627" lat="17.629227744404094">
        <ele>511.489</ele>
        <time>2024-09-25T11:08:17Z</time>
      </trkpt>
      <trkpt lon="78.515878131024195" lat="17.629227791433891">
        <ele>511.489</ele>
        <time>2024-09-25T11:08:17Z</time>
      </trkpt>
      <trkpt lon="78.515878166759762" lat="17.629227838463688">
        <ele>511.489</ele>
        <time>2024-09-25T11:08:17Z</time>
      </trkpt>
      <trkpt lon="78.51587820249533" lat="17.629227885493485">
        <ele>511.489</ele>
        <time>2024-09-25T11:08:17Z</time>
      </trkpt>
      <trkpt lon="78.515878238230897" lat="17.629227932523282">
        <ele>511.489</ele>
        <time>2024-09-25T11:08:17Z</time>
      </trkpt>
      <trkpt lon="78.515878273966464" lat="17.629227979553079">
        <ele>511.489</ele>
        <time>2024-09-25T11:08:17Z</time>
      </trkpt>
      <trkpt lon="78.515878309702032" lat="17.629228026582876">
        <ele>511.489</ele>
        <time>2024-09-25T11:08:17Z</time>
      </trkpt>
      <trkpt lon="78.515878345437599" lat="17.629228073612669">
        <ele>511.489</ele>
        <time>2024-09-25T11:08:17Z</time>
      </trkpt>
      <trkpt lon="78.515878381173167" lat="17.629228120642463">
        <ele>511.489</ele>
        <time>2024-09-25T11:08:17Z</time>
      </trkpt>
      <trkpt lon="78.515878416908734" lat="17.629228167672256">
        <ele>511.489</ele>
        <time>2024-09-25T11:08:17Z</time>
      </trkpt>
      <trkpt lon="78.515878452644301" lat="17.629228214702049">
        <ele>511.489</ele>
        <time>2024-09-25T11:08:17Z</time>
      </trkpt>
      <trkpt lon="78.515878488379869" lat="17.629228261731843">
        <ele>511.489</ele>
        <time>2024-09-25T11:08:17Z</time>
      </trkpt>
      <trkpt lon="78.515878524115436" lat="17.629228308761636">
        <ele>511.489</ele>
        <time>2024-09-25T11:08:17Z</time>
      </trkpt>
      <trkpt lon="78.515878559851004" lat="17.62922835579143">
        <ele>511.489</ele>
        <time>2024-09-25T11:08:17Z</time>
      </trkpt>
      <trkpt lon="78.515878595586571" lat="17.629228402821226">
        <ele>511.489</ele>
        <time>2024-09-25T11:08:18Z</time>
      </trkpt>
      <trkpt lon="78.515878631322138" lat="17.629228449851023">
        <ele>511.489</ele>
        <time>2024-09-25T11:08:18Z</time>
      </trkpt>
      <trkpt lon="78.515878667057706" lat="17.62922849688082">
        <ele>511.489</ele>
        <time>2024-09-25T11:08:18Z</time>
      </trkpt>
      <trkpt lon="78.515878702793273" lat="17.629228543910617">
        <ele>511.489</ele>
        <time>2024-09-25T11:08:18Z</time>
      </trkpt>
      <trkpt lon="78.515878738528855" lat="17.629228590940414">
        <ele>511.489</ele>
        <time>2024-09-25T11:08:18Z</time>
      </trkpt>
      <trkpt lon="78.515878774264436" lat="17.629228637970211">
        <ele>511.489</ele>
        <time>2024-09-25T11:08:18Z</time>
      </trkpt>
      <trkpt lon="78.515878810000018" lat="17.629228685000008">
        <ele>511.489</ele>
        <time>2024-09-25T11:08:18Z</time>
      </trkpt>
      <trkpt lon="78.5158788457356" lat="17.629228732029802">
        <ele>511.489</ele>
        <time>2024-09-25T11:08:18Z</time>
      </trkpt>
      <trkpt lon="78.515878881471167" lat="17.629228779059595">
        <ele>511.489</ele>
        <time>2024-09-25T11:08:18Z</time>
      </trkpt>
      <trkpt lon="78.515878917206734" lat="17.629228826089388">
        <ele>511.489</ele>
        <time>2024-09-25T11:08:18Z</time>
      </trkpt>
      <trkpt lon="78.515878952942302" lat="17.629228873119182">
        <ele>511.489</ele>
        <time>2024-09-25T11:08:18Z</time>
      </trkpt>
      <trkpt lon="78.515878988677869" lat="17.629228920148975">
        <ele>511.489</ele>
        <time>2024-09-25T11:08:18Z</time>
      </trkpt>
      <trkpt lon="78.515879024413437" lat="17.629228967178769">
        <ele>511.489</ele>
        <time>2024-09-25T11:08:18Z</time>
      </trkpt>
      <trkpt lon="78.515879060149004" lat="17.629229014208562">
        <ele>511.489</ele>
        <time>2024-09-25T11:08:18Z</time>
      </trkpt>
      <trkpt lon="78.515879095884571" lat="17.629229061238355">
        <ele>511.489</ele>
        <time>2024-09-25T11:08:18Z</time>
      </trkpt>
      <trkpt lon="78.515879131620139" lat="17.629229108268149">
        <ele>511.489</ele>
        <time>2024-09-25T11:08:18Z</time>
      </trkpt>
      <trkpt lon="78.515879167355706" lat="17.629229155297946">
        <ele>511.489</ele>
        <time>2024-09-25T11:08:18Z</time>
      </trkpt>
      <trkpt lon="78.515879203091274" lat="17.629229202327743">
        <ele>511.489</ele>
        <time>2024-09-25T11:08:18Z</time>
      </trkpt>
      <trkpt lon="78.515879238826841" lat="17.62922924935754">
        <ele>511.489</ele>
        <time>2024-09-25T11:08:18Z</time>
      </trkpt>
      <trkpt lon="78.515879274562408" lat="17.629229296387336">
        <ele>511.489</ele>
        <time>2024-09-25T11:08:18Z</time>
      </trkpt>
      <trkpt lon="78.515879310297976" lat="17.629229343417133">
        <ele>511.489</ele>
        <time>2024-09-25T11:08:18Z</time>
      </trkpt>
      <trkpt lon="78.515879346033543" lat="17.62922939044693">
        <ele>511.489</ele>
        <time>2024-09-25T11:08:18Z</time>
      </trkpt>
      <trkpt lon="78.515879381769111" lat="17.629229437476727">
        <ele>511.489</ele>
        <time>2024-09-25T11:08:18Z</time>
      </trkpt>
      <trkpt lon="78.515879417504678" lat="17.629229484506524">
        <ele>511.489</ele>
        <time>2024-09-25T11:08:18Z</time>
      </trkpt>
      <trkpt lon="78.515879453240245" lat="17.629229531536321">
        <ele>511.489</ele>
        <time>2024-09-25T11:08:18Z</time>
      </trkpt>
      <trkpt lon="78.515879488975798" lat="17.629229578566115">
        <ele>511.489</ele>
        <time>2024-09-25T11:08:18Z</time>
      </trkpt>
      <trkpt lon="78.515879524711352" lat="17.629229625595908">
        <ele>511.489</ele>
        <time>2024-09-25T11:08:18Z</time>
      </trkpt>
      <trkpt lon="78.515879560446919" lat="17.629229672625701">
        <ele>511.489</ele>
        <time>2024-09-25T11:08:18Z</time>
      </trkpt>
      <trkpt lon="78.515879596182486" lat="17.629229719655495">
        <ele>511.489</ele>
        <time>2024-09-25T11:08:18Z</time>
      </trkpt>
      <trkpt lon="78.515879631918054" lat="17.629229766685288">
        <ele>511.489</ele>
        <time>2024-09-25T11:08:19Z</time>
      </trkpt>
      <trkpt lon="78.515879667653621" lat="17.629229813715082">
        <ele>511.489</ele>
        <time>2024-09-25T11:08:19Z</time>
      </trkpt>
      <trkpt lon="78.515879703389189" lat="17.629229860744875">
        <ele>511.489</ele>
        <time>2024-09-25T11:08:19Z</time>
      </trkpt>
      <trkpt lon="78.515879739124756" lat="17.629229907774668">
        <ele>511.489</ele>
        <time>2024-09-25T11:08:19Z</time>
      </trkpt>
      <trkpt lon="78.515879774860323" lat="17.629229954804462">
        <ele>511.489</ele>
        <time>2024-09-25T11:08:19Z</time>
      </trkpt>
      <trkpt lon="78.515879810595891" lat="17.629230001834259">
        <ele>511.489</ele>
        <time>2024-09-25T11:08:19Z</time>
      </trkpt>
      <trkpt lon="78.515879846331458" lat="17.629230048864056">
        <ele>511.489</ele>
        <time>2024-09-25T11:08:19Z</time>
      </trkpt>
      <trkpt lon="78.515879882067026" lat="17.629230095893853">
        <ele>511.489</ele>
        <time>2024-09-25T11:08:19Z</time>
      </trkpt>
      <trkpt lon="78.515879917802593" lat="17.62923014292365">
        <ele>511.489</ele>
        <time>2024-09-25T11:08:19Z</time>
      </trkpt>
      <trkpt lon="78.51587995353816" lat="17.629230189953446">
        <ele>511.489</ele>
        <time>2024-09-25T11:08:19Z</time>
      </trkpt>
      <trkpt lon="78.515879989273728" lat="17.629230236983243">
        <ele>511.489</ele>
        <time>2024-09-25T11:08:19Z</time>
      </trkpt>
      <trkpt lon="78.515880025009295" lat="17.62923028401304">
        <ele>511.489</ele>
        <time>2024-09-25T11:08:19Z</time>
      </trkpt>
      <trkpt lon="78.515880060744863" lat="17.629230331042837">
        <ele>511.489</ele>
        <time>2024-09-25T11:08:19Z</time>
      </trkpt>
      <trkpt lon="78.51588009648043" lat="17.629230378072634">
        <ele>511.489</ele>
        <time>2024-09-25T11:08:19Z</time>
      </trkpt>
      <trkpt lon="78.515880132215997" lat="17.629230425102428">
        <ele>511.489</ele>
        <time>2024-09-25T11:08:19Z</time>
      </trkpt>
      <trkpt lon="78.515880167951565" lat="17.629230472132221">
        <ele>511.489</ele>
        <time>2024-09-25T11:08:19Z</time>
      </trkpt>
      <trkpt lon="78.515880203687132" lat="17.629230519162014">
        <ele>511.489</ele>
        <time>2024-09-25T11:08:19Z</time>
      </trkpt>
      <trkpt lon="78.5158802394227" lat="17.629230566191808">
        <ele>511.489</ele>
        <time>2024-09-25T11:08:19Z</time>
      </trkpt>
      <trkpt lon="78.515880275158267" lat="17.629230613221601">
        <ele>511.489</ele>
        <time>2024-09-25T11:08:19Z</time>
      </trkpt>
      <trkpt lon="78.515880310893834" lat="17.629230660251395">
        <ele>511.489</ele>
        <time>2024-09-25T11:08:19Z</time>
      </trkpt>
      <trkpt lon="78.515880346629416" lat="17.629230707281188">
        <ele>511.489</ele>
        <time>2024-09-25T11:08:19Z</time>
      </trkpt>
      <trkpt lon="78.515880382364998" lat="17.629230754310981">
        <ele>511.489</ele>
        <time>2024-09-25T11:08:19Z</time>
      </trkpt>
      <trkpt lon="78.515880418100579" lat="17.629230801340775">
        <ele>511.489</ele>
        <time>2024-09-25T11:08:19Z</time>
      </trkpt>
      <trkpt lon="78.515880453836161" lat="17.629230848370572">
        <ele>511.489</ele>
        <time>2024-09-25T11:08:19Z</time>
      </trkpt>
      <trkpt lon="78.515880489571728" lat="17.629230895400369">
        <ele>511.489</ele>
        <time>2024-09-25T11:08:19Z</time>
      </trkpt>
      <trkpt lon="78.515880525307296" lat="17.629230942430166">
        <ele>511.489</ele>
        <time>2024-09-25T11:08:19Z</time>
      </trkpt>
      <trkpt lon="78.515880561042863" lat="17.629230989459963">
        <ele>511.489</ele>
        <time>2024-09-25T11:08:19Z</time>
      </trkpt>
      <trkpt lon="78.51588059677843" lat="17.62923103648976">
        <ele>511.489</ele>
        <time>2024-09-25T11:08:19Z</time>
      </trkpt>
      <trkpt lon="78.515880632513998" lat="17.629231083519556">
        <ele>511.489</ele>
        <time>2024-09-25T11:08:19Z</time>
      </trkpt>
      <trkpt lon="78.515880668249565" lat="17.629231130549353">
        <ele>511.489</ele>
        <time>2024-09-25T11:08:19Z</time>
      </trkpt>
      <trkpt lon="78.515880703985133" lat="17.62923117757915">
        <ele>511.489</ele>
        <time>2024-09-25T11:08:20Z</time>
      </trkpt>
      <trkpt lon="78.5158807397207" lat="17.629231224608947">
        <ele>511.489</ele>
        <time>2024-09-25T11:08:20Z</time>
      </trkpt>
      <trkpt lon="78.515880775456267" lat="17.629231271638741">
        <ele>511.489</ele>
        <time>2024-09-25T11:08:20Z</time>
      </trkpt>
      <trkpt lon="78.515880811191835" lat="17.629231318668534">
        <ele>511.489</ele>
        <time>2024-09-25T11:08:20Z</time>
      </trkpt>
      <trkpt lon="78.515880846927402" lat="17.629231365698327">
        <ele>511.489</ele>
        <time>2024-09-25T11:08:20Z</time>
      </trkpt>
      <trkpt lon="78.515880882662969" lat="17.629231412728121">
        <ele>511.489</ele>
        <time>2024-09-25T11:08:20Z</time>
      </trkpt>
      <trkpt lon="78.515880918398537" lat="17.629231459757914">
        <ele>511.489</ele>
        <time>2024-09-25T11:08:20Z</time>
      </trkpt>
      <trkpt lon="78.515880954134104" lat="17.629231506787708">
        <ele>511.489</ele>
        <time>2024-09-25T11:08:20Z</time>
      </trkpt>
      <trkpt lon="78.515880989869657" lat="17.629231553817501">
        <ele>511.489</ele>
        <time>2024-09-25T11:08:20Z</time>
      </trkpt>
      <trkpt lon="78.515881025605211" lat="17.629231600847294">
        <ele>511.489</ele>
        <time>2024-09-25T11:08:20Z</time>
      </trkpt>
      <trkpt lon="78.515881061340764" lat="17.629231647877088">
        <ele>511.489</ele>
        <time>2024-09-25T11:08:20Z</time>
      </trkpt>
      <trkpt lon="78.515881097076331" lat="17.629231694906885">
        <ele>511.489</ele>
        <time>2024-09-25T11:08:20Z</time>
      </trkpt>
      <trkpt lon="78.515881132811899" lat="17.629231741936682">
        <ele>511.489</ele>
        <time>2024-09-25T11:08:20Z</time>
      </trkpt>
      <trkpt lon="78.515881168547466" lat="17.629231788966479">
        <ele>511.489</ele>
        <time>2024-09-25T11:08:20Z</time>
      </trkpt>
      <trkpt lon="78.515881204283033" lat="17.629231835996276">
        <ele>511.489</ele>
        <time>2024-09-25T11:08:20Z</time>
      </trkpt>
      <trkpt lon="78.515881240018601" lat="17.629231883026073">
        <ele>511.489</ele>
        <time>2024-09-25T11:08:20Z</time>
      </trkpt>
      <trkpt lon="78.515881275754168" lat="17.62923193005587">
        <ele>511.489</ele>
        <time>2024-09-25T11:08:20Z</time>
      </trkpt>
      <trkpt lon="78.515881311489736" lat="17.629231977085666">
        <ele>511.489</ele>
        <time>2024-09-25T11:08:20Z</time>
      </trkpt>
      <trkpt lon="78.515881347225303" lat="17.629232024115463">
        <ele>511.489</ele>
        <time>2024-09-25T11:08:20Z</time>
      </trkpt>
      <trkpt lon="78.51588138296087" lat="17.62923207114526">
        <ele>511.489</ele>
        <time>2024-09-25T11:08:20Z</time>
      </trkpt>
      <trkpt lon="78.515881418696438" lat="17.629232118175054">
        <ele>511.489</ele>
        <time>2024-09-25T11:08:20Z</time>
      </trkpt>
      <trkpt lon="78.515881454432005" lat="17.629232165204847">
        <ele>511.489</ele>
        <time>2024-09-25T11:08:20Z</time>
      </trkpt>
      <trkpt lon="78.515881490167573" lat="17.629232212234641">
        <ele>511.489</ele>
        <time>2024-09-25T11:08:20Z</time>
      </trkpt>
      <trkpt lon="78.51588152590314" lat="17.629232259264434">
        <ele>511.489</ele>
        <time>2024-09-25T11:08:20Z</time>
      </trkpt>
      <trkpt lon="78.515881561638707" lat="17.629232306294227">
        <ele>511.489</ele>
        <time>2024-09-25T11:08:20Z</time>
      </trkpt>
      <trkpt lon="78.515881597374289" lat="17.629232353324021">
        <ele>511.489</ele>
        <time>2024-09-25T11:08:20Z</time>
      </trkpt>
      <trkpt lon="78.515881633109871" lat="17.629232400353814">
        <ele>511.489</ele>
        <time>2024-09-25T11:08:20Z</time>
      </trkpt>
      <trkpt lon="78.515881668845452" lat="17.629232447383608">
        <ele>511.489</ele>
        <time>2024-09-25T11:08:20Z</time>
      </trkpt>
      <trkpt lon="78.515881704581034" lat="17.629232494413401">
        <ele>511.489</ele>
        <time>2024-09-25T11:08:20Z</time>
      </trkpt>
      <trkpt lon="78.515881740316601" lat="17.629232541443198">
        <ele>511.489</ele>
        <time>2024-09-25T11:08:21Z</time>
      </trkpt>
      <trkpt lon="78.515881776052169" lat="17.629232588472995">
        <ele>511.489</ele>
        <time>2024-09-25T11:08:21Z</time>
      </trkpt>
      <trkpt lon="78.515881811787736" lat="17.629232635502792">
        <ele>511.489</ele>
        <time>2024-09-25T11:08:21Z</time>
      </trkpt>
      <trkpt lon="78.515881847523303" lat="17.629232682532589">
        <ele>511.489</ele>
        <time>2024-09-25T11:08:21Z</time>
      </trkpt>
      <trkpt lon="78.515881883258871" lat="17.629232729562386">
        <ele>511.489</ele>
        <time>2024-09-25T11:08:21Z</time>
      </trkpt>
      <trkpt lon="78.515881918994438" lat="17.629232776592183">
        <ele>511.489</ele>
        <time>2024-09-25T11:08:21Z</time>
      </trkpt>
      <trkpt lon="78.515881954730006" lat="17.62923282362198">
        <ele>511.489</ele>
        <time>2024-09-25T11:08:21Z</time>
      </trkpt>
      <trkpt lon="78.515881990465573" lat="17.629232870651776">
        <ele>511.489</ele>
        <time>2024-09-25T11:08:21Z</time>
      </trkpt>
      <trkpt lon="78.51588202620114" lat="17.629232917681573">
        <ele>511.489</ele>
        <time>2024-09-25T11:08:21Z</time>
      </trkpt>
      <trkpt lon="78.515882061936708" lat="17.629232964711367">
        <ele>511.489</ele>
        <time>2024-09-25T11:08:21Z</time>
      </trkpt>
      <trkpt lon="78.515882097672275" lat="17.62923301174116">
        <ele>511.489</ele>
        <time>2024-09-25T11:08:21Z</time>
      </trkpt>
      <trkpt lon="78.515882133407843" lat="17.629233058770954">
        <ele>511.489</ele>
        <time>2024-09-25T11:08:21Z</time>
      </trkpt>
      <trkpt lon="78.51588216914341" lat="17.629233105800747">
        <ele>511.489</ele>
        <time>2024-09-25T11:08:21Z</time>
      </trkpt>
      <trkpt lon="78.515882204878977" lat="17.62923315283054">
        <ele>511.489</ele>
        <time>2024-09-25T11:08:21Z</time>
      </trkpt>
      <trkpt lon="78.515882240614545" lat="17.629233199860334">
        <ele>511.489</ele>
        <time>2024-09-25T11:08:21Z</time>
      </trkpt>
      <trkpt lon="78.515882276350112" lat="17.629233246890127">
        <ele>511.489</ele>
        <time>2024-09-25T11:08:21Z</time>
      </trkpt>
      <trkpt lon="78.515882312085679" lat="17.629233293919921">
        <ele>511.489</ele>
        <time>2024-09-25T11:08:21Z</time>
      </trkpt>
      <trkpt lon="78.515882347821247" lat="17.629233340949714">
        <ele>511.489</ele>
        <time>2024-09-25T11:08:21Z</time>
      </trkpt>
      <trkpt lon="78.515882383556814" lat="17.629233387979511">
        <ele>511.489</ele>
        <time>2024-09-25T11:08:21Z</time>
      </trkpt>
      <trkpt lon="78.515882419292382" lat="17.629233435009308">
        <ele>511.489</ele>
        <time>2024-09-25T11:08:21Z</time>
      </trkpt>
      <trkpt lon="78.515882455027949" lat="17.629233482039105">
        <ele>511.489</ele>
        <time>2024-09-25T11:08:21Z</time>
      </trkpt>
      <trkpt lon="78.515882490763516" lat="17.629233529068902">
        <ele>511.489</ele>
        <time>2024-09-25T11:08:21Z</time>
      </trkpt>
      <trkpt lon="78.515882526499084" lat="17.629233576098699">
        <ele>511.489</ele>
        <time>2024-09-25T11:08:21Z</time>
      </trkpt>
      <trkpt lon="78.515882562234637" lat="17.629233623128496">
        <ele>511.489</ele>
        <time>2024-09-25T11:08:21Z</time>
      </trkpt>
      <trkpt lon="78.51588259797019" lat="17.629233670158293">
        <ele>511.489</ele>
        <time>2024-09-25T11:08:21Z</time>
      </trkpt>
      <trkpt lon="78.515882633705758" lat="17.62923371718809">
        <ele>511.489</ele>
        <time>2024-09-25T11:08:21Z</time>
      </trkpt>
      <trkpt lon="78.515882669441325" lat="17.629233764217886">
        <ele>511.489</ele>
        <time>2024-09-25T11:08:21Z</time>
      </trkpt>
      <trkpt lon="78.515882705176892" lat="17.62923381124768">
        <ele>511.489</ele>
        <time>2024-09-25T11:08:21Z</time>
      </trkpt>
      <trkpt lon="78.51588274091246" lat="17.629233858277473">
        <ele>511.489</ele>
        <time>2024-09-25T11:08:21Z</time>
      </trkpt>
      <trkpt lon="78.515882776648027" lat="17.629233905307267">
        <ele>511.489</ele>
        <time>2024-09-25T11:08:21Z</time>
      </trkpt>
      <trkpt lon="78.515882812383595" lat="17.62923395233706">
        <ele>511.489</ele>
        <time>2024-09-25T11:08:22Z</time>
      </trkpt>
      <trkpt lon="78.515882848119162" lat="17.629233999366853">
        <ele>511.489</ele>
        <time>2024-09-25T11:08:22Z</time>
      </trkpt>
      <trkpt lon="78.515882883854729" lat="17.629234046396647">
        <ele>511.489</ele>
        <time>2024-09-25T11:08:22Z</time>
      </trkpt>
      <trkpt lon="78.515882919590297" lat="17.62923409342644">
        <ele>511.489</ele>
        <time>2024-09-25T11:08:22Z</time>
      </trkpt>
      <trkpt lon="78.515882955325864" lat="17.629234140456234">
        <ele>511.489</ele>
        <time>2024-09-25T11:08:22Z</time>
      </trkpt>
      <trkpt lon="78.515882991061432" lat="17.629234187486027">
        <ele>511.489</ele>
        <time>2024-09-25T11:08:22Z</time>
      </trkpt>
      <trkpt lon="78.515883026796999" lat="17.629234234515824">
        <ele>511.489</ele>
        <time>2024-09-25T11:08:22Z</time>
      </trkpt>
      <trkpt lon="78.515883062532566" lat="17.629234281545621">
        <ele>511.489</ele>
        <time>2024-09-25T11:08:22Z</time>
      </trkpt>
      <trkpt lon="78.515883098268134" lat="17.629234328575418">
        <ele>511.489</ele>
        <time>2024-09-25T11:08:22Z</time>
      </trkpt>
      <trkpt lon="78.515883134003701" lat="17.629234375605215">
        <ele>511.489</ele>
        <time>2024-09-25T11:08:22Z</time>
      </trkpt>
      <trkpt lon="78.515883169739269" lat="17.629234422635012">
        <ele>511.489</ele>
        <time>2024-09-25T11:08:22Z</time>
      </trkpt>
      <trkpt lon="78.51588320547485" lat="17.629234469664809">
        <ele>511.489</ele>
        <time>2024-09-25T11:08:22Z</time>
      </trkpt>
      <trkpt lon="78.515883241210432" lat="17.629234516694606">
        <ele>511.489</ele>
        <time>2024-09-25T11:08:22Z</time>
      </trkpt>
      <trkpt lon="78.515883276946013" lat="17.629234563724403">
        <ele>511.489</ele>
        <time>2024-09-25T11:08:22Z</time>
      </trkpt>
      <trkpt lon="78.515883312681595" lat="17.6292346107542">
        <ele>511.489</ele>
        <time>2024-09-25T11:08:22Z</time>
      </trkpt>
      <trkpt lon="78.515883348417162" lat="17.629234657783993">
        <ele>511.489</ele>
        <time>2024-09-25T11:08:22Z</time>
      </trkpt>
      <trkpt lon="78.51588338415273" lat="17.629234704813786">
        <ele>511.489</ele>
        <time>2024-09-25T11:08:22Z</time>
      </trkpt>
      <trkpt lon="78.515883419888297" lat="17.62923475184358">
        <ele>511.489</ele>
        <time>2024-09-25T11:08:22Z</time>
      </trkpt>
      <trkpt lon="78.515883455623865" lat="17.629234798873373">
        <ele>511.489</ele>
        <time>2024-09-25T11:08:22Z</time>
      </trkpt>
      <trkpt lon="78.515883491359432" lat="17.629234845903166">
        <ele>511.489</ele>
        <time>2024-09-25T11:08:22Z</time>
      </trkpt>
      <trkpt lon="78.515883527094999" lat="17.62923489293296">
        <ele>511.489</ele>
        <time>2024-09-25T11:08:22Z</time>
      </trkpt>
      <trkpt lon="78.515883562830567" lat="17.629234939962753">
        <ele>511.489</ele>
        <time>2024-09-25T11:08:22Z</time>
      </trkpt>
      <trkpt lon="78.515883598566134" lat="17.629234986992547">
        <ele>511.489</ele>
        <time>2024-09-25T11:08:22Z</time>
      </trkpt>
      <trkpt lon="78.515883634301701" lat="17.62923503402234">
        <ele>511.489</ele>
        <time>2024-09-25T11:08:22Z</time>
      </trkpt>
      <trkpt lon="78.515883670037269" lat="17.629235081052137">
        <ele>511.489</ele>
        <time>2024-09-25T11:08:22Z</time>
      </trkpt>
      <trkpt lon="78.515883705772836" lat="17.629235128081934">
        <ele>511.489</ele>
        <time>2024-09-25T11:08:22Z</time>
      </trkpt>
      <trkpt lon="78.515883741508404" lat="17.629235175111731">
        <ele>511.489</ele>
        <time>2024-09-25T11:08:22Z</time>
      </trkpt>
      <trkpt lon="78.515883777243971" lat="17.629235222141528">
        <ele>511.489</ele>
        <time>2024-09-25T11:08:22Z</time>
      </trkpt>
      <trkpt lon="78.515883812979538" lat="17.629235269171325">
        <ele>511.489</ele>
        <time>2024-09-25T11:08:22Z</time>
      </trkpt>
      <trkpt lon="78.515883848715106" lat="17.629235316201122">
        <ele>511.489</ele>
        <time>2024-09-25T11:08:23Z</time>
      </trkpt>
      <trkpt lon="78.515883884450673" lat="17.629235363230919">
        <ele>511.489</ele>
        <time>2024-09-25T11:08:23Z</time>
      </trkpt>
      <trkpt lon="78.515883920186241" lat="17.629235410260716">
        <ele>511.489</ele>
        <time>2024-09-25T11:08:23Z</time>
      </trkpt>
      <trkpt lon="78.515883955921808" lat="17.629235457290513">
        <ele>511.489</ele>
        <time>2024-09-25T11:08:23Z</time>
      </trkpt>
      <trkpt lon="78.515883991657375" lat="17.629235504320306">
        <ele>511.489</ele>
        <time>2024-09-25T11:08:23Z</time>
      </trkpt>
      <trkpt lon="78.515884027392943" lat="17.629235551350099">
        <ele>511.489</ele>
        <time>2024-09-25T11:08:23Z</time>
      </trkpt>
      <trkpt lon="78.515884063128496" lat="17.629235598379893">
        <ele>511.489</ele>
        <time>2024-09-25T11:08:23Z</time>
      </trkpt>
      <trkpt lon="78.515884098864049" lat="17.629235645409686">
        <ele>511.489</ele>
        <time>2024-09-25T11:08:23Z</time>
      </trkpt>
      <trkpt lon="78.515884134599617" lat="17.62923569243948">
        <ele>511.489</ele>
        <time>2024-09-25T11:08:23Z</time>
      </trkpt>
      <trkpt lon="78.515884170335184" lat="17.629235739469273">
        <ele>511.489</ele>
        <time>2024-09-25T11:08:23Z</time>
      </trkpt>
      <trkpt lon="78.515884206070751" lat="17.629235786499066">
        <ele>511.489</ele>
        <time>2024-09-25T11:08:23Z</time>
      </trkpt>
      <trkpt lon="78.515884241806319" lat="17.62923583352886">
        <ele>511.489</ele>
        <time>2024-09-25T11:08:23Z</time>
      </trkpt>
      <trkpt lon="78.515884277541886" lat="17.629235880558653">
        <ele>511.489</ele>
        <time>2024-09-25T11:08:23Z</time>
      </trkpt>
      <trkpt lon="78.515884313277454" lat="17.62923592758845">
        <ele>511.489</ele>
        <time>2024-09-25T11:08:23Z</time>
      </trkpt>
      <trkpt lon="78.515884349013021" lat="17.629235974618247">
        <ele>511.489</ele>
        <time>2024-09-25T11:08:23Z</time>
      </trkpt>
      <trkpt lon="78.515884384748588" lat="17.629236021648044">
        <ele>511.489</ele>
        <time>2024-09-25T11:08:23Z</time>
      </trkpt>
      <trkpt lon="78.515884420484156" lat="17.629236068677841">
        <ele>511.489</ele>
        <time>2024-09-25T11:08:23Z</time>
      </trkpt>
      <trkpt lon="78.515884456219723" lat="17.629236115707638">
        <ele>511.489</ele>
        <time>2024-09-25T11:08:23Z</time>
      </trkpt>
      <trkpt lon="78.515884491955291" lat="17.629236162737435">
        <ele>511.489</ele>
        <time>2024-09-25T11:08:23Z</time>
      </trkpt>
      <trkpt lon="78.515884527690858" lat="17.629236209767232">
        <ele>511.489</ele>
        <time>2024-09-25T11:08:23Z</time>
      </trkpt>
      <trkpt lon="78.515884563426425" lat="17.629236256797029">
        <ele>511.489</ele>
        <time>2024-09-25T11:08:23Z</time>
      </trkpt>
      <trkpt lon="78.515884599161993" lat="17.629236303826826">
        <ele>511.489</ele>
        <time>2024-09-25T11:08:23Z</time>
      </trkpt>
      <trkpt lon="78.51588463489756" lat="17.629236350856619">
        <ele>511.489</ele>
        <time>2024-09-25T11:08:23Z</time>
      </trkpt>
      <trkpt lon="78.515884670633127" lat="17.629236397886412">
        <ele>511.489</ele>
        <time>2024-09-25T11:08:23Z</time>
      </trkpt>
      <trkpt lon="78.515884706368695" lat="17.629236444916206">
        <ele>511.489</ele>
        <time>2024-09-25T11:08:23Z</time>
      </trkpt>
      <trkpt lon="78.515884742104262" lat="17.629236491945999">
        <ele>511.489</ele>
        <time>2024-09-25T11:08:23Z</time>
      </trkpt>
      <trkpt lon="78.51588477783983" lat="17.629236538975793">
        <ele>511.489</ele>
        <time>2024-09-25T11:08:23Z</time>
      </trkpt>
      <trkpt lon="78.515884813575411" lat="17.629236586005586">
        <ele>511.489</ele>
        <time>2024-09-25T11:08:23Z</time>
      </trkpt>
      <trkpt lon="78.515884849310993" lat="17.629236633035379">
        <ele>511.489</ele>
        <time>2024-09-25T11:08:23Z</time>
      </trkpt>
      <trkpt lon="78.515884885046574" lat="17.629236680065173">
        <ele>511.489</ele>
        <time>2024-09-25T11:08:24Z</time>
      </trkpt>
      <trkpt lon="78.515884920782156" lat="17.629236727094966">
        <ele>511.489</ele>
        <time>2024-09-25T11:08:24Z</time>
      </trkpt>
      <trkpt lon="78.515884956517723" lat="17.629236774124763">
        <ele>511.489</ele>
        <time>2024-09-25T11:08:24Z</time>
      </trkpt>
      <trkpt lon="78.515884992253291" lat="17.62923682115456">
        <ele>511.489</ele>
        <time>2024-09-25T11:08:24Z</time>
      </trkpt>
      <trkpt lon="78.515885027988858" lat="17.629236868184357">
        <ele>511.489</ele>
        <time>2024-09-25T11:08:24Z</time>
      </trkpt>
      <trkpt lon="78.515885063724426" lat="17.629236915214154">
        <ele>511.489</ele>
        <time>2024-09-25T11:08:24Z</time>
      </trkpt>
      <trkpt lon="78.515885099459993" lat="17.629236962243951">
        <ele>511.489</ele>
        <time>2024-09-25T11:08:24Z</time>
      </trkpt>
      <trkpt lon="78.51588513519556" lat="17.629237009273748">
        <ele>511.489</ele>
        <time>2024-09-25T11:08:24Z</time>
      </trkpt>
      <trkpt lon="78.515885170931128" lat="17.629237056303545">
        <ele>511.489</ele>
        <time>2024-09-25T11:08:24Z</time>
      </trkpt>
      <trkpt lon="78.515885206666695" lat="17.629237103333342">
        <ele>511.489</ele>
        <time>2024-09-25T11:08:24Z</time>
      </trkpt>
      <trkpt lon="78.515885242402263" lat="17.629237150363139">
        <ele>511.489</ele>
        <time>2024-09-25T11:08:24Z</time>
      </trkpt>
      <trkpt lon="78.51588527813783" lat="17.629237197392928">
        <ele>511.489</ele>
        <time>2024-09-25T11:08:24Z</time>
      </trkpt>
      <trkpt lon="78.515885313873397" lat="17.629237244422722">
        <ele>511.489</ele>
        <time>2024-09-25T11:08:24Z</time>
      </trkpt>
      <trkpt lon="78.515885349608965" lat="17.629237291452515">
        <ele>511.489</ele>
        <time>2024-09-25T11:08:24Z</time>
      </trkpt>
      <trkpt lon="78.515885385344532" lat="17.629237338482309">
        <ele>511.489</ele>
        <time>2024-09-25T11:08:24Z</time>
      </trkpt>
      <trkpt lon="78.5158854210801" lat="17.629237385512102">
        <ele>511.489</ele>
        <time>2024-09-25T11:08:24Z</time>
      </trkpt>
      <trkpt lon="78.515885456815667" lat="17.629237432541895">
        <ele>511.489</ele>
        <time>2024-09-25T11:08:24Z</time>
      </trkpt>
      <trkpt lon="78.51588549255122" lat="17.629237479571689">
        <ele>511.489</ele>
        <time>2024-09-25T11:08:24Z</time>
      </trkpt>
      <trkpt lon="78.515885528286773" lat="17.629237526601486">
        <ele>511.489</ele>
        <time>2024-09-25T11:08:24Z</time>
      </trkpt>
      <trkpt lon="78.515885564022341" lat="17.629237573631283">
        <ele>511.489</ele>
        <time>2024-09-25T11:08:24Z</time>
      </trkpt>
      <trkpt lon="78.515885599757908" lat="17.62923762066108">
        <ele>511.489</ele>
        <time>2024-09-25T11:08:24Z</time>
      </trkpt>
      <trkpt lon="78.515885635493476" lat="17.629237667690877">
        <ele>511.489</ele>
        <time>2024-09-25T11:08:24Z</time>
      </trkpt>
      <trkpt lon="78.515885671229043" lat="17.629237714720674">
        <ele>511.489</ele>
        <time>2024-09-25T11:08:24Z</time>
      </trkpt>
      <trkpt lon="78.51588570696461" lat="17.629237761750471">
        <ele>511.489</ele>
        <time>2024-09-25T11:08:24Z</time>
      </trkpt>
      <trkpt lon="78.515885742700178" lat="17.629237808780267">
        <ele>511.489</ele>
        <time>2024-09-25T11:08:24Z</time>
      </trkpt>
      <trkpt lon="78.515885778435745" lat="17.629237855810061">
        <ele>511.489</ele>
        <time>2024-09-25T11:08:24Z</time>
      </trkpt>
      <trkpt lon="78.515885814171313" lat="17.629237902839854">
        <ele>511.489</ele>
        <time>2024-09-25T11:08:24Z</time>
      </trkpt>
      <trkpt lon="78.51588584990688" lat="17.629237949869648">
        <ele>511.489</ele>
        <time>2024-09-25T11:08:24Z</time>
      </trkpt>
      <trkpt lon="78.515885885642447" lat="17.629237996899441">
        <ele>511.489</ele>
        <time>2024-09-25T11:08:24Z</time>
      </trkpt>
      <trkpt lon="78.515885921378015" lat="17.629238043929234">
        <ele>511.489</ele>
        <time>2024-09-25T11:08:24Z</time>
      </trkpt>
      <trkpt lon="78.515885957113582" lat="17.629238090959028">
        <ele>511.489</ele>
        <time>2024-09-25T11:08:25Z</time>
      </trkpt>
      <trkpt lon="78.515885992849149" lat="17.629238137988821">
        <ele>511.489</ele>
        <time>2024-09-25T11:08:25Z</time>
      </trkpt>
      <trkpt lon="78.515886028584717" lat="17.629238185018618">
        <ele>511.489</ele>
        <time>2024-09-25T11:08:25Z</time>
      </trkpt>
      <trkpt lon="78.515886064320284" lat="17.629238232048415">
        <ele>511.489</ele>
        <time>2024-09-25T11:08:25Z</time>
      </trkpt>
      <trkpt lon="78.515886100055852" lat="17.629238279078212">
        <ele>511.489</ele>
        <time>2024-09-25T11:08:25Z</time>
      </trkpt>
      <trkpt lon="78.515886135791419" lat="17.629238326108009">
        <ele>511.489</ele>
        <time>2024-09-25T11:08:25Z</time>
      </trkpt>
      <trkpt lon="78.515886171526986" lat="17.629238373137806">
        <ele>511.489</ele>
        <time>2024-09-25T11:08:25Z</time>
      </trkpt>
      <trkpt lon="78.515886207262554" lat="17.629238420167603">
        <ele>511.489</ele>
        <time>2024-09-25T11:08:25Z</time>
      </trkpt>
      <trkpt lon="78.515886242998121" lat="17.6292384671974">
        <ele>511.489</ele>
        <time>2024-09-25T11:08:25Z</time>
      </trkpt>
      <trkpt lon="78.515886278733689" lat="17.629238514227193">
        <ele>511.489</ele>
        <time>2024-09-25T11:08:25Z</time>
      </trkpt>
      <trkpt lon="78.515886314469256" lat="17.629238561256987">
        <ele>511.489</ele>
        <time>2024-09-25T11:08:25Z</time>
      </trkpt>
      <trkpt lon="78.515886350204823" lat="17.62923860828678">
        <ele>511.489</ele>
        <time>2024-09-25T11:08:25Z</time>
      </trkpt>
      <trkpt lon="78.515886385940391" lat="17.629238655316573">
        <ele>511.489</ele>
        <time>2024-09-25T11:08:25Z</time>
      </trkpt>
      <trkpt lon="78.515886421675972" lat="17.629238702346367">
        <ele>511.489</ele>
        <time>2024-09-25T11:08:25Z</time>
      </trkpt>
      <trkpt lon="78.515886457411554" lat="17.62923874937616">
        <ele>511.489</ele>
        <time>2024-09-25T11:08:25Z</time>
      </trkpt>
      <trkpt lon="78.515886493147136" lat="17.629238796405954">
        <ele>511.489</ele>
        <time>2024-09-25T11:08:25Z</time>
      </trkpt>
      <trkpt lon="78.515886528882717" lat="17.629238843435751">
        <ele>511.489</ele>
        <time>2024-09-25T11:08:25Z</time>
      </trkpt>
      <trkpt lon="78.515886564618285" lat="17.629238890465547">
        <ele>511.489</ele>
        <time>2024-09-25T11:08:25Z</time>
      </trkpt>
      <trkpt lon="78.515886600353852" lat="17.629238937495344">
        <ele>511.489</ele>
        <time>2024-09-25T11:08:25Z</time>
      </trkpt>
      <trkpt lon="78.515886636089419" lat="17.629238984525141">
        <ele>511.489</ele>
        <time>2024-09-25T11:08:25Z</time>
      </trkpt>
      <trkpt lon="78.515886671824987" lat="17.629239031554938">
        <ele>511.489</ele>
        <time>2024-09-25T11:08:25Z</time>
      </trkpt>
      <trkpt lon="78.515886707560554" lat="17.629239078584735">
        <ele>511.489</ele>
        <time>2024-09-25T11:08:25Z</time>
      </trkpt>
      <trkpt lon="78.515886743296122" lat="17.629239125614532">
        <ele>511.489</ele>
        <time>2024-09-25T11:08:25Z</time>
      </trkpt>
      <trkpt lon="78.515886779031689" lat="17.629239172644326">
        <ele>511.489</ele>
        <time>2024-09-25T11:08:25Z</time>
      </trkpt>
      <trkpt lon="78.515886814767256" lat="17.629239219674119">
        <ele>511.489</ele>
        <time>2024-09-25T11:08:25Z</time>
      </trkpt>
      <trkpt lon="78.515886850502824" lat="17.629239266703912">
        <ele>511.489</ele>
        <time>2024-09-25T11:08:25Z</time>
      </trkpt>
      <trkpt lon="78.515886886238391" lat="17.629239313733706">
        <ele>511.489</ele>
        <time>2024-09-25T11:08:25Z</time>
      </trkpt>
      <trkpt lon="78.515886921973959" lat="17.629239360763499">
        <ele>511.489</ele>
        <time>2024-09-25T11:08:25Z</time>
      </trkpt>
      <trkpt lon="78.515886957709526" lat="17.629239407793293">
        <ele>511.489</ele>
        <time>2024-09-25T11:08:25Z</time>
      </trkpt>
      <trkpt lon="78.515886993445093" lat="17.629239454823086">
        <ele>511.489</ele>
        <time>2024-09-25T11:08:26Z</time>
      </trkpt>
      <trkpt lon="78.515887029180661" lat="17.629239501852883">
        <ele>511.489</ele>
        <time>2024-09-25T11:08:26Z</time>
      </trkpt>
      <trkpt lon="78.515887064916214" lat="17.62923954888268">
        <ele>511.489</ele>
        <time>2024-09-25T11:08:26Z</time>
      </trkpt>
      <trkpt lon="78.515887100651767" lat="17.629239595912477">
        <ele>511.489</ele>
        <time>2024-09-25T11:08:26Z</time>
      </trkpt>
      <trkpt lon="78.51588713638732" lat="17.629239642942274">
        <ele>511.489</ele>
        <time>2024-09-25T11:08:26Z</time>
      </trkpt>
      <trkpt lon="78.515887172122888" lat="17.629239689972071">
        <ele>511.489</ele>
        <time>2024-09-25T11:08:26Z</time>
      </trkpt>
      <trkpt lon="78.515887207858455" lat="17.629239737001868">
        <ele>511.489</ele>
        <time>2024-09-25T11:08:26Z</time>
      </trkpt>
      <trkpt lon="78.515887243594022" lat="17.629239784031665">
        <ele>511.489</ele>
        <time>2024-09-25T11:08:26Z</time>
      </trkpt>
      <trkpt lon="78.51588727932959" lat="17.629239831061458">
        <ele>511.489</ele>
        <time>2024-09-25T11:08:26Z</time>
      </trkpt>
      <trkpt lon="78.515887315065157" lat="17.629239878091251">
        <ele>511.489</ele>
        <time>2024-09-25T11:08:26Z</time>
      </trkpt>
      <trkpt lon="78.515887350800725" lat="17.629239925121045">
        <ele>511.489</ele>
        <time>2024-09-25T11:08:26Z</time>
      </trkpt>
      <trkpt lon="78.515887386536292" lat="17.629239972150838">
        <ele>511.489</ele>
        <time>2024-09-25T11:08:26Z</time>
      </trkpt>
      <trkpt lon="78.515887422271859" lat="17.629240019180632">
        <ele>511.489</ele>
        <time>2024-09-25T11:08:26Z</time>
      </trkpt>
      <trkpt lon="78.515887458007427" lat="17.629240066210425">
        <ele>511.489</ele>
        <time>2024-09-25T11:08:26Z</time>
      </trkpt>
      <trkpt lon="78.515887493742994" lat="17.629240113240218">
        <ele>511.489</ele>
        <time>2024-09-25T11:08:26Z</time>
      </trkpt>
      <trkpt lon="78.515887529478562" lat="17.629240160270015">
        <ele>511.489</ele>
        <time>2024-09-25T11:08:26Z</time>
      </trkpt>
      <trkpt lon="78.515887565214129" lat="17.629240207299812">
        <ele>511.489</ele>
        <time>2024-09-25T11:08:26Z</time>
      </trkpt>
      <trkpt lon="78.515887600949696" lat="17.629240254329609">
        <ele>511.489</ele>
        <time>2024-09-25T11:08:26Z</time>
      </trkpt>
      <trkpt lon="78.515887636685264" lat="17.629240301359406">
        <ele>511.489</ele>
        <time>2024-09-25T11:08:26Z</time>
      </trkpt>
      <trkpt lon="78.515887672420845" lat="17.629240348389203">
        <ele>511.489</ele>
        <time>2024-09-25T11:08:26Z</time>
      </trkpt>
      <trkpt lon="78.515887708156427" lat="17.629240395419">
        <ele>511.489</ele>
        <time>2024-09-25T11:08:26Z</time>
      </trkpt>
      <trkpt lon="78.515887743892009" lat="17.629240442448797">
        <ele>511.489</ele>
        <time>2024-09-25T11:08:26Z</time>
      </trkpt>
      <trkpt lon="78.51588777962759" lat="17.62924048947859">
        <ele>511.489</ele>
        <time>2024-09-25T11:08:26Z</time>
      </trkpt>
      <trkpt lon="78.515887815363158" lat="17.629240536508384">
        <ele>511.489</ele>
        <time>2024-09-25T11:08:26Z</time>
      </trkpt>
      <trkpt lon="78.515887851098725" lat="17.629240583538177">
        <ele>511.489</ele>
        <time>2024-09-25T11:08:26Z</time>
      </trkpt>
      <trkpt lon="78.515887886834292" lat="17.629240630567971">
        <ele>511.489</ele>
        <time>2024-09-25T11:08:26Z</time>
      </trkpt>
      <trkpt lon="78.51588792256986" lat="17.629240677597764">
        <ele>511.489</ele>
        <time>2024-09-25T11:08:26Z</time>
      </trkpt>
      <trkpt lon="78.515887958305427" lat="17.629240724627557">
        <ele>511.489</ele>
        <time>2024-09-25T11:08:26Z</time>
      </trkpt>
      <trkpt lon="78.515887994040995" lat="17.629240771657351">
        <ele>511.489</ele>
        <time>2024-09-25T11:08:26Z</time>
      </trkpt>
      <trkpt lon="78.515888029776562" lat="17.629240818687148">
        <ele>511.489</ele>
        <time>2024-09-25T11:08:26Z</time>
      </trkpt>
      <trkpt lon="78.515888065512129" lat="17.629240865716945">
        <ele>511.489</ele>
        <time>2024-09-25T11:08:27Z</time>
      </trkpt>
      <trkpt lon="78.515888101247697" lat="17.629240912746742">
        <ele>511.489</ele>
        <time>2024-09-25T11:08:27Z</time>
      </trkpt>
      <trkpt lon="78.515888136983264" lat="17.629240959776538">
        <ele>511.489</ele>
        <time>2024-09-25T11:08:27Z</time>
      </trkpt>
      <trkpt lon="78.515888172718832" lat="17.629241006806335">
        <ele>511.489</ele>
        <time>2024-09-25T11:08:27Z</time>
      </trkpt>
      <trkpt lon="78.515888208454399" lat="17.629241053836132">
        <ele>511.489</ele>
        <time>2024-09-25T11:08:27Z</time>
      </trkpt>
      <trkpt lon="78.515888244189966" lat="17.629241100865929">
        <ele>511.489</ele>
        <time>2024-09-25T11:08:27Z</time>
      </trkpt>
      <trkpt lon="78.515888279925534" lat="17.629241147895723">
        <ele>511.489</ele>
        <time>2024-09-25T11:08:27Z</time>
      </trkpt>
      <trkpt lon="78.515888315661101" lat="17.629241194925516">
        <ele>511.489</ele>
        <time>2024-09-25T11:08:27Z</time>
      </trkpt>
      <trkpt lon="78.515888351396669" lat="17.62924124195531">
        <ele>511.489</ele>
        <time>2024-09-25T11:08:27Z</time>
      </trkpt>
      <trkpt lon="78.515888387132236" lat="17.629241288985103">
        <ele>511.489</ele>
        <time>2024-09-25T11:08:27Z</time>
      </trkpt>
      <trkpt lon="78.515888422867803" lat="17.629241336014896">
        <ele>511.489</ele>
        <time>2024-09-25T11:08:27Z</time>
      </trkpt>
      <trkpt lon="78.515888458603371" lat="17.62924138304469">
        <ele>511.489</ele>
        <time>2024-09-25T11:08:27Z</time>
      </trkpt>
      <trkpt lon="78.515888494338938" lat="17.629241430074483">
        <ele>511.489</ele>
        <time>2024-09-25T11:08:27Z</time>
      </trkpt>
      <trkpt lon="78.515888530074506" lat="17.62924147710428">
        <ele>511.489</ele>
        <time>2024-09-25T11:08:27Z</time>
      </trkpt>
      <trkpt lon="78.515888565810073" lat="17.629241524134077">
        <ele>511.489</ele>
        <time>2024-09-25T11:08:27Z</time>
      </trkpt>
      <trkpt lon="78.51588860154564" lat="17.629241571163874">
        <ele>511.489</ele>
        <time>2024-09-25T11:08:27Z</time>
      </trkpt>
      <trkpt lon="78.515888637281193" lat="17.629241618193671">
        <ele>511.489</ele>
        <time>2024-09-25T11:08:27Z</time>
      </trkpt>
      <trkpt lon="78.515888673016747" lat="17.629241665223468">
        <ele>511.489</ele>
        <time>2024-09-25T11:08:27Z</time>
      </trkpt>
      <trkpt lon="78.515888708752314" lat="17.629241712253265">
        <ele>511.489</ele>
        <time>2024-09-25T11:08:27Z</time>
      </trkpt>
      <trkpt lon="78.515888744487881" lat="17.629241759283062">
        <ele>511.489</ele>
        <time>2024-09-25T11:08:27Z</time>
      </trkpt>
      <trkpt lon="78.515888780223449" lat="17.629241806312855">
        <ele>511.489</ele>
        <time>2024-09-25T11:08:27Z</time>
      </trkpt>
      <trkpt lon="78.515888815959016" lat="17.629241853342648">
        <ele>511.489</ele>
        <time>2024-09-25T11:08:27Z</time>
      </trkpt>
      <trkpt lon="78.515888851694584" lat="17.629241900372442">
        <ele>511.489</ele>
        <time>2024-09-25T11:08:27Z</time>
      </trkpt>
      <trkpt lon="78.515888887430151" lat="17.629241947402235">
        <ele>511.489</ele>
        <time>2024-09-25T11:08:27Z</time>
      </trkpt>
      <trkpt lon="78.515888923165718" lat="17.629241994432029">
        <ele>511.489</ele>
        <time>2024-09-25T11:08:27Z</time>
      </trkpt>
      <trkpt lon="78.515888958901286" lat="17.629242041461822">
        <ele>511.489</ele>
        <time>2024-09-25T11:08:27Z</time>
      </trkpt>
      <trkpt lon="78.515888994636853" lat="17.629242088491615">
        <ele>511.489</ele>
        <time>2024-09-25T11:08:27Z</time>
      </trkpt>
      <trkpt lon="78.515889030372421" lat="17.629242135521412">
        <ele>511.489</ele>
        <time>2024-09-25T11:08:27Z</time>
      </trkpt>
      <trkpt lon="78.515889066107988" lat="17.629242182551209">
        <ele>511.489</ele>
        <time>2024-09-25T11:08:27Z</time>
      </trkpt>
      <trkpt lon="78.515889101843555" lat="17.629242229581006">
        <ele>511.489</ele>
        <time>2024-09-25T11:08:28Z</time>
      </trkpt>
      <trkpt lon="78.515889137579123" lat="17.629242276610803">
        <ele>511.489</ele>
        <time>2024-09-25T11:08:28Z</time>
      </trkpt>
      <trkpt lon="78.51588917331469" lat="17.6292423236406">
        <ele>511.489</ele>
        <time>2024-09-25T11:08:28Z</time>
      </trkpt>
      <trkpt lon="78.515889209050258" lat="17.629242370670397">
        <ele>511.489</ele>
        <time>2024-09-25T11:08:28Z</time>
      </trkpt>
      <trkpt lon="78.515889244785825" lat="17.629242417700194">
        <ele>511.489</ele>
        <time>2024-09-25T11:08:28Z</time>
      </trkpt>
      <trkpt lon="78.515889280521407" lat="17.629242464729987">
        <ele>511.489</ele>
        <time>2024-09-25T11:08:28Z</time>
      </trkpt>
      <trkpt lon="78.515889316256988" lat="17.629242511759781">
        <ele>511.489</ele>
        <time>2024-09-25T11:08:28Z</time>
      </trkpt>
      <trkpt lon="78.51588935199257" lat="17.629242558789574">
        <ele>511.489</ele>
        <time>2024-09-25T11:08:28Z</time>
      </trkpt>
      <trkpt lon="78.515889387728151" lat="17.629242605819368">
        <ele>511.489</ele>
        <time>2024-09-25T11:08:28Z</time>
      </trkpt>
      <trkpt lon="78.515889423463719" lat="17.629242652849161">
        <ele>511.489</ele>
        <time>2024-09-25T11:08:28Z</time>
      </trkpt>
      <trkpt lon="78.515889459199286" lat="17.629242699878954">
        <ele>511.489</ele>
        <time>2024-09-25T11:08:28Z</time>
      </trkpt>
      <trkpt lon="78.515889494934854" lat="17.629242746908748">
        <ele>511.489</ele>
        <time>2024-09-25T11:08:28Z</time>
      </trkpt>
      <trkpt lon="78.515889530670421" lat="17.629242793938545">
        <ele>511.489</ele>
        <time>2024-09-25T11:08:28Z</time>
      </trkpt>
      <trkpt lon="78.515889566405988" lat="17.629242840968342">
        <ele>511.489</ele>
        <time>2024-09-25T11:08:28Z</time>
      </trkpt>
      <trkpt lon="78.515889602141556" lat="17.629242887998139">
        <ele>511.489</ele>
        <time>2024-09-25T11:08:28Z</time>
      </trkpt>
      <trkpt lon="78.515889637877123" lat="17.629242935027936">
        <ele>511.489</ele>
        <time>2024-09-25T11:08:28Z</time>
      </trkpt>
      <trkpt lon="78.515889673612691" lat="17.629242982057733">
        <ele>511.489</ele>
        <time>2024-09-25T11:08:28Z</time>
      </trkpt>
      <trkpt lon="78.515889709348258" lat="17.629243029087529">
        <ele>511.489</ele>
        <time>2024-09-25T11:08:28Z</time>
      </trkpt>
      <trkpt lon="78.515889745083825" lat="17.629243076117326">
        <ele>511.489</ele>
        <time>2024-09-25T11:08:28Z</time>
      </trkpt>
      <trkpt lon="78.515889780819393" lat="17.62924312314712">
        <ele>511.489</ele>
        <time>2024-09-25T11:08:28Z</time>
      </trkpt>
      <trkpt lon="78.51588981655496" lat="17.629243170176913">
        <ele>511.489</ele>
        <time>2024-09-25T11:08:28Z</time>
      </trkpt>
      <trkpt lon="78.515889852290528" lat="17.629243217206707">
        <ele>511.489</ele>
        <time>2024-09-25T11:08:28Z</time>
      </trkpt>
      <trkpt lon="78.515889888026095" lat="17.6292432642365">
        <ele>511.489</ele>
        <time>2024-09-25T11:08:28Z</time>
      </trkpt>
      <trkpt lon="78.515889923761662" lat="17.629243311266293">
        <ele>511.489</ele>
        <time>2024-09-25T11:08:28Z</time>
      </trkpt>
      <trkpt lon="78.51588995949723" lat="17.629243358296087">
        <ele>511.489</ele>
        <time>2024-09-25T11:08:28Z</time>
      </trkpt>
      <trkpt lon="78.515889995232797" lat="17.62924340532588">
        <ele>511.489</ele>
        <time>2024-09-25T11:08:28Z</time>
      </trkpt>
      <trkpt lon="78.515890030968364" lat="17.629243452355677">
        <ele>511.489</ele>
        <time>2024-09-25T11:08:28Z</time>
      </trkpt>
      <trkpt lon="78.515890066703918" lat="17.629243499385474">
        <ele>511.489</ele>
        <time>2024-09-25T11:08:28Z</time>
      </trkpt>
      <trkpt lon="78.515890102439471" lat="17.629243546415271">
        <ele>511.489</ele>
        <time>2024-09-25T11:08:28Z</time>
      </trkpt>
      <trkpt lon="78.515890138175038" lat="17.629243593445068">
        <ele>511.489</ele>
        <time>2024-09-25T11:08:29Z</time>
      </trkpt>
      <trkpt lon="78.515890173910606" lat="17.629243640474865">
        <ele>511.489</ele>
        <time>2024-09-25T11:08:29Z</time>
      </trkpt>
      <trkpt lon="78.515890209646173" lat="17.629243687504662">
        <ele>511.489</ele>
        <time>2024-09-25T11:08:29Z</time>
      </trkpt>
      <trkpt lon="78.51589024538174" lat="17.629243734534459">
        <ele>511.489</ele>
        <time>2024-09-25T11:08:29Z</time>
      </trkpt>
      <trkpt lon="78.515890281117308" lat="17.629243781564252">
        <ele>511.489</ele>
        <time>2024-09-25T11:08:29Z</time>
      </trkpt>
      <trkpt lon="78.515890316852875" lat="17.629243828594046">
        <ele>511.489</ele>
        <time>2024-09-25T11:08:29Z</time>
      </trkpt>
      <trkpt lon="78.515890352588443" lat="17.629243875623839">
        <ele>511.489</ele>
        <time>2024-09-25T11:08:29Z</time>
      </trkpt>
      <trkpt lon="78.51589038832401" lat="17.629243922653632">
        <ele>511.489</ele>
        <time>2024-09-25T11:08:29Z</time>
      </trkpt>
      <trkpt lon="78.515890424059577" lat="17.629243969683426">
        <ele>511.489</ele>
        <time>2024-09-25T11:08:29Z</time>
      </trkpt>
      <trkpt lon="78.515890459795145" lat="17.629244016713219">
        <ele>511.489</ele>
        <time>2024-09-25T11:08:29Z</time>
      </trkpt>
      <trkpt lon="78.515890495530712" lat="17.629244063743013">
        <ele>511.489</ele>
        <time>2024-09-25T11:08:29Z</time>
      </trkpt>
      <trkpt lon="78.51589053126628" lat="17.62924411077281">
        <ele>511.489</ele>
        <time>2024-09-25T11:08:29Z</time>
      </trkpt>
      <trkpt lon="78.515890567001847" lat="17.629244157802606">
        <ele>511.489</ele>
        <time>2024-09-25T11:08:29Z</time>
      </trkpt>
      <trkpt lon="78.515890602737414" lat="17.629244204832403">
        <ele>511.489</ele>
        <time>2024-09-25T11:08:29Z</time>
      </trkpt>
      <trkpt lon="78.515890638472982" lat="17.6292442518622">
        <ele>511.489</ele>
        <time>2024-09-25T11:08:29Z</time>
      </trkpt>
      <trkpt lon="78.515890674208549" lat="17.629244298891997">
        <ele>511.489</ele>
        <time>2024-09-25T11:08:29Z</time>
      </trkpt>
      <trkpt lon="78.515890709944117" lat="17.629244345921794">
        <ele>511.489</ele>
        <time>2024-09-25T11:08:29Z</time>
      </trkpt>
      <trkpt lon="78.515890745679684" lat="17.629244392951591">
        <ele>511.489</ele>
        <time>2024-09-25T11:08:29Z</time>
      </trkpt>
      <trkpt lon="78.515890781415251" lat="17.629244439981385">
        <ele>511.489</ele>
        <time>2024-09-25T11:08:29Z</time>
      </trkpt>
      <trkpt lon="78.515890817150819" lat="17.629244487011178">
        <ele>511.489</ele>
        <time>2024-09-25T11:08:29Z</time>
      </trkpt>
      <trkpt lon="78.515890852886386" lat="17.629244534040971">
        <ele>511.489</ele>
        <time>2024-09-25T11:08:29Z</time>
      </trkpt>
      <trkpt lon="78.515890888621968" lat="17.629244581070765">
        <ele>511.489</ele>
        <time>2024-09-25T11:08:29Z</time>
      </trkpt>
      <trkpt lon="78.515890924357549" lat="17.629244628100558">
        <ele>511.489</ele>
        <time>2024-09-25T11:08:29Z</time>
      </trkpt>
      <trkpt lon="78.515890960093131" lat="17.629244675130352">
        <ele>511.489</ele>
        <time>2024-09-25T11:08:29Z</time>
      </trkpt>
      <trkpt lon="78.515890995828713" lat="17.629244722160145">
        <ele>511.489</ele>
        <time>2024-09-25T11:08:29Z</time>
      </trkpt>
      <trkpt lon="78.51589103156428" lat="17.629244769189942">
        <ele>511.489</ele>
        <time>2024-09-25T11:08:29Z</time>
      </trkpt>
      <trkpt lon="78.515891067299847" lat="17.629244816219739">
        <ele>511.489</ele>
        <time>2024-09-25T11:08:29Z</time>
      </trkpt>
      <trkpt lon="78.515891103035415" lat="17.629244863249536">
        <ele>511.489</ele>
        <time>2024-09-25T11:08:29Z</time>
      </trkpt>
      <trkpt lon="78.515891138770982" lat="17.629244910279333">
        <ele>511.489</ele>
        <time>2024-09-25T11:08:29Z</time>
      </trkpt>
      <trkpt lon="78.51589117450655" lat="17.62924495730913">
        <ele>511.489</ele>
        <time>2024-09-25T11:08:29Z</time>
      </trkpt>
      <trkpt lon="78.515891210242117" lat="17.629245004338927">
        <ele>511.489</ele>
        <time>2024-09-25T11:08:30Z</time>
      </trkpt>
      <trkpt lon="78.515891245977684" lat="17.629245051368724">
        <ele>511.489</ele>
        <time>2024-09-25T11:08:30Z</time>
      </trkpt>
      <trkpt lon="78.515891281713252" lat="17.629245098398517">
        <ele>511.489</ele>
        <time>2024-09-25T11:08:30Z</time>
      </trkpt>
      <trkpt lon="78.515891317448819" lat="17.62924514542831">
        <ele>511.489</ele>
        <time>2024-09-25T11:08:30Z</time>
      </trkpt>
      <trkpt lon="78.515891353184387" lat="17.629245192458104">
        <ele>511.489</ele>
        <time>2024-09-25T11:08:30Z</time>
      </trkpt>
      <trkpt lon="78.515891388919954" lat="17.629245239487897">
        <ele>511.489</ele>
        <time>2024-09-25T11:08:30Z</time>
      </trkpt>
      <trkpt lon="78.515891424655521" lat="17.629245286517691">
        <ele>511.489</ele>
        <time>2024-09-25T11:08:30Z</time>
      </trkpt>
      <trkpt lon="78.515891460391089" lat="17.629245333547484">
        <ele>511.489</ele>
        <time>2024-09-25T11:08:30Z</time>
      </trkpt>
      <trkpt lon="78.515891496126656" lat="17.629245380577277">
        <ele>511.489</ele>
        <time>2024-09-25T11:08:30Z</time>
      </trkpt>
      <trkpt lon="78.515891531862223" lat="17.629245427607074">
        <ele>511.489</ele>
        <time>2024-09-25T11:08:30Z</time>
      </trkpt>
      <trkpt lon="78.515891567597791" lat="17.629245474636871">
        <ele>511.489</ele>
        <time>2024-09-25T11:08:30Z</time>
      </trkpt>
      <trkpt lon="78.515891603333344" lat="17.629245521666668">
        <ele>511.489</ele>
        <time>2024-09-25T11:08:30Z</time>
      </trkpt>
      <trkpt lon="78.515891639068897" lat="17.629245568696465">
        <ele>511.489</ele>
        <time>2024-09-25T11:08:30Z</time>
      </trkpt>
      <trkpt lon="78.515891674804465" lat="17.629245615726262">
        <ele>511.489</ele>
        <time>2024-09-25T11:08:30Z</time>
      </trkpt>
      <trkpt lon="78.515891710540032" lat="17.629245662756059">
        <ele>511.489</ele>
        <time>2024-09-25T11:08:30Z</time>
      </trkpt>
      <trkpt lon="78.515891746275599" lat="17.629245709785852">
        <ele>511.489</ele>
        <time>2024-09-25T11:08:30Z</time>
      </trkpt>
      <trkpt lon="78.515891782011167" lat="17.629245756815646">
        <ele>511.489</ele>
        <time>2024-09-25T11:08:30Z</time>
      </trkpt>
      <trkpt lon="78.515891817746734" lat="17.629245803845439">
        <ele>511.489</ele>
        <time>2024-09-25T11:08:30Z</time>
      </trkpt>
      <trkpt lon="78.515891853482302" lat="17.629245850875233">
        <ele>511.489</ele>
        <time>2024-09-25T11:08:30Z</time>
      </trkpt>
      <trkpt lon="78.515891889217869" lat="17.629245897905026">
        <ele>511.489</ele>
        <time>2024-09-25T11:08:30Z</time>
      </trkpt>
      <trkpt lon="78.515891924953436" lat="17.629245944934819">
        <ele>511.489</ele>
        <time>2024-09-25T11:08:30Z</time>
      </trkpt>
      <trkpt lon="78.515891960689004" lat="17.629245991964613">
        <ele>511.489</ele>
        <time>2024-09-25T11:08:30Z</time>
      </trkpt>
      <trkpt lon="78.515891996424571" lat="17.62924603899441">
        <ele>511.489</ele>
        <time>2024-09-25T11:08:30Z</time>
      </trkpt>
      <trkpt lon="78.515892032160139" lat="17.629246086024207">
        <ele>511.489</ele>
        <time>2024-09-25T11:08:30Z</time>
      </trkpt>
      <trkpt lon="78.515892067895706" lat="17.629246133054004">
        <ele>511.489</ele>
        <time>2024-09-25T11:08:30Z</time>
      </trkpt>
      <trkpt lon="78.515892103631273" lat="17.629246180083801">
        <ele>511.489</ele>
        <time>2024-09-25T11:08:30Z</time>
      </trkpt>
      <trkpt lon="78.515892139366841" lat="17.629246227113597">
        <ele>511.489</ele>
        <time>2024-09-25T11:08:30Z</time>
      </trkpt>
      <trkpt lon="78.515892175102408" lat="17.629246274143394">
        <ele>511.489</ele>
        <time>2024-09-25T11:08:30Z</time>
      </trkpt>
      <trkpt lon="78.515892210837976" lat="17.629246321173191">
        <ele>511.489</ele>
        <time>2024-09-25T11:08:30Z</time>
      </trkpt>
      <trkpt lon="78.515892246573543" lat="17.629246368202985">
        <ele>511.489</ele>
        <time>2024-09-25T11:08:31Z</time>
      </trkpt>
      <trkpt lon="78.51589228230911" lat="17.629246415232778">
        <ele>511.489</ele>
        <time>2024-09-25T11:08:31Z</time>
      </trkpt>
      <trkpt lon="78.515892318044678" lat="17.629246462262572">
        <ele>511.489</ele>
        <time>2024-09-25T11:08:31Z</time>
      </trkpt>
      <trkpt lon="78.515892353780245" lat="17.629246509292365">
        <ele>511.489</ele>
        <time>2024-09-25T11:08:31Z</time>
      </trkpt>
      <trkpt lon="78.515892389515813" lat="17.629246556322158">
        <ele>511.489</ele>
        <time>2024-09-25T11:08:31Z</time>
      </trkpt>
      <trkpt lon="78.51589242525138" lat="17.629246603351952">
        <ele>511.489</ele>
        <time>2024-09-25T11:08:31Z</time>
      </trkpt>
      <trkpt lon="78.515892460986947" lat="17.629246650381745">
        <ele>511.489</ele>
        <time>2024-09-25T11:08:31Z</time>
      </trkpt>
      <trkpt lon="78.515892496722515" lat="17.629246697411542">
        <ele>511.489</ele>
        <time>2024-09-25T11:08:31Z</time>
      </trkpt>
      <trkpt lon="78.515892532458096" lat="17.629246744441339">
        <ele>511.489</ele>
        <time>2024-09-25T11:08:31Z</time>
      </trkpt>
      <trkpt lon="78.515892568193678" lat="17.629246791471136">
        <ele>511.489</ele>
        <time>2024-09-25T11:08:31Z</time>
      </trkpt>
      <trkpt lon="78.51589260392926" lat="17.629246838500933">
        <ele>511.489</ele>
        <time>2024-09-25T11:08:31Z</time>
      </trkpt>
      <trkpt lon="78.515892639664841" lat="17.62924688553073">
        <ele>511.489</ele>
        <time>2024-09-25T11:08:31Z</time>
      </trkpt>
      <trkpt lon="78.515892675400409" lat="17.629246932560527">
        <ele>511.489</ele>
        <time>2024-09-25T11:08:31Z</time>
      </trkpt>
      <trkpt lon="78.515892711135976" lat="17.629246979590324">
        <ele>511.489</ele>
        <time>2024-09-25T11:08:31Z</time>
      </trkpt>
      <trkpt lon="78.515892746871543" lat="17.629247026620117">
        <ele>511.489</ele>
        <time>2024-09-25T11:08:31Z</time>
      </trkpt>
      <trkpt lon="78.515892782607111" lat="17.629247073649911">
        <ele>511.489</ele>
        <time>2024-09-25T11:08:31Z</time>
      </trkpt>
      <trkpt lon="78.515892818342678" lat="17.629247120679704">
        <ele>511.489</ele>
        <time>2024-09-25T11:08:31Z</time>
      </trkpt>
      <trkpt lon="78.515892854078245" lat="17.629247167709497">
        <ele>511.489</ele>
        <time>2024-09-25T11:08:31Z</time>
      </trkpt>
      <trkpt lon="78.515892889813813" lat="17.629247214739291">
        <ele>511.489</ele>
        <time>2024-09-25T11:08:31Z</time>
      </trkpt>
      <trkpt lon="78.51589292554938" lat="17.629247261769084">
        <ele>511.489</ele>
        <time>2024-09-25T11:08:31Z</time>
      </trkpt>
      <trkpt lon="78.515892961284948" lat="17.629247308798877">
        <ele>511.489</ele>
        <time>2024-09-25T11:08:31Z</time>
      </trkpt>
      <trkpt lon="78.515892997020515" lat="17.629247355828674">
        <ele>511.489</ele>
        <time>2024-09-25T11:08:31Z</time>
      </trkpt>
      <trkpt lon="78.515893032756082" lat="17.629247402858471">
        <ele>511.489</ele>
        <time>2024-09-25T11:08:31Z</time>
      </trkpt>
      <trkpt lon="78.51589306849165" lat="17.629247449888268">
        <ele>511.489</ele>
        <time>2024-09-25T11:08:31Z</time>
      </trkpt>
      <trkpt lon="78.515893104227217" lat="17.629247496918065">
        <ele>511.489</ele>
        <time>2024-09-25T11:08:31Z</time>
      </trkpt>
      <trkpt lon="78.515893139962785" lat="17.629247543947862">
        <ele>511.489</ele>
        <time>2024-09-25T11:08:31Z</time>
      </trkpt>
      <trkpt lon="78.515893175698338" lat="17.629247590977659">
        <ele>511.489</ele>
        <time>2024-09-25T11:08:31Z</time>
      </trkpt>
      <trkpt lon="78.515893211433891" lat="17.629247638007456">
        <ele>511.489</ele>
        <time>2024-09-25T11:08:31Z</time>
      </trkpt>
      <trkpt lon="78.515893247169444" lat="17.629247685037249">
        <ele>511.489</ele>
        <time>2024-09-25T11:08:31Z</time>
      </trkpt>
      <trkpt lon="78.515893282905012" lat="17.629247732067043">
        <ele>511.489</ele>
        <time>2024-09-25T11:08:31Z</time>
      </trkpt>
      <trkpt lon="78.515893318640579" lat="17.629247779096836">
        <ele>511.489</ele>
        <time>2024-09-25T11:08:32Z</time>
      </trkpt>
      <trkpt lon="78.515893354376146" lat="17.62924782612663">
        <ele>511.489</ele>
        <time>2024-09-25T11:08:32Z</time>
      </trkpt>
      <trkpt lon="78.515893390111714" lat="17.629247873156423">
        <ele>511.489</ele>
        <time>2024-09-25T11:08:32Z</time>
      </trkpt>
      <trkpt lon="78.515893425847281" lat="17.629247920186216">
        <ele>511.489</ele>
        <time>2024-09-25T11:08:32Z</time>
      </trkpt>
      <trkpt lon="78.515893461582849" lat="17.62924796721601">
        <ele>511.489</ele>
        <time>2024-09-25T11:08:32Z</time>
      </trkpt>
      <trkpt lon="78.515893497318416" lat="17.629248014245807">
        <ele>511.489</ele>
        <time>2024-09-25T11:08:32Z</time>
      </trkpt>
      <trkpt lon="78.515893533053983" lat="17.629248061275604">
        <ele>511.489</ele>
        <time>2024-09-25T11:08:32Z</time>
      </trkpt>
      <trkpt lon="78.515893568789551" lat="17.629248108305401">
        <ele>511.489</ele>
        <time>2024-09-25T11:08:32Z</time>
      </trkpt>
      <trkpt lon="78.515893604525118" lat="17.629248155335198">
        <ele>511.489</ele>
        <time>2024-09-25T11:08:32Z</time>
      </trkpt>
      <trkpt lon="78.515893640260686" lat="17.629248202364995">
        <ele>511.489</ele>
        <time>2024-09-25T11:08:32Z</time>
      </trkpt>
      <trkpt lon="78.515893675996253" lat="17.629248249394792">
        <ele>511.489</ele>
        <time>2024-09-25T11:08:32Z</time>
      </trkpt>
      <trkpt lon="78.51589371173182" lat="17.629248296424588">
        <ele>511.489</ele>
        <time>2024-09-25T11:08:32Z</time>
      </trkpt>
      <trkpt lon="78.515893747467388" lat="17.629248343454382">
        <ele>511.489</ele>
        <time>2024-09-25T11:08:32Z</time>
      </trkpt>
      <trkpt lon="78.515893783202969" lat="17.629248390484175">
        <ele>511.489</ele>
        <time>2024-09-25T11:08:32Z</time>
      </trkpt>
      <trkpt lon="78.515893818938551" lat="17.629248437513969">
        <ele>511.489</ele>
        <time>2024-09-25T11:08:32Z</time>
      </trkpt>
      <trkpt lon="78.515893854674133" lat="17.629248484543762">
        <ele>511.489</ele>
        <time>2024-09-25T11:08:32Z</time>
      </trkpt>
      <trkpt lon="78.515893890409714" lat="17.629248531573555">
        <ele>511.489</ele>
        <time>2024-09-25T11:08:32Z</time>
      </trkpt>
      <trkpt lon="78.515893926145282" lat="17.629248578603349">
        <ele>511.489</ele>
        <time>2024-09-25T11:08:32Z</time>
      </trkpt>
      <trkpt lon="78.515893961880849" lat="17.629248625633142">
        <ele>511.489</ele>
        <time>2024-09-25T11:08:32Z</time>
      </trkpt>
      <trkpt lon="78.515893997616416" lat="17.629248672662939">
        <ele>511.489</ele>
        <time>2024-09-25T11:08:32Z</time>
      </trkpt>
      <trkpt lon="78.515894033351984" lat="17.629248719692736">
        <ele>511.489</ele>
        <time>2024-09-25T11:08:32Z</time>
      </trkpt>
      <trkpt lon="78.515894069087551" lat="17.629248766722533">
        <ele>511.489</ele>
        <time>2024-09-25T11:08:32Z</time>
      </trkpt>
      <trkpt lon="78.515894104823118" lat="17.62924881375233">
        <ele>511.489</ele>
        <time>2024-09-25T11:08:32Z</time>
      </trkpt>
      <trkpt lon="78.515894140558686" lat="17.629248860782127">
        <ele>511.489</ele>
        <time>2024-09-25T11:08:32Z</time>
      </trkpt>
      <trkpt lon="78.515894176294253" lat="17.629248907811924">
        <ele>511.489</ele>
        <time>2024-09-25T11:08:32Z</time>
      </trkpt>
      <trkpt lon="78.515894212029821" lat="17.629248954841721">
        <ele>511.489</ele>
        <time>2024-09-25T11:08:32Z</time>
      </trkpt>
      <trkpt lon="78.515894247765388" lat="17.629249001871514">
        <ele>511.489</ele>
        <time>2024-09-25T11:08:32Z</time>
      </trkpt>
      <trkpt lon="78.515894283500955" lat="17.629249048901308">
        <ele>511.489</ele>
        <time>2024-09-25T11:08:32Z</time>
      </trkpt>
      <trkpt lon="78.515894319236523" lat="17.629249095931101">
        <ele>511.489</ele>
        <time>2024-09-25T11:08:32Z</time>
      </trkpt>
      <trkpt lon="78.51589435497209" lat="17.629249142960894">
        <ele>511.489</ele>
        <time>2024-09-25T11:08:33Z</time>
      </trkpt>
      <trkpt lon="78.515894390707658" lat="17.629249189990688">
        <ele>511.489</ele>
        <time>2024-09-25T11:08:33Z</time>
      </trkpt>
      <trkpt lon="78.515894426443225" lat="17.629249237020481">
        <ele>511.489</ele>
        <time>2024-09-25T11:08:33Z</time>
      </trkpt>
      <trkpt lon="78.515894462178792" lat="17.629249284050275">
        <ele>511.489</ele>
        <time>2024-09-25T11:08:33Z</time>
      </trkpt>
      <trkpt lon="78.51589449791436" lat="17.629249331080072">
        <ele>511.489</ele>
        <time>2024-09-25T11:08:33Z</time>
      </trkpt>
      <trkpt lon="78.515894533649927" lat="17.629249378109868">
        <ele>511.489</ele>
        <time>2024-09-25T11:08:33Z</time>
      </trkpt>
      <trkpt lon="78.515894569385495" lat="17.629249425139665">
        <ele>511.489</ele>
        <time>2024-09-25T11:08:33Z</time>
      </trkpt>
      <trkpt lon="78.515894605121062" lat="17.629249472169462">
        <ele>511.489</ele>
        <time>2024-09-25T11:08:33Z</time>
      </trkpt>
      <trkpt lon="78.515894640856629" lat="17.629249519199259">
        <ele>511.489</ele>
        <time>2024-09-25T11:08:33Z</time>
      </trkpt>
      <trkpt lon="78.515894676592197" lat="17.629249566229056">
        <ele>511.489</ele>
        <time>2024-09-25T11:08:33Z</time>
      </trkpt>
      <trkpt lon="78.515894712327764" lat="17.629249613258853">
        <ele>511.489</ele>
        <time>2024-09-25T11:08:33Z</time>
      </trkpt>
      <trkpt lon="78.515894748063317" lat="17.629249660288647">
        <ele>511.489</ele>
        <time>2024-09-25T11:08:33Z</time>
      </trkpt>
      <trkpt lon="78.515894783798871" lat="17.62924970731844">
        <ele>511.489</ele>
        <time>2024-09-25T11:08:33Z</time>
      </trkpt>
      <trkpt lon="78.515894819534438" lat="17.629249754348233">
        <ele>511.489</ele>
        <time>2024-09-25T11:08:33Z</time>
      </trkpt>
      <trkpt lon="78.515894855270005" lat="17.629249801378027">
        <ele>511.489</ele>
        <time>2024-09-25T11:08:33Z</time>
      </trkpt>
      <trkpt lon="78.515894891005573" lat="17.62924984840782">
        <ele>511.489</ele>
        <time>2024-09-25T11:08:33Z</time>
      </trkpt>
      <trkpt lon="78.51589492674114" lat="17.629249895437614">
        <ele>511.489</ele>
        <time>2024-09-25T11:08:33Z</time>
      </trkpt>
      <trkpt lon="78.515894962476708" lat="17.629249942467407">
        <ele>511.489</ele>
        <time>2024-09-25T11:08:33Z</time>
      </trkpt>
      <trkpt lon="78.515894998212275" lat="17.629249989497204">
        <ele>511.489</ele>
        <time>2024-09-25T11:08:33Z</time>
      </trkpt>
      <trkpt lon="78.515895033947842" lat="17.629250036527001">
        <ele>511.489</ele>
        <time>2024-09-25T11:08:33Z</time>
      </trkpt>
      <trkpt lon="78.51589506968341" lat="17.629250083556798">
        <ele>511.489</ele>
        <time>2024-09-25T11:08:33Z</time>
      </trkpt>
      <trkpt lon="78.515895105418977" lat="17.629250130586595">
        <ele>511.489</ele>
        <time>2024-09-25T11:08:33Z</time>
      </trkpt>
      <trkpt lon="78.515895141154544" lat="17.629250177616392">
        <ele>511.489</ele>
        <time>2024-09-25T11:08:33Z</time>
      </trkpt>
      <trkpt lon="78.515895176890112" lat="17.629250224646189">
        <ele>511.489</ele>
        <time>2024-09-25T11:08:33Z</time>
      </trkpt>
      <trkpt lon="78.515895212625679" lat="17.629250271675986">
        <ele>511.489</ele>
        <time>2024-09-25T11:08:33Z</time>
      </trkpt>
      <trkpt lon="78.515895248361247" lat="17.629250318705779">
        <ele>511.489</ele>
        <time>2024-09-25T11:08:33Z</time>
      </trkpt>
      <trkpt lon="78.515895284096814" lat="17.629250365735572">
        <ele>511.489</ele>
        <time>2024-09-25T11:08:33Z</time>
      </trkpt>
      <trkpt lon="78.515895319832381" lat="17.629250412765366">
        <ele>511.489</ele>
        <time>2024-09-25T11:08:33Z</time>
      </trkpt>
      <trkpt lon="78.515895355567949" lat="17.629250459795159">
        <ele>511.489</ele>
        <time>2024-09-25T11:08:33Z</time>
      </trkpt>
      <trkpt lon="78.51589539130353" lat="17.629250506824953">
        <ele>511.489</ele>
        <time>2024-09-25T11:08:34Z</time>
      </trkpt>
      <trkpt lon="78.515895427039112" lat="17.629250553854746">
        <ele>511.489</ele>
        <time>2024-09-25T11:08:34Z</time>
      </trkpt>
      <trkpt lon="78.515895462774694" lat="17.629250600884539">
        <ele>511.489</ele>
        <time>2024-09-25T11:08:34Z</time>
      </trkpt>
      <trkpt lon="78.515895498510275" lat="17.629250647914336">
        <ele>511.489</ele>
        <time>2024-09-25T11:08:34Z</time>
      </trkpt>
      <trkpt lon="78.515895534245843" lat="17.629250694944133">
        <ele>511.489</ele>
        <time>2024-09-25T11:08:34Z</time>
      </trkpt>
      <trkpt lon="78.51589556998141" lat="17.62925074197393">
        <ele>511.489</ele>
        <time>2024-09-25T11:08:34Z</time>
      </trkpt>
      <trkpt lon="78.515895605716977" lat="17.629250789003727">
        <ele>511.489</ele>
        <time>2024-09-25T11:08:34Z</time>
      </trkpt>
      <trkpt lon="78.515895641452545" lat="17.629250836033524">
        <ele>511.489</ele>
        <time>2024-09-25T11:08:34Z</time>
      </trkpt>
      <trkpt lon="78.515895677188112" lat="17.629250883063321">
        <ele>511.489</ele>
        <time>2024-09-25T11:08:34Z</time>
      </trkpt>
      <trkpt lon="78.51589571292368" lat="17.629250930093118">
        <ele>511.489</ele>
        <time>2024-09-25T11:08:34Z</time>
      </trkpt>
      <trkpt lon="78.515895748659247" lat="17.629250977122911">
        <ele>511.489</ele>
        <time>2024-09-25T11:08:34Z</time>
      </trkpt>
      <trkpt lon="78.515895784394814" lat="17.629251024152705">
        <ele>511.489</ele>
        <time>2024-09-25T11:08:34Z</time>
      </trkpt>
      <trkpt lon="78.515895820130382" lat="17.629251071182498">
        <ele>511.489</ele>
        <time>2024-09-25T11:08:34Z</time>
      </trkpt>
      <trkpt lon="78.515895855865949" lat="17.629251118212292">
        <ele>511.489</ele>
        <time>2024-09-25T11:08:34Z</time>
      </trkpt>
      <trkpt lon="78.515895891601517" lat="17.629251165242085">
        <ele>511.489</ele>
        <time>2024-09-25T11:08:34Z</time>
      </trkpt>
      <trkpt lon="78.515895927337084" lat="17.629251212271878">
        <ele>511.489</ele>
        <time>2024-09-25T11:08:34Z</time>
      </trkpt>
      <trkpt lon="78.515895963072651" lat="17.629251259301672">
        <ele>511.489</ele>
        <time>2024-09-25T11:08:34Z</time>
      </trkpt>
      <trkpt lon="78.515895998808219" lat="17.629251306331469">
        <ele>511.489</ele>
        <time>2024-09-25T11:08:34Z</time>
      </trkpt>
      <trkpt lon="78.515896034543786" lat="17.629251353361266">
        <ele>511.489</ele>
        <time>2024-09-25T11:08:34Z</time>
      </trkpt>
      <trkpt lon="78.515896070279354" lat="17.629251400391063">
        <ele>511.489</ele>
        <time>2024-09-25T11:08:34Z</time>
      </trkpt>
      <trkpt lon="78.515896106014921" lat="17.629251447420859">
        <ele>511.489</ele>
        <time>2024-09-25T11:08:34Z</time>
      </trkpt>
      <trkpt lon="78.515896141750488" lat="17.629251494450656">
        <ele>511.489</ele>
        <time>2024-09-25T11:08:34Z</time>
      </trkpt>
      <trkpt lon="78.515896177486056" lat="17.629251541480453">
        <ele>511.489</ele>
        <time>2024-09-25T11:08:34Z</time>
      </trkpt>
      <trkpt lon="78.515896213221609" lat="17.62925158851025">
        <ele>511.489</ele>
        <time>2024-09-25T11:08:34Z</time>
      </trkpt>
      <trkpt lon="78.515896248957162" lat="17.629251635540044">
        <ele>511.489</ele>
        <time>2024-09-25T11:08:34Z</time>
      </trkpt>
      <trkpt lon="78.51589628469273" lat="17.629251682569837">
        <ele>511.489</ele>
        <time>2024-09-25T11:08:34Z</time>
      </trkpt>
      <trkpt lon="78.515896320428297" lat="17.62925172959963">
        <ele>511.489</ele>
        <time>2024-09-25T11:08:34Z</time>
      </trkpt>
      <trkpt lon="78.515896356163864" lat="17.629251776629424">
        <ele>511.489</ele>
        <time>2024-09-25T11:08:34Z</time>
      </trkpt>
      <trkpt lon="78.515896391899432" lat="17.629251823659217">
        <ele>511.489</ele>
        <time>2024-09-25T11:08:34Z</time>
      </trkpt>
      <trkpt lon="78.515896427634999" lat="17.629251870689011">
        <ele>511.489</ele>
        <time>2024-09-25T11:08:34Z</time>
      </trkpt>
      <trkpt lon="78.515896463370566" lat="17.629251917718804">
        <ele>511.489</ele>
        <time>2024-09-25T11:08:35Z</time>
      </trkpt>
      <trkpt lon="78.515896499106134" lat="17.629251964748601">
        <ele>511.489</ele>
        <time>2024-09-25T11:08:35Z</time>
      </trkpt>
      <trkpt lon="78.515896534841701" lat="17.629252011778398">
        <ele>511.489</ele>
        <time>2024-09-25T11:08:35Z</time>
      </trkpt>
      <trkpt lon="78.515896570577269" lat="17.629252058808195">
        <ele>511.489</ele>
        <time>2024-09-25T11:08:35Z</time>
      </trkpt>
      <trkpt lon="78.515896606312836" lat="17.629252105837992">
        <ele>511.489</ele>
        <time>2024-09-25T11:08:35Z</time>
      </trkpt>
      <trkpt lon="78.515896642048403" lat="17.629252152867789">
        <ele>511.489</ele>
        <time>2024-09-25T11:08:35Z</time>
      </trkpt>
      <trkpt lon="78.515896677783971" lat="17.629252199897586">
        <ele>511.489</ele>
        <time>2024-09-25T11:08:35Z</time>
      </trkpt>
      <trkpt lon="78.515896713519538" lat="17.629252246927383">
        <ele>511.489</ele>
        <time>2024-09-25T11:08:35Z</time>
      </trkpt>
      <trkpt lon="78.515896749255106" lat="17.629252293957176">
        <ele>511.489</ele>
        <time>2024-09-25T11:08:35Z</time>
      </trkpt>
      <trkpt lon="78.515896784990673" lat="17.629252340986969">
        <ele>511.489</ele>
        <time>2024-09-25T11:08:35Z</time>
      </trkpt>
      <trkpt lon="78.51589682072624" lat="17.629252388016763">
        <ele>511.489</ele>
        <time>2024-09-25T11:08:35Z</time>
      </trkpt>
      <trkpt lon="78.515896856461808" lat="17.629252435046556">
        <ele>511.489</ele>
        <time>2024-09-25T11:08:35Z</time>
      </trkpt>
      <trkpt lon="78.515896892197375" lat="17.62925248207635">
        <ele>511.489</ele>
        <time>2024-09-25T11:08:35Z</time>
      </trkpt>
      <trkpt lon="78.515896927932943" lat="17.629252529106143">
        <ele>511.489</ele>
        <time>2024-09-25T11:08:35Z</time>
      </trkpt>
      <trkpt lon="78.51589696366851" lat="17.629252576135936">
        <ele>511.489</ele>
        <time>2024-09-25T11:08:35Z</time>
      </trkpt>
      <trkpt lon="78.515896999404092" lat="17.629252623165733">
        <ele>511.489</ele>
        <time>2024-09-25T11:08:35Z</time>
      </trkpt>
      <trkpt lon="78.515897035139673" lat="17.62925267019553">
        <ele>511.489</ele>
        <time>2024-09-25T11:08:35Z</time>
      </trkpt>
      <trkpt lon="78.515897070875255" lat="17.629252717225327">
        <ele>511.489</ele>
        <time>2024-09-25T11:08:35Z</time>
      </trkpt>
      <trkpt lon="78.515897106610836" lat="17.629252764255124">
        <ele>511.489</ele>
        <time>2024-09-25T11:08:35Z</time>
      </trkpt>
      <trkpt lon="78.515897142346404" lat="17.629252811284921">
        <ele>511.489</ele>
        <time>2024-09-25T11:08:35Z</time>
      </trkpt>
      <trkpt lon="78.515897178081971" lat="17.629252858314718">
        <ele>511.489</ele>
        <time>2024-09-25T11:08:35Z</time>
      </trkpt>
      <trkpt lon="78.515897213817539" lat="17.629252905344515">
        <ele>511.489</ele>
        <time>2024-09-25T11:08:35Z</time>
      </trkpt>
      <trkpt lon="78.515897249553106" lat="17.629252952374308">
        <ele>511.489</ele>
        <time>2024-09-25T11:08:35Z</time>
      </trkpt>
      <trkpt lon="78.515897285288673" lat="17.629252999404102">
        <ele>511.489</ele>
        <time>2024-09-25T11:08:35Z</time>
      </trkpt>
      <trkpt lon="78.515897321024241" lat="17.629253046433895">
        <ele>511.489</ele>
        <time>2024-09-25T11:08:35Z</time>
      </trkpt>
      <trkpt lon="78.515897356759808" lat="17.629253093463689">
        <ele>511.489</ele>
        <time>2024-09-25T11:08:35Z</time>
      </trkpt>
      <trkpt lon="78.515897392495376" lat="17.629253140493482">
        <ele>511.489</ele>
        <time>2024-09-25T11:08:35Z</time>
      </trkpt>
      <trkpt lon="78.515897428230943" lat="17.629253187523275">
        <ele>511.489</ele>
        <time>2024-09-25T11:08:35Z</time>
      </trkpt>
      <trkpt lon="78.51589746396651" lat="17.629253234553069">
        <ele>511.489</ele>
        <time>2024-09-25T11:08:35Z</time>
      </trkpt>
      <trkpt lon="78.515897499702078" lat="17.629253281582866">
        <ele>511.489</ele>
        <time>2024-09-25T11:08:36Z</time>
      </trkpt>
      <trkpt lon="78.515897535437645" lat="17.629253328612663">
        <ele>511.489</ele>
        <time>2024-09-25T11:08:36Z</time>
      </trkpt>
      <trkpt lon="78.515897571173213" lat="17.62925337564246">
        <ele>511.489</ele>
        <time>2024-09-25T11:08:36Z</time>
      </trkpt>
      <trkpt lon="78.51589760690878" lat="17.629253422672257">
        <ele>511.489</ele>
        <time>2024-09-25T11:08:36Z</time>
      </trkpt>
      <trkpt lon="78.515897642644347" lat="17.629253469702054">
        <ele>511.489</ele>
        <time>2024-09-25T11:08:36Z</time>
      </trkpt>
      <trkpt lon="78.515897678379901" lat="17.62925351673185">
        <ele>511.489</ele>
        <time>2024-09-25T11:08:36Z</time>
      </trkpt>
      <trkpt lon="78.515897714115454" lat="17.629253563761647">
        <ele>511.489</ele>
        <time>2024-09-25T11:08:36Z</time>
      </trkpt>
      <trkpt lon="78.515897749851021" lat="17.629253610791441">
        <ele>511.489</ele>
        <time>2024-09-25T11:08:36Z</time>
      </trkpt>
      <trkpt lon="78.515897785586588" lat="17.629253657821234">
        <ele>511.489</ele>
        <time>2024-09-25T11:08:36Z</time>
      </trkpt>
      <trkpt lon="78.515897821322156" lat="17.629253704851028">
        <ele>511.489</ele>
        <time>2024-09-25T11:08:36Z</time>
      </trkpt>
      <trkpt lon="78.515897857057723" lat="17.629253751880821">
        <ele>511.489</ele>
        <time>2024-09-25T11:08:36Z</time>
      </trkpt>
      <trkpt lon="78.515897892793291" lat="17.629253798910614">
        <ele>511.489</ele>
        <time>2024-09-25T11:08:36Z</time>
      </trkpt>
      <trkpt lon="78.515897928528858" lat="17.629253845940408">
        <ele>511.489</ele>
        <time>2024-09-25T11:08:36Z</time>
      </trkpt>
      <trkpt lon="78.515897964264425" lat="17.629253892970201">
        <ele>511.489</ele>
        <time>2024-09-25T11:08:36Z</time>
      </trkpt>
      <trkpt lon="78.515897999999993" lat="17.629253939999998">
        <ele>511.489</ele>
        <time>2024-09-25T11:08:36Z</time>
      </trkpt>
      <trkpt lon="78.515898185368798" lat="17.629254326747791">
        <ele>511.78</ele>
        <time>2024-09-25T11:08:37Z</time>
      </trkpt>
      <trkpt lon="78.515898486797226" lat="17.62925498656989">
        <ele>512.026</ele>
        <time>2024-09-25T11:08:37Z</time>
      </trkpt>
      <trkpt lon="78.515898883743887" lat="17.629255871323636">
        <ele>512.228</ele>
        <time>2024-09-25T11:08:37Z</time>
      </trkpt>
      <trkpt lon="78.515899357407108" lat="17.629256936906692">
        <ele>512.391</ele>
        <time>2024-09-25T11:08:37Z</time>
      </trkpt>
      <trkpt lon="78.515899890949612" lat="17.629258143794011">
        <ele>512.519</ele>
        <time>2024-09-25T11:08:37Z</time>
      </trkpt>
      <trkpt lon="78.515900469599615" lat="17.629259457283627">
        <ele>512.615</ele>
        <time>2024-09-25T11:08:37Z</time>
      </trkpt>
      <trkpt lon="78.515901080655397" lat="17.62926084751447">
        <ele>512.685</ele>
        <time>2024-09-25T11:08:37Z</time>
      </trkpt>
      <trkpt lon="78.515901713416781" lat="17.629262289311647">
        <ele>512.732</ele>
        <time>2024-09-25T11:08:37Z</time>
      </trkpt>
      <trkpt lon="78.515902359064015" lat="17.629263761907094">
        <ele>512.76</ele>
        <time>2024-09-25T11:08:37Z</time>
      </trkpt>
      <trkpt lon="78.515903010501091" lat="17.629265248575919">
        <ele>512.773</ele>
        <time>2024-09-25T11:08:37Z</time>
      </trkpt>
      <trkpt lon="78.515903662177848" lat="17.629266736221886">
        <ele>512.775</ele>
        <time>2024-09-25T11:08:37Z</time>
      </trkpt>
      <trkpt lon="78.515904309902183" lat="17.629268214938911">
        <ele>512.767</ele>
        <time>2024-09-25T11:08:37Z</time>
      </trkpt>
      <trkpt lon="78.51590495065129" lat="17.629269677569727">
        <ele>512.753</ele>
        <time>2024-09-25T11:08:37Z</time>
      </trkpt>
      <trkpt lon="78.51590558238874" lat="17.629271119277735">
        <ele>512.735</ele>
        <time>2024-09-25T11:08:37Z</time>
      </trkpt>
      <trkpt lon="78.515906203892456" lat="17.629272537143663">
        <ele>512.713</ele>
        <time>2024-09-25T11:08:37Z</time>
      </trkpt>
      <trkpt lon="78.515906814596576" lat="17.629273929794927">
        <ele>512.691</ele>
        <time>2024-09-25T11:08:37Z</time>
      </trkpt>
      <trkpt lon="78.515907414449657" lat="17.629275297072525">
        <ele>512.668</ele>
        <time>2024-09-25T11:08:37Z</time>
      </trkpt>
      <trkpt lon="78.515908003789718" lat="17.629276639737814">
        <ele>512.646</ele>
        <time>2024-09-25T11:08:37Z</time>
      </trkpt>
      <trkpt lon="78.515908583236694" lat="17.629277959219475">
        <ele>512.625</ele>
        <time>2024-09-25T11:08:37Z</time>
      </trkpt>
      <trkpt lon="78.51590915360147" lat="17.62927925739961">
        <ele>512.606</ele>
        <time>2024-09-25T11:08:37Z</time>
      </trkpt>
      <trkpt lon="78.515909715810736" lat="17.62928053643676">
        <ele>512.589</ele>
        <time>2024-09-25T11:08:37Z</time>
      </trkpt>
      <trkpt lon="78.515910270846248" lat="17.629281798622884">
        <ele>512.574</ele>
        <time>2024-09-25T11:08:37Z</time>
      </trkpt>
      <trkpt lon="78.51591081969724" lat="17.62928304627092">
        <ele>512.561</ele>
        <time>2024-09-25T11:08:37Z</time>
      </trkpt>
      <trkpt lon="78.515911363324165" lat="17.629284281629285">
        <ele>512.55</ele>
        <time>2024-09-25T11:08:37Z</time>
      </trkpt>
      <trkpt lon="78.515911902632482" lat="17.629285506819681">
        <ele>512.541</ele>
        <time>2024-09-25T11:08:37Z</time>
      </trkpt>
      <trkpt lon="78.515912438454706" lat="17.6292867237946">
        <ele>512.533</ele>
        <time>2024-09-25T11:08:37Z</time>
      </trkpt>
      <trkpt lon="78.51591297153945" lat="17.629287934311179">
        <ele>512.528</ele>
        <time>2024-09-25T11:08:37Z</time>
      </trkpt>
      <trkpt lon="78.515913502546141" lat="17.629289139918274">
        <ele>512.523</ele>
        <time>2024-09-25T11:08:37Z</time>
      </trkpt>
      <trkpt lon="78.515914032043995" lat="17.629290341953929">
        <ele>512.52</ele>
        <time>2024-09-25T11:08:37Z</time>
      </trkpt>
      <trkpt lon="78.515914629151055" lat="17.629291930896859">
        <ele>512.994</ele>
        <time>2024-09-25T11:08:38Z</time>
      </trkpt>
      <trkpt lon="78.515915133837254" lat="17.629293506729471">
        <ele>513.394</ele>
        <time>2024-09-25T11:08:38Z</time>
      </trkpt>
      <trkpt lon="78.515915559813365" lat="17.629295066086627">
        <ele>513.725</ele>
        <time>2024-09-25T11:08:38Z</time>
      </trkpt>
      <trkpt lon="78.515915920148302" lat="17.629296607003798">
        <ele>513.991</ele>
        <time>2024-09-25T11:08:38Z</time>
      </trkpt>
      <trkpt lon="78.515916226973289" lat="17.629298128640499">
        <ele>514.2</ele>
        <time>2024-09-25T11:08:38Z</time>
      </trkpt>
      <trkpt lon="78.515916491291378" lat="17.629299631032755">
        <ele>514.358</ele>
        <time>2024-09-25T11:08:38Z</time>
      </trkpt>
      <trkpt lon="78.515916722873044" lat="17.629301114876053">
        <ele>514.473</ele>
        <time>2024-09-25T11:08:38Z</time>
      </trkpt>
      <trkpt lon="78.515916930220328" lat="17.629302581338866">
        <ele>514.551</ele>
        <time>2024-09-25T11:08:38Z</time>
      </trkpt>
      <trkpt lon="78.51591712058385" lat="17.629304031905598">
        <ele>514.598</ele>
        <time>2024-09-25T11:08:38Z</time>
      </trkpt>
      <trkpt lon="78.515917300019083" lat="17.629305468247274">
        <ele>514.62</ele>
        <time>2024-09-25T11:08:38Z</time>
      </trkpt>
      <trkpt lon="78.515917473470225" lat="17.629306892117569">
        <ele>514.623</ele>
        <time>2024-09-25T11:08:38Z</time>
      </trkpt>
      <trkpt lon="78.515917644872147" lat="17.629308305271543">
        <ele>514.612</ele>
        <time>2024-09-25T11:08:38Z</time>
      </trkpt>
      <trkpt lon="78.515917817262164" lat="17.629309709404357">
        <ele>514.59</ele>
        <time>2024-09-25T11:08:38Z</time>
      </trkpt>
      <trkpt lon="78.515917992895567" lat="17.629311106107146">
        <ele>514.56</ele>
        <time>2024-09-25T11:08:38Z</time>
      </trkpt>
      <trkpt lon="78.515918173359736" lat="17.629312496837368">
        <ele>514.526</ele>
        <time>2024-09-25T11:08:38Z</time>
      </trkpt>
      <trkpt lon="78.515918359683553" lat="17.629313882901098">
        <ele>514.49</ele>
        <time>2024-09-25T11:08:38Z</time>
      </trkpt>
      <trkpt lon="78.515918552439061" lat="17.629315265444944">
        <ele>514.454</ele>
        <time>2024-09-25T11:08:38Z</time>
      </trkpt>
      <trkpt lon="78.515918751834121" lat="17.629316645455472">
        <ele>514.418</ele>
        <time>2024-09-25T11:08:38Z</time>
      </trkpt>
      <trkpt lon="78.515918957794867" lat="17.629318023764355">
        <ele>514.384</ele>
        <time>2024-09-25T11:08:38Z</time>
      </trkpt>
      <trkpt lon="78.515919170037535" lat="17.629319401057618">
        <ele>514.354</ele>
        <time>2024-09-25T11:08:38Z</time>
      </trkpt>
      <trkpt lon="78.515919388130115" lat="17.629320777887667">
        <ele>514.326</ele>
        <time>2024-09-25T11:08:38Z</time>
      </trkpt>
      <trkpt lon="78.515919611543765" lat="17.629322154686999">
        <ele>514.301</ele>
        <time>2024-09-25T11:08:38Z</time>
      </trkpt>
      <trkpt lon="78.51591983969503" lat="17.62932353178271">
        <ele>514.28</ele>
        <time>2024-09-25T11:08:38Z</time>
      </trkpt>
      <trkpt lon="78.515920071979579" lat="17.629324909411071">
        <ele>514.262</ele>
        <time>2024-09-25T11:08:38Z</time>
      </trkpt>
      <trkpt lon="78.515920307798297" lat="17.62932628773169">
        <ele>514.247</ele>
        <time>2024-09-25T11:08:38Z</time>
      </trkpt>
      <trkpt lon="78.515920546576837" lat="17.629327666840844">
        <ele>514.235</ele>
        <time>2024-09-25T11:08:38Z</time>
      </trkpt>
      <trkpt lon="78.515920787779436" lat="17.62932904678372">
        <ele>514.225</ele>
        <time>2024-09-25T11:08:38Z</time>
      </trkpt>
      <trkpt lon="78.515921030918065" lat="17.629330427565424">
        <ele>514.218</ele>
        <time>2024-09-25T11:08:38Z</time>
      </trkpt>
      <trkpt lon="78.515921275557602" lat="17.629331809160679">
        <ele>514.213</ele>
        <time>2024-09-25T11:08:38Z</time>
      </trkpt>
      <trkpt lon="78.515921524033416" lat="17.629333352860126">
        <ele>514.624</ele>
        <time>2024-09-25T11:08:39Z</time>
      </trkpt>
      <trkpt lon="78.515921706956377" lat="17.629334643879492">
        <ele>514.971</ele>
        <time>2024-09-25T11:08:39Z</time>
      </trkpt>
      <trkpt lon="78.515921834447582" lat="17.629335719534868">
        <ele>515.258</ele>
        <time>2024-09-25T11:08:39Z</time>
      </trkpt>
      <trkpt lon="78.515921916061529" lat="17.629336615435093">
        <ele>515.49</ele>
        <time>2024-09-25T11:08:39Z</time>
      </trkpt>
      <trkpt lon="78.515921960593815" lat="17.629337364665382">
        <ele>515.672</ele>
        <time>2024-09-25T11:08:39Z</time>
      </trkpt>
      <trkpt lon="78.515921975962527" lat="17.62933799725959">
        <ele>515.81</ele>
        <time>2024-09-25T11:08:39Z</time>
      </trkpt>
      <trkpt lon="78.515921969149247" lat="17.629338539908357">
        <ele>515.91</ele>
        <time>2024-09-25T11:08:39Z</time>
      </trkpt>
      <trkpt lon="78.515921946187177" lat="17.62933901585523">
        <ele>515.978</ele>
        <time>2024-09-25T11:08:39Z</time>
      </trkpt>
      <trkpt lon="78.515921912185064" lat="17.62933944493804">
        <ele>516.02</ele>
        <time>2024-09-25T11:08:39Z</time>
      </trkpt>
      <trkpt lon="78.515921871377358" lat="17.629339843738393">
        <ele>516.04</ele>
        <time>2024-09-25T11:08:39Z</time>
      </trkpt>
      <trkpt lon="78.515921827192429" lat="17.62934022580745">
        <ele>516.044</ele>
        <time>2024-09-25T11:08:39Z</time>
      </trkpt>
      <trkpt lon="78.515921782331901" lat="17.629340601941347">
        <ele>516.034</ele>
        <time>2024-09-25T11:08:39Z</time>
      </trkpt>
      <trkpt lon="78.515921738855781" lat="17.6293409804845">
        <ele>516.016</ele>
        <time>2024-09-25T11:08:39Z</time>
      </trkpt>
      <trkpt lon="78.515921698268826" lat="17.629341367643391">
        <ele>515.991</ele>
        <time>2024-09-25T11:08:39Z</time>
      </trkpt>
      <trkpt lon="78.515921661605049" lat="17.629341767797342">
        <ele>515.962</ele>
        <time>2024-09-25T11:08:39Z</time>
      </trkpt>
      <trkpt lon="78.515921629507645" lat="17.629342183796251">
        <ele>515.931</ele>
        <time>2024-09-25T11:08:39Z</time>
      </trkpt>
      <trkpt lon="78.515921602302839" lat="17.629342617238134">
        <ele>515.899</ele>
        <time>2024-09-25T11:08:39Z</time>
      </trkpt>
      <trkpt lon="78.515921580066674" lat="17.629343068721823">
        <ele>515.868</ele>
        <time>2024-09-25T11:08:39Z</time>
      </trkpt>
      <trkpt lon="78.5159215626839" lat="17.629343538072163">
        <ele>515.84</ele>
        <time>2024-09-25T11:08:39Z</time>
      </trkpt>
      <trkpt lon="78.51592154989909" lat="17.629344024536614">
        <ele>515.813</ele>
        <time>2024-09-25T11:08:39Z</time>
      </trkpt>
      <trkpt lon="78.515921541360029" lat="17.629344526953545">
        <ele>515.789</ele>
        <time>2024-09-25T11:08:39Z</time>
      </trkpt>
      <trkpt lon="78.515921536653721" lat="17.629345043893299">
        <ele>515.767</ele>
        <time>2024-09-25T11:08:39Z</time>
      </trkpt>
      <trkpt lon="78.515921535335778" lat="17.629345573773801">
        <ele>515.749</ele>
        <time>2024-09-25T11:08:39Z</time>
      </trkpt>
      <trkpt lon="78.515921536953513" lat="17.629346114953041">
        <ele>515.733</ele>
        <time>2024-09-25T11:08:39Z</time>
      </trkpt>
      <trkpt lon="78.515921541063747" lat="17.62934666580086">
        <ele>515.72</ele>
        <time>2024-09-25T11:08:39Z</time>
      </trkpt>
      <trkpt lon="78.515921547245824" lat="17.629347224752628">
        <ele>515.71</ele>
        <time>2024-09-25T11:08:39Z</time>
      </trkpt>
      <trkpt lon="78.515921555110708" lat="17.62934779034747">
        <ele>515.702</ele>
        <time>2024-09-25T11:08:39Z</time>
      </trkpt>
      <trkpt lon="78.515921564306709" lat="17.629348361253442">
        <ele>515.695</ele>
        <time>2024-09-25T11:08:39Z</time>
      </trkpt>
      <trkpt lon="78.515921574522451" lat="17.629348936282053">
        <ele>515.691</ele>
        <time>2024-09-25T11:08:39Z</time>
      </trkpt>
      <trkpt lon="78.51592164354328" lat="17.629349721989271">
        <ele>515.777</ele>
        <time>2024-09-25T11:08:40Z</time>
      </trkpt>
      <trkpt lon="78.515921759292823" lat="17.629350523495283">
        <ele>515.851</ele>
        <time>2024-09-25T11:08:40Z</time>
      </trkpt>
      <trkpt lon="78.515921913424648" lat="17.629351334739901">
        <ele>515.912</ele>
        <time>2024-09-25T11:08:40Z</time>
      </trkpt>
      <trkpt lon="78.515922098314121" lat="17.629352150816644">
        <ele>515.962</ele>
        <time>2024-09-25T11:08:40Z</time>
      </trkpt>
      <trkpt lon="78.515922307145487" lat="17.62935296785912">
        <ele>516.002</ele>
        <time>2024-09-25T11:08:40Z</time>
      </trkpt>
      <trkpt lon="78.515922533949464" lat="17.629353782919239">
        <ele>516.033</ele>
        <time>2024-09-25T11:08:40Z</time>
      </trkpt>
      <trkpt lon="78.515922773602114" lat="17.629354593843537">
        <ele>516.055</ele>
        <time>2024-09-25T11:08:40Z</time>
      </trkpt>
      <trkpt lon="78.51592302179472" lat="17.629355399152324">
        <ele>516.071</ele>
        <time>2024-09-25T11:08:40Z</time>
      </trkpt>
      <trkpt lon="78.515923274982725" lat="17.629356197925215">
        <ele>516.081</ele>
        <time>2024-09-25T11:08:40Z</time>
      </trkpt>
      <trkpt lon="78.515923530320705" lat="17.629356989695392">
        <ele>516.086</ele>
        <time>2024-09-25T11:08:40Z</time>
      </trkpt>
      <trkpt lon="78.515923785589067" lat="17.629357774354155">
        <ele>516.088</ele>
        <time>2024-09-25T11:08:40Z</time>
      </trkpt>
      <trkpt lon="78.515924039117053" lat="17.629358552066542">
        <ele>516.087</ele>
        <time>2024-09-25T11:08:40Z</time>
      </trkpt>
      <trkpt lon="78.515924289705652" lat="17.629359323198194">
        <ele>516.084</ele>
        <time>2024-09-25T11:08:40Z</time>
      </trkpt>
      <trkpt lon="78.515924536553158" lat="17.629360088253289">
        <ele>516.079</ele>
        <time>2024-09-25T11:08:40Z</time>
      </trkpt>
      <trkpt lon="78.515924779185113" lat="17.629360847822916">
        <ele>516.074</ele>
        <time>2024-09-25T11:08:40Z</time>
      </trkpt>
      <trkpt lon="78.515925017390288" lat="17.629361602543145">
        <ele>516.067</ele>
        <time>2024-09-25T11:08:40Z</time>
      </trkpt>
      <trkpt lon="78.515925251163182" lat="17.629362353061875">
        <ele>516.061</ele>
        <time>2024-09-25T11:08:40Z</time>
      </trkpt>
      <trkpt lon="78.515925480653578" lat="17.629363100013411">
        <ele>516.055</ele>
        <time>2024-09-25T11:08:40Z</time>
      </trkpt>
      <trkpt lon="78.515925706123113" lat="17.629363843999798">
        <ele>516.049</ele>
        <time>2024-09-25T11:08:40Z</time>
      </trkpt>
      <trkpt lon="78.515925927908654" lat="17.629364585577832">
        <ele>516.044</ele>
        <time>2024-09-25T11:08:40Z</time>
      </trkpt>
      <trkpt lon="78.51592614639209" lat="17.629365325250884">
        <ele>516.039</ele>
        <time>2024-09-25T11:08:40Z</time>
      </trkpt>
      <trkpt lon="78.515926361975957" lat="17.629366063464555">
        <ele>516.034</ele>
        <time>2024-09-25T11:08:40Z</time>
      </trkpt>
      <trkpt lon="78.515926575064398" lat="17.629366800605432">
        <ele>516.03</ele>
        <time>2024-09-25T11:08:40Z</time>
      </trkpt>
      <trkpt lon="78.515926786048723" lat="17.629367537002182">
        <ele>516.027</ele>
        <time>2024-09-25T11:08:40Z</time>
      </trkpt>
      <trkpt lon="78.515926995296994" lat="17.629368272928406">
        <ele>516.024</ele>
        <time>2024-09-25T11:08:40Z</time>
      </trkpt>
      <trkpt lon="78.51592720314693" lat="17.629369008606691">
        <ele>516.022</ele>
        <time>2024-09-25T11:08:40Z</time>
      </trkpt>
      <trkpt lon="78.515927409901707" lat="17.629369744213435">
        <ele>516.02</ele>
        <time>2024-09-25T11:08:40Z</time>
      </trkpt>
      <trkpt lon="78.515927615827849" lat="17.629370479884091">
        <ele>516.019</ele>
        <time>2024-09-25T11:08:40Z</time>
      </trkpt>
      <trkpt lon="78.515927821155088" lat="17.62937121571856">
        <ele>516.018</ele>
        <time>2024-09-25T11:08:40Z</time>
      </trkpt>
      <trkpt lon="78.515928083570998" lat="17.629372149362233">
        <ele>516.084</ele>
        <time>2024-09-25T11:08:41Z</time>
      </trkpt>
      <trkpt lon="78.515928336137549" lat="17.629373042188821">
        <ele>516.139</ele>
        <time>2024-09-25T11:08:41Z</time>
      </trkpt>
      <trkpt lon="78.515928579615974" lat="17.629373897665939">
        <ele>516.185</ele>
        <time>2024-09-25T11:08:41Z</time>
      </trkpt>
      <trkpt lon="78.515928814895744" lat="17.629374719704646">
        <ele>516.222</ele>
        <time>2024-09-25T11:08:41Z</time>
      </trkpt>
      <trkpt lon="78.515929042932072" lat="17.62937551241443">
        <ele>516.251</ele>
        <time>2024-09-25T11:08:41Z</time>
      </trkpt>
      <trkpt lon="78.515929264696581" lat="17.629376279911664">
        <ele>516.274</ele>
        <time>2024-09-25T11:08:41Z</time>
      </trkpt>
      <trkpt lon="78.515929481139509" lat="17.629377026174932">
        <ele>516.29</ele>
        <time>2024-09-25T11:08:41Z</time>
      </trkpt>
      <trkpt lon="78.515929693161937" lat="17.629377754940794">
        <ele>516.301</ele>
        <time>2024-09-25T11:08:41Z</time>
      </trkpt>
      <trkpt lon="78.515929901596706" lat="17.62937846963359">
        <ele>516.307</ele>
        <time>2024-09-25T11:08:41Z</time>
      </trkpt>
      <trkpt lon="78.515930107196155" lat="17.629379173323382">
        <ele>516.311</ele>
        <time>2024-09-25T11:08:41Z</time>
      </trkpt>
      <trkpt lon="78.515930310625905" lat="17.629379868706565">
        <ele>516.311</ele>
        <time>2024-09-25T11:08:41Z</time>
      </trkpt>
      <trkpt lon="78.515930512463058" lat="17.629380558104195">
        <ele>516.31</ele>
        <time>2024-09-25T11:08:41Z</time>
      </trkpt>
      <trkpt lon="78.515930713197946" lat="17.629381243473798">
        <ele>516.307</ele>
        <time>2024-09-25T11:08:41Z</time>
      </trkpt>
      <trkpt lon="78.515930913238492" lat="17.629381926430874">
        <ele>516.303</ele>
        <time>2024-09-25T11:08:41Z</time>
      </trkpt>
      <trkpt lon="78.515931112916292" lat="17.629382608276995">
        <ele>516.298</ele>
        <time>2024-09-25T11:08:41Z</time>
      </trkpt>
      <trkpt lon="78.51593131249389" lat="17.629383290031889">
        <ele>516.293</ele>
        <time>2024-09-25T11:08:41Z</time>
      </trkpt>
      <trkpt lon="78.515931512172713" lat="17.629383972467416">
        <ele>516.288</ele>
        <time>2024-09-25T11:08:41Z</time>
      </trkpt>
      <trkpt lon="78.515931712101064" lat="17.629384656141774">
        <ele>516.283</ele>
        <time>2024-09-25T11:08:41Z</time>
      </trkpt>
      <trkpt lon="78.515931912382058" lat="17.62938534143272">
        <ele>516.279</ele>
        <time>2024-09-25T11:08:41Z</time>
      </trkpt>
      <trkpt lon="78.515932113081192" lat="17.62938602856887">
        <ele>516.274</ele>
        <time>2024-09-25T11:08:41Z</time>
      </trkpt>
      <trkpt lon="78.515932314233311" lat="17.629386717658473">
        <ele>516.27</ele>
        <time>2024-09-25T11:08:41Z</time>
      </trkpt>
      <trkpt lon="78.515932515848959" lat="17.629387408715292">
        <ele>516.267</ele>
        <time>2024-09-25T11:08:41Z</time>
      </trkpt>
      <trkpt lon="78.515932717919981" lat="17.629388101681378">
        <ele>516.264</ele>
        <time>2024-09-25T11:08:41Z</time>
      </trkpt>
      <trkpt lon="78.515932920424419" lat="17.629388796446747">
        <ele>516.262</ele>
        <time>2024-09-25T11:08:41Z</time>
      </trkpt>
      <trkpt lon="78.515933123330655" lat="17.629389492866">
        <ele>516.26</ele>
        <time>2024-09-25T11:08:41Z</time>
      </trkpt>
      <trkpt lon="78.515933326600916" lat="17.629390190772096">
        <ele>516.258</ele>
        <time>2024-09-25T11:08:41Z</time>
      </trkpt>
      <trkpt lon="78.51593353019409" lat="17.62939088998748">
        <ele>516.257</ele>
        <time>2024-09-25T11:08:41Z</time>
      </trkpt>
      <trkpt lon="78.515933734067943" lat="17.629391590332837">
        <ele>516.256</ele>
        <time>2024-09-25T11:08:41Z</time>
      </trkpt>
      <trkpt lon="78.515933938180922" lat="17.629392291633753">
        <ele>516.255</ele>
        <time>2024-09-25T11:08:41Z</time>
      </trkpt>
      <trkpt lon="78.515934231355672" lat="17.629393284470989">
        <ele>516.064</ele>
        <time>2024-09-25T11:08:42Z</time>
      </trkpt>
      <trkpt lon="78.515934542085091" lat="17.629394325387402">
        <ele>515.904</ele>
        <time>2024-09-25T11:08:42Z</time>
      </trkpt>
      <trkpt lon="78.515934866242134" lat="17.629395402341174">
        <ele>515.771</ele>
        <time>2024-09-25T11:08:42Z</time>
      </trkpt>
      <trkpt lon="78.515935200249416" lat="17.629396505003456">
        <ele>515.665</ele>
        <time>2024-09-25T11:08:42Z</time>
      </trkpt>
      <trkpt lon="78.515935541068131" lat="17.629397624695368">
        <ele>515.582</ele>
        <time>2024-09-25T11:08:42Z</time>
      </trkpt>
      <trkpt lon="78.515935886171093" lat="17.629398754283212">
        <ele>515.519</ele>
        <time>2024-09-25T11:08:42Z</time>
      </trkpt>
      <trkpt lon="78.515936233504434" lat="17.629399888045825">
        <ele>515.474</ele>
        <time>2024-09-25T11:08:42Z</time>
      </trkpt>
      <trkpt lon="78.515936581442475" lat="17.629401021525513">
        <ele>515.443</ele>
        <time>2024-09-25T11:08:42Z</time>
      </trkpt>
      <trkpt lon="78.515936928738739" lat="17.629402151371824">
        <ele>515.425</ele>
        <time>2024-09-25T11:08:42Z</time>
      </trkpt>
      <trkpt lon="78.515937274475903" lat="17.629403275185318">
        <ele>515.417</ele>
        <time>2024-09-25T11:08:42Z</time>
      </trkpt>
      <trkpt lon="78.515937618016622" lat="17.629404391366773">
        <ele>515.416</ele>
        <time>2024-09-25T11:08:42Z</time>
      </trkpt>
      <trkpt lon="78.515937958956755" lat="17.629405498975729">
        <ele>515.421</ele>
        <time>2024-09-25T11:08:42Z</time>
      </trkpt>
      <trkpt lon="78.515938297081973" lat="17.629406597600962">
        <ele>515.431</ele>
        <time>2024-09-25T11:08:42Z</time>
      </trkpt>
      <trkpt lon="78.515938632328428" lat="17.629407687244484">
        <ele>515.443</ele>
        <time>2024-09-25T11:08:42Z</time>
      </trkpt>
      <trkpt lon="78.515938964748003" lat="17.62940876821974">
        <ele>515.457</ele>
        <time>2024-09-25T11:08:42Z</time>
      </trkpt>
      <trkpt lon="78.51593929447796" lat="17.629409841064042">
        <ele>515.472</ele>
        <time>2024-09-25T11:08:42Z</time>
      </trkpt>
      <trkpt lon="78.515939621715205" lat="17.629410906464809">
        <ele>515.486</ele>
        <time>2024-09-25T11:08:42Z</time>
      </trkpt>
      <trkpt lon="78.515939946694715" lat="17.629411965198731">
        <ele>515.501</ele>
        <time>2024-09-25T11:08:42Z</time>
      </trkpt>
      <trkpt lon="78.515940269672029" lat="17.629413018082833">
        <ele>515.514</ele>
        <time>2024-09-25T11:08:42Z</time>
      </trkpt>
      <trkpt lon="78.515940590909324" lat="17.62941406593615">
        <ele>515.527</ele>
        <time>2024-09-25T11:08:42Z</time>
      </trkpt>
      <trkpt lon="78.515940910664654" lat="17.629415109550795">
        <ele>515.538</ele>
        <time>2024-09-25T11:08:42Z</time>
      </trkpt>
      <trkpt lon="78.515941229184023" lat="17.629416149671087">
        <ele>515.548</ele>
        <time>2024-09-25T11:08:42Z</time>
      </trkpt>
      <trkpt lon="78.515941546695771" lat="17.62941718697946">
        <ele>515.557</ele>
        <time>2024-09-25T11:08:42Z</time>
      </trkpt>
      <trkpt lon="78.515941863407051" lat="17.629418222087999">
        <ele>515.564</ele>
        <time>2024-09-25T11:08:42Z</time>
      </trkpt>
      <trkpt lon="78.515942179501792" lat="17.629419255534494">
        <ele>515.57</ele>
        <time>2024-09-25T11:08:42Z</time>
      </trkpt>
      <trkpt lon="78.515942495140067" lat="17.629420287782068">
        <ele>515.575</ele>
        <time>2024-09-25T11:08:42Z</time>
      </trkpt>
      <trkpt lon="78.51594281045837" lat="17.629421319221471">
        <ele>515.578</ele>
        <time>2024-09-25T11:08:42Z</time>
      </trkpt>
      <trkpt lon="78.515943125570743" lat="17.629422350175314">
        <ele>515.581</ele>
        <time>2024-09-25T11:08:42Z</time>
      </trkpt>
      <trkpt lon="78.515943440570268" lat="17.629423380903653">
        <ele>515.583</ele>
        <time>2024-09-25T11:08:42Z</time>
      </trkpt>
      <trkpt lon="78.515943834186842" lat="17.629424748519217">
        <ele>515.577</ele>
        <time>2024-09-25T11:08:43Z</time>
      </trkpt>
      <trkpt lon="78.515944205244026" lat="17.629426109440455">
        <ele>515.572</ele>
        <time>2024-09-25T11:08:43Z</time>
      </trkpt>
      <trkpt lon="78.515944556133249" lat="17.629427459703624">
        <ele>515.567</ele>
        <time>2024-09-25T11:08:43Z</time>
      </trkpt>
      <trkpt lon="78.515944889357655" lat="17.629428796690924">
        <ele>515.562</ele>
        <time>2024-09-25T11:08:43Z</time>
      </trkpt>
      <trkpt lon="78.515945207417602" lat="17.629430118890081">
        <ele>515.559</ele>
        <time>2024-09-25T11:08:43Z</time>
      </trkpt>
      <trkpt lon="78.515945512724571" lat="17.629431425674692">
        <ele>515.556</ele>
        <time>2024-09-25T11:08:43Z</time>
      </trkpt>
      <trkpt lon="78.515945807539254" lat="17.629432717107903">
        <ele>515.554</ele>
        <time>2024-09-25T11:08:43Z</time>
      </trkpt>
      <trkpt lon="78.515946093930182" lat="17.629433993770455">
        <ele>515.552</ele>
        <time>2024-09-25T11:08:43Z</time>
      </trkpt>
      <trkpt lon="78.515946373749202" lat="17.629435256613082">
        <ele>515.55</ele>
        <time>2024-09-25T11:08:43Z</time>
      </trkpt>
      <trkpt lon="78.515946648620513" lat="17.62943650683242">
        <ele>515.549</ele>
        <time>2024-09-25T11:08:43Z</time>
      </trkpt>
      <trkpt lon="78.515946919940276" lat="17.629437745768904">
        <ele>515.549</ele>
        <time>2024-09-25T11:08:43Z</time>
      </trkpt>
      <trkpt lon="78.515947188884283" lat="17.629438974824819">
        <ele>515.548</ele>
        <time>2024-09-25T11:08:43Z</time>
      </trkpt>
      <trkpt lon="78.515947456421372" lat="17.62944019540037">
        <ele>515.548</ele>
        <time>2024-09-25T11:08:43Z</time>
      </trkpt>
      <trkpt lon="78.515947723330711" lat="17.629441408845569">
        <ele>515.548</ele>
        <time>2024-09-25T11:08:43Z</time>
      </trkpt>
      <trkpt lon="78.515947990221491" lat="17.629442616425706">
        <ele>515.548</ele>
        <time>2024-09-25T11:08:43Z</time>
      </trkpt>
      <trkpt lon="78.515948257553546" lat="17.62944381929827">
        <ele>515.548</ele>
        <time>2024-09-25T11:08:43Z</time>
      </trkpt>
      <trkpt lon="78.515948525658175" lat="17.629445018499272">
        <ele>515.549</ele>
        <time>2024-09-25T11:08:43Z</time>
      </trkpt>
      <trkpt lon="78.515948794758316" lat="17.629446214937193">
        <ele>515.549</ele>
        <time>2024-09-25T11:08:43Z</time>
      </trkpt>
      <trkpt lon="78.51594906498741" lat="17.62944740939281">
        <ele>515.549</ele>
        <time>2024-09-25T11:08:43Z</time>
      </trkpt>
      <trkpt lon="78.515949336406877" lat="17.629448602523539">
        <ele>515.55</ele>
        <time>2024-09-25T11:08:43Z</time>
      </trkpt>
      <trkpt lon="78.515949609021646" lat="17.629449794870954">
        <ele>515.55</ele>
        <time>2024-09-25T11:08:43Z</time>
      </trkpt>
      <trkpt lon="78.515949882793947" lat="17.629450986870509">
        <ele>515.55</ele>
        <time>2024-09-25T11:08:43Z</time>
      </trkpt>
      <trkpt lon="78.515950157655098" lat="17.62945217886254">
        <ele>515.551</ele>
        <time>2024-09-25T11:08:43Z</time>
      </trkpt>
      <trkpt lon="78.515950433515499" lat="17.62945337110385">
        <ele>515.551</ele>
        <time>2024-09-25T11:08:43Z</time>
      </trkpt>
      <trkpt lon="78.515950710272918" lat="17.629454563779372">
        <ele>515.551</ele>
        <time>2024-09-25T11:08:43Z</time>
      </trkpt>
      <trkpt lon="78.515950987819124" lat="17.629455757013435">
        <ele>515.551</ele>
        <time>2024-09-25T11:08:43Z</time>
      </trkpt>
      <trkpt lon="78.51595126604515" lat="17.62945695088035">
        <ele>515.551</ele>
        <time>2024-09-25T11:08:43Z</time>
      </trkpt>
      <trkpt lon="78.515951544845251" lat="17.629458145414162">
        <ele>515.551</ele>
        <time>2024-09-25T11:08:43Z</time>
      </trkpt>
      <trkpt lon="78.515951824119767" lat="17.629459340617377">
        <ele>515.552</ele>
        <time>2024-09-25T11:08:43Z</time>
      </trkpt>
      <trkpt lon="78.515952185710191" lat="17.629460786668876">
        <ele>515.431</ele>
        <time>2024-09-25T11:08:44Z</time>
      </trkpt>
      <trkpt lon="78.515952537991609" lat="17.629462107268555">
        <ele>515.33</ele>
        <time>2024-09-25T11:08:44Z</time>
      </trkpt>
      <trkpt lon="78.515952881150639" lat="17.629463318369549">
        <ele>515.247</ele>
        <time>2024-09-25T11:08:44Z</time>
      </trkpt>
      <trkpt lon="78.515953215644828" lat="17.629464435800358">
        <ele>515.18</ele>
        <time>2024-09-25T11:08:44Z</time>
      </trkpt>
      <trkpt lon="78.515953542119945" lat="17.629465474745825">
        <ele>515.127</ele>
        <time>2024-09-25T11:08:44Z</time>
      </trkpt>
      <trkpt lon="78.515953861341288" lat="17.629466449378242">
        <ele>515.087</ele>
        <time>2024-09-25T11:08:44Z</time>
      </trkpt>
      <trkpt lon="78.515954174137704" lat="17.629467372614428">
        <ele>515.058</ele>
        <time>2024-09-25T11:08:44Z</time>
      </trkpt>
      <trkpt lon="78.51595448135707" lat="17.629468255976231">
        <ele>515.039</ele>
        <time>2024-09-25T11:08:44Z</time>
      </trkpt>
      <trkpt lon="78.515954783832257" lat="17.629469109533797">
        <ele>515.027</ele>
        <time>2024-09-25T11:08:44Z</time>
      </trkpt>
      <trkpt lon="78.515955082355831" lat="17.629469941913221">
        <ele>515.022</ele>
        <time>2024-09-25T11:08:44Z</time>
      </trkpt>
      <trkpt lon="78.515955377662479" lat="17.6294707603525">
        <ele>515.021</ele>
        <time>2024-09-25T11:08:44Z</time>
      </trkpt>
      <trkpt lon="78.515955670417753" lat="17.629471570791861">
        <ele>515.025</ele>
        <time>2024-09-25T11:08:44Z</time>
      </trkpt>
      <trkpt lon="78.515955961211944" lat="17.629472377986971">
        <ele>515.03</ele>
        <time>2024-09-25T11:08:44Z</time>
      </trkpt>
      <trkpt lon="78.515956250558148" lat="17.629473185635408">
        <ele>515.038</ele>
        <time>2024-09-25T11:08:44Z</time>
      </trkpt>
      <trkpt lon="78.515956538893434" lat="17.629473996508704">
        <ele>515.047</ele>
        <time>2024-09-25T11:08:44Z</time>
      </trkpt>
      <trkpt lon="78.515956826582354" lat="17.629474812584096">
        <ele>515.056</ele>
        <time>2024-09-25T11:08:44Z</time>
      </trkpt>
      <trkpt lon="78.515957113922184" lat="17.629475635171399">
        <ele>515.065</ele>
        <time>2024-09-25T11:08:44Z</time>
      </trkpt>
      <trkpt lon="78.515957401149137" lat="17.629476465031804">
        <ele>515.074</ele>
        <time>2024-09-25T11:08:44Z</time>
      </trkpt>
      <trkpt lon="78.51595768844517" lat="17.629477302486531">
        <ele>515.083</ele>
        <time>2024-09-25T11:08:44Z</time>
      </trkpt>
      <trkpt lon="78.515957975945071" lat="17.629478147513975">
        <ele>515.091</ele>
        <time>2024-09-25T11:08:44Z</time>
      </trkpt>
      <trkpt lon="78.515958263743372" lat="17.629478999834856">
        <ele>515.098</ele>
        <time>2024-09-25T11:08:44Z</time>
      </trkpt>
      <trkpt lon="78.515958551900951" lat="17.629479858985352">
        <ele>515.104</ele>
        <time>2024-09-25T11:08:44Z</time>
      </trkpt>
      <trkpt lon="78.515958840451219" lat="17.629480724378645">
        <ele>515.109</ele>
        <time>2024-09-25T11:08:44Z</time>
      </trkpt>
      <trkpt lon="78.515959129405729" lat="17.629481595355578">
        <ele>515.114</ele>
        <time>2024-09-25T11:08:44Z</time>
      </trkpt>
      <trkpt lon="78.515959418759167" lat="17.629482471225352">
        <ele>515.118</ele>
        <time>2024-09-25T11:08:44Z</time>
      </trkpt>
      <trkpt lon="78.515959708493654" lat="17.629483351297303">
        <ele>515.121</ele>
        <time>2024-09-25T11:08:44Z</time>
      </trkpt>
      <trkpt lon="78.515959998582474" lat="17.629484234904869">
        <ele>515.123</ele>
        <time>2024-09-25T11:08:44Z</time>
      </trkpt>
      <trkpt lon="78.515960288993199" lat="17.629485121422785">
        <ele>515.125</ele>
        <time>2024-09-25T11:08:44Z</time>
      </trkpt>
      <trkpt lon="78.515960579690216" lat="17.629486010278658">
        <ele>515.126</ele>
        <time>2024-09-25T11:08:44Z</time>
      </trkpt>
      <trkpt lon="78.515961072519815" lat="17.62948715528011">
        <ele>515.373</ele>
        <time>2024-09-25T11:08:45Z</time>
      </trkpt>
      <trkpt lon="78.515961653759447" lat="17.629488265776388">
        <ele>515.58</ele>
        <time>2024-09-25T11:08:45Z</time>
      </trkpt>
      <trkpt lon="78.515962306416625" lat="17.629489343137021">
        <ele>515.751</ele>
        <time>2024-09-25T11:08:45Z</time>
      </trkpt>
      <trkpt lon="78.515963015201905" lat="17.629490389545147">
        <ele>515.888</ele>
        <time>2024-09-25T11:08:45Z</time>
      </trkpt>
      <trkpt lon="78.51596376664061" lat="17.629491407721407">
        <ele>515.995</ele>
        <time>2024-09-25T11:08:45Z</time>
      </trkpt>
      <trkpt lon="78.515964549093979" lat="17.629492400697117">
        <ele>516.076</ele>
        <time>2024-09-25T11:08:45Z</time>
      </trkpt>
      <trkpt lon="78.515965352711433" lat="17.629493371632527">
        <ele>516.134</ele>
        <time>2024-09-25T11:08:45Z</time>
      </trkpt>
      <trkpt lon="78.515966169332444" lat="17.629494323675321">
        <ele>516.173</ele>
        <time>2024-09-25T11:08:45Z</time>
      </trkpt>
      <trkpt lon="78.515966992353881" lat="17.629495259854391">
        <ele>516.197</ele>
        <time>2024-09-25T11:08:45Z</time>
      </trkpt>
      <trkpt lon="78.515967816575937" lat="17.629496183003901">
        <ele>516.207</ele>
        <time>2024-09-25T11:08:45Z</time>
      </trkpt>
      <trkpt lon="78.51596863803718" lat="17.629497095712782">
        <ele>516.208</ele>
        <time>2024-09-25T11:08:45Z</time>
      </trkpt>
      <trkpt lon="78.515969453847333" lat="17.629498000295211">
        <ele>516.201</ele>
        <time>2024-09-25T11:08:45Z</time>
      </trkpt>
      <trkpt lon="78.515970262023913" lat="17.629498898777875">
        <ele>516.189</ele>
        <time>2024-09-25T11:08:45Z</time>
      </trkpt>
      <trkpt lon="78.515971061337595" lat="17.629499792900351">
        <ele>516.173</ele>
        <time>2024-09-25T11:08:45Z</time>
      </trkpt>
      <trkpt lon="78.515971851169496" lat="17.629500684125397">
        <ele>516.155</ele>
        <time>2024-09-25T11:08:45Z</time>
      </trkpt>
      <trkpt lon="78.515972631382368" lat="17.629501573656281">
        <ele>516.136</ele>
        <time>2024-09-25T11:08:45Z</time>
      </trkpt>
      <trkpt lon="78.515973402206839" lat="17.629502462458884">
        <ele>516.117</ele>
        <time>2024-09-25T11:08:45Z</time>
      </trkpt>
      <trkpt lon="78.51597416414279" lat="17.629503351286591">
        <ele>516.098</ele>
        <time>2024-09-25T11:08:45Z</time>
      </trkpt>
      <trkpt lon="78.515974917875752" lat="17.629504240706446">
        <ele>516.08</ele>
        <time>2024-09-25T11:08:45Z</time>
      </trkpt>
      <trkpt lon="78.515975664207346" lat="17.629505131125335">
        <ele>516.064</ele>
        <time>2024-09-25T11:08:45Z</time>
      </trkpt>
      <trkpt lon="78.515976403998891" lat="17.629506022815274">
        <ele>516.05</ele>
        <time>2024-09-25T11:08:45Z</time>
      </trkpt>
      <trkpt lon="78.515977138126814" lat="17.629506915937167">
        <ele>516.037</ele>
        <time>2024-09-25T11:08:45Z</time>
      </trkpt>
      <trkpt lon="78.515977867448441" lat="17.629507810562586">
        <ele>516.026</ele>
        <time>2024-09-25T11:08:45Z</time>
      </trkpt>
      <trkpt lon="78.515978592776989" lat="17.629508706693262">
        <ele>516.017</ele>
        <time>2024-09-25T11:08:45Z</time>
      </trkpt>
      <trkpt lon="78.515979314864111" lat="17.629509604278223">
        <ele>516.009</ele>
        <time>2024-09-25T11:08:45Z</time>
      </trkpt>
      <trkpt lon="78.515980034389003" lat="17.629510503228534">
        <ele>516.003</ele>
        <time>2024-09-25T11:08:45Z</time>
      </trkpt>
      <trkpt lon="78.515980751952668" lat="17.629511403429749">
        <ele>515.998</ele>
        <time>2024-09-25T11:08:45Z</time>
      </trkpt>
      <trkpt lon="78.51598146807622" lat="17.629512304752147">
        <ele>515.994</ele>
        <time>2024-09-25T11:08:45Z</time>
      </trkpt>
      <trkpt lon="78.51598218320251" lat="17.629513207059009">
        <ele>515.991</ele>
        <time>2024-09-25T11:08:45Z</time>
      </trkpt>
      <trkpt lon="78.515983034317586" lat="17.629514319680872">
        <ele>516.217</ele>
        <time>2024-09-25T11:08:46Z</time>
      </trkpt>
      <trkpt lon="78.515983798350049" lat="17.629515355218494">
        <ele>516.408</ele>
        <time>2024-09-25T11:08:46Z</time>
      </trkpt>
      <trkpt lon="78.515984487094087" lat="17.629516322581885">
        <ele>516.566</ele>
        <time>2024-09-25T11:08:46Z</time>
      </trkpt>
      <trkpt lon="78.515985112055006" lat="17.629517230855168">
        <ele>516.693</ele>
        <time>2024-09-25T11:08:46Z</time>
      </trkpt>
      <trkpt lon="78.515985684120821" lat="17.629518088938234">
        <ele>516.793</ele>
        <time>2024-09-25T11:08:46Z</time>
      </trkpt>
      <trkpt lon="78.515986213336063" lat="17.629518905283025">
        <ele>516.869</ele>
        <time>2024-09-25T11:08:46Z</time>
      </trkpt>
      <trkpt lon="78.515986708760636" lat="17.629519687710271">
        <ele>516.924</ele>
        <time>2024-09-25T11:08:46Z</time>
      </trkpt>
      <trkpt lon="78.515987178397552" lat="17.629520443293284">
        <ele>516.961</ele>
        <time>2024-09-25T11:08:46Z</time>
      </trkpt>
      <trkpt lon="78.515987629175171" lat="17.629521178296315">
        <ele>516.984</ele>
        <time>2024-09-25T11:08:46Z</time>
      </trkpt>
      <trkpt lon="78.51598806697119" lat="17.629521898156167">
        <ele>516.996</ele>
        <time>2024-09-25T11:08:46Z</time>
      </trkpt>
      <trkpt lon="78.515988496667106" lat="17.629522607497105">
        <ele>516.997</ele>
        <time>2024-09-25T11:08:46Z</time>
      </trkpt>
      <trkpt lon="78.515988922224011" lat="17.629523310170278">
        <ele>516.992</ele>
        <time>2024-09-25T11:08:46Z</time>
      </trkpt>
      <trkpt lon="78.515989346771576" lat="17.629524009310305">
        <ele>516.982</ele>
        <time>2024-09-25T11:08:46Z</time>
      </trkpt>
      <trkpt lon="78.515989772704046" lat="17.629524707402823">
        <ele>516.968</ele>
        <time>2024-09-25T11:08:46Z</time>
      </trkpt>
      <trkpt lon="78.515990201778123" lat="17.629525406357907">
        <ele>516.952</ele>
        <time>2024-09-25T11:08:46Z</time>
      </trkpt>
      <trkpt lon="78.515990635208979" lat="17.629526107585459">
        <ele>516.935</ele>
        <time>2024-09-25T11:08:46Z</time>
      </trkpt>
      <trkpt lon="78.515991073761271" lat="17.629526812069361">
        <ele>516.918</ele>
        <time>2024-09-25T11:08:46Z</time>
      </trkpt>
      <trkpt lon="78.515991517833584" lat="17.629527520438184">
        <ele>516.901</ele>
        <time>2024-09-25T11:08:46Z</time>
      </trkpt>
      <trkpt lon="78.515991967534646" lat="17.62952823303084">
        <ele>516.885</ele>
        <time>2024-09-25T11:08:46Z</time>
      </trkpt>
      <trkpt lon="78.515992422750969" lat="17.629528949956114">
        <ele>516.87</ele>
        <time>2024-09-25T11:08:46Z</time>
      </trkpt>
      <trkpt lon="78.515992883205428" lat="17.629529671145548">
        <ele>516.857</ele>
        <time>2024-09-25T11:08:46Z</time>
      </trkpt>
      <trkpt lon="78.515993348507237" lat="17.629530396399439">
        <ele>516.845</ele>
        <time>2024-09-25T11:08:46Z</time>
      </trkpt>
      <trkpt lon="78.515993818193436" lat="17.629531125426094">
        <ele>516.835</ele>
        <time>2024-09-25T11:08:46Z</time>
      </trkpt>
      <trkpt lon="78.515994291762809" lat="17.629531857874611">
        <ele>516.827</ele>
        <time>2024-09-25T11:08:46Z</time>
      </trkpt>
      <trkpt lon="78.515994768702654" lat="17.629532593361638">
        <ele>516.82</ele>
        <time>2024-09-25T11:08:46Z</time>
      </trkpt>
      <trkpt lon="78.515995248509441" lat="17.629533331492663">
        <ele>516.814</ele>
        <time>2024-09-25T11:08:46Z</time>
      </trkpt>
      <trkpt lon="78.515995730704034" lat="17.629534071878489">
        <ele>516.809</ele>
        <time>2024-09-25T11:08:46Z</time>
      </trkpt>
      <trkpt lon="78.515996214842346" lat="17.629534814147412">
        <ele>516.806</ele>
        <time>2024-09-25T11:08:46Z</time>
      </trkpt>
      <trkpt lon="78.515996700522081" lat="17.62953555795384">
        <ele>516.803</ele>
        <time>2024-09-25T11:08:46Z</time>
      </trkpt>
      <trkpt lon="78.515997280181523" lat="17.629536498874185">
        <ele>516.944</ele>
        <time>2024-09-25T11:08:47Z</time>
      </trkpt>
      <trkpt lon="78.515997802297804" lat="17.629537396351008">
        <ele>517.063</ele>
        <time>2024-09-25T11:08:47Z</time>
      </trkpt>
      <trkpt lon="78.515998274376713" lat="17.62953825412864">
        <ele>517.161</ele>
        <time>2024-09-25T11:08:47Z</time>
      </trkpt>
      <trkpt lon="78.515998703813992" lat="17.629539076408332">
        <ele>517.241</ele>
        <time>2024-09-25T11:08:47Z</time>
      </trkpt>
      <trkpt lon="78.515999097665571" lat="17.629539867589859">
        <ele>517.304</ele>
        <time>2024-09-25T11:08:47Z</time>
      </trkpt>
      <trkpt lon="78.515999462486164" lat="17.629540632069848">
        <ele>517.351</ele>
        <time>2024-09-25T11:08:47Z</time>
      </trkpt>
      <trkpt lon="78.515999804225018" lat="17.629541374089861">
        <ele>517.386</ele>
        <time>2024-09-25T11:08:47Z</time>
      </trkpt>
      <trkpt lon="78.516000128168415" lat="17.629542097627272">
        <ele>517.409</ele>
        <time>2024-09-25T11:08:47Z</time>
      </trkpt>
      <trkpt lon="78.516000438919235" lat="17.629542806322171">
        <ele>517.424</ele>
        <time>2024-09-25T11:08:47Z</time>
      </trkpt>
      <trkpt lon="78.51600074040536" lat="17.629543503433972">
        <ele>517.431</ele>
        <time>2024-09-25T11:08:47Z</time>
      </trkpt>
      <trkpt lon="78.516001035909454" lat="17.62954419182195">
        <ele>517.432</ele>
        <time>2024-09-25T11:08:47Z</time>
      </trkpt>
      <trkpt lon="78.516001328113788" lat="17.629544873944436">
        <ele>517.429</ele>
        <time>2024-09-25T11:08:47Z</time>
      </trkpt>
      <trkpt lon="78.516001619154892" lat="17.629545551872159">
        <ele>517.423</ele>
        <time>2024-09-25T11:08:47Z</time>
      </trkpt>
      <trkpt lon="78.516001910683698" lat="17.629546227311742">
        <ele>517.415</ele>
        <time>2024-09-25T11:08:47Z</time>
      </trkpt>
      <trkpt lon="78.516002203927812" lat="17.629546901636072">
        <ele>517.405</ele>
        <time>2024-09-25T11:08:47Z</time>
      </trkpt>
      <trkpt lon="78.516002499753014" lat="17.629547575918785">
        <ele>517.394</ele>
        <time>2024-09-25T11:08:47Z</time>
      </trkpt>
      <trkpt lon="78.516002798722312" lat="17.629548250970654">
        <ele>517.384</ele>
        <time>2024-09-25T11:08:47Z</time>
      </trkpt>
      <trkpt lon="78.516003101150915" lat="17.629548927376138">
        <ele>517.373</ele>
        <time>2024-09-25T11:08:47Z</time>
      </trkpt>
      <trkpt lon="78.516003407156319" lat="17.629549605528801">
        <ele>517.363</ele>
        <time>2024-09-25T11:08:47Z</time>
      </trkpt>
      <trkpt lon="78.516003716702826" lat="17.629550285664642">
        <ele>517.354</ele>
        <time>2024-09-25T11:08:47Z</time>
      </trkpt>
      <trkpt lon="78.516004029640612" lat="17.629550967892687">
        <ele>517.346</ele>
        <time>2024-09-25T11:08:47Z</time>
      </trkpt>
      <trkpt lon="78.516004345738907" lat="17.629551652222457">
        <ele>517.339</ele>
        <time>2024-09-25T11:08:47Z</time>
      </trkpt>
      <trkpt lon="78.516004664714004" lat="17.629552338588141">
        <ele>517.332</ele>
        <time>2024-09-25T11:08:47Z</time>
      </trkpt>
      <trkpt lon="78.516004986252156" lat="17.629553026869424">
        <ele>517.327</ele>
        <time>2024-09-25T11:08:47Z</time>
      </trkpt>
      <trkpt lon="78.516005310027822" lat="17.629553716909086">
        <ele>517.323</ele>
        <time>2024-09-25T11:08:47Z</time>
      </trkpt>
      <trkpt lon="78.516005635717903" lat="17.629554408527543">
        <ele>517.319</ele>
        <time>2024-09-25T11:08:47Z</time>
      </trkpt>
      <trkpt lon="78.516005963012361" lat="17.629555101534592">
        <ele>517.316</ele>
        <time>2024-09-25T11:08:47Z</time>
      </trkpt>
      <trkpt lon="78.516006291621736" lat="17.629555795738632">
        <ele>517.314</ele>
        <time>2024-09-25T11:08:47Z</time>
      </trkpt>
      <trkpt lon="78.516006621282216" lat="17.629556490953657">
        <ele>517.312</ele>
        <time>2024-09-25T11:08:47Z</time>
      </trkpt>
      <trkpt lon="78.516007047175336" lat="17.629557402839517">
        <ele>517.145</ele>
        <time>2024-09-25T11:08:48Z</time>
      </trkpt>
      <trkpt lon="78.516007461292631" lat="17.629558301397179">
        <ele>517.004</ele>
        <time>2024-09-25T11:08:48Z</time>
      </trkpt>
      <trkpt lon="78.516007863947507" lat="17.629559185385268">
        <ele>516.888</ele>
        <time>2024-09-25T11:08:48Z</time>
      </trkpt>
      <trkpt lon="78.516008255774338" lat="17.629560054374014">
        <ele>516.795</ele>
        <time>2024-09-25T11:08:48Z</time>
      </trkpt>
      <trkpt lon="78.516008637627337" lat="17.629560908560357">
        <ele>516.722</ele>
        <time>2024-09-25T11:08:48Z</time>
      </trkpt>
      <trkpt lon="78.51600901049683" lat="17.629561748606829">
        <ele>516.667</ele>
        <time>2024-09-25T11:08:48Z</time>
      </trkpt>
      <trkpt lon="78.5160093754413" lat="17.629562575503915">
        <ele>516.628</ele>
        <time>2024-09-25T11:08:48Z</time>
      </trkpt>
      <trkpt lon="78.516009733533892" lat="17.629563390454933">
        <ele>516.601</ele>
        <time>2024-09-25T11:08:48Z</time>
      </trkpt>
      <trkpt lon="78.51601008582152" lat="17.629564194781828">
        <ele>516.586</ele>
        <time>2024-09-25T11:08:48Z</time>
      </trkpt>
      <trkpt lon="78.51601043329498" lat="17.629564989850074">
        <ele>516.579</ele>
        <time>2024-09-25T11:08:48Z</time>
      </trkpt>
      <trkpt lon="78.516010776868299" lat="17.62956577701053">
        <ele>516.578</ele>
        <time>2024-09-25T11:08:48Z</time>
      </trkpt>
      <trkpt lon="78.516011117365949" lat="17.629566557556121">
        <ele>516.583</ele>
        <time>2024-09-25T11:08:48Z</time>
      </trkpt>
      <trkpt lon="78.516011455516278" lat="17.629567332691206">
        <ele>516.591</ele>
        <time>2024-09-25T11:08:48Z</time>
      </trkpt>
      <trkpt lon="78.516011791949808" lat="17.629568103511545">
        <ele>516.602</ele>
        <time>2024-09-25T11:08:48Z</time>
      </trkpt>
      <trkpt lon="78.516012127201478" lat="17.629568870992991">
        <ele>516.615</ele>
        <time>2024-09-25T11:08:48Z</time>
      </trkpt>
      <trkpt lon="78.516012461715562" lat="17.629569635987117">
        <ele>516.628</ele>
        <time>2024-09-25T11:08:48Z</time>
      </trkpt>
      <trkpt lon="78.516012795852603" lat="17.629570399222228">
        <ele>516.641</ele>
        <time>2024-09-25T11:08:48Z</time>
      </trkpt>
      <trkpt lon="78.516013129897459" lat="17.629571161308423">
        <ele>516.654</ele>
        <time>2024-09-25T11:08:48Z</time>
      </trkpt>
      <trkpt lon="78.516013464068052" lat="17.629571922745502">
        <ele>516.666</ele>
        <time>2024-09-25T11:08:48Z</time>
      </trkpt>
      <trkpt lon="78.516013798524298" lat="17.629572683932768">
        <ele>516.677</ele>
        <time>2024-09-25T11:08:48Z</time>
      </trkpt>
      <trkpt lon="78.516014133376842" lat="17.629573445179897">
        <ele>516.687</ele>
        <time>2024-09-25T11:08:48Z</time>
      </trkpt>
      <trkpt lon="78.516014468695303" lat="17.629574206718246">
        <ele>516.695</ele>
        <time>2024-09-25T11:08:48Z</time>
      </trkpt>
      <trkpt lon="78.51601480451599" lat="17.629574968712109">
        <ele>516.703</ele>
        <time>2024-09-25T11:08:48Z</time>
      </trkpt>
      <trkpt lon="78.516015140848836" lat="17.629575731269508">
        <ele>516.709</ele>
        <time>2024-09-25T11:08:48Z</time>
      </trkpt>
      <trkpt lon="78.516015477683524" lat="17.629576494452301">
        <ele>516.715</ele>
        <time>2024-09-25T11:08:48Z</time>
      </trkpt>
      <trkpt lon="78.516015814994859" lat="17.629577258285401">
        <ele>516.719</ele>
        <time>2024-09-25T11:08:48Z</time>
      </trkpt>
      <trkpt lon="78.516016152747298" lat="17.629578022764996">
        <ele>516.722</ele>
        <time>2024-09-25T11:08:48Z</time>
      </trkpt>
      <trkpt lon="78.51601649089875" lat="17.629578787865771">
        <ele>516.725</ele>
        <time>2024-09-25T11:08:48Z</time>
      </trkpt>
      <trkpt lon="78.516016829403583" lat="17.629579553547064">
        <ele>516.726</ele>
        <time>2024-09-25T11:08:48Z</time>
      </trkpt>
      <trkpt lon="78.516017262882983" lat="17.629580562841831">
        <ele>516.47</ele>
        <time>2024-09-25T11:08:49Z</time>
      </trkpt>
      <trkpt lon="78.516017680984405" lat="17.629581561624889">
        <ele>516.253</ele>
        <time>2024-09-25T11:08:49Z</time>
      </trkpt>
      <trkpt lon="78.5160180846771" lat="17.629582547849481">
        <ele>516.075</ele>
        <time>2024-09-25T11:08:49Z</time>
      </trkpt>
      <trkpt lon="78.516018475192112" lat="17.629583520408865">
        <ele>515.931</ele>
        <time>2024-09-25T11:08:49Z</time>
      </trkpt>
      <trkpt lon="78.516018853915057" lat="17.62958447894335">
        <ele>515.817</ele>
        <time>2024-09-25T11:08:49Z</time>
      </trkpt>
      <trkpt lon="78.516019222299946" lat="17.629585423668864">
        <ele>515.732</ele>
        <time>2024-09-25T11:08:49Z</time>
      </trkpt>
      <trkpt lon="78.516019581801899" lat="17.629586355227747">
        <ele>515.67</ele>
        <time>2024-09-25T11:08:49Z</time>
      </trkpt>
      <trkpt lon="78.516019933826271" lat="17.629587274561469">
        <ele>515.628</ele>
        <time>2024-09-25T11:08:49Z</time>
      </trkpt>
      <trkpt lon="78.516020279692157" lat="17.629588182804298">
        <ele>515.602</ele>
        <time>2024-09-25T11:08:49Z</time>
      </trkpt>
      <trkpt lon="78.516020620607762" lat="17.629589081196428">
        <ele>515.59</ele>
        <time>2024-09-25T11:08:49Z</time>
      </trkpt>
      <trkpt lon="78.516020957655797" lat="17.629589971014848">
        <ele>515.588</ele>
        <time>2024-09-25T11:08:49Z</time>
      </trkpt>
      <trkpt lon="78.516021291786714" lat="17.629590853519932">
        <ele>515.594</ele>
        <time>2024-09-25T11:08:49Z</time>
      </trkpt>
      <trkpt lon="78.516021623818318" lat="17.629591729915752">
        <ele>515.606</ele>
        <time>2024-09-25T11:08:49Z</time>
      </trkpt>
      <trkpt lon="78.516021954439964" lat="17.629592601322127">
        <ele>515.622</ele>
        <time>2024-09-25T11:08:49Z</time>
      </trkpt>
      <trkpt lon="78.516022284220284" lat="17.629593468756465">
        <ele>515.641</ele>
        <time>2024-09-25T11:08:49Z</time>
      </trkpt>
      <trkpt lon="78.516022613617125" lat="17.629594333123652">
        <ele>515.66</ele>
        <time>2024-09-25T11:08:49Z</time>
      </trkpt>
      <trkpt lon="78.516022942988954" lat="17.629595195212328">
        <ele>515.68</ele>
        <time>2024-09-25T11:08:49Z</time>
      </trkpt>
      <trkpt lon="78.51602327260683" lat="17.629596055696116">
        <ele>515.699</ele>
        <time>2024-09-25T11:08:49Z</time>
      </trkpt>
      <trkpt lon="78.516023602666564" lat="17.629596915138528">
        <ele>515.717</ele>
        <time>2024-09-25T11:08:49Z</time>
      </trkpt>
      <trkpt lon="78.516023933300417" lat="17.629597774000523">
        <ele>515.734</ele>
        <time>2024-09-25T11:08:49Z</time>
      </trkpt>
      <trkpt lon="78.516024264588125" lat="17.629598632649731">
        <ele>515.749</ele>
        <time>2024-09-25T11:08:49Z</time>
      </trkpt>
      <trkpt lon="78.516024596567107" lat="17.629599491370673">
        <ele>515.762</ele>
        <time>2024-09-25T11:08:49Z</time>
      </trkpt>
      <trkpt lon="78.516024929241539" lat="17.62960035037533">
        <ele>515.774</ele>
        <time>2024-09-25T11:08:49Z</time>
      </trkpt>
      <trkpt lon="78.51602526259046" lat="17.629601209813647">
        <ele>515.784</ele>
        <time>2024-09-25T11:08:49Z</time>
      </trkpt>
      <trkpt lon="78.516025596574607" lat="17.629602069783587">
        <ele>515.792</ele>
        <time>2024-09-25T11:08:49Z</time>
      </trkpt>
      <trkpt lon="78.516025931142337" lat="17.629602930340543">
        <ele>515.798</ele>
        <time>2024-09-25T11:08:49Z</time>
      </trkpt>
      <trkpt lon="78.516026266234462" lat="17.629603791505875">
        <ele>515.803</ele>
        <time>2024-09-25T11:08:49Z</time>
      </trkpt>
      <trkpt lon="78.516026601788127" lat="17.629604653274569">
        <ele>515.807</ele>
        <time>2024-09-25T11:08:49Z</time>
      </trkpt>
      <trkpt lon="78.516026937739937" lat="17.629605515621876">
        <ele>515.81</ele>
        <time>2024-09-25T11:08:49Z</time>
      </trkpt>
      <trkpt lon="78.516027364856981" lat="17.62960663451484">
        <ele>515.918</ele>
        <time>2024-09-25T11:08:50Z</time>
      </trkpt>
      <trkpt lon="78.516027774127323" lat="17.629607726555989">
        <ele>516.007</ele>
        <time>2024-09-25T11:08:50Z</time>
      </trkpt>
      <trkpt lon="78.516028166960027" lat="17.62960879208001">
        <ele>516.081</ele>
        <time>2024-09-25T11:08:50Z</time>
      </trkpt>
      <trkpt lon="78.516028544988146" lat="17.629609832260115">
        <ele>516.14</ele>
        <time>2024-09-25T11:08:50Z</time>
      </trkpt>
      <trkpt lon="78.516028909956844" lat="17.629610848860864">
        <ele>516.186</ele>
        <time>2024-09-25T11:08:50Z</time>
      </trkpt>
      <trkpt lon="78.516029263635204" lat="17.629611844031292">
        <ele>516.22</ele>
        <time>2024-09-25T11:08:50Z</time>
      </trkpt>
      <trkpt lon="78.516029607748862" lat="17.629612820135627">
        <ele>516.245</ele>
        <time>2024-09-25T11:08:50Z</time>
      </trkpt>
      <trkpt lon="78.516029943930818" lat="17.629613779618211">
        <ele>516.261</ele>
        <time>2024-09-25T11:08:50Z</time>
      </trkpt>
      <trkpt lon="78.51603027368752" lat="17.629614724898886">
        <ele>516.27</ele>
        <time>2024-09-25T11:08:50Z</time>
      </trkpt>
      <trkpt lon="78.516030598377682" lat="17.629615658294984">
        <ele>516.274</ele>
        <time>2024-09-25T11:08:50Z</time>
      </trkpt>
      <trkpt lon="78.516030919201498" lat="17.629616581966079">
        <ele>516.274</ele>
        <time>2024-09-25T11:08:50Z</time>
      </trkpt>
      <trkpt lon="78.51603123719795" lat="17.629617497877842">
        <ele>516.27</ele>
        <time>2024-09-25T11:08:50Z</time>
      </trkpt>
      <trkpt lon="78.516031553248439" lat="17.629618407781496">
        <ele>516.265</ele>
        <time>2024-09-25T11:08:50Z</time>
      </trkpt>
      <trkpt lon="78.516031868084937" lat="17.62961931320579">
        <ele>516.257</ele>
        <time>2024-09-25T11:08:50Z</time>
      </trkpt>
      <trkpt lon="78.516032182301416" lat="17.62962021545869">
        <ele>516.249</ele>
        <time>2024-09-25T11:08:50Z</time>
      </trkpt>
      <trkpt lon="78.516032496367117" lat="17.629621115636301">
        <ele>516.24</ele>
        <time>2024-09-25T11:08:50Z</time>
      </trkpt>
      <trkpt lon="78.516032810641036" lat="17.629622014636951">
        <ele>516.232</ele>
        <time>2024-09-25T11:08:50Z</time>
      </trkpt>
      <trkpt lon="78.516033125386528" lat="17.629622913178693">
        <ele>516.223</ele>
        <time>2024-09-25T11:08:50Z</time>
      </trkpt>
      <trkpt lon="78.516033440785733" lat="17.629623811818742">
        <ele>516.216</ele>
        <time>2024-09-25T11:08:50Z</time>
      </trkpt>
      <trkpt lon="78.516033756953291" lat="17.629624710973722">
        <ele>516.209</ele>
        <time>2024-09-25T11:08:50Z</time>
      </trkpt>
      <trkpt lon="78.516034073948887" lat="17.629625610939808">
        <ele>516.202</ele>
        <time>2024-09-25T11:08:50Z</time>
      </trkpt>
      <trkpt lon="78.516034391788764" lat="17.62962651191209">
        <ele>516.197</ele>
        <time>2024-09-25T11:08:50Z</time>
      </trkpt>
      <trkpt lon="78.51603471045587" lat="17.629627414002691">
        <ele>516.192</ele>
        <time>2024-09-25T11:08:50Z</time>
      </trkpt>
      <trkpt lon="78.516035029908622" lat="17.629628317257282">
        <ele>516.188</ele>
        <time>2024-09-25T11:08:50Z</time>
      </trkpt>
      <trkpt lon="78.516035350088359" lat="17.62962922166988">
        <ele>516.184</ele>
        <time>2024-09-25T11:08:50Z</time>
      </trkpt>
      <trkpt lon="78.516035670925632" lat="17.629630127195753">
        <ele>516.182</ele>
        <time>2024-09-25T11:08:50Z</time>
      </trkpt>
      <trkpt lon="78.516035992345252" lat="17.629631033762514">
        <ele>516.18</ele>
        <time>2024-09-25T11:08:50Z</time>
      </trkpt>
      <trkpt lon="78.516036314270309" lat="17.629631941279449">
        <ele>516.178</ele>
        <time>2024-09-25T11:08:50Z</time>
      </trkpt>
      <trkpt lon="78.516036636625287" lat="17.629632849645184">
        <ele>516.177</ele>
        <time>2024-09-25T11:08:50Z</time>
      </trkpt>
      <trkpt lon="78.516037068707277" lat="17.629634046315552">
        <ele>515.903</ele>
        <time>2024-09-25T11:08:51Z</time>
      </trkpt>
      <trkpt lon="78.516037502418953" lat="17.629635229950114">
        <ele>515.673</ele>
        <time>2024-09-25T11:08:51Z</time>
      </trkpt>
      <trkpt lon="78.51603793581792" lat="17.62963639820256">
        <ele>515.483</ele>
        <time>2024-09-25T11:08:51Z</time>
      </trkpt>
      <trkpt lon="78.51603836745079" lat="17.629637549838403">
        <ele>515.33</ele>
        <time>2024-09-25T11:08:51Z</time>
      </trkpt>
      <trkpt lon="78.516038796283325" lat="17.629638684504148">
        <ele>515.211</ele>
        <time>2024-09-25T11:08:51Z</time>
      </trkpt>
      <trkpt lon="78.51603922163315" lat="17.629639802522679">
        <ele>515.121</ele>
        <time>2024-09-25T11:08:51Z</time>
      </trkpt>
      <trkpt lon="78.516039643106836" lat="17.629640904715533">
        <ele>515.056</ele>
        <time>2024-09-25T11:08:51Z</time>
      </trkpt>
      <trkpt lon="78.516040060542437" lat="17.629641992251607">
        <ele>515.013</ele>
        <time>2024-09-25T11:08:51Z</time>
      </trkpt>
      <trkpt lon="78.5160404739581" lat="17.629643066521048">
        <ele>514.987</ele>
        <time>2024-09-25T11:08:51Z</time>
      </trkpt>
      <trkpt lon="78.516040883507117" lat="17.629644129032513">
        <ele>514.975</ele>
        <time>2024-09-25T11:08:51Z</time>
      </trkpt>
      <trkpt lon="78.516041289439315" lat="17.62964518133159">
        <ele>514.974</ele>
        <time>2024-09-25T11:08:51Z</time>
      </trkpt>
      <trkpt lon="78.51604169206864" lat="17.629646224938032">
        <ele>514.981</ele>
        <time>2024-09-25T11:08:51Z</time>
      </trkpt>
      <trkpt lon="78.516042091746456" lat="17.629647261299343">
        <ele>514.995</ele>
        <time>2024-09-25T11:08:51Z</time>
      </trkpt>
      <trkpt lon="78.516042488840114" lat="17.62964829175829">
        <ele>515.012</ele>
        <time>2024-09-25T11:08:51Z</time>
      </trkpt>
      <trkpt lon="78.516042883716295" lat="17.629649317532053">
        <ele>515.032</ele>
        <time>2024-09-25T11:08:51Z</time>
      </trkpt>
      <trkpt lon="78.516043276728411" lat="17.629650339700873">
        <ele>515.054</ele>
        <time>2024-09-25T11:08:51Z</time>
      </trkpt>
      <trkpt lon="78.516043668207601" lat="17.629651359204253">
        <ele>515.075</ele>
        <time>2024-09-25T11:08:51Z</time>
      </trkpt>
      <trkpt lon="78.516044058456728" lat="17.629652376842966">
        <ele>515.096</ele>
        <time>2024-09-25T11:08:51Z</time>
      </trkpt>
      <trkpt lon="78.516044447746808" lat="17.629653393285405">
        <ele>515.115</ele>
        <time>2024-09-25T11:08:51Z</time>
      </trkpt>
      <trkpt lon="78.51604483631543" lat="17.62965440907697">
        <ele>515.133</ele>
        <time>2024-09-25T11:08:51Z</time>
      </trkpt>
      <trkpt lon="78.516045224366792" lat="17.629655424651389">
        <ele>515.149</ele>
        <time>2024-09-25T11:08:51Z</time>
      </trkpt>
      <trkpt lon="78.51604561207273" lat="17.629656440343162">
        <ele>515.164</ele>
        <time>2024-09-25T11:08:51Z</time>
      </trkpt>
      <trkpt lon="78.516045999574814" lat="17.629657456400352">
        <ele>515.176</ele>
        <time>2024-09-25T11:08:51Z</time>
      </trkpt>
      <trkpt lon="78.516046386986829" lat="17.629658472997271">
        <ele>515.186</ele>
        <time>2024-09-25T11:08:51Z</time>
      </trkpt>
      <trkpt lon="78.516046774397665" lat="17.629659490246567">
        <ele>515.195</ele>
        <time>2024-09-25T11:08:51Z</time>
      </trkpt>
      <trkpt lon="78.516047161874383" lat="17.62966050821051">
        <ele>515.202</ele>
        <time>2024-09-25T11:08:51Z</time>
      </trkpt>
      <trkpt lon="78.516047549465242" lat="17.629661526911214">
        <ele>515.207</ele>
        <time>2024-09-25T11:08:51Z</time>
      </trkpt>
      <trkpt lon="78.516047937202657" lat="17.629662546339762">
        <ele>515.211</ele>
        <time>2024-09-25T11:08:51Z</time>
      </trkpt>
      <trkpt lon="78.51604832510597" lat="17.629663566464153">
        <ele>515.214</ele>
        <time>2024-09-25T11:08:51Z</time>
      </trkpt>
      <trkpt lon="78.516048846336986" lat="17.629664835469953">
        <ele>515.316</ele>
        <time>2024-09-25T11:08:52Z</time>
      </trkpt>
      <trkpt lon="78.516049370584412" lat="17.629666026693194">
        <ele>515.4</ele>
        <time>2024-09-25T11:08:52Z</time>
      </trkpt>
      <trkpt lon="78.516049895360595" lat="17.629667148601591">
        <ele>515.47</ele>
        <time>2024-09-25T11:08:52Z</time>
      </trkpt>
      <trkpt lon="78.516050418771968" lat="17.629668209985478">
        <ele>515.526</ele>
        <time>2024-09-25T11:08:52Z</time>
      </trkpt>
      <trkpt lon="78.516050939438514" lat="17.629669219573099">
        <ele>515.569</ele>
        <time>2024-09-25T11:08:52Z</time>
      </trkpt>
      <trkpt lon="78.516051456415283" lat="17.629670185742778">
        <ele>515.601</ele>
        <time>2024-09-25T11:08:52Z</time>
      </trkpt>
      <trkpt lon="78.516051969118095" lat="17.629671116318089">
        <ele>515.624</ele>
        <time>2024-09-25T11:08:52Z</time>
      </trkpt>
      <trkpt lon="78.51605247725503" lat="17.629672018432718">
        <ele>515.639</ele>
        <time>2024-09-25T11:08:52Z</time>
      </trkpt>
      <trkpt lon="78.516052980764584" lat="17.629672898452561">
        <ele>515.648</ele>
        <time>2024-09-25T11:08:52Z</time>
      </trkpt>
      <trkpt lon="78.516053479761126" lat="17.629673761943664">
        <ele>515.651</ele>
        <time>2024-09-25T11:08:52Z</time>
      </trkpt>
      <trkpt lon="78.516053974487562" lat="17.629674613675821">
        <ele>515.651</ele>
        <time>2024-09-25T11:08:52Z</time>
      </trkpt>
      <trkpt lon="78.516054465275332" lat="17.629675457652954">
        <ele>515.647</ele>
        <time>2024-09-25T11:08:52Z</time>
      </trkpt>
      <trkpt lon="78.516054952511041" lat="17.629676297162611">
        <ele>515.642</ele>
        <time>2024-09-25T11:08:52Z</time>
      </trkpt>
      <trkpt lon="78.516055436609491" lat="17.629677134838143">
        <ele>515.635</ele>
        <time>2024-09-25T11:08:52Z</time>
      </trkpt>
      <trkpt lon="78.516055917992318" lat="17.629677972728313">
        <ele>515.627</ele>
        <time>2024-09-25T11:08:52Z</time>
      </trkpt>
      <trkpt lon="78.516056397071665" lat="17.629678812370049">
        <ele>515.619</ele>
        <time>2024-09-25T11:08:52Z</time>
      </trkpt>
      <trkpt lon="78.516056874238217" lat="17.629679654861086">
        <ele>515.611</ele>
        <time>2024-09-25T11:08:52Z</time>
      </trkpt>
      <trkpt lon="78.5160573498529" lat="17.629680500929961">
        <ele>515.603</ele>
        <time>2024-09-25T11:08:52Z</time>
      </trkpt>
      <trkpt lon="78.516057824241699" lat="17.629681351001601">
        <ele>515.595</ele>
        <time>2024-09-25T11:08:52Z</time>
      </trkpt>
      <trkpt lon="78.516058297692879" lat="17.629682205257311">
        <ele>515.589</ele>
        <time>2024-09-25T11:08:52Z</time>
      </trkpt>
      <trkpt lon="78.516058770456354" lat="17.62968306368845">
        <ele>515.583</ele>
        <time>2024-09-25T11:08:52Z</time>
      </trkpt>
      <trkpt lon="78.516059242744348" lat="17.6296839261435">
        <ele>515.577</ele>
        <time>2024-09-25T11:08:52Z</time>
      </trkpt>
      <trkpt lon="78.516059714733373" lat="17.629684792368494">
        <ele>515.573</ele>
        <time>2024-09-25T11:08:52Z</time>
      </trkpt>
      <trkpt lon="78.516060186566889" lat="17.629685662041059">
        <ele>515.569</ele>
        <time>2024-09-25T11:08:52Z</time>
      </trkpt>
      <trkpt lon="78.516060658358398" lat="17.629686534798463">
        <ele>515.566</ele>
        <time>2024-09-25T11:08:52Z</time>
      </trkpt>
      <trkpt lon="78.516061130194942" lat="17.629687410260132">
        <ele>515.563</ele>
        <time>2024-09-25T11:08:52Z</time>
      </trkpt>
      <trkpt lon="78.516061602140596" lat="17.629688288045269">
        <ele>515.561</ele>
        <time>2024-09-25T11:08:52Z</time>
      </trkpt>
      <trkpt lon="78.516062074239812" lat="17.629689167786136">
        <ele>515.56</ele>
        <time>2024-09-25T11:08:52Z</time>
      </trkpt>
      <trkpt lon="78.516062546520814" lat="17.629690049137601">
        <ele>515.559</ele>
        <time>2024-09-25T11:08:52Z</time>
      </trkpt>
      <trkpt lon="78.516063159736191" lat="17.629691200430457">
        <ele>515.498</ele>
        <time>2024-09-25T11:08:53Z</time>
      </trkpt>
      <trkpt lon="78.516063758601518" lat="17.629692330893612">
        <ele>515.447</ele>
        <time>2024-09-25T11:08:53Z</time>
      </trkpt>
      <trkpt lon="78.516064343250818" lat="17.629693439607657">
        <ele>515.406</ele>
        <time>2024-09-25T11:08:53Z</time>
      </trkpt>
      <trkpt lon="78.516064914278786" lat="17.629694526634847">
        <ele>515.372</ele>
        <time>2024-09-25T11:08:53Z</time>
      </trkpt>
      <trkpt lon="78.516065472606769" lat="17.629695592775285">
        <ele>515.346</ele>
        <time>2024-09-25T11:08:53Z</time>
      </trkpt>
      <trkpt lon="78.516066019370371" lat="17.629696639357466">
        <ele>515.327</ele>
        <time>2024-09-25T11:08:53Z</time>
      </trkpt>
      <trkpt lon="78.516066555827237" lat="17.629697668062075">
        <ele>515.313</ele>
        <time>2024-09-25T11:08:53Z</time>
      </trkpt>
      <trkpt lon="78.516067083283346" lat="17.629698680776908">
        <ele>515.303</ele>
        <time>2024-09-25T11:08:53Z</time>
      </trkpt>
      <trkpt lon="78.516067603035751" lat="17.629699679480328">
        <ele>515.298</ele>
        <time>2024-09-25T11:08:53Z</time>
      </trkpt>
      <trkpt lon="78.51606811632972" lat="17.629700666150253">
        <ele>515.296</ele>
        <time>2024-09-25T11:08:53Z</time>
      </trkpt>
      <trkpt lon="78.51606862432827" lat="17.629701642695579">
        <ele>515.296</ele>
        <time>2024-09-25T11:08:53Z</time>
      </trkpt>
      <trkpt lon="78.516069128091985" lat="17.629702610906886">
        <ele>515.298</ele>
        <time>2024-09-25T11:08:53Z</time>
      </trkpt>
      <trkpt lon="78.516069628567465" lat="17.629703572423367">
        <ele>515.301</ele>
        <time>2024-09-25T11:08:53Z</time>
      </trkpt>
      <trkpt lon="78.516070126582406" lat="17.629704528713177">
        <ele>515.305</ele>
        <time>2024-09-25T11:08:53Z</time>
      </trkpt>
      <trkpt lon="78.516070622846243" lat="17.629705481064555">
        <ele>515.309</ele>
        <time>2024-09-25T11:08:53Z</time>
      </trkpt>
      <trkpt lon="78.516071117954539" lat="17.629706430585372">
        <ele>515.314</ele>
        <time>2024-09-25T11:08:53Z</time>
      </trkpt>
      <trkpt lon="78.516071612396388" lat="17.629707378209059">
        <ele>515.319</ele>
        <time>2024-09-25T11:08:53Z</time>
      </trkpt>
      <trkpt lon="78.516072106563627" lat="17.629708324705135">
        <ele>515.324</ele>
        <time>2024-09-25T11:08:53Z</time>
      </trkpt>
      <trkpt lon="78.516072600761134" lat="17.629709270692842">
        <ele>515.328</ele>
        <time>2024-09-25T11:08:53Z</time>
      </trkpt>
      <trkpt lon="78.51607309521772" lat="17.629710216656623">
        <ele>515.332</ele>
        <time>2024-09-25T11:08:53Z</time>
      </trkpt>
      <trkpt lon="78.516073590096852" lat="17.629711162962497">
        <ele>515.336</ele>
        <time>2024-09-25T11:08:53Z</time>
      </trkpt>
      <trkpt lon="78.516074085507071" lat="17.629712109874486">
        <ele>515.339</ele>
        <time>2024-09-25T11:08:53Z</time>
      </trkpt>
      <trkpt lon="78.516074581511745" lat="17.629713057570569">
        <ele>515.341</ele>
        <time>2024-09-25T11:08:53Z</time>
      </trkpt>
      <trkpt lon="78.51607507813803" lat="17.629714006157677">
        <ele>515.344</ele>
        <time>2024-09-25T11:08:53Z</time>
      </trkpt>
      <trkpt lon="78.516075575384789" lat="17.629714955685472">
        <ele>515.346</ele>
        <time>2024-09-25T11:08:53Z</time>
      </trkpt>
      <trkpt lon="78.516076073229613" lat="17.629715906158722">
        <ele>515.347</ele>
        <time>2024-09-25T11:08:53Z</time>
      </trkpt>
      <trkpt lon="78.516076571634841" lat="17.629716857548186">
        <ele>515.348</ele>
        <time>2024-09-25T11:08:53Z</time>
      </trkpt>
      <trkpt lon="78.516077070552626" lat="17.629717809799999">
        <ele>515.349</ele>
        <time>2024-09-25T11:08:53Z</time>
      </trkpt>
      <trkpt lon="78.516077569929095" lat="17.629718762843616">
        <ele>515.35</ele>
        <time>2024-09-25T11:08:53Z</time>
      </trkpt>
      <trkpt lon="78.516078196680596" lat="17.629719991331704">
        <ele>515.819</ele>
        <time>2024-09-25T11:08:54Z</time>
      </trkpt>
      <trkpt lon="78.51607879004203" lat="17.629721183320548">
        <ele>516.213</ele>
        <time>2024-09-25T11:08:54Z</time>
      </trkpt>
      <trkpt lon="78.516079353324159" lat="17.629722340364069">
        <ele>516.539</ele>
        <time>2024-09-25T11:08:54Z</time>
      </trkpt>
      <trkpt lon="78.516079890067346" lat="17.629723464847256">
        <ele>516.801</ele>
        <time>2024-09-25T11:08:54Z</time>
      </trkpt>
      <trkpt lon="78.516080403861991" lat="17.629724559698737">
        <ele>517.006</ele>
        <time>2024-09-25T11:08:54Z</time>
      </trkpt>
      <trkpt lon="78.516080898211612" lat="17.629725628155239">
        <ele>517.16</ele>
        <time>2024-09-25T11:08:54Z</time>
      </trkpt>
      <trkpt lon="78.516081376432496" lat="17.629726673573327">
        <ele>517.272</ele>
        <time>2024-09-25T11:08:54Z</time>
      </trkpt>
      <trkpt lon="78.516081841584679" lat="17.62972769928334">
        <ele>517.347</ele>
        <time>2024-09-25T11:08:54Z</time>
      </trkpt>
      <trkpt lon="78.516082296428692" lat="17.629728708480172">
        <ele>517.392</ele>
        <time>2024-09-25T11:08:54Z</time>
      </trkpt>
      <trkpt lon="78.516082743403501" lat="17.629729704145678">
        <ele>517.413</ele>
        <time>2024-09-25T11:08:54Z</time>
      </trkpt>
      <trkpt lon="78.516083184620882" lat="17.629730688997558">
        <ele>517.415</ele>
        <time>2024-09-25T11:08:54Z</time>
      </trkpt>
      <trkpt lon="78.516083621872696" lat="17.629731665459992">
        <ele>517.403</ele>
        <time>2024-09-25T11:08:54Z</time>
      </trkpt>
      <trkpt lon="78.516084056647401" lat="17.629732635651738">
        <ele>517.38</ele>
        <time>2024-09-25T11:08:54Z</time>
      </trkpt>
      <trkpt lon="78.516084490153048" lat="17.629733601387709">
        <ele>517.35</ele>
        <time>2024-09-25T11:08:54Z</time>
      </trkpt>
      <trkpt lon="78.516084923344323" lat="17.629734564190766">
        <ele>517.316</ele>
        <time>2024-09-25T11:08:54Z</time>
      </trkpt>
      <trkpt lon="78.516085356951848" lat="17.629735525310718">
        <ele>517.28</ele>
        <time>2024-09-25T11:08:54Z</time>
      </trkpt>
      <trkpt lon="78.516085791511898" lat="17.62973648574815">
        <ele>517.243</ele>
        <time>2024-09-25T11:08:54Z</time>
      </trkpt>
      <trkpt lon="78.516086227395647" lat="17.62973744628102">
        <ele>517.208</ele>
        <time>2024-09-25T11:08:54Z</time>
      </trkpt>
      <trkpt lon="78.516086664836934" lat="17.629738407492447">
        <ele>517.174</ele>
        <time>2024-09-25T11:08:54Z</time>
      </trkpt>
      <trkpt lon="78.516087103957901" lat="17.629739369798429">
        <ele>517.144</ele>
        <time>2024-09-25T11:08:54Z</time>
      </trkpt>
      <trkpt lon="78.516087544792327" lat="17.629740333474547">
        <ele>517.116</ele>
        <time>2024-09-25T11:08:54Z</time>
      </trkpt>
      <trkpt lon="78.516087987306165" lat="17.629741298680948">
        <ele>517.092</ele>
        <time>2024-09-25T11:08:54Z</time>
      </trkpt>
      <trkpt lon="78.516088431415412" lat="17.629742265485209">
        <ele>517.071</ele>
        <time>2024-09-25T11:08:54Z</time>
      </trkpt>
      <trkpt lon="78.516088877001337" lat="17.629743233882778">
        <ele>517.053</ele>
        <time>2024-09-25T11:08:54Z</time>
      </trkpt>
      <trkpt lon="78.516089323923154" lat="17.629744203814891">
        <ele>517.038</ele>
        <time>2024-09-25T11:08:54Z</time>
      </trkpt>
      <trkpt lon="78.516089772028351" lat="17.629745175183956">
        <ele>517.026</ele>
        <time>2024-09-25T11:08:54Z</time>
      </trkpt>
      <trkpt lon="78.516090221160852" lat="17.629746147866502">
        <ele>517.017</ele>
        <time>2024-09-25T11:08:54Z</time>
      </trkpt>
      <trkpt lon="78.516090671167348" lat="17.629747121723845">
        <ele>517.01</ele>
        <time>2024-09-25T11:08:54Z</time>
      </trkpt>
      <trkpt lon="78.516091121901908" lat="17.629748096610633">
        <ele>517.005</ele>
        <time>2024-09-25T11:08:54Z</time>
      </trkpt>
      <trkpt lon="78.516091678571783" lat="17.629749359756016">
        <ele>516.823</ele>
        <time>2024-09-25T11:08:55Z</time>
      </trkpt>
      <trkpt lon="78.516092197512776" lat="17.629750591086829">
        <ele>516.671</ele>
        <time>2024-09-25T11:08:55Z</time>
      </trkpt>
      <trkpt lon="78.516092683014207" lat="17.629751791200196">
        <ele>516.546</ele>
        <time>2024-09-25T11:08:55Z</time>
      </trkpt>
      <trkpt lon="78.516093139470769" lat="17.629752961630398">
        <ele>516.446</ele>
        <time>2024-09-25T11:08:55Z</time>
      </trkpt>
      <trkpt lon="78.516093571203953" lat="17.62975410456486">
        <ele>516.369</ele>
        <time>2024-09-25T11:08:55Z</time>
      </trkpt>
      <trkpt lon="78.516093982329991" lat="17.629755222607393">
        <ele>516.311</ele>
        <time>2024-09-25T11:08:55Z</time>
      </trkpt>
      <trkpt lon="78.516094376667411" lat="17.629756318585272">
        <ele>516.269</ele>
        <time>2024-09-25T11:08:55Z</time>
      </trkpt>
      <trkpt lon="78.516094757677749" lat="17.629757395396023">
        <ele>516.242</ele>
        <time>2024-09-25T11:08:55Z</time>
      </trkpt>
      <trkpt lon="78.516095128433179" lat="17.629758455889498">
        <ele>516.227</ele>
        <time>2024-09-25T11:08:55Z</time>
      </trkpt>
      <trkpt lon="78.516095491605725" lat="17.629759502780644">
        <ele>516.22</ele>
        <time>2024-09-25T11:08:55Z</time>
      </trkpt>
      <trkpt lon="78.516095849472919" lat="17.629760538588428">
        <ele>516.221</ele>
        <time>2024-09-25T11:08:55Z</time>
      </trkpt>
      <trkpt lon="78.516096203935859" lat="17.629761565596599">
        <ele>516.227</ele>
        <time>2024-09-25T11:08:55Z</time>
      </trkpt>
      <trkpt lon="78.516096556545861" lat="17.629762585832282">
        <ele>516.237</ele>
        <time>2024-09-25T11:08:55Z</time>
      </trkpt>
      <trkpt lon="78.516096908536667" lat="17.629763601058762">
        <ele>516.249</ele>
        <time>2024-09-25T11:08:55Z</time>
      </trkpt>
      <trkpt lon="78.516097260859794" lat="17.629764612779194">
        <ele>516.263</ele>
        <time>2024-09-25T11:08:55Z</time>
      </trkpt>
      <trkpt lon="78.516097614220982" lat="17.629765622248438">
        <ele>516.278</ele>
        <time>2024-09-25T11:08:55Z</time>
      </trkpt>
      <trkpt lon="78.516097969116174" lat="17.629766630490618">
        <ele>516.293</ele>
        <time>2024-09-25T11:08:55Z</time>
      </trkpt>
      <trkpt lon="78.51609832586594" lat="17.629767638320335">
        <ele>516.307</ele>
        <time>2024-09-25T11:08:55Z</time>
      </trkpt>
      <trkpt lon="78.516098684647531" lat="17.629768646365982">
        <ele>516.32</ele>
        <time>2024-09-25T11:08:55Z</time>
      </trkpt>
      <trkpt lon="78.516099045523973" lat="17.629769655093753">
        <ele>516.332</ele>
        <time>2024-09-25T11:08:55Z</time>
      </trkpt>
      <trkpt lon="78.516099408470055" lat="17.62977066483138">
        <ele>516.343</ele>
        <time>2024-09-25T11:08:55Z</time>
      </trkpt>
      <trkpt lon="78.516099773394899" lat="17.629771675790838">
        <ele>516.352</ele>
        <time>2024-09-25T11:08:55Z</time>
      </trkpt>
      <trkpt lon="78.516100140161257" lat="17.629772688089492">
        <ele>516.361</ele>
        <time>2024-09-25T11:08:55Z</time>
      </trkpt>
      <trkpt lon="78.51610050860171" lat="17.629773701769295">
        <ele>516.367</ele>
        <time>2024-09-25T11:08:55Z</time>
      </trkpt>
      <trkpt lon="78.51610087853193" lat="17.629774716813916">
        <ele>516.373</ele>
        <time>2024-09-25T11:08:55Z</time>
      </trkpt>
      <trkpt lon="78.516101249761249" lat="17.629775733163637">
        <ele>516.378</ele>
        <time>2024-09-25T11:08:55Z</time>
      </trkpt>
      <trkpt lon="78.516101622100791" lat="17.629776750728126">
        <ele>516.381</ele>
        <time>2024-09-25T11:08:55Z</time>
      </trkpt>
      <trkpt lon="78.516101995369624" lat="17.629777769397091">
        <ele>516.384</ele>
        <time>2024-09-25T11:08:55Z</time>
      </trkpt>
      <trkpt lon="78.516102369399093" lat="17.629778789049038">
        <ele>516.386</ele>
        <time>2024-09-25T11:08:55Z</time>
      </trkpt>
      <trkpt lon="78.516102823721425" lat="17.629780050207437">
        <ele>516.564</ele>
        <time>2024-09-25T11:08:56Z</time>
      </trkpt>
      <trkpt lon="78.516103240323915" lat="17.629781227522891">
        <ele>516.714</ele>
        <time>2024-09-25T11:08:56Z</time>
      </trkpt>
      <trkpt lon="78.516103623875864" lat="17.629782330500408">
        <ele>516.837</ele>
        <time>2024-09-25T11:08:56Z</time>
      </trkpt>
      <trkpt lon="78.516103979044885" lat="17.629783368886695">
        <ele>516.936</ele>
        <time>2024-09-25T11:08:56Z</time>
      </trkpt>
      <trkpt lon="78.516104310335209" lat="17.629784352272161">
        <ele>517.013</ele>
        <time>2024-09-25T11:08:56Z</time>
      </trkpt>
      <trkpt lon="78.516104621971465" lat="17.629785289796335">
        <ele>517.071</ele>
        <time>2024-09-25T11:08:56Z</time>
      </trkpt>
      <trkpt lon="78.516104917820826" lat="17.629786189941445">
        <ele>517.112</ele>
        <time>2024-09-25T11:08:56Z</time>
      </trkpt>
      <trkpt lon="78.51610520134669" lat="17.629787060399675">
        <ele>517.14</ele>
        <time>2024-09-25T11:08:56Z</time>
      </trkpt>
      <trkpt lon="78.516105475587821" lat="17.629787908000505">
        <ele>517.157</ele>
        <time>2024-09-25T11:08:56Z</time>
      </trkpt>
      <trkpt lon="78.516105743157283" lat="17.629788738685921">
        <ele>517.164</ele>
        <time>2024-09-25T11:08:56Z</time>
      </trkpt>
      <trkpt lon="78.516106006256592" lat="17.629789557522535">
        <ele>517.164</ele>
        <time>2024-09-25T11:08:56Z</time>
      </trkpt>
      <trkpt lon="78.516106266700504" lat="17.629790368741137">
        <ele>517.159</ele>
        <time>2024-09-25T11:08:56Z</time>
      </trkpt>
      <trkpt lon="78.516106525949255" lat="17.629791175795535">
        <ele>517.15</ele>
        <time>2024-09-25T11:08:56Z</time>
      </trkpt>
      <trkpt lon="78.51610678514507" lat="17.629791981433872">
        <ele>517.138</ele>
        <time>2024-09-25T11:08:56Z</time>
      </trkpt>
      <trkpt lon="78.516107045150846" lat="17.629792787776921">
        <ele>517.125</ele>
        <time>2024-09-25T11:08:56Z</time>
      </trkpt>
      <trkpt lon="78.516107306588879" lat="17.629793596398887">
        <ele>517.111</ele>
        <time>2024-09-25T11:08:56Z</time>
      </trkpt>
      <trkpt lon="78.516107569878557" lat="17.629794408407285">
        <ele>517.097</ele>
        <time>2024-09-25T11:08:56Z</time>
      </trkpt>
      <trkpt lon="78.516107835271711" lat="17.629795224519363">
        <ele>517.083</ele>
        <time>2024-09-25T11:08:56Z</time>
      </trkpt>
      <trkpt lon="78.516108102885127" lat="17.629796045133276">
        <ele>517.071</ele>
        <time>2024-09-25T11:08:56Z</time>
      </trkpt>
      <trkpt lon="78.516108372729718" lat="17.629796870392823">
        <ele>517.059</ele>
        <time>2024-09-25T11:08:56Z</time>
      </trkpt>
      <trkpt lon="78.516108644736221" lat="17.62979770024506">
        <ele>517.048</ele>
        <time>2024-09-25T11:08:56Z</time>
      </trkpt>
      <trkpt lon="78.516108918777363" lat="17.629798534490579">
        <ele>517.039</ele>
        <time>2024-09-25T11:08:56Z</time>
      </trkpt>
      <trkpt lon="78.516109194686535" lat="17.629799372826483">
        <ele>517.031</ele>
        <time>2024-09-25T11:08:56Z</time>
      </trkpt>
      <trkpt lon="78.516109472273271" lat="17.629800214882394">
        <ele>517.024</ele>
        <time>2024-09-25T11:08:56Z</time>
      </trkpt>
      <trkpt lon="78.516109751335719" lat="17.629801060249921">
        <ele>517.019</ele>
        <time>2024-09-25T11:08:56Z</time>
      </trkpt>
      <trkpt lon="78.516110031670493" lat="17.629801908506202">
        <ele>517.014</ele>
        <time>2024-09-25T11:08:56Z</time>
      </trkpt>
      <trkpt lon="78.516110313080077" lat="17.62980275923216">
        <ele>517.011</ele>
        <time>2024-09-25T11:08:56Z</time>
      </trkpt>
      <trkpt lon="78.516110595378251" lat="17.629803612026112">
        <ele>517.008</ele>
        <time>2024-09-25T11:08:56Z</time>
      </trkpt>
      <trkpt lon="78.516110878393775" lat="17.629804466513445">
        <ele>517.006</ele>
        <time>2024-09-25T11:08:56Z</time>
      </trkpt>
      <trkpt lon="78.516111232481947" lat="17.629805585194308">
        <ele>516.859</ele>
        <time>2024-09-25T11:08:57Z</time>
      </trkpt>
      <trkpt lon="78.516111566731325" lat="17.629806685774476">
        <ele>516.736</ele>
        <time>2024-09-25T11:08:57Z</time>
      </trkpt>
      <trkpt lon="78.516111883134755" lat="17.629807766982776">
        <ele>516.634</ele>
        <time>2024-09-25T11:08:57Z</time>
      </trkpt>
      <trkpt lon="78.516112183814201" lat="17.629808828533736">
        <ele>516.553</ele>
        <time>2024-09-25T11:08:57Z</time>
      </trkpt>
      <trkpt lon="78.516112470915374" lat="17.629809870894849">
        <ele>516.489</ele>
        <time>2024-09-25T11:08:57Z</time>
      </trkpt>
      <trkpt lon="78.516112746527256" lat="17.629810895084969">
        <ele>516.441</ele>
        <time>2024-09-25T11:08:57Z</time>
      </trkpt>
      <trkpt lon="78.516113012623592" lat="17.629811902503167">
        <ele>516.407</ele>
        <time>2024-09-25T11:08:57Z</time>
      </trkpt>
      <trkpt lon="78.516113271022675" lat="17.629812894786582">
        <ele>516.384</ele>
        <time>2024-09-25T11:08:57Z</time>
      </trkpt>
      <trkpt lon="78.516113523362492" lat="17.629813873694911">
        <ele>516.37</ele>
        <time>2024-09-25T11:08:57Z</time>
      </trkpt>
      <trkpt lon="78.5161137710882" lat="17.629814841019151">
        <ele>516.364</ele>
        <time>2024-09-25T11:08:57Z</time>
      </trkpt>
      <trkpt lon="78.516114015449446" lat="17.629815798511689">
        <ele>516.364</ele>
        <time>2024-09-25T11:08:57Z</time>
      </trkpt>
      <trkpt lon="78.516114257505066" lat="17.629816747834944">
        <ele>516.369</ele>
        <time>2024-09-25T11:08:57Z</time>
      </trkpt>
      <trkpt lon="78.516114498133305" lat="17.629817690525787">
        <ele>516.376</ele>
        <time>2024-09-25T11:08:57Z</time>
      </trkpt>
      <trkpt lon="78.516114738045744" lat="17.629818627973073">
        <ele>516.386</ele>
        <time>2024-09-25T11:08:57Z</time>
      </trkpt>
      <trkpt lon="78.516114977803667" lat="17.629819561405842">
        <ele>516.397</ele>
        <time>2024-09-25T11:08:57Z</time>
      </trkpt>
      <trkpt lon="78.516115217835548" lat="17.629820491889991">
        <ele>516.409</ele>
        <time>2024-09-25T11:08:57Z</time>
      </trkpt>
      <trkpt lon="78.516115458454848" lat="17.629821420331407">
        <ele>516.42</ele>
        <time>2024-09-25T11:08:57Z</time>
      </trkpt>
      <trkpt lon="78.516115699877474" lat="17.629822347483902">
        <ele>516.431</ele>
        <time>2024-09-25T11:08:57Z</time>
      </trkpt>
      <trkpt lon="78.516115942238258" lat="17.629823273960479">
        <ele>516.442</ele>
        <time>2024-09-25T11:08:57Z</time>
      </trkpt>
      <trkpt lon="78.516116185606279" lat="17.629824200246702">
        <ele>516.452</ele>
        <time>2024-09-25T11:08:57Z</time>
      </trkpt>
      <trkpt lon="78.516116429998618" lat="17.629825126715208">
        <ele>516.46</ele>
        <time>2024-09-25T11:08:57Z</time>
      </trkpt>
      <trkpt lon="78.516116675392595" lat="17.62982605364056">
        <ele>516.468</ele>
        <time>2024-09-25T11:08:57Z</time>
      </trkpt>
      <trkpt lon="78.516116921736298" lat="17.629826981213871">
        <ele>516.475</ele>
        <time>2024-09-25T11:08:57Z</time>
      </trkpt>
      <trkpt lon="78.516117168957649" lat="17.629827909556699">
        <ele>516.48</ele>
        <time>2024-09-25T11:08:57Z</time>
      </trkpt>
      <trkpt lon="78.516117416971795" lat="17.629828838733946">
        <ele>516.485</ele>
        <time>2024-09-25T11:08:57Z</time>
      </trkpt>
      <trkpt lon="78.516117665687261" lat="17.629829768765568">
        <ele>516.489</ele>
        <time>2024-09-25T11:08:57Z</time>
      </trkpt>
      <trkpt lon="78.516117915010739" lat="17.629830699636926">
        <ele>516.491</ele>
        <time>2024-09-25T11:08:57Z</time>
      </trkpt>
      <trkpt lon="78.516118164850752" lat="17.629831631307827">
        <ele>516.494</ele>
        <time>2024-09-25T11:08:57Z</time>
      </trkpt>
      <trkpt lon="78.516118415120431" lat="17.629832563720203">
        <ele>516.495</ele>
        <time>2024-09-25T11:08:57Z</time>
      </trkpt>
      <trkpt lon="78.516118776231991" lat="17.629833760207713">
        <ele>516.479</ele>
        <time>2024-09-25T11:08:58Z</time>
      </trkpt>
      <trkpt lon="78.516119160224619" lat="17.629834916424016">
        <ele>516.466</ele>
        <time>2024-09-25T11:08:58Z</time>
      </trkpt>
      <trkpt lon="78.516119561789765" lat="17.629836034693238">
        <ele>516.454</ele>
        <time>2024-09-25T11:08:58Z</time>
      </trkpt>
      <trkpt lon="78.516119976315451" lat="17.629837118085213">
        <ele>516.445</ele>
        <time>2024-09-25T11:08:58Z</time>
      </trkpt>
      <trkpt lon="78.516120399875007" lat="17.629838170125275">
        <ele>516.437</ele>
        <time>2024-09-25T11:08:58Z</time>
      </trkpt>
      <trkpt lon="78.516120829194705" lat="17.6298391945597">
        <ele>516.431</ele>
        <time>2024-09-25T11:08:58Z</time>
      </trkpt>
      <trkpt lon="78.516121261606727" lat="17.629840195171212">
        <ele>516.427</ele>
        <time>2024-09-25T11:08:58Z</time>
      </trkpt>
      <trkpt lon="78.51612169499262" lat="17.629841175638624">
        <ele>516.424</ele>
        <time>2024-09-25T11:08:58Z</time>
      </trkpt>
      <trkpt lon="78.51612212772163" lat="17.629842139434672">
        <ele>516.422</ele>
        <time>2024-09-25T11:08:58Z</time>
      </trkpt>
      <trkpt lon="78.516122558587313" lat="17.62984308975614">
        <ele>516.42</ele>
        <time>2024-09-25T11:08:58Z</time>
      </trkpt>
      <trkpt lon="78.516122986744918" lat="17.629844029480768">
        <ele>516.42</ele>
        <time>2024-09-25T11:08:58Z</time>
      </trkpt>
      <trkpt lon="78.516123411651733" lat="17.629844961145864">
        <ele>516.42</ele>
        <time>2024-09-25T11:08:58Z</time>
      </trkpt>
      <trkpt lon="78.516123833011534" lat="17.62984588694399">
        <ele>516.42</ele>
        <time>2024-09-25T11:08:58Z</time>
      </trkpt>
      <trkpt lon="78.516124250724204" lat="17.629846808731678">
        <ele>516.421</ele>
        <time>2024-09-25T11:08:58Z</time>
      </trkpt>
      <trkpt lon="78.516124664840945" lat="17.629847728047704">
        <ele>516.422</ele>
        <time>2024-09-25T11:08:58Z</time>
      </trkpt>
      <trkpt lon="78.516125075525224" lat="17.629848646137852">
        <ele>516.423</ele>
        <time>2024-09-25T11:08:58Z</time>
      </trkpt>
      <trkpt lon="78.516125483019493" lat="17.629849563983786">
        <ele>516.424</ele>
        <time>2024-09-25T11:08:58Z</time>
      </trkpt>
      <trkpt lon="78.516125887617264" lat="17.629850482333978">
        <ele>516.425</ele>
        <time>2024-09-25T11:08:58Z</time>
      </trkpt>
      <trkpt lon="78.516126289640425" lat="17.629851401735138">
        <ele>516.426</ele>
        <time>2024-09-25T11:08:58Z</time>
      </trkpt>
      <trkpt lon="78.516126689421" lat="17.629852322562872">
        <ele>516.427</ele>
        <time>2024-09-25T11:08:58Z</time>
      </trkpt>
      <trkpt lon="78.516127087287202" lat="17.629853245050779">
        <ele>516.428</ele>
        <time>2024-09-25T11:08:58Z</time>
      </trkpt>
      <trkpt lon="78.516127483552864" lat="17.629854169317298">
        <ele>516.429</ele>
        <time>2024-09-25T11:08:58Z</time>
      </trkpt>
      <trkpt lon="78.516127878510204" lat="17.629855095389935">
        <ele>516.429</ele>
        <time>2024-09-25T11:08:58Z</time>
      </trkpt>
      <trkpt lon="78.516128272424893" lat="17.629856023226697">
        <ele>516.43</ele>
        <time>2024-09-25T11:08:58Z</time>
      </trkpt>
      <trkpt lon="78.516128665533429" lat="17.62985695273467">
        <ele>516.43</ele>
        <time>2024-09-25T11:08:58Z</time>
      </trkpt>
      <trkpt lon="78.516129058042083" lat="17.629857883785771">
        <ele>516.431</ele>
        <time>2024-09-25T11:08:58Z</time>
      </trkpt>
      <trkpt lon="78.516129450127167" lat="17.629858816229859">
        <ele>516.431</ele>
        <time>2024-09-25T11:08:58Z</time>
      </trkpt>
      <trkpt lon="78.516129841936319" lat="17.629859749905375">
        <ele>516.431</ele>
        <time>2024-09-25T11:08:58Z</time>
      </trkpt>
      <trkpt lon="78.516130233590403" lat="17.62986068464777">
        <ele>516.432</ele>
        <time>2024-09-25T11:08:58Z</time>
      </trkpt>
      <trkpt lon="78.516130724910184" lat="17.629861944189159">
        <ele>516.429</ele>
        <time>2024-09-25T11:08:59Z</time>
      </trkpt>
      <trkpt lon="78.516131189792731" lat="17.629863214030078">
        <ele>516.427</ele>
        <time>2024-09-25T11:08:59Z</time>
      </trkpt>
      <trkpt lon="78.51613163093036" lat="17.629864487577173">
        <ele>516.425</ele>
        <time>2024-09-25T11:08:59Z</time>
      </trkpt>
      <trkpt lon="78.516132051177223" lat="17.629865759731558">
        <ele>516.424</ele>
        <time>2024-09-25T11:08:59Z</time>
      </trkpt>
      <trkpt lon="78.516132453410336" lat="17.629867026697983">
        <ele>516.423</ele>
        <time>2024-09-25T11:08:59Z</time>
      </trkpt>
      <trkpt lon="78.516132840424049" lat="17.629868285795698">
        <ele>516.422</ele>
        <time>2024-09-25T11:08:59Z</time>
      </trkpt>
      <trkpt lon="78.516133214853355" lat="17.629869535277187">
        <ele>516.421</ele>
        <time>2024-09-25T11:08:59Z</time>
      </trkpt>
      <trkpt lon="78.516133579121558" lat="17.629870774159112">
        <ele>516.421</ele>
        <time>2024-09-25T11:08:59Z</time>
      </trkpt>
      <trkpt lon="78.516133935408291" lat="17.629872002068321">
        <ele>516.42</ele>
        <time>2024-09-25T11:08:59Z</time>
      </trkpt>
      <trkpt lon="78.516134285633782" lat="17.629873219104603">
        <ele>516.42</ele>
        <time>2024-09-25T11:08:59Z</time>
      </trkpt>
      <trkpt lon="78.516134631456026" lat="17.629874425720786">
        <ele>516.42</ele>
        <time>2024-09-25T11:08:59Z</time>
      </trkpt>
      <trkpt lon="78.516134974277776" lat="17.629875622620098">
        <ele>516.42</ele>
        <time>2024-09-25T11:08:59Z</time>
      </trkpt>
      <trkpt lon="78.516135315260641" lat="17.629876810670105">
        <ele>516.42</ele>
        <time>2024-09-25T11:08:59Z</time>
      </trkpt>
      <trkpt lon="78.516135655344129" lat="17.62987799083211">
        <ele>516.42</ele>
        <time>2024-09-25T11:08:59Z</time>
      </trkpt>
      <trkpt lon="78.516135995267689" lat="17.629879164104707">
        <ele>516.421</ele>
        <time>2024-09-25T11:08:59Z</time>
      </trkpt>
      <trkpt lon="78.516136335594268" lat="17.629880331479917">
        <ele>516.421</ele>
        <time>2024-09-25T11:08:59Z</time>
      </trkpt>
      <trkpt lon="78.516136676734263" lat="17.629881493910347">
        <ele>516.421</ele>
        <time>2024-09-25T11:08:59Z</time>
      </trkpt>
      <trkpt lon="78.516137018968749" lat="17.629882652285815">
        <ele>516.421</ele>
        <time>2024-09-25T11:08:59Z</time>
      </trkpt>
      <trkpt lon="78.516137362471625" lat="17.629883807417905">
        <ele>516.421</ele>
        <time>2024-09-25T11:08:59Z</time>
      </trkpt>
      <trkpt lon="78.516137707329932" lat="17.629884960031038">
        <ele>516.421</ele>
        <time>2024-09-25T11:08:59Z</time>
      </trkpt>
      <trkpt lon="78.516138053562159" lat="17.629886110758779">
        <ele>516.422</ele>
        <time>2024-09-25T11:08:59Z</time>
      </trkpt>
      <trkpt lon="78.516138401134583" lat="17.629887260144198">
        <ele>516.422</ele>
        <time>2024-09-25T11:08:59Z</time>
      </trkpt>
      <trkpt lon="78.516138749975241" lat="17.629888408643279">
        <ele>516.422</ele>
        <time>2024-09-25T11:08:59Z</time>
      </trkpt>
      <trkpt lon="78.516139099985793" lat="17.629889556630541">
        <ele>516.422</ele>
        <time>2024-09-25T11:08:59Z</time>
      </trkpt>
      <trkpt lon="78.516139451051529" lat="17.629890704406076">
        <ele>516.422</ele>
        <time>2024-09-25T11:08:59Z</time>
      </trkpt>
      <trkpt lon="78.516139803049299" lat="17.629891852203446">
        <ele>516.422</ele>
        <time>2024-09-25T11:08:59Z</time>
      </trkpt>
      <trkpt lon="78.516140155853904" lat="17.629893000197956">
        <ele>516.422</ele>
        <time>2024-09-25T11:08:59Z</time>
      </trkpt>
      <trkpt lon="78.516140509342989" lat="17.629894148514911">
        <ele>516.422</ele>
        <time>2024-09-25T11:08:59Z</time>
      </trkpt>
      <trkpt lon="78.51614086340048" lat="17.629895297237567">
        <ele>516.422</ele>
        <time>2024-09-25T11:08:59Z</time>
      </trkpt>
      <trkpt lon="78.516141316051645" lat="17.62989677330421">
        <ele>516.374</ele>
        <time>2024-09-25T11:09:00Z</time>
      </trkpt>
      <trkpt lon="78.516141752040639" lat="17.629898201427856">
        <ele>516.333</ele>
        <time>2024-09-25T11:09:00Z</time>
      </trkpt>
      <trkpt lon="78.516142172459951" lat="17.629899584227001">
        <ele>516.299</ele>
        <time>2024-09-25T11:09:00Z</time>
      </trkpt>
      <trkpt lon="78.516142578673865" lat="17.629900925249565">
        <ele>516.272</ele>
        <time>2024-09-25T11:09:00Z</time>
      </trkpt>
      <trkpt lon="78.516142972204136" lat="17.629902228620903">
        <ele>516.251</ele>
        <time>2024-09-25T11:09:00Z</time>
      </trkpt>
      <trkpt lon="78.516143354638345" lat="17.629903498758345">
        <ele>516.235</ele>
        <time>2024-09-25T11:09:00Z</time>
      </trkpt>
      <trkpt lon="78.5161437275586" lat="17.629904740145939">
        <ele>516.223</ele>
        <time>2024-09-25T11:09:00Z</time>
      </trkpt>
      <trkpt lon="78.516144092487949" lat="17.629905957162276">
        <ele>516.215</ele>
        <time>2024-09-25T11:09:00Z</time>
      </trkpt>
      <trkpt lon="78.516144450851982" lat="17.629907153954399">
        <ele>516.211</ele>
        <time>2024-09-25T11:09:00Z</time>
      </trkpt>
      <trkpt lon="78.516144803953367" lat="17.629908334350784">
        <ele>516.208</ele>
        <time>2024-09-25T11:09:00Z</time>
      </trkpt>
      <trkpt lon="78.516145152956824" lat="17.629909501806793">
        <ele>516.208</ele>
        <time>2024-09-25T11:09:00Z</time>
      </trkpt>
      <trkpt lon="78.516145498882636" lat="17.629910659376545">
        <ele>516.209</ele>
        <time>2024-09-25T11:09:00Z</time>
      </trkpt>
      <trkpt lon="78.516145842606832" lat="17.629911809705625">
        <ele>516.212</ele>
        <time>2024-09-25T11:09:00Z</time>
      </trkpt>
      <trkpt lon="78.516146184866216" lat="17.629912955039774">
        <ele>516.215</ele>
        <time>2024-09-25T11:09:00Z</time>
      </trkpt>
      <trkpt lon="78.516146526267065" lat="17.629914097245337">
        <ele>516.218</ele>
        <time>2024-09-25T11:09:00Z</time>
      </trkpt>
      <trkpt lon="78.516146867296229" lat="17.629915237837846">
        <ele>516.222</ele>
        <time>2024-09-25T11:09:00Z</time>
      </trkpt>
      <trkpt lon="78.516147208333606" lat="17.629916378015757">
        <ele>516.226</ele>
        <time>2024-09-25T11:09:00Z</time>
      </trkpt>
      <trkpt lon="78.516147549665263" lat="17.629917518696875">
        <ele>516.23</ele>
        <time>2024-09-25T11:09:00Z</time>
      </trkpt>
      <trkpt lon="78.516147891496672" lat="17.629918660555582">
        <ele>516.233</ele>
        <time>2024-09-25T11:09:00Z</time>
      </trkpt>
      <trkpt lon="78.516148233965325" lat="17.629919804059345">
        <ele>516.236</ele>
        <time>2024-09-25T11:09:00Z</time>
      </trkpt>
      <trkpt lon="78.516148577152734" lat="17.629920949503418">
        <ele>516.239</ele>
        <time>2024-09-25T11:09:00Z</time>
      </trkpt>
      <trkpt lon="78.516148921095407" lat="17.629922097042975">
        <ele>516.242</ele>
        <time>2024-09-25T11:09:00Z</time>
      </trkpt>
      <trkpt lon="78.516149265794638" lat="17.629923246722221">
        <ele>516.244</ele>
        <time>2024-09-25T11:09:00Z</time>
      </trkpt>
      <trkpt lon="78.516149611225089" lat="17.629924398500169">
        <ele>516.246</ele>
        <time>2024-09-25T11:09:00Z</time>
      </trkpt>
      <trkpt lon="78.516149957342307" lat="17.629925552273033">
        <ele>516.247</ele>
        <time>2024-09-25T11:09:00Z</time>
      </trkpt>
      <trkpt lon="78.516150304088896" lat="17.629926707893297">
        <ele>516.248</ele>
        <time>2024-09-25T11:09:00Z</time>
      </trkpt>
      <trkpt lon="78.516150651399755" lat="17.629927865185604">
        <ele>516.249</ele>
        <time>2024-09-25T11:09:00Z</time>
      </trkpt>
      <trkpt lon="78.516150999206204" lat="17.629929023959701">
        <ele>516.25</ele>
        <time>2024-09-25T11:09:00Z</time>
      </trkpt>
      <trkpt lon="78.516151347439276" lat="17.629930184020704">
        <ele>516.251</ele>
        <time>2024-09-25T11:09:00Z</time>
      </trkpt>
      <trkpt lon="78.516151798846465" lat="17.629931693135145">
        <ele>516.739</ele>
        <time>2024-09-25T11:09:01Z</time>
      </trkpt>
      <trkpt lon="78.516152239061384" lat="17.629933169502507">
        <ele>517.151</ele>
        <time>2024-09-25T11:09:01Z</time>
      </trkpt>
      <trkpt lon="78.516152668261981" lat="17.629934612929496">
        <ele>517.491</ele>
        <time>2024-09-25T11:09:01Z</time>
      </trkpt>
      <trkpt lon="78.516153086964906" lat="17.629936024414391">
        <ele>517.764</ele>
        <time>2024-09-25T11:09:01Z</time>
      </trkpt>
      <trkpt lon="78.516153495924215" lat="17.629937405819035">
        <ele>517.978</ele>
        <time>2024-09-25T11:09:01Z</time>
      </trkpt>
      <trkpt lon="78.516153896046688" lat="17.629938759591564">
        <ele>518.139</ele>
        <time>2024-09-25T11:09:01Z</time>
      </trkpt>
      <trkpt lon="78.516154288322781" lat="17.629940088537065">
        <ele>518.256</ele>
        <time>2024-09-25T11:09:01Z</time>
      </trkpt>
      <trkpt lon="78.516154673771609" lat="17.629941395632265">
        <ele>518.335</ele>
        <time>2024-09-25T11:09:01Z</time>
      </trkpt>
      <trkpt lon="78.516155053398506" lat="17.629942683879914">
        <ele>518.382</ele>
        <time>2024-09-25T11:09:01Z</time>
      </trkpt>
      <trkpt lon="78.516155428163486" lat="17.629943956198087">
        <ele>518.404</ele>
        <time>2024-09-25T11:09:01Z</time>
      </trkpt>
      <trkpt lon="78.516155798959076" lat="17.629945215339685">
        <ele>518.406</ele>
        <time>2024-09-25T11:09:01Z</time>
      </trkpt>
      <trkpt lon="78.516156166595934" lat="17.629946463837506">
        <ele>518.393</ele>
        <time>2024-09-25T11:09:01Z</time>
      </trkpt>
      <trkpt lon="78.516156531794834" lat="17.629947703970451">
        <ele>518.369</ele>
        <time>2024-09-25T11:09:01Z</time>
      </trkpt>
      <trkpt lon="78.516156895183798" lat="17.629948937746907">
        <ele>518.338</ele>
        <time>2024-09-25T11:09:01Z</time>
      </trkpt>
      <trkpt lon="78.516157257299085" lat="17.629950166901569">
        <ele>518.302</ele>
        <time>2024-09-25T11:09:01Z</time>
      </trkpt>
      <trkpt lon="78.516157618589162" lat="17.629951392902598">
        <ele>518.265</ele>
        <time>2024-09-25T11:09:01Z</time>
      </trkpt>
      <trkpt lon="78.516157979420754" lat="17.629952616966229">
        <ele>518.227</ele>
        <time>2024-09-25T11:09:01Z</time>
      </trkpt>
      <trkpt lon="78.516158340086221" lat="17.629953840076571">
        <ele>518.19</ele>
        <time>2024-09-25T11:09:01Z</time>
      </trkpt>
      <trkpt lon="78.516158700811729" lat="17.629955063008566">
        <ele>518.155</ele>
        <time>2024-09-25T11:09:01Z</time>
      </trkpt>
      <trkpt lon="78.516159061765677" lat="17.62995628635257">
        <ele>518.123</ele>
        <time>2024-09-25T11:09:01Z</time>
      </trkpt>
      <trkpt lon="78.516159423067066" lat="17.629957510539292">
        <ele>518.094</ele>
        <time>2024-09-25T11:09:01Z</time>
      </trkpt>
      <trkpt lon="78.516159784793544" lat="17.629958735864143">
        <ele>518.069</ele>
        <time>2024-09-25T11:09:01Z</time>
      </trkpt>
      <trkpt lon="78.516160146988867" lat="17.629959962510281">
        <ele>518.047</ele>
        <time>2024-09-25T11:09:01Z</time>
      </trkpt>
      <trkpt lon="78.51616050966976" lat="17.629961190569887">
        <ele>518.028</ele>
        <time>2024-09-25T11:09:01Z</time>
      </trkpt>
      <trkpt lon="78.516160872831932" lat="17.629962420063364">
        <ele>518.013</ele>
        <time>2024-09-25T11:09:01Z</time>
      </trkpt>
      <trkpt lon="78.516161236455474" lat="17.629963650956288">
        <ele>518</ele>
        <time>2024-09-25T11:09:01Z</time>
      </trkpt>
      <trkpt lon="78.516161600509335" lat="17.629964883174107">
        <ele>517.991</ele>
        <time>2024-09-25T11:09:01Z</time>
      </trkpt>
      <trkpt lon="78.516161964955145" lat="17.629966116614622">
        <ele>517.983</ele>
        <time>2024-09-25T11:09:01Z</time>
      </trkpt>
      <trkpt lon="78.516162329750401" lat="17.629967351158321">
        <ele>517.978</ele>
        <time>2024-09-25T11:09:01Z</time>
      </trkpt>
      <trkpt lon="78.516162796447958" lat="17.62996884399352">
        <ele>518.282</ele>
        <time>2024-09-25T11:09:02Z</time>
      </trkpt>
      <trkpt lon="78.516163246209913" lat="17.629970206559509">
        <ele>518.539</ele>
        <time>2024-09-25T11:09:02Z</time>
      </trkpt>
      <trkpt lon="78.516163680146093" lat="17.629971455417738">
        <ele>518.752</ele>
        <time>2024-09-25T11:09:02Z</time>
      </trkpt>
      <trkpt lon="78.516164099642722" lat="17.629972607001452">
        <ele>518.924</ele>
        <time>2024-09-25T11:09:02Z</time>
      </trkpt>
      <trkpt lon="78.516164506246199" lat="17.629973677076528">
        <ele>519.059</ele>
        <time>2024-09-25T11:09:02Z</time>
      </trkpt>
      <trkpt lon="78.516164901570008" lat="17.629974680358245">
        <ele>519.162</ele>
        <time>2024-09-25T11:09:02Z</time>
      </trkpt>
      <trkpt lon="78.516165287222151" lat="17.62997563025888">
        <ele>519.237</ele>
        <time>2024-09-25T11:09:02Z</time>
      </trkpt>
      <trkpt lon="78.516165664750645" lat="17.629976538742685">
        <ele>519.288</ele>
        <time>2024-09-25T11:09:02Z</time>
      </trkpt>
      <trkpt lon="78.516166035604542" lat="17.629977416266872">
        <ele>519.319</ele>
        <time>2024-09-25T11:09:02Z</time>
      </trkpt>
      <trkpt lon="78.516166401107952" lat="17.629978271789447">
        <ele>519.335</ele>
        <time>2024-09-25T11:09:02Z</time>
      </trkpt>
      <trkpt lon="78.51616676244484" lat="17.629979112827179">
        <ele>519.338</ele>
        <time>2024-09-25T11:09:02Z</time>
      </trkpt>
      <trkpt lon="78.516167120652398" lat="17.629979945549383">
        <ele>519.331</ele>
        <time>2024-09-25T11:09:02Z</time>
      </trkpt>
      <trkpt lon="78.516167476621149" lat="17.629980774895365">
        <ele>519.318</ele>
        <time>2024-09-25T11:09:02Z</time>
      </trkpt>
      <trkpt lon="78.516167831100134" lat="17.629981604705709">
        <ele>519.299</ele>
        <time>2024-09-25T11:09:02Z</time>
      </trkpt>
      <trkpt lon="78.516168184705734" lat="17.629982437859379">
        <ele>519.278</ele>
        <time>2024-09-25T11:09:02Z</time>
      </trkpt>
      <trkpt lon="78.516168537932913" lat="17.629983276410471">
        <ele>519.256</ele>
        <time>2024-09-25T11:09:02Z</time>
      </trkpt>
      <trkpt lon="78.516168891167922" lat="17.62998412171995">
        <ele>519.232</ele>
        <time>2024-09-25T11:09:02Z</time>
      </trkpt>
      <trkpt lon="78.516169244701672" lat="17.629984974579017">
        <ele>519.21</ele>
        <time>2024-09-25T11:09:02Z</time>
      </trkpt>
      <trkpt lon="78.516169598743048" lat="17.629985835321907">
        <ele>519.189</ele>
        <time>2024-09-25T11:09:02Z</time>
      </trkpt>
      <trkpt lon="78.516169953431913" lat="17.629986703926768">
        <ele>519.169</ele>
        <time>2024-09-25T11:09:02Z</time>
      </trkpt>
      <trkpt lon="78.516170308851187" lat="17.629987580104089">
        <ele>519.151</ele>
        <time>2024-09-25T11:09:02Z</time>
      </trkpt>
      <trkpt lon="78.516170665038018" lat="17.629988463372658">
        <ele>519.135</ele>
        <time>2024-09-25T11:09:02Z</time>
      </trkpt>
      <trkpt lon="78.51617102199377" lat="17.629989353123449">
        <ele>519.122</ele>
        <time>2024-09-25T11:09:02Z</time>
      </trkpt>
      <trkpt lon="78.51617137969275" lat="17.629990248672247">
        <ele>519.11</ele>
        <time>2024-09-25T11:09:02Z</time>
      </trkpt>
      <trkpt lon="78.516171738089753" lat="17.629991149301926">
        <ele>519.101</ele>
        <time>2024-09-25T11:09:02Z</time>
      </trkpt>
      <trkpt lon="78.516172097126514" lat="17.629992054295442">
        <ele>519.093</ele>
        <time>2024-09-25T11:09:02Z</time>
      </trkpt>
      <trkpt lon="78.516172456736882" lat="17.629992962960738">
        <ele>519.087</ele>
        <time>2024-09-25T11:09:02Z</time>
      </trkpt>
      <trkpt lon="78.516172816851039" lat="17.629993874648601">
        <ele>519.082</ele>
        <time>2024-09-25T11:09:02Z</time>
      </trkpt>
      <trkpt lon="78.516173177398883" lat="17.629994788764684">
        <ele>519.078</ele>
        <time>2024-09-25T11:09:02Z</time>
      </trkpt>
      <trkpt lon="78.516173633167597" lat="17.629995943553052">
        <ele>518.749</ele>
        <time>2024-09-25T11:09:03Z</time>
      </trkpt>
      <trkpt lon="78.516174067577026" lat="17.629997043673995">
        <ele>518.472</ele>
        <time>2024-09-25T11:09:03Z</time>
      </trkpt>
      <trkpt lon="78.516174482525713" lat="17.629998093899335">
        <ele>518.244</ele>
        <time>2024-09-25T11:09:03Z</time>
      </trkpt>
      <trkpt lon="78.516174880120658" lat="17.629999099558951">
        <ele>518.06</ele>
        <time>2024-09-25T11:09:03Z</time>
      </trkpt>
      <trkpt lon="78.516175262552821" lat="17.630000066218333">
        <ele>517.917</ele>
        <time>2024-09-25T11:09:03Z</time>
      </trkpt>
      <trkpt lon="78.516175632000412" lat="17.630000999427264">
        <ele>517.81</ele>
        <time>2024-09-25T11:09:03Z</time>
      </trkpt>
      <trkpt lon="78.516175990556277" lat="17.630001904530953">
        <ele>517.732</ele>
        <time>2024-09-25T11:09:03Z</time>
      </trkpt>
      <trkpt lon="78.516176340176344" lat="17.630002786534785">
        <ele>517.681</ele>
        <time>2024-09-25T11:09:03Z</time>
      </trkpt>
      <trkpt lon="78.516176682645337" lat="17.630003650014118">
        <ele>517.65</ele>
        <time>2024-09-25T11:09:03Z</time>
      </trkpt>
      <trkpt lon="78.516177019556949" lat="17.630004499061272">
        <ele>517.636</ele>
        <time>2024-09-25T11:09:03Z</time>
      </trkpt>
      <trkpt lon="78.516177352305547" lat="17.630005337262315">
        <ele>517.636</ele>
        <time>2024-09-25T11:09:03Z</time>
      </trkpt>
      <trkpt lon="78.516177682086806" lat="17.630006167697157">
        <ele>517.645</ele>
        <time>2024-09-25T11:09:03Z</time>
      </trkpt>
      <trkpt lon="78.516178009905076" lat="17.630006992957199">
        <ele>517.662</ele>
        <time>2024-09-25T11:09:03Z</time>
      </trkpt>
      <trkpt lon="78.516178336585668" lat="17.630007815175585">
        <ele>517.683</ele>
        <time>2024-09-25T11:09:03Z</time>
      </trkpt>
      <trkpt lon="78.516178662790168" lat="17.630008636065952">
        <ele>517.708</ele>
        <time>2024-09-25T11:09:03Z</time>
      </trkpt>
      <trkpt lon="78.516178989033861" lat="17.630009456966192">
        <ele>517.734</ele>
        <time>2024-09-25T11:09:03Z</time>
      </trkpt>
      <trkpt lon="78.516179315703809" lat="17.630010278884477">
        <ele>517.76</ele>
        <time>2024-09-25T11:09:03Z</time>
      </trkpt>
      <trkpt lon="78.516179643076995" lat="17.630011102545431">
        <ele>517.785</ele>
        <time>2024-09-25T11:09:03Z</time>
      </trkpt>
      <trkpt lon="78.516179971337749" lat="17.630011928434765">
        <ele>517.808</ele>
        <time>2024-09-25T11:09:03Z</time>
      </trkpt>
      <trkpt lon="78.516180300594243" lat="17.630012756841225">
        <ele>517.83</ele>
        <time>2024-09-25T11:09:03Z</time>
      </trkpt>
      <trkpt lon="78.516180630893402" lat="17.630013587895057">
        <ele>517.85</ele>
        <time>2024-09-25T11:09:03Z</time>
      </trkpt>
      <trkpt lon="78.516180962234429" lat="17.630014421602503">
        <ele>517.867</ele>
        <time>2024-09-25T11:09:03Z</time>
      </trkpt>
      <trkpt lon="78.516181294580491" lat="17.63001525787611">
        <ele>517.881</ele>
        <time>2024-09-25T11:09:03Z</time>
      </trkpt>
      <trkpt lon="78.51618162786896" lat="17.63001609656083">
        <ele>517.894</ele>
        <time>2024-09-25T11:09:03Z</time>
      </trkpt>
      <trkpt lon="78.516181962019886" lat="17.630016937456052">
        <ele>517.904</ele>
        <time>2024-09-25T11:09:03Z</time>
      </trkpt>
      <trkpt lon="78.516182296943015" lat="17.630017780333791">
        <ele>517.913</ele>
        <time>2024-09-25T11:09:03Z</time>
      </trkpt>
      <trkpt lon="78.516182632543547" lat="17.630018624953326">
        <ele>517.919</ele>
        <time>2024-09-25T11:09:03Z</time>
      </trkpt>
      <trkpt lon="78.516182968726454" lat="17.630019471072714">
        <ele>517.924</ele>
        <time>2024-09-25T11:09:03Z</time>
      </trkpt>
      <trkpt lon="78.51618330539992" lat="17.630020318457483">
        <ele>517.928</ele>
        <time>2024-09-25T11:09:03Z</time>
      </trkpt>
      <trkpt lon="78.516183684801931" lat="17.630021341146918">
        <ele>517.692</ele>
        <time>2024-09-25T11:09:04Z</time>
      </trkpt>
      <trkpt lon="78.516184005341373" lat="17.630022272753543">
        <ele>517.493</ele>
        <time>2024-09-25T11:09:04Z</time>
      </trkpt>
      <trkpt lon="78.516184275609774" lat="17.630023124890311">
        <ele>517.328</ele>
        <time>2024-09-25T11:09:04Z</time>
      </trkpt>
      <trkpt lon="78.516184503829436" lat="17.630023909071156">
        <ele>517.195</ele>
        <time>2024-09-25T11:09:04Z</time>
      </trkpt>
      <trkpt lon="78.516184697658758" lat="17.630024636335506">
        <ele>517.091</ele>
        <time>2024-09-25T11:09:04Z</time>
      </trkpt>
      <trkpt lon="78.51618486406511" lat="17.630025316981705">
        <ele>517.012</ele>
        <time>2024-09-25T11:09:04Z</time>
      </trkpt>
      <trkpt lon="78.516185009252979" lat="17.630025960391809">
        <ele>516.954</ele>
        <time>2024-09-25T11:09:04Z</time>
      </trkpt>
      <trkpt lon="78.516185138636303" lat="17.630026574931328">
        <ele>516.914</ele>
        <time>2024-09-25T11:09:04Z</time>
      </trkpt>
      <trkpt lon="78.516185256845048" lat="17.630027167908967">
        <ele>516.89</ele>
        <time>2024-09-25T11:09:04Z</time>
      </trkpt>
      <trkpt lon="78.516185367757473" lat="17.630027745582961">
        <ele>516.878</ele>
        <time>2024-09-25T11:09:04Z</time>
      </trkpt>
      <trkpt lon="78.516185474550426" lat="17.630028313202349">
        <ele>516.876</ele>
        <time>2024-09-25T11:09:04Z</time>
      </trkpt>
      <trkpt lon="78.516185579761753" lat="17.630028875073119">
        <ele>516.881</ele>
        <time>2024-09-25T11:09:04Z</time>
      </trkpt>
      <trkpt lon="78.51618568535946" lat="17.630029434640839">
        <ele>516.892</ele>
        <time>2024-09-25T11:09:04Z</time>
      </trkpt>
      <trkpt lon="78.516185792813616" lat="17.630029994582813">
        <ele>516.906</ele>
        <time>2024-09-25T11:09:04Z</time>
      </trkpt>
      <trkpt lon="78.516185903167909" lat="17.630030556904241">
        <ele>516.923</ele>
        <time>2024-09-25T11:09:04Z</time>
      </trkpt>
      <trkpt lon="78.516186017108396" lat="17.630031123034037">
        <ele>516.94</ele>
        <time>2024-09-25T11:09:04Z</time>
      </trkpt>
      <trkpt lon="78.516186135027667" lat="17.630031693917068">
        <ele>516.958</ele>
        <time>2024-09-25T11:09:04Z</time>
      </trkpt>
      <trkpt lon="78.516186257083504" lat="17.630032270100529">
        <ele>516.976</ele>
        <time>2024-09-25T11:09:04Z</time>
      </trkpt>
      <trkpt lon="78.516186383251167" lat="17.630032851812818">
        <ele>516.992</ele>
        <time>2024-09-25T11:09:04Z</time>
      </trkpt>
      <trkpt lon="78.51618651336922" lat="17.630033439034094">
        <ele>517.008</ele>
        <time>2024-09-25T11:09:04Z</time>
      </trkpt>
      <trkpt lon="78.51618664717877" lat="17.630034031558075">
        <ele>517.021</ele>
        <time>2024-09-25T11:09:04Z</time>
      </trkpt>
      <trkpt lon="78.516186784356449" lat="17.630034629045117">
        <ele>517.034</ele>
        <time>2024-09-25T11:09:04Z</time>
      </trkpt>
      <trkpt lon="78.516186924541543" lat="17.630035231066817">
        <ele>517.044</ele>
        <time>2024-09-25T11:09:04Z</time>
      </trkpt>
      <trkpt lon="78.516187067357691" lat="17.630035837142756">
        <ele>517.053</ele>
        <time>2024-09-25T11:09:04Z</time>
      </trkpt>
      <trkpt lon="78.516187212429813" lat="17.630036446769992">
        <ele>517.061</ele>
        <time>2024-09-25T11:09:04Z</time>
      </trkpt>
      <trkpt lon="78.516187359396795" lat="17.63003705944606">
        <ele>517.067</ele>
        <time>2024-09-25T11:09:04Z</time>
      </trkpt>
      <trkpt lon="78.516187507920662" lat="17.630037674686317">
        <ele>517.071</ele>
        <time>2024-09-25T11:09:04Z</time>
      </trkpt>
      <trkpt lon="78.516187657692555" lat="17.630038292036378">
        <ele>517.075</ele>
        <time>2024-09-25T11:09:04Z</time>
      </trkpt>
      <trkpt lon="78.516187808436271" lat="17.630038911080447">
        <ele>517.078</ele>
        <time>2024-09-25T11:09:04Z</time>
      </trkpt>
      <trkpt lon="78.51618800167239" lat="17.630039713478176">
        <ele>517.184</ele>
        <time>2024-09-25T11:09:05Z</time>
      </trkpt>
      <trkpt lon="78.516188188300276" lat="17.63004049601226">
        <ele>517.274</ele>
        <time>2024-09-25T11:09:05Z</time>
      </trkpt>
      <trkpt lon="78.51618836862842" lat="17.630041258900583">
        <ele>517.347</ele>
        <time>2024-09-25T11:09:05Z</time>
      </trkpt>
      <trkpt lon="78.516188543108157" lat="17.630042002989661">
        <ele>517.406</ele>
        <time>2024-09-25T11:09:05Z</time>
      </trkpt>
      <trkpt lon="78.516188712282812" lat="17.630042729570505">
        <ele>517.451</ele>
        <time>2024-09-25T11:09:05Z</time>
      </trkpt>
      <trkpt lon="78.516188876746185" lat="17.630043440224327">
        <ele>517.485</ele>
        <time>2024-09-25T11:09:05Z</time>
      </trkpt>
      <trkpt lon="78.516189037109513" lat="17.63004413669621">
        <ele>517.51</ele>
        <time>2024-09-25T11:09:05Z</time>
      </trkpt>
      <trkpt lon="78.516189193975961" lat="17.63004482079414">
        <ele>517.526</ele>
        <time>2024-09-25T11:09:05Z</time>
      </trkpt>
      <trkpt lon="78.516189347921639" lat="17.63004549431075">
        <ele>517.535</ele>
        <time>2024-09-25T11:09:05Z</time>
      </trkpt>
      <trkpt lon="78.516189499482252" lat="17.630046158964831">
        <ele>517.539</ele>
        <time>2024-09-25T11:09:05Z</time>
      </trkpt>
      <trkpt lon="78.516189649144465" lat="17.630046816359815">
        <ele>517.539</ele>
        <time>2024-09-25T11:09:05Z</time>
      </trkpt>
      <trkpt lon="78.516189797341042" lat="17.630047467956501">
        <ele>517.536</ele>
        <time>2024-09-25T11:09:05Z</time>
      </trkpt>
      <trkpt lon="78.516189944449152" lat="17.630048115057434">
        <ele>517.53</ele>
        <time>2024-09-25T11:09:05Z</time>
      </trkpt>
      <trkpt lon="78.516190090790872" lat="17.630048758800616">
        <ele>517.523</ele>
        <time>2024-09-25T11:09:05Z</time>
      </trkpt>
      <trkpt lon="78.516190236635623" lat="17.630049400160512">
        <ele>517.514</ele>
        <time>2024-09-25T11:09:05Z</time>
      </trkpt>
      <trkpt lon="78.51619038220376" lat="17.630050039954455">
        <ele>517.506</ele>
        <time>2024-09-25T11:09:05Z</time>
      </trkpt>
      <trkpt lon="78.516190527670972" lat="17.630050678852946">
        <ele>517.497</ele>
        <time>2024-09-25T11:09:05Z</time>
      </trkpt>
      <trkpt lon="78.516190673173227" lat="17.630051317392514">
        <ele>517.489</ele>
        <time>2024-09-25T11:09:05Z</time>
      </trkpt>
      <trkpt lon="78.516190818811793" lat="17.63005195599008">
        <ele>517.481</ele>
        <time>2024-09-25T11:09:05Z</time>
      </trkpt>
      <trkpt lon="78.516190964658279" lat="17.630052594957895">
        <ele>517.474</ele>
        <time>2024-09-25T11:09:05Z</time>
      </trkpt>
      <trkpt lon="78.516191110759436" lat="17.630053234518492">
        <ele>517.468</ele>
        <time>2024-09-25T11:09:05Z</time>
      </trkpt>
      <trkpt lon="78.516191257141671" lat="17.630053874819033">
        <ele>517.462</ele>
        <time>2024-09-25T11:09:05Z</time>
      </trkpt>
      <trkpt lon="78.516191403815128" lat="17.630054515944746">
        <ele>517.458</ele>
        <time>2024-09-25T11:09:05Z</time>
      </trkpt>
      <trkpt lon="78.516191550777336" lat="17.630055157931221">
        <ele>517.454</ele>
        <time>2024-09-25T11:09:05Z</time>
      </trkpt>
      <trkpt lon="78.516191698016385" lat="17.630055800775395">
        <ele>517.45</ele>
        <time>2024-09-25T11:09:05Z</time>
      </trkpt>
      <trkpt lon="78.516191845513717" lat="17.630056444445177">
        <ele>517.448</ele>
        <time>2024-09-25T11:09:05Z</time>
      </trkpt>
      <trkpt lon="78.516191993246352" lat="17.630057088887703">
        <ele>517.446</ele>
        <time>2024-09-25T11:09:05Z</time>
      </trkpt>
      <trkpt lon="78.516192141188796" lat="17.630057734036278">
        <ele>517.444</ele>
        <time>2024-09-25T11:09:05Z</time>
      </trkpt>
      <trkpt lon="78.516192289314546" lat="17.630058379816113">
        <ele>517.443</ele>
        <time>2024-09-25T11:09:05Z</time>
      </trkpt>
      <trkpt lon="78.516192506795619" lat="17.630059267547193">
        <ele>517.464</ele>
        <time>2024-09-25T11:09:06Z</time>
      </trkpt>
      <trkpt lon="78.516192740960392" lat="17.630060177151154">
        <ele>517.482</ele>
        <time>2024-09-25T11:09:06Z</time>
      </trkpt>
      <trkpt lon="78.516192988124217" lat="17.630061101497386">
        <ele>517.497</ele>
        <time>2024-09-25T11:09:06Z</time>
      </trkpt>
      <trkpt lon="78.516193245058076" lat="17.630062034698735">
        <ele>517.509</ele>
        <time>2024-09-25T11:09:06Z</time>
      </trkpt>
      <trkpt lon="78.516193508988593" lat="17.630062972009849">
        <ele>517.519</ele>
        <time>2024-09-25T11:09:06Z</time>
      </trkpt>
      <trkpt lon="78.516193777582174" lat="17.630063909710874">
        <ele>517.526</ele>
        <time>2024-09-25T11:09:06Z</time>
      </trkpt>
      <trkpt lon="78.516194048917782" lat="17.630064844984187">
        <ele>517.532</ele>
        <time>2024-09-25T11:09:06Z</time>
      </trkpt>
      <trkpt lon="78.516194321452033" lat="17.630065775790133">
        <ele>517.536</ele>
        <time>2024-09-25T11:09:06Z</time>
      </trkpt>
      <trkpt lon="78.516194593979932" lat="17.63006670074633">
        <ele>517.538</ele>
        <time>2024-09-25T11:09:06Z</time>
      </trkpt>
      <trkpt lon="78.51619486559332" lat="17.630067619013879">
        <ele>517.539</ele>
        <time>2024-09-25T11:09:06Z</time>
      </trkpt>
      <trkpt lon="78.516195135639393" lat="17.630068530192695">
        <ele>517.54</ele>
        <time>2024-09-25T11:09:06Z</time>
      </trkpt>
      <trkpt lon="78.51619540368047" lat="17.630069434227369">
        <ele>517.54</ele>
        <time>2024-09-25T11:09:06Z</time>
      </trkpt>
      <trkpt lon="78.51619566945628" lat="17.630070331324244">
        <ele>517.539</ele>
        <time>2024-09-25T11:09:06Z</time>
      </trkpt>
      <trkpt lon="78.516195932849257" lat="17.63007122187981">
        <ele>517.538</ele>
        <time>2024-09-25T11:09:06Z</time>
      </trkpt>
      <trkpt lon="78.516196193853546" lat="17.630072106420116">
        <ele>517.536</ele>
        <time>2024-09-25T11:09:06Z</time>
      </trkpt>
      <trkpt lon="78.516196452547717" lat="17.630072985550608">
        <ele>517.535</ele>
        <time>2024-09-25T11:09:06Z</time>
      </trkpt>
      <trkpt lon="78.51619670907121" lat="17.630073859915566">
        <ele>517.533</ele>
        <time>2024-09-25T11:09:06Z</time>
      </trkpt>
      <trkpt lon="78.5161969636045" lat="17.630074730166157">
        <ele>517.532</ele>
        <time>2024-09-25T11:09:06Z</time>
      </trkpt>
      <trkpt lon="78.516197216352765" lat="17.630075596936127">
        <ele>517.531</ele>
        <time>2024-09-25T11:09:06Z</time>
      </trkpt>
      <trkpt lon="78.516197467532677" lat="17.630076460824085">
        <ele>517.529</ele>
        <time>2024-09-25T11:09:06Z</time>
      </trkpt>
      <trkpt lon="78.516197717362019" lat="17.630077322381357">
        <ele>517.528</ele>
        <time>2024-09-25T11:09:06Z</time>
      </trkpt>
      <trkpt lon="78.516197966051891" lat="17.630078182104491">
        <ele>517.527</ele>
        <time>2024-09-25T11:09:06Z</time>
      </trkpt>
      <trkpt lon="78.516198213800948" lat="17.630079040431482">
        <ele>517.526</ele>
        <time>2024-09-25T11:09:06Z</time>
      </trkpt>
      <trkpt lon="78.516198460791628" lat="17.630079897740988">
        <ele>517.525</ele>
        <time>2024-09-25T11:09:06Z</time>
      </trkpt>
      <trkpt lon="78.516198707187826" lat="17.630080754353784">
        <ele>517.524</ele>
        <time>2024-09-25T11:09:06Z</time>
      </trkpt>
      <trkpt lon="78.516198953133681" lat="17.630081610535875">
        <ele>517.524</ele>
        <time>2024-09-25T11:09:06Z</time>
      </trkpt>
      <trkpt lon="78.516199198753554" lat="17.630082466502724">
        <ele>517.523</ele>
        <time>2024-09-25T11:09:06Z</time>
      </trkpt>
      <trkpt lon="78.516199444152463" lat="17.630083322424245">
        <ele>517.523</ele>
        <time>2024-09-25T11:09:06Z</time>
      </trkpt>
      <trkpt lon="78.516199689417235" lat="17.630084178430081">
        <ele>517.523</ele>
        <time>2024-09-25T11:09:06Z</time>
      </trkpt>
      <trkpt lon="78.516200020390258" lat="17.630085309254753">
        <ele>517.434</ele>
        <time>2024-09-25T11:09:07Z</time>
      </trkpt>
      <trkpt lon="78.516200354437615" lat="17.630086430368625">
        <ele>517.36</ele>
        <time>2024-09-25T11:09:07Z</time>
      </trkpt>
      <trkpt lon="78.516200689805274" lat="17.630087539180568">
        <ele>517.299</ele>
        <time>2024-09-25T11:09:07Z</time>
      </trkpt>
      <trkpt lon="78.516201025125099" lat="17.630088634164579">
        <ele>517.249</ele>
        <time>2024-09-25T11:09:07Z</time>
      </trkpt>
      <trkpt lon="78.516201359367486" lat="17.630089714650566">
        <ele>517.211</ele>
        <time>2024-09-25T11:09:07Z</time>
      </trkpt>
      <trkpt lon="78.516201691793682" lat="17.630090780636898">
        <ele>517.182</ele>
        <time>2024-09-25T11:09:07Z</time>
      </trkpt>
      <trkpt lon="78.516202021909919" lat="17.630091832625908">
        <ele>517.161</ele>
        <time>2024-09-25T11:09:07Z</time>
      </trkpt>
      <trkpt lon="78.516202349424177" lat="17.630092871482379">
        <ele>517.146</ele>
        <time>2024-09-25T11:09:07Z</time>
      </trkpt>
      <trkpt lon="78.516202674206681" lat="17.630093898314271">
        <ele>517.138</ele>
        <time>2024-09-25T11:09:07Z</time>
      </trkpt>
      <trkpt lon="78.51620299625452" lat="17.630094914374393">
        <ele>517.134</ele>
        <time>2024-09-25T11:09:07Z</time>
      </trkpt>
      <trkpt lon="78.516203315660448" lat="17.630095920981219">
        <ele>517.134</ele>
        <time>2024-09-25T11:09:07Z</time>
      </trkpt>
      <trkpt lon="78.516203632586127" lat="17.630096919456935">
        <ele>517.136</ele>
        <time>2024-09-25T11:09:07Z</time>
      </trkpt>
      <trkpt lon="78.516203947239546" lat="17.630097911080622">
        <ele>517.14</ele>
        <time>2024-09-25T11:09:07Z</time>
      </trkpt>
      <trkpt lon="78.516204259856451" lat="17.630098897054427">
        <ele>517.146</ele>
        <time>2024-09-25T11:09:07Z</time>
      </trkpt>
      <trkpt lon="78.516204570685247" lat="17.630099878480767">
        <ele>517.152</ele>
        <time>2024-09-25T11:09:07Z</time>
      </trkpt>
      <trkpt lon="78.516204879975277" lat="17.63010085634858">
        <ele>517.159</ele>
        <time>2024-09-25T11:09:07Z</time>
      </trkpt>
      <trkpt lon="78.516205187967955" lat="17.630101831526943">
        <ele>517.166</ele>
        <time>2024-09-25T11:09:07Z</time>
      </trkpt>
      <trkpt lon="78.516205494890301" lat="17.630102804764366">
        <ele>517.173</ele>
        <time>2024-09-25T11:09:07Z</time>
      </trkpt>
      <trkpt lon="78.51620580095063" lat="17.630103776692508">
        <ele>517.179</ele>
        <time>2024-09-25T11:09:07Z</time>
      </trkpt>
      <trkpt lon="78.516206106335929" lat="17.630104747832984">
        <ele>517.185</ele>
        <time>2024-09-25T11:09:07Z</time>
      </trkpt>
      <trkpt lon="78.516206411210561" lat="17.630105718606348">
        <ele>517.19</ele>
        <time>2024-09-25T11:09:07Z</time>
      </trkpt>
      <trkpt lon="78.516206715716166" lat="17.63010668934238">
        <ele>517.195</ele>
        <time>2024-09-25T11:09:07Z</time>
      </trkpt>
      <trkpt lon="78.516207019972356" lat="17.630107660290964">
        <ele>517.199</ele>
        <time>2024-09-25T11:09:07Z</time>
      </trkpt>
      <trkpt lon="78.516207324077939" lat="17.630108631633089">
        <ele>517.202</ele>
        <time>2024-09-25T11:09:07Z</time>
      </trkpt>
      <trkpt lon="78.516207628112625" lat="17.630109603491512">
        <ele>517.205</ele>
        <time>2024-09-25T11:09:07Z</time>
      </trkpt>
      <trkpt lon="78.516207932138954" lat="17.630110575940844">
        <ele>517.207</ele>
        <time>2024-09-25T11:09:07Z</time>
      </trkpt>
      <trkpt lon="78.516208236204392" lat="17.630111549016807">
        <ele>517.209</ele>
        <time>2024-09-25T11:09:07Z</time>
      </trkpt>
      <trkpt lon="78.516208540343342" lat="17.630112522724563">
        <ele>517.21</ele>
        <time>2024-09-25T11:09:07Z</time>
      </trkpt>
      <trkpt lon="78.516208844579197" lat="17.630113497046061">
        <ele>517.211</ele>
        <time>2024-09-25T11:09:07Z</time>
      </trkpt>
      <trkpt lon="78.516209244249495" lat="17.630114719712044">
        <ele>517.088</ele>
        <time>2024-09-25T11:09:08Z</time>
      </trkpt>
      <trkpt lon="78.51620963859601" lat="17.630115877066665">
        <ele>516.983</ele>
        <time>2024-09-25T11:09:08Z</time>
      </trkpt>
      <trkpt lon="78.516210027018815" lat="17.630116975625768">
        <ele>516.897</ele>
        <time>2024-09-25T11:09:08Z</time>
      </trkpt>
      <trkpt lon="78.516210409271423" lat="17.630118022343009">
        <ele>516.828</ele>
        <time>2024-09-25T11:09:08Z</time>
      </trkpt>
      <trkpt lon="78.516210785382285" lat="17.63011902426058">
        <ele>516.773</ele>
        <time>2024-09-25T11:09:08Z</time>
      </trkpt>
      <trkpt lon="78.516211155586149" lat="17.630119988242839">
        <ele>516.732</ele>
        <time>2024-09-25T11:09:08Z</time>
      </trkpt>
      <trkpt lon="78.516211520265145" lat="17.630120920781707">
        <ele>516.702</ele>
        <time>2024-09-25T11:09:08Z</time>
      </trkpt>
      <trkpt lon="78.51621187989916" lat="17.63012182786289">
        <ele>516.682</ele>
        <time>2024-09-25T11:09:08Z</time>
      </trkpt>
      <trkpt lon="78.516212235025179" lat="17.630122714882631">
        <ele>516.67</ele>
        <time>2024-09-25T11:09:08Z</time>
      </trkpt>
      <trkpt lon="78.516212586204517" lat="17.630123586605411">
        <ele>516.664</ele>
        <time>2024-09-25T11:09:08Z</time>
      </trkpt>
      <trkpt lon="78.516212933997394" lat="17.630124447154021">
        <ele>516.663</ele>
        <time>2024-09-25T11:09:08Z</time>
      </trkpt>
      <trkpt lon="78.516213278943724" lat="17.630125300024357">
        <ele>516.666</ele>
        <time>2024-09-25T11:09:08Z</time>
      </trkpt>
      <trkpt lon="78.516213621549326" lat="17.630126148118332">
        <ele>516.672</ele>
        <time>2024-09-25T11:09:08Z</time>
      </trkpt>
      <trkpt lon="78.516213962276822" lat="17.630126993789339">
        <ele>516.679</ele>
        <time>2024-09-25T11:09:08Z</time>
      </trkpt>
      <trkpt lon="78.51621430154016" lat="17.630127838895543">
        <ele>516.688</ele>
        <time>2024-09-25T11:09:08Z</time>
      </trkpt>
      <trkpt lon="78.516214639702227" lat="17.630128684857272">
        <ele>516.697</ele>
        <time>2024-09-25T11:09:08Z</time>
      </trkpt>
      <trkpt lon="78.51621497707481" lat="17.630129532715486">
        <ele>516.707</ele>
        <time>2024-09-25T11:09:08Z</time>
      </trkpt>
      <trkpt lon="78.516215313920355" lat="17.630130383189009">
        <ele>516.716</ele>
        <time>2024-09-25T11:09:08Z</time>
      </trkpt>
      <trkpt lon="78.51621565045501" lat="17.630131236728879">
        <ele>516.725</ele>
        <time>2024-09-25T11:09:08Z</time>
      </trkpt>
      <trkpt lon="78.516215986852501" lat="17.630132093568598">
        <ele>516.733</ele>
        <time>2024-09-25T11:09:08Z</time>
      </trkpt>
      <trkpt lon="78.516216323248571" lat="17.630132953769593">
        <ele>516.74</ele>
        <time>2024-09-25T11:09:08Z</time>
      </trkpt>
      <trkpt lon="78.516216659745567" lat="17.630133817261424">
        <ele>516.747</ele>
        <time>2024-09-25T11:09:08Z</time>
      </trkpt>
      <trkpt lon="78.516216996417157" lat="17.630134683876708">
        <ele>516.752</ele>
        <time>2024-09-25T11:09:08Z</time>
      </trkpt>
      <trkpt lon="78.516217333312781" lat="17.630135553380796">
        <ele>516.757</ele>
        <time>2024-09-25T11:09:08Z</time>
      </trkpt>
      <trkpt lon="78.516217670461955" lat="17.630136425496481">
        <ele>516.761</ele>
        <time>2024-09-25T11:09:08Z</time>
      </trkpt>
      <trkpt lon="78.516218007878123" lat="17.630137299924101">
        <ele>516.764</ele>
        <time>2024-09-25T11:09:08Z</time>
      </trkpt>
      <trkpt lon="78.516218345562123" lat="17.630138176357477">
        <ele>516.766</ele>
        <time>2024-09-25T11:09:08Z</time>
      </trkpt>
      <trkpt lon="78.516218683505301" lat="17.630139054496141">
        <ele>516.768</ele>
        <time>2024-09-25T11:09:08Z</time>
      </trkpt>
      <trkpt lon="78.516219021692123" lat="17.630139934054384">
        <ele>516.77</ele>
        <time>2024-09-25T11:09:08Z</time>
      </trkpt>
      <trkpt lon="78.516219459639444" lat="17.630141055323076">
        <ele>516.554</ele>
        <time>2024-09-25T11:09:09Z</time>
      </trkpt>
      <trkpt lon="78.516219886345354" lat="17.630142132461255">
        <ele>516.371</ele>
        <time>2024-09-25T11:09:09Z</time>
      </trkpt>
      <trkpt lon="78.516220302063886" lat="17.630143168664834">
        <ele>516.221</ele>
        <time>2024-09-25T11:09:09Z</time>
      </trkpt>
      <trkpt lon="78.516220707368106" lat="17.630144167764552">
        <ele>516.099</ele>
        <time>2024-09-25T11:09:09Z</time>
      </trkpt>
      <trkpt lon="78.516221103051691" lat="17.630145133936665">
        <ele>516.004</ele>
        <time>2024-09-25T11:09:09Z</time>
      </trkpt>
      <trkpt lon="78.516221490047045" lat="17.630146071472847">
        <ele>515.932</ele>
        <time>2024-09-25T11:09:09Z</time>
      </trkpt>
      <trkpt lon="78.516221869358745" lat="17.630146984602721">
        <ele>515.88</ele>
        <time>2024-09-25T11:09:09Z</time>
      </trkpt>
      <trkpt lon="78.516222242010926" lat="17.630147877362255">
        <ele>515.844</ele>
        <time>2024-09-25T11:09:09Z</time>
      </trkpt>
      <trkpt lon="78.516222609006846" lat="17.630148753501256">
        <ele>515.823</ele>
        <time>2024-09-25T11:09:09Z</time>
      </trkpt>
      <trkpt lon="78.516222971299243" lat="17.630149616423619">
        <ele>515.813</ele>
        <time>2024-09-25T11:09:09Z</time>
      </trkpt>
      <trkpt lon="78.516223329769645" lat="17.630150469154234">
        <ele>515.811</ele>
        <time>2024-09-25T11:09:09Z</time>
      </trkpt>
      <trkpt lon="78.516223685215266" lat="17.630151314327275">
        <ele>515.817</ele>
        <time>2024-09-25T11:09:09Z</time>
      </trkpt>
      <trkpt lon="78.516224038342159" lat="17.630152154190885">
        <ele>515.827</ele>
        <time>2024-09-25T11:09:09Z</time>
      </trkpt>
      <trkpt lon="78.516224389763039" lat="17.630152990624136">
        <ele>515.84</ele>
        <time>2024-09-25T11:09:09Z</time>
      </trkpt>
      <trkpt lon="78.516224739999046" lat="17.630153825162644">
        <ele>515.856</ele>
        <time>2024-09-25T11:09:09Z</time>
      </trkpt>
      <trkpt lon="78.516225089484195" lat="17.630154659029778">
        <ele>515.872</ele>
        <time>2024-09-25T11:09:09Z</time>
      </trkpt>
      <trkpt lon="78.516225438571681" lat="17.630155493171046">
        <ele>515.889</ele>
        <time>2024-09-25T11:09:09Z</time>
      </trkpt>
      <trkpt lon="78.5162257875416" lat="17.630156328289672">
        <ele>515.905</ele>
        <time>2024-09-25T11:09:09Z</time>
      </trkpt>
      <trkpt lon="78.516226136609163" lat="17.630157164881812">
        <ele>515.92</ele>
        <time>2024-09-25T11:09:09Z</time>
      </trkpt>
      <trkpt lon="78.516226485933203" lat="17.630158003270299">
        <ele>515.935</ele>
        <time>2024-09-25T11:09:09Z</time>
      </trkpt>
      <trkpt lon="78.516226835624551" lat="17.63015884363611">
        <ele>515.947</ele>
        <time>2024-09-25T11:09:09Z</time>
      </trkpt>
      <trkpt lon="78.516227185753976" lat="17.630159686046991">
        <ele>515.958</ele>
        <time>2024-09-25T11:09:09Z</time>
      </trkpt>
      <trkpt lon="78.516227536359651" lat="17.630160530482996">
        <ele>515.968</ele>
        <time>2024-09-25T11:09:09Z</time>
      </trkpt>
      <trkpt lon="78.51622788745378" lat="17.630161376858752">
        <ele>515.976</ele>
        <time>2024-09-25T11:09:09Z</time>
      </trkpt>
      <trkpt lon="78.516228239028607" lat="17.63016222504254">
        <ele>515.983</ele>
        <time>2024-09-25T11:09:09Z</time>
      </trkpt>
      <trkpt lon="78.516228591061591" lat="17.630163074872275">
        <ele>515.989</ele>
        <time>2024-09-25T11:09:09Z</time>
      </trkpt>
      <trkpt lon="78.51622894351982" lat="17.630163926168613">
        <ele>515.993</ele>
        <time>2024-09-25T11:09:09Z</time>
      </trkpt>
      <trkpt lon="78.516229296363747" lat="17.630164778745431">
        <ele>515.996</ele>
        <time>2024-09-25T11:09:09Z</time>
      </trkpt>
      <trkpt lon="78.516229649550127" lat="17.630165632417956">
        <ele>515.999</ele>
        <time>2024-09-25T11:09:09Z</time>
      </trkpt>
      <trkpt lon="78.516230123827285" lat="17.63016681567758">
        <ele>516.087</ele>
        <time>2024-09-25T11:09:10Z</time>
      </trkpt>
      <trkpt lon="78.516230600615486" lat="17.630168036108671">
        <ele>516.161</ele>
        <time>2024-09-25T11:09:10Z</time>
      </trkpt>
      <trkpt lon="78.516231077671662" lat="17.630169282808769">
        <ele>516.222</ele>
        <time>2024-09-25T11:09:10Z</time>
      </trkpt>
      <trkpt lon="78.516231553295611" lat="17.630170546647129">
        <ele>516.271</ele>
        <time>2024-09-25T11:09:10Z</time>
      </trkpt>
      <trkpt lon="78.516232026255452" lat="17.630171820145669">
        <ele>516.309</ele>
        <time>2024-09-25T11:09:10Z</time>
      </trkpt>
      <trkpt lon="78.516232495715101" lat="17.630173097331802">
        <ele>516.337</ele>
        <time>2024-09-25T11:09:10Z</time>
      </trkpt>
      <trkpt lon="78.516232961165855" lat="17.630174373575226">
        <ele>516.357</ele>
        <time>2024-09-25T11:09:10Z</time>
      </trkpt>
      <trkpt lon="78.51623342236347" lat="17.630175645418294">
        <ele>516.371</ele>
        <time>2024-09-25T11:09:10Z</time>
      </trkpt>
      <trkpt lon="78.516233879271539" lat="17.630176910407393">
        <ele>516.378</ele>
        <time>2024-09-25T11:09:10Z</time>
      </trkpt>
      <trkpt lon="78.516234332011592" lat="17.630178166930985">
        <ele>516.382</ele>
        <time>2024-09-25T11:09:10Z</time>
      </trkpt>
      <trkpt lon="78.516234780819985" lat="17.630179414068269">
        <ele>516.381</ele>
        <time>2024-09-25T11:09:10Z</time>
      </trkpt>
      <trkpt lon="78.516235226011446" lat="17.630180651451102">
        <ele>516.378</ele>
        <time>2024-09-25T11:09:10Z</time>
      </trkpt>
      <trkpt lon="78.516235667948806" lat="17.630181879140743">
        <ele>516.374</ele>
        <time>2024-09-25T11:09:10Z</time>
      </trkpt>
      <trkpt lon="78.516236107018614" lat="17.630183097519996">
        <ele>516.368</ele>
        <time>2024-09-25T11:09:10Z</time>
      </trkpt>
      <trkpt lon="78.516236543611825" lat="17.630184307200768">
        <ele>516.361</ele>
        <time>2024-09-25T11:09:10Z</time>
      </trkpt>
      <trkpt lon="78.516236978109163" lat="17.630185508946418">
        <ele>516.354</ele>
        <time>2024-09-25T11:09:10Z</time>
      </trkpt>
      <trkpt lon="78.516237410870417" lat="17.630186703607954">
        <ele>516.346</ele>
        <time>2024-09-25T11:09:10Z</time>
      </trkpt>
      <trkpt lon="78.516237842227085" lat="17.630187892072904">
        <ele>516.34</ele>
        <time>2024-09-25T11:09:10Z</time>
      </trkpt>
      <trkpt lon="78.516238272477835" lat="17.630189075225502">
        <ele>516.333</ele>
        <time>2024-09-25T11:09:10Z</time>
      </trkpt>
      <trkpt lon="78.516238701886223" lat="17.630190253916787">
        <ele>516.327</ele>
        <time>2024-09-25T11:09:10Z</time>
      </trkpt>
      <trkpt lon="78.516239130680177" lat="17.630191428943224">
        <ele>516.322</ele>
        <time>2024-09-25T11:09:10Z</time>
      </trkpt>
      <trkpt lon="78.516239559052835" lat="17.63019260103248">
        <ele>516.317</ele>
        <time>2024-09-25T11:09:10Z</time>
      </trkpt>
      <trkpt lon="78.51623998716444" lat="17.630193770835088">
        <ele>516.313</ele>
        <time>2024-09-25T11:09:10Z</time>
      </trkpt>
      <trkpt lon="78.516240415144821" lat="17.630194938920837">
        <ele>516.31</ele>
        <time>2024-09-25T11:09:10Z</time>
      </trkpt>
      <trkpt lon="78.51624084309644" lat="17.630196105778868">
        <ele>516.307</ele>
        <time>2024-09-25T11:09:10Z</time>
      </trkpt>
      <trkpt lon="78.516241271097499" lat="17.630197271820549">
        <ele>516.305</ele>
        <time>2024-09-25T11:09:10Z</time>
      </trkpt>
      <trkpt lon="78.516241699205267" lat="17.630198437384319">
        <ele>516.303</ele>
        <time>2024-09-25T11:09:10Z</time>
      </trkpt>
      <trkpt lon="78.516242127459194" lat="17.630199602741904">
        <ele>516.302</ele>
        <time>2024-09-25T11:09:10Z</time>
      </trkpt>
      <trkpt lon="78.51624255588392" lat="17.630200768105283">
        <ele>516.301</ele>
        <time>2024-09-25T11:09:10Z</time>
      </trkpt>
      <trkpt lon="78.516243138807241" lat="17.630202296855146">
        <ele>516.112</ele>
        <time>2024-09-25T11:09:11Z</time>
      </trkpt>
      <trkpt lon="78.516243731168132" lat="17.630203803308255">
        <ele>515.954</ele>
        <time>2024-09-25T11:09:11Z</time>
      </trkpt>
      <trkpt lon="78.516244329148932" lat="17.630205285540708">
        <ele>515.823</ele>
        <time>2024-09-25T11:09:11Z</time>
      </trkpt>
      <trkpt lon="78.516244929676603" lat="17.6302067429434">
        <ele>515.717</ele>
        <time>2024-09-25T11:09:11Z</time>
      </trkpt>
      <trkpt lon="78.516245530346254" lat="17.630208175919481">
        <ele>515.635</ele>
        <time>2024-09-25T11:09:11Z</time>
      </trkpt>
      <trkpt lon="78.516246129340033" lat="17.630209585621174">
        <ele>515.573</ele>
        <time>2024-09-25T11:09:11Z</time>
      </trkpt>
      <trkpt lon="78.51624672534588" lat="17.630210973725333">
        <ele>515.528</ele>
        <time>2024-09-25T11:09:11Z</time>
      </trkpt>
      <trkpt lon="78.516247317478474" lat="17.630212342246057">
        <ele>515.498</ele>
        <time>2024-09-25T11:09:11Z</time>
      </trkpt>
      <trkpt lon="78.516247905204978" lat="17.630213693381727">
        <ele>515.481</ele>
        <time>2024-09-25T11:09:11Z</time>
      </trkpt>
      <trkpt lon="78.516248488276744" lat="17.630215029393277">
        <ele>515.472</ele>
        <time>2024-09-25T11:09:11Z</time>
      </trkpt>
      <trkpt lon="78.516249066667996" lat="17.630216352510278">
        <ele>515.472</ele>
        <time>2024-09-25T11:09:11Z</time>
      </trkpt>
      <trkpt lon="78.516249640521835" lat="17.630217664861235">
        <ele>515.477</ele>
        <time>2024-09-25T11:09:11Z</time>
      </trkpt>
      <trkpt lon="78.516250210103749" lat="17.63021896842454">
        <ele>515.486</ele>
        <time>2024-09-25T11:09:11Z</time>
      </trkpt>
      <trkpt lon="78.516250775762188" lat="17.630220264996723">
        <ele>515.499</ele>
        <time>2024-09-25T11:09:11Z</time>
      </trkpt>
      <trkpt lon="78.516251337896108" lat="17.630221556174831">
        <ele>515.512</ele>
        <time>2024-09-25T11:09:11Z</time>
      </trkpt>
      <trkpt lon="78.516251896928637" lat="17.630222843350076">
        <ele>515.527</ele>
        <time>2024-09-25T11:09:11Z</time>
      </trkpt>
      <trkpt lon="78.516252453286455" lat="17.630224127710186">
        <ele>515.542</ele>
        <time>2024-09-25T11:09:11Z</time>
      </trkpt>
      <trkpt lon="78.516253007384066" lat="17.630225410248258">
        <ele>515.556</ele>
        <time>2024-09-25T11:09:11Z</time>
      </trkpt>
      <trkpt lon="78.516253559612437" lat="17.630226691776183">
        <ele>515.57</ele>
        <time>2024-09-25T11:09:11Z</time>
      </trkpt>
      <trkpt lon="78.516254110331218" lat="17.630227972941057">
        <ele>515.582</ele>
        <time>2024-09-25T11:09:11Z</time>
      </trkpt>
      <trkpt lon="78.516254659863932" lat="17.630229254243282">
        <ele>515.593</ele>
        <time>2024-09-25T11:09:11Z</time>
      </trkpt>
      <trkpt lon="78.516255208495636" lat="17.630230536055294">
        <ele>515.603</ele>
        <time>2024-09-25T11:09:11Z</time>
      </trkpt>
      <trkpt lon="78.516255756472503" lat="17.630231818640137">
        <ele>515.611</ele>
        <time>2024-09-25T11:09:11Z</time>
      </trkpt>
      <trkpt lon="78.516256304002866" lat="17.630233102169267">
        <ele>515.619</ele>
        <time>2024-09-25T11:09:11Z</time>
      </trkpt>
      <trkpt lon="78.516256851259257" lat="17.630234386739126">
        <ele>515.624</ele>
        <time>2024-09-25T11:09:11Z</time>
      </trkpt>
      <trkpt lon="78.516257398381271" lat="17.63023567238627">
        <ele>515.629</ele>
        <time>2024-09-25T11:09:11Z</time>
      </trkpt>
      <trkpt lon="78.516257945478756" lat="17.630236959100852">
        <ele>515.633</ele>
        <time>2024-09-25T11:09:11Z</time>
      </trkpt>
      <trkpt lon="78.516258492635416" lat="17.630238246838363">
        <ele>515.636</ele>
        <time>2024-09-25T11:09:11Z</time>
      </trkpt>
      <trkpt lon="78.516259039912285" lat="17.630239535529743">
        <ele>515.638</ele>
        <time>2024-09-25T11:09:11Z</time>
      </trkpt>
      <trkpt lon="78.516259726590604" lat="17.630241174733403">
        <ele>515.197</ele>
        <time>2024-09-25T11:09:12Z</time>
      </trkpt>
      <trkpt lon="78.516260376480957" lat="17.630242746140325">
        <ele>514.825</ele>
        <time>2024-09-25T11:09:12Z</time>
      </trkpt>
      <trkpt lon="78.516260993283936" lat="17.630244255093647">
        <ele>514.518</ele>
        <time>2024-09-25T11:09:12Z</time>
      </trkpt>
      <trkpt lon="78.516261580938178" lat="17.630245707790053">
        <ele>514.271</ele>
        <time>2024-09-25T11:09:12Z</time>
      </trkpt>
      <trkpt lon="78.51626214342501" lat="17.630247110854448">
        <ele>514.077</ele>
        <time>2024-09-25T11:09:12Z</time>
      </trkpt>
      <trkpt lon="78.516262684619662" lat="17.630248471004467">
        <ele>513.93</ele>
        <time>2024-09-25T11:09:12Z</time>
      </trkpt>
      <trkpt lon="78.516263208182806" lat="17.630249794794334">
        <ele>513.824</ele>
        <time>2024-09-25T11:09:12Z</time>
      </trkpt>
      <trkpt lon="78.516263717486225" lat="17.630251088427482">
        <ele>513.752</ele>
        <time>2024-09-25T11:09:12Z</time>
      </trkpt>
      <trkpt lon="78.516264215566835" lat="17.630252357627466">
        <ele>513.709</ele>
        <time>2024-09-25T11:09:12Z</time>
      </trkpt>
      <trkpt lon="78.516264705103694" lat="17.630253607557332">
        <ele>513.688</ele>
        <time>2024-09-25T11:09:12Z</time>
      </trkpt>
      <trkpt lon="78.51626518841303" lat="17.630254842778299">
        <ele>513.685</ele>
        <time>2024-09-25T11:09:12Z</time>
      </trkpt>
      <trkpt lon="78.516265667457091" lat="17.630256067239511">
        <ele>513.696</ele>
        <time>2024-09-25T11:09:12Z</time>
      </trkpt>
      <trkpt lon="78.516266143863234" lat="17.630257284291563">
        <ele>513.717</ele>
        <time>2024-09-25T11:09:12Z</time>
      </trkpt>
      <trkpt lon="78.516266618949757" lat="17.630258496717506">
        <ele>513.745</ele>
        <time>2024-09-25T11:09:12Z</time>
      </trkpt>
      <trkpt lon="78.516267093756269" lat="17.630259706775906">
        <ele>513.776</ele>
        <time>2024-09-25T11:09:12Z</time>
      </trkpt>
      <trkpt lon="78.516267569076163" lat="17.630260916251522">
        <ele>513.81</ele>
        <time>2024-09-25T11:09:12Z</time>
      </trkpt>
      <trkpt lon="78.516268045489667" lat="17.630262126509979">
        <ele>513.844</ele>
        <time>2024-09-25T11:09:12Z</time>
      </trkpt>
      <trkpt lon="78.516268523396192" lat="17.630263338553522">
        <ele>513.877</ele>
        <time>2024-09-25T11:09:12Z</time>
      </trkpt>
      <trkpt lon="78.516269003044968" lat="17.630264553075655">
        <ele>513.908</ele>
        <time>2024-09-25T11:09:12Z</time>
      </trkpt>
      <trkpt lon="78.516269484563381" lat="17.630265770513077">
        <ele>513.937</ele>
        <time>2024-09-25T11:09:12Z</time>
      </trkpt>
      <trkpt lon="78.516269967982495" lat="17.630266991093738">
        <ele>513.963</ele>
        <time>2024-09-25T11:09:12Z</time>
      </trkpt>
      <trkpt lon="78.51627045325975" lat="17.630268214880303">
        <ele>513.986</ele>
        <time>2024-09-25T11:09:12Z</time>
      </trkpt>
      <trkpt lon="78.516270940298497" lat="17.630269441808675">
        <ele>514.006</ele>
        <time>2024-09-25T11:09:12Z</time>
      </trkpt>
      <trkpt lon="78.516271428964728" lat="17.630270671721423">
        <ele>514.023</ele>
        <time>2024-09-25T11:09:12Z</time>
      </trkpt>
      <trkpt lon="78.516271919100916" lat="17.630271904396228">
        <ele>514.036</ele>
        <time>2024-09-25T11:09:12Z</time>
      </trkpt>
      <trkpt lon="78.516272410537226" lat="17.630273139569582">
        <ele>514.048</ele>
        <time>2024-09-25T11:09:12Z</time>
      </trkpt>
      <trkpt lon="78.516272903100514" lat="17.630274376956073">
        <ele>514.057</ele>
        <time>2024-09-25T11:09:12Z</time>
      </trkpt>
      <trkpt lon="78.516273396621116" lat="17.630275616263695">
        <ele>514.063</ele>
        <time>2024-09-25T11:09:12Z</time>
      </trkpt>
      <trkpt lon="78.516273890937882" lat="17.630276857205608">
        <ele>514.068</ele>
        <time>2024-09-25T11:09:12Z</time>
      </trkpt>
      <trkpt lon="78.51627451549642" lat="17.630278454957988">
        <ele>513.853</ele>
        <time>2024-09-25T11:09:13Z</time>
      </trkpt>
      <trkpt lon="78.516275110539183" lat="17.630280003717509">
        <ele>513.671</ele>
        <time>2024-09-25T11:09:13Z</time>
      </trkpt>
      <trkpt lon="78.516275678688885" lat="17.630281505702342">
        <ele>513.521</ele>
        <time>2024-09-25T11:09:13Z</time>
      </trkpt>
      <trkpt lon="78.516276222856575" lat="17.630282964209009">
        <ele>513.399</ele>
        <time>2024-09-25T11:09:13Z</time>
      </trkpt>
      <trkpt lon="78.516276746069465" lat="17.630284383232436">
        <ele>513.303</ele>
        <time>2024-09-25T11:09:13Z</time>
      </trkpt>
      <trkpt lon="78.5162772513373" lat="17.630285767155272">
        <ele>513.23</ele>
        <time>2024-09-25T11:09:13Z</time>
      </trkpt>
      <trkpt lon="78.516277741552059" lat="17.630287120500245">
        <ele>513.177</ele>
        <time>2024-09-25T11:09:13Z</time>
      </trkpt>
      <trkpt lon="78.516278219416563" lat="17.630288447738586">
        <ele>513.14</ele>
        <time>2024-09-25T11:09:13Z</time>
      </trkpt>
      <trkpt lon="78.516278687397147" lat="17.630289753147444">
        <ele>513.118</ele>
        <time>2024-09-25T11:09:13Z</time>
      </trkpt>
      <trkpt lon="78.51627914769621" lat="17.63029104070911">
        <ele>513.106</ele>
        <time>2024-09-25T11:09:13Z</time>
      </trkpt>
      <trkpt lon="78.516279602240743" lat="17.63029231404532">
        <ele>513.104</ele>
        <time>2024-09-25T11:09:13Z</time>
      </trkpt>
      <trkpt lon="78.5162800526832" lat="17.630293576380229">
        <ele>513.108</ele>
        <time>2024-09-25T11:09:13Z</time>
      </trkpt>
      <trkpt lon="78.516280500411668" lat="17.630294830526317">
        <ele>513.117</ele>
        <time>2024-09-25T11:09:13Z</time>
      </trkpt>
      <trkpt lon="78.516280946566781" lat="17.630296078888062">
        <ele>513.13</ele>
        <time>2024-09-25T11:09:13Z</time>
      </trkpt>
      <trkpt lon="78.516281392062979" lat="17.630297323478892">
        <ele>513.145</ele>
        <time>2024-09-25T11:09:13Z</time>
      </trkpt>
      <trkpt lon="78.51628183761251" lat="17.630298565947509">
        <ele>513.161</ele>
        <time>2024-09-25T11:09:13Z</time>
      </trkpt>
      <trkpt lon="78.5162822837504" lat="17.630299807610442">
        <ele>513.177</ele>
        <time>2024-09-25T11:09:13Z</time>
      </trkpt>
      <trkpt lon="78.516282730859515" lat="17.630301049488089">
        <ele>513.193</ele>
        <time>2024-09-25T11:09:13Z</time>
      </trkpt>
      <trkpt lon="78.516283179194758" lat="17.630302292342179">
        <ele>513.208</ele>
        <time>2024-09-25T11:09:13Z</time>
      </trkpt>
      <trkpt lon="78.516283628905668" lat="17.630303536713015">
        <ele>513.222</ele>
        <time>2024-09-25T11:09:13Z</time>
      </trkpt>
      <trkpt lon="78.516284080057233" lat="17.6303047829552">
        <ele>513.234</ele>
        <time>2024-09-25T11:09:13Z</time>
      </trkpt>
      <trkpt lon="78.51628453264837" lat="17.630306031271054">
        <ele>513.246</ele>
        <time>2024-09-25T11:09:13Z</time>
      </trkpt>
      <trkpt lon="78.516284986628307" lat="17.630307281741072">
        <ele>513.255</ele>
        <time>2024-09-25T11:09:13Z</time>
      </trkpt>
      <trkpt lon="78.516285441910497" lat="17.630308534351123">
        <ele>513.263</ele>
        <time>2024-09-25T11:09:13Z</time>
      </trkpt>
      <trkpt lon="78.51628589838451" lat="17.630309789016231">
        <ele>513.27</ele>
        <time>2024-09-25T11:09:13Z</time>
      </trkpt>
      <trkpt lon="78.516286355925686" lat="17.630311045600969">
        <ele>513.276</ele>
        <time>2024-09-25T11:09:13Z</time>
      </trkpt>
      <trkpt lon="78.516286814403017" lat="17.630312303936584">
        <ele>513.28</ele>
        <time>2024-09-25T11:09:13Z</time>
      </trkpt>
      <trkpt lon="78.516287273685222" lat="17.630313563835063">
        <ele>513.283</ele>
        <time>2024-09-25T11:09:13Z</time>
      </trkpt>
      <trkpt lon="78.516287733645385" lat="17.630314825100399">
        <ele>513.286</ele>
        <time>2024-09-25T11:09:13Z</time>
      </trkpt>
      <trkpt lon="78.516288327879082" lat="17.630316465085048">
        <ele>512.955</ele>
        <time>2024-09-25T11:09:14Z</time>
      </trkpt>
      <trkpt lon="78.516288905651052" lat="17.630318068769586">
        <ele>512.675</ele>
        <time>2024-09-25T11:09:14Z</time>
      </trkpt>
      <trkpt lon="78.516289467479481" lat="17.630319636071953">
        <ele>512.444</ele>
        <time>2024-09-25T11:09:14Z</time>
      </trkpt>
      <trkpt lon="78.516290014308666" lat="17.630321168193799">
        <ele>512.258</ele>
        <time>2024-09-25T11:09:14Z</time>
      </trkpt>
      <trkpt lon="78.516290547371369" lat="17.630322667262728">
        <ele>512.112</ele>
        <time>2024-09-25T11:09:14Z</time>
      </trkpt>
      <trkpt lon="78.516291068074935" lat="17.63032413603047">
        <ele>512.001</ele>
        <time>2024-09-25T11:09:14Z</time>
      </trkpt>
      <trkpt lon="78.516291577909513" lat="17.630325577623637">
        <ele>511.921</ele>
        <time>2024-09-25T11:09:14Z</time>
      </trkpt>
      <trkpt lon="78.516292078375812" lat="17.630326995342873">
        <ele>511.867</ele>
        <time>2024-09-25T11:09:14Z</time>
      </trkpt>
      <trkpt lon="78.51629257093046" lat="17.630328392505369">
        <ele>511.834</ele>
        <time>2024-09-25T11:09:14Z</time>
      </trkpt>
      <trkpt lon="78.516293056946267" lat="17.630329772325595">
        <ele>511.818</ele>
        <time>2024-09-25T11:09:14Z</time>
      </trkpt>
      <trkpt lon="78.516293537685158" lat="17.63033113782895">
        <ele>511.816</ele>
        <time>2024-09-25T11:09:14Z</time>
      </trkpt>
      <trkpt lon="78.516294014281641" lat="17.630332491793229">
        <ele>511.824</ele>
        <time>2024-09-25T11:09:14Z</time>
      </trkpt>
      <trkpt lon="78.516294487734811" lat="17.630333836713124">
        <ele>511.84</ele>
        <time>2024-09-25T11:09:14Z</time>
      </trkpt>
      <trkpt lon="78.51629495890694" lat="17.630335174783276">
        <ele>511.86</ele>
        <time>2024-09-25T11:09:14Z</time>
      </trkpt>
      <trkpt lon="78.516295428527258" lat="17.630336507895922">
        <ele>511.884</ele>
        <time>2024-09-25T11:09:14Z</time>
      </trkpt>
      <trkpt lon="78.516295897199342" lat="17.630337837649627">
        <ele>511.909</ele>
        <time>2024-09-25T11:09:14Z</time>
      </trkpt>
      <trkpt lon="78.516296365411137" lat="17.630339165366074">
        <ele>511.935</ele>
        <time>2024-09-25T11:09:14Z</time>
      </trkpt>
      <trkpt lon="78.516296833546434" lat="17.630340492112314">
        <ele>511.959</ele>
        <time>2024-09-25T11:09:14Z</time>
      </trkpt>
      <trkpt lon="78.516297301897197" lat="17.630341818726404">
        <ele>511.983</ele>
        <time>2024-09-25T11:09:14Z</time>
      </trkpt>
      <trkpt lon="78.516297770676047" lat="17.630343145844673">
        <ele>512.004</ele>
        <time>2024-09-25T11:09:14Z</time>
      </trkpt>
      <trkpt lon="78.516298240028362" lat="17.630344473929288">
        <ele>512.024</ele>
        <time>2024-09-25T11:09:14Z</time>
      </trkpt>
      <trkpt lon="78.516298710043827" lat="17.630345803295068">
        <ele>512.041</ele>
        <time>2024-09-25T11:09:14Z</time>
      </trkpt>
      <trkpt lon="78.516299180767035" lat="17.630347134134851">
        <ele>512.056</ele>
        <time>2024-09-25T11:09:14Z</time>
      </trkpt>
      <trkpt lon="78.51629965220701" lat="17.630348466542799">
        <ele>512.069</ele>
        <time>2024-09-25T11:09:14Z</time>
      </trkpt>
      <trkpt lon="78.516300124345662" lat="17.630349800535434">
        <ele>512.079</ele>
        <time>2024-09-25T11:09:14Z</time>
      </trkpt>
      <trkpt lon="78.516300597145062" lat="17.630351136070175">
        <ele>512.087</ele>
        <time>2024-09-25T11:09:14Z</time>
      </trkpt>
      <trkpt lon="78.516301070553723" lat="17.630352473061372">
        <ele>512.094</ele>
        <time>2024-09-25T11:09:14Z</time>
      </trkpt>
      <trkpt lon="78.516301544511649" lat="17.630353811393878">
        <ele>512.099</ele>
        <time>2024-09-25T11:09:14Z</time>
      </trkpt>
      <trkpt lon="78.516302018954519" lat="17.630355150934307">
        <ele>512.103</ele>
        <time>2024-09-25T11:09:14Z</time>
      </trkpt>
      <trkpt lon="78.516302643731194" lat="17.630356911224858">
        <ele>511.762</ele>
        <time>2024-09-25T11:09:15Z</time>
      </trkpt>
      <trkpt lon="78.51630326148387" lat="17.630358648563522">
        <ele>511.475</ele>
        <time>2024-09-25T11:09:15Z</time>
      </trkpt>
      <trkpt lon="78.51630387102152" lat="17.630360360149783">
        <ele>511.238</ele>
        <time>2024-09-25T11:09:15Z</time>
      </trkpt>
      <trkpt lon="78.51630447173163" lat="17.630362044766922">
        <ele>511.046</ele>
        <time>2024-09-25T11:09:15Z</time>
      </trkpt>
      <trkpt lon="78.516305063459072" lat="17.630363702434373">
        <ele>510.895</ele>
        <time>2024-09-25T11:09:15Z</time>
      </trkpt>
      <trkpt lon="78.51630564639882" lat="17.630365334102716">
        <ele>510.781</ele>
        <time>2024-09-25T11:09:15Z</time>
      </trkpt>
      <trkpt lon="78.516306221003063" lat="17.63036694139144">
        <ele>510.699</ele>
        <time>2024-09-25T11:09:15Z</time>
      </trkpt>
      <trkpt lon="78.516306787902153" lat="17.630368526368024">
        <ele>510.642</ele>
        <time>2024-09-25T11:09:15Z</time>
      </trkpt>
      <trkpt lon="78.516307347838847" lat="17.63037009136584">
        <ele>510.608</ele>
        <time>2024-09-25T11:09:15Z</time>
      </trkpt>
      <trkpt lon="78.516307901614852" lat="17.630371638837666">
        <ele>510.591</ele>
        <time>2024-09-25T11:09:15Z</time>
      </trkpt>
      <trkpt lon="78.516308450048456" lat="17.6303731712411">
        <ele>510.589</ele>
        <time>2024-09-25T11:09:15Z</time>
      </trkpt>
      <trkpt lon="78.516308993942047" lat="17.630374690952038">
        <ele>510.597</ele>
        <time>2024-09-25T11:09:15Z</time>
      </trkpt>
      <trkpt lon="78.516309534058109" lat="17.630376200202257">
        <ele>510.612</ele>
        <time>2024-09-25T11:09:15Z</time>
      </trkpt>
      <trkpt lon="78.516310071102637" lat="17.630377701037393">
        <ele>510.633</ele>
        <time>2024-09-25T11:09:15Z</time>
      </trkpt>
      <trkpt lon="78.516310605714494" lat="17.630379195291734">
        <ele>510.657</ele>
        <time>2024-09-25T11:09:15Z</time>
      </trkpt>
      <trkpt lon="78.516311138459727" lat="17.63038068457654">
        <ele>510.683</ele>
        <time>2024-09-25T11:09:15Z</time>
      </trkpt>
      <trkpt lon="78.516311669829889" lat="17.630382170278981">
        <ele>510.709</ele>
        <time>2024-09-25T11:09:15Z</time>
      </trkpt>
      <trkpt lon="78.516312200243235" lat="17.630383653569147">
        <ele>510.735</ele>
        <time>2024-09-25T11:09:15Z</time>
      </trkpt>
      <trkpt lon="78.516312730048313" lat="17.630385135412851">
        <ele>510.759</ele>
        <time>2024-09-25T11:09:15Z</time>
      </trkpt>
      <trkpt lon="78.516313259528985" lat="17.630386616588357">
        <ele>510.781</ele>
        <time>2024-09-25T11:09:15Z</time>
      </trkpt>
      <trkpt lon="78.51631378891048" lat="17.630388097705548">
        <ele>510.801</ele>
        <time>2024-09-25T11:09:15Z</time>
      </trkpt>
      <trkpt lon="78.516314318366042" lat="17.630389579226193">
        <ele>510.818</ele>
        <time>2024-09-25T11:09:15Z</time>
      </trkpt>
      <trkpt lon="78.516314848023683" lat="17.63039106148436">
        <ele>510.834</ele>
        <time>2024-09-25T11:09:15Z</time>
      </trkpt>
      <trkpt lon="78.516315377972873" lat="17.630392544706268">
        <ele>510.847</ele>
        <time>2024-09-25T11:09:15Z</time>
      </trkpt>
      <trkpt lon="78.51631590827094" lat="17.63039402902897">
        <ele>510.857</ele>
        <time>2024-09-25T11:09:15Z</time>
      </trkpt>
      <trkpt lon="78.516316438949005" lat="17.630395514517549">
        <ele>510.866</ele>
        <time>2024-09-25T11:09:15Z</time>
      </trkpt>
      <trkpt lon="78.5163169700173" lat="17.63039700118058">
        <ele>510.873</ele>
        <time>2024-09-25T11:09:15Z</time>
      </trkpt>
      <trkpt lon="78.516317501469999" lat="17.630398488983733">
        <ele>510.878</ele>
        <time>2024-09-25T11:09:15Z</time>
      </trkpt>
      <trkpt lon="78.516318033289338" lat="17.63039997786154">
        <ele>510.882</ele>
        <time>2024-09-25T11:09:15Z</time>
      </trkpt>
      <trkpt lon="78.516318722667123" lat="17.630401885539268">
        <ele>510.884</ele>
        <time>2024-09-25T11:09:16Z</time>
      </trkpt>
      <trkpt lon="78.516319394929752" lat="17.630403726517208">
        <ele>510.886</ele>
        <time>2024-09-25T11:09:16Z</time>
      </trkpt>
      <trkpt lon="78.516320050380358" lat="17.630405504934082">
        <ele>510.886</ele>
        <time>2024-09-25T11:09:16Z</time>
      </trkpt>
      <trkpt lon="78.516320689831318" lat="17.630407226082401">
        <ele>510.886</ele>
        <time>2024-09-25T11:09:16Z</time>
      </trkpt>
      <trkpt lon="78.516321314450664" lat="17.630408895940626">
        <ele>510.886</ele>
        <time>2024-09-25T11:09:16Z</time>
      </trkpt>
      <trkpt lon="78.516321925633974" lat="17.630410520796669">
        <ele>510.885</ele>
        <time>2024-09-25T11:09:16Z</time>
      </trkpt>
      <trkpt lon="78.516322524899849" lat="17.630412106953337">
        <ele>510.884</ele>
        <time>2024-09-25T11:09:16Z</time>
      </trkpt>
      <trkpt lon="78.516323113806962" lat="17.630413660505774">
        <ele>510.883</ele>
        <time>2024-09-25T11:09:16Z</time>
      </trkpt>
      <trkpt lon="78.516323693889973" lat="17.630415187180912">
        <ele>510.882</ele>
        <time>2024-09-25T11:09:16Z</time>
      </trkpt>
      <trkpt lon="78.516324266612187" lat="17.630416692229222">
        <ele>510.881</ele>
        <time>2024-09-25T11:09:16Z</time>
      </trkpt>
      <trkpt lon="78.516324833332334" lat="17.630418180359666">
        <ele>510.88</ele>
        <time>2024-09-25T11:09:16Z</time>
      </trkpt>
      <trkpt lon="78.516325395283062" lat="17.630419655709474">
        <ele>510.879</ele>
        <time>2024-09-25T11:09:16Z</time>
      </trkpt>
      <trkpt lon="78.516325953559189" lat="17.630421121841223">
        <ele>510.878</ele>
        <time>2024-09-25T11:09:16Z</time>
      </trkpt>
      <trkpt lon="78.516326509113654" lat="17.630422581760559">
        <ele>510.877</ele>
        <time>2024-09-25T11:09:16Z</time>
      </trkpt>
      <trkpt lon="78.516327062759288" lat="17.630424037948949">
        <ele>510.876</ele>
        <time>2024-09-25T11:09:16Z</time>
      </trkpt>
      <trkpt lon="78.516327615175129" lat="17.63042549240652">
        <ele>510.876</ele>
        <time>2024-09-25T11:09:16Z</time>
      </trkpt>
      <trkpt lon="78.516328166915741" lat="17.630426946701121">
        <ele>510.875</ele>
        <time>2024-09-25T11:09:16Z</time>
      </trkpt>
      <trkpt lon="78.516328718422628" lat="17.630428402020275">
        <ele>510.874</ele>
        <time>2024-09-25T11:09:16Z</time>
      </trkpt>
      <trkpt lon="78.516329270036707" lat="17.630429859223572">
        <ele>510.874</ele>
        <time>2024-09-25T11:09:16Z</time>
      </trkpt>
      <trkpt lon="78.51632982201123" lat="17.630431318893553">
        <ele>510.874</ele>
        <time>2024-09-25T11:09:16Z</time>
      </trkpt>
      <trkpt lon="78.516330374524628" lat="17.630432781383679">
        <ele>510.874</ele>
        <time>2024-09-25T11:09:16Z</time>
      </trkpt>
      <trkpt lon="78.516330927692664" lat="17.630434246862453">
        <ele>510.873</ele>
        <time>2024-09-25T11:09:16Z</time>
      </trkpt>
      <trkpt lon="78.51633148157984" lat="17.630435715353109">
        <ele>510.873</ele>
        <time>2024-09-25T11:09:16Z</time>
      </trkpt>
      <trkpt lon="78.516332036209846" lat="17.630437186768553">
        <ele>510.873</ele>
        <time>2024-09-25T11:09:16Z</time>
      </trkpt>
      <trkpt lon="78.516332591574738" lat="17.630438660941564">
        <ele>510.873</ele>
        <time>2024-09-25T11:09:16Z</time>
      </trkpt>
      <trkpt lon="78.516333147642982" lat="17.630440137650311">
        <ele>510.873</ele>
        <time>2024-09-25T11:09:16Z</time>
      </trkpt>
      <trkpt lon="78.516333704366403" lat="17.630441616639519">
        <ele>510.873</ele>
        <time>2024-09-25T11:09:16Z</time>
      </trkpt>
      <trkpt lon="78.516334261685913" lat="17.63044309763756">
        <ele>510.873</ele>
        <time>2024-09-25T11:09:16Z</time>
      </trkpt>
      <trkpt lon="78.516334819536283" lat="17.630444580369907">
        <ele>510.873</ele>
        <time>2024-09-25T11:09:16Z</time>
      </trkpt>
      <trkpt lon="78.516335574208398" lat="17.630446501108889">
        <ele>510.678</ele>
        <time>2024-09-25T11:09:17Z</time>
      </trkpt>
      <trkpt lon="78.516336337533147" lat="17.630448373129298">
        <ele>510.514</ele>
        <time>2024-09-25T11:09:17Z</time>
      </trkpt>
      <trkpt lon="78.516337105146476" lat="17.630450197380355">
        <ele>510.378</ele>
        <time>2024-09-25T11:09:17Z</time>
      </trkpt>
      <trkpt lon="78.516337873609714" lat="17.630451976236579">
        <ele>510.269</ele>
        <time>2024-09-25T11:09:17Z</time>
      </trkpt>
      <trkpt lon="78.516338640301242" lat="17.63045371306443">
        <ele>510.183</ele>
        <time>2024-09-25T11:09:17Z</time>
      </trkpt>
      <trkpt lon="78.516339403306361" lat="17.630455411861202">
        <ele>510.119</ele>
        <time>2024-09-25T11:09:17Z</time>
      </trkpt>
      <trkpt lon="78.51634016130977" lat="17.630457076960912">
        <ele>510.072</ele>
        <time>2024-09-25T11:09:17Z</time>
      </trkpt>
      <trkpt lon="78.516340913493693" lat="17.630458712800863">
        <ele>510.041</ele>
        <time>2024-09-25T11:09:17Z</time>
      </trkpt>
      <trkpt lon="78.516341659443754" lat="17.630460323742135">
        <ele>510.022</ele>
        <time>2024-09-25T11:09:17Z</time>
      </trkpt>
      <trkpt lon="78.516342399064115" lat="17.630461913936877">
        <ele>510.013</ele>
        <time>2024-09-25T11:09:17Z</time>
      </trkpt>
      <trkpt lon="78.516343132502342" lat="17.630463487235552">
        <ele>510.012</ele>
        <time>2024-09-25T11:09:17Z</time>
      </trkpt>
      <trkpt lon="78.516343860084376" lat="17.630465047127487">
        <ele>510.017</ele>
        <time>2024-09-25T11:09:17Z</time>
      </trkpt>
      <trkpt lon="78.516344582259293" lat="17.630466596708594">
        <ele>510.027</ele>
        <time>2024-09-25T11:09:17Z</time>
      </trkpt>
      <trkpt lon="78.516345299553393" lat="17.630468138670697">
        <ele>510.039</ele>
        <time>2024-09-25T11:09:17Z</time>
      </trkpt>
      <trkpt lon="78.516346012532921" lat="17.630469675307545">
        <ele>510.053</ele>
        <time>2024-09-25T11:09:17Z</time>
      </trkpt>
      <trkpt lon="78.516346721774568" lat="17.630471208533137">
        <ele>510.068</ele>
        <time>2024-09-25T11:09:17Z</time>
      </trkpt>
      <trkpt lon="78.516347427842859" lat="17.630472739908743">
        <ele>510.084</ele>
        <time>2024-09-25T11:09:17Z</time>
      </trkpt>
      <trkpt lon="78.516348131273546" lat="17.630474270675528">
        <ele>510.098</ele>
        <time>2024-09-25T11:09:17Z</time>
      </trkpt>
      <trkpt lon="78.516348832562102" lat="17.630475801790237">
        <ele>510.112</ele>
        <time>2024-09-25T11:09:17Z</time>
      </trkpt>
      <trkpt lon="78.516349532156397" lat="17.630477333962006">
        <ele>510.125</ele>
        <time>2024-09-25T11:09:17Z</time>
      </trkpt>
      <trkpt lon="78.5163502304529" lat="17.630478867688669">
        <ele>510.136</ele>
        <time>2024-09-25T11:09:17Z</time>
      </trkpt>
      <trkpt lon="78.516350927795528" lat="17.630480403291514">
        <ele>510.147</ele>
        <time>2024-09-25T11:09:17Z</time>
      </trkpt>
      <trkpt lon="78.516351624476684" lat="17.630481940947568">
        <ele>510.155</ele>
        <time>2024-09-25T11:09:17Z</time>
      </trkpt>
      <trkpt lon="78.516352320739742" lat="17.630483480718972">
        <ele>510.163</ele>
        <time>2024-09-25T11:09:17Z</time>
      </trkpt>
      <trkpt lon="78.516353016782674" lat="17.630485022579105">
        <ele>510.169</ele>
        <time>2024-09-25T11:09:17Z</time>
      </trkpt>
      <trkpt lon="78.516353712762367" lat="17.630486566435358">
        <ele>510.174</ele>
        <time>2024-09-25T11:09:17Z</time>
      </trkpt>
      <trkpt lon="78.516354408799288" lat="17.630488112148601">
        <ele>510.178</ele>
        <time>2024-09-25T11:09:17Z</time>
      </trkpt>
      <trkpt lon="78.516355104982253" lat="17.630489659549465">
        <ele>510.181</ele>
        <time>2024-09-25T11:09:17Z</time>
      </trkpt>
      <trkpt lon="78.516355801373138" lat="17.630491208451662">
        <ele>510.183</ele>
        <time>2024-09-25T11:09:17Z</time>
      </trkpt>
      <trkpt lon="78.516356643805452" lat="17.630493157747004">
        <ele>509.932</ele>
        <time>2024-09-25T11:09:18Z</time>
      </trkpt>
      <trkpt lon="78.516357413010653" lat="17.630495007935576">
        <ele>509.719</ele>
        <time>2024-09-25T11:09:18Z</time>
      </trkpt>
      <trkpt lon="78.51635811832675" lat="17.630496768499047">
        <ele>509.544</ele>
        <time>2024-09-25T11:09:18Z</time>
      </trkpt>
      <trkpt lon="78.51635876901166" lat="17.630498449697438">
        <ele>509.403</ele>
        <time>2024-09-25T11:09:18Z</time>
      </trkpt>
      <trkpt lon="78.516359373941455" lat="17.630500062021188">
        <ele>509.292</ele>
        <time>2024-09-25T11:09:18Z</time>
      </trkpt>
      <trkpt lon="78.516359941396047" lat="17.63050161577009">
        <ele>509.208</ele>
        <time>2024-09-25T11:09:18Z</time>
      </trkpt>
      <trkpt lon="78.5163604789185" lat="17.630503120742549">
        <ele>509.147</ele>
        <time>2024-09-25T11:09:18Z</time>
      </trkpt>
      <trkpt lon="78.516360993234358" lat="17.630504586018706">
        <ele>509.106</ele>
        <time>2024-09-25T11:09:18Z</time>
      </trkpt>
      <trkpt lon="78.51636149021941" lat="17.630506019821929">
        <ele>509.081</ele>
        <time>2024-09-25T11:09:18Z</time>
      </trkpt>
      <trkpt lon="78.516361974904768" lat="17.630507429444144">
        <ele>509.069</ele>
        <time>2024-09-25T11:09:18Z</time>
      </trkpt>
      <trkpt lon="78.516362451510147" lat="17.630508821221902">
        <ele>509.067</ele>
        <time>2024-09-25T11:09:18Z</time>
      </trkpt>
      <trkpt lon="78.516362923497041" lat="17.630510200551516">
        <ele>509.073</ele>
        <time>2024-09-25T11:09:18Z</time>
      </trkpt>
      <trkpt lon="78.516363393635174" lat="17.630511571933116">
        <ele>509.085</ele>
        <time>2024-09-25T11:09:18Z</time>
      </trkpt>
      <trkpt lon="78.516363864076581" lat="17.630512939035004">
        <ele>509.1</ele>
        <time>2024-09-25T11:09:18Z</time>
      </trkpt>
      <trkpt lon="78.516364336433014" lat="17.630514304771033">
        <ele>509.118</ele>
        <time>2024-09-25T11:09:18Z</time>
      </trkpt>
      <trkpt lon="78.51636481185291" lat="17.63051567138514">
        <ele>509.137</ele>
        <time>2024-09-25T11:09:18Z</time>
      </trkpt>
      <trkpt lon="78.516365291095582" lat="17.630517040538351">
        <ele>509.156</ele>
        <time>2024-09-25T11:09:18Z</time>
      </trkpt>
      <trkpt lon="78.516365774600658" lat="17.630518413394586">
        <ele>509.175</ele>
        <time>2024-09-25T11:09:18Z</time>
      </trkpt>
      <trkpt lon="78.5163662625515" lat="17.630519790702632">
        <ele>509.193</ele>
        <time>2024-09-25T11:09:18Z</time>
      </trkpt>
      <trkpt lon="78.516366754931951" lat="17.630521172872321">
        <ele>509.209</ele>
        <time>2024-09-25T11:09:18Z</time>
      </trkpt>
      <trkpt lon="78.516367251575957" lat="17.630522560043758">
        <ele>509.224</ele>
        <time>2024-09-25T11:09:18Z</time>
      </trkpt>
      <trkpt lon="78.516367752210314" lat="17.630523952148849">
        <ele>509.237</ele>
        <time>2024-09-25T11:09:18Z</time>
      </trkpt>
      <trkpt lon="78.516368256490466" lat="17.630525348964916">
        <ele>509.248</ele>
        <time>2024-09-25T11:09:18Z</time>
      </trkpt>
      <trkpt lon="78.516368764030091" lat="17.630526750160502">
        <ele>509.258</ele>
        <time>2024-09-25T11:09:18Z</time>
      </trkpt>
      <trkpt lon="78.516369274424761" lat="17.630528155333643">
        <ele>509.266</ele>
        <time>2024-09-25T11:09:18Z</time>
      </trkpt>
      <trkpt lon="78.516369787270477" lat="17.630529564043204">
        <ele>509.272</ele>
        <time>2024-09-25T11:09:18Z</time>
      </trkpt>
      <trkpt lon="78.516370302177549" lat="17.630530975833835">
        <ele>509.277</ele>
        <time>2024-09-25T11:09:18Z</time>
      </trkpt>
      <trkpt lon="78.516370818780658" lat="17.630532390255283">
        <ele>509.281</ele>
        <time>2024-09-25T11:09:18Z</time>
      </trkpt>
      <trkpt lon="78.516371336745493" lat="17.630533806876766">
        <ele>509.284</ele>
        <time>2024-09-25T11:09:18Z</time>
      </trkpt>
      <trkpt lon="78.516372012522481" lat="17.630535722045774">
        <ele>509.011</ele>
        <time>2024-09-25T11:09:19Z</time>
      </trkpt>
      <trkpt lon="78.516372675400731" lat="17.630537658182199">
        <ele>508.781</ele>
        <time>2024-09-25T11:09:19Z</time>
      </trkpt>
      <trkpt lon="78.516373324913388" lat="17.630539604296551">
        <ele>508.591</ele>
        <time>2024-09-25T11:09:19Z</time>
      </trkpt>
      <trkpt lon="78.516373961172704" lat="17.630541551758263">
        <ele>508.437</ele>
        <time>2024-09-25T11:09:19Z</time>
      </trkpt>
      <trkpt lon="78.516374584723593" lat="17.630543494014677">
        <ele>508.317</ele>
        <time>2024-09-25T11:09:19Z</time>
      </trkpt>
      <trkpt lon="78.516375196418139" lat="17.630545426307084">
        <ele>508.225</ele>
        <time>2024-09-25T11:09:19Z</time>
      </trkpt>
      <trkpt lon="78.516375797310431" lat="17.630547345394326">
        <ele>508.159</ele>
        <time>2024-09-25T11:09:19Z</time>
      </trkpt>
      <trkpt lon="78.516376388570222" lat="17.630549249291775">
        <ele>508.114</ele>
        <time>2024-09-25T11:09:19Z</time>
      </trkpt>
      <trkpt lon="78.516376971413777" lat="17.63055113703091">
        <ele>508.087</ele>
        <time>2024-09-25T11:09:19Z</time>
      </trkpt>
      <trkpt lon="78.516377547050283" lat="17.630553008442813">
        <ele>508.073</ele>
        <time>2024-09-25T11:09:19Z</time>
      </trkpt>
      <trkpt lon="78.516378116641476" lat="17.630554863967173">
        <ele>508.071</ele>
        <time>2024-09-25T11:09:19Z</time>
      </trkpt>
      <trkpt lon="78.516378681273082" lat="17.630556704487198">
        <ele>508.078</ele>
        <time>2024-09-25T11:09:19Z</time>
      </trkpt>
      <trkpt lon="78.516379241935766" lat="17.630558531189749">
        <ele>508.09</ele>
        <time>2024-09-25T11:09:19Z</time>
      </trkpt>
      <trkpt lon="78.516379799514141" lat="17.630560345449364">
        <ele>508.107</ele>
        <time>2024-09-25T11:09:19Z</time>
      </trkpt>
      <trkpt lon="78.516380354782157" lat="17.630562148734331">
        <ele>508.126</ele>
        <time>2024-09-25T11:09:19Z</time>
      </trkpt>
      <trkpt lon="78.516380908403463" lat="17.630563942532596">
        <ele>508.147</ele>
        <time>2024-09-25T11:09:19Z</time>
      </trkpt>
      <trkpt lon="78.51638146093552" lat="17.63056572829527">
        <ele>508.168</ele>
        <time>2024-09-25T11:09:19Z</time>
      </trkpt>
      <trkpt lon="78.516382012836388" lat="17.630567507395284">
        <ele>508.188</ele>
        <time>2024-09-25T11:09:19Z</time>
      </trkpt>
      <trkpt lon="78.516382564473261" lat="17.630569281098964">
        <ele>508.208</ele>
        <time>2024-09-25T11:09:19Z</time>
      </trkpt>
      <trkpt lon="78.516383116132133" lat="17.630571050548298">
        <ele>508.225</ele>
        <time>2024-09-25T11:09:19Z</time>
      </trkpt>
      <trkpt lon="78.5163836680278" lat="17.630572816751883">
        <ele>508.241</ele>
        <time>2024-09-25T11:09:19Z</time>
      </trkpt>
      <trkpt lon="78.516384220313952" lat="17.630574580582731">
        <ele>508.255</ele>
        <time>2024-09-25T11:09:19Z</time>
      </trkpt>
      <trkpt lon="78.516384773092909" lat="17.630576342781342">
        <ele>508.268</ele>
        <time>2024-09-25T11:09:19Z</time>
      </trkpt>
      <trkpt lon="78.516385326424668" lat="17.630578103962605">
        <ele>508.278</ele>
        <time>2024-09-25T11:09:19Z</time>
      </trkpt>
      <trkpt lon="78.516385880335264" lat="17.630579864625357">
        <ele>508.287</ele>
        <time>2024-09-25T11:09:19Z</time>
      </trkpt>
      <trkpt lon="78.516386434824227" lat="17.630581625163636">
        <ele>508.294</ele>
        <time>2024-09-25T11:09:19Z</time>
      </trkpt>
      <trkpt lon="78.516386989871094" lat="17.630583385878801">
        <ele>508.299</ele>
        <time>2024-09-25T11:09:19Z</time>
      </trkpt>
      <trkpt lon="78.516387545441077" lat="17.630585146991876">
        <ele>508.303</ele>
        <time>2024-09-25T11:09:19Z</time>
      </trkpt>
      <trkpt lon="78.516388101489781" lat="17.630586908655658">
        <ele>508.306</ele>
        <time>2024-09-25T11:09:19Z</time>
      </trkpt>
      <trkpt lon="78.516388706658788" lat="17.630588837547872">
        <ele>508.511</ele>
        <time>2024-09-25T11:09:20Z</time>
      </trkpt>
      <trkpt lon="78.51638919648731" lat="17.630590410769123">
        <ele>508.684</ele>
        <time>2024-09-25T11:09:20Z</time>
      </trkpt>
      <trkpt lon="78.5163895883788" lat="17.630591681837942">
        <ele>508.825</ele>
        <time>2024-09-25T11:09:20Z</time>
      </trkpt>
      <trkpt lon="78.516389898853532" lat="17.630592701590881">
        <ele>508.939</ele>
        <time>2024-09-25T11:09:20Z</time>
      </trkpt>
      <trkpt lon="78.516390143192254" lat="17.630593517077287">
        <ele>509.028</ele>
        <time>2024-09-25T11:09:20Z</time>
      </trkpt>
      <trkpt lon="78.516390335210659" lat="17.630594170857666">
        <ele>509.094</ele>
        <time>2024-09-25T11:09:20Z</time>
      </trkpt>
      <trkpt lon="78.516390487140299" lat="17.630594700630681">
        <ele>509.142</ele>
        <time>2024-09-25T11:09:20Z</time>
      </trkpt>
      <trkpt lon="78.516390609593728" lat="17.630595139120821">
        <ele>509.174</ele>
        <time>2024-09-25T11:09:20Z</time>
      </trkpt>
      <trkpt lon="78.516390711594539" lat="17.630595514166483">
        <ele>509.193</ele>
        <time>2024-09-25T11:09:20Z</time>
      </trkpt>
      <trkpt lon="78.516390800655145" lat="17.630595848956055">
        <ele>509.201</ele>
        <time>2024-09-25T11:09:20Z</time>
      </trkpt>
      <trkpt lon="78.516390882887947" lat="17.630596162367354">
        <ele>509.201</ele>
        <time>2024-09-25T11:09:20Z</time>
      </trkpt>
      <trkpt lon="78.516390963137667" lat="17.63059646937322">
        <ele>509.195</ele>
        <time>2024-09-25T11:09:20Z</time>
      </trkpt>
      <trkpt lon="78.516391045125204" lat="17.630596781482868">
        <ele>509.184</ele>
        <time>2024-09-25T11:09:20Z</time>
      </trkpt>
      <trkpt lon="78.516391131595114" lat="17.63059710719487">
        <ele>509.171</ele>
        <time>2024-09-25T11:09:20Z</time>
      </trkpt>
      <trkpt lon="78.516391224460577" lat="17.63059745244319">
        <ele>509.155</ele>
        <time>2024-09-25T11:09:20Z</time>
      </trkpt>
      <trkpt lon="78.516391324941665" lat="17.630597821022466">
        <ele>509.139</ele>
        <time>2024-09-25T11:09:20Z</time>
      </trkpt>
      <trkpt lon="78.516391433693627" lat="17.630598214982889">
        <ele>509.123</ele>
        <time>2024-09-25T11:09:20Z</time>
      </trkpt>
      <trkpt lon="78.516391550923132" lat="17.63059863498847">
        <ele>509.107</ele>
        <time>2024-09-25T11:09:20Z</time>
      </trkpt>
      <trkpt lon="78.51639167649158" lat="17.630599080635218">
        <ele>509.093</ele>
        <time>2024-09-25T11:09:20Z</time>
      </trkpt>
      <trkpt lon="78.51639181000489" lat="17.630599550728117">
        <ele>509.079</ele>
        <time>2024-09-25T11:09:20Z</time>
      </trkpt>
      <trkpt lon="78.516391950890068" lat="17.630600043517344">
        <ele>509.067</ele>
        <time>2024-09-25T11:09:20Z</time>
      </trkpt>
      <trkpt lon="78.516392098459178" lat="17.63060055689564">
        <ele>509.056</ele>
        <time>2024-09-25T11:09:20Z</time>
      </trkpt>
      <trkpt lon="78.516392251961491" lat="17.630601088559484">
        <ele>509.047</ele>
        <time>2024-09-25T11:09:20Z</time>
      </trkpt>
      <trkpt lon="78.516392410625073" lat="17.630601636137399">
        <ele>509.039</ele>
        <time>2024-09-25T11:09:20Z</time>
      </trkpt>
      <trkpt lon="78.516392573688748" lat="17.630602197289054">
        <ele>509.033</ele>
        <time>2024-09-25T11:09:20Z</time>
      </trkpt>
      <trkpt lon="78.516392740425943" lat="17.630602769778868">
        <ele>509.028</ele>
        <time>2024-09-25T11:09:20Z</time>
      </trkpt>
      <trkpt lon="78.516392910161372" lat="17.630603351527864">
        <ele>509.024</ele>
        <time>2024-09-25T11:09:20Z</time>
      </trkpt>
      <trkpt lon="78.51639308228188" lat="17.630603940647305">
        <ele>509.021</ele>
        <time>2024-09-25T11:09:20Z</time>
      </trkpt>
      <trkpt lon="78.516393256242395" lat="17.630604535457479">
        <ele>509.018</ele>
        <time>2024-09-25T11:09:20Z</time>
      </trkpt>
      <trkpt lon="78.516393527734195" lat="17.630605403235077">
        <ele>509.191</ele>
        <time>2024-09-25T11:09:21Z</time>
      </trkpt>
      <trkpt lon="78.516393832534902" lat="17.630606333879435">
        <ele>509.337</ele>
        <time>2024-09-25T11:09:21Z</time>
      </trkpt>
      <trkpt lon="78.516394163747862" lat="17.630607312817467">
        <ele>509.458</ele>
        <time>2024-09-25T11:09:21Z</time>
      </trkpt>
      <trkpt lon="78.516394515256962" lat="17.630608327386561">
        <ele>509.555</ele>
        <time>2024-09-25T11:09:21Z</time>
      </trkpt>
      <trkpt lon="78.516394881746947" lat="17.630609366804009">
        <ele>509.632</ele>
        <time>2024-09-25T11:09:21Z</time>
      </trkpt>
      <trkpt lon="78.516395258690835" lat="17.630610422078679">
        <ele>509.69</ele>
        <time>2024-09-25T11:09:21Z</time>
      </trkpt>
      <trkpt lon="78.516395642313043" lat="17.630611485882209">
        <ele>509.732</ele>
        <time>2024-09-25T11:09:21Z</time>
      </trkpt>
      <trkpt lon="78.516396029535542" lat="17.630612552394172">
        <ele>509.76</ele>
        <time>2024-09-25T11:09:21Z</time>
      </trkpt>
      <trkpt lon="78.516396417913043" lat="17.630613617132973">
        <ele>509.778</ele>
        <time>2024-09-25T11:09:21Z</time>
      </trkpt>
      <trkpt lon="78.516396805562138" lat="17.630614676781892">
        <ele>509.787</ele>
        <time>2024-09-25T11:09:21Z</time>
      </trkpt>
      <trkpt lon="78.516397191088373" lat="17.630615729017514">
        <ele>509.788</ele>
        <time>2024-09-25T11:09:21Z</time>
      </trkpt>
      <trkpt lon="78.516397573514325" lat="17.630616772345856">
        <ele>509.784</ele>
        <time>2024-09-25T11:09:21Z</time>
      </trkpt>
      <trkpt lon="78.516397952210852" lat="17.630617805950077">
        <ele>509.776</ele>
        <time>2024-09-25T11:09:21Z</time>
      </trkpt>
      <trkpt lon="78.516398326833212" lat="17.630618829552141">
        <ele>509.766</ele>
        <time>2024-09-25T11:09:21Z</time>
      </trkpt>
      <trkpt lon="78.516398697263043" lat="17.630619843289818">
        <ele>509.754</ele>
        <time>2024-09-25T11:09:21Z</time>
      </trkpt>
      <trkpt lon="78.516399063556719" lat="17.630620847609549">
        <ele>509.741</ele>
        <time>2024-09-25T11:09:21Z</time>
      </trkpt>
      <trkpt lon="78.51639942590036" lat="17.630621843174943">
        <ele>509.728</ele>
        <time>2024-09-25T11:09:21Z</time>
      </trkpt>
      <trkpt lon="78.51639978457149" lat="17.630622830790262">
        <ele>509.715</ele>
        <time>2024-09-25T11:09:21Z</time>
      </trkpt>
      <trkpt lon="78.516400139906821" lat="17.63062381133788">
        <ele>509.702</ele>
        <time>2024-09-25T11:09:21Z</time>
      </trkpt>
      <trkpt lon="78.516400492276034" lat="17.630624785728386">
        <ele>509.691</ele>
        <time>2024-09-25T11:09:21Z</time>
      </trkpt>
      <trkpt lon="78.516400842060776" lat="17.630625754862038">
        <ele>509.681</ele>
        <time>2024-09-25T11:09:21Z</time>
      </trkpt>
      <trkpt lon="78.516401189638543" lat="17.630626719600023">
        <ele>509.672</ele>
        <time>2024-09-25T11:09:21Z</time>
      </trkpt>
      <trkpt lon="78.516401535370534" lat="17.63062768074418">
        <ele>509.664</ele>
        <time>2024-09-25T11:09:21Z</time>
      </trkpt>
      <trkpt lon="78.516401879593104" lat="17.630628639023755">
        <ele>509.658</ele>
        <time>2024-09-25T11:09:21Z</time>
      </trkpt>
      <trkpt lon="78.516402222612243" lat="17.630629595087942">
        <ele>509.652</ele>
        <time>2024-09-25T11:09:21Z</time>
      </trkpt>
      <trkpt lon="78.5164025647004" lat="17.630630549503067">
        <ele>509.648</ele>
        <time>2024-09-25T11:09:21Z</time>
      </trkpt>
      <trkpt lon="78.51640290609528" lat="17.630631502753292">
        <ele>509.645</ele>
        <time>2024-09-25T11:09:21Z</time>
      </trkpt>
      <trkpt lon="78.516403247000156" lat="17.630632455244051">
        <ele>509.642</ele>
        <time>2024-09-25T11:09:21Z</time>
      </trkpt>
      <trkpt lon="78.516403587585245" lat="17.630633407307332">
        <ele>509.64</ele>
        <time>2024-09-25T11:09:21Z</time>
      </trkpt>
      <trkpt lon="78.516404066573983" lat="17.630634761195392">
        <ele>509.769</ele>
        <time>2024-09-25T11:09:22Z</time>
      </trkpt>
      <trkpt lon="78.516404566114574" lat="17.630636185146816">
        <ele>509.879</ele>
        <time>2024-09-25T11:09:22Z</time>
      </trkpt>
      <trkpt lon="78.516405080931904" lat="17.630637662157888">
        <ele>509.969</ele>
        <time>2024-09-25T11:09:22Z</time>
      </trkpt>
      <trkpt lon="78.516405606518973" lat="17.630639177568224">
        <ele>510.042</ele>
        <time>2024-09-25T11:09:22Z</time>
      </trkpt>
      <trkpt lon="78.516406139104276" lat="17.630640718993035">
        <ele>510.1</ele>
        <time>2024-09-25T11:09:22Z</time>
      </trkpt>
      <trkpt lon="78.516406675601772" lat="17.630642276193022">
        <ele>510.143</ele>
        <time>2024-09-25T11:09:22Z</time>
      </trkpt>
      <trkpt lon="78.5164072135493" lat="17.630643840901776">
        <ele>510.175</ele>
        <time>2024-09-25T11:09:22Z</time>
      </trkpt>
      <trkpt lon="78.516407751040489" lat="17.630645406627181">
        <ele>510.197</ele>
        <time>2024-09-25T11:09:22Z</time>
      </trkpt>
      <trkpt lon="78.516408286654112" lat="17.630646968440072">
        <ele>510.21</ele>
        <time>2024-09-25T11:09:22Z</time>
      </trkpt>
      <trkpt lon="78.516408819384026" lat="17.630648522760648">
        <ele>510.216</ele>
        <time>2024-09-25T11:09:22Z</time>
      </trkpt>
      <trkpt lon="78.516409348571969" lat="17.630650067150594">
        <ele>510.218</ele>
        <time>2024-09-25T11:09:22Z</time>
      </trkpt>
      <trkpt lon="78.516409873844722" lat="17.630651600116757">
        <ele>510.215</ele>
        <time>2024-09-25T11:09:22Z</time>
      </trkpt>
      <trkpt lon="78.516410395056937" lat="17.630653120930308">
        <ele>510.209</ele>
        <time>2024-09-25T11:09:22Z</time>
      </trkpt>
      <trkpt lon="78.516410912240033" lat="17.630654629463894">
        <ele>510.201</ele>
        <time>2024-09-25T11:09:22Z</time>
      </trkpt>
      <trkpt lon="78.516411425557635" lat="17.630656126047985">
        <ele>510.192</ele>
        <time>2024-09-25T11:09:22Z</time>
      </trkpt>
      <trkpt lon="78.516411935267314" lat="17.630657611346692">
        <ele>510.182</ele>
        <time>2024-09-25T11:09:22Z</time>
      </trkpt>
      <trkpt lon="78.516412441688587" lat="17.63065908625256">
        <ele>510.172</ele>
        <time>2024-09-25T11:09:22Z</time>
      </trkpt>
      <trkpt lon="78.516412945176455" lat="17.630660551799334">
        <ele>510.163</ele>
        <time>2024-09-25T11:09:22Z</time>
      </trkpt>
      <trkpt lon="78.516413446100415" lat="17.630662009091303">
        <ele>510.154</ele>
        <time>2024-09-25T11:09:22Z</time>
      </trkpt>
      <trkpt lon="78.516413944828074" lat="17.630663459247575">
        <ele>510.145</ele>
        <time>2024-09-25T11:09:22Z</time>
      </trkpt>
      <trkpt lon="78.516414441712755" lat="17.630664903359573">
        <ele>510.138</ele>
        <time>2024-09-25T11:09:22Z</time>
      </trkpt>
      <trkpt lon="78.516414937084861" lat="17.630666342459932">
        <ele>510.131</ele>
        <time>2024-09-25T11:09:22Z</time>
      </trkpt>
      <trkpt lon="78.516415431245932" lat="17.630667777501124">
        <ele>510.125</ele>
        <time>2024-09-25T11:09:22Z</time>
      </trkpt>
      <trkpt lon="78.516415924465392" lat="17.630669209342106">
        <ele>510.12</ele>
        <time>2024-09-25T11:09:22Z</time>
      </trkpt>
      <trkpt lon="78.516416416978984" lat="17.630670638741513">
        <ele>510.116</ele>
        <time>2024-09-25T11:09:22Z</time>
      </trkpt>
      <trkpt lon="78.516416908988958" lat="17.630672066356009">
        <ele>510.113</ele>
        <time>2024-09-25T11:09:22Z</time>
      </trkpt>
      <trkpt lon="78.516417400665247" lat="17.630673492742588">
        <ele>510.11</ele>
        <time>2024-09-25T11:09:22Z</time>
      </trkpt>
      <trkpt lon="78.516417892147558" lat="17.630674918363763">
        <ele>510.108</ele>
        <time>2024-09-25T11:09:22Z</time>
      </trkpt>
      <trkpt lon="78.516418383547929" lat="17.630676343594764">
        <ele>510.107</ele>
        <time>2024-09-25T11:09:22Z</time>
      </trkpt>
      <trkpt lon="78.516418939095558" lat="17.630678187761227">
        <ele>510.178</ele>
        <time>2024-09-25T11:09:23Z</time>
      </trkpt>
      <trkpt lon="78.516419410183588" lat="17.630679983195879">
        <ele>510.239</ele>
        <time>2024-09-25T11:09:23Z</time>
      </trkpt>
      <trkpt lon="78.51641980917401" lat="17.630681731346161">
        <ele>510.289</ele>
        <time>2024-09-25T11:09:23Z</time>
      </trkpt>
      <trkpt lon="78.516420147889392" lat="17.630683434945333">
        <ele>510.33</ele>
        <time>2024-09-25T11:09:23Z</time>
      </trkpt>
      <trkpt lon="78.516420437335029" lat="17.630685097600971">
        <ele>510.362</ele>
        <time>2024-09-25T11:09:23Z</time>
      </trkpt>
      <trkpt lon="78.516420687518007" lat="17.630686723454453">
        <ele>510.386</ele>
        <time>2024-09-25T11:09:23Z</time>
      </trkpt>
      <trkpt lon="78.516420907345349" lat="17.630688316905726">
        <ele>510.404</ele>
        <time>2024-09-25T11:09:23Z</time>
      </trkpt>
      <trkpt lon="78.516421104585561" lat="17.630689882396826">
        <ele>510.416</ele>
        <time>2024-09-25T11:09:23Z</time>
      </trkpt>
      <trkpt lon="78.516421285879076" lat="17.63069142424726">
        <ele>510.424</ele>
        <time>2024-09-25T11:09:23Z</time>
      </trkpt>
      <trkpt lon="78.516421456785366" lat="17.630692946534161">
        <ele>510.427</ele>
        <time>2024-09-25T11:09:23Z</time>
      </trkpt>
      <trkpt lon="78.516421621855997" lat="17.630694453010356">
        <ele>510.428</ele>
        <time>2024-09-25T11:09:23Z</time>
      </trkpt>
      <trkpt lon="78.51642178472467" lat="17.630695947053876">
        <ele>510.427</ele>
        <time>2024-09-25T11:09:23Z</time>
      </trkpt>
      <trkpt lon="78.516421948206983" lat="17.630697431642904">
        <ele>510.423</ele>
        <time>2024-09-25T11:09:23Z</time>
      </trkpt>
      <trkpt lon="78.516422114404079" lat="17.630698909350787">
        <ele>510.419</ele>
        <time>2024-09-25T11:09:23Z</time>
      </trkpt>
      <trkpt lon="78.516422284805557" lat="17.630700382356331">
        <ele>510.414</ele>
        <time>2024-09-25T11:09:23Z</time>
      </trkpt>
      <trkpt lon="78.516422460388299" lat="17.630701852465261">
        <ele>510.409</ele>
        <time>2024-09-25T11:09:23Z</time>
      </trkpt>
      <trkpt lon="78.516422641708701" lat="17.630703321139357">
        <ele>510.403</ele>
        <time>2024-09-25T11:09:23Z</time>
      </trkpt>
      <trkpt lon="78.516422828986975" lat="17.630704789530366">
        <ele>510.398</ele>
        <time>2024-09-25T11:09:23Z</time>
      </trkpt>
      <trkpt lon="78.516423022182181" lat="17.630706258516319">
        <ele>510.393</ele>
        <time>2024-09-25T11:09:23Z</time>
      </trkpt>
      <trkpt lon="78.516423221057977" lat="17.630707728738429">
        <ele>510.388</ele>
        <time>2024-09-25T11:09:23Z</time>
      </trkpt>
      <trkpt lon="78.516423425238926" lat="17.630709200637117">
        <ele>510.384</ele>
        <time>2024-09-25T11:09:23Z</time>
      </trkpt>
      <trkpt lon="78.516423634257777" lat="17.630710674486163">
        <ele>510.38</ele>
        <time>2024-09-25T11:09:23Z</time>
      </trkpt>
      <trkpt lon="78.516423847594254" lat="17.630712150424209">
        <ele>510.377</ele>
        <time>2024-09-25T11:09:23Z</time>
      </trkpt>
      <trkpt lon="78.516424064706271" lat="17.63071362848321">
        <ele>510.375</ele>
        <time>2024-09-25T11:09:23Z</time>
      </trkpt>
      <trkpt lon="78.516424285054072" lat="17.630715108613607">
        <ele>510.372</ele>
        <time>2024-09-25T11:09:23Z</time>
      </trkpt>
      <trkpt lon="78.516424508118362" lat="17.63071659070609">
        <ele>510.37</ele>
        <time>2024-09-25T11:09:23Z</time>
      </trkpt>
      <trkpt lon="78.516424733413388" lat="17.630718074610133">
        <ele>510.369</ele>
        <time>2024-09-25T11:09:23Z</time>
      </trkpt>
      <trkpt lon="78.516424960495485" lat="17.630719560149345">
        <ele>510.368</ele>
        <time>2024-09-25T11:09:23Z</time>
      </trkpt>
      <trkpt lon="78.516425188968157" lat="17.630721047133971">
        <ele>510.367</ele>
        <time>2024-09-25T11:09:23Z</time>
      </trkpt>
      <trkpt lon="78.516425538340641" lat="17.630722954961833">
        <ele>510.517</ele>
        <time>2024-09-25T11:09:24Z</time>
      </trkpt>
      <trkpt lon="78.516425925321514" lat="17.630724798419362">
        <ele>510.643</ele>
        <time>2024-09-25T11:09:24Z</time>
      </trkpt>
      <trkpt lon="78.516426342030428" lat="17.630726581205632">
        <ele>510.747</ele>
        <time>2024-09-25T11:09:24Z</time>
      </trkpt>
      <trkpt lon="78.51642678149463" lat="17.630728308216128">
        <ele>510.831</ele>
        <time>2024-09-25T11:09:24Z</time>
      </trkpt>
      <trkpt lon="78.516427237667685" lat="17.630729985078169">
        <ele>510.897</ele>
        <time>2024-09-25T11:09:24Z</time>
      </trkpt>
      <trkpt lon="78.516427705411388" lat="17.630731617775336">
        <ele>510.947</ele>
        <time>2024-09-25T11:09:24Z</time>
      </trkpt>
      <trkpt lon="78.516428180450674" lat="17.630733212351931">
        <ele>510.983</ele>
        <time>2024-09-25T11:09:24Z</time>
      </trkpt>
      <trkpt lon="78.516428659309554" lat="17.630734774688147">
        <ele>511.007</ele>
        <time>2024-09-25T11:09:24Z</time>
      </trkpt>
      <trkpt lon="78.516429139235115" lat="17.630736310336236">
        <ele>511.022</ele>
        <time>2024-09-25T11:09:24Z</time>
      </trkpt>
      <trkpt lon="78.516429618115112" lat="17.630737824408424">
        <ele>511.029</ele>
        <time>2024-09-25T11:09:24Z</time>
      </trkpt>
      <trkpt lon="78.516430094393655" lat="17.630739321507701">
        <ele>511.03</ele>
        <time>2024-09-25T11:09:24Z</time>
      </trkpt>
      <trkpt lon="78.516430566988191" lat="17.630740805693321">
        <ele>511.026</ele>
        <time>2024-09-25T11:09:24Z</time>
      </trkpt>
      <trkpt lon="78.516431035210644" lat="17.63074228047369">
        <ele>511.019</ele>
        <time>2024-09-25T11:09:24Z</time>
      </trkpt>
      <trkpt lon="78.516431498694146" lat="17.630743748820141">
        <ele>511.01</ele>
        <time>2024-09-25T11:09:24Z</time>
      </trkpt>
      <trkpt lon="78.516431957326745" lat="17.630745213195947">
        <ele>510.999</ele>
        <time>2024-09-25T11:09:24Z</time>
      </trkpt>
      <trkpt lon="78.516432411192525" lat="17.630746675595866">
        <ele>510.988</ele>
        <time>2024-09-25T11:09:24Z</time>
      </trkpt>
      <trkpt lon="78.516432860520396" lat="17.630748137592192">
        <ele>510.976</ele>
        <time>2024-09-25T11:09:24Z</time>
      </trkpt>
      <trkpt lon="78.516433305640518" lat="17.63074960038416">
        <ele>510.965</ele>
        <time>2024-09-25T11:09:24Z</time>
      </trkpt>
      <trkpt lon="78.516433746947897" lat="17.630751064848148">
        <ele>510.954</ele>
        <time>2024-09-25T11:09:24Z</time>
      </trkpt>
      <trkpt lon="78.516434184872722" lat="17.630752531586712">
        <ele>510.944</ele>
        <time>2024-09-25T11:09:24Z</time>
      </trkpt>
      <trkpt lon="78.516434619856753" lat="17.63075400097507">
        <ele>510.936</ele>
        <time>2024-09-25T11:09:24Z</time>
      </trkpt>
      <trkpt lon="78.516435052335083" lat="17.630755473204044">
        <ele>510.928</ele>
        <time>2024-09-25T11:09:24Z</time>
      </trkpt>
      <trkpt lon="78.516435482722756" lat="17.630756948318833">
        <ele>510.921</ele>
        <time>2024-09-25T11:09:24Z</time>
      </trkpt>
      <trkpt lon="78.516435911405239" lat="17.630758426253283">
        <ele>510.916</ele>
        <time>2024-09-25T11:09:24Z</time>
      </trkpt>
      <trkpt lon="78.516436338732319" lat="17.630759906859602">
        <ele>510.911</ele>
        <time>2024-09-25T11:09:24Z</time>
      </trkpt>
      <trkpt lon="78.516436765014731" lat="17.630761389933586">
        <ele>510.907</ele>
        <time>2024-09-25T11:09:24Z</time>
      </trkpt>
      <trkpt lon="78.516437190522993" lat="17.630762875235611">
        <ele>510.904</ele>
        <time>2024-09-25T11:09:24Z</time>
      </trkpt>
      <trkpt lon="78.516437615487931" lat="17.630764362507666">
        <ele>510.902</ele>
        <time>2024-09-25T11:09:24Z</time>
      </trkpt>
      <trkpt lon="78.516438040102415" lat="17.630765851486835">
        <ele>510.9</ele>
        <time>2024-09-25T11:09:24Z</time>
      </trkpt>
      <trkpt lon="78.516438615374497" lat="17.630767812632946">
        <ele>510.637</ele>
        <time>2024-09-25T11:09:25Z</time>
      </trkpt>
      <trkpt lon="78.516439197846779" lat="17.630769752073963">
        <ele>510.415</ele>
        <time>2024-09-25T11:09:25Z</time>
      </trkpt>
      <trkpt lon="78.516439784167488" lat="17.630771665992711">
        <ele>510.233</ele>
        <time>2024-09-25T11:09:25Z</time>
      </trkpt>
      <trkpt lon="78.516440371676325" lat="17.630773552398118">
        <ele>510.086</ele>
        <time>2024-09-25T11:09:25Z</time>
      </trkpt>
      <trkpt lon="78.516440958326683" lat="17.630775410744786">
        <ele>509.971</ele>
        <time>2024-09-25T11:09:25Z</time>
      </trkpt>
      <trkpt lon="78.516441542605591" lat="17.630777241596043">
        <ele>509.885</ele>
        <time>2024-09-25T11:09:25Z</time>
      </trkpt>
      <trkpt lon="78.516442123454908" lat="17.630779046331423">
        <ele>509.823</ele>
        <time>2024-09-25T11:09:25Z</time>
      </trkpt>
      <trkpt lon="78.516442700196109" lat="17.630780826897816">
        <ele>509.781</ele>
        <time>2024-09-25T11:09:25Z</time>
      </trkpt>
      <trkpt lon="78.516443272460378" lat="17.630782585602187">
        <ele>509.756</ele>
        <time>2024-09-25T11:09:25Z</time>
      </trkpt>
      <trkpt lon="78.516443840125177" lat="17.630784324942812">
        <ele>509.745</ele>
        <time>2024-09-25T11:09:25Z</time>
      </trkpt>
      <trkpt lon="78.51644440325785" lat="17.6307860474754">
        <ele>509.744</ele>
        <time>2024-09-25T11:09:25Z</time>
      </trkpt>
      <trkpt lon="78.516444962066586" lat="17.63078775571023">
        <ele>509.751</ele>
        <time>2024-09-25T11:09:25Z</time>
      </trkpt>
      <trkpt lon="78.516445516858468" lat="17.630789452036119">
        <ele>509.764</ele>
        <time>2024-09-25T11:09:25Z</time>
      </trkpt>
      <trkpt lon="78.516446068004484" lat="17.630791138667391">
        <ele>509.781</ele>
        <time>2024-09-25T11:09:25Z</time>
      </trkpt>
      <trkpt lon="78.516446615910922" lat="17.630792817609919">
        <ele>509.801</ele>
        <time>2024-09-25T11:09:25Z</time>
      </trkpt>
      <trkpt lon="78.516447160996535" lat="17.630794490642785">
        <ele>509.821</ele>
        <time>2024-09-25T11:09:25Z</time>
      </trkpt>
      <trkpt lon="78.516447703674984" lat="17.630796159312329">
        <ele>509.842</ele>
        <time>2024-09-25T11:09:25Z</time>
      </trkpt>
      <trkpt lon="78.516448244341646" lat="17.630797824935733">
        <ele>509.862</ele>
        <time>2024-09-25T11:09:25Z</time>
      </trkpt>
      <trkpt lon="78.516448783364467" lat="17.6307994886117">
        <ele>509.881</ele>
        <time>2024-09-25T11:09:25Z</time>
      </trkpt>
      <trkpt lon="78.516449321077872" lat="17.630801151236088">
        <ele>509.898</ele>
        <time>2024-09-25T11:09:25Z</time>
      </trkpt>
      <trkpt lon="78.516449857779435" lat="17.63080281352072">
        <ele>509.914</ele>
        <time>2024-09-25T11:09:25Z</time>
      </trkpt>
      <trkpt lon="78.516450393728633" lat="17.630804476013985">
        <ele>509.927</ele>
        <time>2024-09-25T11:09:25Z</time>
      </trkpt>
      <trkpt lon="78.516450929147183" lat="17.630806139122026">
        <ele>509.939</ele>
        <time>2024-09-25T11:09:25Z</time>
      </trkpt>
      <trkpt lon="78.516451464220651" lat="17.630807803129638">
        <ele>509.949</ele>
        <time>2024-09-25T11:09:25Z</time>
      </trkpt>
      <trkpt lon="78.51645199910088" lat="17.630809468220267">
        <ele>509.957</ele>
        <time>2024-09-25T11:09:25Z</time>
      </trkpt>
      <trkpt lon="78.516452533909074" lat="17.630811134494589">
        <ele>509.964</ele>
        <time>2024-09-25T11:09:25Z</time>
      </trkpt>
      <trkpt lon="78.516453068739068" lat="17.630812801987382">
        <ele>509.969</ele>
        <time>2024-09-25T11:09:25Z</time>
      </trkpt>
      <trkpt lon="78.516453603660864" lat="17.630814470682552">
        <ele>509.973</ele>
        <time>2024-09-25T11:09:25Z</time>
      </trkpt>
      <trkpt lon="78.516454138724043" lat="17.630816140526203">
        <ele>509.976</ele>
        <time>2024-09-25T11:09:25Z</time>
      </trkpt>
      <trkpt lon="78.516454800278481" lat="17.630818262397547">
        <ele>509.883</ele>
        <time>2024-09-25T11:09:26Z</time>
      </trkpt>
      <trkpt lon="78.5164554176243" lat="17.630820294552507">
        <ele>509.804</ele>
        <time>2024-09-25T11:09:26Z</time>
      </trkpt>
      <trkpt lon="78.516455995821644" lat="17.630822244254762">
        <ele>509.739</ele>
        <time>2024-09-25T11:09:26Z</time>
      </trkpt>
      <trkpt lon="78.516456540044501" lat="17.630824119843293">
        <ele>509.685</ele>
        <time>2024-09-25T11:09:26Z</time>
      </trkpt>
      <trkpt lon="78.516457055373024" lat="17.630825930178041">
        <ele>509.644</ele>
        <time>2024-09-25T11:09:26Z</time>
      </trkpt>
      <trkpt lon="78.516457546640183" lat="17.630827684203975">
        <ele>509.612</ele>
        <time>2024-09-25T11:09:26Z</time>
      </trkpt>
      <trkpt lon="78.516458018324755" lat="17.6308293906195">
        <ele>509.588</ele>
        <time>2024-09-25T11:09:26Z</time>
      </trkpt>
      <trkpt lon="78.516458474483017" lat="17.630831057635067">
        <ele>509.572</ele>
        <time>2024-09-25T11:09:26Z</time>
      </trkpt>
      <trkpt lon="78.516458918711862" lat="17.630832692808173">
        <ele>509.562</ele>
        <time>2024-09-25T11:09:26Z</time>
      </trkpt>
      <trkpt lon="78.51645935413697" lat="17.630834302941629">
        <ele>509.557</ele>
        <time>2024-09-25T11:09:26Z</time>
      </trkpt>
      <trkpt lon="78.516459783420274" lat="17.630835894033105">
        <ele>509.555</ele>
        <time>2024-09-25T11:09:26Z</time>
      </trkpt>
      <trkpt lon="78.516460208781695" lat="17.630837471265043">
        <ele>509.557</ele>
        <time>2024-09-25T11:09:26Z</time>
      </trkpt>
      <trkpt lon="78.516460632030828" lat="17.630839039025378">
        <ele>509.561</ele>
        <time>2024-09-25T11:09:26Z</time>
      </trkpt>
      <trkpt lon="78.516461054605145" lat="17.630840600950751">
        <ele>509.566</ele>
        <time>2024-09-25T11:09:26Z</time>
      </trkpt>
      <trkpt lon="78.516461477611671" lat="17.63084215998515">
        <ele>509.573</ele>
        <time>2024-09-25T11:09:26Z</time>
      </trkpt>
      <trkpt lon="78.516461901869874" lat="17.630843718448208">
        <ele>509.579</ele>
        <time>2024-09-25T11:09:26Z</time>
      </trkpt>
      <trkpt lon="78.516462327954031" lat="17.630845278108335">
        <ele>509.586</ele>
        <time>2024-09-25T11:09:26Z</time>
      </trkpt>
      <trkpt lon="78.516462756233608" lat="17.630846840257018">
        <ele>509.593</ele>
        <time>2024-09-25T11:09:26Z</time>
      </trkpt>
      <trkpt lon="78.516463186910883" lat="17.630848405781375">
        <ele>509.6</ele>
        <time>2024-09-25T11:09:26Z</time>
      </trkpt>
      <trkpt lon="78.516463620055063" lat="17.630849975232895">
        <ele>509.606</ele>
        <time>2024-09-25T11:09:26Z</time>
      </trkpt>
      <trkpt lon="78.516464055632653" lat="17.630851548890909">
        <ele>509.611</ele>
        <time>2024-09-25T11:09:26Z</time>
      </trkpt>
      <trkpt lon="78.516464493533888" lat="17.6308531268199">
        <ele>509.616</ele>
        <time>2024-09-25T11:09:26Z</time>
      </trkpt>
      <trkpt lon="78.516464933595302" lat="17.630854708920143">
        <ele>509.62</ele>
        <time>2024-09-25T11:09:26Z</time>
      </trkpt>
      <trkpt lon="78.516465375618694" lat="17.630856294971604">
        <ele>509.623</ele>
        <time>2024-09-25T11:09:26Z</time>
      </trkpt>
      <trkpt lon="78.516465819386482" lat="17.630857884671197">
        <ele>509.626</ele>
        <time>2024-09-25T11:09:26Z</time>
      </trkpt>
      <trkpt lon="78.516466264674094" lat="17.630859477663751">
        <ele>509.629</ele>
        <time>2024-09-25T11:09:26Z</time>
      </trkpt>
      <trkpt lon="78.516466711259454" lat="17.630861073567171">
        <ele>509.631</ele>
        <time>2024-09-25T11:09:26Z</time>
      </trkpt>
      <trkpt lon="78.516467158930098" lat="17.630862671992347">
        <ele>509.632</ele>
        <time>2024-09-25T11:09:26Z</time>
      </trkpt>
      <trkpt lon="78.516467607488138" lat="17.63086427255837">
        <ele>509.633</ele>
        <time>2024-09-25T11:09:26Z</time>
      </trkpt>
      <trkpt lon="78.516468211349675" lat="17.63086636668957">
        <ele>509.584</ele>
        <time>2024-09-25T11:09:27Z</time>
      </trkpt>
      <trkpt lon="78.516468819721482" lat="17.630868425741635">
        <ele>509.543</ele>
        <time>2024-09-25T11:09:27Z</time>
      </trkpt>
      <trkpt lon="78.516469429477581" lat="17.630870447640579">
        <ele>509.508</ele>
        <time>2024-09-25T11:09:27Z</time>
      </trkpt>
      <trkpt lon="78.516470038213484" lat="17.630872432113289">
        <ele>509.48</ele>
        <time>2024-09-25T11:09:27Z</time>
      </trkpt>
      <trkpt lon="78.516470644152079" lat="17.630874380253665">
        <ele>509.458</ele>
        <time>2024-09-25T11:09:27Z</time>
      </trkpt>
      <trkpt lon="78.516471246050912" lat="17.630876294148091">
        <ele>509.442</ele>
        <time>2024-09-25T11:09:27Z</time>
      </trkpt>
      <trkpt lon="78.516471843113692" lat="17.63087817655865">
        <ele>509.43</ele>
        <time>2024-09-25T11:09:27Z</time>
      </trkpt>
      <trkpt lon="78.51647243490811" lat="17.630880030660844">
        <ele>509.421</ele>
        <time>2024-09-25T11:09:27Z</time>
      </trkpt>
      <trkpt lon="78.516473021291247" lat="17.630881859831536">
        <ele>509.416</ele>
        <time>2024-09-25T11:09:27Z</time>
      </trkpt>
      <trkpt lon="78.516473602343311" lat="17.630883667482106">
        <ele>509.414</ele>
        <time>2024-09-25T11:09:27Z</time>
      </trkpt>
      <trkpt lon="78.516474178309892" lat="17.630885456931477">
        <ele>509.413</ele>
        <time>2024-09-25T11:09:27Z</time>
      </trkpt>
      <trkpt lon="78.516474749552742" lat="17.630887231313615">
        <ele>509.414</ele>
        <time>2024-09-25T11:09:27Z</time>
      </trkpt>
      <trkpt lon="78.51647531650859" lat="17.630888993514223">
        <ele>509.416</ele>
        <time>2024-09-25T11:09:27Z</time>
      </trkpt>
      <trkpt lon="78.516475879655559" lat="17.630890746131644">
        <ele>509.419</ele>
        <time>2024-09-25T11:09:27Z</time>
      </trkpt>
      <trkpt lon="78.51647643948634" lat="17.630892491457359">
        <ele>509.423</ele>
        <time>2024-09-25T11:09:27Z</time>
      </trkpt>
      <trkpt lon="78.516476996487469" lat="17.630894231471956">
        <ele>509.426</ele>
        <time>2024-09-25T11:09:27Z</time>
      </trkpt>
      <trkpt lon="78.516477551124012" lat="17.63089596785289">
        <ele>509.43</ele>
        <time>2024-09-25T11:09:27Z</time>
      </trkpt>
      <trkpt lon="78.516478103828632" lat="17.630897701990843">
        <ele>509.434</ele>
        <time>2024-09-25T11:09:27Z</time>
      </trkpt>
      <trkpt lon="78.5164786549946" lat="17.630899435012026">
        <ele>509.437</ele>
        <time>2024-09-25T11:09:27Z</time>
      </trkpt>
      <trkpt lon="78.516479204971787" lat="17.630901167804179">
        <ele>509.44</ele>
        <time>2024-09-25T11:09:27Z</time>
      </trkpt>
      <trkpt lon="78.516479754065202" lat="17.63090290104445">
        <ele>509.443</ele>
        <time>2024-09-25T11:09:27Z</time>
      </trkpt>
      <trkpt lon="78.516480302535498" lat="17.630904635227722">
        <ele>509.446</ele>
        <time>2024-09-25T11:09:27Z</time>
      </trkpt>
      <trkpt lon="78.516480850600772" lat="17.630906370694298">
        <ele>509.448</ele>
        <time>2024-09-25T11:09:27Z</time>
      </trkpt>
      <trkpt lon="78.51648139843951" lat="17.630908107656126">
        <ele>509.45</ele>
        <time>2024-09-25T11:09:27Z</time>
      </trkpt>
      <trkpt lon="78.516481946194119" lat="17.630909846221059">
        <ele>509.451</ele>
        <time>2024-09-25T11:09:27Z</time>
      </trkpt>
      <trkpt lon="78.516482493974848" lat="17.630911586414715">
        <ele>509.453</ele>
        <time>2024-09-25T11:09:27Z</time>
      </trkpt>
      <trkpt lon="78.516483041863921" lat="17.630913328199849">
        <ele>509.454</ele>
        <time>2024-09-25T11:09:27Z</time>
      </trkpt>
      <trkpt lon="78.516483589919559" lat="17.630915071493114">
        <ele>509.454</ele>
        <time>2024-09-25T11:09:27Z</time>
      </trkpt>
      <trkpt lon="78.516484138179862" lat="17.630916816179294">
        <ele>509.455</ele>
        <time>2024-09-25T11:09:27Z</time>
      </trkpt>
      <trkpt lon="78.516484814294785" lat="17.630918952686507">
        <ele>509.313</ele>
        <time>2024-09-25T11:09:28Z</time>
      </trkpt>
      <trkpt lon="78.516485443602747" lat="17.630920927653758">
        <ele>509.194</ele>
        <time>2024-09-25T11:09:28Z</time>
      </trkpt>
      <trkpt lon="78.516486031550187" lat="17.630922760545907">
        <ele>509.096</ele>
        <time>2024-09-25T11:09:28Z</time>
      </trkpt>
      <trkpt lon="78.516486583679153" lat="17.630924470969997">
        <ele>509.017</ele>
        <time>2024-09-25T11:09:28Z</time>
      </trkpt>
      <trkpt lon="78.516487105411244" lat="17.630926077959316">
        <ele>508.954</ele>
        <time>2024-09-25T11:09:28Z</time>
      </trkpt>
      <trkpt lon="78.516487601888997" lat="17.630927599453642">
        <ele>508.907</ele>
        <time>2024-09-25T11:09:28Z</time>
      </trkpt>
      <trkpt lon="78.516488077866001" lat="17.630929051945422">
        <ele>508.873</ele>
        <time>2024-09-25T11:09:28Z</time>
      </trkpt>
      <trkpt lon="78.516488537637571" lat="17.630930450263307">
        <ele>508.85</ele>
        <time>2024-09-25T11:09:28Z</time>
      </trkpt>
      <trkpt lon="78.516488985004358" lat="17.630931807466766">
        <ele>508.837</ele>
        <time>2024-09-25T11:09:28Z</time>
      </trkpt>
      <trkpt lon="78.516489423262172" lat="17.630933134828101">
        <ele>508.83</ele>
        <time>2024-09-25T11:09:28Z</time>
      </trkpt>
      <trkpt lon="78.516489855211788" lat="17.630934441880935">
        <ele>508.829</ele>
        <time>2024-09-25T11:09:28Z</time>
      </trkpt>
      <trkpt lon="78.516490283183543" lat="17.630935736517152">
        <ele>508.833</ele>
        <time>2024-09-25T11:09:28Z</time>
      </trkpt>
      <trkpt lon="78.516490709072258" lat="17.630937025116999">
        <ele>508.839</ele>
        <time>2024-09-25T11:09:28Z</time>
      </trkpt>
      <trkpt lon="78.516491134378569" lat="17.630938312699641">
        <ele>508.848</ele>
        <time>2024-09-25T11:09:28Z</time>
      </trkpt>
      <trkpt lon="78.516491560253939" lat="17.630939603083927">
        <ele>508.858</ele>
        <time>2024-09-25T11:09:28Z</time>
      </trkpt>
      <trkpt lon="78.516491987546601" lat="17.630940899051271">
        <ele>508.869</ele>
        <time>2024-09-25T11:09:28Z</time>
      </trkpt>
      <trkpt lon="78.516492416846759" lat="17.63094220250445">
        <ele>508.88</ele>
        <time>2024-09-25T11:09:28Z</time>
      </trkpt>
      <trkpt lon="78.516492848529552" lat="17.630943514617829">
        <ele>508.891</ele>
        <time>2024-09-25T11:09:28Z</time>
      </trkpt>
      <trkpt lon="78.516493282795025" lat="17.630944835975903">
        <ele>508.901</ele>
        <time>2024-09-25T11:09:28Z</time>
      </trkpt>
      <trkpt lon="78.516493719704329" lat="17.630946166698216">
        <ele>508.91</ele>
        <time>2024-09-25T11:09:28Z</time>
      </trkpt>
      <trkpt lon="78.516494159211703" lat="17.630947506549671">
        <ele>508.918</ele>
        <time>2024-09-25T11:09:28Z</time>
      </trkpt>
      <trkpt lon="78.51649460119242" lat="17.630948855036003">
        <ele>508.926</ele>
        <time>2024-09-25T11:09:28Z</time>
      </trkpt>
      <trkpt lon="78.516495045466598" lat="17.630950211484745">
        <ele>508.932</ele>
        <time>2024-09-25T11:09:28Z</time>
      </trkpt>
      <trkpt lon="78.516495491818958" lat="17.630951575112451">
        <ele>508.938</ele>
        <time>2024-09-25T11:09:28Z</time>
      </trkpt>
      <trkpt lon="78.516495940015062" lat="17.630952945079237">
        <ele>508.942</ele>
        <time>2024-09-25T11:09:28Z</time>
      </trkpt>
      <trkpt lon="78.516496389814151" lat="17.630954320531828">
        <ele>508.946</ele>
        <time>2024-09-25T11:09:28Z</time>
      </trkpt>
      <trkpt lon="78.516496840979045" lat="17.630955700636495">
        <ele>508.948</ele>
        <time>2024-09-25T11:09:28Z</time>
      </trkpt>
      <trkpt lon="78.51649729328355" lat="17.630957084603207">
        <ele>508.951</ele>
        <time>2024-09-25T11:09:28Z</time>
      </trkpt>
      <trkpt lon="78.516497746517587" lat="17.630958471702289">
        <ele>508.952</ele>
        <time>2024-09-25T11:09:28Z</time>
      </trkpt>
      <trkpt lon="78.516498291787357" lat="17.630960339951443">
        <ele>508.826</ele>
        <time>2024-09-25T11:09:29Z</time>
      </trkpt>
      <trkpt lon="78.516498786935543" lat="17.630962222916384">
        <ele>508.719</ele>
        <time>2024-09-25T11:09:29Z</time>
      </trkpt>
      <trkpt lon="78.516499238392228" lat="17.630964110759038">
        <ele>508.631</ele>
        <time>2024-09-25T11:09:29Z</time>
      </trkpt>
      <trkpt lon="78.516499652521858" lat="17.630965995893913">
        <ele>508.56</ele>
        <time>2024-09-25T11:09:29Z</time>
      </trkpt>
      <trkpt lon="78.516500035418389" lat="17.630967872696985">
        <ele>508.504</ele>
        <time>2024-09-25T11:09:29Z</time>
      </trkpt>
      <trkpt lon="78.516500392760236" lat="17.630969737218134">
        <ele>508.461</ele>
        <time>2024-09-25T11:09:29Z</time>
      </trkpt>
      <trkpt lon="78.516500729715361" lat="17.630971586906234">
        <ele>508.43</ele>
        <time>2024-09-25T11:09:29Z</time>
      </trkpt>
      <trkpt lon="78.51650105088747" lat="17.630973420353346">
        <ele>508.409</ele>
        <time>2024-09-25T11:09:29Z</time>
      </trkpt>
      <trkpt lon="78.516501360295024" lat="17.630975237062177">
        <ele>508.397</ele>
        <time>2024-09-25T11:09:29Z</time>
      </trkpt>
      <trkpt lon="78.516501661375798" lat="17.630977037239166">
        <ele>508.39</ele>
        <time>2024-09-25T11:09:29Z</time>
      </trkpt>
      <trkpt lon="78.516501957010391" lat="17.630978821614057">
        <ele>508.389</ele>
        <time>2024-09-25T11:09:29Z</time>
      </trkpt>
      <trkpt lon="78.516502249559409" lat="17.630980591285741">
        <ele>508.392</ele>
        <time>2024-09-25T11:09:29Z</time>
      </trkpt>
      <trkpt lon="78.516502540909471" lat="17.630982347593207">
        <ele>508.398</ele>
        <time>2024-09-25T11:09:29Z</time>
      </trkpt>
      <trkpt lon="78.516502832524367" lat="17.630984092009932">
        <ele>508.406</ele>
        <time>2024-09-25T11:09:29Z</time>
      </trkpt>
      <trkpt lon="78.516503125498318" lat="17.630985826059593">
        <ele>508.415</ele>
        <time>2024-09-25T11:09:29Z</time>
      </trkpt>
      <trkpt lon="78.516503420608998" lat="17.630987551250808">
        <ele>508.424</ele>
        <time>2024-09-25T11:09:29Z</time>
      </trkpt>
      <trkpt lon="78.516503718368398" lat="17.630989269028436">
        <ele>508.434</ele>
        <time>2024-09-25T11:09:29Z</time>
      </trkpt>
      <trkpt lon="78.516504019070481" lat="17.630990980739103">
        <ele>508.443</ele>
        <time>2024-09-25T11:09:29Z</time>
      </trkpt>
      <trkpt lon="78.516504322834635" lat="17.630992687608622">
        <ele>508.452</ele>
        <time>2024-09-25T11:09:29Z</time>
      </trkpt>
      <trkpt lon="78.516504629644544" lat="17.630994390729146">
        <ele>508.46</ele>
        <time>2024-09-25T11:09:29Z</time>
      </trkpt>
      <trkpt lon="78.516504939382116" lat="17.630996091054165">
        <ele>508.468</ele>
        <time>2024-09-25T11:09:29Z</time>
      </trkpt>
      <trkpt lon="78.516505251856643" lat="17.630997789399519">
        <ele>508.474</ele>
        <time>2024-09-25T11:09:29Z</time>
      </trkpt>
      <trkpt lon="78.516505566829338" lat="17.630999486448946">
        <ele>508.48</ele>
        <time>2024-09-25T11:09:29Z</time>
      </trkpt>
      <trkpt lon="78.516505884033421" lat="17.631001182762873">
        <ele>508.485</ele>
        <time>2024-09-25T11:09:29Z</time>
      </trkpt>
      <trkpt lon="78.516506203190303" lat="17.6310028787893">
        <ele>508.489</ele>
        <time>2024-09-25T11:09:29Z</time>
      </trkpt>
      <trkpt lon="78.516506524022162" lat="17.631004574875917">
        <ele>508.492</ele>
        <time>2024-09-25T11:09:29Z</time>
      </trkpt>
      <trkpt lon="78.516506846261393" lat="17.631006271282732">
        <ele>508.495</ele>
        <time>2024-09-25T11:09:29Z</time>
      </trkpt>
      <trkpt lon="78.516507169657416" lat="17.631007968194616">
        <ele>508.497</ele>
        <time>2024-09-25T11:09:29Z</time>
      </trkpt>
      <trkpt lon="78.516507493981152" lat="17.631009665733401">
        <ele>508.498</ele>
        <time>2024-09-25T11:09:29Z</time>
      </trkpt>
      <trkpt lon="78.516507959203494" lat="17.63101174638598">
        <ele>508.646</ele>
        <time>2024-09-25T11:09:30Z</time>
      </trkpt>
      <trkpt lon="78.516508451800547" lat="17.63101367135619">
        <ele>508.77</ele>
        <time>2024-09-25T11:09:30Z</time>
      </trkpt>
      <trkpt lon="78.51650896525544" lat="17.631015459396043">
        <ele>508.872</ele>
        <time>2024-09-25T11:09:30Z</time>
      </trkpt>
      <trkpt lon="78.516509493931281" lat="17.631017129396565">
        <ele>508.954</ele>
        <time>2024-09-25T11:09:30Z</time>
      </trkpt>
      <trkpt lon="78.516510033050324" lat="17.631018699697488">
        <ele>509.018</ele>
        <time>2024-09-25T11:09:30Z</time>
      </trkpt>
      <trkpt lon="78.516510578648294" lat="17.631020187586067">
        <ele>509.066</ele>
        <time>2024-09-25T11:09:30Z</time>
      </trkpt>
      <trkpt lon="78.51651112751189" lat="17.631021608955791">
        <ele>509.101</ele>
        <time>2024-09-25T11:09:30Z</time>
      </trkpt>
      <trkpt lon="78.516511677105456" lat="17.631022978097565">
        <ele>509.124</ele>
        <time>2024-09-25T11:09:30Z</time>
      </trkpt>
      <trkpt lon="78.516512225492207" lat="17.631024307597919">
        <ele>509.138</ele>
        <time>2024-09-25T11:09:30Z</time>
      </trkpt>
      <trkpt lon="78.516512771254099" lat="17.63102560832148">
        <ele>509.144</ele>
        <time>2024-09-25T11:09:30Z</time>
      </trkpt>
      <trkpt lon="78.516513313413327" lat="17.631026889457562">
        <ele>509.145</ele>
        <time>2024-09-25T11:09:30Z</time>
      </trkpt>
      <trkpt lon="78.516513851357942" lat="17.631028158613471">
        <ele>509.14</ele>
        <time>2024-09-25T11:09:30Z</time>
      </trkpt>
      <trkpt lon="78.516514384773018" lat="17.631029421939772">
        <ele>509.133</ele>
        <time>2024-09-25T11:09:30Z</time>
      </trkpt>
      <trkpt lon="78.516514913578433" lat="17.631030684275313">
        <ele>509.123</ele>
        <time>2024-09-25T11:09:30Z</time>
      </trkpt>
      <trkpt lon="78.516515437873906" lat="17.631031949302098">
        <ele>509.112</ele>
        <time>2024-09-25T11:09:30Z</time>
      </trkpt>
      <trkpt lon="78.51651595789123" lat="17.631033219702214">
        <ele>509.101</ele>
        <time>2024-09-25T11:09:30Z</time>
      </trkpt>
      <trkpt lon="78.5165164739537" lat="17.631034497310857">
        <ele>509.089</ele>
        <time>2024-09-25T11:09:30Z</time>
      </trkpt>
      <trkpt lon="78.516516986442412" lat="17.631035783261073">
        <ele>509.078</ele>
        <time>2024-09-25T11:09:30Z</time>
      </trkpt>
      <trkpt lon="78.516517495768682" lat="17.631037078117281">
        <ele>509.067</ele>
        <time>2024-09-25T11:09:30Z</time>
      </trkpt>
      <trkpt lon="78.516518002352441" lat="17.631038381995648">
        <ele>509.058</ele>
        <time>2024-09-25T11:09:30Z</time>
      </trkpt>
      <trkpt lon="78.516518506605493" lat="17.631039694670417">
        <ele>509.049</ele>
        <time>2024-09-25T11:09:30Z</time>
      </trkpt>
      <trkpt lon="78.516519008919161" lat="17.631041015665915">
        <ele>509.041</ele>
        <time>2024-09-25T11:09:30Z</time>
      </trkpt>
      <trkpt lon="78.516519509655822" lat="17.631042344334599">
        <ele>509.035</ele>
        <time>2024-09-25T11:09:30Z</time>
      </trkpt>
      <trkpt lon="78.516520009143406" lat="17.631043679921863">
        <ele>509.029</ele>
        <time>2024-09-25T11:09:30Z</time>
      </trkpt>
      <trkpt lon="78.516520507672482" lat="17.63104502161859">
        <ele>509.024</ele>
        <time>2024-09-25T11:09:30Z</time>
      </trkpt>
      <trkpt lon="78.516521005495363" lat="17.631046368602693">
        <ele>509.021</ele>
        <time>2024-09-25T11:09:30Z</time>
      </trkpt>
      <trkpt lon="78.516521502826791" lat="17.631047720070836">
        <ele>509.018</ele>
        <time>2024-09-25T11:09:30Z</time>
      </trkpt>
      <trkpt lon="78.516521999845708" lat="17.631049075261725">
        <ele>509.016</ele>
        <time>2024-09-25T11:09:30Z</time>
      </trkpt>
      <trkpt lon="78.516522496697846" lat="17.6310504334722">
        <ele>509.014</ele>
        <time>2024-09-25T11:09:30Z</time>
      </trkpt>
      <trkpt lon="78.516523152308594" lat="17.63105228566587">
        <ele>508.741</ele>
        <time>2024-09-25T11:09:31Z</time>
      </trkpt>
      <trkpt lon="78.516523801612777" lat="17.631054171543617">
        <ele>508.512</ele>
        <time>2024-09-25T11:09:31Z</time>
      </trkpt>
      <trkpt lon="78.516524443246738" lat="17.631056078094048">
        <ele>508.323</ele>
        <time>2024-09-25T11:09:31Z</time>
      </trkpt>
      <trkpt lon="78.516525076448929" lat="17.631057994791021">
        <ele>508.171</ele>
        <time>2024-09-25T11:09:31Z</time>
      </trkpt>
      <trkpt lon="78.516525700938089" lat="17.631059913347389">
        <ele>508.053</ele>
        <time>2024-09-25T11:09:31Z</time>
      </trkpt>
      <trkpt lon="78.516526316804828" lat="17.631061827451607">
        <ele>507.963</ele>
        <time>2024-09-25T11:09:31Z</time>
      </trkpt>
      <trkpt lon="78.516526924416866" lat="17.631063732500547">
        <ele>507.899</ele>
        <time>2024-09-25T11:09:31Z</time>
      </trkpt>
      <trkpt lon="78.516527524338088" lat="17.631065625338774">
        <ele>507.855</ele>
        <time>2024-09-25T11:09:31Z</time>
      </trkpt>
      <trkpt lon="78.516528117260634" lat="17.631067504011749">
        <ele>507.83</ele>
        <time>2024-09-25T11:09:31Z</time>
      </trkpt>
      <trkpt lon="78.516528703949348" lat="17.63106936753805">
        <ele>507.818</ele>
        <time>2024-09-25T11:09:31Z</time>
      </trkpt>
      <trkpt lon="78.516529285197237" lat="17.631071215703887">
        <ele>507.817</ele>
        <time>2024-09-25T11:09:31Z</time>
      </trkpt>
      <trkpt lon="78.516529861791057" lat="17.631073048881571">
        <ele>507.825</ele>
        <time>2024-09-25T11:09:31Z</time>
      </trkpt>
      <trkpt lon="78.516530434485489" lat="17.631074867872268">
        <ele>507.838</ele>
        <time>2024-09-25T11:09:31Z</time>
      </trkpt>
      <trkpt lon="78.516531003984866" lat="17.631076673772618">
        <ele>507.856</ele>
        <time>2024-09-25T11:09:31Z</time>
      </trkpt>
      <trkpt lon="78.516531570931079" lat="17.631078467863897">
        <ele>507.876</ele>
        <time>2024-09-25T11:09:31Z</time>
      </trkpt>
      <trkpt lon="78.516532135896654" lat="17.631080251522061">
        <ele>507.897</ele>
        <time>2024-09-25T11:09:31Z</time>
      </trkpt>
      <trkpt lon="78.516532699381983" lat="17.631082026146672">
        <ele>507.918</ele>
        <time>2024-09-25T11:09:31Z</time>
      </trkpt>
      <trkpt lon="78.516533261815638" lat="17.631083793106459">
        <ele>507.939</ele>
        <time>2024-09-25T11:09:31Z</time>
      </trkpt>
      <trkpt lon="78.516533823557239" lat="17.631085553699382">
        <ele>507.959</ele>
        <time>2024-09-25T11:09:31Z</time>
      </trkpt>
      <trkpt lon="78.516534384901888" lat="17.631087309124986">
        <ele>507.977</ele>
        <time>2024-09-25T11:09:31Z</time>
      </trkpt>
      <trkpt lon="78.516534946085855" lat="17.631089060466959">
        <ele>507.993</ele>
        <time>2024-09-25T11:09:31Z</time>
      </trkpt>
      <trkpt lon="78.516535507292772" lat="17.631090808684021">
        <ele>508.007</ele>
        <time>2024-09-25T11:09:31Z</time>
      </trkpt>
      <trkpt lon="78.516536068660315" lat="17.631092554607395">
        <ele>508.019</ele>
        <time>2024-09-25T11:09:31Z</time>
      </trkpt>
      <trkpt lon="78.516536630286652" lat="17.631094298943328">
        <ele>508.029</ele>
        <time>2024-09-25T11:09:31Z</time>
      </trkpt>
      <trkpt lon="78.516537192236825" lat="17.631096042279331">
        <ele>508.038</ele>
        <time>2024-09-25T11:09:31Z</time>
      </trkpt>
      <trkpt lon="78.516537754548608" lat="17.631097785093008">
        <ele>508.045</ele>
        <time>2024-09-25T11:09:31Z</time>
      </trkpt>
      <trkpt lon="78.516538317237902" lat="17.631099527762515">
        <ele>508.05</ele>
        <time>2024-09-25T11:09:31Z</time>
      </trkpt>
      <trkpt lon="78.5165388803036" lat="17.631101270577933">
        <ele>508.054</ele>
        <time>2024-09-25T11:09:31Z</time>
      </trkpt>
      <trkpt lon="78.516539443731801" lat="17.631103013752849">
        <ele>508.057</ele>
        <time>2024-09-25T11:09:31Z</time>
      </trkpt>
      <trkpt lon="78.51654019861418" lat="17.63110522028752">
        <ele>507.927</ele>
        <time>2024-09-25T11:09:32Z</time>
      </trkpt>
      <trkpt lon="78.516540956052452" lat="17.631107325878297">
        <ele>507.816</ele>
        <time>2024-09-25T11:09:32Z</time>
      </trkpt>
      <trkpt lon="78.516541712739595" lat="17.631109339472744">
        <ele>507.725</ele>
        <time>2024-09-25T11:09:32Z</time>
      </trkpt>
      <trkpt lon="78.516542466208833" lat="17.631111271010607">
        <ele>507.651</ele>
        <time>2024-09-25T11:09:32Z</time>
      </trkpt>
      <trkpt lon="78.516543214712442" lat="17.631113130834372">
        <ele>507.593</ele>
        <time>2024-09-25T11:09:32Z</time>
      </trkpt>
      <trkpt lon="78.516543957105384" lat="17.631114929230925">
        <ele>507.548</ele>
        <time>2024-09-25T11:09:32Z</time>
      </trkpt>
      <trkpt lon="78.516544692736744" lat="17.631116676087988">
        <ele>507.516</ele>
        <time>2024-09-25T11:09:32Z</time>
      </trkpt>
      <trkpt lon="78.516545421350671" lat="17.631118380648996">
        <ele>507.494</ele>
        <time>2024-09-25T11:09:32Z</time>
      </trkpt>
      <trkpt lon="78.51654614299801" lat="17.631120051350692">
        <ele>507.48</ele>
        <time>2024-09-25T11:09:32Z</time>
      </trkpt>
      <trkpt lon="78.516546857959042" lat="17.63112169572873">
        <ele>507.473</ele>
        <time>2024-09-25T11:09:32Z</time>
      </trkpt>
      <trkpt lon="78.516547566677218" lat="17.631123320377796">
        <ele>507.472</ele>
        <time>2024-09-25T11:09:32Z</time>
      </trkpt>
      <trkpt lon="78.516548269703677" lat="17.631124930954226">
        <ele>507.474</ele>
        <time>2024-09-25T11:09:32Z</time>
      </trkpt>
      <trkpt lon="78.516548967651516" lat="17.631126532210597">
        <ele>507.48</ele>
        <time>2024-09-25T11:09:32Z</time>
      </trkpt>
      <trkpt lon="78.516549661159274" lat="17.631128128053149">
        <ele>507.487</ele>
        <time>2024-09-25T11:09:32Z</time>
      </trkpt>
      <trkpt lon="78.516550350862502" lat="17.631129721614482">
        <ele>507.496</ele>
        <time>2024-09-25T11:09:32Z</time>
      </trkpt>
      <trkpt lon="78.516551037372409" lat="17.631131315335217">
        <ele>507.506</ele>
        <time>2024-09-25T11:09:32Z</time>
      </trkpt>
      <trkpt lon="78.51655172126064" lat="17.631132911049605">
        <ele>507.516</ele>
        <time>2024-09-25T11:09:32Z</time>
      </trkpt>
      <trkpt lon="78.516552403049133" lat="17.631134510071085">
        <ele>507.526</ele>
        <time>2024-09-25T11:09:32Z</time>
      </trkpt>
      <trkpt lon="78.516553083204286" lat="17.631136113274906">
        <ele>507.535</ele>
        <time>2024-09-25T11:09:32Z</time>
      </trkpt>
      <trkpt lon="78.516553762134379" lat="17.631137721175598">
        <ele>507.543</ele>
        <time>2024-09-25T11:09:32Z</time>
      </trkpt>
      <trkpt lon="78.516554440189751" lat="17.63113933399789">
        <ele>507.551</ele>
        <time>2024-09-25T11:09:32Z</time>
      </trkpt>
      <trkpt lon="78.516555117664851" lat="17.631140951740274">
        <ele>507.557</ele>
        <time>2024-09-25T11:09:32Z</time>
      </trkpt>
      <trkpt lon="78.516555794801803" lat="17.63114257423074">
        <ele>507.563</ele>
        <time>2024-09-25T11:09:32Z</time>
      </trkpt>
      <trkpt lon="78.516556471794843" lat="17.631144201174731">
        <ele>507.568</ele>
        <time>2024-09-25T11:09:32Z</time>
      </trkpt>
      <trkpt lon="78.516557148795414" lat="17.631145832195536">
        <ele>507.572</ele>
        <time>2024-09-25T11:09:32Z</time>
      </trkpt>
      <trkpt lon="78.516557825917417" lat="17.631147466867603">
        <ele>507.576</ele>
        <time>2024-09-25T11:09:32Z</time>
      </trkpt>
      <trkpt lon="78.516558503242464" lat="17.631149104743333">
        <ele>507.578</ele>
        <time>2024-09-25T11:09:32Z</time>
      </trkpt>
      <trkpt lon="78.516559180825055" lat="17.631150745374068">
        <ele>507.58</ele>
        <time>2024-09-25T11:09:32Z</time>
      </trkpt>
      <trkpt lon="78.516559858697306" lat="17.631152388325919">
        <ele>507.582</ele>
        <time>2024-09-25T11:09:32Z</time>
      </trkpt>
      <trkpt lon="78.516560705327834" lat="17.631154456902319">
        <ele>507.616</ele>
        <time>2024-09-25T11:09:33Z</time>
      </trkpt>
      <trkpt lon="78.516561503106672" lat="17.631156421234571">
        <ele>507.644</ele>
        <time>2024-09-25T11:09:33Z</time>
      </trkpt>
      <trkpt lon="78.516562257180126" lat="17.631158291149561">
        <ele>507.666</ele>
        <time>2024-09-25T11:09:33Z</time>
      </trkpt>
      <trkpt lon="78.516562972945351" lat="17.63116007733397">
        <ele>507.685</ele>
        <time>2024-09-25T11:09:33Z</time>
      </trkpt>
      <trkpt lon="78.516563655801278" lat="17.63116179075147">
        <ele>507.699</ele>
        <time>2024-09-25T11:09:33Z</time>
      </trkpt>
      <trkpt lon="78.516564310960561" lat="17.631163442193763">
        <ele>507.709</ele>
        <time>2024-09-25T11:09:33Z</time>
      </trkpt>
      <trkpt lon="78.516564943314492" lat="17.631165041948151">
        <ele>507.717</ele>
        <time>2024-09-25T11:09:33Z</time>
      </trkpt>
      <trkpt lon="78.51656555734219" lat="17.631166599564427">
        <ele>507.722</ele>
        <time>2024-09-25T11:09:33Z</time>
      </trkpt>
      <trkpt lon="78.516566157056545" lat="17.631168123704789">
        <ele>507.724</ele>
        <time>2024-09-25T11:09:33Z</time>
      </trkpt>
      <trkpt lon="78.516566745979617" lat="17.631169622061524">
        <ele>507.725</ele>
        <time>2024-09-25T11:09:33Z</time>
      </trkpt>
      <trkpt lon="78.516567327141175" lat="17.631171101328636">
        <ele>507.725</ele>
        <time>2024-09-25T11:09:33Z</time>
      </trkpt>
      <trkpt lon="78.516567903094654" lat="17.631172567215135">
        <ele>507.724</ele>
        <time>2024-09-25T11:09:33Z</time>
      </trkpt>
      <trkpt lon="78.516568475945718" lat="17.631174024489255">
        <ele>507.722</ele>
        <time>2024-09-25T11:09:33Z</time>
      </trkpt>
      <trkpt lon="78.516569047389439" lat="17.631175477044465">
        <ele>507.72</ele>
        <time>2024-09-25T11:09:33Z</time>
      </trkpt>
      <trkpt lon="78.516569618752413" lat="17.631176927979613">
        <ele>507.717</ele>
        <time>2024-09-25T11:09:33Z</time>
      </trkpt>
      <trkpt lon="78.516570191037488" lat="17.631178379686908">
        <ele>507.714</ele>
        <time>2024-09-25T11:09:33Z</time>
      </trkpt>
      <trkpt lon="78.516570764968591" lat="17.631179833942827">
        <ele>507.711</ele>
        <time>2024-09-25T11:09:33Z</time>
      </trkpt>
      <trkpt lon="78.516571341034279" lat="17.631181291998001">
        <ele>507.709</ele>
        <time>2024-09-25T11:09:33Z</time>
      </trkpt>
      <trkpt lon="78.516571919528673" lat="17.631182754663218">
        <ele>507.706</ele>
        <time>2024-09-25T11:09:33Z</time>
      </trkpt>
      <trkpt lon="78.516572500589149" lat="17.631184222389567">
        <ele>507.704</ele>
        <time>2024-09-25T11:09:33Z</time>
      </trkpt>
      <trkpt lon="78.516573084230174" lat="17.631185695341323">
        <ele>507.702</ele>
        <time>2024-09-25T11:09:33Z</time>
      </trkpt>
      <trkpt lon="78.516573670373006" lat="17.63118717346083">
        <ele>507.7</ele>
        <time>2024-09-25T11:09:33Z</time>
      </trkpt>
      <trkpt lon="78.516574258871387" lat="17.631188656525172">
        <ele>507.699</ele>
        <time>2024-09-25T11:09:33Z</time>
      </trkpt>
      <trkpt lon="78.516574849533299" lat="17.631190144194573">
        <ele>507.698</ele>
        <time>2024-09-25T11:09:33Z</time>
      </trkpt>
      <trkpt lon="78.516575442138858" lat="17.631191636052979">
        <ele>507.696</ele>
        <time>2024-09-25T11:09:33Z</time>
      </trkpt>
      <trkpt lon="78.516576036454765" lat="17.631193131641275">
        <ele>507.696</ele>
        <time>2024-09-25T11:09:33Z</time>
      </trkpt>
      <trkpt lon="78.516576632245801" lat="17.631194630483847">
        <ele>507.695</ele>
        <time>2024-09-25T11:09:33Z</time>
      </trkpt>
      <trkpt lon="78.516577229283399" lat="17.631196132109146">
        <ele>507.695</ele>
        <time>2024-09-25T11:09:33Z</time>
      </trkpt>
      <trkpt lon="78.516577827351995" lat="17.631197636065075">
        <ele>507.694</ele>
        <time>2024-09-25T11:09:33Z</time>
      </trkpt>
      <trkpt lon="78.51657865800685" lat="17.631199548786199">
        <ele>507.594</ele>
        <time>2024-09-25T11:09:34Z</time>
      </trkpt>
      <trkpt lon="78.516579516163887" lat="17.631201382184983">
        <ele>507.51</ele>
        <time>2024-09-25T11:09:34Z</time>
      </trkpt>
      <trkpt lon="78.516580393900966" lat="17.631203142416407">
        <ele>507.441</ele>
        <time>2024-09-25T11:09:34Z</time>
      </trkpt>
      <trkpt lon="78.5165812845663" lat="17.631204836661219">
        <ele>507.385</ele>
        <time>2024-09-25T11:09:34Z</time>
      </trkpt>
      <trkpt lon="78.516582182696638" lat="17.631206472624029">
        <ele>507.342</ele>
        <time>2024-09-25T11:09:34Z</time>
      </trkpt>
      <trkpt lon="78.516583083914483" lat="17.631208058136771">
        <ele>507.309</ele>
        <time>2024-09-25T11:09:34Z</time>
      </trkpt>
      <trkpt lon="78.516583984812755" lat="17.631209600855357">
        <ele>507.285</ele>
        <time>2024-09-25T11:09:34Z</time>
      </trkpt>
      <trkpt lon="78.516584882834266" lat="17.631211108037139">
        <ele>507.269</ele>
        <time>2024-09-25T11:09:34Z</time>
      </trkpt>
      <trkpt lon="78.51658577615126" lat="17.631212586386972">
        <ele>507.26</ele>
        <time>2024-09-25T11:09:34Z</time>
      </trkpt>
      <trkpt lon="78.516586663549333" lat="17.631214041960391">
        <ele>507.256</ele>
        <time>2024-09-25T11:09:34Z</time>
      </trkpt>
      <trkpt lon="78.516587544318611" lat="17.631215480113152">
        <ele>507.255</ele>
        <time>2024-09-25T11:09:34Z</time>
      </trkpt>
      <trkpt lon="78.516588418154186" lat="17.631216905487516">
        <ele>507.258</ele>
        <time>2024-09-25T11:09:34Z</time>
      </trkpt>
      <trkpt lon="78.516589285066999" lat="17.631218322026665">
        <ele>507.263</ele>
        <time>2024-09-25T11:09:34Z</time>
      </trkpt>
      <trkpt lon="78.51659014530577" lat="17.631219733009871">
        <ele>507.269</ele>
        <time>2024-09-25T11:09:34Z</time>
      </trkpt>
      <trkpt lon="78.516590999289704" lat="17.631221141102053">
        <ele>507.277</ele>
        <time>2024-09-25T11:09:34Z</time>
      </trkpt>
      <trkpt lon="78.516591847552064" lat="17.631222548412474">
        <ele>507.284</ele>
        <time>2024-09-25T11:09:34Z</time>
      </trkpt>
      <trkpt lon="78.516592690693557" lat="17.63122395655828">
        <ele>507.292</ele>
        <time>2024-09-25T11:09:34Z</time>
      </trkpt>
      <trkpt lon="78.516593529344803" lat="17.631225366729478">
        <ele>507.3</ele>
        <time>2024-09-25T11:09:34Z</time>
      </trkpt>
      <trkpt lon="78.516594364137148" lat="17.631226779752787">
        <ele>507.307</ele>
        <time>2024-09-25T11:09:34Z</time>
      </trkpt>
      <trkpt lon="78.516595195680523" lat="17.631228196152342">
        <ele>507.313</ele>
        <time>2024-09-25T11:09:34Z</time>
      </trkpt>
      <trkpt lon="78.516596024547511" lat="17.631229616205996">
        <ele>507.319</ele>
        <time>2024-09-25T11:09:34Z</time>
      </trkpt>
      <trkpt lon="78.516596851262705" lat="17.63123103999629">
        <ele>507.324</ele>
        <time>2024-09-25T11:09:34Z</time>
      </trkpt>
      <trkpt lon="78.516597676296271" lat="17.631232467455675">
        <ele>507.329</ele>
        <time>2024-09-25T11:09:34Z</time>
      </trkpt>
      <trkpt lon="78.51659850006105" lat="17.631233898405814">
        <ele>507.333</ele>
        <time>2024-09-25T11:09:34Z</time>
      </trkpt>
      <trkpt lon="78.516599322912271" lat="17.631235332591036">
        <ele>507.336</ele>
        <time>2024-09-25T11:09:34Z</time>
      </trkpt>
      <trkpt lon="78.516600145149482" lat="17.631236769706266">
        <ele>507.338</ele>
        <time>2024-09-25T11:09:34Z</time>
      </trkpt>
      <trkpt lon="78.516600967019784" lat="17.63123820941977">
        <ele>507.34</ele>
        <time>2024-09-25T11:09:34Z</time>
      </trkpt>
      <trkpt lon="78.516601788722213" lat="17.631239651391258">
        <ele>507.342</ele>
        <time>2024-09-25T11:09:34Z</time>
      </trkpt>
      <trkpt lon="78.51660261041259" lat="17.631241095285787">
        <ele>507.343</ele>
        <time>2024-09-25T11:09:34Z</time>
      </trkpt>
      <trkpt lon="78.516603621731775" lat="17.631242976480852">
        <ele>507.155</ele>
        <time>2024-09-25T11:09:35Z</time>
      </trkpt>
      <trkpt lon="78.516604561202357" lat="17.631244819295404">
        <ele>506.997</ele>
        <time>2024-09-25T11:09:35Z</time>
      </trkpt>
      <trkpt lon="78.516605437315945" lat="17.631246623043694">
        <ele>506.867</ele>
        <time>2024-09-25T11:09:35Z</time>
      </trkpt>
      <trkpt lon="78.516606258673988" lat="17.631248388565528">
        <ele>506.762</ele>
        <time>2024-09-25T11:09:35Z</time>
      </trkpt>
      <trkpt lon="78.516607033661998" lat="17.631250117821526">
        <ele>506.679</ele>
        <time>2024-09-25T11:09:35Z</time>
      </trkpt>
      <trkpt lon="78.516607770211522" lat="17.631251813549127">
        <ele>506.617</ele>
        <time>2024-09-25T11:09:35Z</time>
      </trkpt>
      <trkpt lon="78.516608475636346" lat="17.631253478976245">
        <ele>506.571</ele>
        <time>2024-09-25T11:09:35Z</time>
      </trkpt>
      <trkpt lon="78.51660915653072" lat="17.631255117588442">
        <ele>506.541</ele>
        <time>2024-09-25T11:09:35Z</time>
      </trkpt>
      <trkpt lon="78.516609818717356" lat="17.631256732944451">
        <ele>506.522</ele>
        <time>2024-09-25T11:09:35Z</time>
      </trkpt>
      <trkpt lon="78.516610467235239" lat="17.631258328534564">
        <ele>506.513</ele>
        <time>2024-09-25T11:09:35Z</time>
      </trkpt>
      <trkpt lon="78.516611106357502" lat="17.631259907676263">
        <ele>506.512</ele>
        <time>2024-09-25T11:09:35Z</time>
      </trkpt>
      <trkpt lon="78.516611739631657" lat="17.631261473441562">
        <ele>506.517</ele>
        <time>2024-09-25T11:09:35Z</time>
      </trkpt>
      <trkpt lon="78.516612369934904" lat="17.631263028610732">
        <ele>506.526</ele>
        <time>2024-09-25T11:09:35Z</time>
      </trkpt>
      <trkpt lon="78.516612999539362" lat="17.631264575647588">
        <ele>506.537</ele>
        <time>2024-09-25T11:09:35Z</time>
      </trkpt>
      <trkpt lon="78.516613630182007" lat="17.631266116691812">
        <ele>506.551</ele>
        <time>2024-09-25T11:09:35Z</time>
      </trkpt>
      <trkpt lon="78.516614263136177" lat="17.631267653564457">
        <ele>506.565</ele>
        <time>2024-09-25T11:09:35Z</time>
      </trkpt>
      <trkpt lon="78.516614899281436" lat="17.631269187783122">
        <ele>506.58</ele>
        <time>2024-09-25T11:09:35Z</time>
      </trkpt>
      <trkpt lon="78.516615539170004" lat="17.631270720583981">
        <ele>506.594</ele>
        <time>2024-09-25T11:09:35Z</time>
      </trkpt>
      <trkpt lon="78.516616183088146" lat="17.631272252948111">
        <ele>506.607</ele>
        <time>2024-09-25T11:09:35Z</time>
      </trkpt>
      <trkpt lon="78.516616831111719" lat="17.631273785630238">
        <ele>506.619</ele>
        <time>2024-09-25T11:09:35Z</time>
      </trkpt>
      <trkpt lon="78.516617483155301" lat="17.63127531918823">
        <ele>506.63</ele>
        <time>2024-09-25T11:09:35Z</time>
      </trkpt>
      <trkpt lon="78.516618139014923" lat="17.631276854012214">
        <ele>506.64</ele>
        <time>2024-09-25T11:09:35Z</time>
      </trkpt>
      <trkpt lon="78.516618798404266" lat="17.631278390352296">
        <ele>506.648</ele>
        <time>2024-09-25T11:09:35Z</time>
      </trkpt>
      <trkpt lon="78.516619460984955" lat="17.631279928344359">
        <ele>506.655</ele>
        <time>2024-09-25T11:09:35Z</time>
      </trkpt>
      <trkpt lon="78.516620126391047" lat="17.631281468033468">
        <ele>506.661</ele>
        <time>2024-09-25T11:09:35Z</time>
      </trkpt>
      <trkpt lon="78.516620794248595" lat="17.63128300939465">
        <ele>506.666</ele>
        <time>2024-09-25T11:09:35Z</time>
      </trkpt>
      <trkpt lon="78.51662146419055" lat="17.631284552351016">
        <ele>506.67</ele>
        <time>2024-09-25T11:09:35Z</time>
      </trkpt>
      <trkpt lon="78.516622135867848" lat="17.631286096789204">
        <ele>506.673</ele>
        <time>2024-09-25T11:09:35Z</time>
      </trkpt>
      <trkpt lon="78.516622808957109" lat="17.631287642572293">
        <ele>506.675</ele>
        <time>2024-09-25T11:09:35Z</time>
      </trkpt>
      <trkpt lon="78.516623550771996" lat="17.631289495090567">
        <ele>506.608</ele>
        <time>2024-09-25T11:09:36Z</time>
      </trkpt>
      <trkpt lon="78.516624160896527" lat="17.631291170436004">
        <ele>506.552</ele>
        <time>2024-09-25T11:09:36Z</time>
      </trkpt>
      <trkpt lon="78.516624658919909" lat="17.631292691816288">
        <ele>506.505</ele>
        <time>2024-09-25T11:09:36Z</time>
      </trkpt>
      <trkpt lon="78.516625063501948" lat="17.631294082072795">
        <ele>506.468</ele>
        <time>2024-09-25T11:09:36Z</time>
      </trkpt>
      <trkpt lon="78.516625391953824" lat="17.631295362977507">
        <ele>506.438</ele>
        <time>2024-09-25T11:09:36Z</time>
      </trkpt>
      <trkpt lon="78.516625659968909" lat="17.631296554740164">
        <ele>506.415</ele>
        <time>2024-09-25T11:09:36Z</time>
      </trkpt>
      <trkpt lon="78.516625881476017" lat="17.631297675691002">
        <ele>506.398</ele>
        <time>2024-09-25T11:09:36Z</time>
      </trkpt>
      <trkpt lon="78.516626068590085" lat="17.631298742106857">
        <ele>506.387</ele>
        <time>2024-09-25T11:09:36Z</time>
      </trkpt>
      <trkpt lon="78.516626231637957" lat="17.631299768151415">
        <ele>506.38</ele>
        <time>2024-09-25T11:09:36Z</time>
      </trkpt>
      <trkpt lon="78.51662637923998" lat="17.631300765903536">
        <ele>506.376</ele>
        <time>2024-09-25T11:09:36Z</time>
      </trkpt>
      <trkpt lon="78.516626518430741" lat="17.631301745451019">
        <ele>506.375</ele>
        <time>2024-09-25T11:09:36Z</time>
      </trkpt>
      <trkpt lon="78.516626654805108" lat="17.63130271503044">
        <ele>506.376</ele>
        <time>2024-09-25T11:09:36Z</time>
      </trkpt>
      <trkpt lon="78.516626792678409" lat="17.631303681196837">
        <ele>506.379</ele>
        <time>2024-09-25T11:09:36Z</time>
      </trkpt>
      <trkpt lon="78.516626935251537" lat="17.631304649010023">
        <ele>506.383</ele>
        <time>2024-09-25T11:09:36Z</time>
      </trkpt>
      <trkpt lon="78.516627084774186" lat="17.631305622226982">
        <ele>506.387</ele>
        <time>2024-09-25T11:09:36Z</time>
      </trkpt>
      <trkpt lon="78.516627242700807" lat="17.631306603492114">
        <ele>506.392</ele>
        <time>2024-09-25T11:09:36Z</time>
      </trkpt>
      <trkpt lon="78.516627409835962" lat="17.631307594519303">
        <ele>506.397</ele>
        <time>2024-09-25T11:09:36Z</time>
      </trkpt>
      <trkpt lon="78.516627586466328" lat="17.63130859626148">
        <ele>506.402</ele>
        <time>2024-09-25T11:09:36Z</time>
      </trkpt>
      <trkpt lon="78.516627772478245" lat="17.631309609064854">
        <ele>506.406</ele>
        <time>2024-09-25T11:09:36Z</time>
      </trkpt>
      <trkpt lon="78.516627967460238" lat="17.631310632806262">
        <ele>506.411</ele>
        <time>2024-09-25T11:09:36Z</time>
      </trkpt>
      <trkpt lon="78.516628170790597" lat="17.631311667012991">
        <ele>506.415</ele>
        <time>2024-09-25T11:09:36Z</time>
      </trkpt>
      <trkpt lon="78.516628381710731" lat="17.631312710965254">
        <ele>506.418</ele>
        <time>2024-09-25T11:09:36Z</time>
      </trkpt>
      <trkpt lon="78.516628599385228" lat="17.631313763782007">
        <ele>506.421</ele>
        <time>2024-09-25T11:09:36Z</time>
      </trkpt>
      <trkpt lon="78.516628822949755" lat="17.631314824491259">
        <ele>506.424</ele>
        <time>2024-09-25T11:09:36Z</time>
      </trkpt>
      <trkpt lon="78.51662905154825" lat="17.631315892086199">
        <ele>506.426</ele>
        <time>2024-09-25T11:09:36Z</time>
      </trkpt>
      <trkpt lon="78.516629284360505" lat="17.63131696556875">
        <ele>506.427</ele>
        <time>2024-09-25T11:09:36Z</time>
      </trkpt>
      <trkpt lon="78.516629520621947" lat="17.631318043982077">
        <ele>506.429</ele>
        <time>2024-09-25T11:09:36Z</time>
      </trkpt>
      <trkpt lon="78.516629759636444" lat="17.63131912643366">
        <ele>506.43</ele>
        <time>2024-09-25T11:09:36Z</time>
      </trkpt>
      <trkpt lon="78.516630000783607" lat="17.631320212110452">
        <ele>506.431</ele>
        <time>2024-09-25T11:09:36Z</time>
      </trkpt>
      <trkpt lon="78.516630408324275" lat="17.631321670999682">
        <ele>506.698</ele>
        <time>2024-09-25T11:09:37Z</time>
      </trkpt>
      <trkpt lon="78.516630888267429" lat="17.631323138620605">
        <ele>506.923</ele>
        <time>2024-09-25T11:09:37Z</time>
      </trkpt>
      <trkpt lon="78.51663142649511" lat="17.631324607685301">
        <ele>507.109</ele>
        <time>2024-09-25T11:09:37Z</time>
      </trkpt>
      <trkpt lon="78.516632010340828" lat="17.631326072649891">
        <ele>507.258</ele>
        <time>2024-09-25T11:09:37Z</time>
      </trkpt>
      <trkpt lon="78.516632628672113" lat="17.631327529477701">
        <ele>507.375</ele>
        <time>2024-09-25T11:09:37Z</time>
      </trkpt>
      <trkpt lon="78.516633271899437" lat="17.631328975408412">
        <ele>507.463</ele>
        <time>2024-09-25T11:09:37Z</time>
      </trkpt>
      <trkpt lon="78.516633931929519" lat="17.631330408739689">
        <ele>507.526</ele>
        <time>2024-09-25T11:09:37Z</time>
      </trkpt>
      <trkpt lon="78.516634602077929" lat="17.631331828625854">
        <ele>507.569</ele>
        <time>2024-09-25T11:09:37Z</time>
      </trkpt>
      <trkpt lon="78.51663527695446" lat="17.631333234896363">
        <ele>507.595</ele>
        <time>2024-09-25T11:09:37Z</time>
      </trkpt>
      <trkpt lon="78.516635952331669" lat="17.631334627895512">
        <ele>507.607</ele>
        <time>2024-09-25T11:09:37Z</time>
      </trkpt>
      <trkpt lon="78.516636625005475" lat="17.631336008343734">
        <ele>507.608</ele>
        <time>2024-09-25T11:09:37Z</time>
      </trkpt>
      <trkpt lon="78.51663729265448" lat="17.631337377219989">
        <ele>507.601</ele>
        <time>2024-09-25T11:09:37Z</time>
      </trkpt>
      <trkpt lon="78.516637953703253" lat="17.631338735664119">
        <ele>507.587</ele>
        <time>2024-09-25T11:09:37Z</time>
      </trkpt>
      <trkpt lon="78.516638607193457" lat="17.631340084897644">
        <ele>507.57</ele>
        <time>2024-09-25T11:09:37Z</time>
      </trkpt>
      <trkpt lon="78.516639252665186" lat="17.631341426161242">
        <ele>507.551</ele>
        <time>2024-09-25T11:09:37Z</time>
      </trkpt>
      <trkpt lon="78.5166398900502" lat="17.631342760666943">
        <ele>507.53</ele>
        <time>2024-09-25T11:09:37Z</time>
      </trkpt>
      <trkpt lon="78.516640519577962" lat="17.631344089563093">
        <ele>507.509</ele>
        <time>2024-09-25T11:09:37Z</time>
      </trkpt>
      <trkpt lon="78.516641141694237" lat="17.631345413910147">
        <ele>507.489</ele>
        <time>2024-09-25T11:09:37Z</time>
      </trkpt>
      <trkpt lon="78.516641756992513" lat="17.631346734665478">
        <ele>507.47</ele>
        <time>2024-09-25T11:09:37Z</time>
      </trkpt>
      <trkpt lon="78.51664236615693" lat="17.631348052675499">
        <ele>507.452</ele>
        <time>2024-09-25T11:09:37Z</time>
      </trkpt>
      <trkpt lon="78.516642969916219" lat="17.631349368673597">
        <ele>507.437</ele>
        <time>2024-09-25T11:09:37Z</time>
      </trkpt>
      <trkpt lon="78.516643569007428" lat="17.631350683282488">
        <ele>507.423</ele>
        <time>2024-09-25T11:09:37Z</time>
      </trkpt>
      <trkpt lon="78.516644164148275" lat="17.631351997019816">
        <ele>507.411</ele>
        <time>2024-09-25T11:09:37Z</time>
      </trkpt>
      <trkpt lon="78.516644756016973" lat="17.631353310306071">
        <ele>507.401</ele>
        <time>2024-09-25T11:09:37Z</time>
      </trkpt>
      <trkpt lon="78.516645345238402" lat="17.631354623473886">
        <ele>507.392</ele>
        <time>2024-09-25T11:09:37Z</time>
      </trkpt>
      <trkpt lon="78.516645932375582" lat="17.631355936778117">
        <ele>507.386</ele>
        <time>2024-09-25T11:09:37Z</time>
      </trkpt>
      <trkpt lon="78.516646517925253" lat="17.631357250406143">
        <ele>507.38</ele>
        <time>2024-09-25T11:09:37Z</time>
      </trkpt>
      <trkpt lon="78.516647102317037" lat="17.631358564487964">
        <ele>507.376</ele>
        <time>2024-09-25T11:09:37Z</time>
      </trkpt>
      <trkpt lon="78.516647685915004" lat="17.631359879105823">
        <ele>507.373</ele>
        <time>2024-09-25T11:09:37Z</time>
      </trkpt>
      <trkpt lon="78.516648455734952" lat="17.631361662211258">
        <ele>507.36</ele>
        <time>2024-09-25T11:09:38Z</time>
      </trkpt>
      <trkpt lon="78.51664921785185" lat="17.63136346951001">
        <ele>507.35</ele>
        <time>2024-09-25T11:09:38Z</time>
      </trkpt>
      <trkpt lon="78.516649970777735" lat="17.631365290127317">
        <ele>507.342</ele>
        <time>2024-09-25T11:09:38Z</time>
      </trkpt>
      <trkpt lon="78.516650713710121" lat="17.631367115403073">
        <ele>507.335</ele>
        <time>2024-09-25T11:09:38Z</time>
      </trkpt>
      <trkpt lon="78.516651446391165" lat="17.631368938647377">
        <ele>507.331</ele>
        <time>2024-09-25T11:09:38Z</time>
      </trkpt>
      <trkpt lon="78.516652168982517" lat="17.631370754887818">
        <ele>507.328</ele>
        <time>2024-09-25T11:09:38Z</time>
      </trkpt>
      <trkpt lon="78.516652881956432" lat="17.631372560619365">
        <ele>507.326</ele>
        <time>2024-09-25T11:09:38Z</time>
      </trkpt>
      <trkpt lon="78.516653586002917" lat="17.631374353564826">
        <ele>507.325</ele>
        <time>2024-09-25T11:09:38Z</time>
      </trkpt>
      <trkpt lon="78.516654281952128" lat="17.631376132451667">
        <ele>507.325</ele>
        <time>2024-09-25T11:09:38Z</time>
      </trkpt>
      <trkpt lon="78.516654970711087" lat="17.631377896808875">
        <ele>507.325</ele>
        <time>2024-09-25T11:09:38Z</time>
      </trkpt>
      <trkpt lon="78.516655653213235" lat="17.631379646785994">
        <ele>507.326</ele>
        <time>2024-09-25T11:09:38Z</time>
      </trkpt>
      <trkpt lon="78.516656330379462" lat="17.631381382995155">
        <ele>507.327</ele>
        <time>2024-09-25T11:09:38Z</time>
      </trkpt>
      <trkpt lon="78.516657003089307" lat="17.631383106375949">
        <ele>507.328</ele>
        <time>2024-09-25T11:09:38Z</time>
      </trkpt>
      <trkpt lon="78.51665767216052" lat="17.631384818082161">
        <ele>507.33</ele>
        <time>2024-09-25T11:09:38Z</time>
      </trkpt>
      <trkpt lon="78.516658338335915" lat="17.631386519388982">
        <ele>507.331</ele>
        <time>2024-09-25T11:09:38Z</time>
      </trkpt>
      <trkpt lon="78.516659002276029" lat="17.631388211618834">
        <ele>507.333</ele>
        <time>2024-09-25T11:09:38Z</time>
      </trkpt>
      <trkpt lon="78.516659664556343" lat="17.631389896083814">
        <ele>507.334</ele>
        <time>2024-09-25T11:09:38Z</time>
      </trkpt>
      <trkpt lon="78.516660325668369" lat="17.631391574042663">
        <ele>507.335</ele>
        <time>2024-09-25T11:09:38Z</time>
      </trkpt>
      <trkpt lon="78.516660986023169" lat="17.631393246670196">
        <ele>507.336</ele>
        <time>2024-09-25T11:09:38Z</time>
      </trkpt>
      <trkpt lon="78.516661645956916" lat="17.631394915037156">
        <ele>507.337</ele>
        <time>2024-09-25T11:09:38Z</time>
      </trkpt>
      <trkpt lon="78.516662305737626" lat="17.631396580098649">
        <ele>507.338</ele>
        <time>2024-09-25T11:09:38Z</time>
      </trkpt>
      <trkpt lon="78.51666296557265" lat="17.631398242689446">
        <ele>507.339</ele>
        <time>2024-09-25T11:09:38Z</time>
      </trkpt>
      <trkpt lon="78.516663625616431" lat="17.63139990352462">
        <ele>507.339</ele>
        <time>2024-09-25T11:09:38Z</time>
      </trkpt>
      <trkpt lon="78.516664285978109" lat="17.631401563204168">
        <ele>507.34</ele>
        <time>2024-09-25T11:09:38Z</time>
      </trkpt>
      <trkpt lon="78.516664946728952" lat="17.631403222220513">
        <ele>507.34</ele>
        <time>2024-09-25T11:09:38Z</time>
      </trkpt>
      <trkpt lon="78.516665607909133" lat="17.631404880967885">
        <ele>507.34</ele>
        <time>2024-09-25T11:09:38Z</time>
      </trkpt>
      <trkpt lon="78.516666269534042" lat="17.631406539752803">
        <ele>507.341</ele>
        <time>2024-09-25T11:09:38Z</time>
      </trkpt>
      <trkpt lon="78.516666931599829" lat="17.631408198805016">
        <ele>507.341</ele>
        <time>2024-09-25T11:09:38Z</time>
      </trkpt>
      <trkpt lon="78.516667594088275" lat="17.631409858288439">
        <ele>507.341</ele>
        <time>2024-09-25T11:09:38Z</time>
      </trkpt>
      <trkpt lon="78.516668435725592" lat="17.631412004947382">
        <ele>507.349</ele>
        <time>2024-09-25T11:09:39Z</time>
      </trkpt>
      <trkpt lon="78.516669241647492" lat="17.631414094396501">
        <ele>507.356</ele>
        <time>2024-09-25T11:09:39Z</time>
      </trkpt>
      <trkpt lon="78.51667001475694" lat="17.631416128317682">
        <ele>507.361</ele>
        <time>2024-09-25T11:09:39Z</time>
      </trkpt>
      <trkpt lon="78.516670758381736" lat="17.631418109907187">
        <ele>507.366</ele>
        <time>2024-09-25T11:09:39Z</time>
      </trkpt>
      <trkpt lon="78.516671476054412" lat="17.631420043391834">
        <ele>507.369</ele>
        <time>2024-09-25T11:09:39Z</time>
      </trkpt>
      <trkpt lon="78.516672171339138" lat="17.631421933628509">
        <ele>507.372</ele>
        <time>2024-09-25T11:09:39Z</time>
      </trkpt>
      <trkpt lon="78.516672847700178" lat="17.631423785780353">
        <ele>507.373</ele>
        <time>2024-09-25T11:09:39Z</time>
      </trkpt>
      <trkpt lon="78.516673508406114" lat="17.631425605062084">
        <ele>507.375</ele>
        <time>2024-09-25T11:09:39Z</time>
      </trkpt>
      <trkpt lon="78.516674156464546" lat="17.631427396546176">
        <ele>507.375</ele>
        <time>2024-09-25T11:09:39Z</time>
      </trkpt>
      <trkpt lon="78.516674794581888" lat="17.631429165021732">
        <ele>507.376</ele>
        <time>2024-09-25T11:09:39Z</time>
      </trkpt>
      <trkpt lon="78.516675425143518" lat="17.631430914897905">
        <ele>507.376</ele>
        <time>2024-09-25T11:09:39Z</time>
      </trkpt>
      <trkpt lon="78.516676050210009" lat="17.63143265014433">
        <ele>507.375</ele>
        <time>2024-09-25T11:09:39Z</time>
      </trkpt>
      <trkpt lon="78.516676671525445" lat="17.631434374261453">
        <ele>507.375</ele>
        <time>2024-09-25T11:09:39Z</time>
      </trkpt>
      <trkpt lon="78.51667729053483" lat="17.631436090274477">
        <ele>507.374</ele>
        <time>2024-09-25T11:09:39Z</time>
      </trkpt>
      <trkpt lon="78.51667790840753" lat="17.631437800745296">
        <ele>507.374</ele>
        <time>2024-09-25T11:09:39Z</time>
      </trkpt>
      <trkpt lon="78.516678526064496" lat="17.631439507797577">
        <ele>507.373</ele>
        <time>2024-09-25T11:09:39Z</time>
      </trkpt>
      <trkpt lon="78.516679144207458" lat="17.631441213150893">
        <ele>507.372</ele>
        <time>2024-09-25T11:09:39Z</time>
      </trkpt>
      <trkpt lon="78.516679763348492" lat="17.631442918160499">
        <ele>507.372</ele>
        <time>2024-09-25T11:09:39Z</time>
      </trkpt>
      <trkpt lon="78.516680383838974" lat="17.631444623859931">
        <ele>507.371</ele>
        <time>2024-09-25T11:09:39Z</time>
      </trkpt>
      <trkpt lon="78.516681005896899" lat="17.631446331004341">
        <ele>507.371</ele>
        <time>2024-09-25T11:09:39Z</time>
      </trkpt>
      <trkpt lon="78.516681629632146" lat="17.631448040112776">
        <ele>507.37</ele>
        <time>2024-09-25T11:09:39Z</time>
      </trkpt>
      <trkpt lon="78.516682255069298" lat="17.63144975150831">
        <ele>507.37</ele>
        <time>2024-09-25T11:09:39Z</time>
      </trkpt>
      <trkpt lon="78.5166828821678" lat="17.631451465355035">
        <ele>507.37</ele>
        <time>2024-09-25T11:09:39Z</time>
      </trkpt>
      <trkpt lon="78.516683510839357" lat="17.631453181691533">
        <ele>507.369</ele>
        <time>2024-09-25T11:09:39Z</time>
      </trkpt>
      <trkpt lon="78.516684140962823" lat="17.631454900460419">
        <ele>507.369</ele>
        <time>2024-09-25T11:09:39Z</time>
      </trkpt>
      <trkpt lon="78.516684772396388" lat="17.63145662153395">
        <ele>507.369</ele>
        <time>2024-09-25T11:09:39Z</time>
      </trkpt>
      <trkpt lon="78.516685404987697" lat="17.631458344735801">
        <ele>507.369</ele>
        <time>2024-09-25T11:09:39Z</time>
      </trkpt>
      <trkpt lon="78.51668603858171" lat="17.631460069859145">
        <ele>507.368</ele>
        <time>2024-09-25T11:09:39Z</time>
      </trkpt>
      <trkpt lon="78.516686673026683" lat="17.631461796681336">
        <ele>507.368</ele>
        <time>2024-09-25T11:09:39Z</time>
      </trkpt>
      <trkpt lon="78.516687473074924" lat="17.631464102065397">
        <ele>507.417</ele>
        <time>2024-09-25T11:09:40Z</time>
      </trkpt>
      <trkpt lon="78.516688233903167" lat="17.631466408386174">
        <ele>507.459</ele>
        <time>2024-09-25T11:09:40Z</time>
      </trkpt>
      <trkpt lon="78.516688959129866" lat="17.631468706661781">
        <ele>507.493</ele>
        <time>2024-09-25T11:09:40Z</time>
      </trkpt>
      <trkpt lon="78.516689652719094" lat="17.631470990400938">
        <ele>507.52</ele>
        <time>2024-09-25T11:09:40Z</time>
      </trkpt>
      <trkpt lon="78.516690318757767" lat="17.631473255215258">
        <ele>507.541</ele>
        <time>2024-09-25T11:09:40Z</time>
      </trkpt>
      <trkpt lon="78.516690961283473" lat="17.631475498453938">
        <ele>507.558</ele>
        <time>2024-09-25T11:09:40Z</time>
      </trkpt>
      <trkpt lon="78.516691584156376" lat="17.631477718868066">
        <ele>507.569</ele>
        <time>2024-09-25T11:09:40Z</time>
      </trkpt>
      <trkpt lon="78.516692190968868" lat="17.631479916308869">
        <ele>507.577</ele>
        <time>2024-09-25T11:09:40Z</time>
      </trkpt>
      <trkpt lon="78.516692784986688" lat="17.63148209146204">
        <ele>507.582</ele>
        <time>2024-09-25T11:09:40Z</time>
      </trkpt>
      <trkpt lon="78.516693369115984" lat="17.631484245618491">
        <ele>507.584</ele>
        <time>2024-09-25T11:09:40Z</time>
      </trkpt>
      <trkpt lon="78.516693945890836" lat="17.631486380480531">
        <ele>507.585</ele>
        <time>2024-09-25T11:09:40Z</time>
      </trkpt>
      <trkpt lon="78.516694517476907" lat="17.63148849800146">
        <ele>507.583</ele>
        <time>2024-09-25T11:09:40Z</time>
      </trkpt>
      <trkpt lon="78.516695085686905" lat="17.631490600255944">
        <ele>507.581</ele>
        <time>2024-09-25T11:09:40Z</time>
      </trkpt>
      <trkpt lon="78.516695652004529" lat="17.631492689338089">
        <ele>507.578</ele>
        <time>2024-09-25T11:09:40Z</time>
      </trkpt>
      <trkpt lon="78.516696217613941" lat="17.631494767283929">
        <ele>507.574</ele>
        <time>2024-09-25T11:09:40Z</time>
      </trkpt>
      <trkpt lon="78.516696783432337" lat="17.63149683601501">
        <ele>507.571</ele>
        <time>2024-09-25T11:09:40Z</time>
      </trkpt>
      <trkpt lon="78.5166973501439" lat="17.631498897299842">
        <ele>507.567</ele>
        <time>2024-09-25T11:09:40Z</time>
      </trkpt>
      <trkpt lon="78.516697918233362" lat="17.631500952730157">
        <ele>507.563</ele>
        <time>2024-09-25T11:09:40Z</time>
      </trkpt>
      <trkpt lon="78.516698488018221" lat="17.631503003709149">
        <ele>507.56</ele>
        <time>2024-09-25T11:09:40Z</time>
      </trkpt>
      <trkpt lon="78.516699059678984" lat="17.631505051449157">
        <ele>507.556</ele>
        <time>2024-09-25T11:09:40Z</time>
      </trkpt>
      <trkpt lon="78.516699633286535" lat="17.631507096976545">
        <ele>507.554</ele>
        <time>2024-09-25T11:09:40Z</time>
      </trkpt>
      <trkpt lon="78.516700208826705" lat="17.631509141141851">
        <ele>507.551</ele>
        <time>2024-09-25T11:09:40Z</time>
      </trkpt>
      <trkpt lon="78.516700786221719" lat="17.631511184633524">
        <ele>507.549</ele>
        <time>2024-09-25T11:09:40Z</time>
      </trkpt>
      <trkpt lon="78.51670136534851" lat="17.631513227993924">
        <ele>507.547</ele>
        <time>2024-09-25T11:09:40Z</time>
      </trkpt>
      <trkpt lon="78.51670194605417" lat="17.631515271636442">
        <ele>507.545</ele>
        <time>2024-09-25T11:09:40Z</time>
      </trkpt>
      <trkpt lon="78.516702528168594" lat="17.631517315862911">
        <ele>507.544</ele>
        <time>2024-09-25T11:09:40Z</time>
      </trkpt>
      <trkpt lon="78.516703111514644" lat="17.631519360880571">
        <ele>507.543</ele>
        <time>2024-09-25T11:09:40Z</time>
      </trkpt>
      <trkpt lon="78.516703695916021" lat="17.631521406818166">
        <ele>507.543</ele>
        <time>2024-09-25T11:09:40Z</time>
      </trkpt>
      <trkpt lon="78.516704281203161" lat="17.631523453740805">
        <ele>507.542</ele>
        <time>2024-09-25T11:09:40Z</time>
      </trkpt>
      <trkpt lon="78.516704963102598" lat="17.631525755796378">
        <ele>507.347</ele>
        <time>2024-09-25T11:09:41Z</time>
      </trkpt>
      <trkpt lon="78.516705561492117" lat="17.631527695900306">
        <ele>507.183</ele>
        <time>2024-09-25T11:09:41Z</time>
      </trkpt>
      <trkpt lon="78.516706088003247" lat="17.631529327199726">
        <ele>507.048</ele>
        <time>2024-09-25T11:09:41Z</time>
      </trkpt>
      <trkpt lon="78.516706553900278" lat="17.631530700482255">
        <ele>506.939</ele>
        <time>2024-09-25T11:09:41Z</time>
      </trkpt>
      <trkpt lon="78.516706969779491" lat="17.631531862993064">
        <ele>506.854</ele>
        <time>2024-09-25T11:09:41Z</time>
      </trkpt>
      <trkpt lon="78.516707345365603" lat="17.63153285766619">
        <ele>506.79</ele>
        <time>2024-09-25T11:09:41Z</time>
      </trkpt>
      <trkpt lon="78.516707689388554" lat="17.631533722694826">
        <ele>506.744</ele>
        <time>2024-09-25T11:09:41Z</time>
      </trkpt>
      <trkpt lon="78.516708009525303" lat="17.631534491372012">
        <ele>506.712</ele>
        <time>2024-09-25T11:09:41Z</time>
      </trkpt>
      <trkpt lon="78.51670831239241" lat="17.63153519214076">
        <ele>506.694</ele>
        <time>2024-09-25T11:09:41Z</time>
      </trkpt>
      <trkpt lon="78.516708603577271" lat="17.631535848800244">
        <ele>506.685</ele>
        <time>2024-09-25T11:09:41Z</time>
      </trkpt>
      <trkpt lon="78.51670888769749" lat="17.631536480822522">
        <ele>506.684</ele>
        <time>2024-09-25T11:09:41Z</time>
      </trkpt>
      <trkpt lon="78.516709168479224" lat="17.631537103741564">
        <ele>506.69</ele>
        <time>2024-09-25T11:09:41Z</time>
      </trkpt>
      <trkpt lon="78.516709448847251" lat="17.631537729583265">
        <ele>506.699</ele>
        <time>2024-09-25T11:09:41Z</time>
      </trkpt>
      <trkpt lon="78.516709731020697" lat="17.631538367311428">
        <ele>506.712</ele>
        <time>2024-09-25T11:09:41Z</time>
      </trkpt>
      <trkpt lon="78.516710016609636" lat="17.63153902327031">
        <ele>506.726</ele>
        <time>2024-09-25T11:09:41Z</time>
      </trkpt>
      <trkpt lon="78.5167103067092" lat="17.631539701609164">
        <ele>506.741</ele>
        <time>2024-09-25T11:09:41Z</time>
      </trkpt>
      <trkpt lon="78.516710601988237" lat="17.631540404678532">
        <ele>506.756</ele>
        <time>2024-09-25T11:09:41Z</time>
      </trkpt>
      <trkpt lon="78.516710902771052" lat="17.63154113339143">
        <ele>506.771</ele>
        <time>2024-09-25T11:09:41Z</time>
      </trkpt>
      <trkpt lon="78.516711209110994" lat="17.631541887545517">
        <ele>506.785</ele>
        <time>2024-09-25T11:09:41Z</time>
      </trkpt>
      <trkpt lon="78.516711520855253" lat="17.631542666104725">
        <ele>506.797</ele>
        <time>2024-09-25T11:09:41Z</time>
      </trkpt>
      <trkpt lon="78.516711837700981" lat="17.63154346744048">
        <ele>506.809</ele>
        <time>2024-09-25T11:09:41Z</time>
      </trkpt>
      <trkpt lon="78.516712159242715" lat="17.631544289534137">
        <ele>506.819</ele>
        <time>2024-09-25T11:09:41Z</time>
      </trkpt>
      <trkpt lon="78.516712485011695" lat="17.631545130143099">
        <ele>506.828</ele>
        <time>2024-09-25T11:09:41Z</time>
      </trkpt>
      <trkpt lon="78.516712814507784" lat="17.631545986933848">
        <ele>506.835</ele>
        <time>2024-09-25T11:09:41Z</time>
      </trkpt>
      <trkpt lon="78.516713147224522" lat="17.631546857585363">
        <ele>506.841</ele>
        <time>2024-09-25T11:09:41Z</time>
      </trkpt>
      <trkpt lon="78.51671348266828" lat="17.631547739866654">
        <ele>506.846</ele>
        <time>2024-09-25T11:09:41Z</time>
      </trkpt>
      <trkpt lon="78.51671382037226" lat="17.631548631692077">
        <ele>506.85</ele>
        <time>2024-09-25T11:09:41Z</time>
      </trkpt>
      <trkpt lon="78.516714159906044" lat="17.631549531157972">
        <ele>506.853</ele>
        <time>2024-09-25T11:09:41Z</time>
      </trkpt>
      <trkpt lon="78.516714500881676" lat="17.631550436563998">
        <ele>506.855</ele>
        <time>2024-09-25T11:09:41Z</time>
      </trkpt>
      <trkpt lon="78.516715016935692" lat="17.631551866580175">
        <ele>506.776</ele>
        <time>2024-09-25T11:09:42Z</time>
      </trkpt>
      <trkpt lon="78.516715584522345" lat="17.63155348398432">
        <ele>506.709</ele>
        <time>2024-09-25T11:09:42Z</time>
      </trkpt>
      <trkpt lon="78.516716192752213" lat="17.631555250780135">
        <ele>506.653</ele>
        <time>2024-09-25T11:09:42Z</time>
      </trkpt>
      <trkpt lon="78.516716832005187" lat="17.631557133137207">
        <ele>506.608</ele>
        <time>2024-09-25T11:09:42Z</time>
      </trkpt>
      <trkpt lon="78.516717493952072" lat="17.631559101540301">
        <ele>506.573</ele>
        <time>2024-09-25T11:09:42Z</time>
      </trkpt>
      <trkpt lon="78.516718171526051" lat="17.631561130752083">
        <ele>506.546</ele>
        <time>2024-09-25T11:09:42Z</time>
      </trkpt>
      <trkpt lon="78.516718858857345" lat="17.631563199636439">
        <ele>506.526</ele>
        <time>2024-09-25T11:09:42Z</time>
      </trkpt>
      <trkpt lon="78.516719551182348" lat="17.631565290882836">
        <ele>506.513</ele>
        <time>2024-09-25T11:09:42Z</time>
      </trkpt>
      <trkpt lon="78.516720244736746" lat="17.631567390665722">
        <ele>506.504</ele>
        <time>2024-09-25T11:09:42Z</time>
      </trkpt>
      <trkpt lon="78.516720936640255" lat="17.631569488266713">
        <ele>506.5</ele>
        <time>2024-09-25T11:09:42Z</time>
      </trkpt>
      <trkpt lon="78.516721624779024" lat="17.6315715756819">
        <ele>506.499</ele>
        <time>2024-09-25T11:09:42Z</time>
      </trkpt>
      <trkpt lon="78.516722307690316" lat="17.631573647231548">
        <ele>506.5</ele>
        <time>2024-09-25T11:09:42Z</time>
      </trkpt>
      <trkpt lon="78.516722984453082" lat="17.631575699185191">
        <ele>506.504</ele>
        <time>2024-09-25T11:09:42Z</time>
      </trkpt>
      <trkpt lon="78.516723654586485" lat="17.631577729411287">
        <ele>506.508</ele>
        <time>2024-09-25T11:09:42Z</time>
      </trkpt>
      <trkpt lon="78.516724317958349" lat="17.631579737057624">
        <ele>506.514</ele>
        <time>2024-09-25T11:09:42Z</time>
      </trkpt>
      <trkpt lon="78.516724974703848" lat="17.631581722265967">
        <ele>506.519</ele>
        <time>2024-09-25T11:09:42Z</time>
      </trkpt>
      <trkpt lon="78.516725625155004" lat="17.631583685922433">
        <ele>506.525</ele>
        <time>2024-09-25T11:09:42Z</time>
      </trkpt>
      <trkpt lon="78.51672626978069" lat="17.631585629443457">
        <ele>506.531</ele>
        <time>2024-09-25T11:09:42Z</time>
      </trkpt>
      <trkpt lon="78.516726909136665" lat="17.631587554596059">
        <ele>506.537</ele>
        <time>2024-09-25T11:09:42Z</time>
      </trkpt>
      <trkpt lon="78.516727543824885" lat="17.631589463350167">
        <ele>506.542</ele>
        <time>2024-09-25T11:09:42Z</time>
      </trkpt>
      <trkpt lon="78.516728174461235" lat="17.631591357760243">
        <ele>506.546</ele>
        <time>2024-09-25T11:09:42Z</time>
      </trkpt>
      <trkpt lon="78.516728801650657" lat="17.631593239873126">
        <ele>506.55</ele>
        <time>2024-09-25T11:09:42Z</time>
      </trkpt>
      <trkpt lon="78.516729425968919" lat="17.631595111658829">
        <ele>506.554</ele>
        <time>2024-09-25T11:09:42Z</time>
      </trkpt>
      <trkpt lon="78.516730047949721" lat="17.631596974961028">
        <ele>506.557</ele>
        <time>2024-09-25T11:09:42Z</time>
      </trkpt>
      <trkpt lon="78.516730668076548" lat="17.631598831464135">
        <ele>506.56</ele>
        <time>2024-09-25T11:09:42Z</time>
      </trkpt>
      <trkpt lon="78.516731286778281" lat="17.631600682674023">
        <ele>506.562</ele>
        <time>2024-09-25T11:09:42Z</time>
      </trkpt>
      <trkpt lon="78.516731904427701" lat="17.631602529909657">
        <ele>506.563</ele>
        <time>2024-09-25T11:09:42Z</time>
      </trkpt>
      <trkpt lon="78.51673252134232" lat="17.631604374303325">
        <ele>506.564</ele>
        <time>2024-09-25T11:09:42Z</time>
      </trkpt>
      <trkpt lon="78.516733137787071" lat="17.631606216807256">
        <ele>506.565</ele>
        <time>2024-09-25T11:09:42Z</time>
      </trkpt>
      <trkpt lon="78.516733964101178" lat="17.631608583887587">
        <ele>506.446</ele>
        <time>2024-09-25T11:09:43Z</time>
      </trkpt>
      <trkpt lon="78.5167347934281" lat="17.631610873333475">
        <ele>506.345</ele>
        <time>2024-09-25T11:09:43Z</time>
      </trkpt>
      <trkpt lon="78.516735622201708" lat="17.631613089736671">
        <ele>506.262</ele>
        <time>2024-09-25T11:09:43Z</time>
      </trkpt>
      <trkpt lon="78.516736447753047" lat="17.631615239095208">
        <ele>506.195</ele>
        <time>2024-09-25T11:09:43Z</time>
      </trkpt>
      <trkpt lon="78.516737268182084" lat="17.631617328258891">
        <ele>506.143</ele>
        <time>2024-09-25T11:09:43Z</time>
      </trkpt>
      <trkpt lon="78.516738082234468" lat="17.631619364481722">
        <ele>506.103</ele>
        <time>2024-09-25T11:09:43Z</time>
      </trkpt>
      <trkpt lon="78.516738889186115" lat="17.631621355070468">
        <ele>506.074</ele>
        <time>2024-09-25T11:09:43Z</time>
      </trkpt>
      <trkpt lon="78.516739688737758" lat="17.631623307117902">
        <ele>506.054</ele>
        <time>2024-09-25T11:09:43Z</time>
      </trkpt>
      <trkpt lon="78.516740480920845" lat="17.631625227309176">
        <ele>506.042</ele>
        <time>2024-09-25T11:09:43Z</time>
      </trkpt>
      <trkpt lon="78.516741266014947" lat="17.63162712178999">
        <ele>506.037</ele>
        <time>2024-09-25T11:09:43Z</time>
      </trkpt>
      <trkpt lon="78.516742044477041" lat="17.631628996085968">
        <ele>506.036</ele>
        <time>2024-09-25T11:09:43Z</time>
      </trkpt>
      <trkpt lon="78.516742816881887" lat="17.631630855063417">
        <ele>506.039</ele>
        <time>2024-09-25T11:09:43Z</time>
      </trkpt>
      <trkpt lon="78.516743583873136" lat="17.631632702922623">
        <ele>506.044</ele>
        <time>2024-09-25T11:09:43Z</time>
      </trkpt>
      <trkpt lon="78.516744346123986" lat="17.631634543215963">
        <ele>506.052</ele>
        <time>2024-09-25T11:09:43Z</time>
      </trkpt>
      <trkpt lon="78.516745104306523" lat="17.631636378884021">
        <ele>506.06</ele>
        <time>2024-09-25T11:09:43Z</time>
      </trkpt>
      <trkpt lon="78.516745859068678" lat="17.631638212304086">
        <ele>506.069</ele>
        <time>2024-09-25T11:09:43Z</time>
      </trkpt>
      <trkpt lon="78.516746611017666" lat="17.631640045346277">
        <ele>506.079</ele>
        <time>2024-09-25T11:09:43Z</time>
      </trkpt>
      <trkpt lon="78.516747360708877" lat="17.631641879433431">
        <ele>506.088</ele>
        <time>2024-09-25T11:09:43Z</time>
      </trkpt>
      <trkpt lon="78.516748108639405" lat="17.631643715601818">
        <ele>506.096</ele>
        <time>2024-09-25T11:09:43Z</time>
      </trkpt>
      <trkpt lon="78.51674885524514" lat="17.631645554560315">
        <ele>506.104</ele>
        <time>2024-09-25T11:09:43Z</time>
      </trkpt>
      <trkpt lon="78.516749600900638" lat="17.631647396746384">
        <ele>506.111</ele>
        <time>2024-09-25T11:09:43Z</time>
      </trkpt>
      <trkpt lon="78.516750345921238" lat="17.631649242377708">
        <ele>506.117</ele>
        <time>2024-09-25T11:09:43Z</time>
      </trkpt>
      <trkpt lon="78.516751090566743" lat="17.631651091498721">
        <ele>506.122</ele>
        <time>2024-09-25T11:09:43Z</time>
      </trkpt>
      <trkpt lon="78.51675183504598" lat="17.631652944021731">
        <ele>506.127</ele>
        <time>2024-09-25T11:09:43Z</time>
      </trkpt>
      <trkpt lon="78.516752579522134" lat="17.63165479976248">
        <ele>506.131</ele>
        <time>2024-09-25T11:09:43Z</time>
      </trkpt>
      <trkpt lon="78.516753324118369" lat="17.631656658470327">
        <ele>506.134</ele>
        <time>2024-09-25T11:09:43Z</time>
      </trkpt>
      <trkpt lon="78.516754068923319" lat="17.631658519853289">
        <ele>506.136</ele>
        <time>2024-09-25T11:09:43Z</time>
      </trkpt>
      <trkpt lon="78.51675481399657" lat="17.631660383598362">
        <ele>506.138</ele>
        <time>2024-09-25T11:09:43Z</time>
      </trkpt>
      <trkpt lon="78.516755559373721" lat="17.631662249387563">
        <ele>506.139</ele>
        <time>2024-09-25T11:09:43Z</time>
      </trkpt>
      <trkpt lon="78.516756472776365" lat="17.631664631356365">
        <ele>506.015</ele>
        <time>2024-09-25T11:09:44Z</time>
      </trkpt>
      <trkpt lon="78.516757317704929" lat="17.631666922613231">
        <ele>505.91</ele>
        <time>2024-09-25T11:09:44Z</time>
      </trkpt>
      <trkpt lon="78.516758102406371" lat="17.631669129517334">
        <ele>505.823</ele>
        <time>2024-09-25T11:09:44Z</time>
      </trkpt>
      <trkpt lon="78.516758835188952" lat="17.631671259791808">
        <ele>505.753</ele>
        <time>2024-09-25T11:09:44Z</time>
      </trkpt>
      <trkpt lon="78.516759524118712" lat="17.631673321919738">
        <ele>505.698</ele>
        <time>2024-09-25T11:09:44Z</time>
      </trkpt>
      <trkpt lon="78.516760176798897" lat="17.631675324662474">
        <ele>505.657</ele>
        <time>2024-09-25T11:09:44Z</time>
      </trkpt>
      <trkpt lon="78.51676080021987" lat="17.631677276686844">
        <ele>505.627</ele>
        <time>2024-09-25T11:09:44Z</time>
      </trkpt>
      <trkpt lon="78.516761400667221" lat="17.631679186287435">
        <ele>505.606</ele>
        <time>2024-09-25T11:09:44Z</time>
      </trkpt>
      <trkpt lon="78.516761983676972" lat="17.631681061190182">
        <ele>505.593</ele>
        <time>2024-09-25T11:09:44Z</time>
      </trkpt>
      <trkpt lon="78.516762554027849" lat="17.631682908424025">
        <ele>505.587</ele>
        <time>2024-09-25T11:09:44Z</time>
      </trkpt>
      <trkpt lon="78.516763115761776" lat="17.63168473424841">
        <ele>505.586</ele>
        <time>2024-09-25T11:09:44Z</time>
      </trkpt>
      <trkpt lon="78.516763672224883" lat="17.63168654412533">
        <ele>505.589</ele>
        <time>2024-09-25T11:09:44Z</time>
      </trkpt>
      <trkpt lon="78.516764226122547" lat="17.631688342725969">
        <ele>505.595</ele>
        <time>2024-09-25T11:09:44Z</time>
      </trkpt>
      <trkpt lon="78.516764779583255" lat="17.63169013396314">
        <ele>505.603</ele>
        <time>2024-09-25T11:09:44Z</time>
      </trkpt>
      <trkpt lon="78.516765334226648" lat="17.631691921042119">
        <ele>505.611</ele>
        <time>2024-09-25T11:09:44Z</time>
      </trkpt>
      <trkpt lon="78.516765891232581" lat="17.6316937065235">
        <ele>505.621</ele>
        <time>2024-09-25T11:09:44Z</time>
      </trkpt>
      <trkpt lon="78.516766451408373" lat="17.631695492392971">
        <ele>505.63</ele>
        <time>2024-09-25T11:09:44Z</time>
      </trkpt>
      <trkpt lon="78.51676701525254" lat="17.631697280133917">
        <ele>505.64</ele>
        <time>2024-09-25T11:09:44Z</time>
      </trkpt>
      <trkpt lon="78.516767583013433" lat="17.63169907079952">
        <ele>505.648</ele>
        <time>2024-09-25T11:09:44Z</time>
      </trkpt>
      <trkpt lon="78.516768154742266" lat="17.631700865082134">
        <ele>505.657</ele>
        <time>2024-09-25T11:09:44Z</time>
      </trkpt>
      <trkpt lon="78.516768730339848" lat="17.631702663378039">
        <ele>505.664</ele>
        <time>2024-09-25T11:09:44Z</time>
      </trkpt>
      <trkpt lon="78.516769309597038" lat="17.631704465846585">
        <ele>505.67</ele>
        <time>2024-09-25T11:09:44Z</time>
      </trkpt>
      <trkpt lon="78.516769892229092" lat="17.631706272462974">
        <ele>505.676</ele>
        <time>2024-09-25T11:09:44Z</time>
      </trkpt>
      <trkpt lon="78.516770477904132" lat="17.631708083064471">
        <ele>505.681</ele>
        <time>2024-09-25T11:09:44Z</time>
      </trkpt>
      <trkpt lon="78.516771066266358" lat="17.631709897390003">
        <ele>505.684</ele>
        <time>2024-09-25T11:09:44Z</time>
      </trkpt>
      <trkpt lon="78.516771656954191" lat="17.631711715113429">
        <ele>505.688</ele>
        <time>2024-09-25T11:09:44Z</time>
      </trkpt>
      <trkpt lon="78.51677224961432" lat="17.631713535870901">
        <ele>505.69</ele>
        <time>2024-09-25T11:09:44Z</time>
      </trkpt>
      <trkpt lon="78.516772843911909" lat="17.631715359282776">
        <ele>505.692</ele>
        <time>2024-09-25T11:09:44Z</time>
      </trkpt>
      <trkpt lon="78.516773439537701" lat="17.631717184970686">
        <ele>505.693</ele>
        <time>2024-09-25T11:09:44Z</time>
      </trkpt>
      <trkpt lon="78.516774260194097" lat="17.631719569715369">
        <ele>505.423</ele>
        <time>2024-09-25T11:09:45Z</time>
      </trkpt>
      <trkpt lon="78.516775102699981" lat="17.63172191109938">
        <ele>505.196</ele>
        <time>2024-09-25T11:09:45Z</time>
      </trkpt>
      <trkpt lon="78.516775960107523" lat="17.631724207362698">
        <ele>505.008</ele>
        <time>2024-09-25T11:09:45Z</time>
      </trkpt>
      <trkpt lon="78.516776826661868" lat="17.631726458745582">
        <ele>504.856</ele>
        <time>2024-09-25T11:09:45Z</time>
      </trkpt>
      <trkpt lon="78.516777697707241" lat="17.631728666987797">
        <ele>504.737</ele>
        <time>2024-09-25T11:09:45Z</time>
      </trkpt>
      <trkpt lon="78.516778569578079" lat="17.631730834899038">
        <ele>504.647</ele>
        <time>2024-09-25T11:09:45Z</time>
      </trkpt>
      <trkpt lon="78.516779439482534" lat="17.631732965997951">
        <ele>504.582</ele>
        <time>2024-09-25T11:09:45Z</time>
      </trkpt>
      <trkpt lon="78.516780305384401" lat="17.631735064215405">
        <ele>504.538</ele>
        <time>2024-09-25T11:09:45Z</time>
      </trkpt>
      <trkpt lon="78.516781165887707" lat="17.631737133656493">
        <ele>504.512</ele>
        <time>2024-09-25T11:09:45Z</time>
      </trkpt>
      <trkpt lon="78.516782020127678" lat="17.631739178415067">
        <ele>504.499</ele>
        <time>2024-09-25T11:09:45Z</time>
      </trkpt>
      <trkpt lon="78.516782867669932" lat="17.631741202434338">
        <ele>504.497</ele>
        <time>2024-09-25T11:09:45Z</time>
      </trkpt>
      <trkpt lon="78.516783708419638" lat="17.63174320940702">
        <ele>504.504</ele>
        <time>2024-09-25T11:09:45Z</time>
      </trkpt>
      <trkpt lon="78.516784542541217" lat="17.631745202708743">
        <ele>504.517</ele>
        <time>2024-09-25T11:09:45Z</time>
      </trkpt>
      <trkpt lon="78.51678537038876" lat="17.631747185358893">
        <ele>504.534</ele>
        <time>2024-09-25T11:09:45Z</time>
      </trkpt>
      <trkpt lon="78.516786192447142" lat="17.631749160003448">
        <ele>504.553</ele>
        <time>2024-09-25T11:09:45Z</time>
      </trkpt>
      <trkpt lon="78.516787009282879" lat="17.631751128915017">
        <ele>504.574</ele>
        <time>2024-09-25T11:09:45Z</time>
      </trkpt>
      <trkpt lon="78.516787821504394" lat="17.631753094005823">
        <ele>504.595</ele>
        <time>2024-09-25T11:09:45Z</time>
      </trkpt>
      <trkpt lon="78.516788629730598" lat="17.631755056850022">
        <ele>504.615</ele>
        <time>2024-09-25T11:09:45Z</time>
      </trkpt>
      <trkpt lon="78.516789434566761" lat="17.631757018712257">
        <ele>504.634</ele>
        <time>2024-09-25T11:09:45Z</time>
      </trkpt>
      <trkpt lon="78.5167902365869" lat="17.631758980579949">
        <ele>504.652</ele>
        <time>2024-09-25T11:09:45Z</time>
      </trkpt>
      <trkpt lon="78.516791036321521" lat="17.631760943197236">
        <ele>504.668</ele>
        <time>2024-09-25T11:09:45Z</time>
      </trkpt>
      <trkpt lon="78.516791834249858" lat="17.631762907099024">
        <ele>504.682</ele>
        <time>2024-09-25T11:09:45Z</time>
      </trkpt>
      <trkpt lon="78.516792630795962" lat="17.631764872643927">
        <ele>504.694</ele>
        <time>2024-09-25T11:09:45Z</time>
      </trkpt>
      <trkpt lon="78.516793426327439" lat="17.631766840045216">
        <ele>504.704</ele>
        <time>2024-09-25T11:09:45Z</time>
      </trkpt>
      <trkpt lon="78.516794221156644" lat="17.631768809399176">
        <ele>504.712</ele>
        <time>2024-09-25T11:09:45Z</time>
      </trkpt>
      <trkpt lon="78.516795015543437" lat="17.631770780710582">
        <ele>504.719</ele>
        <time>2024-09-25T11:09:45Z</time>
      </trkpt>
      <trkpt lon="78.516795809699076" lat="17.631772753915051">
        <ele>504.725</ele>
        <time>2024-09-25T11:09:45Z</time>
      </trkpt>
      <trkpt lon="78.516796603790809" lat="17.631774728898307">
        <ele>504.729</ele>
        <time>2024-09-25T11:09:45Z</time>
      </trkpt>
      <trkpt lon="78.516797397946959" lat="17.631776705512426">
        <ele>504.732</ele>
        <time>2024-09-25T11:09:45Z</time>
      </trkpt>
      <trkpt lon="78.516798423453764" lat="17.63177910196303">
        <ele>504.799</ele>
        <time>2024-09-25T11:09:46Z</time>
      </trkpt>
      <trkpt lon="78.516799420032399" lat="17.631781295123847">
        <ele>504.855</ele>
        <time>2024-09-25T11:09:46Z</time>
      </trkpt>
      <trkpt lon="78.516800388776289" lat="17.631783310598408">
        <ele>504.901</ele>
        <time>2024-09-25T11:09:46Z</time>
      </trkpt>
      <trkpt lon="78.516801331476401" lat="17.631785173857935">
        <ele>504.938</ele>
        <time>2024-09-25T11:09:46Z</time>
      </trkpt>
      <trkpt lon="78.516802250387215" lat="17.631786909389312">
        <ele>504.966</ele>
        <time>2024-09-25T11:09:46Z</time>
      </trkpt>
      <trkpt lon="78.516803148034413" lat="17.631788540087001">
        <ele>504.987</ele>
        <time>2024-09-25T11:09:46Z</time>
      </trkpt>
      <trkpt lon="78.516804027060331" lat="17.631790086849975">
        <ele>505.002</ele>
        <time>2024-09-25T11:09:46Z</time>
      </trkpt>
      <trkpt lon="78.516804890103515" lat="17.631791568347179">
        <ele>505.012</ele>
        <time>2024-09-25T11:09:46Z</time>
      </trkpt>
      <trkpt lon="78.516805739708005" lat="17.631793000918172">
        <ele>505.017</ele>
        <time>2024-09-25T11:09:46Z</time>
      </trkpt>
      <trkpt lon="78.516806578258254" lat="17.631794398579125">
        <ele>505.019</ele>
        <time>2024-09-25T11:09:46Z</time>
      </trkpt>
      <trkpt lon="78.516807407935588" lat="17.631795773108042">
        <ele>505.019</ele>
        <time>2024-09-25T11:09:46Z</time>
      </trkpt>
      <trkpt lon="78.51680823069249" lat="17.631797134186712">
        <ele>505.016</ele>
        <time>2024-09-25T11:09:46Z</time>
      </trkpt>
      <trkpt lon="78.516809048241115" lat="17.631798489580532">
        <ele>505.012</ele>
        <time>2024-09-25T11:09:46Z</time>
      </trkpt>
      <trkpt lon="78.51680986205298" lat="17.631799845340616">
        <ele>505.007</ele>
        <time>2024-09-25T11:09:46Z</time>
      </trkpt>
      <trkpt lon="78.516810673367104" lat="17.631801206015663">
        <ele>505.002</ele>
        <time>2024-09-25T11:09:46Z</time>
      </trkpt>
      <trkpt lon="78.516811483204222" lat="17.631802574863858">
        <ele>504.996</ele>
        <time>2024-09-25T11:09:46Z</time>
      </trkpt>
      <trkpt lon="78.516812292385097" lat="17.631803954057439">
        <ele>504.991</ele>
        <time>2024-09-25T11:09:46Z</time>
      </trkpt>
      <trkpt lon="78.516813101551207" lat="17.631805344874572">
        <ele>504.986</ele>
        <time>2024-09-25T11:09:46Z</time>
      </trkpt>
      <trkpt lon="78.516813911186617" lat="17.631806747875093">
        <ele>504.981</ele>
        <time>2024-09-25T11:09:46Z</time>
      </trkpt>
      <trkpt lon="78.516814721639946" lat="17.631808163057894">
        <ele>504.976</ele>
        <time>2024-09-25T11:09:46Z</time>
      </trkpt>
      <trkpt lon="78.516815533145561" lat="17.631809589999062">
        <ele>504.972</ele>
        <time>2024-09-25T11:09:46Z</time>
      </trkpt>
      <trkpt lon="78.516816345843594" lat="17.631811027970691">
        <ele>504.969</ele>
        <time>2024-09-25T11:09:46Z</time>
      </trkpt>
      <trkpt lon="78.516817159798279" lat="17.631812476040999">
        <ele>504.966</ele>
        <time>2024-09-25T11:09:46Z</time>
      </trkpt>
      <trkpt lon="78.516817975014362" lat="17.631813933156867">
        <ele>504.963</ele>
        <time>2024-09-25T11:09:46Z</time>
      </trkpt>
      <trkpt lon="78.516818791451655" lat="17.6318153982103">
        <ele>504.961</ele>
        <time>2024-09-25T11:09:46Z</time>
      </trkpt>
      <trkpt lon="78.516819609037427" lat="17.631816870090411">
        <ele>504.959</ele>
        <time>2024-09-25T11:09:46Z</time>
      </trkpt>
      <trkpt lon="78.516820427676961" lat="17.631818347722714">
        <ele>504.958</ele>
        <time>2024-09-25T11:09:46Z</time>
      </trkpt>
      <trkpt lon="78.516821247262286" lat="17.631819830097474">
        <ele>504.957</ele>
        <time>2024-09-25T11:09:46Z</time>
      </trkpt>
      <trkpt lon="78.516822067679129" lat="17.631821316288836">
        <ele>504.956</ele>
        <time>2024-09-25T11:09:46Z</time>
      </trkpt>
      <trkpt lon="78.516823051367766" lat="17.631823232642045">
        <ele>504.96</ele>
        <time>2024-09-25T11:09:47Z</time>
      </trkpt>
      <trkpt lon="78.516823941457403" lat="17.631825092865476">
        <ele>504.964</ele>
        <time>2024-09-25T11:09:47Z</time>
      </trkpt>
      <trkpt lon="78.516824750175246" lat="17.631826898984929">
        <ele>504.967</ele>
        <time>2024-09-25T11:09:47Z</time>
      </trkpt>
      <trkpt lon="78.516825489564326" lat="17.631828654406466">
        <ele>504.969</ele>
        <time>2024-09-25T11:09:47Z</time>
      </trkpt>
      <trkpt lon="78.516826171110566" lat="17.631830363458317">
        <ele>504.971</ele>
        <time>2024-09-25T11:09:47Z</time>
      </trkpt>
      <trkpt lon="78.51682680548106" lat="17.631832031013545">
        <ele>504.973</ele>
        <time>2024-09-25T11:09:47Z</time>
      </trkpt>
      <trkpt lon="78.51682740235519" lat="17.631833662186676">
        <ele>504.974</ele>
        <time>2024-09-25T11:09:47Z</time>
      </trkpt>
      <trkpt lon="78.516827970331676" lat="17.631835262096633">
        <ele>504.975</ele>
        <time>2024-09-25T11:09:47Z</time>
      </trkpt>
      <trkpt lon="78.516828516895927" lat="17.631836835687885">
        <ele>504.975</ele>
        <time>2024-09-25T11:09:47Z</time>
      </trkpt>
      <trkpt lon="78.516829048434175" lat="17.631838387601665">
        <ele>504.976</ele>
        <time>2024-09-25T11:09:47Z</time>
      </trkpt>
      <trkpt lon="78.516829570282312" lat="17.631839922089444">
        <ele>504.976</ele>
        <time>2024-09-25T11:09:47Z</time>
      </trkpt>
      <trkpt lon="78.516830086799132" lat="17.631841442961242">
        <ele>504.976</ele>
        <time>2024-09-25T11:09:47Z</time>
      </trkpt>
      <trkpt lon="78.516830601455553" lat="17.631842953561979">
        <ele>504.976</ele>
        <time>2024-09-25T11:09:47Z</time>
      </trkpt>
      <trkpt lon="78.516831116932579" lat="17.631844456769805">
        <ele>504.976</ele>
        <time>2024-09-25T11:09:47Z</time>
      </trkpt>
      <trkpt lon="78.516831635222687" lat="17.631845955011077">
        <ele>504.976</ele>
        <time>2024-09-25T11:09:47Z</time>
      </trkpt>
      <trkpt lon="78.516832157730178" lat="17.631847450287289">
        <ele>504.976</ele>
        <time>2024-09-25T11:09:47Z</time>
      </trkpt>
      <trkpt lon="78.516832685367149" lat="17.631848944210176">
        <ele>504.976</ele>
        <time>2024-09-25T11:09:47Z</time>
      </trkpt>
      <trkpt lon="78.516833218643001" lat="17.631850438041695">
        <ele>504.975</ele>
        <time>2024-09-25T11:09:47Z</time>
      </trkpt>
      <trkpt lon="78.516833757745928" lat="17.631851932736296">
        <ele>504.975</ele>
        <time>2024-09-25T11:09:47Z</time>
      </trkpt>
      <trkpt lon="78.516834302615393" lat="17.63185342898349">
        <ele>504.975</ele>
        <time>2024-09-25T11:09:47Z</time>
      </trkpt>
      <trkpt lon="78.516834853005506" lat="17.631854927249112">
        <ele>504.975</ele>
        <time>2024-09-25T11:09:47Z</time>
      </trkpt>
      <trkpt lon="78.516835408539194" lat="17.631856427814224">
        <ele>504.974</ele>
        <time>2024-09-25T11:09:47Z</time>
      </trkpt>
      <trkpt lon="78.516835968753568" lat="17.631857930810835">
        <ele>504.974</ele>
        <time>2024-09-25T11:09:47Z</time>
      </trkpt>
      <trkpt lon="78.516836533137152" lat="17.631859436254015">
        <ele>504.974</ele>
        <time>2024-09-25T11:09:47Z</time>
      </trkpt>
      <trkpt lon="78.516837101159581" lat="17.631860944070144">
        <ele>504.974</ele>
        <time>2024-09-25T11:09:47Z</time>
      </trkpt>
      <trkpt lon="78.516837672294699" lat="17.631862454121336">
        <ele>504.974</ele>
        <time>2024-09-25T11:09:47Z</time>
      </trkpt>
      <trkpt lon="78.516838246037764" lat="17.631863966226014">
        <ele>504.974</ele>
        <time>2024-09-25T11:09:47Z</time>
      </trkpt>
      <trkpt lon="78.516838821917744" lat="17.631865480175993">
        <ele>504.974</ele>
        <time>2024-09-25T11:09:47Z</time>
      </trkpt>
      <trkpt lon="78.516839399505344" lat="17.631866995750247">
        <ele>504.974</ele>
        <time>2024-09-25T11:09:47Z</time>
      </trkpt>
      <trkpt lon="78.516840205957536" lat="17.631869051892309">
        <ele>504.611</ele>
        <time>2024-09-25T11:09:48Z</time>
      </trkpt>
      <trkpt lon="78.5168410425959" lat="17.631871136407121">
        <ele>504.305</ele>
        <time>2024-09-25T11:09:48Z</time>
      </trkpt>
      <trkpt lon="78.516841901063955" lat="17.631873236573156">
        <ele>504.053</ele>
        <time>2024-09-25T11:09:48Z</time>
      </trkpt>
      <trkpt lon="78.516842774304337" lat="17.631875342257189">
        <ele>503.851</ele>
        <time>2024-09-25T11:09:48Z</time>
      </trkpt>
      <trkpt lon="78.516843656484042" lat="17.631877445628991">
        <ele>503.692</ele>
        <time>2024-09-25T11:09:48Z</time>
      </trkpt>
      <trkpt lon="78.516844542895626" lat="17.631879540866329">
        <ele>503.572</ele>
        <time>2024-09-25T11:09:48Z</time>
      </trkpt>
      <trkpt lon="78.516845429843542" lat="17.631881623862803">
        <ele>503.485</ele>
        <time>2024-09-25T11:09:48Z</time>
      </trkpt>
      <trkpt lon="78.516846314523448" lat="17.631883691948062">
        <ele>503.427</ele>
        <time>2024-09-25T11:09:48Z</time>
      </trkpt>
      <trkpt lon="78.516847194900137" lat="17.631885743627009">
        <ele>503.392</ele>
        <time>2024-09-25T11:09:48Z</time>
      </trkpt>
      <trkpt lon="78.51684806958886" lat="17.631887778342389">
        <ele>503.375</ele>
        <time>2024-09-25T11:09:48Z</time>
      </trkpt>
      <trkpt lon="78.516848937743333" lat="17.631889796263259">
        <ele>503.374</ele>
        <time>2024-09-25T11:09:48Z</time>
      </trkpt>
      <trkpt lon="78.516849798952549" lat="17.63189179810032">
        <ele>503.383</ele>
        <time>2024-09-25T11:09:48Z</time>
      </trkpt>
      <trkpt lon="78.516850653147884" lat="17.631893784947881">
        <ele>503.401</ele>
        <time>2024-09-25T11:09:48Z</time>
      </trkpt>
      <trkpt lon="78.516851500521184" lat="17.631895758151419">
        <ele>503.424</ele>
        <time>2024-09-25T11:09:48Z</time>
      </trkpt>
      <trkpt lon="78.516852341453969" lat="17.631897719199021">
        <ele>503.45</ele>
        <time>2024-09-25T11:09:48Z</time>
      </trkpt>
      <trkpt lon="78.516853176457531" lat="17.631899669634596">
        <ele>503.478</ele>
        <time>2024-09-25T11:09:48Z</time>
      </trkpt>
      <trkpt lon="78.516854006123211" lat="17.631901610990504">
        <ele>503.506</ele>
        <time>2024-09-25T11:09:48Z</time>
      </trkpt>
      <trkpt lon="78.516854831082156" lat="17.631903544737199">
        <ele>503.534</ele>
        <time>2024-09-25T11:09:48Z</time>
      </trkpt>
      <trkpt lon="78.516855651973572" lat="17.631905472247389">
        <ele>503.559</ele>
        <time>2024-09-25T11:09:48Z</time>
      </trkpt>
      <trkpt lon="78.516856469420574" lat="17.631907394772433">
        <ele>503.583</ele>
        <time>2024-09-25T11:09:48Z</time>
      </trkpt>
      <trkpt lon="78.516857284012488" lat="17.631909313428746">
        <ele>503.605</ele>
        <time>2024-09-25T11:09:48Z</time>
      </trkpt>
      <trkpt lon="78.516858096292722" lat="17.631911229192262">
        <ele>503.623</ele>
        <time>2024-09-25T11:09:48Z</time>
      </trkpt>
      <trkpt lon="78.516858906751182" lat="17.631913142899123">
        <ele>503.64</ele>
        <time>2024-09-25T11:09:48Z</time>
      </trkpt>
      <trkpt lon="78.516859715820445" lat="17.631915055251039">
        <ele>503.653</ele>
        <time>2024-09-25T11:09:48Z</time>
      </trkpt>
      <trkpt lon="78.51686052387484" lat="17.631916966824043">
        <ele>503.665</ele>
        <time>2024-09-25T11:09:48Z</time>
      </trkpt>
      <trkpt lon="78.516861331231766" lat="17.631918878079397">
        <ele>503.674</ele>
        <time>2024-09-25T11:09:48Z</time>
      </trkpt>
      <trkpt lon="78.516862138154735" lat="17.63192078937584">
        <ele>503.681</ele>
        <time>2024-09-25T11:09:48Z</time>
      </trkpt>
      <trkpt lon="78.516862944857422" lat="17.631922700982372">
        <ele>503.687</ele>
        <time>2024-09-25T11:09:48Z</time>
      </trkpt>
      <trkpt lon="78.516863751508595" lat="17.631924613090998">
        <ele>503.691</ele>
        <time>2024-09-25T11:09:48Z</time>
      </trkpt>
      <trkpt lon="78.516864724444346" lat="17.631927036155115">
        <ele>503.87</ele>
        <time>2024-09-25T11:09:49Z</time>
      </trkpt>
      <trkpt lon="78.516865610077517" lat="17.631929350815867">
        <ele>504.02</ele>
        <time>2024-09-25T11:09:49Z</time>
      </trkpt>
      <trkpt lon="78.516866419691468" lat="17.631931566465632">
        <ele>504.144</ele>
        <time>2024-09-25T11:09:49Z</time>
      </trkpt>
      <trkpt lon="78.516867164431858" lat="17.631933693623079">
        <ele>504.243</ele>
        <time>2024-09-25T11:09:49Z</time>
      </trkpt>
      <trkpt lon="78.516867854953432" lat="17.631935743290601">
        <ele>504.32</ele>
        <time>2024-09-25T11:09:49Z</time>
      </trkpt>
      <trkpt lon="78.516868501170919" lat="17.631937726453113">
        <ele>504.377</ele>
        <time>2024-09-25T11:09:49Z</time>
      </trkpt>
      <trkpt lon="78.516869112096757" lat="17.631939653700879">
        <ele>504.418</ele>
        <time>2024-09-25T11:09:49Z</time>
      </trkpt>
      <trkpt lon="78.516869695750373" lat="17.631941534958866">
        <ele>504.446</ele>
        <time>2024-09-25T11:09:49Z</time>
      </trkpt>
      <trkpt lon="78.516870259124047" lat="17.631943379305845">
        <ele>504.462</ele>
        <time>2024-09-25T11:09:49Z</time>
      </trkpt>
      <trkpt lon="78.516870808192976" lat="17.631945194867424">
        <ele>504.468</ele>
        <time>2024-09-25T11:09:49Z</time>
      </trkpt>
      <trkpt lon="78.51687134795813" lat="17.631946988768494">
        <ele>504.468</ele>
        <time>2024-09-25T11:09:49Z</time>
      </trkpt>
      <trkpt lon="78.516871882512447" lat="17.631948767132169">
        <ele>504.462</ele>
        <time>2024-09-25T11:09:49Z</time>
      </trkpt>
      <trkpt lon="78.516872415122222" lat="17.631950535113731">
        <ele>504.453</ele>
        <time>2024-09-25T11:09:49Z</time>
      </trkpt>
      <trkpt lon="78.516872948317143" lat="17.631952296959888">
        <ele>504.441</ele>
        <time>2024-09-25T11:09:49Z</time>
      </trkpt>
      <trkpt lon="78.516873483983829" lat="17.63195405608494">
        <ele>504.427</ele>
        <time>2024-09-25T11:09:49Z</time>
      </trkpt>
      <trkpt lon="78.516874023458598" lat="17.631955815157145">
        <ele>504.413</ele>
        <time>2024-09-25T11:09:49Z</time>
      </trkpt>
      <trkpt lon="78.516874567616526" lat="17.631957576189713">
        <ele>504.398</ele>
        <time>2024-09-25T11:09:49Z</time>
      </trkpt>
      <trkpt lon="78.516875116954623" lat="17.63195934063215">
        <ele>504.384</ele>
        <time>2024-09-25T11:09:49Z</time>
      </trkpt>
      <trkpt lon="78.516875671667648" lat="17.631961109458697">
        <ele>504.371</ele>
        <time>2024-09-25T11:09:49Z</time>
      </trkpt>
      <trkpt lon="78.516876231715742" lat="17.631962883251497">
        <ele>504.36</ele>
        <time>2024-09-25T11:09:49Z</time>
      </trkpt>
      <trkpt lon="78.516876796883565" lat="17.6319646622769">
        <ele>504.349</ele>
        <time>2024-09-25T11:09:49Z</time>
      </trkpt>
      <trkpt lon="78.516877366831011" lat="17.631966446553964">
        <ele>504.34</ele>
        <time>2024-09-25T11:09:49Z</time>
      </trkpt>
      <trkpt lon="78.516877941135689" lat="17.631968235914677">
        <ele>504.332</ele>
        <time>2024-09-25T11:09:49Z</time>
      </trkpt>
      <trkpt lon="78.516878519327904" lat="17.631970030055825">
        <ele>504.325</ele>
        <time>2024-09-25T11:09:49Z</time>
      </trkpt>
      <trkpt lon="78.51687910091853" lat="17.631971828582834">
        <ele>504.319</ele>
        <time>2024-09-25T11:09:49Z</time>
      </trkpt>
      <trkpt lon="78.516879685420875" lat="17.631973631045945">
        <ele>504.315</ele>
        <time>2024-09-25T11:09:49Z</time>
      </trkpt>
      <trkpt lon="78.516880272366933" lat="17.631975436969427">
        <ele>504.311</ele>
        <time>2024-09-25T11:09:49Z</time>
      </trkpt>
      <trkpt lon="78.516880861319038" lat="17.631977245874488">
        <ele>504.309</ele>
        <time>2024-09-25T11:09:49Z</time>
      </trkpt>
      <trkpt lon="78.516881451877595" lat="17.631979057296661">
        <ele>504.307</ele>
        <time>2024-09-25T11:09:49Z</time>
      </trkpt>
      <trkpt lon="78.516882237984092" lat="17.631981393578339">
        <ele>504.341</ele>
        <time>2024-09-25T11:09:50Z</time>
      </trkpt>
      <trkpt lon="78.516883022558744" lat="17.631983661766174">
        <ele>504.37</ele>
        <time>2024-09-25T11:09:50Z</time>
      </trkpt>
      <trkpt lon="78.516883802752062" lat="17.63198586448258">
        <ele>504.395</ele>
        <time>2024-09-25T11:09:50Z</time>
      </trkpt>
      <trkpt lon="78.516884576568202" lat="17.631988005978123">
        <ele>504.415</ele>
        <time>2024-09-25T11:09:50Z</time>
      </trkpt>
      <trkpt lon="78.51688534272418" lat="17.631990091583088">
        <ele>504.431</ele>
        <time>2024-09-25T11:09:50Z</time>
      </trkpt>
      <trkpt lon="78.51688610051886" lat="17.631992127256556">
        <ele>504.443</ele>
        <time>2024-09-25T11:09:50Z</time>
      </trkpt>
      <trkpt lon="78.516886849714098" lat="17.631994119224647">
        <ele>504.452</ele>
        <time>2024-09-25T11:09:50Z</time>
      </trkpt>
      <trkpt lon="78.516887590429036" lat="17.631996073698549">
        <ele>504.458</ele>
        <time>2024-09-25T11:09:50Z</time>
      </trkpt>
      <trkpt lon="78.516888323047993" lat="17.631997996662491">
        <ele>504.462</ele>
        <time>2024-09-25T11:09:50Z</time>
      </trkpt>
      <trkpt lon="78.516889048141834" lat="17.63199989372179">
        <ele>504.464</ele>
        <time>2024-09-25T11:09:50Z</time>
      </trkpt>
      <trkpt lon="78.51688976640223" lat="17.632001770001455">
        <ele>504.465</ele>
        <time>2024-09-25T11:09:50Z</time>
      </trkpt>
      <trkpt lon="78.516890478587911" lat="17.632003630086469">
        <ele>504.465</ele>
        <time>2024-09-25T11:09:50Z</time>
      </trkpt>
      <trkpt lon="78.516891185481754" lat="17.63200547799547">
        <ele>504.464</ele>
        <time>2024-09-25T11:09:50Z</time>
      </trkpt>
      <trkpt lon="78.51689188785771" lat="17.632007317180648">
        <ele>504.462</ele>
        <time>2024-09-25T11:09:50Z</time>
      </trkpt>
      <trkpt lon="78.51689258645608" lat="17.632009150547276">
        <ele>504.46</ele>
        <time>2024-09-25T11:09:50Z</time>
      </trkpt>
      <trkpt lon="78.516893281966134" lat="17.632010980487472">
        <ele>504.457</ele>
        <time>2024-09-25T11:09:50Z</time>
      </trkpt>
      <trkpt lon="78.516893975014682" lat="17.632012808923445">
        <ele>504.455</ele>
        <time>2024-09-25T11:09:50Z</time>
      </trkpt>
      <trkpt lon="78.516894666159715" lat="17.632014637356427">
        <ele>504.452</ele>
        <time>2024-09-25T11:09:50Z</time>
      </trkpt>
      <trkpt lon="78.516895355887968" lat="17.632016466918181">
        <ele>504.45</ele>
        <time>2024-09-25T11:09:50Z</time>
      </trkpt>
      <trkpt lon="78.516896044615549" lat="17.632018298422633">
        <ele>504.448</ele>
        <time>2024-09-25T11:09:50Z</time>
      </trkpt>
      <trkpt lon="78.516896732690867" lat="17.632020132415878">
        <ele>504.446</ele>
        <time>2024-09-25T11:09:50Z</time>
      </trkpt>
      <trkpt lon="78.516897420399246" lat="17.632021969223132">
        <ele>504.444</ele>
        <time>2024-09-25T11:09:50Z</time>
      </trkpt>
      <trkpt lon="78.516898107968473" lat="17.632023808991818">
        <ele>504.443</ele>
        <time>2024-09-25T11:09:50Z</time>
      </trkpt>
      <trkpt lon="78.516898795575102" lat="17.632025651730221">
        <ele>504.441</ele>
        <time>2024-09-25T11:09:50Z</time>
      </trkpt>
      <trkpt lon="78.51689948335094" lat="17.632027497341447">
        <ele>504.44</ele>
        <time>2024-09-25T11:09:50Z</time>
      </trkpt>
      <trkpt lon="78.516900171389437" lat="17.632029345652693">
        <ele>504.439</ele>
        <time>2024-09-25T11:09:50Z</time>
      </trkpt>
      <trkpt lon="78.516900859751956" lat="17.632031196439922">
        <ele>504.439</ele>
        <time>2024-09-25T11:09:50Z</time>
      </trkpt>
      <trkpt lon="78.51690154847347" lat="17.632033049448268">
        <ele>504.438</ele>
        <time>2024-09-25T11:09:50Z</time>
      </trkpt>
      <trkpt lon="78.516902237567862" lat="17.632034904408464">
        <ele>504.438</ele>
        <time>2024-09-25T11:09:50Z</time>
      </trkpt>
      <trkpt lon="78.516903146613373" lat="17.63203739038952">
        <ele>504.434</ele>
        <time>2024-09-25T11:09:51Z</time>
      </trkpt>
      <trkpt lon="78.516904046760132" lat="17.6320398853636">
        <ele>504.431</ele>
        <time>2024-09-25T11:09:51Z</time>
      </trkpt>
      <trkpt lon="78.516904936084202" lat="17.632042378273336">
        <ele>504.428</ele>
        <time>2024-09-25T11:09:51Z</time>
      </trkpt>
      <trkpt lon="78.516905813511116" lat="17.632044860855206">
        <ele>504.427</ele>
        <time>2024-09-25T11:09:51Z</time>
      </trkpt>
      <trkpt lon="78.516906678644105" lat="17.63204732723872">
        <ele>504.425</ele>
        <time>2024-09-25T11:09:51Z</time>
      </trkpt>
      <trkpt lon="78.516907531611025" lat="17.632049773561153">
        <ele>504.424</ele>
        <time>2024-09-25T11:09:51Z</time>
      </trkpt>
      <trkpt lon="78.516908372930814" lat="17.632052197607432">
        <ele>504.423</ele>
        <time>2024-09-25T11:09:51Z</time>
      </trkpt>
      <trkpt lon="78.516909203399109" lat="17.632054598481435">
        <ele>504.423</ele>
        <time>2024-09-25T11:09:51Z</time>
      </trkpt>
      <trkpt lon="78.516910023992537" lat="17.632056976312388">
        <ele>504.423</ele>
        <time>2024-09-25T11:09:51Z</time>
      </trkpt>
      <trkpt lon="78.516910835790256" lat="17.632059331997976">
        <ele>504.423</ele>
        <time>2024-09-25T11:09:51Z</time>
      </trkpt>
      <trkpt lon="78.516911639911214" lat="17.632061666983972">
        <ele>504.423</ele>
        <time>2024-09-25T11:09:51Z</time>
      </trkpt>
      <trkpt lon="78.516912437465464" lat="17.6320639830791">
        <ele>504.423</ele>
        <time>2024-09-25T11:09:51Z</time>
      </trkpt>
      <trkpt lon="78.516913229517911" lat="17.632066282302862">
        <ele>504.423</ele>
        <time>2024-09-25T11:09:51Z</time>
      </trkpt>
      <trkpt lon="78.516914017062305" lat="17.632068566763522">
        <ele>504.423</ele>
        <time>2024-09-25T11:09:51Z</time>
      </trkpt>
      <trkpt lon="78.516914801004319" lat="17.63207083856302">
        <ele>504.424</ele>
        <time>2024-09-25T11:09:51Z</time>
      </trkpt>
      <trkpt lon="78.516915582151796" lat="17.632073099725556">
        <ele>504.424</ele>
        <time>2024-09-25T11:09:51Z</time>
      </trkpt>
      <trkpt lon="78.516916361210747" lat="17.632075352146405">
        <ele>504.424</ele>
        <time>2024-09-25T11:09:51Z</time>
      </trkpt>
      <trkpt lon="78.516917138785885" lat="17.632077597557842">
        <ele>504.425</ele>
        <time>2024-09-25T11:09:51Z</time>
      </trkpt>
      <trkpt lon="78.516917915384582" lat="17.632079837509121">
        <ele>504.425</ele>
        <time>2024-09-25T11:09:51Z</time>
      </trkpt>
      <trkpt lon="78.516918691423257" lat="17.632082073357719">
        <ele>504.425</ele>
        <time>2024-09-25T11:09:51Z</time>
      </trkpt>
      <trkpt lon="78.516919467235226" lat="17.632084306269395">
        <ele>504.425</ele>
        <time>2024-09-25T11:09:51Z</time>
      </trkpt>
      <trkpt lon="78.516920243079625" lat="17.632086537224925">
        <ele>504.426</ele>
        <time>2024-09-25T11:09:51Z</time>
      </trkpt>
      <trkpt lon="78.516921019150658" lat="17.632088767031565">
        <ele>504.426</ele>
        <time>2024-09-25T11:09:51Z</time>
      </trkpt>
      <trkpt lon="78.516921795586882" lat="17.63209099633773">
        <ele>504.426</ele>
        <time>2024-09-25T11:09:51Z</time>
      </trkpt>
      <trkpt lon="78.516922572480041" lat="17.632093225649598">
        <ele>504.426</ele>
        <time>2024-09-25T11:09:51Z</time>
      </trkpt>
      <trkpt lon="78.516923349883399" lat="17.632095455348527">
        <ele>504.426</ele>
        <time>2024-09-25T11:09:51Z</time>
      </trkpt>
      <trkpt lon="78.516924127819451" lat="17.632097685708555">
        <ele>504.426</ele>
        <time>2024-09-25T11:09:51Z</time>
      </trkpt>
      <trkpt lon="78.51692490628659" lat="17.632099916913287">
        <ele>504.426</ele>
        <time>2024-09-25T11:09:51Z</time>
      </trkpt>
      <trkpt lon="78.516925685265193" lat="17.632102149071798">
        <ele>504.426</ele>
        <time>2024-09-25T11:09:51Z</time>
      </trkpt>
      <trkpt lon="78.516926654339272" lat="17.632104905762223">
        <ele>504.556</ele>
        <time>2024-09-25T11:09:52Z</time>
      </trkpt>
      <trkpt lon="78.516927564063238" lat="17.632107475303943">
        <ele>504.665</ele>
        <time>2024-09-25T11:09:52Z</time>
      </trkpt>
      <trkpt lon="78.516928420896406" lat="17.632109879255715">
        <ele>504.754</ele>
        <time>2024-09-25T11:09:52Z</time>
      </trkpt>
      <trkpt lon="78.516929231544779" lat="17.632112139619625">
        <ele>504.827</ele>
        <time>2024-09-25T11:09:52Z</time>
      </trkpt>
      <trkpt lon="78.516930002667408" lat="17.632114277967869">
        <ele>504.883</ele>
        <time>2024-09-25T11:09:52Z</time>
      </trkpt>
      <trkpt lon="78.516930740656676" lat="17.632116314799376">
        <ele>504.926</ele>
        <time>2024-09-25T11:09:52Z</time>
      </trkpt>
      <trkpt lon="78.516931451481938" lat="17.632118269092139">
        <ele>504.957</ele>
        <time>2024-09-25T11:09:52Z</time>
      </trkpt>
      <trkpt lon="78.516932140586391" lat="17.632120158018559">
        <ele>504.978</ele>
        <time>2024-09-25T11:09:52Z</time>
      </trkpt>
      <trkpt lon="78.516932812827491" lat="17.632121996793565">
        <ele>504.99</ele>
        <time>2024-09-25T11:09:52Z</time>
      </trkpt>
      <trkpt lon="78.516933472452578" lat="17.632123798628115">
        <ele>504.996</ele>
        <time>2024-09-25T11:09:52Z</time>
      </trkpt>
      <trkpt lon="78.51693412310145" lat="17.632125574763748">
        <ele>504.997</ele>
        <time>2024-09-25T11:09:52Z</time>
      </trkpt>
      <trkpt lon="78.516934767829611" lat="17.632127334566999">
        <ele>504.993</ele>
        <time>2024-09-25T11:09:52Z</time>
      </trkpt>
      <trkpt lon="78.516935409145958" lat="17.632129085665724">
        <ele>504.987</ele>
        <time>2024-09-25T11:09:52Z</time>
      </trkpt>
      <trkpt lon="78.516936049060234" lat="17.632130834112214">
        <ele>504.979</ele>
        <time>2024-09-25T11:09:52Z</time>
      </trkpt>
      <trkpt lon="78.516936689136088" lat="17.632132584560892">
        <ele>504.969</ele>
        <time>2024-09-25T11:09:52Z</time>
      </trkpt>
      <trkpt lon="78.516937330546639" lat="17.632134340450804">
        <ele>504.959</ele>
        <time>2024-09-25T11:09:52Z</time>
      </trkpt>
      <trkpt lon="78.516937974129831" lat="17.632136104185381">
        <ele>504.949</ele>
        <time>2024-09-25T11:09:52Z</time>
      </trkpt>
      <trkpt lon="78.516938620441863" lat="17.632137877303933">
        <ele>504.94</ele>
        <time>2024-09-25T11:09:52Z</time>
      </trkpt>
      <trkpt lon="78.516939269807239" lat="17.632139660640917">
        <ele>504.93</ele>
        <time>2024-09-25T11:09:52Z</time>
      </trkpt>
      <trkpt lon="78.516939922364543" lat="17.632141454470489">
        <ele>504.922</ele>
        <time>2024-09-25T11:09:52Z</time>
      </trkpt>
      <trkpt lon="78.516940578107395" lat="17.632143258634908">
        <ele>504.914</ele>
        <time>2024-09-25T11:09:52Z</time>
      </trkpt>
      <trkpt lon="78.516941236920317" lat="17.632145072656353">
        <ele>504.908</ele>
        <time>2024-09-25T11:09:52Z</time>
      </trkpt>
      <trkpt lon="78.516941898609701" lat="17.632146895832307">
        <ele>504.902</ele>
        <time>2024-09-25T11:09:52Z</time>
      </trkpt>
      <trkpt lon="78.516942562929643" lat="17.632148727315272">
        <ele>504.897</ele>
        <time>2024-09-25T11:09:52Z</time>
      </trkpt>
      <trkpt lon="78.516943229603456" lat="17.632150566177906">
        <ele>504.893</ele>
        <time>2024-09-25T11:09:52Z</time>
      </trkpt>
      <trkpt lon="78.516943898340841" lat="17.632152411464862">
        <ele>504.89</ele>
        <time>2024-09-25T11:09:52Z</time>
      </trkpt>
      <trkpt lon="78.51694456885123" lat="17.632154262232888">
        <ele>504.887</ele>
        <time>2024-09-25T11:09:52Z</time>
      </trkpt>
      <trkpt lon="78.516945240854085" lat="17.632156117580582">
        <ele>504.885</ele>
        <time>2024-09-25T11:09:52Z</time>
      </trkpt>
      <trkpt lon="78.516945914086079" lat="17.632157976669415">
        <ele>504.884</ele>
        <time>2024-09-25T11:09:52Z</time>
      </trkpt>
      <trkpt lon="78.516946776424362" lat="17.632160454125085">
        <ele>504.937</ele>
        <time>2024-09-25T11:09:53Z</time>
      </trkpt>
      <trkpt lon="78.516947608448149" lat="17.632162928949697">
        <ele>504.981</ele>
        <time>2024-09-25T11:09:53Z</time>
      </trkpt>
      <trkpt lon="78.516948411981886" lat="17.632165391922445">
        <ele>505.019</ele>
        <time>2024-09-25T11:09:53Z</time>
      </trkpt>
      <trkpt lon="78.516949189390289" lat="17.632167836504152">
        <ele>505.049</ele>
        <time>2024-09-25T11:09:53Z</time>
      </trkpt>
      <trkpt lon="78.516949943363272" lat="17.632170258404184">
        <ele>505.072</ele>
        <time>2024-09-25T11:09:53Z</time>
      </trkpt>
      <trkpt lon="78.516950676742368" lat="17.632172655175911">
        <ele>505.09</ele>
        <time>2024-09-25T11:09:53Z</time>
      </trkpt>
      <trkpt lon="78.516951392384826" lat="17.632175025847701">
        <ele>505.104</ele>
        <time>2024-09-25T11:09:53Z</time>
      </trkpt>
      <trkpt lon="78.516952093060425" lat="17.632177370593553">
        <ele>505.113</ele>
        <time>2024-09-25T11:09:53Z</time>
      </trkpt>
      <trkpt lon="78.516952781376858" lat="17.632179690445003">
        <ele>505.118</ele>
        <time>2024-09-25T11:09:53Z</time>
      </trkpt>
      <trkpt lon="78.516953459729081" lat="17.632181987044209">
        <ele>505.121</ele>
        <time>2024-09-25T11:09:53Z</time>
      </trkpt>
      <trkpt lon="78.516954130268473" lat="17.632184262436581">
        <ele>505.122</ele>
        <time>2024-09-25T11:09:53Z</time>
      </trkpt>
      <trkpt lon="78.516954794888136" lat="17.632186518900468">
        <ele>505.121</ele>
        <time>2024-09-25T11:09:53Z</time>
      </trkpt>
      <trkpt lon="78.516955455220682" lat="17.632188758810692">
        <ele>505.119</ele>
        <time>2024-09-25T11:09:53Z</time>
      </trkpt>
      <trkpt lon="78.516956112645701" lat="17.632190984532329">
        <ele>505.116</ele>
        <time>2024-09-25T11:09:53Z</time>
      </trkpt>
      <trkpt lon="78.516956768304127" lat="17.632193198340961">
        <ele>505.112</ele>
        <time>2024-09-25T11:09:53Z</time>
      </trkpt>
      <trkpt lon="78.516957423117347" lat="17.632195402365692">
        <ele>505.108</ele>
        <time>2024-09-25T11:09:53Z</time>
      </trkpt>
      <trkpt lon="78.516958077809306" lat="17.632197598551247">
        <ele>505.104</ele>
        <time>2024-09-25T11:09:53Z</time>
      </trkpt>
      <trkpt lon="78.516958732929893" lat="17.632199788635848">
        <ele>505.1</ele>
        <time>2024-09-25T11:09:53Z</time>
      </trkpt>
      <trkpt lon="78.51695938887876" lat="17.632201974141669">
        <ele>505.097</ele>
        <time>2024-09-25T11:09:53Z</time>
      </trkpt>
      <trkpt lon="78.516960045928414" lat="17.63220415637516">
        <ele>505.093</ele>
        <time>2024-09-25T11:09:53Z</time>
      </trkpt>
      <trkpt lon="78.516960704246031" lat="17.632206336434798">
        <ele>505.09</ele>
        <time>2024-09-25T11:09:53Z</time>
      </trkpt>
      <trkpt lon="78.516961363913595" lat="17.632208515224129">
        <ele>505.087</ele>
        <time>2024-09-25T11:09:53Z</time>
      </trkpt>
      <trkpt lon="78.516962024946025" lat="17.632210693468362">
        <ele>505.085</ele>
        <time>2024-09-25T11:09:53Z</time>
      </trkpt>
      <trkpt lon="78.516962687307171" lat="17.632212871733113">
        <ele>505.083</ele>
        <time>2024-09-25T11:09:53Z</time>
      </trkpt>
      <trkpt lon="78.516963350923646" lat="17.632215050444039">
        <ele>505.081</ele>
        <time>2024-09-25T11:09:53Z</time>
      </trkpt>
      <trkpt lon="78.516964015696516" lat="17.632217229906509">
        <ele>505.08</ele>
        <time>2024-09-25T11:09:53Z</time>
      </trkpt>
      <trkpt lon="78.51696468151107" lat="17.632219410324616">
        <ele>505.079</ele>
        <time>2024-09-25T11:09:53Z</time>
      </trkpt>
      <trkpt lon="78.516965348244625" lat="17.632221591819022">
        <ele>505.078</ele>
        <time>2024-09-25T11:09:53Z</time>
      </trkpt>
      <trkpt lon="78.516966015772809" lat="17.632223774443297">
        <ele>505.077</ele>
        <time>2024-09-25T11:09:53Z</time>
      </trkpt>
      <trkpt lon="78.516966890632915" lat="17.63222652264735">
        <ele>504.826</ele>
        <time>2024-09-25T11:09:54Z</time>
      </trkpt>
      <trkpt lon="78.516967752087496" lat="17.632229132225966">
        <ele>504.613</ele>
        <time>2024-09-25T11:09:54Z</time>
      </trkpt>
      <trkpt lon="78.516968599068292" lat="17.632231616460643">
        <ele>504.439</ele>
        <time>2024-09-25T11:09:54Z</time>
      </trkpt>
      <trkpt lon="78.516969431272713" lat="17.632233989716244">
        <ele>504.298</ele>
        <time>2024-09-25T11:09:54Z</time>
      </trkpt>
      <trkpt lon="78.5169702489858" lat="17.632236266675431">
        <ele>504.188</ele>
        <time>2024-09-25T11:09:54Z</time>
      </trkpt>
      <trkpt lon="78.516971052925683" lat="17.632238461750493">
        <ele>504.105</ele>
        <time>2024-09-25T11:09:54Z</time>
      </trkpt>
      <trkpt lon="78.516971844112064" lat="17.632240588649399">
        <ele>504.045</ele>
        <time>2024-09-25T11:09:54Z</time>
      </trkpt>
      <trkpt lon="78.516972623756516" lat="17.632242660073118">
        <ele>504.004</ele>
        <time>2024-09-25T11:09:54Z</time>
      </trkpt>
      <trkpt lon="78.516973393173174" lat="17.632244687522441">
        <ele>503.98</ele>
        <time>2024-09-25T11:09:54Z</time>
      </trkpt>
      <trkpt lon="78.516974153707849" lat="17.632246681194026">
        <ele>503.969</ele>
        <time>2024-09-25T11:09:54Z</time>
      </trkpt>
      <trkpt lon="78.516974906683515" lat="17.632248649947346">
        <ele>503.968</ele>
        <time>2024-09-25T11:09:54Z</time>
      </trkpt>
      <trkpt lon="78.516975653359964" lat="17.632250601326191">
        <ele>503.975</ele>
        <time>2024-09-25T11:09:54Z</time>
      </trkpt>
      <trkpt lon="78.516976394905583" lat="17.632252541620591">
        <ele>503.987</ele>
        <time>2024-09-25T11:09:54Z</time>
      </trkpt>
      <trkpt lon="78.516977132379353" lat="17.632254475957019">
        <ele>504.003</ele>
        <time>2024-09-25T11:09:54Z</time>
      </trkpt>
      <trkpt lon="78.516977866720936" lat="17.632256408406807">
        <ele>504.022</ele>
        <time>2024-09-25T11:09:54Z</time>
      </trkpt>
      <trkpt lon="78.516978598747428" lat="17.6322583421045">
        <ele>504.041</ele>
        <time>2024-09-25T11:09:54Z</time>
      </trkpt>
      <trkpt lon="78.51697932915522" lat="17.632260279369639">
        <ele>504.061</ele>
        <time>2024-09-25T11:09:54Z</time>
      </trkpt>
      <trkpt lon="78.516980058525419" lat="17.632262221826831">
        <ele>504.08</ele>
        <time>2024-09-25T11:09:54Z</time>
      </trkpt>
      <trkpt lon="78.516980787332159" lat="17.632264170520418">
        <ele>504.098</ele>
        <time>2024-09-25T11:09:54Z</time>
      </trkpt>
      <trkpt lon="78.516981515952367" lat="17.632266126021051">
        <ele>504.114</ele>
        <time>2024-09-25T11:09:54Z</time>
      </trkpt>
      <trkpt lon="78.516982244676697" lat="17.632268088522505">
        <ele>504.129</ele>
        <time>2024-09-25T11:09:54Z</time>
      </trkpt>
      <trkpt lon="78.516982973720616" lat="17.632270057927709">
        <ele>504.142</ele>
        <time>2024-09-25T11:09:54Z</time>
      </trkpt>
      <trkpt lon="78.516983703235439" lat="17.63227203392373">
        <ele>504.153</ele>
        <time>2024-09-25T11:09:54Z</time>
      </trkpt>
      <trkpt lon="78.516984433318896" lat="17.632274016045788">
        <ele>504.163</ele>
        <time>2024-09-25T11:09:54Z</time>
      </trkpt>
      <trkpt lon="78.516985164024902" lat="17.632276003730766">
        <ele>504.171</ele>
        <time>2024-09-25T11:09:54Z</time>
      </trkpt>
      <trkpt lon="78.516985895372443" lat="17.632277996360987">
        <ele>504.177</ele>
        <time>2024-09-25T11:09:54Z</time>
      </trkpt>
      <trkpt lon="78.516986627353617" lat="17.63227999329909">
        <ele>504.182</ele>
        <time>2024-09-25T11:09:54Z</time>
      </trkpt>
      <trkpt lon="78.516987359940401" lat="17.632281993915019">
        <ele>504.186</ele>
        <time>2024-09-25T11:09:54Z</time>
      </trkpt>
      <trkpt lon="78.516988093090688" lat="17.632283997606095">
        <ele>504.189</ele>
        <time>2024-09-25T11:09:54Z</time>
      </trkpt>
      <trkpt lon="78.516988968427142" lat="17.63228644568807">
        <ele>503.847</ele>
        <time>2024-09-25T11:09:55Z</time>
      </trkpt>
      <trkpt lon="78.516989756951489" lat="17.632288703701509">
        <ele>503.558</ele>
        <time>2024-09-25T11:09:55Z</time>
      </trkpt>
      <trkpt lon="78.516990470165851" lat="17.63229079464848">
        <ele>503.32</ele>
        <time>2024-09-25T11:09:55Z</time>
      </trkpt>
      <trkpt lon="78.516991119356135" lat="17.632292741670351">
        <ele>503.128</ele>
        <time>2024-09-25T11:09:55Z</time>
      </trkpt>
      <trkpt lon="78.516991715253354" lat="17.632294567209833">
        <ele>502.977</ele>
        <time>2024-09-25T11:09:55Z</time>
      </trkpt>
      <trkpt lon="78.516992267797477" lat="17.632296292403542">
        <ele>502.863</ele>
        <time>2024-09-25T11:09:55Z</time>
      </trkpt>
      <trkpt lon="78.516992785987057" lat="17.632297936669509">
        <ele>502.78</ele>
        <time>2024-09-25T11:09:55Z</time>
      </trkpt>
      <trkpt lon="78.516993277798434" lat="17.632299517455888">
        <ele>502.724</ele>
        <time>2024-09-25T11:09:55Z</time>
      </trkpt>
      <trkpt lon="78.516993750160395" lat="17.632301050119953">
        <ele>502.69</ele>
        <time>2024-09-25T11:09:55Z</time>
      </trkpt>
      <trkpt lon="78.516994208971411" lat="17.632302547909493">
        <ele>502.674</ele>
        <time>2024-09-25T11:09:55Z</time>
      </trkpt>
      <trkpt lon="78.516994659148452" lat="17.632304022022058">
        <ele>502.671</ele>
        <time>2024-09-25T11:09:55Z</time>
      </trkpt>
      <trkpt lon="78.51699510469787" lat="17.632305481720817">
        <ele>502.679</ele>
        <time>2024-09-25T11:09:55Z</time>
      </trkpt>
      <trkpt lon="78.516995548800409" lat="17.632306934489065">
        <ele>502.695</ele>
        <time>2024-09-25T11:09:55Z</time>
      </trkpt>
      <trkpt lon="78.516995993904047" lat="17.632308386208518">
        <ele>502.716</ele>
        <time>2024-09-25T11:09:55Z</time>
      </trkpt>
      <trkpt lon="78.516996441819316" lat="17.632309841349326">
        <ele>502.741</ele>
        <time>2024-09-25T11:09:55Z</time>
      </trkpt>
      <trkpt lon="78.516996893813371" lat="17.632311303162339">
        <ele>502.767</ele>
        <time>2024-09-25T11:09:55Z</time>
      </trkpt>
      <trkpt lon="78.516997350699768" lat="17.632312773866381">
        <ele>502.793</ele>
        <time>2024-09-25T11:09:55Z</time>
      </trkpt>
      <trkpt lon="78.516997812921872" lat="17.632314254825253">
        <ele>502.819</ele>
        <time>2024-09-25T11:09:55Z</time>
      </trkpt>
      <trkpt lon="78.516998280628613" lat="17.63231574671088">
        <ele>502.843</ele>
        <time>2024-09-25T11:09:55Z</time>
      </trkpt>
      <trkpt lon="78.516998753741746" lat="17.632317249650281">
        <ele>502.865</ele>
        <time>2024-09-25T11:09:55Z</time>
      </trkpt>
      <trkpt lon="78.516999232014555" lat="17.632318763355329">
        <ele>502.885</ele>
        <time>2024-09-25T11:09:55Z</time>
      </trkpt>
      <trkpt lon="78.516999715081866" lat="17.632320287234947">
        <ele>502.903</ele>
        <time>2024-09-25T11:09:55Z</time>
      </trkpt>
      <trkpt lon="78.517000202501904" lat="17.632321820490212">
        <ele>502.918</ele>
        <time>2024-09-25T11:09:55Z</time>
      </trkpt>
      <trkpt lon="78.517000693790465" lat="17.632323362193286">
        <ele>502.931</ele>
        <time>2024-09-25T11:09:55Z</time>
      </trkpt>
      <trkpt lon="78.517001188448205" lat="17.632324911351361">
        <ele>502.942</ele>
        <time>2024-09-25T11:09:55Z</time>
      </trkpt>
      <trkpt lon="78.517001685981725" lat="17.632326466957139">
        <ele>502.951</ele>
        <time>2024-09-25T11:09:55Z</time>
      </trkpt>
      <trkpt lon="78.517002185919196" lat="17.632328028027377">
        <ele>502.958</ele>
        <time>2024-09-25T11:09:55Z</time>
      </trkpt>
      <trkpt lon="78.517002687821474" lat="17.632329593631123">
        <ele>502.963</ele>
        <time>2024-09-25T11:09:55Z</time>
      </trkpt>
      <trkpt lon="78.517003191289277" lat="17.632331162909157">
        <ele>502.967</ele>
        <time>2024-09-25T11:09:55Z</time>
      </trkpt>
      <trkpt lon="78.517003819850089" lat="17.632333051394735">
        <ele>502.837</ele>
        <time>2024-09-25T11:09:56Z</time>
      </trkpt>
      <trkpt lon="78.517004412035135" lat="17.632334766775447">
        <ele>502.727</ele>
        <time>2024-09-25T11:09:56Z</time>
      </trkpt>
      <trkpt lon="78.517004971549071" lat="17.632336331198402">
        <ele>502.636</ele>
        <time>2024-09-25T11:09:56Z</time>
      </trkpt>
      <trkpt lon="78.517005502319122" lat="17.632337766601044">
        <ele>502.562</ele>
        <time>2024-09-25T11:09:56Z</time>
      </trkpt>
      <trkpt lon="78.517006008303966" lat="17.632339094000919">
        <ele>502.504</ele>
        <time>2024-09-25T11:09:56Z</time>
      </trkpt>
      <trkpt lon="78.517006493348475" lat="17.6323403329922">
        <ele>502.459</ele>
        <time>2024-09-25T11:09:56Z</time>
      </trkpt>
      <trkpt lon="78.517006961078209" lat="17.632341501415635">
        <ele>502.427</ele>
        <time>2024-09-25T11:09:56Z</time>
      </trkpt>
      <trkpt lon="78.517007414827503" lat="17.632342615170604">
        <ele>502.404</ele>
        <time>2024-09-25T11:09:56Z</time>
      </trkpt>
      <trkpt lon="78.51700785759536" lat="17.632343688140885">
        <ele>502.391</ele>
        <time>2024-09-25T11:09:56Z</time>
      </trkpt>
      <trkpt lon="78.517008292023831" lat="17.632344732208708">
        <ele>502.383</ele>
        <time>2024-09-25T11:09:56Z</time>
      </trkpt>
      <trkpt lon="78.517008720394159" lat="17.632345757334832">
        <ele>502.382</ele>
        <time>2024-09-25T11:09:56Z</time>
      </trkpt>
      <trkpt lon="78.51700914463639" lat="17.632346771685658">
        <ele>502.384</ele>
        <time>2024-09-25T11:09:56Z</time>
      </trkpt>
      <trkpt lon="78.51700956634879" lat="17.63234778179136">
        <ele>502.389</ele>
        <time>2024-09-25T11:09:56Z</time>
      </trkpt>
      <trkpt lon="78.517009986823979" lat="17.632348792721924">
        <ele>502.397</ele>
        <time>2024-09-25T11:09:56Z</time>
      </trkpt>
      <trkpt lon="78.517010407079368" lat="17.632349808270526">
        <ele>502.406</ele>
        <time>2024-09-25T11:09:56Z</time>
      </trkpt>
      <trkpt lon="78.517010827889493" lat="17.632350831136147">
        <ele>502.415</ele>
        <time>2024-09-25T11:09:56Z</time>
      </trkpt>
      <trkpt lon="78.517011249818978" lat="17.632351863099206">
        <ele>502.425</ele>
        <time>2024-09-25T11:09:56Z</time>
      </trkpt>
      <trkpt lon="78.517011673254544" lat="17.632352905185869">
        <ele>502.435</ele>
        <time>2024-09-25T11:09:56Z</time>
      </trkpt>
      <trkpt lon="78.517012098435401" lat="17.632353957818086">
        <ele>502.444</ele>
        <time>2024-09-25T11:09:56Z</time>
      </trkpt>
      <trkpt lon="78.517012525481277" lat="17.632355020947703">
        <ele>502.452</ele>
        <time>2024-09-25T11:09:56Z</time>
      </trkpt>
      <trkpt lon="78.517012954417652" lat="17.632356094173847">
        <ele>502.459</ele>
        <time>2024-09-25T11:09:56Z</time>
      </trkpt>
      <trkpt lon="78.517013385198084" lat="17.632357176843694">
        <ele>502.466</ele>
        <time>2024-09-25T11:09:56Z</time>
      </trkpt>
      <trkpt lon="78.51701381772348" lat="17.632358268137168">
        <ele>502.472</ele>
        <time>2024-09-25T11:09:56Z</time>
      </trkpt>
      <trkpt lon="78.517014251858598" lat="17.632359367136587">
        <ele>502.477</ele>
        <time>2024-09-25T11:09:56Z</time>
      </trkpt>
      <trkpt lon="78.517014687445553" lat="17.632360472882567">
        <ele>502.481</ele>
        <time>2024-09-25T11:09:56Z</time>
      </trkpt>
      <trkpt lon="78.517015124314909" lat="17.63236158441762">
        <ele>502.484</ele>
        <time>2024-09-25T11:09:56Z</time>
      </trkpt>
      <trkpt lon="78.517015562294418" lat="17.632362700818916">
        <ele>502.487</ele>
        <time>2024-09-25T11:09:56Z</time>
      </trkpt>
      <trkpt lon="78.51701600121568" lat="17.632363821221819">
        <ele>502.489</ele>
        <time>2024-09-25T11:09:56Z</time>
      </trkpt>
      <trkpt lon="78.517016440919022" lat="17.632364944835572">
        <ele>502.491</ele>
        <time>2024-09-25T11:09:56Z</time>
      </trkpt>
      <trkpt lon="78.517017082671899" lat="17.632366683812094">
        <ele>502.358</ele>
        <time>2024-09-25T11:09:57Z</time>
      </trkpt>
      <trkpt lon="78.517017770778793" lat="17.632368624829187">
        <ele>502.246</ele>
        <time>2024-09-25T11:09:57Z</time>
      </trkpt>
      <trkpt lon="78.51701849483149" lat="17.632370726505133">
        <ele>502.153</ele>
        <time>2024-09-25T11:09:57Z</time>
      </trkpt>
      <trkpt lon="78.517019245735753" lat="17.632372952066223">
        <ele>502.079</ele>
        <time>2024-09-25T11:09:57Z</time>
      </trkpt>
      <trkpt lon="78.517020015703693" lat="17.632375269489454">
        <ele>502.02</ele>
        <time>2024-09-25T11:09:57Z</time>
      </trkpt>
      <trkpt lon="78.517020798202594" lat="17.632377651445104">
        <ele>501.975</ele>
        <time>2024-09-25T11:09:57Z</time>
      </trkpt>
      <trkpt lon="78.517021587872833" lat="17.632380075090452">
        <ele>501.943</ele>
        <time>2024-09-25T11:09:57Z</time>
      </trkpt>
      <trkpt lon="78.517022380425161" lat="17.632382521758466">
        <ele>501.921</ele>
        <time>2024-09-25T11:09:57Z</time>
      </trkpt>
      <trkpt lon="78.517023172526194" lat="17.632384976578084">
        <ele>501.908</ele>
        <time>2024-09-25T11:09:57Z</time>
      </trkpt>
      <trkpt lon="78.517023961678845" lat="17.632387428056177">
        <ele>501.901</ele>
        <time>2024-09-25T11:09:57Z</time>
      </trkpt>
      <trkpt lon="78.517024746103175" lat="17.632389867645085">
        <ele>501.9</ele>
        <time>2024-09-25T11:09:57Z</time>
      </trkpt>
      <trkpt lon="78.517025524621644" lat="17.632392289314353">
        <ele>501.903</ele>
        <time>2024-09-25T11:09:57Z</time>
      </trkpt>
      <trkpt lon="78.517026296551705" lat="17.632394689140469">
        <ele>501.91</ele>
        <time>2024-09-25T11:09:57Z</time>
      </trkpt>
      <trkpt lon="78.517027061607649" lat="17.632397064924408">
        <ele>501.918</ele>
        <time>2024-09-25T11:09:57Z</time>
      </trkpt>
      <trkpt lon="78.517027819812853" lat="17.632399415843476">
        <ele>501.927</ele>
        <time>2024-09-25T11:09:57Z</time>
      </trkpt>
      <trkpt lon="78.517028571422827" lat="17.632401742141049">
        <ele>501.937</ele>
        <time>2024-09-25T11:09:57Z</time>
      </trkpt>
      <trkpt lon="78.517029316859251" lat="17.632404044855662">
        <ele>501.947</ele>
        <time>2024-09-25T11:09:57Z</time>
      </trkpt>
      <trkpt lon="78.517030056654392" lat="17.632406325589198">
        <ele>501.957</ele>
        <time>2024-09-25T11:09:57Z</time>
      </trkpt>
      <trkpt lon="78.517030791405389" lat="17.632408586312565">
        <ele>501.967</ele>
        <time>2024-09-25T11:09:57Z</time>
      </trkpt>
      <trkpt lon="78.51703152173755" lat="17.632410829206385">
        <ele>501.975</ele>
        <time>2024-09-25T11:09:57Z</time>
      </trkpt>
      <trkpt lon="78.517032248275726" lat="17.632413056533661">
        <ele>501.983</ele>
        <time>2024-09-25T11:09:57Z</time>
      </trkpt>
      <trkpt lon="78.517032971622683" lat="17.632415270540882">
        <ele>501.99</ele>
        <time>2024-09-25T11:09:57Z</time>
      </trkpt>
      <trkpt lon="78.517033692343617" lat="17.632417473384088">
        <ele>501.996</ele>
        <time>2024-09-25T11:09:57Z</time>
      </trkpt>
      <trkpt lon="78.517034410955802" lat="17.632419667076238">
        <ele>502.001</ele>
        <time>2024-09-25T11:09:57Z</time>
      </trkpt>
      <trkpt lon="78.517035127922384" lat="17.632421853452549">
        <ele>502.005</ele>
        <time>2024-09-25T11:09:57Z</time>
      </trkpt>
      <trkpt lon="78.517035843649651" lat="17.632424034150507">
        <ele>502.008</ele>
        <time>2024-09-25T11:09:57Z</time>
      </trkpt>
      <trkpt lon="78.517036558486879" lat="17.632426210601675">
        <ele>502.011</ele>
        <time>2024-09-25T11:09:57Z</time>
      </trkpt>
      <trkpt lon="78.517037272728317" lat="17.632428384032679">
        <ele>502.013</ele>
        <time>2024-09-25T11:09:57Z</time>
      </trkpt>
      <trkpt lon="78.517037986616444" lat="17.632430555473046">
        <ele>502.015</ele>
        <time>2024-09-25T11:09:57Z</time>
      </trkpt>
      <trkpt lon="78.517038851196816" lat="17.63243328384938">
        <ele>502.44</ele>
        <time>2024-09-25T11:09:58Z</time>
      </trkpt>
      <trkpt lon="78.517039641480565" lat="17.632435869201505">
        <ele>502.797</ele>
        <time>2024-09-25T11:09:58Z</time>
      </trkpt>
      <trkpt lon="78.517040366962092" lat="17.632438325947998">
        <ele>503.092</ele>
        <time>2024-09-25T11:09:58Z</time>
      </trkpt>
      <trkpt lon="78.517041037048898" lat="17.632440669424149">
        <ele>503.329</ele>
        <time>2024-09-25T11:09:58Z</time>
      </trkpt>
      <trkpt lon="78.517041660756334" lat="17.632442915123708">
        <ele>503.515</ele>
        <time>2024-09-25T11:09:58Z</time>
      </trkpt>
      <trkpt lon="78.517042246491002" lat="17.632445078121787">
        <ele>503.655</ele>
        <time>2024-09-25T11:09:58Z</time>
      </trkpt>
      <trkpt lon="78.517042801908715" lat="17.632447172654391">
        <ele>503.756</ele>
        <time>2024-09-25T11:09:58Z</time>
      </trkpt>
      <trkpt lon="78.517043333833399" lat="17.632449211830572">
        <ele>503.824</ele>
        <time>2024-09-25T11:09:58Z</time>
      </trkpt>
      <trkpt lon="78.51704384822493" lat="17.632451207454615">
        <ele>503.864</ele>
        <time>2024-09-25T11:09:58Z</time>
      </trkpt>
      <trkpt lon="78.517044350184861" lat="17.632453169937296">
        <ele>503.883</ele>
        <time>2024-09-25T11:09:58Z</time>
      </trkpt>
      <trkpt lon="78.51704484399059" lat="17.632455108277391">
        <ele>503.884</ele>
        <time>2024-09-25T11:09:58Z</time>
      </trkpt>
      <trkpt lon="78.517045333149625" lat="17.632457030096763">
        <ele>503.873</ele>
        <time>2024-09-25T11:09:58Z</time>
      </trkpt>
      <trkpt lon="78.517045820467388" lat="17.632458941714642">
        <ele>503.852</ele>
        <time>2024-09-25T11:09:58Z</time>
      </trkpt>
      <trkpt lon="78.517046308122588" lat="17.632460848248844">
        <ele>503.825</ele>
        <time>2024-09-25T11:09:58Z</time>
      </trkpt>
      <trkpt lon="78.517046797745863" lat="17.632462753733815">
        <ele>503.794</ele>
        <time>2024-09-25T11:09:58Z</time>
      </trkpt>
      <trkpt lon="78.517047290498027" lat="17.632464661247216">
        <ele>503.761</ele>
        <time>2024-09-25T11:09:58Z</time>
      </trkpt>
      <trkpt lon="78.517047787145486" lat="17.632466573038595">
        <ele>503.728</ele>
        <time>2024-09-25T11:09:58Z</time>
      </trkpt>
      <trkpt lon="78.517048288130695" lat="17.632468490655132">
        <ele>503.695</ele>
        <time>2024-09-25T11:09:58Z</time>
      </trkpt>
      <trkpt lon="78.517048793636519" lat="17.632470415060805">
        <ele>503.665</ele>
        <time>2024-09-25T11:09:58Z</time>
      </trkpt>
      <trkpt lon="78.517049303643802" lat="17.632472346746496">
        <ele>503.637</ele>
        <time>2024-09-25T11:09:58Z</time>
      </trkpt>
      <trkpt lon="78.5170498179818" lat="17.632474285829414">
        <ele>503.612</ele>
        <time>2024-09-25T11:09:58Z</time>
      </trkpt>
      <trkpt lon="78.517050336371383" lat="17.632476232141013">
        <ele>503.59</ele>
        <time>2024-09-25T11:09:58Z</time>
      </trkpt>
      <trkpt lon="78.517050858461445" lat="17.632478185303199">
        <ele>503.571</ele>
        <time>2024-09-25T11:09:58Z</time>
      </trkpt>
      <trkpt lon="78.517051383858785" lat="17.632480144793039">
        <ele>503.555</ele>
        <time>2024-09-25T11:09:58Z</time>
      </trkpt>
      <trkpt lon="78.517051912152155" lat="17.632482109996591">
        <ele>503.542</ele>
        <time>2024-09-25T11:09:58Z</time>
      </trkpt>
      <trkpt lon="78.517052442930961" lat="17.632484080252617">
        <ele>503.531</ele>
        <time>2024-09-25T11:09:58Z</time>
      </trkpt>
      <trkpt lon="78.517052975799388" lat="17.632486054887206">
        <ele>503.522</ele>
        <time>2024-09-25T11:09:58Z</time>
      </trkpt>
      <trkpt lon="78.517053510386489" lat="17.632488033240286">
        <ele>503.516</ele>
        <time>2024-09-25T11:09:58Z</time>
      </trkpt>
      <trkpt lon="78.517054046352953" lat="17.632490014685139">
        <ele>503.511</ele>
        <time>2024-09-25T11:09:58Z</time>
      </trkpt>
      <trkpt lon="78.517054786963712" lat="17.632492508968074">
        <ele>503.568</ele>
        <time>2024-09-25T11:09:59Z</time>
      </trkpt>
      <trkpt lon="78.517055549083778" lat="17.632494877216992">
        <ele>503.617</ele>
        <time>2024-09-25T11:09:59Z</time>
      </trkpt>
      <trkpt lon="78.517056326117157" lat="17.632497131303595">
        <ele>503.658</ele>
        <time>2024-09-25T11:09:59Z</time>
      </trkpt>
      <trkpt lon="78.517057112573781" lat="17.632499284141698">
        <ele>503.692</ele>
        <time>2024-09-25T11:09:59Z</time>
      </trkpt>
      <trkpt lon="78.51705790398789" lat="17.632501348982199">
        <ele>503.719</ele>
        <time>2024-09-25T11:09:59Z</time>
      </trkpt>
      <trkpt lon="78.517058696820953" lat="17.632503338869906">
        <ele>503.739</ele>
        <time>2024-09-25T11:09:59Z</time>
      </trkpt>
      <trkpt lon="78.517059488356281" lat="17.632505266241232">
        <ele>503.755</ele>
        <time>2024-09-25T11:09:59Z</time>
      </trkpt>
      <trkpt lon="78.51706027659111" lat="17.632507142642073">
        <ele>503.766</ele>
        <time>2024-09-25T11:09:59Z</time>
      </trkpt>
      <trkpt lon="78.517061060130274" lat="17.63250897854606">
        <ele>503.773</ele>
        <time>2024-09-25T11:09:59Z</time>
      </trkpt>
      <trkpt lon="78.517061838085212" lat="17.632510783254794">
        <ele>503.777</ele>
        <time>2024-09-25T11:09:59Z</time>
      </trkpt>
      <trkpt lon="78.517062609980016" lat="17.632512564863344">
        <ele>503.779</ele>
        <time>2024-09-25T11:09:59Z</time>
      </trkpt>
      <trkpt lon="78.51706337566641" lat="17.632514330276152">
        <ele>503.779</ele>
        <time>2024-09-25T11:09:59Z</time>
      </trkpt>
      <trkpt lon="78.517064135248233" lat="17.632516085260356">
        <ele>503.777</ele>
        <time>2024-09-25T11:09:59Z</time>
      </trkpt>
      <trkpt lon="78.517064889015757" lat="17.632517834525483">
        <ele>503.775</ele>
        <time>2024-09-25T11:09:59Z</time>
      </trkpt>
      <trkpt lon="78.517065637389734" lat="17.632519581820272">
        <ele>503.771</ele>
        <time>2024-09-25T11:09:59Z</time>
      </trkpt>
      <trkpt lon="78.517066380874653" lat="17.632521330039012">
        <ele>503.767</ele>
        <time>2024-09-25T11:09:59Z</time>
      </trkpt>
      <trkpt lon="78.51706712002057" lat="17.632523081331364">
        <ele>503.763</ele>
        <time>2024-09-25T11:09:59Z</time>
      </trkpt>
      <trkpt lon="78.517067855392838" lat="17.632524837211037">
        <ele>503.759</ele>
        <time>2024-09-25T11:09:59Z</time>
      </trkpt>
      <trkpt lon="78.517068587548664" lat="17.63252659865978">
        <ele>503.756</ele>
        <time>2024-09-25T11:09:59Z</time>
      </trkpt>
      <trkpt lon="78.517069317019789" lat="17.632528366224239">
        <ele>503.752</ele>
        <time>2024-09-25T11:09:59Z</time>
      </trkpt>
      <trkpt lon="78.517070044300311" lat="17.632530140104095">
        <ele>503.749</ele>
        <time>2024-09-25T11:09:59Z</time>
      </trkpt>
      <trkpt lon="78.517070769838739" lat="17.632531920230534">
        <ele>503.746</ele>
        <time>2024-09-25T11:09:59Z</time>
      </trkpt>
      <trkpt lon="78.517071494033658" lat="17.632533706334755">
        <ele>503.743</ele>
        <time>2024-09-25T11:09:59Z</time>
      </trkpt>
      <trkpt lon="78.517072217232226" lat="17.632535498006522">
        <ele>503.741</ele>
        <time>2024-09-25T11:09:59Z</time>
      </trkpt>
      <trkpt lon="78.51707293973071" lat="17.632537294743241">
        <ele>503.739</ele>
        <time>2024-09-25T11:09:59Z</time>
      </trkpt>
      <trkpt lon="78.517073661776749" lat="17.632539095990147">
        <ele>503.738</ele>
        <time>2024-09-25T11:09:59Z</time>
      </trkpt>
      <trkpt lon="78.517074383572734" lat="17.632540901172419">
        <ele>503.737</ele>
        <time>2024-09-25T11:09:59Z</time>
      </trkpt>
      <trkpt lon="78.517075105279929" lat="17.632542709720067">
        <ele>503.736</ele>
        <time>2024-09-25T11:09:59Z</time>
      </trkpt>
      <trkpt lon="78.517075827022978" lat="17.632544521086555">
        <ele>503.735</ele>
        <time>2024-09-25T11:09:59Z</time>
      </trkpt>
      <trkpt lon="78.517076699932389" lat="17.632546835911594">
        <ele>503.507</ele>
        <time>2024-09-25T11:10:00Z</time>
      </trkpt>
      <trkpt lon="78.517077496749053" lat="17.63254906458145">
        <ele>503.314</ele>
        <time>2024-09-25T11:10:00Z</time>
      </trkpt>
      <trkpt lon="78.517078227205786" lat="17.632551212863241">
        <ele>503.156</ele>
        <time>2024-09-25T11:10:00Z</time>
      </trkpt>
      <trkpt lon="78.517078900943972" lat="17.632553287896101">
        <ele>503.028</ele>
        <time>2024-09-25T11:10:00Z</time>
      </trkpt>
      <trkpt lon="78.517079527201204" lat="17.632555297605496">
        <ele>502.929</ele>
        <time>2024-09-25T11:10:00Z</time>
      </trkpt>
      <trkpt lon="78.517080114589874" lat="17.632557250234377">
        <ele>502.853</ele>
        <time>2024-09-25T11:10:00Z</time>
      </trkpt>
      <trkpt lon="78.517080670952026" lat="17.632559153978757">
        <ele>502.799</ele>
        <time>2024-09-25T11:10:00Z</time>
      </trkpt>
      <trkpt lon="78.517081203276632" lat="17.632561016714643">
        <ele>502.763</ele>
        <time>2024-09-25T11:10:00Z</time>
      </trkpt>
      <trkpt lon="78.517081717666883" lat="17.63256284580326">
        <ele>502.741</ele>
        <time>2024-09-25T11:10:00Z</time>
      </trkpt>
      <trkpt lon="78.517082219346293" lat="17.632564647962159">
        <ele>502.731</ele>
        <time>2024-09-25T11:10:00Z</time>
      </trkpt>
      <trkpt lon="78.517082712693892" lat="17.63256642919038">
        <ele>502.73</ele>
        <time>2024-09-25T11:10:00Z</time>
      </trkpt>
      <trkpt lon="78.517083201299997" lat="17.63256819473699">
        <ele>502.736</ele>
        <time>2024-09-25T11:10:00Z</time>
      </trkpt>
      <trkpt lon="78.517083688035726" lat="17.632569949103424">
        <ele>502.747</ele>
        <time>2024-09-25T11:10:00Z</time>
      </trkpt>
      <trkpt lon="78.517084175130307" lat="17.632571696071214">
        <ele>502.762</ele>
        <time>2024-09-25T11:10:00Z</time>
      </trkpt>
      <trkpt lon="78.517084664251712" lat="17.63257343874788">
        <ele>502.778</ele>
        <time>2024-09-25T11:10:00Z</time>
      </trkpt>
      <trkpt lon="78.517085156586901" lat="17.632575179624951">
        <ele>502.796</ele>
        <time>2024-09-25T11:10:00Z</time>
      </trkpt>
      <trkpt lon="78.517085652919008" lat="17.632576920643078">
        <ele>502.814</ele>
        <time>2024-09-25T11:10:00Z</time>
      </trkpt>
      <trkpt lon="78.517086153699566" lat="17.632578663260251">
        <ele>502.831</ele>
        <time>2024-09-25T11:10:00Z</time>
      </trkpt>
      <trkpt lon="78.517086659114455" lat="17.632580408519996">
        <ele>502.847</ele>
        <time>2024-09-25T11:10:00Z</time>
      </trkpt>
      <trkpt lon="78.517087169142854" lat="17.632582157117159">
        <ele>502.862</ele>
        <time>2024-09-25T11:10:00Z</time>
      </trkpt>
      <trkpt lon="78.517087683608821" lat="17.632583909459633">
        <ele>502.876</ele>
        <time>2024-09-25T11:10:00Z</time>
      </trkpt>
      <trkpt lon="78.517088202225636" lat="17.632585665724815">
        <ele>502.887</ele>
        <time>2024-09-25T11:10:00Z</time>
      </trkpt>
      <trkpt lon="78.517088724633027" lat="17.632587425910195">
        <ele>502.898</ele>
        <time>2024-09-25T11:10:00Z</time>
      </trkpt>
      <trkpt lon="78.51708925042773" lat="17.632589189877745">
        <ele>502.906</ele>
        <time>2024-09-25T11:10:00Z</time>
      </trkpt>
      <trkpt lon="78.517089779188154" lat="17.632590957392054">
        <ele>502.914</ele>
        <time>2024-09-25T11:10:00Z</time>
      </trkpt>
      <trkpt lon="78.517090310493487" lat="17.632592728152499">
        <ele>502.919</ele>
        <time>2024-09-25T11:10:00Z</time>
      </trkpt>
      <trkpt lon="78.517090843938135" lat="17.632594501819732">
        <ele>502.924</ele>
        <time>2024-09-25T11:10:00Z</time>
      </trkpt>
      <trkpt lon="78.517091379142073" lat="17.632596278036992">
        <ele>502.927</ele>
        <time>2024-09-25T11:10:00Z</time>
      </trkpt>
      <trkpt lon="78.517091915757689" lat="17.632598056446788">
        <ele>502.93</ele>
        <time>2024-09-25T11:10:00Z</time>
      </trkpt>
      <trkpt lon="78.517092645618789" lat="17.632600346655043">
        <ele>503.229</ele>
        <time>2024-09-25T11:10:01Z</time>
      </trkpt>
      <trkpt lon="78.517093387193441" lat="17.632602566979983">
        <ele>503.48</ele>
        <time>2024-09-25T11:10:01Z</time>
      </trkpt>
      <trkpt lon="78.517094135598455" lat="17.632604720560835">
        <ele>503.687</ele>
        <time>2024-09-25T11:10:01Z</time>
      </trkpt>
      <trkpt lon="78.517094886915558" lat="17.632606812081946">
        <ele>503.853</ele>
        <time>2024-09-25T11:10:01Z</time>
      </trkpt>
      <trkpt lon="78.517095638090012" lat="17.632608847229729">
        <ele>503.983</ele>
        <time>2024-09-25T11:10:01Z</time>
      </trkpt>
      <trkpt lon="78.517096386824008" lat="17.632610832248474">
        <ele>504.081</ele>
        <time>2024-09-25T11:10:01Z</time>
      </trkpt>
      <trkpt lon="78.517097131470223" lat="17.632612773586168">
        <ele>504.151</ele>
        <time>2024-09-25T11:10:01Z</time>
      </trkpt>
      <trkpt lon="78.517097870928808" lat="17.632614677620388">
        <ele>504.198</ele>
        <time>2024-09-25T11:10:01Z</time>
      </trkpt>
      <trkpt lon="78.517098604550839" lat="17.632616550454181">
        <ele>504.226</ele>
        <time>2024-09-25T11:10:01Z</time>
      </trkpt>
      <trkpt lon="78.517099332049895" lat="17.632618397771669">
        <ele>504.239</ele>
        <time>2024-09-25T11:10:01Z</time>
      </trkpt>
      <trkpt lon="78.517100053422652" lat="17.632620224743793">
        <ele>504.239</ele>
        <time>2024-09-25T11:10:01Z</time>
      </trkpt>
      <trkpt lon="78.517100768879402" lat="17.632622035975061">
        <ele>504.231</ele>
        <time>2024-09-25T11:10:01Z</time>
      </trkpt>
      <trkpt lon="78.517101478784099" lat="17.632623835483081">
        <ele>504.216</ele>
        <time>2024-09-25T11:10:01Z</time>
      </trkpt>
      <trkpt lon="78.517102183603939" lat="17.632625626703536">
        <ele>504.196</ele>
        <time>2024-09-25T11:10:01Z</time>
      </trkpt>
      <trkpt lon="78.517102883867665" lat="17.632627412514111">
        <ele>504.174</ele>
        <time>2024-09-25T11:10:01Z</time>
      </trkpt>
      <trkpt lon="78.51710358013213" lat="17.632629195271935">
        <ele>504.151</ele>
        <time>2024-09-25T11:10:01Z</time>
      </trkpt>
      <trkpt lon="78.517104272955933" lat="17.632630976859858">
        <ele>504.128</ele>
        <time>2024-09-25T11:10:01Z</time>
      </trkpt>
      <trkpt lon="78.517104962879671" lat="17.632632758737842">
        <ele>504.105</ele>
        <time>2024-09-25T11:10:01Z</time>
      </trkpt>
      <trkpt lon="78.517105650411565" lat="17.632634541996346">
        <ele>504.083</ele>
        <time>2024-09-25T11:10:01Z</time>
      </trkpt>
      <trkpt lon="78.517106336017804" lat="17.632636327409433">
        <ele>504.064</ele>
        <time>2024-09-25T11:10:01Z</time>
      </trkpt>
      <trkpt lon="78.517107020116669" lat="17.632638115485779">
        <ele>504.046</ele>
        <time>2024-09-25T11:10:01Z</time>
      </trkpt>
      <trkpt lon="78.517107703075808" lat="17.632639906516346">
        <ele>504.031</ele>
        <time>2024-09-25T11:10:01Z</time>
      </trkpt>
      <trkpt lon="78.517108385211969" lat="17.632641700617857">
        <ele>504.017</ele>
        <time>2024-09-25T11:10:01Z</time>
      </trkpt>
      <trkpt lon="78.517109066792472" lat="17.632643497771657">
        <ele>504.006</ele>
        <time>2024-09-25T11:10:01Z</time>
      </trkpt>
      <trkpt lon="78.517109748038138" lat="17.632645297857675">
        <ele>503.996</ele>
        <time>2024-09-25T11:10:01Z</time>
      </trkpt>
      <trkpt lon="78.517110429127058" lat="17.632647100683567">
        <ele>503.989</ele>
        <time>2024-09-25T11:10:01Z</time>
      </trkpt>
      <trkpt lon="78.517111110198925" lat="17.632648906009194">
        <ele>503.983</ele>
        <time>2024-09-25T11:10:01Z</time>
      </trkpt>
      <trkpt lon="78.517111791359625" lat="17.632650713566719">
        <ele>503.979</ele>
        <time>2024-09-25T11:10:01Z</time>
      </trkpt>
      <trkpt lon="78.517112472685881" lat="17.632652523076725">
        <ele>503.975</ele>
        <time>2024-09-25T11:10:01Z</time>
      </trkpt>
      <trkpt lon="78.517113342816373" lat="17.632654819679221">
        <ele>503.988</ele>
        <time>2024-09-25T11:10:02Z</time>
      </trkpt>
      <trkpt lon="78.517114179976247" lat="17.632657016805819">
        <ele>503.999</ele>
        <time>2024-09-25T11:10:02Z</time>
      </trkpt>
      <trkpt lon="78.517114986523367" lat="17.632659122653624">
        <ele>504.008</ele>
        <time>2024-09-25T11:10:02Z</time>
      </trkpt>
      <trkpt lon="78.517115765298257" lat="17.63266114657177">
        <ele>504.016</ele>
        <time>2024-09-25T11:10:02Z</time>
      </trkpt>
      <trkpt lon="78.517116519406684" lat="17.632663098453119">
        <ele>504.023</ele>
        <time>2024-09-25T11:10:02Z</time>
      </trkpt>
      <trkpt lon="78.517117252046461" lat="17.632664988256824">
        <ele>504.029</ele>
        <time>2024-09-25T11:10:02Z</time>
      </trkpt>
      <trkpt lon="78.517117966373718" lat="17.632666825646151">
        <ele>504.033</ele>
        <time>2024-09-25T11:10:02Z</time>
      </trkpt>
      <trkpt lon="78.517118665403558" lat="17.63266861972572">
        <ele>504.036</ele>
        <time>2024-09-25T11:10:02Z</time>
      </trkpt>
      <trkpt lon="78.51711935194011" lat="17.632670378862841">
        <ele>504.039</ele>
        <time>2024-09-25T11:10:02Z</time>
      </trkpt>
      <trkpt lon="78.517120028531025" lat="17.632672110578437">
        <ele>504.04</ele>
        <time>2024-09-25T11:10:02Z</time>
      </trkpt>
      <trkpt lon="78.517120697442181" lat="17.632673821494222">
        <ele>504.041</ele>
        <time>2024-09-25T11:10:02Z</time>
      </trkpt>
      <trkpt lon="78.517121360648318" lat="17.632675517324106">
        <ele>504.042</ele>
        <time>2024-09-25T11:10:02Z</time>
      </trkpt>
      <trkpt lon="78.517122019836194" lat="17.632677202899238">
        <ele>504.042</ele>
        <time>2024-09-25T11:10:02Z</time>
      </trkpt>
      <trkpt lon="78.517122676416818" lat="17.632678882217551">
        <ele>504.042</ele>
        <time>2024-09-25T11:10:02Z</time>
      </trkpt>
      <trkpt lon="78.517123331544425" lat="17.632680558510042">
        <ele>504.042</ele>
        <time>2024-09-25T11:10:02Z</time>
      </trkpt>
      <trkpt lon="78.517123986139538" lat="17.632682234317379">
        <ele>504.041</ele>
        <time>2024-09-25T11:10:02Z</time>
      </trkpt>
      <trkpt lon="78.517124640914531" lat="17.632683911571593">
        <ele>504.04</ele>
        <time>2024-09-25T11:10:02Z</time>
      </trkpt>
      <trkpt lon="78.517125296400181" lat="17.63268559167884">
        <ele>504.04</ele>
        <time>2024-09-25T11:10:02Z</time>
      </trkpt>
      <trkpt lon="78.517125952971909" lat="17.632687275600016">
        <ele>504.039</ele>
        <time>2024-09-25T11:10:02Z</time>
      </trkpt>
      <trkpt lon="78.51712661087501" lat="17.632688963927006">
        <ele>504.038</ele>
        <time>2024-09-25T11:10:02Z</time>
      </trkpt>
      <trkpt lon="78.517127270248125" lat="17.63269065695297">
        <ele>504.038</ele>
        <time>2024-09-25T11:10:02Z</time>
      </trkpt>
      <trkpt lon="78.517127931144728" lat="17.63269235473571">
        <ele>504.037</ele>
        <time>2024-09-25T11:10:02Z</time>
      </trkpt>
      <trkpt lon="78.517128593552215" lat="17.632694057153596">
        <ele>504.037</ele>
        <time>2024-09-25T11:10:02Z</time>
      </trkpt>
      <trkpt lon="78.517129257408612" lat="17.632695763953969">
        <ele>504.036</ele>
        <time>2024-09-25T11:10:02Z</time>
      </trkpt>
      <trkpt lon="78.517129922616888" lat="17.63269747479417">
        <ele>504.036</ele>
        <time>2024-09-25T11:10:02Z</time>
      </trkpt>
      <trkpt lon="78.517130589056961" lat="17.632699189275602">
        <ele>504.035</ele>
        <time>2024-09-25T11:10:02Z</time>
      </trkpt>
      <trkpt lon="78.517131256595519" lat="17.632700906971337">
        <ele>504.035</ele>
        <time>2024-09-25T11:10:02Z</time>
      </trkpt>
      <trkpt lon="78.517131925093921" lat="17.632702627447923">
        <ele>504.035</ele>
        <time>2024-09-25T11:10:02Z</time>
      </trkpt>
      <trkpt lon="78.517132594414306" lat="17.632704350282033">
        <ele>504.035</ele>
        <time>2024-09-25T11:10:02Z</time>
      </trkpt>
      <trkpt lon="78.517133473704746" lat="17.632706625475773">
        <ele>503.837</ele>
        <time>2024-09-25T11:10:03Z</time>
      </trkpt>
      <trkpt lon="78.517134341338306" lat="17.632708880670592">
        <ele>503.67</ele>
        <time>2024-09-25T11:10:03Z</time>
      </trkpt>
      <trkpt lon="78.517135195925789" lat="17.632711110514929">
        <ele>503.532</ele>
        <time>2024-09-25T11:10:03Z</time>
      </trkpt>
      <trkpt lon="78.517136036873055" lat="17.632713311855102">
        <ele>503.422</ele>
        <time>2024-09-25T11:10:03Z</time>
      </trkpt>
      <trkpt lon="78.517136864205966" lat="17.632715483303731">
        <ele>503.335</ele>
        <time>2024-09-25T11:10:03Z</time>
      </trkpt>
      <trkpt lon="78.51713767841683" lat="17.63271762485309">
        <ele>503.27</ele>
        <time>2024-09-25T11:10:03Z</time>
      </trkpt>
      <trkpt lon="78.517138480332449" lat="17.632719737535727">
        <ele>503.222</ele>
        <time>2024-09-25T11:10:03Z</time>
      </trkpt>
      <trkpt lon="78.517139271003103" lat="17.63272182313251">
        <ele>503.19</ele>
        <time>2024-09-25T11:10:03Z</time>
      </trkpt>
      <trkpt lon="78.517140051611037" lat="17.632723883926548">
        <ele>503.171</ele>
        <time>2024-09-25T11:10:03Z</time>
      </trkpt>
      <trkpt lon="78.5171408233969" lat="17.632725922500263">
        <ele>503.162</ele>
        <time>2024-09-25T11:10:03Z</time>
      </trkpt>
      <trkpt lon="78.51714158760231" lat="17.632727941572011">
        <ele>503.162</ele>
        <time>2024-09-25T11:10:03Z</time>
      </trkpt>
      <trkpt lon="78.51714234542645" lat="17.63272994386821">
        <ele>503.167</ele>
        <time>2024-09-25T11:10:03Z</time>
      </trkpt>
      <trkpt lon="78.517143097994946" lat="17.632731932026687">
        <ele>503.176</ele>
        <time>2024-09-25T11:10:03Z</time>
      </trkpt>
      <trkpt lon="78.517143846338797" lat="17.632733908526856">
        <ele>503.189</ele>
        <time>2024-09-25T11:10:03Z</time>
      </trkpt>
      <trkpt lon="78.517144591381921" lat="17.632735875642627">
        <ele>503.203</ele>
        <time>2024-09-25T11:10:03Z</time>
      </trkpt>
      <trkpt lon="78.517145333935403" lat="17.632737835414016">
        <ele>503.219</ele>
        <time>2024-09-25T11:10:03Z</time>
      </trkpt>
      <trkpt lon="78.517146074697109" lat="17.632739789633877">
        <ele>503.234</ele>
        <time>2024-09-25T11:10:03Z</time>
      </trkpt>
      <trkpt lon="78.517146814255355" lat="17.632741739846502">
        <ele>503.249</ele>
        <time>2024-09-25T11:10:03Z</time>
      </trkpt>
      <trkpt lon="78.517147553095398" lat="17.632743687355159">
        <ele>503.263</ele>
        <time>2024-09-25T11:10:03Z</time>
      </trkpt>
      <trkpt lon="78.517148291607981" lat="17.632745633236183">
        <ele>503.276</ele>
        <time>2024-09-25T11:10:03Z</time>
      </trkpt>
      <trkpt lon="78.51714903009902" lat="17.632747578357456">
        <ele>503.288</ele>
        <time>2024-09-25T11:10:03Z</time>
      </trkpt>
      <trkpt lon="78.517149768799854" lat="17.632749523399589">
        <ele>503.298</ele>
        <time>2024-09-25T11:10:03Z</time>
      </trkpt>
      <trkpt lon="78.517150507877616" lat="17.632751468878389">
        <ele>503.307</ele>
        <time>2024-09-25T11:10:03Z</time>
      </trkpt>
      <trkpt lon="78.51715124744517" lat="17.632753415167503">
        <ele>503.314</ele>
        <time>2024-09-25T11:10:03Z</time>
      </trkpt>
      <trkpt lon="78.517151987570614" lat="17.632755362520463">
        <ele>503.32</ele>
        <time>2024-09-25T11:10:03Z</time>
      </trkpt>
      <trkpt lon="78.517152728285879" lat="17.632757311091428">
        <ele>503.326</ele>
        <time>2024-09-25T11:10:03Z</time>
      </trkpt>
      <trkpt lon="78.517153469594589" lat="17.632759260954316">
        <ele>503.329</ele>
        <time>2024-09-25T11:10:03Z</time>
      </trkpt>
      <trkpt lon="78.517154211478811" lat="17.632761212119973">
        <ele>503.332</ele>
        <time>2024-09-25T11:10:03Z</time>
      </trkpt>
      <trkpt lon="78.517154953905091" lat="17.632763164551331">
        <ele>503.335</ele>
        <time>2024-09-25T11:10:03Z</time>
      </trkpt>
      <trkpt lon="78.517155878205813" lat="17.632765563330675">
        <ele>503.185</ele>
        <time>2024-09-25T11:10:04Z</time>
      </trkpt>
      <trkpt lon="78.517156746522232" lat="17.632767787943383">
        <ele>503.058</ele>
        <time>2024-09-25T11:10:04Z</time>
      </trkpt>
      <trkpt lon="78.517157564904409" lat="17.632769859041879">
        <ele>502.954</ele>
        <time>2024-09-25T11:10:04Z</time>
      </trkpt>
      <trkpt lon="78.517158339647125" lat="17.632771797525663">
        <ele>502.869</ele>
        <time>2024-09-25T11:10:04Z</time>
      </trkpt>
      <trkpt lon="78.517159077011058" lat="17.632773623754691">
        <ele>502.803</ele>
        <time>2024-09-25T11:10:04Z</time>
      </trkpt>
      <trkpt lon="78.517159783013724" lat="17.632775356975117">
        <ele>502.753</ele>
        <time>2024-09-25T11:10:04Z</time>
      </trkpt>
      <trkpt lon="78.517160463280376" lat="17.632777014925075">
        <ele>502.716</ele>
        <time>2024-09-25T11:10:04Z</time>
      </trkpt>
      <trkpt lon="78.517161122945197" lat="17.632778613589931">
        <ele>502.691</ele>
        <time>2024-09-25T11:10:04Z</time>
      </trkpt>
      <trkpt lon="78.517161766593887" lat="17.632780167078607">
        <ele>502.676</ele>
        <time>2024-09-25T11:10:04Z</time>
      </trkpt>
      <trkpt lon="78.517162398239449" lat="17.632781687595557">
        <ele>502.668</ele>
        <time>2024-09-25T11:10:04Z</time>
      </trkpt>
      <trkpt lon="78.517163021323796" lat="17.632783185485764">
        <ele>502.667</ele>
        <time>2024-09-25T11:10:04Z</time>
      </trkpt>
      <trkpt lon="78.51716363873885" lat="17.63278466933324">
        <ele>502.67</ele>
        <time>2024-09-25T11:10:04Z</time>
      </trkpt>
      <trkpt lon="78.517164252861434" lat="17.632786146096443">
        <ele>502.677</ele>
        <time>2024-09-25T11:10:04Z</time>
      </trkpt>
      <trkpt lon="78.517164865597607" lat="17.632787621266786">
        <ele>502.686</ele>
        <time>2024-09-25T11:10:04Z</time>
      </trkpt>
      <trkpt lon="78.517165478432332" lat="17.632789099039112">
        <ele>502.696</ele>
        <time>2024-09-25T11:10:04Z</time>
      </trkpt>
      <trkpt lon="78.51716609248156" lat="17.632790582485189">
        <ele>502.708</ele>
        <time>2024-09-25T11:10:04Z</time>
      </trkpt>
      <trkpt lon="78.517166708544352" lat="17.632792073723515">
        <ele>502.719</ele>
        <time>2024-09-25T11:10:04Z</time>
      </trkpt>
      <trkpt lon="78.517167327153089" lat="17.632793574080438">
        <ele>502.73</ele>
        <time>2024-09-25T11:10:04Z</time>
      </trkpt>
      <trkpt lon="78.51716794862071" lat="17.632795084239095">
        <ele>502.741</ele>
        <time>2024-09-25T11:10:04Z</time>
      </trkpt>
      <trkpt lon="78.517168573083822" lat="17.632796604374043">
        <ele>502.751</ele>
        <time>2024-09-25T11:10:04Z</time>
      </trkpt>
      <trkpt lon="78.517169200541346" lat="17.632798134270395">
        <ele>502.759</ele>
        <time>2024-09-25T11:10:04Z</time>
      </trkpt>
      <trkpt lon="78.517169830888491" lat="17.632799673427165">
        <ele>502.767</ele>
        <time>2024-09-25T11:10:04Z</time>
      </trkpt>
      <trkpt lon="78.517170463945916" lat="17.632801221145101">
        <ele>502.774</ele>
        <time>2024-09-25T11:10:04Z</time>
      </trkpt>
      <trkpt lon="78.517171099484287" lat="17.632802776599767">
        <ele>502.779</ele>
        <time>2024-09-25T11:10:04Z</time>
      </trkpt>
      <trkpt lon="78.517171737244595" lat="17.632804338901007">
        <ele>502.784</ele>
        <time>2024-09-25T11:10:04Z</time>
      </trkpt>
      <trkpt lon="78.517172376954406" lat="17.632805907140028">
        <ele>502.788</ele>
        <time>2024-09-25T11:10:04Z</time>
      </trkpt>
      <trkpt lon="78.517173018340671" lat="17.632807480425562">
        <ele>502.791</ele>
        <time>2024-09-25T11:10:04Z</time>
      </trkpt>
      <trkpt lon="78.51717366113931" lat="17.632809057910485">
        <ele>502.793</ele>
        <time>2024-09-25T11:10:04Z</time>
      </trkpt>
      <trkpt lon="78.51717430510223" lat="17.63281063881039">
        <ele>502.795</ele>
        <time>2024-09-25T11:10:04Z</time>
      </trkpt>
      <trkpt lon="78.517175130348406" lat="17.632812738172468">
        <ele>502.867</ele>
        <time>2024-09-25T11:10:05Z</time>
      </trkpt>
      <trkpt lon="78.517175926931685" lat="17.632814829092844">
        <ele>502.927</ele>
        <time>2024-09-25T11:10:05Z</time>
      </trkpt>
      <trkpt lon="78.517176696539892" lat="17.632816904796602">
        <ele>502.977</ele>
        <time>2024-09-25T11:10:05Z</time>
      </trkpt>
      <trkpt lon="78.517177441382159" lat="17.632818960705155">
        <ele>503.016</ele>
        <time>2024-09-25T11:10:05Z</time>
      </trkpt>
      <trkpt lon="78.517178163983885" lat="17.632820994054565">
        <ele>503.047</ele>
        <time>2024-09-25T11:10:05Z</time>
      </trkpt>
      <trkpt lon="78.517178867021116" lat="17.632823003544793">
        <ele>503.07</ele>
        <time>2024-09-25T11:10:05Z</time>
      </trkpt>
      <trkpt lon="78.517179553190559" lat="17.632824989024453">
        <ele>503.086</ele>
        <time>2024-09-25T11:10:05Z</time>
      </trkpt>
      <trkpt lon="78.517180225110835" lat="17.632826951213289">
        <ele>503.097</ele>
        <time>2024-09-25T11:10:05Z</time>
      </trkpt>
      <trkpt lon="78.517180885250767" lat="17.632828891462722">
        <ele>503.104</ele>
        <time>2024-09-25T11:10:05Z</time>
      </trkpt>
      <trkpt lon="78.517181535880525" lat="17.632830811553415">
        <ele>503.106</ele>
        <time>2024-09-25T11:10:05Z</time>
      </trkpt>
      <trkpt lon="78.51718217904164" lat="17.632832713527744">
        <ele>503.106</ele>
        <time>2024-09-25T11:10:05Z</time>
      </trkpt>
      <trkpt lon="78.517182816532468" lat="17.632834599554453">
        <ele>503.104</ele>
        <time>2024-09-25T11:10:05Z</time>
      </trkpt>
      <trkpt lon="78.517183449905531" lat="17.63283647182222">
        <ele>503.1</ele>
        <time>2024-09-25T11:10:05Z</time>
      </trkpt>
      <trkpt lon="78.517184080474181" lat="17.632838332458736">
        <ele>503.095</ele>
        <time>2024-09-25T11:10:05Z</time>
      </trkpt>
      <trkpt lon="78.517184709325804" lat="17.632840183471835">
        <ele>503.09</ele>
        <time>2024-09-25T11:10:05Z</time>
      </trkpt>
      <trkpt lon="78.51718533733974" lat="17.632842026709262">
        <ele>503.084</ele>
        <time>2024-09-25T11:10:05Z</time>
      </trkpt>
      <trkpt lon="78.517185965207929" lat="17.632843863833916">
        <ele>503.078</ele>
        <time>2024-09-25T11:10:05Z</time>
      </trkpt>
      <trkpt lon="78.517186593457069" lat="17.632845696311609">
        <ele>503.073</ele>
        <time>2024-09-25T11:10:05Z</time>
      </trkpt>
      <trkpt lon="78.517187222470895" lat="17.632847525408678">
        <ele>503.068</ele>
        <time>2024-09-25T11:10:05Z</time>
      </trkpt>
      <trkpt lon="78.517187852512166" lat="17.632849352197113">
        <ele>503.063</ele>
        <time>2024-09-25T11:10:05Z</time>
      </trkpt>
      <trkpt lon="78.517188483743254" lat="17.632851177565168">
        <ele>503.059</ele>
        <time>2024-09-25T11:10:05Z</time>
      </trkpt>
      <trkpt lon="78.517189116245234" lat="17.632853002231755">
        <ele>503.055</ele>
        <time>2024-09-25T11:10:05Z</time>
      </trkpt>
      <trkpt lon="78.517189750035087" lat="17.632854826763168">
        <ele>503.052</ele>
        <time>2024-09-25T11:10:05Z</time>
      </trkpt>
      <trkpt lon="78.517190385080895" lat="17.632856651590973">
        <ele>503.049</ele>
        <time>2024-09-25T11:10:05Z</time>
      </trkpt>
      <trkpt lon="78.517191021314972" lat="17.632858477030204">
        <ele>503.047</ele>
        <time>2024-09-25T11:10:05Z</time>
      </trkpt>
      <trkpt lon="78.517191658645018" lat="17.632860303297104">
        <ele>503.045</ele>
        <time>2024-09-25T11:10:05Z</time>
      </trkpt>
      <trkpt lon="78.517192296963429" lat="17.632862130525933">
        <ele>503.043</ele>
        <time>2024-09-25T11:10:05Z</time>
      </trkpt>
      <trkpt lon="78.517192936154728" lat="17.632863958784494">
        <ele>503.042</ele>
        <time>2024-09-25T11:10:05Z</time>
      </trkpt>
      <trkpt lon="78.517193576101576" lat="17.632865788088136">
        <ele>503.042</ele>
        <time>2024-09-25T11:10:05Z</time>
      </trkpt>
      <trkpt lon="78.517194428217095" lat="17.632868243257278">
        <ele>502.873</ele>
        <time>2024-09-25T11:10:06Z</time>
      </trkpt>
      <trkpt lon="78.517195278776057" lat="17.632870710202273">
        <ele>502.731</ele>
        <time>2024-09-25T11:10:06Z</time>
      </trkpt>
      <trkpt lon="78.517196124773562" lat="17.632873177598423">
        <ele>502.614</ele>
        <time>2024-09-25T11:10:06Z</time>
      </trkpt>
      <trkpt lon="78.517196964102837" lat="17.632875636893331">
        <ele>502.52</ele>
        <time>2024-09-25T11:10:06Z</time>
      </trkpt>
      <trkpt lon="78.517197795407384" lat="17.632878081921408">
        <ele>502.447</ele>
        <time>2024-09-25T11:10:06Z</time>
      </trkpt>
      <trkpt lon="78.517198617943308" lat="17.632880508530413">
        <ele>502.391</ele>
        <time>2024-09-25T11:10:06Z</time>
      </trkpt>
      <trkpt lon="78.517199431454415" lat="17.632882914229999">
        <ele>502.351</ele>
        <time>2024-09-25T11:10:06Z</time>
      </trkpt>
      <trkpt lon="78.517200236060958" lat="17.632885297869066">
        <ele>502.324</ele>
        <time>2024-09-25T11:10:06Z</time>
      </trkpt>
      <trkpt lon="78.517201032162873" lat="17.632887659346039">
        <ele>502.308</ele>
        <time>2024-09-25T11:10:06Z</time>
      </trkpt>
      <trkpt lon="78.517201820356973" lat="17.632889999354017">
        <ele>502.301</ele>
        <time>2024-09-25T11:10:06Z</time>
      </trkpt>
      <trkpt lon="78.517202601367771" lat="17.632892319161066">
        <ele>502.301</ele>
        <time>2024-09-25T11:10:06Z</time>
      </trkpt>
      <trkpt lon="78.517203375990917" lat="17.632894620424626">
        <ele>502.305</ele>
        <time>2024-09-25T11:10:06Z</time>
      </trkpt>
      <trkpt lon="78.517204145048012" lat="17.632896905038109">
        <ele>502.313</ele>
        <time>2024-09-25T11:10:06Z</time>
      </trkpt>
      <trkpt lon="78.517204909351648" lat="17.632899175007029">
        <ele>502.324</ele>
        <time>2024-09-25T11:10:06Z</time>
      </trkpt>
      <trkpt lon="78.517205669679512" lat="17.632901432351776">
        <ele>502.337</ele>
        <time>2024-09-25T11:10:06Z</time>
      </trkpt>
      <trkpt lon="78.517206426755877" lat="17.63290367903377">
        <ele>502.35</ele>
        <time>2024-09-25T11:10:06Z</time>
      </trkpt>
      <trkpt lon="78.517207181239641" lat="17.632905916901866">
        <ele>502.363</ele>
        <time>2024-09-25T11:10:06Z</time>
      </trkpt>
      <trkpt lon="78.517207933717543" lat="17.632908147655858">
        <ele>502.376</ele>
        <time>2024-09-25T11:10:06Z</time>
      </trkpt>
      <trkpt lon="78.517208684701529" lat="17.632910372824146">
        <ele>502.388</ele>
        <time>2024-09-25T11:10:06Z</time>
      </trkpt>
      <trkpt lon="78.517209434629379" lat="17.632912593752845">
        <ele>502.399</ele>
        <time>2024-09-25T11:10:06Z</time>
      </trkpt>
      <trkpt lon="78.517210183867803" lat="17.632914811603914">
        <ele>502.409</ele>
        <time>2024-09-25T11:10:06Z</time>
      </trkpt>
      <trkpt lon="78.517210932717163" lat="17.632917027360143">
        <ele>502.418</ele>
        <time>2024-09-25T11:10:06Z</time>
      </trkpt>
      <trkpt lon="78.517211681417365" lat="17.632919241835122">
        <ele>502.425</ele>
        <time>2024-09-25T11:10:06Z</time>
      </trkpt>
      <trkpt lon="78.517212430154487" lat="17.632921455686649">
        <ele>502.432</ele>
        <time>2024-09-25T11:10:06Z</time>
      </trkpt>
      <trkpt lon="78.517213179067468" lat="17.632923669432227">
        <ele>502.437</ele>
        <time>2024-09-25T11:10:06Z</time>
      </trkpt>
      <trkpt lon="78.517213928254961" lat="17.632925883465642">
        <ele>502.441</ele>
        <time>2024-09-25T11:10:06Z</time>
      </trkpt>
      <trkpt lon="78.51721467778178" lat="17.632928098073741">
        <ele>502.444</ele>
        <time>2024-09-25T11:10:06Z</time>
      </trkpt>
      <trkpt lon="78.517215427685016" lat="17.632930313452793">
        <ele>502.447</ele>
        <time>2024-09-25T11:10:06Z</time>
      </trkpt>
      <trkpt lon="78.517216177979549" lat="17.632932529723973">
        <ele>502.449</ele>
        <time>2024-09-25T11:10:06Z</time>
      </trkpt>
      <trkpt lon="78.517217152831947" lat="17.632935242759885">
        <ele>502.278</ele>
        <time>2024-09-25T11:10:07Z</time>
      </trkpt>
      <trkpt lon="78.517218105440762" lat="17.632937749744197">
        <ele>502.133</ele>
        <time>2024-09-25T11:10:07Z</time>
      </trkpt>
      <trkpt lon="78.517219035912603" lat="17.632940075635215">
        <ele>502.013</ele>
        <time>2024-09-25T11:10:07Z</time>
      </trkpt>
      <trkpt lon="78.517219945096627" lat="17.632942245536093">
        <ele>501.917</ele>
        <time>2024-09-25T11:10:07Z</time>
      </trkpt>
      <trkpt lon="78.517220834372267" lat="17.63294428378736">
        <ele>501.841</ele>
        <time>2024-09-25T11:10:07Z</time>
      </trkpt>
      <trkpt lon="78.517221705470732" lat="17.632946213309353">
        <ele>501.784</ele>
        <time>2024-09-25T11:10:07Z</time>
      </trkpt>
      <trkpt lon="78.517222560328321" lat="17.63294805515584">
        <ele>501.742</ele>
        <time>2024-09-25T11:10:07Z</time>
      </trkpt>
      <trkpt lon="78.517223400968689" lat="17.63294982824236">
        <ele>501.714</ele>
        <time>2024-09-25T11:10:07Z</time>
      </trkpt>
      <trkpt lon="78.517224229411028" lat="17.632951549215711">
        <ele>501.696</ele>
        <time>2024-09-25T11:10:07Z</time>
      </trkpt>
      <trkpt lon="78.517225047601073" lat="17.632953232434346">
        <ele>501.688</ele>
        <time>2024-09-25T11:10:07Z</time>
      </trkpt>
      <trkpt lon="78.517225857361595" lat="17.632954890033076">
        <ele>501.687</ele>
        <time>2024-09-25T11:10:07Z</time>
      </trkpt>
      <trkpt lon="78.51722666035937" lat="17.632956532049057">
        <ele>501.691</ele>
        <time>2024-09-25T11:10:07Z</time>
      </trkpt>
      <trkpt lon="78.517227458085728" lat="17.632958166589642">
        <ele>501.699</ele>
        <time>2024-09-25T11:10:07Z</time>
      </trkpt>
      <trkpt lon="78.517228251847911" lat="17.63295980002588">
        <ele>501.709</ele>
        <time>2024-09-25T11:10:07Z</time>
      </trkpt>
      <trkpt lon="78.517229042769017" lat="17.632961437198727">
        <ele>501.721</ele>
        <time>2024-09-25T11:10:07Z</time>
      </trkpt>
      <trkpt lon="78.517229831794296" lat="17.632963081627597">
        <ele>501.734</ele>
        <time>2024-09-25T11:10:07Z</time>
      </trkpt>
      <trkpt lon="78.517230619702175" lat="17.63296473571349">
        <ele>501.747</ele>
        <time>2024-09-25T11:10:07Z</time>
      </trkpt>
      <trkpt lon="78.517231407118217" lat="17.632966400930933">
        <ele>501.76</ele>
        <time>2024-09-25T11:10:07Z</time>
      </trkpt>
      <trkpt lon="78.51723219453109" lat="17.632968078004865">
        <ele>501.772</ele>
        <time>2024-09-25T11:10:07Z</time>
      </trkpt>
      <trkpt lon="78.517232982309238" lat="17.632969767069991">
        <ele>501.783</ele>
        <time>2024-09-25T11:10:07Z</time>
      </trkpt>
      <trkpt lon="78.517233770717752" lat="17.632971467811405">
        <ele>501.793</ele>
        <time>2024-09-25T11:10:07Z</time>
      </trkpt>
      <trkpt lon="78.517234559934536" lat="17.63297317958623">
        <ele>501.802</ele>
        <time>2024-09-25T11:10:07Z</time>
      </trkpt>
      <trkpt lon="78.517235350065633" lat="17.632974901526669">
        <ele>501.81</ele>
        <time>2024-09-25T11:10:07Z</time>
      </trkpt>
      <trkpt lon="78.517236141159245" lat="17.632976632625521">
        <ele>501.816</ele>
        <time>2024-09-25T11:10:07Z</time>
      </trkpt>
      <trkpt lon="78.517236933218271" lat="17.632978371805478">
        <ele>501.822</ele>
        <time>2024-09-25T11:10:07Z</time>
      </trkpt>
      <trkpt lon="78.517237726211363" lat="17.632980117973805">
        <ele>501.826</ele>
        <time>2024-09-25T11:10:07Z</time>
      </trkpt>
      <trkpt lon="78.517238520082429" lat="17.632981870064082">
        <ele>501.83</ele>
        <time>2024-09-25T11:10:07Z</time>
      </trkpt>
      <trkpt lon="78.51723931475874" lat="17.632983627066757">
        <ele>501.832</ele>
        <time>2024-09-25T11:10:07Z</time>
      </trkpt>
      <trkpt lon="78.517240110157474" lat="17.632985388050212">
        <ele>501.834</ele>
        <time>2024-09-25T11:10:07Z</time>
      </trkpt>
      <trkpt lon="78.517241126240009" lat="17.632987735162978">
        <ele>501.682</ele>
        <time>2024-09-25T11:10:08Z</time>
      </trkpt>
      <trkpt lon="78.517242104139086" lat="17.632990080154997">
        <ele>501.554</ele>
        <time>2024-09-25T11:10:08Z</time>
      </trkpt>
      <trkpt lon="78.517243046497825" lat="17.632992414183381">
        <ele>501.448</ele>
        <time>2024-09-25T11:10:08Z</time>
      </trkpt>
      <trkpt lon="78.517243956542885" lat="17.632994730962984">
        <ele>501.363</ele>
        <time>2024-09-25T11:10:08Z</time>
      </trkpt>
      <trkpt lon="78.517244837828827" lat="17.632997026354989">
        <ele>501.296</ele>
        <time>2024-09-25T11:10:08Z</time>
      </trkpt>
      <trkpt lon="78.517245694033889" lat="17.63299929798227">
        <ele>501.245</ele>
        <time>2024-09-25T11:10:08Z</time>
      </trkpt>
      <trkpt lon="78.517246528801834" lat="17.633001544878237">
        <ele>501.208</ele>
        <time>2024-09-25T11:10:08Z</time>
      </trkpt>
      <trkpt lon="78.517247345623872" lat="17.63300376717315">
        <ele>501.183</ele>
        <time>2024-09-25T11:10:08Z</time>
      </trkpt>
      <trkpt lon="78.517248147754984" lat="17.633005965819574">
        <ele>501.167</ele>
        <time>2024-09-25T11:10:08Z</time>
      </trkpt>
      <trkpt lon="78.517248938159" lat="17.633008142356857">
        <ele>501.16</ele>
        <time>2024-09-25T11:10:08Z</time>
      </trkpt>
      <trkpt lon="78.517249719477405" lat="17.633010298713209">
        <ele>501.158</ele>
        <time>2024-09-25T11:10:08Z</time>
      </trkpt>
      <trkpt lon="78.51725049401692" lat="17.633012437043014">
        <ele>501.162</ele>
        <time>2024-09-25T11:10:08Z</time>
      </trkpt>
      <trkpt lon="78.517251263751788" lat="17.633014559596319">
        <ele>501.169</ele>
        <time>2024-09-25T11:10:08Z</time>
      </trkpt>
      <trkpt lon="78.517252030337104" lat="17.633016668617145">
        <ele>501.178</ele>
        <time>2024-09-25T11:10:08Z</time>
      </trkpt>
      <trkpt lon="78.517252795129878" lat="17.633018766267053">
        <ele>501.189</ele>
        <time>2024-09-25T11:10:08Z</time>
      </trkpt>
      <trkpt lon="78.517253559215305" lat="17.633020854570347">
        <ele>501.2</ele>
        <time>2024-09-25T11:10:08Z</time>
      </trkpt>
      <trkpt lon="78.517254323435978" lat="17.633022935377586">
        <ele>501.212</ele>
        <time>2024-09-25T11:10:08Z</time>
      </trkpt>
      <trkpt lon="78.51725508842236" lat="17.633025010344074">
        <ele>501.223</ele>
        <time>2024-09-25T11:10:08Z</time>
      </trkpt>
      <trkpt lon="78.51725585462313" lat="17.633027080920456">
        <ele>501.234</ele>
        <time>2024-09-25T11:10:08Z</time>
      </trkpt>
      <trkpt lon="78.51725662233433" lat="17.633029148352716">
        <ele>501.244</ele>
        <time>2024-09-25T11:10:08Z</time>
      </trkpt>
      <trkpt lon="78.517257391726645" lat="17.633031213689279">
        <ele>501.253</ele>
        <time>2024-09-25T11:10:08Z</time>
      </trkpt>
      <trkpt lon="78.517258162870363" lat="17.633033277793256">
        <ele>501.261</ele>
        <time>2024-09-25T11:10:08Z</time>
      </trkpt>
      <trkpt lon="78.517258935757653" lat="17.63303534135807">
        <ele>501.267</ele>
        <time>2024-09-25T11:10:08Z</time>
      </trkpt>
      <trkpt lon="78.517259710322051" lat="17.633037404925169">
        <ele>501.273</ele>
        <time>2024-09-25T11:10:08Z</time>
      </trkpt>
      <trkpt lon="78.517260486455243" lat="17.633039468902613">
        <ele>501.278</ele>
        <time>2024-09-25T11:10:08Z</time>
      </trkpt>
      <trkpt lon="78.517261264021045" lat="17.633041533583768">
        <ele>501.282</ele>
        <time>2024-09-25T11:10:08Z</time>
      </trkpt>
      <trkpt lon="78.517262042867074" lat="17.633043599165326">
        <ele>501.285</ele>
        <time>2024-09-25T11:10:08Z</time>
      </trkpt>
      <trkpt lon="78.517262822833999" lat="17.633045665764293">
        <ele>501.287</ele>
        <time>2024-09-25T11:10:08Z</time>
      </trkpt>
      <trkpt lon="78.517263603762785" lat="17.633047733433532">
        <ele>501.289</ele>
        <time>2024-09-25T11:10:08Z</time>
      </trkpt>
      <trkpt lon="78.517264632516714" lat="17.633050373834596">
        <ele>501.178</ele>
        <time>2024-09-25T11:10:09Z</time>
      </trkpt>
      <trkpt lon="78.517265650051385" lat="17.633052914030095">
        <ele>501.084</ele>
        <time>2024-09-25T11:10:09Z</time>
      </trkpt>
      <trkpt lon="78.517266654329205" lat="17.633055361144137">
        <ele>501.007</ele>
        <time>2024-09-25T11:10:09Z</time>
      </trkpt>
      <trkpt lon="78.517267644274597" lat="17.633057723779604">
        <ele>500.944</ele>
        <time>2024-09-25T11:10:09Z</time>
      </trkpt>
      <trkpt lon="78.517268619574551" lat="17.633060011355347">
        <ele>500.895</ele>
        <time>2024-09-25T11:10:09Z</time>
      </trkpt>
      <trkpt lon="78.517269580501718" lat="17.633062233578194">
        <ele>500.858</ele>
        <time>2024-09-25T11:10:09Z</time>
      </trkpt>
      <trkpt lon="78.517270527760758" lat="17.633064400034943">
        <ele>500.831</ele>
        <time>2024-09-25T11:10:09Z</time>
      </trkpt>
      <trkpt lon="78.517271462357598" lat="17.633066519888974">
        <ele>500.812</ele>
        <time>2024-09-25T11:10:09Z</time>
      </trkpt>
      <trkpt lon="78.517272385490202" lat="17.633068601666253">
        <ele>500.801</ele>
        <time>2024-09-25T11:10:09Z</time>
      </trkpt>
      <trkpt lon="78.51727329845977" lat="17.633070653116157">
        <ele>500.795</ele>
        <time>2024-09-25T11:10:09Z</time>
      </trkpt>
      <trkpt lon="78.517274202600134" lat="17.633072681133523">
        <ele>500.794</ele>
        <time>2024-09-25T11:10:09Z</time>
      </trkpt>
      <trkpt lon="78.517275099223397" lat="17.633074691729576">
        <ele>500.797</ele>
        <time>2024-09-25T11:10:09Z</time>
      </trkpt>
      <trkpt lon="78.517275989579687" lat="17.633076690040699">
        <ele>500.802</ele>
        <time>2024-09-25T11:10:09Z</time>
      </trkpt>
      <trkpt lon="78.517276874829008" lat="17.633078680365418">
        <ele>500.808</ele>
        <time>2024-09-25T11:10:09Z</time>
      </trkpt>
      <trkpt lon="78.517277756023162" lat="17.633080666221392">
        <ele>500.816</ele>
        <time>2024-09-25T11:10:09Z</time>
      </trkpt>
      <trkpt lon="78.51727863409586" lat="17.633082650415478">
        <ele>500.824</ele>
        <time>2024-09-25T11:10:09Z</time>
      </trkpt>
      <trkpt lon="78.517279509859321" lat="17.633084635121246">
        <ele>500.833</ele>
        <time>2024-09-25T11:10:09Z</time>
      </trkpt>
      <trkpt lon="78.517280384006028" lat="17.6330866219594">
        <ele>500.841</ele>
        <time>2024-09-25T11:10:09Z</time>
      </trkpt>
      <trkpt lon="78.517281257114121" lat="17.633088612077593">
        <ele>500.849</ele>
        <time>2024-09-25T11:10:09Z</time>
      </trkpt>
      <trkpt lon="78.517282129655484" lat="17.633090606227029">
        <ele>500.856</ele>
        <time>2024-09-25T11:10:09Z</time>
      </trkpt>
      <trkpt lon="78.517283002005527" lat="17.63309260483398">
        <ele>500.863</ele>
        <time>2024-09-25T11:10:09Z</time>
      </trkpt>
      <trkpt lon="78.517283874453867" lat="17.633094608064972">
        <ele>500.868</ele>
        <time>2024-09-25T11:10:09Z</time>
      </trkpt>
      <trkpt lon="78.517284747215413" lat="17.633096615884941">
        <ele>500.873</ele>
        <time>2024-09-25T11:10:09Z</time>
      </trkpt>
      <trkpt lon="78.517285620441285" lat="17.633098628108094">
        <ele>500.878</ele>
        <time>2024-09-25T11:10:09Z</time>
      </trkpt>
      <trkpt lon="78.517286494229296" lat="17.633100644441448">
        <ele>500.881</ele>
        <time>2024-09-25T11:10:09Z</time>
      </trkpt>
      <trkpt lon="78.517287368633632" lat="17.633102664521417">
        <ele>500.884</ele>
        <time>2024-09-25T11:10:09Z</time>
      </trkpt>
      <trkpt lon="78.517288243673732" lat="17.633104687943792">
        <ele>500.886</ele>
        <time>2024-09-25T11:10:09Z</time>
      </trkpt>
      <trkpt lon="78.517289119342195" lat="17.633106714287806">
        <ele>500.888</ele>
        <time>2024-09-25T11:10:09Z</time>
      </trkpt>
      <trkpt lon="78.517289995611605" lat="17.633108743134816">
        <ele>500.889</ele>
        <time>2024-09-25T11:10:09Z</time>
      </trkpt>
      <trkpt lon="78.517291080129098" lat="17.633111332444603">
        <ele>501.072</ele>
        <time>2024-09-25T11:10:10Z</time>
      </trkpt>
      <trkpt lon="78.517292093161146" lat="17.633113822360176">
        <ele>501.225</ele>
        <time>2024-09-25T11:10:10Z</time>
      </trkpt>
      <trkpt lon="78.517293042801086" lat="17.633116219908231">
        <ele>501.352</ele>
        <time>2024-09-25T11:10:10Z</time>
      </trkpt>
      <trkpt lon="78.517293937351297" lat="17.633118533593432">
        <ele>501.454</ele>
        <time>2024-09-25T11:10:10Z</time>
      </trkpt>
      <trkpt lon="78.517294784983505" lat="17.633120772739201">
        <ele>501.533</ele>
        <time>2024-09-25T11:10:10Z</time>
      </trkpt>
      <trkpt lon="78.517295593487063" lat="17.633122946962363">
        <ele>501.593</ele>
        <time>2024-09-25T11:10:10Z</time>
      </trkpt>
      <trkpt lon="78.517296370092637" lat="17.633125065766929">
        <ele>501.636</ele>
        <time>2024-09-25T11:10:10Z</time>
      </trkpt>
      <trkpt lon="78.517297121358567" lat="17.633127138241807">
        <ele>501.665</ele>
        <time>2024-09-25T11:10:10Z</time>
      </trkpt>
      <trkpt lon="78.517297853108701" lat="17.63312917284733">
        <ele>501.683</ele>
        <time>2024-09-25T11:10:10Z</time>
      </trkpt>
      <trkpt lon="78.517298570410858" lat="17.633131177276212">
        <ele>501.69</ele>
        <time>2024-09-25T11:10:10Z</time>
      </trkpt>
      <trkpt lon="78.517299277587028" lat="17.63313315837533">
        <ele>501.691</ele>
        <time>2024-09-25T11:10:10Z</time>
      </trkpt>
      <trkpt lon="78.517299978246854" lat="17.633135122116197">
        <ele>501.686</ele>
        <time>2024-09-25T11:10:10Z</time>
      </trkpt>
      <trkpt lon="78.517300675337651" lat="17.633137073603063">
        <ele>501.677</ele>
        <time>2024-09-25T11:10:10Z</time>
      </trkpt>
      <trkpt lon="78.517301371205122" lat="17.633139017109162">
        <ele>501.665</ele>
        <time>2024-09-25T11:10:10Z</time>
      </trkpt>
      <trkpt lon="78.517302067659941" lat="17.633140956132888">
        <ele>501.651</ele>
        <time>2024-09-25T11:10:10Z</time>
      </trkpt>
      <trkpt lon="78.51730276604664" lat="17.633142893467046">
        <ele>501.637</ele>
        <time>2024-09-25T11:10:10Z</time>
      </trkpt>
      <trkpt lon="78.517303467311663" lat="17.633144831275587">
        <ele>501.623</ele>
        <time>2024-09-25T11:10:10Z</time>
      </trkpt>
      <trkpt lon="78.517304172068464" lat="17.633146771173248">
        <ele>501.609</ele>
        <time>2024-09-25T11:10:10Z</time>
      </trkpt>
      <trkpt lon="78.517304880658259" lat="17.633148714304692">
        <ele>501.596</ele>
        <time>2024-09-25T11:10:10Z</time>
      </trkpt>
      <trkpt lon="78.517305593205108" lat="17.633150661420476">
        <ele>501.584</ele>
        <time>2024-09-25T11:10:10Z</time>
      </trkpt>
      <trkpt lon="78.517306309665116" lat="17.63315261294801">
        <ele>501.573</ele>
        <time>2024-09-25T11:10:10Z</time>
      </trkpt>
      <trkpt lon="78.517307029869286" lat="17.633154569056266">
        <ele>501.564</ele>
        <time>2024-09-25T11:10:10Z</time>
      </trkpt>
      <trkpt lon="78.517307753560218" lat="17.633156529713535">
        <ele>501.555</ele>
        <time>2024-09-25T11:10:10Z</time>
      </trkpt>
      <trkpt lon="78.517308480422756" lat="17.633158494737931">
        <ele>501.549</ele>
        <time>2024-09-25T11:10:10Z</time>
      </trkpt>
      <trkpt lon="78.51730921010919" lat="17.633160463840674">
        <ele>501.543</ele>
        <time>2024-09-25T11:10:10Z</time>
      </trkpt>
      <trkpt lon="78.517309942259359" lat="17.633162436662456">
        <ele>501.538</ele>
        <time>2024-09-25T11:10:10Z</time>
      </trkpt>
      <trkpt lon="78.517310676516203" lat="17.63316441280325">
        <ele>501.535</ele>
        <time>2024-09-25T11:10:10Z</time>
      </trkpt>
      <trkpt lon="78.517311412537381" lat="17.633166391846245">
        <ele>501.532</ele>
        <time>2024-09-25T11:10:10Z</time>
      </trkpt>
      <trkpt lon="78.517312150003576" lat="17.63316837337646">
        <ele>501.53</ele>
        <time>2024-09-25T11:10:10Z</time>
      </trkpt>
      <trkpt lon="78.517313057265596" lat="17.633170922098916">
        <ele>501.631</ele>
        <time>2024-09-25T11:10:11Z</time>
      </trkpt>
      <trkpt lon="78.517313899850663" lat="17.633173390395712">
        <ele>501.717</ele>
        <time>2024-09-25T11:10:11Z</time>
      </trkpt>
      <trkpt lon="78.517314685268076" lat="17.633175782208074">
        <ele>501.788</ele>
        <time>2024-09-25T11:10:11Z</time>
      </trkpt>
      <trkpt lon="78.517315421163829" lat="17.633178103163193">
        <ele>501.845</ele>
        <time>2024-09-25T11:10:11Z</time>
      </trkpt>
      <trkpt lon="78.51731611502143" lat="17.633180359963735">
        <ele>501.89</ele>
        <time>2024-09-25T11:10:11Z</time>
      </trkpt>
      <trkpt lon="78.517316773942014" lat="17.633182559890294">
        <ele>501.925</ele>
        <time>2024-09-25T11:10:11Z</time>
      </trkpt>
      <trkpt lon="78.517317404491848" lat="17.633184710406276">
        <ele>501.95</ele>
        <time>2024-09-25T11:10:11Z</time>
      </trkpt>
      <trkpt lon="78.517318012605983" lat="17.633186818853702">
        <ele>501.967</ele>
        <time>2024-09-25T11:10:11Z</time>
      </trkpt>
      <trkpt lon="78.517318603537532" lat="17.633188892228087">
        <ele>501.977</ele>
        <time>2024-09-25T11:10:11Z</time>
      </trkpt>
      <trkpt lon="78.517319181843064" lat="17.633190937020821">
        <ele>501.983</ele>
        <time>2024-09-25T11:10:11Z</time>
      </trkpt>
      <trkpt lon="78.517319751395945" lat="17.633192959117828">
        <ele>501.984</ele>
        <time>2024-09-25T11:10:11Z</time>
      </trkpt>
      <trkpt lon="78.517320315419894" lat="17.633194963744206">
        <ele>501.982</ele>
        <time>2024-09-25T11:10:11Z</time>
      </trkpt>
      <trkpt lon="78.517320876537042" lat="17.633196955445452">
        <ele>501.977</ele>
        <time>2024-09-25T11:10:11Z</time>
      </trkpt>
      <trkpt lon="78.517321436824957" lat="17.633198938096918">
        <ele>501.971</ele>
        <time>2024-09-25T11:10:11Z</time>
      </trkpt>
      <trkpt lon="78.517321997878497" lat="17.633200914934179">
        <ele>501.964</ele>
        <time>2024-09-25T11:10:11Z</time>
      </trkpt>
      <trkpt lon="78.517322560873339" lat="17.633202888598198">
        <ele>501.956</ele>
        <time>2024-09-25T11:10:11Z</time>
      </trkpt>
      <trkpt lon="78.517323126628284" lat="17.633204861189974">
        <ele>501.949</ele>
        <time>2024-09-25T11:10:11Z</time>
      </trkpt>
      <trkpt lon="78.517323695664729" lat="17.633206834330505">
        <ele>501.941</ele>
        <time>2024-09-25T11:10:11Z</time>
      </trkpt>
      <trkpt lon="78.517324268261703" lat="17.633208809222676">
        <ele>501.934</ele>
        <time>2024-09-25T11:10:11Z</time>
      </trkpt>
      <trkpt lon="78.517324844505936" lat="17.6332107867124">
        <ele>501.928</ele>
        <time>2024-09-25T11:10:11Z</time>
      </trkpt>
      <trkpt lon="78.517325424336107" lat="17.633212767347132">
        <ele>501.922</ele>
        <time>2024-09-25T11:10:11Z</time>
      </trkpt>
      <trkpt lon="78.517326007581488" lat="17.63321475143033">
        <ele>501.916</ele>
        <time>2024-09-25T11:10:11Z</time>
      </trkpt>
      <trkpt lon="78.517326593994738" lat="17.633216739070978">
        <ele>501.912</ele>
        <time>2024-09-25T11:10:11Z</time>
      </trkpt>
      <trkpt lon="78.51732718327942" lat="17.633218730227689">
        <ele>501.908</ele>
        <time>2024-09-25T11:10:11Z</time>
      </trkpt>
      <trkpt lon="78.517327775112335" lat="17.633220724747158">
        <ele>501.905</ele>
        <time>2024-09-25T11:10:11Z</time>
      </trkpt>
      <trkpt lon="78.517328369161348" lat="17.633222722397029">
        <ele>501.902</ele>
        <time>2024-09-25T11:10:11Z</time>
      </trkpt>
      <trkpt lon="78.517328965099168" lat="17.633224722893434">
        <ele>501.9</ele>
        <time>2024-09-25T11:10:11Z</time>
      </trkpt>
      <trkpt lon="78.517329562613426" lat="17.633226725923535">
        <ele>501.899</ele>
        <time>2024-09-25T11:10:11Z</time>
      </trkpt>
      <trkpt lon="78.517330161413938" lat="17.633228731163513">
        <ele>501.897</ele>
        <time>2024-09-25T11:10:11Z</time>
      </trkpt>
      <trkpt lon="78.517330962464953" lat="17.633231366976823">
        <ele>501.8</ele>
        <time>2024-09-25T11:10:12Z</time>
      </trkpt>
      <trkpt lon="78.517331765240655" lat="17.633233969069455">
        <ele>501.717</ele>
        <time>2024-09-25T11:10:12Z</time>
      </trkpt>
      <trkpt lon="78.517332566314408" lat="17.633236533098337">
        <ele>501.649</ele>
        <time>2024-09-25T11:10:12Z</time>
      </trkpt>
      <trkpt lon="78.517333363162251" lat="17.633239057111506">
        <ele>501.595</ele>
        <time>2024-09-25T11:10:12Z</time>
      </trkpt>
      <trkpt lon="78.517334154028333" lat="17.63324154102725">
        <ele>501.552</ele>
        <time>2024-09-25T11:10:12Z</time>
      </trkpt>
      <trkpt lon="78.517334937796832" lat="17.633243986176517">
        <ele>501.52</ele>
        <time>2024-09-25T11:10:12Z</time>
      </trkpt>
      <trkpt lon="78.517335713873095" lat="17.63324639490892">
        <ele>501.498</ele>
        <time>2024-09-25T11:10:12Z</time>
      </trkpt>
      <trkpt lon="78.517336482076047" lat="17.633248770260352">
        <ele>501.482</ele>
        <time>2024-09-25T11:10:12Z</time>
      </trkpt>
      <trkpt lon="78.517337242542581" lat="17.633251115678608">
        <ele>501.473</ele>
        <time>2024-09-25T11:10:12Z</time>
      </trkpt>
      <trkpt lon="78.517337995644567" lat="17.633253434802242">
        <ele>501.469</ele>
        <time>2024-09-25T11:10:12Z</time>
      </trkpt>
      <trkpt lon="78.517338741918095" lat="17.633255731287232">
        <ele>501.469</ele>
        <time>2024-09-25T11:10:12Z</time>
      </trkpt>
      <trkpt lon="78.517339482004445" lat="17.633258008675735">
        <ele>501.472</ele>
        <time>2024-09-25T11:10:12Z</time>
      </trkpt>
      <trkpt lon="78.51734021660188" lat="17.633260270301083">
        <ele>501.477</ele>
        <time>2024-09-25T11:10:12Z</time>
      </trkpt>
      <trkpt lon="78.51734094642741" lat="17.63326251922344">
        <ele>501.483</ele>
        <time>2024-09-25T11:10:12Z</time>
      </trkpt>
      <trkpt lon="78.517341672187214" lat="17.633264758190755">
        <ele>501.49</ele>
        <time>2024-09-25T11:10:12Z</time>
      </trkpt>
      <trkpt lon="78.517342394554845" lat="17.633266989620214">
        <ele>501.498</ele>
        <time>2024-09-25T11:10:12Z</time>
      </trkpt>
      <trkpt lon="78.517343114155835" lat="17.633269215595707">
        <ele>501.506</ele>
        <time>2024-09-25T11:10:12Z</time>
      </trkpt>
      <trkpt lon="78.51734383155781" lat="17.633271437877514">
        <ele>501.513</ele>
        <time>2024-09-25T11:10:12Z</time>
      </trkpt>
      <trkpt lon="78.517344547265012" lat="17.633273657920839">
        <ele>501.52</ele>
        <time>2024-09-25T11:10:12Z</time>
      </trkpt>
      <trkpt lon="78.517345261716414" lat="17.633275876900385">
        <ele>501.527</ele>
        <time>2024-09-25T11:10:12Z</time>
      </trkpt>
      <trkpt lon="78.517345975286531" lat="17.633278095738596">
        <ele>501.533</ele>
        <time>2024-09-25T11:10:12Z</time>
      </trkpt>
      <trkpt lon="78.517346688288299" lat="17.633280315135735">
        <ele>501.538</ele>
        <time>2024-09-25T11:10:12Z</time>
      </trkpt>
      <trkpt lon="78.517347400977329" lat="17.633282535600266">
        <ele>501.542</ele>
        <time>2024-09-25T11:10:12Z</time>
      </trkpt>
      <trkpt lon="78.517348113557176" lat="17.6332847574784">
        <ele>501.546</ele>
        <time>2024-09-25T11:10:12Z</time>
      </trkpt>
      <trkpt lon="78.517348826185071" lat="17.633286980982028">
        <ele>501.549</ele>
        <time>2024-09-25T11:10:12Z</time>
      </trkpt>
      <trkpt lon="78.517349538977868" lat="17.633289206214421">
        <ele>501.551</ele>
        <time>2024-09-25T11:10:12Z</time>
      </trkpt>
      <trkpt lon="78.517350252017934" lat="17.633291433193392">
        <ele>501.553</ele>
        <time>2024-09-25T11:10:12Z</time>
      </trkpt>
      <trkpt lon="78.517350965358787" lat="17.633293661871711">
        <ele>501.555</ele>
        <time>2024-09-25T11:10:12Z</time>
      </trkpt>
      <trkpt lon="78.51735167903027" lat="17.633295892154756">
        <ele>501.556</ele>
        <time>2024-09-25T11:10:12Z</time>
      </trkpt>
      <trkpt lon="78.517352585937346" lat="17.63329870212899">
        <ele>501.608</ele>
        <time>2024-09-25T11:10:13Z</time>
      </trkpt>
      <trkpt lon="78.517353454509589" lat="17.633301372018963">
        <ele>501.652</ele>
        <time>2024-09-25T11:10:13Z</time>
      </trkpt>
      <trkpt lon="78.517354287867022" lat="17.633303915072478">
        <ele>501.688</ele>
        <time>2024-09-25T11:10:13Z</time>
      </trkpt>
      <trkpt lon="78.517355089584555" lat="17.63330634568084">
        <ele>501.717</ele>
        <time>2024-09-25T11:10:13Z</time>
      </trkpt>
      <trkpt lon="78.517355863455833" lat="17.633308678597544">
        <ele>501.74</ele>
        <time>2024-09-25T11:10:13Z</time>
      </trkpt>
      <trkpt lon="78.517356613307655" lat="17.633310928336748">
        <ele>501.757</ele>
        <time>2024-09-25T11:10:13Z</time>
      </trkpt>
      <trkpt lon="78.517357342858858" lat="17.63331310872811">
        <ele>501.769</ele>
        <time>2024-09-25T11:10:13Z</time>
      </trkpt>
      <trkpt lon="78.517358055617819" lat="17.633315232605039">
        <ele>501.777</ele>
        <time>2024-09-25T11:10:13Z</time>
      </trkpt>
      <trkpt lon="78.517358754812349" lat="17.633317311604245">
        <ele>501.782</ele>
        <time>2024-09-25T11:10:13Z</time>
      </trkpt>
      <trkpt lon="78.517359443346734" lat="17.633319356056216">
        <ele>501.784</ele>
        <time>2024-09-25T11:10:13Z</time>
      </trkpt>
      <trkpt lon="78.517360123780463" lat="17.633321374948032">
        <ele>501.783</ele>
        <time>2024-09-25T11:10:13Z</time>
      </trkpt>
      <trkpt lon="78.517360798324262" lat="17.633323375941966">
        <ele>501.782</ele>
        <time>2024-09-25T11:10:13Z</time>
      </trkpt>
      <trkpt lon="78.517361468849145" lat="17.633325365435542">
        <ele>501.779</ele>
        <time>2024-09-25T11:10:13Z</time>
      </trkpt>
      <trkpt lon="78.517362136905106" lat="17.633327348650706">
        <ele>501.775</ele>
        <time>2024-09-25T11:10:13Z</time>
      </trkpt>
      <trkpt lon="78.517362803746281" lat="17.633329329741883">
        <ele>501.772</ele>
        <time>2024-09-25T11:10:13Z</time>
      </trkpt>
      <trkpt lon="78.517363470360237" lat="17.633331311914517">
        <ele>501.767</ele>
        <time>2024-09-25T11:10:13Z</time>
      </trkpt>
      <trkpt lon="78.517364137499342" lat="17.633333297547352">
        <ele>501.763</ele>
        <time>2024-09-25T11:10:13Z</time>
      </trkpt>
      <trkpt lon="78.517364805712489" lat="17.633335288313354">
        <ele>501.759</ele>
        <time>2024-09-25T11:10:13Z</time>
      </trkpt>
      <trkpt lon="78.517365475376138" lat="17.633337285295372">
        <ele>501.755</ele>
        <time>2024-09-25T11:10:13Z</time>
      </trkpt>
      <trkpt lon="78.517366146723688" lat="17.633339289093783">
        <ele>501.752</ele>
        <time>2024-09-25T11:10:13Z</time>
      </trkpt>
      <trkpt lon="78.517366819872592" lat="17.633341299924446">
        <ele>501.749</ele>
        <time>2024-09-25T11:10:13Z</time>
      </trkpt>
      <trkpt lon="78.51736749484887" lat="17.633343317705851">
        <ele>501.746</ele>
        <time>2024-09-25T11:10:13Z</time>
      </trkpt>
      <trkpt lon="78.517368171608638" lat="17.633345342135161">
        <ele>501.744</ele>
        <time>2024-09-25T11:10:13Z</time>
      </trkpt>
      <trkpt lon="78.517368850056883" lat="17.633347372753221">
        <ele>501.742</ele>
        <time>2024-09-25T11:10:13Z</time>
      </trkpt>
      <trkpt lon="78.517369530063348" lat="17.633349408998981">
        <ele>501.74</ele>
        <time>2024-09-25T11:10:13Z</time>
      </trkpt>
      <trkpt lon="78.517370211475722" lat="17.633351450254068">
        <ele>501.739</ele>
        <time>2024-09-25T11:10:13Z</time>
      </trkpt>
      <trkpt lon="78.517370894130366" lat="17.633353495878374">
        <ele>501.738</ele>
        <time>2024-09-25T11:10:13Z</time>
      </trkpt>
      <trkpt lon="78.517371577860786" lat="17.633355545237642">
        <ele>501.737</ele>
        <time>2024-09-25T11:10:13Z</time>
      </trkpt>
      <trkpt lon="78.517372262504125" lat="17.633357597724039">
        <ele>501.736</ele>
        <time>2024-09-25T11:10:13Z</time>
      </trkpt>
      <trkpt lon="78.517373130874191" lat="17.633360267596672">
        <ele>501.828</ele>
        <time>2024-09-25T11:10:14Z</time>
      </trkpt>
      <trkpt lon="78.51737396115621" lat="17.633362879423242">
        <ele>501.905</ele>
        <time>2024-09-25T11:10:14Z</time>
      </trkpt>
      <trkpt lon="78.517374756512169" lat="17.633365432797856">
        <ele>501.968</ele>
        <time>2024-09-25T11:10:14Z</time>
      </trkpt>
      <trkpt lon="78.517375520538536" lat="17.633367929444525">
        <ele>502.02</ele>
        <time>2024-09-25T11:10:14Z</time>
      </trkpt>
      <trkpt lon="78.517376257034456" lat="17.633370372632942">
        <ele>502.06</ele>
        <time>2024-09-25T11:10:14Z</time>
      </trkpt>
      <trkpt lon="78.517376969819892" lat="17.633372766684403">
        <ele>502.09</ele>
        <time>2024-09-25T11:10:14Z</time>
      </trkpt>
      <trkpt lon="78.517377662597809" lat="17.633375116562849">
        <ele>502.113</ele>
        <time>2024-09-25T11:10:14Z</time>
      </trkpt>
      <trkpt lon="78.517378338854414" lat="17.633377427544264">
        <ele>502.127</ele>
        <time>2024-09-25T11:10:14Z</time>
      </trkpt>
      <trkpt lon="78.517379001791468" lat="17.633379704956617">
        <ele>502.137</ele>
        <time>2024-09-25T11:10:14Z</time>
      </trkpt>
      <trkpt lon="78.517379654285023" lat="17.633381953982038">
        <ele>502.141</ele>
        <time>2024-09-25T11:10:14Z</time>
      </trkpt>
      <trkpt lon="78.517380298865817" lat="17.633384179512749">
        <ele>502.142</ele>
        <time>2024-09-25T11:10:14Z</time>
      </trkpt>
      <trkpt lon="78.517380937716368" lat="17.633386386052528">
        <ele>502.139</ele>
        <time>2024-09-25T11:10:14Z</time>
      </trkpt>
      <trkpt lon="78.517381572680875" lat="17.633388577655932">
        <ele>502.135</ele>
        <time>2024-09-25T11:10:14Z</time>
      </trkpt>
      <trkpt lon="78.517382205284491" lat="17.63339075789807">
        <ele>502.129</ele>
        <time>2024-09-25T11:10:14Z</time>
      </trkpt>
      <trkpt lon="78.517382836758912" lat="17.633392929868489">
        <ele>502.123</ele>
        <time>2024-09-25T11:10:14Z</time>
      </trkpt>
      <trkpt lon="78.517383468071799" lat="17.633395096183399">
        <ele>502.116</ele>
        <time>2024-09-25T11:10:14Z</time>
      </trkpt>
      <trkpt lon="78.517384099958193" lat="17.633397259011357">
        <ele>502.109</ele>
        <time>2024-09-25T11:10:14Z</time>
      </trkpt>
      <trkpt lon="78.517384732952308" lat="17.633399420108145">
        <ele>502.102</ele>
        <time>2024-09-25T11:10:14Z</time>
      </trkpt>
      <trkpt lon="78.517385367418328" lat="17.633401580857424">
        <ele>502.095</ele>
        <time>2024-09-25T11:10:14Z</time>
      </trkpt>
      <trkpt lon="78.517386003579688" lat="17.633403742314293">
        <ele>502.089</ele>
        <time>2024-09-25T11:10:14Z</time>
      </trkpt>
      <trkpt lon="78.517386641545926" lat="17.633405905249521">
        <ele>502.084</ele>
        <time>2024-09-25T11:10:14Z</time>
      </trkpt>
      <trkpt lon="78.517387281336923" lat="17.63340807019279">
        <ele>502.079</ele>
        <time>2024-09-25T11:10:14Z</time>
      </trkpt>
      <trkpt lon="78.517387922904319" lat="17.63341023747364">
        <ele>502.075</ele>
        <time>2024-09-25T11:10:14Z</time>
      </trkpt>
      <trkpt lon="78.517388566149947" lat="17.633412407259303">
        <ele>502.072</ele>
        <time>2024-09-25T11:10:14Z</time>
      </trkpt>
      <trkpt lon="78.517389210941545" lat="17.633414579588852">
        <ele>502.069</ele>
        <time>2024-09-25T11:10:14Z</time>
      </trkpt>
      <trkpt lon="78.517389857125693" lat="17.633416754403395">
        <ele>502.067</ele>
        <time>2024-09-25T11:10:14Z</time>
      </trkpt>
      <trkpt lon="78.517390504538398" lat="17.633418931572233">
        <ele>502.065</ele>
        <time>2024-09-25T11:10:14Z</time>
      </trkpt>
      <trkpt lon="78.517391153013364" lat="17.633421110915084">
        <ele>502.063</ele>
        <time>2024-09-25T11:10:14Z</time>
      </trkpt>
      <trkpt lon="78.517391802388346" lat="17.633423292220549">
        <ele>502.062</ele>
        <time>2024-09-25T11:10:14Z</time>
      </trkpt>
      <trkpt lon="78.517392619185102" lat="17.63342606311932">
        <ele>502.058</ele>
        <time>2024-09-25T11:10:15Z</time>
      </trkpt>
      <trkpt lon="78.517393394078212" lat="17.63342871609272">
        <ele>502.054</ele>
        <time>2024-09-25T11:10:15Z</time>
      </trkpt>
      <trkpt lon="78.517394131078305" lat="17.633431260713234">
        <ele>502.052</ele>
        <time>2024-09-25T11:10:15Z</time>
      </trkpt>
      <trkpt lon="78.517394834524652" lat="17.633433707959739">
        <ele>502.049</ele>
        <time>2024-09-25T11:10:15Z</time>
      </trkpt>
      <trkpt lon="78.517395508853525" lat="17.633436069489992">
        <ele>502.048</ele>
        <time>2024-09-25T11:10:15Z</time>
      </trkpt>
      <trkpt lon="78.517396158420325" lat="17.633438357068631">
        <ele>502.047</ele>
        <time>2024-09-25T11:10:15Z</time>
      </trkpt>
      <trkpt lon="78.517396787368142" lat="17.633440582132284">
        <ele>502.046</ele>
        <time>2024-09-25T11:10:15Z</time>
      </trkpt>
      <trkpt lon="78.517397399536179" lat="17.633442755473151">
        <ele>502.046</ele>
        <time>2024-09-25T11:10:15Z</time>
      </trkpt>
      <trkpt lon="78.517397998401265" lat="17.633444887022844">
        <ele>502.046</ele>
        <time>2024-09-25T11:10:15Z</time>
      </trkpt>
      <trkpt lon="78.517398587046245" lat="17.633446985719324">
        <ele>502.046</ele>
        <time>2024-09-25T11:10:15Z</time>
      </trkpt>
      <trkpt lon="78.517399168149993" lat="17.633449059441137">
        <ele>502.046</ele>
        <time>2024-09-25T11:10:15Z</time>
      </trkpt>
      <trkpt lon="78.517399743993764" lat="17.633451114994589">
        <ele>502.047</ele>
        <time>2024-09-25T11:10:15Z</time>
      </trkpt>
      <trkpt lon="78.517400316479865" lat="17.633453158141357">
        <ele>502.047</ele>
        <time>2024-09-25T11:10:15Z</time>
      </trkpt>
      <trkpt lon="78.517400887158914" lat="17.633455193655546">
        <ele>502.048</ele>
        <time>2024-09-25T11:10:15Z</time>
      </trkpt>
      <trkpt lon="78.517401457262551" lat="17.633457225401031">
        <ele>502.048</ele>
        <time>2024-09-25T11:10:15Z</time>
      </trkpt>
      <trkpt lon="78.517402027739166" lat="17.633459256421343">
        <ele>502.049</ele>
        <time>2024-09-25T11:10:15Z</time>
      </trkpt>
      <trkpt lon="78.517402599290733" lat="17.633461289035925">
        <ele>502.049</ele>
        <time>2024-09-25T11:10:15Z</time>
      </trkpt>
      <trkpt lon="78.517403172409061" lat="17.633463324937839">
        <ele>502.049</ele>
        <time>2024-09-25T11:10:15Z</time>
      </trkpt>
      <trkpt lon="78.517403747410498" lat="17.633465365289183">
        <ele>502.05</ele>
        <time>2024-09-25T11:10:15Z</time>
      </trkpt>
      <trkpt lon="78.517404324468103" lat="17.633467410811431">
        <ele>502.05</ele>
        <time>2024-09-25T11:10:15Z</time>
      </trkpt>
      <trkpt lon="78.517404903640923" lat="17.633469461868874">
        <ele>502.05</ele>
        <time>2024-09-25T11:10:15Z</time>
      </trkpt>
      <trkpt lon="78.517405484899982" lat="17.633471518543878">
        <ele>502.051</ele>
        <time>2024-09-25T11:10:15Z</time>
      </trkpt>
      <trkpt lon="78.517406068151033" lat="17.633473580703441">
        <ele>502.051</ele>
        <time>2024-09-25T11:10:15Z</time>
      </trkpt>
      <trkpt lon="78.517406653253815" lat="17.633475648056834">
        <ele>502.051</ele>
        <time>2024-09-25T11:10:15Z</time>
      </trkpt>
      <trkpt lon="78.51740724003831" lat="17.633477720204521">
        <ele>502.051</ele>
        <time>2024-09-25T11:10:15Z</time>
      </trkpt>
      <trkpt lon="78.517407828317928" lat="17.633479796678824">
        <ele>502.051</ele>
        <time>2024-09-25T11:10:15Z</time>
      </trkpt>
      <trkpt lon="78.517408417900114" lat="17.633481876976944">
        <ele>502.051</ele>
        <time>2024-09-25T11:10:15Z</time>
      </trkpt>
      <trkpt lon="78.517409008594441" lat="17.633483960587064">
        <ele>502.051</ele>
        <time>2024-09-25T11:10:15Z</time>
      </trkpt>
      <trkpt lon="78.517409600218812" lat="17.633486047008347">
        <ele>502.051</ele>
        <time>2024-09-25T11:10:15Z</time>
      </trkpt>
      <trkpt lon="78.517410390366649" lat="17.633488661167409">
        <ele>501.925</ele>
        <time>2024-09-25T11:10:16Z</time>
      </trkpt>
      <trkpt lon="78.517411181103327" lat="17.633491132129144">
        <ele>501.818</ele>
        <time>2024-09-25T11:10:16Z</time>
      </trkpt>
      <trkpt lon="78.517411969271606" lat="17.63349347428727">
        <ele>501.73</ele>
        <time>2024-09-25T11:10:16Z</time>
      </trkpt>
      <trkpt lon="78.517412752580697" lat="17.633495702965213">
        <ele>501.659</ele>
        <time>2024-09-25T11:10:16Z</time>
      </trkpt>
      <trkpt lon="78.51741352947252" lat="17.633497833655071">
        <ele>501.604</ele>
        <time>2024-09-25T11:10:16Z</time>
      </trkpt>
      <trkpt lon="78.517414298995448" lat="17.633499881438055">
        <ele>501.562</ele>
        <time>2024-09-25T11:10:16Z</time>
      </trkpt>
      <trkpt lon="78.517415060688037" lat="17.633501860561896">
        <ele>501.531</ele>
        <time>2024-09-25T11:10:16Z</time>
      </trkpt>
      <trkpt lon="78.517415814474404" lat="17.633503784151216">
        <ele>501.511</ele>
        <time>2024-09-25T11:10:16Z</time>
      </trkpt>
      <trkpt lon="78.517416560571903" lat="17.633505664028224">
        <ele>501.499</ele>
        <time>2024-09-25T11:10:16Z</time>
      </trkpt>
      <trkpt lon="78.517417299411406" lat="17.633507510622763">
        <ele>501.493</ele>
        <time>2024-09-25T11:10:16Z</time>
      </trkpt>
      <trkpt lon="78.517418031569775" lat="17.63350933295289">
        <ele>501.492</ele>
        <time>2024-09-25T11:10:16Z</time>
      </trkpt>
      <trkpt lon="78.517418757713884" lat="17.633511138659223">
        <ele>501.496</ele>
        <time>2024-09-25T11:10:16Z</time>
      </trkpt>
      <trkpt lon="78.517419478555311" lat="17.63351293407872">
        <ele>501.502</ele>
        <time>2024-09-25T11:10:16Z</time>
      </trkpt>
      <trkpt lon="78.517420194814605" lat="17.63351472434552">
        <ele>501.51</ele>
        <time>2024-09-25T11:10:16Z</time>
      </trkpt>
      <trkpt lon="78.517420907194079" lat="17.63351651350877">
        <ele>501.519</ele>
        <time>2024-09-25T11:10:16Z</time>
      </trkpt>
      <trkpt lon="78.517421616357851" lat="17.633518304659106">
        <ele>501.529</ele>
        <time>2024-09-25T11:10:16Z</time>
      </trkpt>
      <trkpt lon="78.517422322918236" lat="17.633520100057282">
        <ele>501.539</ele>
        <time>2024-09-25T11:10:16Z</time>
      </trkpt>
      <trkpt lon="78.517423027427256" lat="17.633521901259979">
        <ele>501.548</ele>
        <time>2024-09-25T11:10:16Z</time>
      </trkpt>
      <trkpt lon="78.517423730372229" lat="17.633523709239046">
        <ele>501.557</ele>
        <time>2024-09-25T11:10:16Z</time>
      </trkpt>
      <trkpt lon="78.517424432174849" lat="17.633525524491752">
        <ele>501.565</ele>
        <time>2024-09-25T11:10:16Z</time>
      </trkpt>
      <trkpt lon="78.51742513319266" lat="17.633527347140333">
        <ele>501.573</ele>
        <time>2024-09-25T11:10:16Z</time>
      </trkpt>
      <trkpt lon="78.517425833722427" lat="17.63352917702009">
        <ele>501.579</ele>
        <time>2024-09-25T11:10:16Z</time>
      </trkpt>
      <trkpt lon="78.517426534004827" lat="17.633531013755729">
        <ele>501.585</ele>
        <time>2024-09-25T11:10:16Z</time>
      </trkpt>
      <trkpt lon="78.517427234229856" lat="17.633532856826253">
        <ele>501.59</ele>
        <time>2024-09-25T11:10:16Z</time>
      </trkpt>
      <trkpt lon="78.517427934542738" lat="17.633534705618928">
        <ele>501.594</ele>
        <time>2024-09-25T11:10:16Z</time>
      </trkpt>
      <trkpt lon="78.51742863504991" lat="17.633536559473132">
        <ele>501.597</ele>
        <time>2024-09-25T11:10:16Z</time>
      </trkpt>
      <trkpt lon="78.517429335824843" lat="17.633538417715101">
        <ele>501.6</ele>
        <time>2024-09-25T11:10:16Z</time>
      </trkpt>
      <trkpt lon="78.517430036913609" lat="17.633540279684553">
        <ele>501.602</ele>
        <time>2024-09-25T11:10:16Z</time>
      </trkpt>
      <trkpt lon="78.517430738340053" lat="17.633542144754312">
        <ele>501.603</ele>
        <time>2024-09-25T11:10:16Z</time>
      </trkpt>
      <trkpt lon="78.517431638716246" lat="17.633544675767855">
        <ele>501.323</ele>
        <time>2024-09-25T11:10:17Z</time>
      </trkpt>
      <trkpt lon="78.517432509034236" lat="17.633547242452007">
        <ele>501.086</ele>
        <time>2024-09-25T11:10:17Z</time>
      </trkpt>
      <trkpt lon="78.517433351022007" lat="17.633549828905156">
        <ele>500.891</ele>
        <time>2024-09-25T11:10:17Z</time>
      </trkpt>
      <trkpt lon="78.517434166966041" lat="17.633552422453874">
        <ele>500.734</ele>
        <time>2024-09-25T11:10:17Z</time>
      </trkpt>
      <trkpt lon="78.517434959494381" lat="17.633555013298302">
        <ele>500.61</ele>
        <time>2024-09-25T11:10:17Z</time>
      </trkpt>
      <trkpt lon="78.517435731401278" lat="17.633557594145078">
        <ele>500.517</ele>
        <time>2024-09-25T11:10:17Z</time>
      </trkpt>
      <trkpt lon="78.517436485509265" lat="17.633560159843555">
        <ele>500.45</ele>
        <time>2024-09-25T11:10:17Z</time>
      </trkpt>
      <trkpt lon="78.517437224564134" lat="17.633562707037182">
        <ele>500.404</ele>
        <time>2024-09-25T11:10:17Z</time>
      </trkpt>
      <trkpt lon="78.517437951158499" lat="17.633565233838397">
        <ele>500.376</ele>
        <time>2024-09-25T11:10:17Z</time>
      </trkpt>
      <trkpt lon="78.517438667679443" lat="17.633567739532534">
        <ele>500.363</ele>
        <time>2024-09-25T11:10:17Z</time>
      </trkpt>
      <trkpt lon="78.517439376276243" lat="17.633570224313889">
        <ele>500.361</ele>
        <time>2024-09-25T11:10:17Z</time>
      </trkpt>
      <trkpt lon="78.517440078844245" lat="17.633572689055217">
        <ele>500.368</ele>
        <time>2024-09-25T11:10:17Z</time>
      </trkpt>
      <trkpt lon="78.517440777021548" lat="17.633575135110373">
        <ele>500.382</ele>
        <time>2024-09-25T11:10:17Z</time>
      </trkpt>
      <trkpt lon="78.5174414721955" lat="17.633577564148879">
        <ele>500.399</ele>
        <time>2024-09-25T11:10:17Z</time>
      </trkpt>
      <trkpt lon="78.517442165516172" lat="17.633579978020204">
        <ele>500.419</ele>
        <time>2024-09-25T11:10:17Z</time>
      </trkpt>
      <trkpt lon="78.517442857914887" lat="17.633582378645258">
        <ele>500.441</ele>
        <time>2024-09-25T11:10:17Z</time>
      </trkpt>
      <trkpt lon="78.517443550125705" lat="17.633584767932078">
        <ele>500.462</ele>
        <time>2024-09-25T11:10:17Z</time>
      </trkpt>
      <trkpt lon="78.517444242708493" lat="17.633587147712745">
        <ele>500.483</ele>
        <time>2024-09-25T11:10:17Z</time>
      </trkpt>
      <trkpt lon="78.51744493607238" lat="17.63358951969844">
        <ele>500.503</ele>
        <time>2024-09-25T11:10:17Z</time>
      </trkpt>
      <trkpt lon="78.517445630498642" lat="17.633591885449793">
        <ele>500.522</ele>
        <time>2024-09-25T11:10:17Z</time>
      </trkpt>
      <trkpt lon="78.5174463261624" lat="17.633594246359749">
        <ele>500.538</ele>
        <time>2024-09-25T11:10:17Z</time>
      </trkpt>
      <trkpt lon="78.517447023152712" lat="17.633596603646463">
        <ele>500.553</ele>
        <time>2024-09-25T11:10:17Z</time>
      </trkpt>
      <trkpt lon="78.517447721490612" lat="17.633598958354028">
        <ele>500.565</ele>
        <time>2024-09-25T11:10:17Z</time>
      </trkpt>
      <trkpt lon="78.51744842114519" lat="17.633601311359079">
        <ele>500.576</ele>
        <time>2024-09-25T11:10:17Z</time>
      </trkpt>
      <trkpt lon="78.517449122047381" lat="17.633603663381553">
        <ele>500.585</ele>
        <time>2024-09-25T11:10:17Z</time>
      </trkpt>
      <trkpt lon="78.517449824101817" lat="17.633606014998282">
        <ele>500.592</ele>
        <time>2024-09-25T11:10:17Z</time>
      </trkpt>
      <trkpt lon="78.517450527196601" lat="17.633608366658176">
        <ele>500.597</ele>
        <time>2024-09-25T11:10:17Z</time>
      </trkpt>
      <trkpt lon="78.51745123121124" lat="17.633610718698137">
        <ele>500.602</ele>
        <time>2024-09-25T11:10:17Z</time>
      </trkpt>
      <trkpt lon="78.517451936022937" lat="17.633613071358919">
        <ele>500.605</ele>
        <time>2024-09-25T11:10:17Z</time>
      </trkpt>
      <trkpt lon="78.517452838712728" lat="17.633615918084473">
        <ele>500.551</ele>
        <time>2024-09-25T11:10:18Z</time>
      </trkpt>
      <trkpt lon="78.517453709543958" lat="17.633618517958357">
        <ele>500.505</ele>
        <time>2024-09-25T11:10:18Z</time>
      </trkpt>
      <trkpt lon="78.517454550496353" lat="17.633620902444694">
        <ele>500.467</ele>
        <time>2024-09-25T11:10:18Z</time>
      </trkpt>
      <trkpt lon="78.517455364099945" lat="17.633623102741826">
        <ele>500.436</ele>
        <time>2024-09-25T11:10:18Z</time>
      </trkpt>
      <trkpt lon="78.517456153211683" lat="17.633625148764267">
        <ele>500.411</ele>
        <time>2024-09-25T11:10:18Z</time>
      </trkpt>
      <trkpt lon="78.517456920835784" lat="17.633627068419848">
        <ele>500.392</ele>
        <time>2024-09-25T11:10:18Z</time>
      </trkpt>
      <trkpt lon="78.517457669983116" lat="17.633628887134517">
        <ele>500.378</ele>
        <time>2024-09-25T11:10:18Z</time>
      </trkpt>
      <trkpt lon="78.517458403564987" lat="17.633630627580342">
        <ele>500.368</ele>
        <time>2024-09-25T11:10:18Z</time>
      </trkpt>
      <trkpt lon="78.517459124316574" lat="17.633632309566071">
        <ele>500.362</ele>
        <time>2024-09-25T11:10:18Z</time>
      </trkpt>
      <trkpt lon="78.517459834745253" lat="17.633633950054115">
        <ele>500.358</ele>
        <time>2024-09-25T11:10:18Z</time>
      </trkpt>
      <trkpt lon="78.517460537099652" lat="17.633635563272176">
        <ele>500.357</ele>
        <time>2024-09-25T11:10:18Z</time>
      </trkpt>
      <trkpt lon="78.51746123335522" lat="17.63363716089237">
        <ele>500.358</ele>
        <time>2024-09-25T11:10:18Z</time>
      </trkpt>
      <trkpt lon="78.517461925212885" lat="17.633638752255031">
        <ele>500.36</ele>
        <time>2024-09-25T11:10:18Z</time>
      </trkpt>
      <trkpt lon="78.517462614107586" lat="17.633640344618357">
        <ele>500.362</ele>
        <time>2024-09-25T11:10:18Z</time>
      </trkpt>
      <trkpt lon="78.517463301223898" lat="17.633641943418944">
        <ele>500.366</ele>
        <time>2024-09-25T11:10:18Z</time>
      </trkpt>
      <trkpt lon="78.517463987516521" lat="17.633643552531417">
        <ele>500.37</ele>
        <time>2024-09-25T11:10:18Z</time>
      </trkpt>
      <trkpt lon="78.517464673733741" lat="17.633645174518414">
        <ele>500.374</ele>
        <time>2024-09-25T11:10:18Z</time>
      </trkpt>
      <trkpt lon="78.51746536044223" lat="17.633646810864565">
        <ele>500.377</ele>
        <time>2024-09-25T11:10:18Z</time>
      </trkpt>
      <trkpt lon="78.517466048052114" lat="17.633648462190333">
        <ele>500.381</ele>
        <time>2024-09-25T11:10:18Z</time>
      </trkpt>
      <trkpt lon="78.517466736841229" lat="17.6336501284432">
        <ele>500.384</ele>
        <time>2024-09-25T11:10:18Z</time>
      </trkpt>
      <trkpt lon="78.517467426978072" lat="17.633651809065181">
        <ele>500.387</ele>
        <time>2024-09-25T11:10:18Z</time>
      </trkpt>
      <trkpt lon="78.517468118542865" lat="17.633653503136625">
        <ele>500.39</ele>
        <time>2024-09-25T11:10:18Z</time>
      </trkpt>
      <trkpt lon="78.517468811546451" lat="17.633655209497203">
        <ele>500.393</ele>
        <time>2024-09-25T11:10:18Z</time>
      </trkpt>
      <trkpt lon="78.517469505947091" lat="17.63365692684545">
        <ele>500.395</ele>
        <time>2024-09-25T11:10:18Z</time>
      </trkpt>
      <trkpt lon="78.517470201664736" lat="17.633658653818713">
        <ele>500.396</ele>
        <time>2024-09-25T11:10:18Z</time>
      </trkpt>
      <trkpt lon="78.517470898593359" lat="17.633660389055528">
        <ele>500.398</ele>
        <time>2024-09-25T11:10:18Z</time>
      </trkpt>
      <trkpt lon="78.517471596610946" lat="17.633662131242627">
        <ele>500.399</ele>
        <time>2024-09-25T11:10:18Z</time>
      </trkpt>
      <trkpt lon="78.517472295587723" lat="17.633663879148667">
        <ele>500.4</ele>
        <time>2024-09-25T11:10:18Z</time>
      </trkpt>
      <trkpt lon="78.517472995392552" lat="17.633665631646828">
        <ele>500.4</ele>
        <time>2024-09-25T11:10:18Z</time>
      </trkpt>
      <trkpt lon="78.517473887106235" lat="17.633667953113349">
        <ele>500.087</ele>
        <time>2024-09-25T11:10:19Z</time>
      </trkpt>
      <trkpt lon="78.517474743332869" lat="17.633670260452913">
        <ele>499.822</ele>
        <time>2024-09-25T11:10:19Z</time>
      </trkpt>
      <trkpt lon="78.517475566711781" lat="17.633672546909651">
        <ele>499.604</ele>
        <time>2024-09-25T11:10:19Z</time>
      </trkpt>
      <trkpt lon="78.517476360373323" lat="17.63367480811613">
        <ele>499.428</ele>
        <time>2024-09-25T11:10:19Z</time>
      </trkpt>
      <trkpt lon="78.517477127709256" lat="17.633677041657023">
        <ele>499.291</ele>
        <time>2024-09-25T11:10:19Z</time>
      </trkpt>
      <trkpt lon="78.517477872190568" lat="17.633679246672429">
        <ele>499.187</ele>
        <time>2024-09-25T11:10:19Z</time>
      </trkpt>
      <trkpt lon="78.517478597227509" lat="17.63368142350479">
        <ele>499.112</ele>
        <time>2024-09-25T11:10:19Z</time>
      </trkpt>
      <trkpt lon="78.517479306066051" lat="17.633683573391018">
        <ele>499.061</ele>
        <time>2024-09-25T11:10:19Z</time>
      </trkpt>
      <trkpt lon="78.517480001715597" lat="17.633685698199329">
        <ele>499.03</ele>
        <time>2024-09-25T11:10:19Z</time>
      </trkpt>
      <trkpt lon="78.517480686902729" lat="17.63368780020895">
        <ele>499.016</ele>
        <time>2024-09-25T11:10:19Z</time>
      </trkpt>
      <trkpt lon="78.517481364046148" lat="17.633689881929769">
        <ele>499.014</ele>
        <time>2024-09-25T11:10:19Z</time>
      </trkpt>
      <trkpt lon="78.517482035248435" lat="17.633691945958393">
        <ele>499.022</ele>
        <time>2024-09-25T11:10:19Z</time>
      </trkpt>
      <trkpt lon="78.51748270230091" lat="17.633693994866608">
        <ele>499.037</ele>
        <time>2024-09-25T11:10:19Z</time>
      </trkpt>
      <trkpt lon="78.517483366697988" lat="17.633696031118195">
        <ele>499.057</ele>
        <time>2024-09-25T11:10:19Z</time>
      </trkpt>
      <trkpt lon="78.517484029658434" lat="17.633698057009934">
        <ele>499.08</ele>
        <time>2024-09-25T11:10:19Z</time>
      </trkpt>
      <trkpt lon="78.517484692150816" lat="17.633700074632962">
        <ele>499.104</ele>
        <time>2024-09-25T11:10:19Z</time>
      </trkpt>
      <trkpt lon="78.517485354921547" lat="17.633702085850786">
        <ele>499.128</ele>
        <time>2024-09-25T11:10:19Z</time>
      </trkpt>
      <trkpt lon="78.517486018523613" lat="17.633704092290579">
        <ele>499.152</ele>
        <time>2024-09-25T11:10:19Z</time>
      </trkpt>
      <trkpt lon="78.517486683344998" lat="17.63370609534487">
        <ele>499.174</ele>
        <time>2024-09-25T11:10:19Z</time>
      </trkpt>
      <trkpt lon="78.517487349635815" lat="17.633708096180946">
        <ele>499.195</ele>
        <time>2024-09-25T11:10:19Z</time>
      </trkpt>
      <trkpt lon="78.517488017533552" lat="17.633710095755763">
        <ele>499.213</ele>
        <time>2024-09-25T11:10:19Z</time>
      </trkpt>
      <trkpt lon="78.517488687086072" lat="17.63371209483449">
        <ele>499.23</ele>
        <time>2024-09-25T11:10:19Z</time>
      </trkpt>
      <trkpt lon="78.517489358271987" lat="17.63371409401115">
        <ele>499.244</ele>
        <time>2024-09-25T11:10:19Z</time>
      </trkpt>
      <trkpt lon="78.51749003101844" lat="17.633716093730133">
        <ele>499.256</ele>
        <time>2024-09-25T11:10:19Z</time>
      </trkpt>
      <trkpt lon="78.517490705216289" lat="17.633718094307586">
        <ele>499.265</ele>
        <time>2024-09-25T11:10:19Z</time>
      </trkpt>
      <trkpt lon="78.517491380732892" lat="17.633720095952011">
        <ele>499.273</ele>
        <time>2024-09-25T11:10:19Z</time>
      </trkpt>
      <trkpt lon="78.517492057422459" lat="17.633722098783533">
        <ele>499.28</ele>
        <time>2024-09-25T11:10:19Z</time>
      </trkpt>
      <trkpt lon="78.517492735134326" lat="17.633724102851467">
        <ele>499.284</ele>
        <time>2024-09-25T11:10:19Z</time>
      </trkpt>
      <trkpt lon="78.51749341371945" lat="17.633726108150057">
        <ele>499.288</ele>
        <time>2024-09-25T11:10:19Z</time>
      </trkpt>
      <trkpt lon="78.517494281902614" lat="17.633728682545573">
        <ele>499.276</ele>
        <time>2024-09-25T11:10:20Z</time>
      </trkpt>
      <trkpt lon="78.517495118636518" lat="17.633731171252293">
        <ele>499.266</ele>
        <time>2024-09-25T11:10:20Z</time>
      </trkpt>
      <trkpt lon="78.517495925954023" lat="17.63373357914562">
        <ele>499.257</ele>
        <time>2024-09-25T11:10:20Z</time>
      </trkpt>
      <trkpt lon="78.517496706409105" lat="17.63373591270728">
        <ele>499.249</ele>
        <time>2024-09-25T11:10:20Z</time>
      </trkpt>
      <trkpt lon="78.517497462859922" lat="17.633738179404762">
        <ele>499.243</ele>
        <time>2024-09-25T11:10:20Z</time>
      </trkpt>
      <trkpt lon="78.517498198294618" lat="17.633740387189306">
        <ele>499.238</ele>
        <time>2024-09-25T11:10:20Z</time>
      </trkpt>
      <trkpt lon="78.517498915695597" lat="17.633742544100667">
        <ele>499.233</ele>
        <time>2024-09-25T11:10:20Z</time>
      </trkpt>
      <trkpt lon="78.517499617937318" lat="17.633744657966115">
        <ele>499.23</ele>
        <time>2024-09-25T11:10:20Z</time>
      </trkpt>
      <trkpt lon="78.517500307713064" lat="17.633746736180914">
        <ele>499.228</ele>
        <time>2024-09-25T11:10:20Z</time>
      </trkpt>
      <trkpt lon="78.517500987486017" lat="17.633748785557831">
        <ele>499.226</ele>
        <time>2024-09-25T11:10:20Z</time>
      </trkpt>
      <trkpt lon="78.517501659460351" lat="17.633750812233959">
        <ele>499.225</ele>
        <time>2024-09-25T11:10:20Z</time>
      </trkpt>
      <trkpt lon="78.517502325568401" lat="17.633752821623904">
        <ele>499.224</ele>
        <time>2024-09-25T11:10:20Z</time>
      </trkpt>
      <trkpt lon="78.517502987470579" lat="17.63375481840961">
        <ele>499.224</ele>
        <time>2024-09-25T11:10:20Z</time>
      </trkpt>
      <trkpt lon="78.517503646564549" lat="17.633756806558136">
        <ele>499.224</ele>
        <time>2024-09-25T11:10:20Z</time>
      </trkpt>
      <trkpt lon="78.517504304001449" lat="17.633758789359877">
        <ele>499.225</ele>
        <time>2024-09-25T11:10:20Z</time>
      </trkpt>
      <trkpt lon="78.51750496070656" lat="17.633760769480869">
        <ele>499.225</ele>
        <time>2024-09-25T11:10:20Z</time>
      </trkpt>
      <trkpt lon="78.517505617402776" lat="17.633762749023912">
        <ele>499.226</ele>
        <time>2024-09-25T11:10:20Z</time>
      </trkpt>
      <trkpt lon="78.517506274635366" lat="17.633764729594198">
        <ele>499.226</ele>
        <time>2024-09-25T11:10:20Z</time>
      </trkpt>
      <trkpt lon="78.517506932796707" lat="17.633766712366072">
        <ele>499.227</ele>
        <time>2024-09-25T11:10:20Z</time>
      </trkpt>
      <trkpt lon="78.517507592150352" lat="17.633768698148316">
        <ele>499.227</ele>
        <time>2024-09-25T11:10:20Z</time>
      </trkpt>
      <trkpt lon="78.517508252853531" lat="17.633770687446052">
        <ele>499.228</ele>
        <time>2024-09-25T11:10:20Z</time>
      </trkpt>
      <trkpt lon="78.517508914977924" lat="17.633772680517968">
        <ele>499.229</ele>
        <time>2024-09-25T11:10:20Z</time>
      </trkpt>
      <trkpt lon="78.517509578528177" lat="17.633774677427983">
        <ele>499.229</ele>
        <time>2024-09-25T11:10:20Z</time>
      </trkpt>
      <trkpt lon="78.517510243458318" lat="17.633776678090989">
        <ele>499.23</ele>
        <time>2024-09-25T11:10:20Z</time>
      </trkpt>
      <trkpt lon="78.517510909685726" lat="17.633778682312499">
        <ele>499.23</ele>
        <time>2024-09-25T11:10:20Z</time>
      </trkpt>
      <trkpt lon="78.517511577103107" lat="17.63378068982232">
        <ele>499.23</ele>
        <time>2024-09-25T11:10:20Z</time>
      </trkpt>
      <trkpt lon="78.517512245588208" lat="17.633782700302568">
        <ele>499.231</ele>
        <time>2024-09-25T11:10:20Z</time>
      </trkpt>
      <trkpt lon="78.517512915011821" lat="17.633784713410467">
        <ele>499.231</ele>
        <time>2024-09-25T11:10:20Z</time>
      </trkpt>
      <trkpt lon="78.517513585243975" lat="17.63378672879637">
        <ele>499.231</ele>
        <time>2024-09-25T11:10:20Z</time>
      </trkpt>
      <trkpt lon="78.517514374704064" lat="17.633788954555367">
        <ele>499.387</ele>
        <time>2024-09-25T11:10:21Z</time>
      </trkpt>
      <trkpt lon="78.517515075760471" lat="17.633790789664534">
        <ele>499.518</ele>
        <time>2024-09-25T11:10:21Z</time>
      </trkpt>
      <trkpt lon="78.51751570048549" lat="17.633792292333162">
        <ele>499.627</ele>
        <time>2024-09-25T11:10:21Z</time>
      </trkpt>
      <trkpt lon="78.517516260630259" lat="17.633793517985662">
        <ele>499.714</ele>
        <time>2024-09-25T11:10:21Z</time>
      </trkpt>
      <trkpt lon="78.517516767295788" lat="17.633794518022309">
        <ele>499.782</ele>
        <time>2024-09-25T11:10:21Z</time>
      </trkpt>
      <trkpt lon="78.517517230707483" lat="17.63379533902485">
        <ele>499.834</ele>
        <time>2024-09-25T11:10:21Z</time>
      </trkpt>
      <trkpt lon="78.517517660075583" lat="17.633796022325015">
        <ele>499.871</ele>
        <time>2024-09-25T11:10:21Z</time>
      </trkpt>
      <trkpt lon="78.517518063525216" lat="17.633796603861573">
        <ele>499.896</ele>
        <time>2024-09-25T11:10:21Z</time>
      </trkpt>
      <trkpt lon="78.517518448081333" lat="17.633797114259878">
        <ele>499.911</ele>
        <time>2024-09-25T11:10:21Z</time>
      </trkpt>
      <trkpt lon="78.517518819695596" lat="17.633797579076358">
        <ele>499.918</ele>
        <time>2024-09-25T11:10:21Z</time>
      </trkpt>
      <trkpt lon="78.517519183303961" lat="17.633798019158863">
        <ele>499.919</ele>
        <time>2024-09-25T11:10:21Z</time>
      </trkpt>
      <trkpt lon="78.517519542905234" lat="17.633798451081809">
        <ele>499.915</ele>
        <time>2024-09-25T11:10:21Z</time>
      </trkpt>
      <trkpt lon="78.517519901652932" lat="17.633798887622628">
        <ele>499.907</ele>
        <time>2024-09-25T11:10:21Z</time>
      </trkpt>
      <trkpt lon="78.517520261953891" lat="17.633799338252771">
        <ele>499.897</ele>
        <time>2024-09-25T11:10:21Z</time>
      </trkpt>
      <trkpt lon="78.517520625568466" lat="17.633799809622655">
        <ele>499.886</ele>
        <time>2024-09-25T11:10:21Z</time>
      </trkpt>
      <trkpt lon="78.517520993708573" lat="17.633800306025194">
        <ele>499.874</ele>
        <time>2024-09-25T11:10:21Z</time>
      </trkpt>
      <trkpt lon="78.517521367130598" lat="17.633800829827102">
        <ele>499.862</ele>
        <time>2024-09-25T11:10:21Z</time>
      </trkpt>
      <trkpt lon="78.517521746221277" lat="17.633801381860881">
        <ele>499.85</ele>
        <time>2024-09-25T11:10:21Z</time>
      </trkpt>
      <trkpt lon="78.517522131075268" lat="17.633801961773631">
        <ele>499.839</ele>
        <time>2024-09-25T11:10:21Z</time>
      </trkpt>
      <trkpt lon="78.517522521563777" lat="17.633802568331113">
        <ele>499.829</ele>
        <time>2024-09-25T11:10:21Z</time>
      </trkpt>
      <trkpt lon="78.517522917394047" lat="17.633803199677597">
        <ele>499.82</ele>
        <time>2024-09-25T11:10:21Z</time>
      </trkpt>
      <trkpt lon="78.51752331815986" lat="17.633803853553303">
        <ele>499.811</ele>
        <time>2024-09-25T11:10:21Z</time>
      </trkpt>
      <trkpt lon="78.517523723383619" lat="17.633804527472353">
        <ele>499.804</ele>
        <time>2024-09-25T11:10:21Z</time>
      </trkpt>
      <trkpt lon="78.517524132550449" lat="17.633805218864779">
        <ele>499.799</ele>
        <time>2024-09-25T11:10:21Z</time>
      </trkpt>
      <trkpt lon="78.517524545135331" lat="17.633805925186461">
        <ele>499.794</ele>
        <time>2024-09-25T11:10:21Z</time>
      </trkpt>
      <trkpt lon="78.51752496062376" lat="17.633806644001119">
        <ele>499.79</ele>
        <time>2024-09-25T11:10:21Z</time>
      </trkpt>
      <trkpt lon="78.517525378527068" lat="17.633807373038383">
        <ele>499.787</ele>
        <time>2024-09-25T11:10:21Z</time>
      </trkpt>
      <trkpt lon="78.517525798393038" lat="17.633808110231783">
        <ele>499.784</ele>
        <time>2024-09-25T11:10:21Z</time>
      </trkpt>
      <trkpt lon="78.517526219812581" lat="17.633808853740341">
        <ele>499.782</ele>
        <time>2024-09-25T11:10:21Z</time>
      </trkpt>
      <trkpt lon="78.517526831946341" lat="17.633810152734604">
        <ele>499.366</ele>
        <time>2024-09-25T11:10:22Z</time>
      </trkpt>
      <trkpt lon="78.517527486125331" lat="17.633811710773035">
        <ele>499.015</ele>
        <time>2024-09-25T11:10:22Z</time>
      </trkpt>
      <trkpt lon="78.517528172710186" lat="17.633813478065871">
        <ele>498.726</ele>
        <time>2024-09-25T11:10:22Z</time>
      </trkpt>
      <trkpt lon="78.517528883309183" lat="17.633815409813625">
        <ele>498.493</ele>
        <time>2024-09-25T11:10:22Z</time>
      </trkpt>
      <trkpt lon="78.517529610762509" lat="17.633817466534389">
        <ele>498.311</ele>
        <time>2024-09-25T11:10:22Z</time>
      </trkpt>
      <trkpt lon="78.51753034908765" lat="17.63381961412588">
        <ele>498.174</ele>
        <time>2024-09-25T11:10:22Z</time>
      </trkpt>
      <trkpt lon="78.517531093397366" lat="17.633821823725427">
        <ele>498.075</ele>
        <time>2024-09-25T11:10:22Z</time>
      </trkpt>
      <trkpt lon="78.517531839799716" lat="17.633824071422417">
        <ele>498.009</ele>
        <time>2024-09-25T11:10:22Z</time>
      </trkpt>
      <trkpt lon="78.517532585288194" lat="17.633826337869571">
        <ele>497.969</ele>
        <time>2024-09-25T11:10:22Z</time>
      </trkpt>
      <trkpt lon="78.517533327628215" lat="17.633828607831436">
        <ele>497.951</ele>
        <time>2024-09-25T11:10:22Z</time>
      </trkpt>
      <trkpt lon="78.517534065244661" lat="17.633830869701224">
        <ele>497.949</ele>
        <time>2024-09-25T11:10:22Z</time>
      </trkpt>
      <trkpt lon="78.517534797114195" lat="17.633833115010585">
        <ele>497.961</ele>
        <time>2024-09-25T11:10:22Z</time>
      </trkpt>
      <trkpt lon="78.517535522665042" lat="17.63383533795108">
        <ele>497.981</ele>
        <time>2024-09-25T11:10:22Z</time>
      </trkpt>
      <trkpt lon="78.51753624168559" lat="17.63383753492106">
        <ele>498.008</ele>
        <time>2024-09-25T11:10:22Z</time>
      </trkpt>
      <trkpt lon="78.517536954243141" lat="17.633839704107476">
        <ele>498.039</ele>
        <time>2024-09-25T11:10:22Z</time>
      </trkpt>
      <trkpt lon="78.517537660612859" lat="17.633841845108527">
        <ele>498.071</ele>
        <time>2024-09-25T11:10:22Z</time>
      </trkpt>
      <trkpt lon="78.517538361217092" lat="17.633843958600174">
        <ele>498.104</ele>
        <time>2024-09-25T11:10:22Z</time>
      </trkpt>
      <trkpt lon="78.517539056574421" lat="17.633846046047339">
        <ele>498.135</ele>
        <time>2024-09-25T11:10:22Z</time>
      </trkpt>
      <trkpt lon="78.51753974725797" lat="17.633848109458807">
        <ele>498.165</ele>
        <time>2024-09-25T11:10:22Z</time>
      </trkpt>
      <trkpt lon="78.517540433862123" lat="17.633850151183566">
        <ele>498.192</ele>
        <time>2024-09-25T11:10:22Z</time>
      </trkpt>
      <trkpt lon="78.517541116976574" lat="17.633852173745478">
        <ele>498.217</ele>
        <time>2024-09-25T11:10:22Z</time>
      </trkpt>
      <trkpt lon="78.517541797167056" lat="17.633854179712575">
        <ele>498.239</ele>
        <time>2024-09-25T11:10:22Z</time>
      </trkpt>
      <trkpt lon="78.517542474961559" lat="17.633856171597003">
        <ele>498.257</ele>
        <time>2024-09-25T11:10:22Z</time>
      </trkpt>
      <trkpt lon="78.51754315084132" lat="17.633858151781535">
        <ele>498.273</ele>
        <time>2024-09-25T11:10:22Z</time>
      </trkpt>
      <trkpt lon="78.517543825235592" lat="17.633860122468661">
        <ele>498.286</ele>
        <time>2024-09-25T11:10:22Z</time>
      </trkpt>
      <trkpt lon="78.517544498519527" lat="17.633862085648502">
        <ele>498.297</ele>
        <time>2024-09-25T11:10:22Z</time>
      </trkpt>
      <trkpt lon="78.51754517101449" lat="17.63386404308195">
        <ele>498.305</ele>
        <time>2024-09-25T11:10:22Z</time>
      </trkpt>
      <trkpt lon="78.517545842990145" lat="17.633865996295963">
        <ele>498.311</ele>
        <time>2024-09-25T11:10:22Z</time>
      </trkpt>
      <trkpt lon="78.517546514667799" lat="17.633867946588126">
        <ele>498.316</ele>
        <time>2024-09-25T11:10:22Z</time>
      </trkpt>
      <trkpt lon="78.517547369567453" lat="17.633870487109959">
        <ele>498.145</ele>
        <time>2024-09-25T11:10:23Z</time>
      </trkpt>
      <trkpt lon="78.517548189466936" lat="17.633872974837875">
        <ele>498</ele>
        <time>2024-09-25T11:10:23Z</time>
      </trkpt>
      <trkpt lon="78.517548977174883" lat="17.633875409569754">
        <ele>497.88</ele>
        <time>2024-09-25T11:10:23Z</time>
      </trkpt>
      <trkpt lon="78.517549735926522" lat="17.633877792993744">
        <ele>497.783</ele>
        <time>2024-09-25T11:10:23Z</time>
      </trkpt>
      <trkpt lon="78.517550469166224" lat="17.633880128164268">
        <ele>497.706</ele>
        <time>2024-09-25T11:10:23Z</time>
      </trkpt>
      <trkpt lon="78.517551180376401" lat="17.633882419059592">
        <ele>497.648</ele>
        <time>2024-09-25T11:10:23Z</time>
      </trkpt>
      <trkpt lon="78.517551872947209" lat="17.633884670216226">
        <ele>497.605</ele>
        <time>2024-09-25T11:10:23Z</time>
      </trkpt>
      <trkpt lon="78.517552550081561" lat="17.633886886433949">
        <ele>497.576</ele>
        <time>2024-09-25T11:10:23Z</time>
      </trkpt>
      <trkpt lon="78.517553214729915" lat="17.633889072544306">
        <ele>497.558</ele>
        <time>2024-09-25T11:10:23Z</time>
      </trkpt>
      <trkpt lon="78.517553869550014" lat="17.633891233234991">
        <ele>497.548</ele>
        <time>2024-09-25T11:10:23Z</time>
      </trkpt>
      <trkpt lon="78.517554516886648" lat="17.633893372922454">
        <ele>497.546</ele>
        <time>2024-09-25T11:10:23Z</time>
      </trkpt>
      <trkpt lon="78.517555158767223" lat="17.633895495665318">
        <ele>497.549</ele>
        <time>2024-09-25T11:10:23Z</time>
      </trkpt>
      <trkpt lon="78.517555796909534" lat="17.633897605111493">
        <ele>497.557</ele>
        <time>2024-09-25T11:10:23Z</time>
      </trkpt>
      <trkpt lon="78.517556432738303" lat="17.633899704472615">
        <ele>497.567</ele>
        <time>2024-09-25T11:10:23Z</time>
      </trkpt>
      <trkpt lon="78.51755706740785" lat="17.633901796519915">
        <ele>497.578</ele>
        <time>2024-09-25T11:10:23Z</time>
      </trkpt>
      <trkpt lon="78.517557701828579" lat="17.633903883596385">
        <ele>497.591</ele>
        <time>2024-09-25T11:10:23Z</time>
      </trkpt>
      <trkpt lon="78.517558336695416" lat="17.633905967640846">
        <ele>497.604</ele>
        <time>2024-09-25T11:10:23Z</time>
      </trkpt>
      <trkpt lon="78.517558972516682" lat="17.633908050220104">
        <ele>497.616</ele>
        <time>2024-09-25T11:10:23Z</time>
      </trkpt>
      <trkpt lon="78.517559609642461" lat="17.633910132566129">
        <ele>497.628</ele>
        <time>2024-09-25T11:10:23Z</time>
      </trkpt>
      <trkpt lon="78.517560248291304" lat="17.633912215615702">
        <ele>497.639</ele>
        <time>2024-09-25T11:10:23Z</time>
      </trkpt>
      <trkpt lon="78.517560888575105" lat="17.633914300050549">
        <ele>497.649</ele>
        <time>2024-09-25T11:10:23Z</time>
      </trkpt>
      <trkpt lon="78.517561530521391" lat="17.633916386336455">
        <ele>497.658</ele>
        <time>2024-09-25T11:10:23Z</time>
      </trkpt>
      <trkpt lon="78.517562174093186" lat="17.633918474760254">
        <ele>497.666</ele>
        <time>2024-09-25T11:10:23Z</time>
      </trkpt>
      <trkpt lon="78.517562819206191" lat="17.63392056546391">
        <ele>497.672</ele>
        <time>2024-09-25T11:10:23Z</time>
      </trkpt>
      <trkpt lon="78.517563465743294" lat="17.633922658475271">
        <ele>497.677</ele>
        <time>2024-09-25T11:10:23Z</time>
      </trkpt>
      <trkpt lon="78.517564113566792" lat="17.633924753735176">
        <ele>497.682</ele>
        <time>2024-09-25T11:10:23Z</time>
      </trkpt>
      <trkpt lon="78.517564762528181" lat="17.63392685112095">
        <ele>497.685</ele>
        <time>2024-09-25T11:10:23Z</time>
      </trkpt>
      <trkpt lon="78.517565412476031" lat="17.633928950466274">
        <ele>497.688</ele>
        <time>2024-09-25T11:10:23Z</time>
      </trkpt>
      <trkpt lon="78.517566063261896" lat="17.633931051577736">
        <ele>497.69</ele>
        <time>2024-09-25T11:10:23Z</time>
      </trkpt>
      <trkpt lon="78.517566843684065" lat="17.63393360427154">
        <ele>497.963</ele>
        <time>2024-09-25T11:10:24Z</time>
      </trkpt>
      <trkpt lon="78.517567549989053" lat="17.633935945483767">
        <ele>498.193</ele>
        <time>2024-09-25T11:10:24Z</time>
      </trkpt>
      <trkpt lon="78.517568191834698" lat="17.633938101605771">
        <ele>498.382</ele>
        <time>2024-09-25T11:10:24Z</time>
      </trkpt>
      <trkpt lon="78.517568778739843" lat="17.633940098959769">
        <ele>498.534</ele>
        <time>2024-09-25T11:10:24Z</time>
      </trkpt>
      <trkpt lon="78.517569319787953" lat="17.633941962901712">
        <ele>498.653</ele>
        <time>2024-09-25T11:10:24Z</time>
      </trkpt>
      <trkpt lon="78.517569823418853" lat="17.633943717178589">
        <ele>498.742</ele>
        <time>2024-09-25T11:10:24Z</time>
      </trkpt>
      <trkpt lon="78.517570297294114" lat="17.6339453834998">
        <ele>498.807</ele>
        <time>2024-09-25T11:10:24Z</time>
      </trkpt>
      <trkpt lon="78.517570748222496" lat="17.633946981284847">
        <ele>498.85</ele>
        <time>2024-09-25T11:10:24Z</time>
      </trkpt>
      <trkpt lon="78.51757118213348" lat="17.633948527552647">
        <ele>498.876</ele>
        <time>2024-09-25T11:10:24Z</time>
      </trkpt>
      <trkpt lon="78.517571604087806" lat="17.633950036921469">
        <ele>498.887</ele>
        <time>2024-09-25T11:10:24Z</time>
      </trkpt>
      <trkpt lon="78.517572018315576" lat="17.633951521692257">
        <ele>498.888</ele>
        <time>2024-09-25T11:10:24Z</time>
      </trkpt>
      <trkpt lon="78.517572428273837" lat="17.633952991991922">
        <ele>498.881</ele>
        <time>2024-09-25T11:10:24Z</time>
      </trkpt>
      <trkpt lon="78.517572836716852" lat="17.63395445595685">
        <ele>498.867</ele>
        <time>2024-09-25T11:10:24Z</time>
      </trkpt>
      <trkpt lon="78.517573245773448" lat="17.63395591994038">
        <ele>498.849</ele>
        <time>2024-09-25T11:10:24Z</time>
      </trkpt>
      <trkpt lon="78.517573657027043" lat="17.633957388731105">
        <ele>498.829</ele>
        <time>2024-09-25T11:10:24Z</time>
      </trkpt>
      <trkpt lon="78.517574071594979" lat="17.633958865771802">
        <ele>498.808</ele>
        <time>2024-09-25T11:10:24Z</time>
      </trkpt>
      <trkpt lon="78.517574490204382" lat="17.633960353371169">
        <ele>498.786</ele>
        <time>2024-09-25T11:10:24Z</time>
      </trkpt>
      <trkpt lon="78.517574913263033" lat="17.633961852902846">
        <ele>498.766</ele>
        <time>2024-09-25T11:10:24Z</time>
      </trkpt>
      <trkpt lon="78.517575340923813" lat="17.63396336498791">
        <ele>498.746</ele>
        <time>2024-09-25T11:10:24Z</time>
      </trkpt>
      <trkpt lon="78.517575773142127" lat="17.633964889658571">
        <ele>498.728</ele>
        <time>2024-09-25T11:10:24Z</time>
      </trkpt>
      <trkpt lon="78.517576209726087" lat="17.633966426502024">
        <ele>498.712</ele>
        <time>2024-09-25T11:10:24Z</time>
      </trkpt>
      <trkpt lon="78.517576650379411" lat="17.633967974784337">
        <ele>498.698</ele>
        <time>2024-09-25T11:10:24Z</time>
      </trkpt>
      <trkpt lon="78.517577094737462" lat="17.633969533555003">
        <ele>498.686</ele>
        <time>2024-09-25T11:10:24Z</time>
      </trkpt>
      <trkpt lon="78.517577542396694" lat="17.63397110173327">
        <ele>498.675</ele>
        <time>2024-09-25T11:10:24Z</time>
      </trkpt>
      <trkpt lon="78.517577992938257" lat="17.633972678177727">
        <ele>498.667</ele>
        <time>2024-09-25T11:10:24Z</time>
      </trkpt>
      <trkpt lon="78.517578445946313" lat="17.633974261740882">
        <ele>498.66</ele>
        <time>2024-09-25T11:10:24Z</time>
      </trkpt>
      <trkpt lon="78.51757890102175" lat="17.633975851310517">
        <ele>498.655</ele>
        <time>2024-09-25T11:10:24Z</time>
      </trkpt>
      <trkpt lon="78.517579357791917" lat="17.633977445839626">
        <ele>498.65</ele>
        <time>2024-09-25T11:10:24Z</time>
      </trkpt>
      <trkpt lon="78.517579815917017" lat="17.633979044366725">
        <ele>498.647</ele>
        <time>2024-09-25T11:10:24Z</time>
      </trkpt>
      <trkpt lon="78.517580432779965" lat="17.633981212817879">
        <ele>498.904</ele>
        <time>2024-09-25T11:10:25Z</time>
      </trkpt>
      <trkpt lon="78.51758105437483" lat="17.633983411262605">
        <ele>499.12</ele>
        <time>2024-09-25T11:10:25Z</time>
      </trkpt>
      <trkpt lon="78.517581677443872" lat="17.633985626038715">
        <ele>499.299</ele>
        <time>2024-09-25T11:10:25Z</time>
      </trkpt>
      <trkpt lon="78.517582299480139" lat="17.633987846280256">
        <ele>499.444</ele>
        <time>2024-09-25T11:10:25Z</time>
      </trkpt>
      <trkpt lon="78.517582918629742" lat="17.6339900636065">
        <ele>499.557</ele>
        <time>2024-09-25T11:10:25Z</time>
      </trkpt>
      <trkpt lon="78.517583533595428" lat="17.633992271801162">
        <ele>499.643</ele>
        <time>2024-09-25T11:10:25Z</time>
      </trkpt>
      <trkpt lon="78.51758414354461" lat="17.633994466495448">
        <ele>499.706</ele>
        <time>2024-09-25T11:10:25Z</time>
      </trkpt>
      <trkpt lon="78.517584748023893" lat="17.633996644864943">
        <ele>499.748</ele>
        <time>2024-09-25T11:10:25Z</time>
      </trkpt>
      <trkpt lon="78.517585346881461" lat="17.633998805347503">
        <ele>499.774</ele>
        <time>2024-09-25T11:10:25Z</time>
      </trkpt>
      <trkpt lon="78.517585940198117" lat="17.634000947386756">
        <ele>499.787</ele>
        <time>2024-09-25T11:10:25Z</time>
      </trkpt>
      <trkpt lon="78.517586528227199" lat="17.634003071203821">
        <ele>499.789</ele>
        <time>2024-09-25T11:10:25Z</time>
      </trkpt>
      <trkpt lon="78.517587111343303" lat="17.634005177598219">
        <ele>499.783</ele>
        <time>2024-09-25T11:10:25Z</time>
      </trkpt>
      <trkpt lon="78.517587689999445" lat="17.634007267777708">
        <ele>499.771</ele>
        <time>2024-09-25T11:10:25Z</time>
      </trkpt>
      <trkpt lon="78.51758826469198" lat="17.634009343215848">
        <ele>499.755</ele>
        <time>2024-09-25T11:10:25Z</time>
      </trkpt>
      <trkpt lon="78.517588835932742" lat="17.634011405535382">
        <ele>499.737</ele>
        <time>2024-09-25T11:10:25Z</time>
      </trkpt>
      <trkpt lon="78.517589404227422" lat="17.634013456415161">
        <ele>499.718</ele>
        <time>2024-09-25T11:10:25Z</time>
      </trkpt>
      <trkpt lon="78.517589970059547" lat="17.634015497518011">
        <ele>499.698</ele>
        <time>2024-09-25T11:10:25Z</time>
      </trkpt>
      <trkpt lon="78.517590533879101" lat="17.634017530436946">
        <ele>499.679</ele>
        <time>2024-09-25T11:10:25Z</time>
      </trkpt>
      <trkpt lon="78.517591096095231" lat="17.634019556657019">
        <ele>499.661</ele>
        <time>2024-09-25T11:10:25Z</time>
      </trkpt>
      <trkpt lon="78.517591657072018" lat="17.634021577530337">
        <ele>499.644</ele>
        <time>2024-09-25T11:10:25Z</time>
      </trkpt>
      <trkpt lon="78.517592217126918" lat="17.634023594261826">
        <ele>499.629</ele>
        <time>2024-09-25T11:10:25Z</time>
      </trkpt>
      <trkpt lon="78.517592776531302" lat="17.634025607903613">
        <ele>499.616</ele>
        <time>2024-09-25T11:10:25Z</time>
      </trkpt>
      <trkpt lon="78.517593335512316" lat="17.634027619356118">
        <ele>499.605</ele>
        <time>2024-09-25T11:10:25Z</time>
      </trkpt>
      <trkpt lon="78.517593894255882" lat="17.634029629374119">
        <ele>499.595</ele>
        <time>2024-09-25T11:10:25Z</time>
      </trkpt>
      <trkpt lon="78.517594452910387" lat="17.634031638576396">
        <ele>499.587</ele>
        <time>2024-09-25T11:10:25Z</time>
      </trkpt>
      <trkpt lon="78.517595011590785" lat="17.634033647457731">
        <ele>499.58</ele>
        <time>2024-09-25T11:10:25Z</time>
      </trkpt>
      <trkpt lon="78.517595570382852" lat="17.63403565640224">
        <ele>499.575</ele>
        <time>2024-09-25T11:10:25Z</time>
      </trkpt>
      <trkpt lon="78.517596129347339" lat="17.634037665697281">
        <ele>499.571</ele>
        <time>2024-09-25T11:10:25Z</time>
      </trkpt>
      <trkpt lon="78.517596688524065" lat="17.634039675547303">
        <ele>499.568</ele>
        <time>2024-09-25T11:10:25Z</time>
      </trkpt>
      <trkpt lon="78.517597345412653" lat="17.634042095097115">
        <ele>499.859</ele>
        <time>2024-09-25T11:10:26Z</time>
      </trkpt>
      <trkpt lon="78.517597927004303" lat="17.634044293303759">
        <ele>500.104</ele>
        <time>2024-09-25T11:10:26Z</time>
      </trkpt>
      <trkpt lon="78.517598443688826" lat="17.634046298882367">
        <ele>500.307</ele>
        <time>2024-09-25T11:10:26Z</time>
      </trkpt>
      <trkpt lon="78.517598905552347" lat="17.63404814016863">
        <ele>500.471</ele>
        <time>2024-09-25T11:10:26Z</time>
      </trkpt>
      <trkpt lon="78.517599322101859" lat="17.634049844228155">
        <ele>500.599</ele>
        <time>2024-09-25T11:10:26Z</time>
      </trkpt>
      <trkpt lon="78.517599702077561" lat="17.634051436229161">
        <ele>500.696</ele>
        <time>2024-09-25T11:10:26Z</time>
      </trkpt>
      <trkpt lon="78.517600053338171" lat="17.634052939035527">
        <ele>500.767</ele>
        <time>2024-09-25T11:10:26Z</time>
      </trkpt>
      <trkpt lon="78.517600382804901" lat="17.634054372980046">
        <ele>500.815</ele>
        <time>2024-09-25T11:10:26Z</time>
      </trkpt>
      <trkpt lon="78.517600696451993" lat="17.634055755781404">
        <ele>500.844</ele>
        <time>2024-09-25T11:10:26Z</time>
      </trkpt>
      <trkpt lon="78.517600999332316" lat="17.63405710257236">
        <ele>500.858</ele>
        <time>2024-09-25T11:10:26Z</time>
      </trkpt>
      <trkpt lon="78.517601295628708" lat="17.634058426010839">
        <ele>500.86</ele>
        <time>2024-09-25T11:10:26Z</time>
      </trkpt>
      <trkpt lon="78.517601588722925" lat="17.63405973644959">
        <ele>500.853</ele>
        <time>2024-09-25T11:10:26Z</time>
      </trkpt>
      <trkpt lon="78.517601881275368" lat="17.634061042144143">
        <ele>500.84</ele>
        <time>2024-09-25T11:10:26Z</time>
      </trkpt>
      <trkpt lon="78.51760217531033" lat="17.634062349482406">
        <ele>500.822</ele>
        <time>2024-09-25T11:10:26Z</time>
      </trkpt>
      <trkpt lon="78.517602472302272" lat="17.634063663222602">
        <ele>500.801</ele>
        <time>2024-09-25T11:10:26Z</time>
      </trkpt>
      <trkpt lon="78.517602773259952" lat="17.634064986729214">
        <ele>500.779</ele>
        <time>2024-09-25T11:10:26Z</time>
      </trkpt>
      <trkpt lon="78.517603078806076" lat="17.634066322199274">
        <ele>500.757</ele>
        <time>2024-09-25T11:10:26Z</time>
      </trkpt>
      <trkpt lon="78.517603389250695" lat="17.634067670873449">
        <ele>500.735</ele>
        <time>2024-09-25T11:10:26Z</time>
      </trkpt>
      <trkpt lon="78.517603704657404" lat="17.634069033228418">
        <ele>500.715</ele>
        <time>2024-09-25T11:10:26Z</time>
      </trkpt>
      <trkpt lon="78.517604024901829" lat="17.634070409148375">
        <ele>500.696</ele>
        <time>2024-09-25T11:10:26Z</time>
      </trkpt>
      <trkpt lon="78.517604349722177" lat="17.634071798074938">
        <ele>500.679</ele>
        <time>2024-09-25T11:10:26Z</time>
      </trkpt>
      <trkpt lon="78.517604678762211" lat="17.634073199135482">
        <ele>500.664</ele>
        <time>2024-09-25T11:10:26Z</time>
      </trkpt>
      <trkpt lon="78.517605011606847" lat="17.634074611250796">
        <ele>500.651</ele>
        <time>2024-09-25T11:10:26Z</time>
      </trkpt>
      <trkpt lon="78.517605347811056" lat="17.634076033223444">
        <ele>500.64</ele>
        <time>2024-09-25T11:10:26Z</time>
      </trkpt>
      <trkpt lon="78.517605686922678" lat="17.634077463808438">
        <ele>500.63</ele>
        <time>2024-09-25T11:10:26Z</time>
      </trkpt>
      <trkpt lon="78.517606028499927" lat="17.634078901768191">
        <ele>500.623</ele>
        <time>2024-09-25T11:10:26Z</time>
      </trkpt>
      <trkpt lon="78.517606372124121" lat="17.634080345913677">
        <ele>500.617</ele>
        <time>2024-09-25T11:10:26Z</time>
      </trkpt>
      <trkpt lon="78.517606717408569" lat="17.634081795133756">
        <ele>500.613</ele>
        <time>2024-09-25T11:10:26Z</time>
      </trkpt>
      <trkpt lon="78.517607064004125" lat="17.634083248414601">
        <ele>500.609</ele>
        <time>2024-09-25T11:10:26Z</time>
      </trkpt>
      <trkpt lon="78.517607566198095" lat="17.634085208341489">
        <ele>500.714</ele>
        <time>2024-09-25T11:10:27Z</time>
      </trkpt>
      <trkpt lon="78.517608101930406" lat="17.634087185921167">
        <ele>500.803</ele>
        <time>2024-09-25T11:10:27Z</time>
      </trkpt>
      <trkpt lon="78.517608663451526" lat="17.63408917037437">
        <ele>500.877</ele>
        <time>2024-09-25T11:10:27Z</time>
      </trkpt>
      <trkpt lon="78.517609244024101" lat="17.634091153336804">
        <ele>500.937</ele>
        <time>2024-09-25T11:10:27Z</time>
      </trkpt>
      <trkpt lon="78.517609837907784" lat="17.634093128555115">
        <ele>500.984</ele>
        <time>2024-09-25T11:10:27Z</time>
      </trkpt>
      <trkpt lon="78.517610440313135" lat="17.634095091584367">
        <ele>501.02</ele>
        <time>2024-09-25T11:10:27Z</time>
      </trkpt>
      <trkpt lon="78.517611047333844" lat="17.634097039497217">
        <ele>501.047</ele>
        <time>2024-09-25T11:10:27Z</time>
      </trkpt>
      <trkpt lon="78.517611655864968" lat="17.634098970611962">
        <ele>501.065</ele>
        <time>2024-09-25T11:10:27Z</time>
      </trkpt>
      <trkpt lon="78.517612263513527" lat="17.63410088424429">
        <ele>501.076</ele>
        <time>2024-09-25T11:10:27Z</time>
      </trkpt>
      <trkpt lon="78.517612868506291" lat="17.634102780485509">
        <ele>501.082</ele>
        <time>2024-09-25T11:10:27Z</time>
      </trkpt>
      <trkpt lon="78.5176134695988" lat="17.634104660008415">
        <ele>501.083</ele>
        <time>2024-09-25T11:10:27Z</time>
      </trkpt>
      <trkpt lon="78.517614065988411" lat="17.634106523900787">
        <ele>501.081</ele>
        <time>2024-09-25T11:10:27Z</time>
      </trkpt>
      <trkpt lon="78.517614657233437" lat="17.634108373525446">
        <ele>501.077</ele>
        <time>2024-09-25T11:10:27Z</time>
      </trkpt>
      <trkpt lon="78.517615243179563" lat="17.634110210405208">
        <ele>501.071</ele>
        <time>2024-09-25T11:10:27Z</time>
      </trkpt>
      <trkpt lon="78.517615823894502" lat="17.634112036130617">
        <ele>501.064</ele>
        <time>2024-09-25T11:10:27Z</time>
      </trkpt>
      <trkpt lon="78.517616399610958" lat="17.634113852288028">
        <ele>501.056</ele>
        <time>2024-09-25T11:10:27Z</time>
      </trkpt>
      <trkpt lon="78.517616970677963" lat="17.634115660405541">
        <ele>501.048</ele>
        <time>2024-09-25T11:10:27Z</time>
      </trkpt>
      <trkpt lon="78.517617537520067" lat="17.634117461914286">
        <ele>501.041</ele>
        <time>2024-09-25T11:10:27Z</time>
      </trkpt>
      <trkpt lon="78.517618100604039" lat="17.634119258122588">
        <ele>501.033</ele>
        <time>2024-09-25T11:10:27Z</time>
      </trkpt>
      <trkpt lon="78.517618660412268" lat="17.634121050200758">
        <ele>501.027</ele>
        <time>2024-09-25T11:10:27Z</time>
      </trkpt>
      <trkpt lon="78.517619217422123" lat="17.634122839174434">
        <ele>501.021</ele>
        <time>2024-09-25T11:10:27Z</time>
      </trkpt>
      <trkpt lon="78.517619772090669" lat="17.634124625924567">
        <ele>501.015</ele>
        <time>2024-09-25T11:10:27Z</time>
      </trkpt>
      <trkpt lon="78.517620324843719" lat="17.634126411192462">
        <ele>501.01</ele>
        <time>2024-09-25T11:10:27Z</time>
      </trkpt>
      <trkpt lon="78.517620876068833" lat="17.634128195588396">
        <ele>501.006</ele>
        <time>2024-09-25T11:10:27Z</time>
      </trkpt>
      <trkpt lon="78.517621426111177" lat="17.634129979602694">
        <ele>501.003</ele>
        <time>2024-09-25T11:10:27Z</time>
      </trkpt>
      <trkpt lon="78.517621975272036" lat="17.634131763618214">
        <ele>501</ele>
        <time>2024-09-25T11:10:27Z</time>
      </trkpt>
      <trkpt lon="78.517622523809123" lat="17.634133547923533">
        <ele>500.998</ele>
        <time>2024-09-25T11:10:27Z</time>
      </trkpt>
      <trkpt lon="78.517623071938402" lat="17.634135332726103">
        <ele>500.997</ele>
        <time>2024-09-25T11:10:27Z</time>
      </trkpt>
      <trkpt lon="78.517623619836812" lat="17.634137118165054">
        <ele>500.995</ele>
        <time>2024-09-25T11:10:27Z</time>
      </trkpt>
      <trkpt lon="78.517624373555307" lat="17.63413940893734">
        <ele>500.801</ele>
        <time>2024-09-25T11:10:28Z</time>
      </trkpt>
      <trkpt lon="78.51762514622115" lat="17.634141622221829">
        <ele>500.638</ele>
        <time>2024-09-25T11:10:28Z</time>
      </trkpt>
      <trkpt lon="78.517625931792253" lat="17.634143762614503">
        <ele>500.504</ele>
        <time>2024-09-25T11:10:28Z</time>
      </trkpt>
      <trkpt lon="78.517626725265799" lat="17.634145836111347">
        <ele>500.396</ele>
        <time>2024-09-25T11:10:28Z</time>
      </trkpt>
      <trkpt lon="78.517627522596129" lat="17.634147849555458">
        <ele>500.311</ele>
        <time>2024-09-25T11:10:28Z</time>
      </trkpt>
      <trkpt lon="78.517628320599655" lat="17.634149810190838">
        <ele>500.248</ele>
        <time>2024-09-25T11:10:28Z</time>
      </trkpt>
      <trkpt lon="78.517629116853129" lat="17.634151725312126">
        <ele>500.202</ele>
        <time>2024-09-25T11:10:28Z</time>
      </trkpt>
      <trkpt lon="78.517629909590653" lat="17.63415360199879">
        <ele>500.171</ele>
        <time>2024-09-25T11:10:28Z</time>
      </trkpt>
      <trkpt lon="78.517630697603167" lat="17.634155446922247">
        <ele>500.153</ele>
        <time>2024-09-25T11:10:28Z</time>
      </trkpt>
      <trkpt lon="78.517631480143365" lat="17.634157266214611">
        <ele>500.144</ele>
        <time>2024-09-25T11:10:28Z</time>
      </trkpt>
      <trkpt lon="78.517632256837985" lat="17.63415906538852">
        <ele>500.144</ele>
        <time>2024-09-25T11:10:28Z</time>
      </trkpt>
      <trkpt lon="78.517633027608625" lat="17.634160849298169">
        <ele>500.149</ele>
        <time>2024-09-25T11:10:28Z</time>
      </trkpt>
      <trkpt lon="78.517633792601941" lat="17.634162622132845">
        <ele>500.159</ele>
        <time>2024-09-25T11:10:28Z</time>
      </trkpt>
      <trkpt lon="78.517634552129124" lat="17.634164387435121">
        <ele>500.171</ele>
        <time>2024-09-25T11:10:28Z</time>
      </trkpt>
      <trkpt lon="78.517635306614608" lat="17.63416614813703">
        <ele>500.186</ele>
        <time>2024-09-25T11:10:28Z</time>
      </trkpt>
      <trkpt lon="78.517636056553386" lat="17.63416790660856">
        <ele>500.201</ele>
        <time>2024-09-25T11:10:28Z</time>
      </trkpt>
      <trkpt lon="78.517636802476531" lat="17.634169664713699">
        <ele>500.216</ele>
        <time>2024-09-25T11:10:28Z</time>
      </trkpt>
      <trkpt lon="78.517637544923815" lat="17.634171423870271">
        <ele>500.23</ele>
        <time>2024-09-25T11:10:28Z</time>
      </trkpt>
      <trkpt lon="78.517638284422844" lat="17.634173185110548">
        <ele>500.244</ele>
        <time>2024-09-25T11:10:28Z</time>
      </trkpt>
      <trkpt lon="78.517639021473727" lat="17.634174949140295">
        <ele>500.257</ele>
        <time>2024-09-25T11:10:28Z</time>
      </trkpt>
      <trkpt lon="78.517639756538486" lat="17.634176716394663">
        <ele>500.269</ele>
        <time>2024-09-25T11:10:28Z</time>
      </trkpt>
      <trkpt lon="78.517640490034367" lat="17.634178487089681">
        <ele>500.279</ele>
        <time>2024-09-25T11:10:28Z</time>
      </trkpt>
      <trkpt lon="78.517641222330369" lat="17.634180261268714">
        <ele>500.287</ele>
        <time>2024-09-25T11:10:28Z</time>
      </trkpt>
      <trkpt lon="78.517641953746349" lat="17.634182038843445">
        <ele>500.295</ele>
        <time>2024-09-25T11:10:28Z</time>
      </trkpt>
      <trkpt lon="78.517642684553948" lat="17.634183819629378">
        <ele>500.301</ele>
        <time>2024-09-25T11:10:28Z</time>
      </trkpt>
      <trkpt lon="78.517643414979105" lat="17.634185603375908">
        <ele>500.306</ele>
        <time>2024-09-25T11:10:28Z</time>
      </trkpt>
      <trkpt lon="78.517644145205381" lat="17.634187389791308">
        <ele>500.309</ele>
        <time>2024-09-25T11:10:28Z</time>
      </trkpt>
      <trkpt lon="78.517644875378053" lat="17.634189178562984">
        <ele>500.312</ele>
        <time>2024-09-25T11:10:28Z</time>
      </trkpt>
      <trkpt lon="78.517645605608507" lat="17.634190969373471">
        <ele>500.315</ele>
        <time>2024-09-25T11:10:28Z</time>
      </trkpt>
      <trkpt lon="78.517646515576047" lat="17.634193278699751">
        <ele>500.543</ele>
        <time>2024-09-25T11:10:29Z</time>
      </trkpt>
      <trkpt lon="78.517647371180161" lat="17.634195520351202">
        <ele>500.736</ele>
        <time>2024-09-25T11:10:29Z</time>
      </trkpt>
      <trkpt lon="78.517648178293385" lat="17.634197697027773">
        <ele>500.894</ele>
        <time>2024-09-25T11:10:29Z</time>
      </trkpt>
      <trkpt lon="78.517648943026614" lat="17.634199813021247">
        <ele>501.022</ele>
        <time>2024-09-25T11:10:29Z</time>
      </trkpt>
      <trkpt lon="78.517649671458102" lat="17.634201873674296">
        <ele>501.121</ele>
        <time>2024-09-25T11:10:29Z</time>
      </trkpt>
      <trkpt lon="78.517650369430498" lat="17.634203884936227">
        <ele>501.196</ele>
        <time>2024-09-25T11:10:29Z</time>
      </trkpt>
      <trkpt lon="78.517651042405873" lat="17.634205853007032">
        <ele>501.249</ele>
        <time>2024-09-25T11:10:29Z</time>
      </trkpt>
      <trkpt lon="78.51765169536975" lat="17.634207784060344">
        <ele>501.286</ele>
        <time>2024-09-25T11:10:29Z</time>
      </trkpt>
      <trkpt lon="78.51765233277527" lat="17.634209684035522">
        <ele>501.307</ele>
        <time>2024-09-25T11:10:29Z</time>
      </trkpt>
      <trkpt lon="78.517652958519619" lat="17.634211558489064">
        <ele>501.317</ele>
        <time>2024-09-25T11:10:29Z</time>
      </trkpt>
      <trkpt lon="78.517653575945516" lat="17.634213412495885">
        <ele>501.317</ele>
        <time>2024-09-25T11:10:29Z</time>
      </trkpt>
      <trkpt lon="78.517654187861652" lat="17.634215250591634">
        <ele>501.31</ele>
        <time>2024-09-25T11:10:29Z</time>
      </trkpt>
      <trkpt lon="78.517654796576636" lat="17.63421707674792">
        <ele>501.299</ele>
        <time>2024-09-25T11:10:29Z</time>
      </trkpt>
      <trkpt lon="78.517655403941873" lat="17.634218894373255">
        <ele>501.284</ele>
        <time>2024-09-25T11:10:29Z</time>
      </trkpt>
      <trkpt lon="78.517656011399865" lat="17.634220706333302">
        <ele>501.267</ele>
        <time>2024-09-25T11:10:29Z</time>
      </trkpt>
      <trkpt lon="78.517656620034799" lat="17.634222514984991">
        <ele>501.249</ele>
        <time>2024-09-25T11:10:29Z</time>
      </trkpt>
      <trkpt lon="78.517657230623044" lat="17.634224322219907">
        <ele>501.231</ele>
        <time>2024-09-25T11:10:29Z</time>
      </trkpt>
      <trkpt lon="78.517657843682017" lat="17.634226129513159">
        <ele>501.214</ele>
        <time>2024-09-25T11:10:29Z</time>
      </trkpt>
      <trkpt lon="78.517658459515943" lat="17.634227937974686">
        <ele>501.197</ele>
        <time>2024-09-25T11:10:29Z</time>
      </trkpt>
      <trkpt lon="78.517659078257779" lat="17.6342297484006">
        <ele>501.182</ele>
        <time>2024-09-25T11:10:29Z</time>
      </trkpt>
      <trkpt lon="78.517659699906773" lat="17.634231561322803">
        <ele>501.169</ele>
        <time>2024-09-25T11:10:29Z</time>
      </trkpt>
      <trkpt lon="78.517660324361387" lat="17.634233377055555">
        <ele>501.157</ele>
        <time>2024-09-25T11:10:29Z</time>
      </trkpt>
      <trkpt lon="78.517660951447638" lat="17.634235195738142">
        <ele>501.146</ele>
        <time>2024-09-25T11:10:29Z</time>
      </trkpt>
      <trkpt lon="78.517661580942971" lat="17.63423701737312">
        <ele>501.138</ele>
        <time>2024-09-25T11:10:29Z</time>
      </trkpt>
      <trkpt lon="78.517662212596008" lat="17.634238841859879">
        <ele>501.131</ele>
        <time>2024-09-25T11:10:29Z</time>
      </trkpt>
      <trkpt lon="78.517662846142258" lat="17.634240669023537">
        <ele>501.125</ele>
        <time>2024-09-25T11:10:29Z</time>
      </trkpt>
      <trkpt lon="78.517663481316646" lat="17.634242498639303">
        <ele>501.12</ele>
        <time>2024-09-25T11:10:29Z</time>
      </trkpt>
      <trkpt lon="78.517664117862765" lat="17.63424433045256">
        <ele>501.117</ele>
        <time>2024-09-25T11:10:29Z</time>
      </trkpt>
      <trkpt lon="78.517664755539727" lat="17.634246164195066">
        <ele>501.114</ele>
        <time>2024-09-25T11:10:29Z</time>
      </trkpt>
      <trkpt lon="78.517665591515154" lat="17.634248497095324">
        <ele>500.848</ele>
        <time>2024-09-25T11:10:30Z</time>
      </trkpt>
      <trkpt lon="78.517666414947485" lat="17.634250733856941">
        <ele>500.624</ele>
        <time>2024-09-25T11:10:30Z</time>
      </trkpt>
      <trkpt lon="78.517667224730545" lat="17.634252881972305">
        <ele>500.44</ele>
        <time>2024-09-25T11:10:30Z</time>
      </trkpt>
      <trkpt lon="78.51766802050453" lat="17.634254950167897">
        <ele>500.292</ele>
        <time>2024-09-25T11:10:30Z</time>
      </trkpt>
      <trkpt lon="78.517668802484721" lat="17.634256947797407">
        <ele>500.177</ele>
        <time>2024-09-25T11:10:30Z</time>
      </trkpt>
      <trkpt lon="78.517669571312481" lat="17.634258884362488">
        <ele>500.09</ele>
        <time>2024-09-25T11:10:30Z</time>
      </trkpt>
      <trkpt lon="78.517670327927988" lat="17.634260769146334">
        <ele>500.027</ele>
        <time>2024-09-25T11:10:30Z</time>
      </trkpt>
      <trkpt lon="78.517671073464143" lat="17.634262610945079">
        <ele>499.985</ele>
        <time>2024-09-25T11:10:30Z</time>
      </trkpt>
      <trkpt lon="78.517671809159694" lat="17.634264417882214">
        <ele>499.96</ele>
        <time>2024-09-25T11:10:30Z</time>
      </trkpt>
      <trkpt lon="78.517672536290178" lat="17.634266197292064">
        <ele>499.949</ele>
        <time>2024-09-25T11:10:30Z</time>
      </trkpt>
      <trkpt lon="78.517673256114577" lat="17.63426795565935">
        <ele>499.949</ele>
        <time>2024-09-25T11:10:30Z</time>
      </trkpt>
      <trkpt lon="78.517673969835656" lat="17.634269698603148">
        <ele>499.956</ele>
        <time>2024-09-25T11:10:30Z</time>
      </trkpt>
      <trkpt lon="78.517674678572064" lat="17.634271430894842">
        <ele>499.97</ele>
        <time>2024-09-25T11:10:30Z</time>
      </trkpt>
      <trkpt lon="78.517675383340134" lat="17.634273156501116">
        <ele>499.987</ele>
        <time>2024-09-25T11:10:30Z</time>
      </trkpt>
      <trkpt lon="78.517676085043846" lat="17.634274878644298">
        <ele>500.007</ele>
        <time>2024-09-25T11:10:30Z</time>
      </trkpt>
      <trkpt lon="78.517676784471035" lat="17.634276599873697">
        <ele>500.028</ele>
        <time>2024-09-25T11:10:30Z</time>
      </trkpt>
      <trkpt lon="78.517677482294644" lat="17.634278322142755">
        <ele>500.049</ele>
        <time>2024-09-25T11:10:30Z</time>
      </trkpt>
      <trkpt lon="78.517678179077663" lat="17.634280046887906">
        <ele>500.069</ele>
        <time>2024-09-25T11:10:30Z</time>
      </trkpt>
      <trkpt lon="78.517678875280581" lat="17.634281775105951">
        <ele>500.088</ele>
        <time>2024-09-25T11:10:30Z</time>
      </trkpt>
      <trkpt lon="78.517679571270691" lat="17.6342835074277">
        <ele>500.106</ele>
        <time>2024-09-25T11:10:30Z</time>
      </trkpt>
      <trkpt lon="78.517680267332267" lat="17.634285244186142">
        <ele>500.121</ele>
        <time>2024-09-25T11:10:30Z</time>
      </trkpt>
      <trkpt lon="78.51768096367708" lat="17.634286985478209">
        <ele>500.135</ele>
        <time>2024-09-25T11:10:30Z</time>
      </trkpt>
      <trkpt lon="78.517681660454983" lat="17.63428873121952">
        <ele>500.147</ele>
        <time>2024-09-25T11:10:30Z</time>
      </trkpt>
      <trkpt lon="78.517682357763846" lat="17.634290481191947">
        <ele>500.157</ele>
        <time>2024-09-25T11:10:30Z</time>
      </trkpt>
      <trkpt lon="78.517683055659035" lat="17.634292235084125">
        <ele>500.166</ele>
        <time>2024-09-25T11:10:30Z</time>
      </trkpt>
      <trkpt lon="78.517683754161908" lat="17.634293992525208">
        <ele>500.172</ele>
        <time>2024-09-25T11:10:30Z</time>
      </trkpt>
      <trkpt lon="78.517684453267478" lat="17.634295753112401">
        <ele>500.178</ele>
        <time>2024-09-25T11:10:30Z</time>
      </trkpt>
      <trkpt lon="78.517685152951032" lat="17.634297516432806">
        <ele>500.182</ele>
        <time>2024-09-25T11:10:30Z</time>
      </trkpt>
      <trkpt lon="78.517685853173887" lat="17.634299282080253">
        <ele>500.185</ele>
        <time>2024-09-25T11:10:30Z</time>
      </trkpt>
      <trkpt lon="78.517686795473708" lat="17.634301663838187">
        <ele>499.925</ele>
        <time>2024-09-25T11:10:31Z</time>
      </trkpt>
      <trkpt lon="78.517687744411134" lat="17.634304067250273">
        <ele>499.706</ele>
        <time>2024-09-25T11:10:31Z</time>
      </trkpt>
      <trkpt lon="78.517688695263374" lat="17.634306479446668">
        <ele>499.525</ele>
        <time>2024-09-25T11:10:31Z</time>
      </trkpt>
      <trkpt lon="78.517689644403831" lat="17.634308890420805">
        <ele>499.379</ele>
        <time>2024-09-25T11:10:31Z</time>
      </trkpt>
      <trkpt lon="78.517690589158164" lat="17.634311292672031">
        <ele>499.265</ele>
        <time>2024-09-25T11:10:31Z</time>
      </trkpt>
      <trkpt lon="78.51769152766272" lat="17.634313680849171">
        <ele>499.178</ele>
        <time>2024-09-25T11:10:31Z</time>
      </trkpt>
      <trkpt lon="78.517692458729726" lat="17.634316051407215">
        <ele>499.115</ele>
        <time>2024-09-25T11:10:31Z</time>
      </trkpt>
      <trkpt lon="78.517693381722083" lat="17.634318402285757">
        <ele>499.072</ele>
        <time>2024-09-25T11:10:31Z</time>
      </trkpt>
      <trkpt lon="78.517694296439998" lat="17.634320732615095">
        <ele>499.046</ele>
        <time>2024-09-25T11:10:31Z</time>
      </trkpt>
      <trkpt lon="78.51769520302021" lat="17.634323042453282">
        <ele>499.033</ele>
        <time>2024-09-25T11:10:31Z</time>
      </trkpt>
      <trkpt lon="78.517696101848401" lat="17.634325332555715">
        <ele>499.031</ele>
        <time>2024-09-25T11:10:31Z</time>
      </trkpt>
      <trkpt lon="78.51769699348452" lat="17.634327604177233">
        <ele>499.037</ele>
        <time>2024-09-25T11:10:31Z</time>
      </trkpt>
      <trkpt lon="78.517697878600472" lat="17.634329858905577">
        <ele>499.049</ele>
        <time>2024-09-25T11:10:31Z</time>
      </trkpt>
      <trkpt lon="78.517698757929168" lat="17.634332098524286">
        <ele>499.065</ele>
        <time>2024-09-25T11:10:31Z</time>
      </trkpt>
      <trkpt lon="78.517699632224051" lat="17.634334324902568">
        <ele>499.083</ele>
        <time>2024-09-25T11:10:31Z</time>
      </trkpt>
      <trkpt lon="78.517700502227939" lat="17.634336539909295">
        <ele>499.103</ele>
        <time>2024-09-25T11:10:31Z</time>
      </trkpt>
      <trkpt lon="78.517701368649782" lat="17.634338745348163">
        <ele>499.122</ele>
        <time>2024-09-25T11:10:31Z</time>
      </trkpt>
      <trkpt lon="78.517702232148409" lat="17.634340942911113">
        <ele>499.142</ele>
        <time>2024-09-25T11:10:31Z</time>
      </trkpt>
      <trkpt lon="78.517703093321956" lat="17.63434313414708">
        <ele>499.16</ele>
        <time>2024-09-25T11:10:31Z</time>
      </trkpt>
      <trkpt lon="78.517703952702064" lat="17.634345320443405">
        <ele>499.177</ele>
        <time>2024-09-25T11:10:31Z</time>
      </trkpt>
      <trkpt lon="78.517704810751781" lat="17.634347503017434">
        <ele>499.192</ele>
        <time>2024-09-25T11:10:31Z</time>
      </trkpt>
      <trkpt lon="78.517705667866352" lat="17.634349682916103">
        <ele>499.205</ele>
        <time>2024-09-25T11:10:31Z</time>
      </trkpt>
      <trkpt lon="78.517706524376209" lat="17.634351861021504">
        <ele>499.217</ele>
        <time>2024-09-25T11:10:31Z</time>
      </trkpt>
      <trkpt lon="78.517707380551428" lat="17.634354038060867">
        <ele>499.227</ele>
        <time>2024-09-25T11:10:31Z</time>
      </trkpt>
      <trkpt lon="78.51770823660722" lat="17.634356214619402">
        <ele>499.235</ele>
        <time>2024-09-25T11:10:31Z</time>
      </trkpt>
      <trkpt lon="78.517709092709993" lat="17.634358391154947">
        <ele>499.242</ele>
        <time>2024-09-25T11:10:31Z</time>
      </trkpt>
      <trkpt lon="78.517709948983494" lat="17.634360568013435">
        <ele>499.247</ele>
        <time>2024-09-25T11:10:31Z</time>
      </trkpt>
      <trkpt lon="78.517710805515122" lat="17.634362745444413">
        <ele>499.251</ele>
        <time>2024-09-25T11:10:31Z</time>
      </trkpt>
      <trkpt lon="78.517711662361791" lat="17.634364923616108">
        <ele>499.254</ele>
        <time>2024-09-25T11:10:31Z</time>
      </trkpt>
      <trkpt lon="78.517712737731557" lat="17.634367699383422">
        <ele>499.099</ele>
        <time>2024-09-25T11:10:32Z</time>
      </trkpt>
      <trkpt lon="78.517713755735159" lat="17.634370364762731">
        <ele>498.968</ele>
        <time>2024-09-25T11:10:32Z</time>
      </trkpt>
      <trkpt lon="78.517714722113865" lat="17.634372928139847">
        <ele>498.86</ele>
        <time>2024-09-25T11:10:32Z</time>
      </trkpt>
      <trkpt lon="78.517715642988406" lat="17.634375399378566">
        <ele>498.772</ele>
        <time>2024-09-25T11:10:32Z</time>
      </trkpt>
      <trkpt lon="78.517716524553009" lat="17.634377789114236">
        <ele>498.703</ele>
        <time>2024-09-25T11:10:32Z</time>
      </trkpt>
      <trkpt lon="78.517717372842142" lat="17.634380108194474">
        <ele>498.651</ele>
        <time>2024-09-25T11:10:32Z</time>
      </trkpt>
      <trkpt lon="78.517718193560356" lat="17.634382367250179">
        <ele>498.613</ele>
        <time>2024-09-25T11:10:32Z</time>
      </trkpt>
      <trkpt lon="78.51771899196531" lat="17.634384576379681">
        <ele>498.587</ele>
        <time>2024-09-25T11:10:32Z</time>
      </trkpt>
      <trkpt lon="78.517719772795218" lat="17.634386744929149">
        <ele>498.571</ele>
        <time>2024-09-25T11:10:32Z</time>
      </trkpt>
      <trkpt lon="78.517720540232204" lat="17.634388881353168">
        <ele>498.563</ele>
        <time>2024-09-25T11:10:32Z</time>
      </trkpt>
      <trkpt lon="78.517721297893942" lat="17.634390993140627">
        <ele>498.561</ele>
        <time>2024-09-25T11:10:32Z</time>
      </trkpt>
      <trkpt lon="78.517722048846949" lat="17.634393086792368">
        <ele>498.565</ele>
        <time>2024-09-25T11:10:32Z</time>
      </trkpt>
      <trkpt lon="78.517722795635848" lat="17.634395167838665">
        <ele>498.571</ele>
        <time>2024-09-25T11:10:32Z</time>
      </trkpt>
      <trkpt lon="78.517723540323388" lat="17.634397240886099">
        <ele>498.581</ele>
        <time>2024-09-25T11:10:32Z</time>
      </trkpt>
      <trkpt lon="78.517724284537479" lat="17.634399309684976">
        <ele>498.592</ele>
        <time>2024-09-25T11:10:32Z</time>
      </trkpt>
      <trkpt lon="78.517725029521756" lat="17.63440137720988">
        <ele>498.603</ele>
        <time>2024-09-25T11:10:32Z</time>
      </trkpt>
      <trkpt lon="78.517725776186893" lat="17.634403445747342">
        <ele>498.615</ele>
        <time>2024-09-25T11:10:32Z</time>
      </trkpt>
      <trkpt lon="78.517726525161009" lat="17.634405516985826">
        <ele>498.626</ele>
        <time>2024-09-25T11:10:32Z</time>
      </trkpt>
      <trkpt lon="78.517727276837405" lat="17.63440759210431">
        <ele>498.637</ele>
        <time>2024-09-25T11:10:32Z</time>
      </trkpt>
      <trkpt lon="78.517728031418713" lat="17.634409671856787">
        <ele>498.647</ele>
        <time>2024-09-25T11:10:32Z</time>
      </trkpt>
      <trkpt lon="78.517728788956774" lat="17.634411756650689">
        <ele>498.656</ele>
        <time>2024-09-25T11:10:32Z</time>
      </trkpt>
      <trkpt lon="78.517729549388022" lat="17.63441384661806">
        <ele>498.664</ele>
        <time>2024-09-25T11:10:32Z</time>
      </trkpt>
      <trkpt lon="78.517730312564041" lat="17.634415941678768">
        <ele>498.671</ele>
        <time>2024-09-25T11:10:32Z</time>
      </trkpt>
      <trkpt lon="78.51773107827762" lat="17.63441804159552">
        <ele>498.677</ele>
        <time>2024-09-25T11:10:32Z</time>
      </trkpt>
      <trkpt lon="78.517731846284448" lat="17.634420146020801">
        <ele>498.682</ele>
        <time>2024-09-25T11:10:32Z</time>
      </trkpt>
      <trkpt lon="78.5177326163207" lat="17.634422254536073">
        <ele>498.686</ele>
        <time>2024-09-25T11:10:32Z</time>
      </trkpt>
      <trkpt lon="78.517733388117037" lat="17.634424366683785">
        <ele>498.689</ele>
        <time>2024-09-25T11:10:32Z</time>
      </trkpt>
      <trkpt lon="78.517734161409294" lat="17.634426481992879">
        <ele>498.691</ele>
        <time>2024-09-25T11:10:32Z</time>
      </trkpt>
      <trkpt lon="78.517734935946379" lat="17.634428599998479">
        <ele>498.693</ele>
        <time>2024-09-25T11:10:32Z</time>
      </trkpt>
      <trkpt lon="78.517735881448431" lat="17.634431261014889">
        <ele>498.532</ele>
        <time>2024-09-25T11:10:33Z</time>
      </trkpt>
      <trkpt lon="78.517736752798015" lat="17.634433782822391">
        <ele>498.395</ele>
        <time>2024-09-25T11:10:33Z</time>
      </trkpt>
      <trkpt lon="78.517737559000253" lat="17.634436178965508">
        <ele>498.283</ele>
        <time>2024-09-25T11:10:33Z</time>
      </trkpt>
      <trkpt lon="78.517738309105837" lat="17.634438464018519">
        <ele>498.192</ele>
        <time>2024-09-25T11:10:33Z</time>
      </trkpt>
      <trkpt lon="78.51773901188551" lat="17.634440652825784">
        <ele>498.12</ele>
        <time>2024-09-25T11:10:33Z</time>
      </trkpt>
      <trkpt lon="78.517739675594399" lat="17.634442759919743">
        <ele>498.066</ele>
        <time>2024-09-25T11:10:33Z</time>
      </trkpt>
      <trkpt lon="78.517740307812204" lat="17.634444799092993">
        <ele>498.027</ele>
        <time>2024-09-25T11:10:33Z</time>
      </trkpt>
      <trkpt lon="78.517740915346309" lat="17.634446783101428">
        <ele>498</ele>
        <time>2024-09-25T11:10:33Z</time>
      </trkpt>
      <trkpt lon="78.517741504185423" lat="17.634448723476464">
        <ele>497.984</ele>
        <time>2024-09-25T11:10:33Z</time>
      </trkpt>
      <trkpt lon="78.517742079493232" lat="17.634450630426006">
        <ele>497.976</ele>
        <time>2024-09-25T11:10:33Z</time>
      </trkpt>
      <trkpt lon="78.517742645632111" lat="17.634452512805762">
        <ele>497.975</ele>
        <time>2024-09-25T11:10:33Z</time>
      </trkpt>
      <trkpt lon="78.51774320620892" lat="17.634454378144586">
        <ele>497.978</ele>
        <time>2024-09-25T11:10:33Z</time>
      </trkpt>
      <trkpt lon="78.517743764135716" lat="17.63445623270967">
        <ele>497.986</ele>
        <time>2024-09-25T11:10:33Z</time>
      </trkpt>
      <trkpt lon="78.517744321699709" lat="17.634458081599476">
        <ele>497.996</ele>
        <time>2024-09-25T11:10:33Z</time>
      </trkpt>
      <trkpt lon="78.517744880637622" lat="17.634459928854401">
        <ele>498.007</ele>
        <time>2024-09-25T11:10:33Z</time>
      </trkpt>
      <trkpt lon="78.517745442210895" lat="17.634461777576938">
        <ele>498.02</ele>
        <time>2024-09-25T11:10:33Z</time>
      </trkpt>
      <trkpt lon="78.51774600727893" lat="17.634463630054825">
        <ele>498.032</ele>
        <time>2024-09-25T11:10:33Z</time>
      </trkpt>
      <trkpt lon="78.517746576368154" lat="17.634465487882174">
        <ele>498.044</ele>
        <time>2024-09-25T11:10:33Z</time>
      </trkpt>
      <trkpt lon="78.517747149735769" lat="17.634467352074871">
        <ele>498.055</ele>
        <time>2024-09-25T11:10:33Z</time>
      </trkpt>
      <trkpt lon="78.517747727427064" lat="17.634469223177646">
        <ele>498.066</ele>
        <time>2024-09-25T11:10:33Z</time>
      </trkpt>
      <trkpt lon="78.517748309326009" lat="17.634471101361147">
        <ele>498.075</ele>
        <time>2024-09-25T11:10:33Z</time>
      </trkpt>
      <trkpt lon="78.51774889519902" lat="17.634472986508097">
        <ele>498.084</ele>
        <time>2024-09-25T11:10:33Z</time>
      </trkpt>
      <trkpt lon="78.517749484732022" lat="17.634474878288259">
        <ele>498.091</ele>
        <time>2024-09-25T11:10:33Z</time>
      </trkpt>
      <trkpt lon="78.517750077561132" lat="17.634476776222332">
        <ele>498.097</ele>
        <time>2024-09-25T11:10:33Z</time>
      </trkpt>
      <trkpt lon="78.517750673297584" lat="17.634478679735295">
        <ele>498.102</ele>
        <time>2024-09-25T11:10:33Z</time>
      </trkpt>
      <trkpt lon="78.517751271547326" lat="17.634480588199935">
        <ele>498.106</ele>
        <time>2024-09-25T11:10:33Z</time>
      </trkpt>
      <trkpt lon="78.51775187192608" lat="17.634482500971483">
        <ele>498.11</ele>
        <time>2024-09-25T11:10:33Z</time>
      </trkpt>
      <trkpt lon="78.517752474070207" lat="17.634484417414328">
        <ele>498.112</ele>
        <time>2024-09-25T11:10:33Z</time>
      </trkpt>
      <trkpt lon="78.517753077644272" lat="17.634486336921835">
        <ele>498.114</ele>
        <time>2024-09-25T11:10:33Z</time>
      </trkpt>
      <trkpt lon="78.51775385875942" lat="17.634488814389805">
        <ele>497.892</ele>
        <time>2024-09-25T11:10:34Z</time>
      </trkpt>
      <trkpt lon="78.517754619448681" lat="17.634491221182856">
        <ele>497.706</ele>
        <time>2024-09-25T11:10:34Z</time>
      </trkpt>
      <trkpt lon="78.517755360132426" lat="17.63449355978533">
        <ele>497.551</ele>
        <time>2024-09-25T11:10:34Z</time>
      </trkpt>
      <trkpt lon="78.517756081822299" lat="17.634495834438166">
        <ele>497.427</ele>
        <time>2024-09-25T11:10:34Z</time>
      </trkpt>
      <trkpt lon="78.517756785940534" lat="17.634498050559156">
        <ele>497.329</ele>
        <time>2024-09-25T11:10:34Z</time>
      </trkpt>
      <trkpt lon="78.5177574741695" lat="17.634500214265064">
        <ele>497.255</ele>
        <time>2024-09-25T11:10:34Z</time>
      </trkpt>
      <trkpt lon="78.517758148329193" lat="17.634502331987129">
        <ele>497.202</ele>
        <time>2024-09-25T11:10:34Z</time>
      </trkpt>
      <trkpt lon="78.517758810280156" lat="17.634504410170297">
        <ele>497.165</ele>
        <time>2024-09-25T11:10:34Z</time>
      </trkpt>
      <trkpt lon="78.517759461848911" lat="17.634506455046008">
        <ele>497.143</ele>
        <time>2024-09-25T11:10:34Z</time>
      </trkpt>
      <trkpt lon="78.517760104772861" lat="17.634508472468362">
        <ele>497.132</ele>
        <time>2024-09-25T11:10:34Z</time>
      </trkpt>
      <trkpt lon="78.517760740661942" lat="17.634510467803693">
        <ele>497.131</ele>
        <time>2024-09-25T11:10:34Z</time>
      </trkpt>
      <trkpt lon="78.517761370974043" lat="17.634512445864292">
        <ele>497.136</ele>
        <time>2024-09-25T11:10:34Z</time>
      </trkpt>
      <trkpt lon="78.517761997001841" lat="17.634514410877674">
        <ele>497.147</ele>
        <time>2024-09-25T11:10:34Z</time>
      </trkpt>
      <trkpt lon="78.517762619868563" lat="17.634516366483719">
        <ele>497.16</ele>
        <time>2024-09-25T11:10:34Z</time>
      </trkpt>
      <trkpt lon="78.51776324053067" lat="17.634518315752935">
        <ele>497.176</ele>
        <time>2024-09-25T11:10:34Z</time>
      </trkpt>
      <trkpt lon="78.517763859785745" lat="17.634520261219986">
        <ele>497.193</ele>
        <time>2024-09-25T11:10:34Z</time>
      </trkpt>
      <trkpt lon="78.517764478283894" lat="17.634522204927595">
        <ele>497.21</ele>
        <time>2024-09-25T11:10:34Z</time>
      </trkpt>
      <trkpt lon="78.517765096541453" lat="17.634524148476697">
        <ele>497.227</ele>
        <time>2024-09-25T11:10:34Z</time>
      </trkpt>
      <trkpt lon="78.517765714955985" lat="17.634526093079607">
        <ele>497.242</ele>
        <time>2024-09-25T11:10:34Z</time>
      </trkpt>
      <trkpt lon="78.51776633382174" lat="17.634528039613585">
        <ele>497.257</ele>
        <time>2024-09-25T11:10:34Z</time>
      </trkpt>
      <trkpt lon="78.517766953344861" lat="17.634529988672867">
        <ele>497.27</ele>
        <time>2024-09-25T11:10:34Z</time>
      </trkpt>
      <trkpt lon="78.517767573657906" lat="17.634531940617695">
        <ele>497.281</ele>
        <time>2024-09-25T11:10:34Z</time>
      </trkpt>
      <trkpt lon="78.51776819483338" lat="17.634533895619409">
        <ele>497.291</ele>
        <time>2024-09-25T11:10:34Z</time>
      </trkpt>
      <trkpt lon="78.517768816895952" lat="17.634535853701006">
        <ele>497.299</ele>
        <time>2024-09-25T11:10:34Z</time>
      </trkpt>
      <trkpt lon="78.517769439833444" lat="17.634537814772859">
        <ele>497.306</ele>
        <time>2024-09-25T11:10:34Z</time>
      </trkpt>
      <trkpt lon="78.517770063606278" lat="17.634539778663562">
        <ele>497.312</ele>
        <time>2024-09-25T11:10:34Z</time>
      </trkpt>
      <trkpt lon="78.517770688155622" lat="17.634541745146002">
        <ele>497.317</ele>
        <time>2024-09-25T11:10:34Z</time>
      </trkpt>
      <trkpt lon="78.517771313410137" lat="17.63454371395898">
        <ele>497.32</ele>
        <time>2024-09-25T11:10:34Z</time>
      </trkpt>
      <trkpt lon="78.517771939291578" lat="17.634545684824655">
        <ele>497.322</ele>
        <time>2024-09-25T11:10:34Z</time>
      </trkpt>
      <trkpt lon="78.517772791011765" lat="17.634548193913353">
        <ele>497.53</ele>
        <time>2024-09-25T11:10:35Z</time>
      </trkpt>
      <trkpt lon="78.517773656642163" lat="17.634550601116928">
        <ele>497.705</ele>
        <time>2024-09-25T11:10:35Z</time>
      </trkpt>
      <trkpt lon="78.517774530548479" lat="17.634552914238945">
        <ele>497.849</ele>
        <time>2024-09-25T11:10:35Z</time>
      </trkpt>
      <trkpt lon="78.517775408196059" lat="17.634555142429207">
        <ele>497.965</ele>
        <time>2024-09-25T11:10:35Z</time>
      </trkpt>
      <trkpt lon="78.517776286036707" lat="17.634557295534577">
        <ele>498.055</ele>
        <time>2024-09-25T11:10:35Z</time>
      </trkpt>
      <trkpt lon="78.51777716138902" lat="17.634559383585394">
        <ele>498.122</ele>
        <time>2024-09-25T11:10:35Z</time>
      </trkpt>
      <trkpt lon="78.517778032318134" lat="17.634561416401976">
        <ele>498.171</ele>
        <time>2024-09-25T11:10:35Z</time>
      </trkpt>
      <trkpt lon="78.517778897519122" lat="17.634563403305251">
        <ele>498.204</ele>
        <time>2024-09-25T11:10:35Z</time>
      </trkpt>
      <trkpt lon="78.517779756207261" lat="17.63456535291601">
        <ele>498.223</ele>
        <time>2024-09-25T11:10:35Z</time>
      </trkpt>
      <trkpt lon="78.517780608017176" lat="17.634567273027869">
        <ele>498.231</ele>
        <time>2024-09-25T11:10:35Z</time>
      </trkpt>
      <trkpt lon="78.517781452912345" lat="17.634569170540249">
        <ele>498.232</ele>
        <time>2024-09-25T11:10:35Z</time>
      </trkpt>
      <trkpt lon="78.517782291105362" lat="17.634571051438893">
        <ele>498.226</ele>
        <time>2024-09-25T11:10:35Z</time>
      </trkpt>
      <trkpt lon="78.517783122989243" lat="17.634572920812932">
        <ele>498.215</ele>
        <time>2024-09-25T11:10:35Z</time>
      </trkpt>
      <trkpt lon="78.517783949079345" lat="17.634574782898866">
        <ele>498.201</ele>
        <time>2024-09-25T11:10:35Z</time>
      </trkpt>
      <trkpt lon="78.517784769965402" lat="17.634576641143347">
        <ele>498.186</ele>
        <time>2024-09-25T11:10:35Z</time>
      </trkpt>
      <trkpt lon="78.517785586272666" lat="17.634578498277921">
        <ele>498.17</ele>
        <time>2024-09-25T11:10:35Z</time>
      </trkpt>
      <trkpt lon="78.517786398631472" lat="17.634580356400225">
        <ele>498.153</ele>
        <time>2024-09-25T11:10:35Z</time>
      </trkpt>
      <trkpt lon="78.517787207654138" lat="17.634582217057172">
        <ele>498.137</ele>
        <time>2024-09-25T11:10:35Z</time>
      </trkpt>
      <trkpt lon="78.517788013918079" lat="17.634584081326832">
        <ele>498.122</ele>
        <time>2024-09-25T11:10:35Z</time>
      </trkpt>
      <trkpt lon="78.517788817954369" lat="17.634585949896412">
        <ele>498.109</ele>
        <time>2024-09-25T11:10:35Z</time>
      </trkpt>
      <trkpt lon="78.517789620240691" lat="17.634587823134591">
        <ele>498.096</ele>
        <time>2024-09-25T11:10:35Z</time>
      </trkpt>
      <trkpt lon="78.51779042119793" lat="17.634589701157168">
        <ele>498.086</ele>
        <time>2024-09-25T11:10:35Z</time>
      </trkpt>
      <trkpt lon="78.517791221189484" lat="17.63459158388526">
        <ele>498.076</ele>
        <time>2024-09-25T11:10:35Z</time>
      </trkpt>
      <trkpt lon="78.517792020522847" lat="17.634593471095997">
        <ele>498.068</ele>
        <time>2024-09-25T11:10:35Z</time>
      </trkpt>
      <trkpt lon="78.517792819452666" lat="17.634595362465689">
        <ele>498.062</ele>
        <time>2024-09-25T11:10:35Z</time>
      </trkpt>
      <trkpt lon="78.517793618184911" lat="17.634597257605908">
        <ele>498.057</ele>
        <time>2024-09-25T11:10:35Z</time>
      </trkpt>
      <trkpt lon="78.517794416881699" lat="17.634599156092893">
        <ele>498.052</ele>
        <time>2024-09-25T11:10:35Z</time>
      </trkpt>
      <trkpt lon="78.517795215666496" lat="17.634601057490986">
        <ele>498.049</ele>
        <time>2024-09-25T11:10:35Z</time>
      </trkpt>
      <trkpt lon="78.517796014629283" lat="17.634602961370675">
        <ele>498.047</ele>
        <time>2024-09-25T11:10:35Z</time>
      </trkpt>
      <trkpt lon="78.51779699408452" lat="17.634605344219402">
        <ele>497.857</ele>
        <time>2024-09-25T11:10:36Z</time>
      </trkpt>
      <trkpt lon="78.5177979004268" lat="17.634607594196556">
        <ele>497.698</ele>
        <time>2024-09-25T11:10:36Z</time>
      </trkpt>
      <trkpt lon="78.517798742463455" lat="17.634609724831844">
        <ele>497.566</ele>
        <time>2024-09-25T11:10:36Z</time>
      </trkpt>
      <trkpt lon="78.517799529066906" lat="17.634611750468796">
        <ele>497.461</ele>
        <time>2024-09-25T11:10:36Z</time>
      </trkpt>
      <trkpt lon="78.517800268850422" lat="17.634613685566283">
        <ele>497.379</ele>
        <time>2024-09-25T11:10:36Z</time>
      </trkpt>
      <trkpt lon="78.517800969932821" lat="17.634615544167971">
        <ele>497.317</ele>
        <time>2024-09-25T11:10:36Z</time>
      </trkpt>
      <trkpt lon="78.517801639778284" lat="17.634617339516819">
        <ele>497.273</ele>
        <time>2024-09-25T11:10:36Z</time>
      </trkpt>
      <trkpt lon="78.517802285098213" lat="17.634619083792284">
        <ele>497.243</ele>
        <time>2024-09-25T11:10:36Z</time>
      </trkpt>
      <trkpt lon="78.517802911803557" lat="17.63462078794916">
        <ele>497.225</ele>
        <time>2024-09-25T11:10:36Z</time>
      </trkpt>
      <trkpt lon="78.517803524996538" lat="17.634622461638624">
        <ele>497.218</ele>
        <time>2024-09-25T11:10:36Z</time>
      </trkpt>
      <trkpt lon="78.517804128992537" lat="17.634624113193976">
        <ele>497.217</ele>
        <time>2024-09-25T11:10:36Z</time>
      </trkpt>
      <trkpt lon="78.517804727363981" lat="17.634625749665695">
        <ele>497.223</ele>
        <time>2024-09-25T11:10:36Z</time>
      </trkpt>
      <trkpt lon="78.517805322999138" lat="17.634627376892375">
        <ele>497.233</ele>
        <time>2024-09-25T11:10:36Z</time>
      </trkpt>
      <trkpt lon="78.517805918170268" lat="17.634628999596316">
        <ele>497.245</ele>
        <time>2024-09-25T11:10:36Z</time>
      </trkpt>
      <trkpt lon="78.517806514606363" lat="17.634630621494324">
        <ele>497.259</ele>
        <time>2024-09-25T11:10:36Z</time>
      </trkpt>
      <trkpt lon="78.517807113566818" lat="17.634632245416178">
        <ele>497.274</ele>
        <time>2024-09-25T11:10:36Z</time>
      </trkpt>
      <trkpt lon="78.517807715913321" lat="17.634633873424725">
        <ele>497.289</ele>
        <time>2024-09-25T11:10:36Z</time>
      </trkpt>
      <trkpt lon="78.517808322177828" lat="17.634635506933044">
        <ele>497.304</ele>
        <time>2024-09-25T11:10:36Z</time>
      </trkpt>
      <trkpt lon="78.517808932625272" lat="17.634637146815336">
        <ele>497.317</ele>
        <time>2024-09-25T11:10:36Z</time>
      </trkpt>
      <trkpt lon="78.51780954731008" lat="17.634638793509222">
        <ele>497.33</ele>
        <time>2024-09-25T11:10:36Z</time>
      </trkpt>
      <trkpt lon="78.517810166126154" lat="17.634640447108023">
        <ele>497.341</ele>
        <time>2024-09-25T11:10:36Z</time>
      </trkpt>
      <trkpt lon="78.517810788849999" lat="17.634642107442293">
        <ele>497.351</ele>
        <time>2024-09-25T11:10:36Z</time>
      </trkpt>
      <trkpt lon="78.517811415177462" lat="17.634643774150387">
        <ele>497.36</ele>
        <time>2024-09-25T11:10:36Z</time>
      </trkpt>
      <trkpt lon="78.517812044754095" lat="17.634645446738322">
        <ele>497.367</ele>
        <time>2024-09-25T11:10:36Z</time>
      </trkpt>
      <trkpt lon="78.517812677199885" lat="17.634647124629538">
        <ele>497.373</ele>
        <time>2024-09-25T11:10:36Z</time>
      </trkpt>
      <trkpt lon="78.517813312128723" lat="17.634648807205231">
        <ele>497.377</ele>
        <time>2024-09-25T11:10:36Z</time>
      </trkpt>
      <trkpt lon="78.517813949163326" lat="17.634650493836247">
        <ele>497.381</ele>
        <time>2024-09-25T11:10:36Z</time>
      </trkpt>
      <trkpt lon="78.517814587946134" lat="17.634652183907491">
        <ele>497.384</ele>
        <time>2024-09-25T11:10:36Z</time>
      </trkpt>
      <trkpt lon="78.517815228146944" lat="17.634653876835809">
        <ele>497.386</ele>
        <time>2024-09-25T11:10:36Z</time>
      </trkpt>
      <trkpt lon="78.517816004680554" lat="17.634655975567746">
        <ele>497.421</ele>
        <time>2024-09-25T11:10:37Z</time>
      </trkpt>
      <trkpt lon="78.517816715763615" lat="17.63465793925722">
        <ele>497.449</ele>
        <time>2024-09-25T11:10:37Z</time>
      </trkpt>
      <trkpt lon="78.517817369530036" lat="17.634659782835016">
        <ele>497.473</ele>
        <time>2024-09-25T11:10:37Z</time>
      </trkpt>
      <trkpt lon="78.51781797410186" lat="17.634661521727558">
        <ele>497.491</ele>
        <time>2024-09-25T11:10:37Z</time>
      </trkpt>
      <trkpt lon="78.517818537310063" lat="17.634663171199144">
        <ele>497.506</ele>
        <time>2024-09-25T11:10:37Z</time>
      </trkpt>
      <trkpt lon="78.517819066494312" lat="17.63466474586173">
        <ele>497.516</ele>
        <time>2024-09-25T11:10:37Z</time>
      </trkpt>
      <trkpt lon="78.517819568368935" lat="17.634666259328096">
        <ele>497.524</ele>
        <time>2024-09-25T11:10:37Z</time>
      </trkpt>
      <trkpt lon="78.517820048943776" lat="17.634667723985036">
        <ele>497.528</ele>
        <time>2024-09-25T11:10:37Z</time>
      </trkpt>
      <trkpt lon="78.517820513488843" lat="17.634669150865026">
        <ele>497.531</ele>
        <time>2024-09-25T11:10:37Z</time>
      </trkpt>
      <trkpt lon="78.517820966533463" lat="17.634670549596464">
        <ele>497.532</ele>
        <time>2024-09-25T11:10:37Z</time>
      </trkpt>
      <trkpt lon="78.517821411891305" lat="17.634671928414964">
        <ele>497.531</ele>
        <time>2024-09-25T11:10:37Z</time>
      </trkpt>
      <trkpt lon="78.517821852704117" lat="17.63467329422021">
        <ele>497.53</ele>
        <time>2024-09-25T11:10:37Z</time>
      </trkpt>
      <trkpt lon="78.517822291498064" lat="17.634674652665243">
        <ele>497.528</ele>
        <time>2024-09-25T11:10:37Z</time>
      </trkpt>
      <trkpt lon="78.517822730247502" lat="17.634676008267007">
        <ele>497.525</ele>
        <time>2024-09-25T11:10:37Z</time>
      </trkpt>
      <trkpt lon="78.517823170442298" lat="17.63467736452921">
        <ele>497.522</ele>
        <time>2024-09-25T11:10:37Z</time>
      </trkpt>
      <trkpt lon="78.517823613155315" lat="17.634678724070046">
        <ele>497.519</ele>
        <time>2024-09-25T11:10:37Z</time>
      </trkpt>
      <trkpt lon="78.517824059107866" lat="17.634680088749299">
        <ele>497.516</ele>
        <time>2024-09-25T11:10:37Z</time>
      </trkpt>
      <trkpt lon="78.517824508731167" lat="17.634681459790446">
        <ele>497.514</ele>
        <time>2024-09-25T11:10:37Z</time>
      </trkpt>
      <trkpt lon="78.517824962222775" lat="17.634682837894822">
        <ele>497.511</ele>
        <time>2024-09-25T11:10:37Z</time>
      </trkpt>
      <trkpt lon="78.517825419597315" lat="17.634684223345801">
        <ele>497.509</ele>
        <time>2024-09-25T11:10:37Z</time>
      </trkpt>
      <trkpt lon="78.517825880730911" lat="17.634685616101859">
        <ele>497.507</ele>
        <time>2024-09-25T11:10:37Z</time>
      </trkpt>
      <trkpt lon="78.517826345399669" lat="17.634687015877997">
        <ele>497.505</ele>
        <time>2024-09-25T11:10:37Z</time>
      </trkpt>
      <trkpt lon="78.517826813312041" lat="17.634688422215579">
        <ele>497.503</ele>
        <time>2024-09-25T11:10:37Z</time>
      </trkpt>
      <trkpt lon="78.517827284135592" lat="17.634689834541">
        <ele>497.502</ele>
        <time>2024-09-25T11:10:37Z</time>
      </trkpt>
      <trkpt lon="78.517827757518617" lat="17.634691252213919">
        <ele>497.501</ele>
        <time>2024-09-25T11:10:37Z</time>
      </trkpt>
      <trkpt lon="78.517828233107139" lat="17.634692674565922">
        <ele>497.5</ele>
        <time>2024-09-25T11:10:37Z</time>
      </trkpt>
      <trkpt lon="78.517828710557694" lat="17.634694100930648">
        <ele>497.499</ele>
        <time>2024-09-25T11:10:37Z</time>
      </trkpt>
      <trkpt lon="78.517829189546731" lat="17.634695530666434">
        <ele>497.499</ele>
        <time>2024-09-25T11:10:37Z</time>
      </trkpt>
      <trkpt lon="78.517829669776916" lat="17.634696963172498">
        <ele>497.499</ele>
        <time>2024-09-25T11:10:37Z</time>
      </trkpt>
      <trkpt lon="78.517830323836421" lat="17.63469892685978">
        <ele>497.516</ele>
        <time>2024-09-25T11:10:38Z</time>
      </trkpt>
      <trkpt lon="78.517830989089475" lat="17.634700934554647">
        <ele>497.53</ele>
        <time>2024-09-25T11:10:38Z</time>
      </trkpt>
      <trkpt lon="78.517831661046728" lat="17.63470297109259">
        <ele>497.543</ele>
        <time>2024-09-25T11:10:38Z</time>
      </trkpt>
      <trkpt lon="78.517832336091232" lat="17.63470502404067">
        <ele>497.552</ele>
        <time>2024-09-25T11:10:38Z</time>
      </trkpt>
      <trkpt lon="78.517833011389243" lat="17.634707083456835">
        <ele>497.56</ele>
        <time>2024-09-25T11:10:38Z</time>
      </trkpt>
      <trkpt lon="78.517833684795832" lat="17.634709141621983">
        <ele>497.566</ele>
        <time>2024-09-25T11:10:38Z</time>
      </trkpt>
      <trkpt lon="78.517834354759813" lat="17.634711192760783">
        <ele>497.57</ele>
        <time>2024-09-25T11:10:38Z</time>
      </trkpt>
      <trkpt lon="78.517835020231431" lat="17.634713232763712">
        <ele>497.573</ele>
        <time>2024-09-25T11:10:38Z</time>
      </trkpt>
      <trkpt lon="78.517835680575374" lat="17.634715258919691">
        <ele>497.575</ele>
        <time>2024-09-25T11:10:38Z</time>
      </trkpt>
      <trkpt lon="78.517836335490827" lat="17.634717269665963">
        <ele>497.576</ele>
        <time>2024-09-25T11:10:38Z</time>
      </trkpt>
      <trkpt lon="78.517836984939564" lat="17.634719264359646">
        <ele>497.576</ele>
        <time>2024-09-25T11:10:38Z</time>
      </trkpt>
      <trkpt lon="78.517837629082592" lat="17.634721243073628">
        <ele>497.576</ele>
        <time>2024-09-25T11:10:38Z</time>
      </trkpt>
      <trkpt lon="78.517838268225574" lat="17.63472320641781">
        <ele>497.575</ele>
        <time>2024-09-25T11:10:38Z</time>
      </trkpt>
      <trkpt lon="78.517838902772553" lat="17.634725155385723">
        <ele>497.574</ele>
        <time>2024-09-25T11:10:38Z</time>
      </trkpt>
      <trkpt lon="78.51783953318774" lat="17.634727091225578">
        <ele>497.573</ele>
        <time>2024-09-25T11:10:38Z</time>
      </trkpt>
      <trkpt lon="78.517840159964521" lat="17.634729015334226">
        <ele>497.572</ele>
        <time>2024-09-25T11:10:38Z</time>
      </trkpt>
      <trkpt lon="78.517840783601201" lat="17.63473092917204">
        <ele>497.57</ele>
        <time>2024-09-25T11:10:38Z</time>
      </trkpt>
      <trkpt lon="78.517841404582441" lat="17.634732834196573">
        <ele>497.569</ele>
        <time>2024-09-25T11:10:38Z</time>
      </trkpt>
      <trkpt lon="78.517842023365844" lat="17.634734731812628">
        <ele>497.568</ele>
        <time>2024-09-25T11:10:38Z</time>
      </trkpt>
      <trkpt lon="78.517842640372663" lat="17.634736623336455">
        <ele>497.567</ele>
        <time>2024-09-25T11:10:38Z</time>
      </trkpt>
      <trkpt lon="78.517843255982129" lat="17.634738509971843">
        <ele>497.566</ele>
        <time>2024-09-25T11:10:38Z</time>
      </trkpt>
      <trkpt lon="78.517843870528679" lat="17.634740392795997">
        <ele>497.565</ele>
        <time>2024-09-25T11:10:38Z</time>
      </trkpt>
      <trkpt lon="78.517844484301293" lat="17.634742272753289">
        <ele>497.564</ele>
        <time>2024-09-25T11:10:38Z</time>
      </trkpt>
      <trkpt lon="78.517845097544722" lat="17.634744150655166">
        <ele>497.563</ele>
        <time>2024-09-25T11:10:38Z</time>
      </trkpt>
      <trkpt lon="78.517845710461799" lat="17.63474602718469">
        <ele>497.563</ele>
        <time>2024-09-25T11:10:38Z</time>
      </trkpt>
      <trkpt lon="78.517846323216816" lat="17.634747902904429">
        <ele>497.562</ele>
        <time>2024-09-25T11:10:38Z</time>
      </trkpt>
      <trkpt lon="78.51784693593919" lat="17.634749778266574">
        <ele>497.562</ele>
        <time>2024-09-25T11:10:38Z</time>
      </trkpt>
      <trkpt lon="78.51784754872763" lat="17.634751653624416">
        <ele>497.562</ele>
        <time>2024-09-25T11:10:38Z</time>
      </trkpt>
      <trkpt lon="78.517848161654257" lat="17.634753529244421">
        <ele>497.562</ele>
        <time>2024-09-25T11:10:38Z</time>
      </trkpt>
      <trkpt lon="78.517848990697459" lat="17.634755928379182">
        <ele>497.94</ele>
        <time>2024-09-25T11:10:39Z</time>
      </trkpt>
      <trkpt lon="78.517849829070371" lat="17.634758239928082">
        <ele>498.26</ele>
        <time>2024-09-25T11:10:39Z</time>
      </trkpt>
      <trkpt lon="78.517850672055346" lat="17.634760469841005">
        <ele>498.523</ele>
        <time>2024-09-25T11:10:39Z</time>
      </trkpt>
      <trkpt lon="78.517851515935959" lat="17.634762625438199">
        <ele>498.735</ele>
        <time>2024-09-25T11:10:39Z</time>
      </trkpt>
      <trkpt lon="78.517852357879619" lat="17.634764714818694">
        <ele>498.901</ele>
        <time>2024-09-25T11:10:39Z</time>
      </trkpt>
      <trkpt lon="78.517853195818319" lat="17.634766746387314">
        <ele>499.026</ele>
        <time>2024-09-25T11:10:39Z</time>
      </trkpt>
      <trkpt lon="78.51785402833228" lat="17.634768728487483">
        <ele>499.117</ele>
        <time>2024-09-25T11:10:39Z</time>
      </trkpt>
      <trkpt lon="78.517854854539635" lat="17.63477066912661">
        <ele>499.178</ele>
        <time>2024-09-25T11:10:39Z</time>
      </trkpt>
      <trkpt lon="78.517855673994632" lat="17.634772575780694">
        <ele>499.215</ele>
        <time>2024-09-25T11:10:39Z</time>
      </trkpt>
      <trkpt lon="78.51785648659579" lat="17.634774455265529">
        <ele>499.232</ele>
        <time>2024-09-25T11:10:39Z</time>
      </trkpt>
      <trkpt lon="78.517857292504587" lat="17.634776313662528">
        <ele>499.234</ele>
        <time>2024-09-25T11:10:39Z</time>
      </trkpt>
      <trkpt lon="78.517858092075201" lat="17.63477815628832">
        <ele>499.224</ele>
        <time>2024-09-25T11:10:39Z</time>
      </trkpt>
      <trkpt lon="78.517858885794752" lat="17.63477998769838">
        <ele>499.205</ele>
        <time>2024-09-25T11:10:39Z</time>
      </trkpt>
      <trkpt lon="78.517859674233591" lat="17.634781811716202">
        <ele>499.181</ele>
        <time>2024-09-25T11:10:39Z</time>
      </trkpt>
      <trkpt lon="78.517860458005089" lat="17.634783631480726">
        <ele>499.154</ele>
        <time>2024-09-25T11:10:39Z</time>
      </trkpt>
      <trkpt lon="78.517861237733698" lat="17.634785449505841">
        <ele>499.125</ele>
        <time>2024-09-25T11:10:39Z</time>
      </trkpt>
      <trkpt lon="78.517862014030541" lat="17.634787267746969">
        <ele>499.095</ele>
        <time>2024-09-25T11:10:39Z</time>
      </trkpt>
      <trkpt lon="78.517862787475494" lat="17.634789087670637">
        <ele>499.067</ele>
        <time>2024-09-25T11:10:39Z</time>
      </trkpt>
      <trkpt lon="78.517863558604688" lat="17.634790910323893">
        <ele>499.04</ele>
        <time>2024-09-25T11:10:39Z</time>
      </trkpt>
      <trkpt lon="78.5178643279027" lat="17.634792736401234">
        <ele>499.015</ele>
        <time>2024-09-25T11:10:39Z</time>
      </trkpt>
      <trkpt lon="78.517865095798427" lat="17.63479456630726">
        <ele>498.993</ele>
        <time>2024-09-25T11:10:39Z</time>
      </trkpt>
      <trkpt lon="78.517865862663854" lat="17.634796400214">
        <ele>498.973</ele>
        <time>2024-09-25T11:10:39Z</time>
      </trkpt>
      <trkpt lon="78.51786662881517" lat="17.634798238112197">
        <ele>498.956</ele>
        <time>2024-09-25T11:10:39Z</time>
      </trkpt>
      <trkpt lon="78.517867394515562" lat="17.634800079856241">
        <ele>498.942</ele>
        <time>2024-09-25T11:10:39Z</time>
      </trkpt>
      <trkpt lon="78.517868159979031" lat="17.634801925202822">
        <ele>498.93</ele>
        <time>2024-09-25T11:10:39Z</time>
      </trkpt>
      <trkpt lon="78.517868925375168" lat="17.634803773843402">
        <ele>498.92</ele>
        <time>2024-09-25T11:10:39Z</time>
      </trkpt>
      <trkpt lon="78.517869690834104" lat="17.63480562543101">
        <ele>498.913</ele>
        <time>2024-09-25T11:10:39Z</time>
      </trkpt>
      <trkpt lon="78.517870456451803" lat="17.634807479601747">
        <ele>498.907</ele>
        <time>2024-09-25T11:10:39Z</time>
      </trkpt>
      <trkpt lon="78.517871222295057" lat="17.634809335991591">
        <ele>498.903</ele>
        <time>2024-09-25T11:10:39Z</time>
      </trkpt>
      <trkpt lon="78.517872155737166" lat="17.634811642774206">
        <ele>499.001</ele>
        <time>2024-09-25T11:10:40Z</time>
      </trkpt>
      <trkpt lon="78.517873014553544" lat="17.634813806012872">
        <ele>499.085</ele>
        <time>2024-09-25T11:10:40Z</time>
      </trkpt>
      <trkpt lon="78.51787380797694" lat="17.634815841369377">
        <ele>499.154</ele>
        <time>2024-09-25T11:10:40Z</time>
      </trkpt>
      <trkpt lon="78.5178745452382" lat="17.634817765091054">
        <ele>499.211</ele>
        <time>2024-09-25T11:10:40Z</time>
      </trkpt>
      <trkpt lon="78.517875235246123" lat="17.634819593302357">
        <ele>499.255</ele>
        <time>2024-09-25T11:10:40Z</time>
      </trkpt>
      <trkpt lon="78.517875886357359" lat="17.634821341475135">
        <ele>499.289</ele>
        <time>2024-09-25T11:10:40Z</time>
      </trkpt>
      <trkpt lon="78.517876506222123" lat="17.634823024051968">
        <ele>499.315</ele>
        <time>2024-09-25T11:10:40Z</time>
      </trkpt>
      <trkpt lon="78.517877101692449" lat="17.634824654197981">
        <ele>499.332</ele>
        <time>2024-09-25T11:10:40Z</time>
      </trkpt>
      <trkpt lon="78.517877678780678" lat="17.634826243658118">
        <ele>499.343</ele>
        <time>2024-09-25T11:10:40Z</time>
      </trkpt>
      <trkpt lon="78.517878242657417" lat="17.634827802698887">
        <ele>499.349</ele>
        <time>2024-09-25T11:10:40Z</time>
      </trkpt>
      <trkpt lon="78.51787879767916" lat="17.634829340115768">
        <ele>499.351</ele>
        <time>2024-09-25T11:10:40Z</time>
      </trkpt>
      <trkpt lon="78.517879347437415" lat="17.634830863289917">
        <ele>499.349</ele>
        <time>2024-09-25T11:10:40Z</time>
      </trkpt>
      <trkpt lon="78.517879894822343" lat="17.634832378279995">
        <ele>499.346</ele>
        <time>2024-09-25T11:10:40Z</time>
      </trkpt>
      <trkpt lon="78.517880442094977" lat="17.63483388993734">
        <ele>499.34</ele>
        <time>2024-09-25T11:10:40Z</time>
      </trkpt>
      <trkpt lon="78.517880990963661" lat="17.634835402034707">
        <ele>499.334</ele>
        <time>2024-09-25T11:10:40Z</time>
      </trkpt>
      <trkpt lon="78.517881542660703" lat="17.634836917400783">
        <ele>499.327</ele>
        <time>2024-09-25T11:10:40Z</time>
      </trkpt>
      <trkpt lon="78.517882098016841" lat="17.634838438054352">
        <ele>499.319</ele>
        <time>2024-09-25T11:10:40Z</time>
      </trkpt>
      <trkpt lon="78.517882657531203" lat="17.634839965333573">
        <ele>499.312</ele>
        <time>2024-09-25T11:10:40Z</time>
      </trkpt>
      <trkpt lon="78.517883221435625" lat="17.634841500017075">
        <ele>499.305</ele>
        <time>2024-09-25T11:10:40Z</time>
      </trkpt>
      <trkpt lon="78.517883789752418" lat="17.63484304243465">
        <ele>499.299</ele>
        <time>2024-09-25T11:10:40Z</time>
      </trkpt>
      <trkpt lon="78.517884362345157" lat="17.634844592566314">
        <ele>499.293</ele>
        <time>2024-09-25T11:10:40Z</time>
      </trkpt>
      <trkpt lon="78.517884938962524" lat="17.634846150129086">
        <ele>499.288</ele>
        <time>2024-09-25T11:10:40Z</time>
      </trkpt>
      <trkpt lon="78.517885519275268" lat="17.634847714651588">
        <ele>499.284</ele>
        <time>2024-09-25T11:10:40Z</time>
      </trkpt>
      <trkpt lon="78.517886102906857" lat="17.634849285536777">
        <ele>499.28</ele>
        <time>2024-09-25T11:10:40Z</time>
      </trkpt>
      <trkpt lon="78.517886689458223" lat="17.634850862113623">
        <ele>499.277</ele>
        <time>2024-09-25T11:10:40Z</time>
      </trkpt>
      <trkpt lon="78.517887278527141" lat="17.634852443678632">
        <ele>499.275</ele>
        <time>2024-09-25T11:10:40Z</time>
      </trkpt>
      <trkpt lon="78.517887869722941" lat="17.634854029528256">
        <ele>499.273</ele>
        <time>2024-09-25T11:10:40Z</time>
      </trkpt>
      <trkpt lon="78.517888462677291" lat="17.634855618983355">
        <ele>499.271</ele>
        <time>2024-09-25T11:10:40Z</time>
      </trkpt>
      <trkpt lon="78.517889057051477" lat="17.634857211406771">
        <ele>499.27</ele>
        <time>2024-09-25T11:10:40Z</time>
      </trkpt>
      <trkpt lon="78.517889882608941" lat="17.634859342291616">
        <ele>499.286</ele>
        <time>2024-09-25T11:10:41Z</time>
      </trkpt>
      <trkpt lon="78.517890735564379" lat="17.634861478273599">
        <ele>499.3</ele>
        <time>2024-09-25T11:10:41Z</time>
      </trkpt>
      <trkpt lon="78.517891607993576" lat="17.634863610191875">
        <ele>499.311</ele>
        <time>2024-09-25T11:10:41Z</time>
      </trkpt>
      <trkpt lon="78.51789249324689" lat="17.634865731281973">
        <ele>499.321</ele>
        <time>2024-09-25T11:10:41Z</time>
      </trkpt>
      <trkpt lon="78.517893385866287" lat="17.634867836820792">
        <ele>499.328</ele>
        <time>2024-09-25T11:10:41Z</time>
      </trkpt>
      <trkpt lon="78.517894281481617" lat="17.634869923788063">
        <ele>499.334</ele>
        <time>2024-09-25T11:10:41Z</time>
      </trkpt>
      <trkpt lon="78.517895176694552" lat="17.634871990552025">
        <ele>499.338</ele>
        <time>2024-09-25T11:10:41Z</time>
      </trkpt>
      <trkpt lon="78.51789606895737" lat="17.634874036584282">
        <ele>499.341</ele>
        <time>2024-09-25T11:10:41Z</time>
      </trkpt>
      <trkpt lon="78.517896956451992" lat="17.634876062206505">
        <ele>499.343</ele>
        <time>2024-09-25T11:10:41Z</time>
      </trkpt>
      <trkpt lon="78.517897837973507" lat="17.63487806837">
        <ele>499.344</ele>
        <time>2024-09-25T11:10:41Z</time>
      </trkpt>
      <trkpt lon="78.517898712821108" lat="17.634880056467658">
        <ele>499.344</ele>
        <time>2024-09-25T11:10:41Z</time>
      </trkpt>
      <trkpt lon="78.517899580698284" lat="17.634882028176868">
        <ele>499.344</ele>
        <time>2024-09-25T11:10:41Z</time>
      </trkpt>
      <trkpt lon="78.517900441623567" lat="17.634883985331228">
        <ele>499.344</ele>
        <time>2024-09-25T11:10:41Z</time>
      </trkpt>
      <trkpt lon="78.517901295852397" lat="17.63488592981841">
        <ele>499.343</ele>
        <time>2024-09-25T11:10:41Z</time>
      </trkpt>
      <trkpt lon="78.517902143809863" lat="17.634887863501287">
        <ele>499.342</ele>
        <time>2024-09-25T11:10:41Z</time>
      </trkpt>
      <trkpt lon="78.517902986034201" lat="17.634889788159345">
        <ele>499.341</ele>
        <time>2024-09-25T11:10:41Z</time>
      </trkpt>
      <trkpt lon="78.517903823130283" lat="17.634891705447419">
        <ele>499.34</ele>
        <time>2024-09-25T11:10:41Z</time>
      </trkpt>
      <trkpt lon="78.517904655732139" lat="17.634893616868887">
        <ele>499.338</ele>
        <time>2024-09-25T11:10:41Z</time>
      </trkpt>
      <trkpt lon="78.5179054844738" lat="17.634895523760768">
        <ele>499.337</ele>
        <time>2024-09-25T11:10:41Z</time>
      </trkpt>
      <trkpt lon="78.517906309967259" lat="17.634897427288241">
        <ele>499.336</ele>
        <time>2024-09-25T11:10:41Z</time>
      </trkpt>
      <trkpt lon="78.517907132786675" lat="17.634899328446469">
        <ele>499.335</ele>
        <time>2024-09-25T11:10:41Z</time>
      </trkpt>
      <trkpt lon="78.517907953457694" lat="17.63490122806791">
        <ele>499.335</ele>
        <time>2024-09-25T11:10:41Z</time>
      </trkpt>
      <trkpt lon="78.517908772451193" lat="17.634903126833457">
        <ele>499.334</ele>
        <time>2024-09-25T11:10:41Z</time>
      </trkpt>
      <trkpt lon="78.517909590180381" lat="17.634905025286091">
        <ele>499.333</ele>
        <time>2024-09-25T11:10:41Z</time>
      </trkpt>
      <trkpt lon="78.517910407000642" lat="17.634906923845996">
        <ele>499.333</ele>
        <time>2024-09-25T11:10:41Z</time>
      </trkpt>
      <trkpt lon="78.517911223211442" lat="17.634908822826183">
        <ele>499.332</ele>
        <time>2024-09-25T11:10:41Z</time>
      </trkpt>
      <trkpt lon="78.517912039059681" lat="17.634910722448012">
        <ele>499.332</ele>
        <time>2024-09-25T11:10:41Z</time>
      </trkpt>
      <trkpt lon="78.517912854744083" lat="17.634912622856067">
        <ele>499.332</ele>
        <time>2024-09-25T11:10:41Z</time>
      </trkpt>
      <trkpt lon="78.517913670420128" lat="17.634914524132022">
        <ele>499.332</ele>
        <time>2024-09-25T11:10:41Z</time>
      </trkpt>
      <trkpt lon="78.517914734813715" lat="17.634916975024915">
        <ele>499.253</ele>
        <time>2024-09-25T11:10:42Z</time>
      </trkpt>
      <trkpt lon="78.517915778839239" lat="17.634919353145911">
        <ele>499.186</ele>
        <time>2024-09-25T11:10:42Z</time>
      </trkpt>
      <trkpt lon="78.517916801988193" lat="17.634921661657856">
        <ele>499.131</ele>
        <time>2024-09-25T11:10:42Z</time>
      </trkpt>
      <trkpt lon="78.517917804602305" lat="17.63492390536241">
        <ele>499.087</ele>
        <time>2024-09-25T11:10:42Z</time>
      </trkpt>
      <trkpt lon="78.517918787652306" lat="17.634926090129834">
        <ele>499.053</ele>
        <time>2024-09-25T11:10:42Z</time>
      </trkpt>
      <trkpt lon="78.517919752549389" lat="17.634928222432052">
        <ele>499.027</ele>
        <time>2024-09-25T11:10:42Z</time>
      </trkpt>
      <trkpt lon="78.517920700987773" lat="17.634930308969768">
        <ele>499.008</ele>
        <time>2024-09-25T11:10:42Z</time>
      </trkpt>
      <trkpt lon="78.517921634816176" lat="17.63493235638343">
        <ele>498.995</ele>
        <time>2024-09-25T11:10:42Z</time>
      </trkpt>
      <trkpt lon="78.517922555935598" lat="17.634934371037456">
        <ele>498.988</ele>
        <time>2024-09-25T11:10:42Z</time>
      </trkpt>
      <trkpt lon="78.517923466220381" lat="17.634936358867147">
        <ele>498.984</ele>
        <time>2024-09-25T11:10:42Z</time>
      </trkpt>
      <trkpt lon="78.517924367459742" lat="17.634938325278217">
        <ele>498.984</ele>
        <time>2024-09-25T11:10:42Z</time>
      </trkpt>
      <trkpt lon="78.517925261316549" lat="17.634940275089413">
        <ele>498.986</ele>
        <time>2024-09-25T11:10:42Z</time>
      </trkpt>
      <trkpt lon="78.517926149300678" lat="17.634942212509692">
        <ele>498.99</ele>
        <time>2024-09-25T11:10:42Z</time>
      </trkpt>
      <trkpt lon="78.517927032754258" lat="17.634944141142146">
        <ele>498.995</ele>
        <time>2024-09-25T11:10:42Z</time>
      </trkpt>
      <trkpt lon="78.517927912846346" lat="17.634946064008037">
        <ele>499.001</ele>
        <time>2024-09-25T11:10:42Z</time>
      </trkpt>
      <trkpt lon="78.517928790574928" lat="17.634947983585111">
        <ele>499.007</ele>
        <time>2024-09-25T11:10:42Z</time>
      </trkpt>
      <trkpt lon="78.517929666774393" lat="17.634949901855343">
        <ele>499.013</ele>
        <time>2024-09-25T11:10:42Z</time>
      </trkpt>
      <trkpt lon="78.51793054212682" lat="17.634951820358165">
        <ele>499.019</ele>
        <time>2024-09-25T11:10:42Z</time>
      </trkpt>
      <trkpt lon="78.517931417175788" lat="17.634953740245948">
        <ele>499.024</ele>
        <time>2024-09-25T11:10:42Z</time>
      </trkpt>
      <trkpt lon="78.517932292341612" lat="17.634955662339266">
        <ele>499.03</ele>
        <time>2024-09-25T11:10:42Z</time>
      </trkpt>
      <trkpt lon="78.517933167937031" lat="17.634957587180086">
        <ele>499.034</ele>
        <time>2024-09-25T11:10:42Z</time>
      </trkpt>
      <trkpt lon="78.517934044182908" lat="17.634959515081533">
        <ele>499.038</ele>
        <time>2024-09-25T11:10:42Z</time>
      </trkpt>
      <trkpt lon="78.517934921223116" lat="17.634961446173353">
        <ele>499.042</ele>
        <time>2024-09-25T11:10:42Z</time>
      </trkpt>
      <trkpt lon="78.517935799138556" lat="17.634963380442553">
        <ele>499.045</ele>
        <time>2024-09-25T11:10:42Z</time>
      </trkpt>
      <trkpt lon="78.517936677959796" lat="17.634965317768987">
        <ele>499.047</ele>
        <time>2024-09-25T11:10:42Z</time>
      </trkpt>
      <trkpt lon="78.517937557678422" lat="17.634967257955918">
        <ele>499.049</ele>
        <time>2024-09-25T11:10:42Z</time>
      </trkpt>
      <trkpt lon="78.517938438256934" lat="17.634969200755695">
        <ele>499.051</ele>
        <time>2024-09-25T11:10:42Z</time>
      </trkpt>
      <trkpt lon="78.517939319637193" lat="17.634971145890898">
        <ele>499.052</ele>
        <time>2024-09-25T11:10:42Z</time>
      </trkpt>
      <trkpt lon="78.517940201747535" lat="17.634973093071295">
        <ele>499.053</ele>
        <time>2024-09-25T11:10:42Z</time>
      </trkpt>
      <trkpt lon="78.517941292759076" lat="17.634975532107408">
        <ele>498.892</ele>
        <time>2024-09-25T11:10:43Z</time>
      </trkpt>
      <trkpt lon="78.517942311226392" lat="17.634977836916995">
        <ele>498.757</ele>
        <time>2024-09-25T11:10:43Z</time>
      </trkpt>
      <trkpt lon="78.517943265384162" lat="17.634980021091323">
        <ele>498.645</ele>
        <time>2024-09-25T11:10:43Z</time>
      </trkpt>
      <trkpt lon="78.517944163673207" lat="17.634982099065247">
        <ele>498.554</ele>
        <time>2024-09-25T11:10:43Z</time>
      </trkpt>
      <trkpt lon="78.517945014396616" lat="17.634984085408217">
        <ele>498.484</ele>
        <time>2024-09-25T11:10:43Z</time>
      </trkpt>
      <trkpt lon="78.51794582546529" lat="17.634985994285163">
        <ele>498.43</ele>
        <time>2024-09-25T11:10:43Z</time>
      </trkpt>
      <trkpt lon="78.517946604219773" lat="17.634987839064152">
        <ele>498.391</ele>
        <time>2024-09-25T11:10:43Z</time>
      </trkpt>
      <trkpt lon="78.517947357315705" lat="17.634989632048303">
        <ele>498.365</ele>
        <time>2024-09-25T11:10:43Z</time>
      </trkpt>
      <trkpt lon="78.517948090661335" lat="17.63499138431067">
        <ele>498.349</ele>
        <time>2024-09-25T11:10:43Z</time>
      </trkpt>
      <trkpt lon="78.517948809396273" lat="17.634993105612541">
        <ele>498.342</ele>
        <time>2024-09-25T11:10:43Z</time>
      </trkpt>
      <trkpt lon="78.517949517902281" lat="17.63499480438734">
        <ele>498.341</ele>
        <time>2024-09-25T11:10:43Z</time>
      </trkpt>
      <trkpt lon="78.517950219837601" lat="17.634996487774664">
        <ele>498.344</ele>
        <time>2024-09-25T11:10:43Z</time>
      </trkpt>
      <trkpt lon="78.517950918188106" lat="17.634998161690838">
        <ele>498.352</ele>
        <time>2024-09-25T11:10:43Z</time>
      </trkpt>
      <trkpt lon="78.517951615329068" lat="17.63499983092461">
        <ele>498.362</ele>
        <time>2024-09-25T11:10:43Z</time>
      </trkpt>
      <trkpt lon="78.517952313093005" lat="17.635001499248421">
        <ele>498.374</ele>
        <time>2024-09-25T11:10:43Z</time>
      </trkpt>
      <trkpt lon="78.517953012839698" lat="17.635003169537605">
        <ele>498.386</ele>
        <time>2024-09-25T11:10:43Z</time>
      </trkpt>
      <trkpt lon="78.517953715525266" lat="17.635004843891373">
        <ele>498.398</ele>
        <time>2024-09-25T11:10:43Z</time>
      </trkpt>
      <trkpt lon="78.517954421768408" lat="17.635006523750988">
        <ele>498.41</ele>
        <time>2024-09-25T11:10:43Z</time>
      </trkpt>
      <trkpt lon="78.517955131911947" lat="17.63500821001168">
        <ele>498.422</ele>
        <time>2024-09-25T11:10:43Z</time>
      </trkpt>
      <trkpt lon="78.517955846078877" lat="17.635009903125987">
        <ele>498.432</ele>
        <time>2024-09-25T11:10:43Z</time>
      </trkpt>
      <trkpt lon="78.517956564222132" lat="17.635011603197018">
        <ele>498.442</ele>
        <time>2024-09-25T11:10:43Z</time>
      </trkpt>
      <trkpt lon="78.517957286168183" lat="17.635013310060899">
        <ele>498.45</ele>
        <time>2024-09-25T11:10:43Z</time>
      </trkpt>
      <trkpt lon="78.517958011654159" lat="17.635015023358186">
        <ele>498.457</ele>
        <time>2024-09-25T11:10:43Z</time>
      </trkpt>
      <trkpt lon="78.517958740358949" lat="17.635016742594509">
        <ele>498.463</ele>
        <time>2024-09-25T11:10:43Z</time>
      </trkpt>
      <trkpt lon="78.517959471928677" lat="17.635018467190935">
        <ele>498.468</ele>
        <time>2024-09-25T11:10:43Z</time>
      </trkpt>
      <trkpt lon="78.517960205997142" lat="17.635020196524916">
        <ele>498.473</ele>
        <time>2024-09-25T11:10:43Z</time>
      </trkpt>
      <trkpt lon="78.517960942201512" lat="17.63502192996263">
        <ele>498.476</ele>
        <time>2024-09-25T11:10:43Z</time>
      </trkpt>
      <trkpt lon="78.517961680194048" lat="17.635023666883765">
        <ele>498.478</ele>
        <time>2024-09-25T11:10:43Z</time>
      </trkpt>
      <trkpt lon="78.517962419650587" lat="17.635025406699754">
        <ele>498.48</ele>
        <time>2024-09-25T11:10:43Z</time>
      </trkpt>
      <trkpt lon="78.51796332695119" lat="17.635027480812447">
        <ele>498.413</ele>
        <time>2024-09-25T11:10:44Z</time>
      </trkpt>
      <trkpt lon="78.51796416736677" lat="17.63502934641966">
        <ele>498.356</ele>
        <time>2024-09-25T11:10:44Z</time>
      </trkpt>
      <trkpt lon="78.517964948782449" lat="17.635031031099611">
        <ele>498.308</ele>
        <time>2024-09-25T11:10:44Z</time>
      </trkpt>
      <trkpt lon="78.517965679191164" lat="17.635032561924618">
        <ele>498.27</ele>
        <time>2024-09-25T11:10:44Z</time>
      </trkpt>
      <trkpt lon="78.517966366389544" lat="17.635033964645437">
        <ele>498.24</ele>
        <time>2024-09-25T11:10:44Z</time>
      </trkpt>
      <trkpt lon="78.517967017755467" lat="17.635035263122337">
        <ele>498.217</ele>
        <time>2024-09-25T11:10:44Z</time>
      </trkpt>
      <trkpt lon="78.517967640094895" lat="17.63503647896184">
        <ele>498.2</ele>
        <time>2024-09-25T11:10:44Z</time>
      </trkpt>
      <trkpt lon="78.517968239546349" lat="17.635037631321197">
        <ele>498.189</ele>
        <time>2024-09-25T11:10:44Z</time>
      </trkpt>
      <trkpt lon="78.517968821532037" lat="17.635038736846045">
        <ele>498.182</ele>
        <time>2024-09-25T11:10:44Z</time>
      </trkpt>
      <trkpt lon="78.517969390745833" lat="17.635039809710641">
        <ele>498.178</ele>
        <time>2024-09-25T11:10:44Z</time>
      </trkpt>
      <trkpt lon="78.517969951169633" lat="17.635040861734019">
        <ele>498.177</ele>
        <time>2024-09-25T11:10:44Z</time>
      </trkpt>
      <trkpt lon="78.517970506110302" lat="17.63504190254935">
        <ele>498.178</ele>
        <time>2024-09-25T11:10:44Z</time>
      </trkpt>
      <trkpt lon="78.517971058251049" lat="17.635042939807509">
        <ele>498.181</ele>
        <time>2024-09-25T11:10:44Z</time>
      </trkpt>
      <trkpt lon="78.517971609711751" lat="17.635043979399384">
        <ele>498.185</ele>
        <time>2024-09-25T11:10:44Z</time>
      </trkpt>
      <trkpt lon="78.51797216211402" lat="17.635045025684562">
        <ele>498.19</ele>
        <time>2024-09-25T11:10:44Z</time>
      </trkpt>
      <trkpt lon="78.517972716647549" lat="17.635046081716929">
        <ele>498.195</ele>
        <time>2024-09-25T11:10:44Z</time>
      </trkpt>
      <trkpt lon="78.51797327413513" lat="17.635047149460036">
        <ele>498.2</ele>
        <time>2024-09-25T11:10:44Z</time>
      </trkpt>
      <trkpt lon="78.517973835094423" lat="17.63504822998733">
        <ele>498.205</ele>
        <time>2024-09-25T11:10:44Z</time>
      </trkpt>
      <trkpt lon="78.517974399795051" lat="17.635049323664017">
        <ele>498.209</ele>
        <time>2024-09-25T11:10:44Z</time>
      </trkpt>
      <trkpt lon="78.517974968310355" lat="17.635050430308727">
        <ele>498.214</ele>
        <time>2024-09-25T11:10:44Z</time>
      </trkpt>
      <trkpt lon="78.517975540563114" lat="17.635051549334374">
        <ele>498.218</ele>
        <time>2024-09-25T11:10:44Z</time>
      </trkpt>
      <trkpt lon="78.517976116365332" lat="17.635052679868426">
        <ele>498.221</ele>
        <time>2024-09-25T11:10:44Z</time>
      </trkpt>
      <trkpt lon="78.517976695452049" lat="17.635053820853479">
        <ele>498.224</ele>
        <time>2024-09-25T11:10:44Z</time>
      </trkpt>
      <trkpt lon="78.517977277509416" lat="17.635054971129488">
        <ele>498.227</ele>
        <time>2024-09-25T11:10:44Z</time>
      </trkpt>
      <trkpt lon="78.517977862197725" lat="17.635056129499336">
        <ele>498.229</ele>
        <time>2024-09-25T11:10:44Z</time>
      </trkpt>
      <trkpt lon="78.517978449169505" lat="17.635057294779518">
        <ele>498.231</ele>
        <time>2024-09-25T11:10:44Z</time>
      </trkpt>
      <trkpt lon="78.517979038083524" lat="17.635058465837908">
        <ele>498.232</ele>
        <time>2024-09-25T11:10:44Z</time>
      </trkpt>
      <trkpt lon="78.517979628615123" lat="17.635059641620412">
        <ele>498.233</ele>
        <time>2024-09-25T11:10:44Z</time>
      </trkpt>
      <trkpt lon="78.517980220463372" lat="17.635060821168381">
        <ele>498.234</ele>
        <time>2024-09-25T11:10:44Z</time>
      </trkpt>
      <trkpt lon="78.517980959524351" lat="17.635062449906226">
        <ele>499.015</ele>
        <time>2024-09-25T11:10:45Z</time>
      </trkpt>
      <trkpt lon="78.517981655890935" lat="17.635064124950826">
        <ele>499.673</ele>
        <time>2024-09-25T11:10:45Z</time>
      </trkpt>
      <trkpt lon="78.517982313960374" lat="17.63506583190237">
        <ele>500.215</ele>
        <time>2024-09-25T11:10:45Z</time>
      </trkpt>
      <trkpt lon="78.517982938377386" lat="17.635067558797939">
        <ele>500.651</ele>
        <time>2024-09-25T11:10:45Z</time>
      </trkpt>
      <trkpt lon="78.517983533811957" lat="17.635069295927071">
        <ele>500.993</ele>
        <time>2024-09-25T11:10:45Z</time>
      </trkpt>
      <trkpt lon="78.517984104790912" lat="17.635071035614466">
        <ele>501.251</ele>
        <time>2024-09-25T11:10:45Z</time>
      </trkpt>
      <trkpt lon="78.517984655575958" lat="17.635072771985516">
        <ele>501.437</ele>
        <time>2024-09-25T11:10:45Z</time>
      </trkpt>
      <trkpt lon="78.517985190080978" lat="17.635074500727029">
        <ele>501.562</ele>
        <time>2024-09-25T11:10:45Z</time>
      </trkpt>
      <trkpt lon="78.517985711821694" lat="17.635076218852614">
        <ele>501.638</ele>
        <time>2024-09-25T11:10:45Z</time>
      </trkpt>
      <trkpt lon="78.517986223891597" lat="17.635077924479763">
        <ele>501.673</ele>
        <time>2024-09-25T11:10:45Z</time>
      </trkpt>
      <trkpt lon="78.517986728958462" lat="17.635079616623475">
        <ele>501.676</ele>
        <time>2024-09-25T11:10:45Z</time>
      </trkpt>
      <trkpt lon="78.517987229276542" lat="17.63508129500951">
        <ele>501.656</ele>
        <time>2024-09-25T11:10:45Z</time>
      </trkpt>
      <trkpt lon="78.517987726710004" lat="17.635082959908921">
        <ele>501.618</ele>
        <time>2024-09-25T11:10:45Z</time>
      </trkpt>
      <trkpt lon="78.517988222764288" lat="17.635084611994422">
        <ele>501.568</ele>
        <time>2024-09-25T11:10:45Z</time>
      </trkpt>
      <trkpt lon="78.517988718622121" lat="17.635086252218123">
        <ele>501.511</ele>
        <time>2024-09-25T11:10:45Z</time>
      </trkpt>
      <trkpt lon="78.517989215181871" lat="17.635087881709687">
        <ele>501.451</ele>
        <time>2024-09-25T11:10:45Z</time>
      </trkpt>
      <trkpt lon="78.51798971309637" lat="17.635089501693393">
        <ele>501.39</ele>
        <time>2024-09-25T11:10:45Z</time>
      </trkpt>
      <trkpt lon="78.517990212810687" lat="17.635091113422313">
        <ele>501.331</ele>
        <time>2024-09-25T11:10:45Z</time>
      </trkpt>
      <trkpt lon="78.517990714597801" lat="17.635092718127719">
        <ele>501.276</ele>
        <time>2024-09-25T11:10:45Z</time>
      </trkpt>
      <trkpt lon="78.517991218591519" lat="17.635094316981686">
        <ele>501.225</ele>
        <time>2024-09-25T11:10:45Z</time>
      </trkpt>
      <trkpt lon="78.517991724816085" lat="17.635095911070945">
        <ele>501.179</ele>
        <time>2024-09-25T11:10:45Z</time>
      </trkpt>
      <trkpt lon="78.517992233212269" lat="17.635097501380177">
        <ele>501.138</ele>
        <time>2024-09-25T11:10:45Z</time>
      </trkpt>
      <trkpt lon="78.517992743660017" lat="17.635099088782916">
        <ele>501.103</ele>
        <time>2024-09-25T11:10:45Z</time>
      </trkpt>
      <trkpt lon="78.517993255997595" lat="17.635100674038593">
        <ele>501.073</ele>
        <time>2024-09-25T11:10:45Z</time>
      </trkpt>
      <trkpt lon="78.517993770037421" lat="17.635102257794244">
        <ele>501.049</ele>
        <time>2024-09-25T11:10:45Z</time>
      </trkpt>
      <trkpt lon="78.517994285579007" lat="17.635103840589704">
        <ele>501.029</ele>
        <time>2024-09-25T11:10:45Z</time>
      </trkpt>
      <trkpt lon="78.517994802419054" lat="17.635105422865255">
        <ele>501.013</ele>
        <time>2024-09-25T11:10:45Z</time>
      </trkpt>
      <trkpt lon="78.517995320359219" lat="17.635107004970852">
        <ele>501.002</ele>
        <time>2024-09-25T11:10:45Z</time>
      </trkpt>
      <trkpt lon="78.517995839211778" lat="17.635108587176195">
        <ele>500.993</ele>
        <time>2024-09-25T11:10:45Z</time>
      </trkpt>
      <trkpt lon="78.517996604883734" lat="17.635110624760909">
        <ele>501.843</ele>
        <time>2024-09-25T11:10:46Z</time>
      </trkpt>
      <trkpt lon="78.517997432345609" lat="17.635112600010384">
        <ele>502.561</ele>
        <time>2024-09-25T11:10:46Z</time>
      </trkpt>
      <trkpt lon="78.51799830807137" lat="17.635114515933118">
        <ele>503.153</ele>
        <time>2024-09-25T11:10:46Z</time>
      </trkpt>
      <trkpt lon="78.517999220188713" lat="17.635116376857319">
        <ele>503.632</ele>
        <time>2024-09-25T11:10:46Z</time>
      </trkpt>
      <trkpt lon="78.518000158484298" lat="17.635118187955712">
        <ele>504.007</ele>
        <time>2024-09-25T11:10:46Z</time>
      </trkpt>
      <trkpt lon="78.518001114349957" lat="17.635119954857977">
        <ele>504.292</ele>
        <time>2024-09-25T11:10:46Z</time>
      </trkpt>
      <trkpt lon="78.518002080686571" lat="17.635121683342735">
        <ele>504.498</ele>
        <time>2024-09-25T11:10:46Z</time>
      </trkpt>
      <trkpt lon="78.518003051779061" lat="17.635123379100214">
        <ele>504.639</ele>
        <time>2024-09-25T11:10:46Z</time>
      </trkpt>
      <trkpt lon="78.51800402315412" lat="17.635125047556372">
        <ele>504.724</ele>
        <time>2024-09-25T11:10:46Z</time>
      </trkpt>
      <trkpt lon="78.518004991429919" lat="17.635126693749541">
        <ele>504.765</ele>
        <time>2024-09-25T11:10:46Z</time>
      </trkpt>
      <trkpt lon="78.518005954164778" lat="17.635128322250853">
        <ele>504.772</ele>
        <time>2024-09-25T11:10:46Z</time>
      </trkpt>
      <trkpt lon="78.518006909710593" lat="17.635129937120528">
        <ele>504.752</ele>
        <time>2024-09-25T11:10:46Z</time>
      </trkpt>
      <trkpt lon="78.518007857074636" lat="17.635131541892633">
        <ele>504.713</ele>
        <time>2024-09-25T11:10:46Z</time>
      </trkpt>
      <trkpt lon="78.518008795792724" lat="17.635133139581882">
        <ele>504.661</ele>
        <time>2024-09-25T11:10:46Z</time>
      </trkpt>
      <trkpt lon="78.518009725815219" lat="17.635134732706796">
        <ele>504.6</ele>
        <time>2024-09-25T11:10:46Z</time>
      </trkpt>
      <trkpt lon="78.518010647406712" lat="17.635136323324389">
        <ele>504.536</ele>
        <time>2024-09-25T11:10:46Z</time>
      </trkpt>
      <trkpt lon="78.518011561059424" lat="17.635137913072345">
        <ele>504.471</ele>
        <time>2024-09-25T11:10:46Z</time>
      </trkpt>
      <trkpt lon="78.518012467420107" lat="17.635139503215381">
        <ele>504.407</ele>
        <time>2024-09-25T11:10:46Z</time>
      </trkpt>
      <trkpt lon="78.518013367229557" lat="17.635141094693136">
        <ele>504.347</ele>
        <time>2024-09-25T11:10:46Z</time>
      </trkpt>
      <trkpt lon="78.518014261273706" lat="17.635142688167569">
        <ele>504.292</ele>
        <time>2024-09-25T11:10:46Z</time>
      </trkpt>
      <trkpt lon="78.518015150345221" lat="17.635144284068339">
        <ele>504.242</ele>
        <time>2024-09-25T11:10:46Z</time>
      </trkpt>
      <trkpt lon="78.51801603521433" lat="17.635145882635065">
        <ele>504.198</ele>
        <time>2024-09-25T11:10:46Z</time>
      </trkpt>
      <trkpt lon="78.518016916607607" lat="17.635147483955784">
        <ele>504.16</ele>
        <time>2024-09-25T11:10:46Z</time>
      </trkpt>
      <trkpt lon="78.518017795193401" lat="17.635149088001221">
        <ele>504.128</ele>
        <time>2024-09-25T11:10:46Z</time>
      </trkpt>
      <trkpt lon="78.518018671573103" lat="17.635150694654676">
        <ele>504.101</ele>
        <time>2024-09-25T11:10:46Z</time>
      </trkpt>
      <trkpt lon="78.518019546276619" lat="17.635152303737609">
        <ele>504.079</ele>
        <time>2024-09-25T11:10:46Z</time>
      </trkpt>
      <trkpt lon="78.518020419761626" lat="17.635153915031061">
        <ele>504.062</ele>
        <time>2024-09-25T11:10:46Z</time>
      </trkpt>
      <trkpt lon="78.51802129241544" lat="17.635155528293208">
        <ele>504.049</ele>
        <time>2024-09-25T11:10:46Z</time>
      </trkpt>
      <trkpt lon="78.5180221645589" lat="17.635157143273382">
        <ele>504.039</ele>
        <time>2024-09-25T11:10:46Z</time>
      </trkpt>
      <trkpt lon="78.518023275883479" lat="17.635159199633428">
        <ele>504.013</ele>
        <time>2024-09-25T11:10:47Z</time>
      </trkpt>
      <trkpt lon="78.518024342854446" lat="17.635161172863999">
        <ele>503.992</ele>
        <time>2024-09-25T11:10:47Z</time>
      </trkpt>
      <trkpt lon="78.518025368936819" lat="17.635163069287561">
        <ele>503.976</ele>
        <time>2024-09-25T11:10:47Z</time>
      </trkpt>
      <trkpt lon="78.518026358162572" lat="17.63516489633751">
        <ele>503.965</ele>
        <time>2024-09-25T11:10:47Z</time>
      </trkpt>
      <trkpt lon="78.518027314851111" lat="17.635166662026545">
        <ele>503.957</ele>
        <time>2024-09-25T11:10:47Z</time>
      </trkpt>
      <trkpt lon="78.518028243388443" lat="17.635168374525762">
        <ele>503.952</ele>
        <time>2024-09-25T11:10:47Z</time>
      </trkpt>
      <trkpt lon="78.518029148058446" lat="17.635170041841892">
        <ele>503.949</ele>
        <time>2024-09-25T11:10:47Z</time>
      </trkpt>
      <trkpt lon="78.518030032919299" lat="17.635171671579695">
        <ele>503.949</ele>
        <time>2024-09-25T11:10:47Z</time>
      </trkpt>
      <trkpt lon="78.518030901718049" lat="17.635173270776818">
        <ele>503.949</ele>
        <time>2024-09-25T11:10:47Z</time>
      </trkpt>
      <trkpt lon="78.518031757837122" lat="17.635174845798996">
        <ele>503.951</ele>
        <time>2024-09-25T11:10:47Z</time>
      </trkpt>
      <trkpt lon="78.518032604266565" lat="17.635176402284397">
        <ele>503.954</ele>
        <time>2024-09-25T11:10:47Z</time>
      </trkpt>
      <trkpt lon="78.518033443596863" lat="17.635177945126916">
        <ele>503.957</ele>
        <time>2024-09-25T11:10:47Z</time>
      </trkpt>
      <trkpt lon="78.518034278027287" lat="17.635179478489455">
        <ele>503.961</ele>
        <time>2024-09-25T11:10:47Z</time>
      </trkpt>
      <trkpt lon="78.518035109385863" lat="17.635181005839307">
        <ele>503.964</ele>
        <time>2024-09-25T11:10:47Z</time>
      </trkpt>
      <trkpt lon="78.518035939157272" lat="17.635182529998986">
        <ele>503.968</ele>
        <time>2024-09-25T11:10:47Z</time>
      </trkpt>
      <trkpt lon="78.518036768515785" lat="17.635184053206931">
        <ele>503.971</ele>
        <time>2024-09-25T11:10:47Z</time>
      </trkpt>
      <trkpt lon="78.518037598360962" lat="17.63518557718357">
        <ele>503.974</ele>
        <time>2024-09-25T11:10:47Z</time>
      </trkpt>
      <trkpt lon="78.518038429353979" lat="17.635187103199097">
        <ele>503.976</ele>
        <time>2024-09-25T11:10:47Z</time>
      </trkpt>
      <trkpt lon="78.51803926195339" lat="17.635188632140189">
        <ele>503.979</ele>
        <time>2024-09-25T11:10:47Z</time>
      </trkpt>
      <trkpt lon="78.518040096449056" lat="17.635190164573636">
        <ele>503.981</ele>
        <time>2024-09-25T11:10:47Z</time>
      </trkpt>
      <trkpt lon="78.518040932993642" lat="17.635191700805407">
        <ele>503.983</ele>
        <time>2024-09-25T11:10:47Z</time>
      </trkpt>
      <trkpt lon="78.518041771631061" lat="17.635193240934242">
        <ele>503.984</ele>
        <time>2024-09-25T11:10:47Z</time>
      </trkpt>
      <trkpt lon="78.518042612321736" lat="17.63519478489922">
        <ele>503.985</ele>
        <time>2024-09-25T11:10:47Z</time>
      </trkpt>
      <trkpt lon="78.518043454964513" lat="17.635196332521193">
        <ele>503.986</ele>
        <time>2024-09-25T11:10:47Z</time>
      </trkpt>
      <trkpt lon="78.518044299415379" lat="17.635197883538122">
        <ele>503.987</ele>
        <time>2024-09-25T11:10:47Z</time>
      </trkpt>
      <trkpt lon="78.518045145502953" lat="17.635199437634569">
        <ele>503.988</ele>
        <time>2024-09-25T11:10:47Z</time>
      </trkpt>
      <trkpt lon="78.518045993041213" lat="17.635200994465801">
        <ele>503.988</ele>
        <time>2024-09-25T11:10:47Z</time>
      </trkpt>
      <trkpt lon="78.518046841839549" lat="17.635202553676983">
        <ele>503.988</ele>
        <time>2024-09-25T11:10:47Z</time>
      </trkpt>
      <trkpt lon="78.518047691710507" lat="17.635204114917972">
        <ele>503.988</ele>
        <time>2024-09-25T11:10:47Z</time>
      </trkpt>
      <trkpt lon="78.518048822733533" lat="17.635206160463646">
        <ele>504.138</ele>
        <time>2024-09-25T11:10:48Z</time>
      </trkpt>
      <trkpt lon="78.518049951230836" lat="17.635208174185578">
        <ele>504.265</ele>
        <time>2024-09-25T11:10:48Z</time>
      </trkpt>
      <trkpt lon="78.518051073280589" lat="17.635210153648146">
        <ele>504.369</ele>
        <time>2024-09-25T11:10:48Z</time>
      </trkpt>
      <trkpt lon="78.518052186150371" lat="17.63521209820513">
        <ele>504.452</ele>
        <time>2024-09-25T11:10:48Z</time>
      </trkpt>
      <trkpt lon="78.518053288099267" lat="17.635214008581638">
        <ele>504.518</ele>
        <time>2024-09-25T11:10:48Z</time>
      </trkpt>
      <trkpt lon="78.518054378194222" lat="17.635215886511325">
        <ele>504.567</ele>
        <time>2024-09-25T11:10:48Z</time>
      </trkpt>
      <trkpt lon="78.518055456143529" lat="17.635217734427894">
        <ele>504.603</ele>
        <time>2024-09-25T11:10:48Z</time>
      </trkpt>
      <trkpt lon="78.518056522149109" lat="17.635219555208227">
        <ele>504.627</ele>
        <time>2024-09-25T11:10:48Z</time>
      </trkpt>
      <trkpt lon="78.518057576777991" lat="17.635221351963384">
        <ele>504.641</ele>
        <time>2024-09-25T11:10:48Z</time>
      </trkpt>
      <trkpt lon="78.518058620852699" lat="17.635223127872905">
        <ele>504.648</ele>
        <time>2024-09-25T11:10:48Z</time>
      </trkpt>
      <trkpt lon="78.518059655359806" lat="17.635224886057514">
        <ele>504.649</ele>
        <time>2024-09-25T11:10:48Z</time>
      </trkpt>
      <trkpt lon="78.51806068137526" lat="17.635226629485238">
        <ele>504.645</ele>
        <time>2024-09-25T11:10:48Z</time>
      </trkpt>
      <trkpt lon="78.518061700005063" lat="17.635228360905913">
        <ele>504.637</ele>
        <time>2024-09-25T11:10:48Z</time>
      </trkpt>
      <trkpt lon="78.518062712339415" lat="17.6352300828094">
        <ele>504.628</ele>
        <time>2024-09-25T11:10:48Z</time>
      </trkpt>
      <trkpt lon="78.518063719418763" lat="17.635231797403115">
        <ele>504.617</ele>
        <time>2024-09-25T11:10:48Z</time>
      </trkpt>
      <trkpt lon="78.5180647222099" lat="17.635233506604909">
        <ele>504.605</ele>
        <time>2024-09-25T11:10:48Z</time>
      </trkpt>
      <trkpt lon="78.518065721590546" lat="17.635235212047743">
        <ele>504.593</ele>
        <time>2024-09-25T11:10:48Z</time>
      </trkpt>
      <trkpt lon="78.518066718340805" lat="17.63523691509311">
        <ele>504.582</ele>
        <time>2024-09-25T11:10:48Z</time>
      </trkpt>
      <trkpt lon="78.51806771314007" lat="17.635238616850593">
        <ele>504.571</ele>
        <time>2024-09-25T11:10:48Z</time>
      </trkpt>
      <trkpt lon="78.518068706568215" lat="17.635240318201333">
        <ele>504.562</ele>
        <time>2024-09-25T11:10:48Z</time>
      </trkpt>
      <trkpt lon="78.518069699109972" lat="17.635242019823679">
        <ele>504.553</ele>
        <time>2024-09-25T11:10:48Z</time>
      </trkpt>
      <trkpt lon="78.518070691161569" lat="17.635243722219542">
        <ele>504.545</ele>
        <time>2024-09-25T11:10:48Z</time>
      </trkpt>
      <trkpt lon="78.51807168303867" lat="17.635245425740415">
        <ele>504.538</ele>
        <time>2024-09-25T11:10:48Z</time>
      </trkpt>
      <trkpt lon="78.518072674985291" lat="17.635247130612179">
        <ele>504.532</ele>
        <time>2024-09-25T11:10:48Z</time>
      </trkpt>
      <trkpt lon="78.518073667182975" lat="17.635248836958198">
        <ele>504.528</ele>
        <time>2024-09-25T11:10:48Z</time>
      </trkpt>
      <trkpt lon="78.518074659759847" lat="17.635250544820266">
        <ele>504.524</ele>
        <time>2024-09-25T11:10:48Z</time>
      </trkpt>
      <trkpt lon="78.518075652799311" lat="17.635252254177239">
        <ele>504.521</ele>
        <time>2024-09-25T11:10:48Z</time>
      </trkpt>
      <trkpt lon="78.518076646348206" lat="17.635253964961251">
        <ele>504.519</ele>
        <time>2024-09-25T11:10:48Z</time>
      </trkpt>
      <trkpt lon="78.51807764042411" lat="17.635255677071594">
        <ele>504.517</ele>
        <time>2024-09-25T11:10:48Z</time>
      </trkpt>
      <trkpt lon="78.518078913126288" lat="17.635257859792667">
        <ele>504.701</ele>
        <time>2024-09-25T11:10:49Z</time>
      </trkpt>
      <trkpt lon="78.518080140433341" lat="17.63525995655101">
        <ele>504.857</ele>
        <time>2024-09-25T11:10:49Z</time>
      </trkpt>
      <trkpt lon="78.518081325279397" lat="17.635261973723143">
        <ele>504.986</ele>
        <time>2024-09-25T11:10:49Z</time>
      </trkpt>
      <trkpt lon="78.518082471350866" lat="17.63526391887973">
        <ele>505.089</ele>
        <time>2024-09-25T11:10:49Z</time>
      </trkpt>
      <trkpt lon="78.518083582773258" lat="17.635265800228687">
        <ele>505.171</ele>
        <time>2024-09-25T11:10:49Z</time>
      </trkpt>
      <trkpt lon="78.518084663859739" lat="17.635267626173249">
        <ele>505.232</ele>
        <time>2024-09-25T11:10:49Z</time>
      </trkpt>
      <trkpt lon="78.518085718915202" lat="17.635269404972039">
        <ele>505.277</ele>
        <time>2024-09-25T11:10:49Z</time>
      </trkpt>
      <trkpt lon="78.518086752088749" lat="17.635271144487863">
        <ele>505.307</ele>
        <time>2024-09-25T11:10:49Z</time>
      </trkpt>
      <trkpt lon="78.518087767268014" lat="17.635272852012093">
        <ele>505.326</ele>
        <time>2024-09-25T11:10:49Z</time>
      </trkpt>
      <trkpt lon="78.518088768008454" lat="17.635274534152106">
        <ele>505.335</ele>
        <time>2024-09-25T11:10:49Z</time>
      </trkpt>
      <trkpt lon="78.51808975749168" lat="17.635276196770224">
        <ele>505.336</ele>
        <time>2024-09-25T11:10:49Z</time>
      </trkpt>
      <trkpt lon="78.51809073850697" lat="17.635277844963525">
        <ele>505.332</ele>
        <time>2024-09-25T11:10:49Z</time>
      </trkpt>
      <trkpt lon="78.518091713451042" lat="17.63527948307523">
        <ele>505.323</ele>
        <time>2024-09-25T11:10:49Z</time>
      </trkpt>
      <trkpt lon="78.518092684341426" lat="17.635281114729448">
        <ele>505.312</ele>
        <time>2024-09-25T11:10:49Z</time>
      </trkpt>
      <trkpt lon="78.518093652839724" lat="17.635282742882353">
        <ele>505.299</ele>
        <time>2024-09-25T11:10:49Z</time>
      </trkpt>
      <trkpt lon="78.518094620281545" lat="17.635284369883951">
        <ele>505.285</ele>
        <time>2024-09-25T11:10:49Z</time>
      </trkpt>
      <trkpt lon="78.51809558771042" lat="17.635285997545697">
        <ele>505.27</ele>
        <time>2024-09-25T11:10:49Z</time>
      </trkpt>
      <trkpt lon="78.518096555913417" lat="17.635287627210168">
        <ele>505.257</ele>
        <time>2024-09-25T11:10:49Z</time>
      </trkpt>
      <trkpt lon="78.518097525456938" lat="17.635289259819867">
        <ele>505.244</ele>
        <time>2024-09-25T11:10:49Z</time>
      </trkpt>
      <trkpt lon="78.518098496721393" lat="17.635290895982983">
        <ele>505.232</ele>
        <time>2024-09-25T11:10:49Z</time>
      </trkpt>
      <trkpt lon="78.518099469933787" lat="17.635292536034569">
        <ele>505.221</ele>
        <time>2024-09-25T11:10:49Z</time>
      </trkpt>
      <trkpt lon="78.518100445197589" lat="17.635294180092156">
        <ele>505.211</ele>
        <time>2024-09-25T11:10:49Z</time>
      </trkpt>
      <trkpt lon="78.51810142251955" lat="17.63529582810521">
        <ele>505.203</ele>
        <time>2024-09-25T11:10:49Z</time>
      </trkpt>
      <trkpt lon="78.518102401833261" lat="17.635297479898274">
        <ele>505.196</ele>
        <time>2024-09-25T11:10:49Z</time>
      </trkpt>
      <trkpt lon="78.518103383019522" lat="17.635299135207802">
        <ele>505.19</ele>
        <time>2024-09-25T11:10:49Z</time>
      </trkpt>
      <trkpt lon="78.518104365923449" lat="17.635300793713011">
        <ele>505.185</ele>
        <time>2024-09-25T11:10:49Z</time>
      </trkpt>
      <trkpt lon="78.5181053503686" lat="17.635302455061108">
        <ele>505.182</ele>
        <time>2024-09-25T11:10:49Z</time>
      </trkpt>
      <trkpt lon="78.518106336168458" lat="17.635304118887419">
        <ele>505.179</ele>
        <time>2024-09-25T11:10:49Z</time>
      </trkpt>
      <trkpt lon="78.518107323135396" lat="17.63530578483098">
        <ele>505.177</ele>
        <time>2024-09-25T11:10:49Z</time>
      </trkpt>
      <trkpt lon="78.51810860501655" lat="17.635307929537195">
        <ele>505.244</ele>
        <time>2024-09-25T11:10:50Z</time>
      </trkpt>
      <trkpt lon="78.518109857305674" lat="17.635310008254311">
        <ele>505.301</ele>
        <time>2024-09-25T11:10:50Z</time>
      </trkpt>
      <trkpt lon="78.518111080135228" lat="17.635312024005881">
        <ele>505.348</ele>
        <time>2024-09-25T11:10:50Z</time>
      </trkpt>
      <trkpt lon="78.51811227462818" lat="17.635313981257845">
        <ele>505.386</ele>
        <time>2024-09-25T11:10:50Z</time>
      </trkpt>
      <trkpt lon="78.518113442615103" lat="17.635315885408325">
        <ele>505.416</ele>
        <time>2024-09-25T11:10:50Z</time>
      </trkpt>
      <trkpt lon="78.518114586396464" lat="17.635317742370674">
        <ele>505.439</ele>
        <time>2024-09-25T11:10:50Z</time>
      </trkpt>
      <trkpt lon="78.518115708547015" lat="17.635319558241271">
        <ele>505.456</ele>
        <time>2024-09-25T11:10:50Z</time>
      </trkpt>
      <trkpt lon="78.518116811758873" lat="17.635321339042736">
        <ele>505.468</ele>
        <time>2024-09-25T11:10:50Z</time>
      </trkpt>
      <trkpt lon="78.518117898719112" lat="17.635323090532925">
        <ele>505.475</ele>
        <time>2024-09-25T11:10:50Z</time>
      </trkpt>
      <trkpt lon="78.518118972017703" lat="17.63532481807016">
        <ele>505.479</ele>
        <time>2024-09-25T11:10:50Z</time>
      </trkpt>
      <trkpt lon="78.518120034081434" lat="17.635326526525482">
        <ele>505.48</ele>
        <time>2024-09-25T11:10:50Z</time>
      </trkpt>
      <trkpt lon="78.518121087129856" lat="17.635328220233458">
        <ele>505.478</ele>
        <time>2024-09-25T11:10:50Z</time>
      </trkpt>
      <trkpt lon="78.518122133149205" lat="17.635329902973716">
        <ele>505.476</ele>
        <time>2024-09-25T11:10:50Z</time>
      </trkpt>
      <trkpt lon="78.518123173880824" lat="17.635331577976292">
        <ele>505.472</ele>
        <time>2024-09-25T11:10:50Z</time>
      </trkpt>
      <trkpt lon="78.518124210821014" lat="17.635333247944761">
        <ele>505.467</ele>
        <time>2024-09-25T11:10:50Z</time>
      </trkpt>
      <trkpt lon="78.518125245229385" lat="17.635334915091949">
        <ele>505.462</ele>
        <time>2024-09-25T11:10:50Z</time>
      </trkpt>
      <trkpt lon="78.518126278143356" lat="17.6353365811839">
        <ele>505.457</ele>
        <time>2024-09-25T11:10:50Z</time>
      </trkpt>
      <trkpt lon="78.518127310396878" lat="17.635338247588532">
        <ele>505.452</ele>
        <time>2024-09-25T11:10:50Z</time>
      </trkpt>
      <trkpt lon="78.518128342641518" lat="17.635339915326142">
        <ele>505.448</ele>
        <time>2024-09-25T11:10:50Z</time>
      </trkpt>
      <trkpt lon="78.518129375368758" lat="17.635341585119555">
        <ele>505.443</ele>
        <time>2024-09-25T11:10:50Z</time>
      </trkpt>
      <trkpt lon="78.518130408932308" lat="17.635343257442251">
        <ele>505.44</ele>
        <time>2024-09-25T11:10:50Z</time>
      </trkpt>
      <trkpt lon="78.518131443569771" lat="17.635344932563314">
        <ele>505.436</ele>
        <time>2024-09-25T11:10:50Z</time>
      </trkpt>
      <trkpt lon="78.518132479422945" lat="17.635346610588385">
        <ele>505.433</ele>
        <time>2024-09-25T11:10:50Z</time>
      </trkpt>
      <trkpt lon="78.518133516556503" lat="17.635348291496257">
        <ele>505.431</ele>
        <time>2024-09-25T11:10:50Z</time>
      </trkpt>
      <trkpt lon="78.51813455497475" lat="17.635349975170818">
        <ele>505.428</ele>
        <time>2024-09-25T11:10:50Z</time>
      </trkpt>
      <trkpt lon="78.518135594636277" lat="17.635351661428466">
        <ele>505.427</ele>
        <time>2024-09-25T11:10:50Z</time>
      </trkpt>
      <trkpt lon="78.518136635466732" lat="17.635353350041079">
        <ele>505.425</ele>
        <time>2024-09-25T11:10:50Z</time>
      </trkpt>
      <trkpt lon="78.518137677369452" lat="17.635355040754924">
        <ele>505.424</ele>
        <time>2024-09-25T11:10:50Z</time>
      </trkpt>
      <trkpt lon="78.518138720234319" lat="17.635356733305745">
        <ele>505.423</ele>
        <time>2024-09-25T11:10:50Z</time>
      </trkpt>
      <trkpt lon="78.518140083343511" lat="17.635359007423187">
        <ele>505.445</ele>
        <time>2024-09-25T11:10:51Z</time>
      </trkpt>
      <trkpt lon="78.518141422414359" lat="17.635361294639427">
        <ele>505.463</ele>
        <time>2024-09-25T11:10:51Z</time>
      </trkpt>
      <trkpt lon="78.518142736346988" lat="17.635363584000817">
        <ele>505.479</ele>
        <time>2024-09-25T11:10:51Z</time>
      </trkpt>
      <trkpt lon="78.51814402518535" lat="17.635365867175825">
        <ele>505.491</ele>
        <time>2024-09-25T11:10:51Z</time>
      </trkpt>
      <trkpt lon="78.518145289834067" lat="17.635368138098862">
        <ele>505.501</ele>
        <time>2024-09-25T11:10:51Z</time>
      </trkpt>
      <trkpt lon="78.518146531815134" lat="17.635370392623091">
        <ele>505.508</ele>
        <time>2024-09-25T11:10:51Z</time>
      </trkpt>
      <trkpt lon="78.51814775306309" lat="17.635372628192073">
        <ele>505.514</ele>
        <time>2024-09-25T11:10:51Z</time>
      </trkpt>
      <trkpt lon="78.518148955756232" lat="17.635374843537026">
        <ele>505.518</ele>
        <time>2024-09-25T11:10:51Z</time>
      </trkpt>
      <trkpt lon="78.518150142181042" lat="17.635377038403885">
        <ele>505.52</ele>
        <time>2024-09-25T11:10:51Z</time>
      </trkpt>
      <trkpt lon="78.518151314626024" lat="17.635379213312305">
        <ele>505.521</ele>
        <time>2024-09-25T11:10:51Z</time>
      </trkpt>
      <trkpt lon="78.518152475301846" lat="17.635381369347161">
        <ele>505.521</ele>
        <time>2024-09-25T11:10:51Z</time>
      </trkpt>
      <trkpt lon="78.518153626283635" lat="17.635383507981704">
        <ele>505.521</ele>
        <time>2024-09-25T11:10:51Z</time>
      </trkpt>
      <trkpt lon="78.518154769472346" lat="17.635385630930784">
        <ele>505.52</ele>
        <time>2024-09-25T11:10:51Z</time>
      </trkpt>
      <trkpt lon="78.518155906571593" lat="17.635387740031828">
        <ele>505.519</ele>
        <time>2024-09-25T11:10:51Z</time>
      </trkpt>
      <trkpt lon="78.518157039077067" lat="17.635389837150843">
        <ele>505.518</ele>
        <time>2024-09-25T11:10:51Z</time>
      </trkpt>
      <trkpt lon="78.518158168275747" lat="17.635391924110582">
        <ele>505.516</ele>
        <time>2024-09-25T11:10:51Z</time>
      </trkpt>
      <trkpt lon="78.518159295252659" lat="17.635394002637881">
        <ele>505.514</ele>
        <time>2024-09-25T11:10:51Z</time>
      </trkpt>
      <trkpt lon="78.518160420902859" lat="17.635396074327314">
        <ele>505.513</ele>
        <time>2024-09-25T11:10:51Z</time>
      </trkpt>
      <trkpt lon="78.518161545947137" lat="17.63539814061836">
        <ele>505.511</ele>
        <time>2024-09-25T11:10:51Z</time>
      </trkpt>
      <trkpt lon="78.518162670949877" lat="17.635400202783604">
        <ele>505.51</ele>
        <time>2024-09-25T11:10:51Z</time>
      </trkpt>
      <trkpt lon="78.51816379633793" lat="17.635402261925631">
        <ele>505.509</ele>
        <time>2024-09-25T11:10:51Z</time>
      </trkpt>
      <trkpt lon="78.518164922419743" lat="17.635404318980566">
        <ele>505.507</ele>
        <time>2024-09-25T11:10:51Z</time>
      </trkpt>
      <trkpt lon="78.518166049403675" lat="17.635406374726575">
        <ele>505.507</ele>
        <time>2024-09-25T11:10:51Z</time>
      </trkpt>
      <trkpt lon="78.518167177415506" lat="17.635408429795696">
        <ele>505.506</ele>
        <time>2024-09-25T11:10:51Z</time>
      </trkpt>
      <trkpt lon="78.518168306514326" lat="17.635410484687885">
        <ele>505.505</ele>
        <time>2024-09-25T11:10:51Z</time>
      </trkpt>
      <trkpt lon="78.518169436706927" lat="17.635412539786156">
        <ele>505.504</ele>
        <time>2024-09-25T11:10:51Z</time>
      </trkpt>
      <trkpt lon="78.518170567960468" lat="17.635414595372076">
        <ele>505.504</ele>
        <time>2024-09-25T11:10:51Z</time>
      </trkpt>
      <trkpt lon="78.51817170021333" lat="17.635416651640963">
        <ele>505.504</ele>
        <time>2024-09-25T11:10:51Z</time>
      </trkpt>
      <trkpt lon="78.518172833384341" lat="17.635418708716323">
        <ele>505.503</ele>
        <time>2024-09-25T11:10:51Z</time>
      </trkpt>
      <trkpt lon="78.518174248106632" lat="17.63542128466765">
        <ele>505.492</ele>
        <time>2024-09-25T11:10:52Z</time>
      </trkpt>
      <trkpt lon="78.518175580728894" lat="17.635423718047036">
        <ele>505.482</ele>
        <time>2024-09-25T11:10:52Z</time>
      </trkpt>
      <trkpt lon="78.518176839888113" lat="17.635426023484897">
        <ele>505.474</ele>
        <time>2024-09-25T11:10:52Z</time>
      </trkpt>
      <trkpt lon="78.518178034646226" lat="17.635428216453157">
        <ele>505.468</ele>
        <time>2024-09-25T11:10:52Z</time>
      </trkpt>
      <trkpt lon="78.51817917407088" lat="17.635430312520761">
        <ele>505.463</ele>
        <time>2024-09-25T11:10:52Z</time>
      </trkpt>
      <trkpt lon="78.51818026691906" lat="17.635432326789076">
        <ele>505.459</ele>
        <time>2024-09-25T11:10:52Z</time>
      </trkpt>
      <trkpt lon="78.5181813214095" lat="17.635434273482559">
        <ele>505.457</ele>
        <time>2024-09-25T11:10:52Z</time>
      </trkpt>
      <trkpt lon="78.518182345069732" lat="17.63543616567064">
        <ele>505.455</ele>
        <time>2024-09-25T11:10:52Z</time>
      </trkpt>
      <trkpt lon="78.518183344644825" lat="17.635438015098178">
        <ele>505.454</ele>
        <time>2024-09-25T11:10:52Z</time>
      </trkpt>
      <trkpt lon="78.51818432605576" lat="17.635439832103657">
        <ele>505.454</ele>
        <time>2024-09-25T11:10:52Z</time>
      </trkpt>
      <trkpt lon="78.518185294396702" lat="17.635441625606376">
        <ele>505.454</ele>
        <time>2024-09-25T11:10:52Z</time>
      </trkpt>
      <trkpt lon="78.518186253961602" lat="17.63544340314607">
        <ele>505.454</ele>
        <time>2024-09-25T11:10:52Z</time>
      </trkpt>
      <trkpt lon="78.518187208292119" lat="17.635445170960686">
        <ele>505.455</ele>
        <time>2024-09-25T11:10:52Z</time>
      </trkpt>
      <trkpt lon="78.518188160239774" lat="17.635446934090236">
        <ele>505.455</ele>
        <time>2024-09-25T11:10:52Z</time>
      </trkpt>
      <trkpt lon="78.51818911203685" lat="17.63544869649666">
        <ele>505.456</ele>
        <time>2024-09-25T11:10:52Z</time>
      </trkpt>
      <trkpt lon="78.5181900653713" lat="17.635450461191642">
        <ele>505.457</ele>
        <time>2024-09-25T11:10:52Z</time>
      </trkpt>
      <trkpt lon="78.518191021462158" lat="17.635452230365964">
        <ele>505.458</ele>
        <time>2024-09-25T11:10:52Z</time>
      </trkpt>
      <trkpt lon="78.518191981132603" lat="17.635454005515502">
        <ele>505.459</ele>
        <time>2024-09-25T11:10:52Z</time>
      </trkpt>
      <trkpt lon="78.518192944878834" lat="17.635455787560364">
        <ele>505.46</ele>
        <time>2024-09-25T11:10:52Z</time>
      </trkpt>
      <trkpt lon="78.51819391293337" lat="17.635457576954664">
        <ele>505.461</ele>
        <time>2024-09-25T11:10:52Z</time>
      </trkpt>
      <trkpt lon="78.518194885321876" lat="17.635459373785494">
        <ele>505.461</ele>
        <time>2024-09-25T11:10:52Z</time>
      </trkpt>
      <trkpt lon="78.518195861913128" lat="17.635461177860233">
        <ele>505.462</ele>
        <time>2024-09-25T11:10:52Z</time>
      </trkpt>
      <trkpt lon="78.518196842462316" lat="17.635462988782105">
        <ele>505.462</ele>
        <time>2024-09-25T11:10:52Z</time>
      </trkpt>
      <trkpt lon="78.518197826647395" lat="17.635464806014227">
        <ele>505.463</ele>
        <time>2024-09-25T11:10:52Z</time>
      </trkpt>
      <trkpt lon="78.51819881409935" lat="17.635466628932733">
        <ele>505.463</ele>
        <time>2024-09-25T11:10:52Z</time>
      </trkpt>
      <trkpt lon="78.518199804426573" lat="17.635468456869866">
        <ele>505.463</ele>
        <time>2024-09-25T11:10:52Z</time>
      </trkpt>
      <trkpt lon="78.518200797233973" lat="17.635470289147968">
        <ele>505.464</ele>
        <time>2024-09-25T11:10:52Z</time>
      </trkpt>
      <trkpt lon="78.518201792137617" lat="17.635472125105444">
        <ele>505.464</ele>
        <time>2024-09-25T11:10:52Z</time>
      </trkpt>
      <trkpt lon="78.518202788775284" lat="17.635473964115803">
        <ele>505.464</ele>
        <time>2024-09-25T11:10:52Z</time>
      </trkpt>
      <trkpt lon="78.518204038231218" lat="17.635476320796023">
        <ele>505.274</ele>
        <time>2024-09-25T11:10:53Z</time>
      </trkpt>
      <trkpt lon="78.518205219935311" lat="17.635478595587589">
        <ele>505.114</ele>
        <time>2024-09-25T11:10:53Z</time>
      </trkpt>
      <trkpt lon="78.518206340610035" lat="17.635480793341952">
        <ele>504.982</ele>
        <time>2024-09-25T11:10:53Z</time>
      </trkpt>
      <trkpt lon="78.518207407442418" lat="17.635482920391635">
        <ele>504.875</ele>
        <time>2024-09-25T11:10:53Z</time>
      </trkpt>
      <trkpt lon="78.518208427720054" lat="17.635484983965707">
        <ele>504.792</ele>
        <time>2024-09-25T11:10:53Z</time>
      </trkpt>
      <trkpt lon="78.518209408553204" lat="17.635486991717986">
        <ele>504.729</ele>
        <time>2024-09-25T11:10:53Z</time>
      </trkpt>
      <trkpt lon="78.518210356671588" lat="17.635488951356688">
        <ele>504.684</ele>
        <time>2024-09-25T11:10:53Z</time>
      </trkpt>
      <trkpt lon="78.51821127828434" lat="17.635490870363309">
        <ele>504.653</ele>
        <time>2024-09-25T11:10:53Z</time>
      </trkpt>
      <trkpt lon="78.518212178992485" lat="17.635492755788643">
        <ele>504.635</ele>
        <time>2024-09-25T11:10:53Z</time>
      </trkpt>
      <trkpt lon="78.51821306374417" lat="17.635494614113927">
        <ele>504.626</ele>
        <time>2024-09-25T11:10:53Z</time>
      </trkpt>
      <trkpt lon="78.518213936823543" lat="17.635496451165981">
        <ele>504.625</ele>
        <time>2024-09-25T11:10:53Z</time>
      </trkpt>
      <trkpt lon="78.518214801865426" lat="17.635498272075949">
        <ele>504.63</ele>
        <time>2024-09-25T11:10:53Z</time>
      </trkpt>
      <trkpt lon="78.518215661888945" lat="17.635500081272358">
        <ele>504.639</ele>
        <time>2024-09-25T11:10:53Z</time>
      </trkpt>
      <trkpt lon="78.51821651934425" lat="17.635501882500314">
        <ele>504.651</ele>
        <time>2024-09-25T11:10:53Z</time>
      </trkpt>
      <trkpt lon="78.518217376167485" lat="17.635503678859664">
        <ele>504.665</ele>
        <time>2024-09-25T11:10:53Z</time>
      </trkpt>
      <trkpt lon="78.518218233840074" lat="17.635505472856206">
        <ele>504.68</ele>
        <time>2024-09-25T11:10:53Z</time>
      </trkpt>
      <trkpt lon="78.518219093449289" lat="17.635507266460912">
        <ele>504.694</ele>
        <time>2024-09-25T11:10:53Z</time>
      </trkpt>
      <trkpt lon="78.518219955747441" lat="17.635509061173131">
        <ele>504.709</ele>
        <time>2024-09-25T11:10:53Z</time>
      </trkpt>
      <trkpt lon="78.518220821208246" lat="17.635510858084636">
        <ele>504.722</ele>
        <time>2024-09-25T11:10:53Z</time>
      </trkpt>
      <trkpt lon="78.518221690078988" lat="17.635512657942051">
        <ele>504.735</ele>
        <time>2024-09-25T11:10:53Z</time>
      </trkpt>
      <trkpt lon="78.518222562427638" lat="17.635514461205872">
        <ele>504.746</ele>
        <time>2024-09-25T11:10:53Z</time>
      </trkpt>
      <trkpt lon="78.518223438184648" lat="17.635516268104929">
        <ele>504.756</ele>
        <time>2024-09-25T11:10:53Z</time>
      </trkpt>
      <trkpt lon="78.518224317179232" lat="17.635518078685479">
        <ele>504.764</ele>
        <time>2024-09-25T11:10:53Z</time>
      </trkpt>
      <trkpt lon="78.518225199170189" lat="17.635519892854525">
        <ele>504.771</ele>
        <time>2024-09-25T11:10:53Z</time>
      </trkpt>
      <trkpt lon="78.518226083871653" lat="17.635521710417347">
        <ele>504.777</ele>
        <time>2024-09-25T11:10:53Z</time>
      </trkpt>
      <trkpt lon="78.518226970973998" lat="17.635523531109296">
        <ele>504.782</ele>
        <time>2024-09-25T11:10:53Z</time>
      </trkpt>
      <trkpt lon="78.518227860160437" lat="17.635525354622207">
        <ele>504.786</ele>
        <time>2024-09-25T11:10:53Z</time>
      </trkpt>
      <trkpt lon="78.518228751119807" lat="17.635527180625811">
        <ele>504.789</ele>
        <time>2024-09-25T11:10:53Z</time>
      </trkpt>
      <trkpt lon="78.518229643555955" lat="17.635529008784644">
        <ele>504.791</ele>
        <time>2024-09-25T11:10:53Z</time>
      </trkpt>
      <trkpt lon="78.518230826628866" lat="17.635531333927752">
        <ele>504.576</ele>
        <time>2024-09-25T11:10:54Z</time>
      </trkpt>
      <trkpt lon="78.518232003148725" lat="17.635533562668847">
        <ele>504.395</ele>
        <time>2024-09-25T11:10:54Z</time>
      </trkpt>
      <trkpt lon="78.518233169651879" lat="17.6355357025543">
        <ele>504.245</ele>
        <time>2024-09-25T11:10:54Z</time>
      </trkpt>
      <trkpt lon="78.518234323875248" lat="17.635537762358545">
        <ele>504.124</ele>
        <time>2024-09-25T11:10:54Z</time>
      </trkpt>
      <trkpt lon="78.518235464539345" lat="17.63553975147703">
        <ele>504.029</ele>
        <time>2024-09-25T11:10:54Z</time>
      </trkpt>
      <trkpt lon="78.518236591150554" lat="17.635541679447037">
        <ele>503.957</ele>
        <time>2024-09-25T11:10:54Z</time>
      </trkpt>
      <trkpt lon="78.518237703824852" lat="17.635543555581553">
        <ele>503.905</ele>
        <time>2024-09-25T11:10:54Z</time>
      </trkpt>
      <trkpt lon="78.51823880313367" lat="17.635545388701033">
        <ele>503.869</ele>
        <time>2024-09-25T11:10:54Z</time>
      </trkpt>
      <trkpt lon="78.518239889971923" lat="17.635547186948351">
        <ele>503.848</ele>
        <time>2024-09-25T11:10:54Z</time>
      </trkpt>
      <trkpt lon="78.518240965447319" lat="17.635548957672814">
        <ele>503.837</ele>
        <time>2024-09-25T11:10:54Z</time>
      </trkpt>
      <trkpt lon="78.518242030789466" lat="17.635550707370278">
        <ele>503.836</ele>
        <time>2024-09-25T11:10:54Z</time>
      </trkpt>
      <trkpt lon="78.518243087277199" lat="17.635552441667674">
        <ele>503.841</ele>
        <time>2024-09-25T11:10:54Z</time>
      </trkpt>
      <trkpt lon="78.518244136182034" lat="17.635554165341492">
        <ele>503.851</ele>
        <time>2024-09-25T11:10:54Z</time>
      </trkpt>
      <trkpt lon="78.518245178725763" lat="17.635555882361281">
        <ele>503.864</ele>
        <time>2024-09-25T11:10:54Z</time>
      </trkpt>
      <trkpt lon="78.518246216050358" lat="17.635557595950424">
        <ele>503.879</ele>
        <time>2024-09-25T11:10:54Z</time>
      </trkpt>
      <trkpt lon="78.51824724919787" lat="17.635559308657911">
        <ele>503.895</ele>
        <time>2024-09-25T11:10:54Z</time>
      </trkpt>
      <trkpt lon="78.518248279098913" lat="17.635561022435819">
        <ele>503.912</ele>
        <time>2024-09-25T11:10:54Z</time>
      </trkpt>
      <trkpt lon="78.518249306567725" lat="17.635562738718495">
        <ele>503.928</ele>
        <time>2024-09-25T11:10:54Z</time>
      </trkpt>
      <trkpt lon="78.518250332302557" lat="17.63556445850017">
        <ele>503.943</ele>
        <time>2024-09-25T11:10:54Z</time>
      </trkpt>
      <trkpt lon="78.518251356890005" lat="17.635566182408798">
        <ele>503.957</ele>
        <time>2024-09-25T11:10:54Z</time>
      </trkpt>
      <trkpt lon="78.518252380812072" lat="17.635567910774419">
        <ele>503.97</ele>
        <time>2024-09-25T11:10:54Z</time>
      </trkpt>
      <trkpt lon="78.518253404455237" lat="17.635569643691031">
        <ele>503.981</ele>
        <time>2024-09-25T11:10:54Z</time>
      </trkpt>
      <trkpt lon="78.518254428120485" lat="17.63557138107144">
        <ele>503.991</ele>
        <time>2024-09-25T11:10:54Z</time>
      </trkpt>
      <trkpt lon="78.518255452033969" lat="17.635573122694893">
        <ele>503.999</ele>
        <time>2024-09-25T11:10:54Z</time>
      </trkpt>
      <trkpt lon="78.51825647635755" lat="17.635574868247637">
        <ele>504.006</ele>
        <time>2024-09-25T11:10:54Z</time>
      </trkpt>
      <trkpt lon="78.51825750119896" lat="17.635576617356687">
        <ele>504.011</ele>
        <time>2024-09-25T11:10:54Z</time>
      </trkpt>
      <trkpt lon="78.518258526621437" lat="17.635578369617377">
        <ele>504.015</ele>
        <time>2024-09-25T11:10:54Z</time>
      </trkpt>
      <trkpt lon="78.518259552652495" lat="17.635580124615213">
        <ele>504.019</ele>
        <time>2024-09-25T11:10:54Z</time>
      </trkpt>
      <trkpt lon="78.518260579291706" lat="17.635581881942684">
        <ele>504.021</ele>
        <time>2024-09-25T11:10:54Z</time>
      </trkpt>
      <trkpt lon="78.518261842110419" lat="17.635584030183182">
        <ele>504.299</ele>
        <time>2024-09-25T11:10:55Z</time>
      </trkpt>
      <trkpt lon="78.518263014582502" lat="17.635586012640754">
        <ele>504.533</ele>
        <time>2024-09-25T11:10:55Z</time>
      </trkpt>
      <trkpt lon="78.51826410735714" lat="17.63558784936788">
        <ele>504.726</ele>
        <time>2024-09-25T11:10:55Z</time>
      </trkpt>
      <trkpt lon="78.518265131229697" lat="17.635589560541511">
        <ele>504.88</ele>
        <time>2024-09-25T11:10:55Z</time>
      </trkpt>
      <trkpt lon="78.51826609673077" lat="17.635591165731693">
        <ele>505.001</ele>
        <time>2024-09-25T11:10:55Z</time>
      </trkpt>
      <trkpt lon="78.518267013825664" lat="17.635592683371335">
        <ele>505.092</ele>
        <time>2024-09-25T11:10:55Z</time>
      </trkpt>
      <trkpt lon="78.518267891707509" lat="17.635594130395994">
        <ele>505.158</ele>
        <time>2024-09-25T11:10:55Z</time>
      </trkpt>
      <trkpt lon="78.518268738668027" lat="17.635595522024349">
        <ele>505.201</ele>
        <time>2024-09-25T11:10:55Z</time>
      </trkpt>
      <trkpt lon="78.518269562031534" lat="17.635596871652336">
        <ele>505.228</ele>
        <time>2024-09-25T11:10:55Z</time>
      </trkpt>
      <trkpt lon="78.518270368138701" lat="17.635598190836649">
        <ele>505.239</ele>
        <time>2024-09-25T11:10:55Z</time>
      </trkpt>
      <trkpt lon="78.518271162368549" lat="17.635599489346184">
        <ele>505.24</ele>
        <time>2024-09-25T11:10:55Z</time>
      </trkpt>
      <trkpt lon="78.518271949188332" lat="17.635600775262905">
        <ele>505.232</ele>
        <time>2024-09-25T11:10:55Z</time>
      </trkpt>
      <trkpt lon="78.518272732222883" lat="17.635602055116451">
        <ele>505.218</ele>
        <time>2024-09-25T11:10:55Z</time>
      </trkpt>
      <trkpt lon="78.518273514336101" lat="17.635603334039541">
        <ele>505.2</ele>
        <time>2024-09-25T11:10:55Z</time>
      </trkpt>
      <trkpt lon="78.518274297718875" lat="17.635604615933609">
        <ele>505.179</ele>
        <time>2024-09-25T11:10:55Z</time>
      </trkpt>
      <trkpt lon="78.518275083978594" lat="17.635605903636439">
        <ele>505.158</ele>
        <time>2024-09-25T11:10:55Z</time>
      </trkpt>
      <trkpt lon="78.518275874227044" lat="17.635607199085463">
        <ele>505.136</ele>
        <time>2024-09-25T11:10:55Z</time>
      </trkpt>
      <trkpt lon="78.518276669163782" lat="17.635608503472127">
        <ele>505.115</ele>
        <time>2024-09-25T11:10:55Z</time>
      </trkpt>
      <trkpt lon="78.518277469153318" lat="17.635609817384179">
        <ele>505.095</ele>
        <time>2024-09-25T11:10:55Z</time>
      </trkpt>
      <trkpt lon="78.518278274294971" lat="17.635611140933843">
        <ele>505.076</ele>
        <time>2024-09-25T11:10:55Z</time>
      </trkpt>
      <trkpt lon="78.518279084484647" lat="17.635612473871031">
        <ele>505.06</ele>
        <time>2024-09-25T11:10:55Z</time>
      </trkpt>
      <trkpt lon="78.518279899468567" lat="17.635613815681193">
        <ele>505.046</ele>
        <time>2024-09-25T11:10:55Z</time>
      </trkpt>
      <trkpt lon="78.51828071888896" lat="17.635615165668305">
        <ele>505.033</ele>
        <time>2024-09-25T11:10:55Z</time>
      </trkpt>
      <trkpt lon="78.518281542322029" lat="17.635616523023714">
        <ele>505.023</ele>
        <time>2024-09-25T11:10:55Z</time>
      </trkpt>
      <trkpt lon="78.518282369308963" lat="17.635617886881956">
        <ele>505.014</ele>
        <time>2024-09-25T11:10:55Z</time>
      </trkpt>
      <trkpt lon="78.518283199380491" lat="17.635619256364791">
        <ele>505.007</ele>
        <time>2024-09-25T11:10:55Z</time>
      </trkpt>
      <trkpt lon="78.518284032075726" lat="17.635620630614852">
        <ele>505.001</ele>
        <time>2024-09-25T11:10:55Z</time>
      </trkpt>
      <trkpt lon="78.518284866956137" lat="17.635622008820278">
        <ele>504.997</ele>
        <time>2024-09-25T11:10:55Z</time>
      </trkpt>
      <trkpt lon="78.518285703615263" lat="17.635623390231714">
        <ele>504.994</ele>
        <time>2024-09-25T11:10:55Z</time>
      </trkpt>
      <trkpt lon="78.518286732050626" lat="17.635625127000232">
        <ele>505.297</ele>
        <time>2024-09-25T11:10:56Z</time>
      </trkpt>
      <trkpt lon="78.518287686401351" lat="17.635626774062462">
        <ele>505.552</ele>
        <time>2024-09-25T11:10:56Z</time>
      </trkpt>
      <trkpt lon="78.518288575296964" lat="17.635628339921489">
        <ele>505.763</ele>
        <time>2024-09-25T11:10:56Z</time>
      </trkpt>
      <trkpt lon="78.518289407515724" lat="17.635629833807172">
        <ele>505.933</ele>
        <time>2024-09-25T11:10:56Z</time>
      </trkpt>
      <trkpt lon="78.518290191643132" lat="17.635631265176695">
        <ele>506.067</ele>
        <time>2024-09-25T11:10:56Z</time>
      </trkpt>
      <trkpt lon="78.518290935821284" lat="17.635632643330148">
        <ele>506.168</ele>
        <time>2024-09-25T11:10:56Z</time>
      </trkpt>
      <trkpt lon="78.518291647575154" lat="17.635633977126229">
        <ele>506.242</ele>
        <time>2024-09-25T11:10:56Z</time>
      </trkpt>
      <trkpt lon="78.5182923337033" lat="17.635635274783247">
        <ele>506.292</ele>
        <time>2024-09-25T11:10:56Z</time>
      </trkpt>
      <trkpt lon="78.51829300022051" lat="17.635636543751378">
        <ele>506.322</ele>
        <time>2024-09-25T11:10:56Z</time>
      </trkpt>
      <trkpt lon="78.518293652341896" lat="17.635637790643003">
        <ele>506.337</ele>
        <time>2024-09-25T11:10:56Z</time>
      </trkpt>
      <trkpt lon="78.518294294498645" lat="17.635639021209339">
        <ele>506.339</ele>
        <time>2024-09-25T11:10:56Z</time>
      </trkpt>
      <trkpt lon="78.518294930377138" lat="17.635640240352704">
        <ele>506.332</ele>
        <time>2024-09-25T11:10:56Z</time>
      </trkpt>
      <trkpt lon="78.518295562974231" lat="17.635641452165252">
        <ele>506.318</ele>
        <time>2024-09-25T11:10:56Z</time>
      </trkpt>
      <trkpt lon="78.518296194662994" lat="17.635642659986303">
        <ele>506.3</ele>
        <time>2024-09-25T11:10:56Z</time>
      </trkpt>
      <trkpt lon="78.518296827263782" lat="17.63564386647171">
        <ele>506.278</ele>
        <time>2024-09-25T11:10:56Z</time>
      </trkpt>
      <trkpt lon="78.518297462117189" lat="17.635645073669881">
        <ele>506.255</ele>
        <time>2024-09-25T11:10:56Z</time>
      </trkpt>
      <trkpt lon="78.518298100155505" lat="17.635646283100179">
        <ele>506.232</ele>
        <time>2024-09-25T11:10:56Z</time>
      </trkpt>
      <trkpt lon="78.518298741970924" lat="17.635647495830415">
        <ele>506.21</ele>
        <time>2024-09-25T11:10:56Z</time>
      </trkpt>
      <trkpt lon="78.518299387878642" lat="17.63564871255091">
        <ele>506.188</ele>
        <time>2024-09-25T11:10:56Z</time>
      </trkpt>
      <trkpt lon="78.518300037974157" lat="17.635649933643464">
        <ele>506.169</ele>
        <time>2024-09-25T11:10:56Z</time>
      </trkpt>
      <trkpt lon="78.518300692184027" lat="17.635651159244045">
        <ele>506.151</ele>
        <time>2024-09-25T11:10:56Z</time>
      </trkpt>
      <trkpt lon="78.518301350309983" lat="17.635652389298588">
        <ele>506.135</ele>
        <time>2024-09-25T11:10:56Z</time>
      </trkpt>
      <trkpt lon="78.518302012066584" lat="17.63565362361166">
        <ele>506.122</ele>
        <time>2024-09-25T11:10:56Z</time>
      </trkpt>
      <trkpt lon="78.518302677112558" lat="17.635654861888042">
        <ele>506.11</ele>
        <time>2024-09-25T11:10:56Z</time>
      </trkpt>
      <trkpt lon="78.518303345076419" lat="17.635656103767555">
        <ele>506.101</ele>
        <time>2024-09-25T11:10:56Z</time>
      </trkpt>
      <trkpt lon="78.518304015576803" lat="17.635657348853549">
        <ele>506.093</ele>
        <time>2024-09-25T11:10:56Z</time>
      </trkpt>
      <trkpt lon="78.518304688238132" lat="17.635658596735677">
        <ele>506.087</ele>
        <time>2024-09-25T11:10:56Z</time>
      </trkpt>
      <trkpt lon="78.51830536270225" lat="17.635659847007496">
        <ele>506.082</ele>
        <time>2024-09-25T11:10:56Z</time>
      </trkpt>
      <trkpt lon="78.518306038636553" lat="17.635661099279634">
        <ele>506.079</ele>
        <time>2024-09-25T11:10:56Z</time>
      </trkpt>
      <trkpt lon="78.518306996184521" lat="17.635662835704782">
        <ele>506.28</ele>
        <time>2024-09-25T11:10:57Z</time>
      </trkpt>
      <trkpt lon="78.518308000602715" lat="17.635664627232902">
        <ele>506.45</ele>
        <time>2024-09-25T11:10:57Z</time>
      </trkpt>
      <trkpt lon="78.518309040141105" lat="17.635666457733361">
        <ele>506.591</ele>
        <time>2024-09-25T11:10:57Z</time>
      </trkpt>
      <trkpt lon="78.518310104722616" lat="17.63566831369317">
        <ele>506.704</ele>
        <time>2024-09-25T11:10:57Z</time>
      </trkpt>
      <trkpt lon="78.518311185881302" lat="17.635670184041849">
        <ele>506.794</ele>
        <time>2024-09-25T11:10:57Z</time>
      </trkpt>
      <trkpt lon="78.518312276659685" lat="17.635672059934588">
        <ele>506.862</ele>
        <time>2024-09-25T11:10:57Z</time>
      </trkpt>
      <trkpt lon="78.518313371478996" lat="17.635673934511484">
        <ele>506.911</ele>
        <time>2024-09-25T11:10:57Z</time>
      </trkpt>
      <trkpt lon="78.518314465993569" lat="17.635675802647143">
        <ele>506.945</ele>
        <time>2024-09-25T11:10:57Z</time>
      </trkpt>
      <trkpt lon="78.518315556938134" lat="17.635677660701653">
        <ele>506.966</ele>
        <time>2024-09-25T11:10:57Z</time>
      </trkpt>
      <trkpt lon="78.518316641975289" lat="17.635679506281303">
        <ele>506.976</ele>
        <time>2024-09-25T11:10:57Z</time>
      </trkpt>
      <trkpt lon="78.518317719548207" lat="17.635681338014923">
        <ele>506.978</ele>
        <time>2024-09-25T11:10:57Z</time>
      </trkpt>
      <trkpt lon="78.518318788742548" lat="17.635683155349749">
        <ele>506.973</ele>
        <time>2024-09-25T11:10:57Z</time>
      </trkpt>
      <trkpt lon="78.518319849160065" lat="17.635684958369165">
        <ele>506.964</ele>
        <time>2024-09-25T11:10:57Z</time>
      </trkpt>
      <trkpt lon="78.518320900805335" lat="17.635686747633184">
        <ele>506.952</ele>
        <time>2024-09-25T11:10:57Z</time>
      </trkpt>
      <trkpt lon="78.518321943986493" lat="17.635688524041665">
        <ele>506.938</ele>
        <time>2024-09-25T11:10:57Z</time>
      </trkpt>
      <trkpt lon="78.518322979229737" lat="17.635690288719395">
        <ele>506.923</ele>
        <time>2024-09-25T11:10:57Z</time>
      </trkpt>
      <trkpt lon="78.518324007207426" lat="17.635692042921654">
        <ele>506.908</ele>
        <time>2024-09-25T11:10:57Z</time>
      </trkpt>
      <trkpt lon="78.518325028678703" lat="17.635693787958495">
        <ele>506.893</ele>
        <time>2024-09-25T11:10:57Z</time>
      </trkpt>
      <trkpt lon="78.518326044441778" lat="17.635695525135763">
        <ele>506.879</ele>
        <time>2024-09-25T11:10:57Z</time>
      </trkpt>
      <trkpt lon="78.518327055296623" lat="17.635697255710774">
        <ele>506.866</ele>
        <time>2024-09-25T11:10:57Z</time>
      </trkpt>
      <trkpt lon="78.518328062016693" lat="17.635698980860614">
        <ele>506.854</ele>
        <time>2024-09-25T11:10:57Z</time>
      </trkpt>
      <trkpt lon="78.518329065328643" lat="17.635700701660983">
        <ele>506.843</ele>
        <time>2024-09-25T11:10:57Z</time>
      </trkpt>
      <trkpt lon="78.518330065898581" lat="17.63570241907383">
        <ele>506.834</ele>
        <time>2024-09-25T11:10:57Z</time>
      </trkpt>
      <trkpt lon="78.518331064323888" lat="17.635704133941921">
        <ele>506.827</ele>
        <time>2024-09-25T11:10:57Z</time>
      </trkpt>
      <trkpt lon="78.518332061129357" lat="17.63570584698893">
        <ele>506.82</ele>
        <time>2024-09-25T11:10:57Z</time>
      </trkpt>
      <trkpt lon="78.518333056766807" lat="17.635707558823615">
        <ele>506.815</ele>
        <time>2024-09-25T11:10:57Z</time>
      </trkpt>
      <trkpt lon="78.51833405161743" lat="17.635709269946972">
        <ele>506.811</ele>
        <time>2024-09-25T11:10:57Z</time>
      </trkpt>
      <trkpt lon="78.518335045995869" lat="17.635710980761356">
        <ele>506.808</ele>
        <time>2024-09-25T11:10:57Z</time>
      </trkpt>
      <trkpt lon="78.518336040155731" lat="17.635712691580807">
        <ele>506.806</ele>
        <time>2024-09-25T11:10:57Z</time>
      </trkpt>
      <trkpt lon="78.518337304347213" lat="17.635714884502079">
        <ele>506.619</ele>
        <time>2024-09-25T11:10:58Z</time>
      </trkpt>
      <trkpt lon="78.51833851580065" lat="17.635717001390262">
        <ele>506.463</ele>
        <time>2024-09-25T11:10:58Z</time>
      </trkpt>
      <trkpt lon="78.518339678812907" lat="17.635719047017911">
        <ele>506.334</ele>
        <time>2024-09-25T11:10:58Z</time>
      </trkpt>
      <trkpt lon="78.518340798305331" lat="17.635721027457464">
        <ele>506.23</ele>
        <time>2024-09-25T11:10:58Z</time>
      </trkpt>
      <trkpt lon="78.518341879499118" lat="17.635722949550335">
        <ele>506.15</ele>
        <time>2024-09-25T11:10:58Z</time>
      </trkpt>
      <trkpt lon="78.518342927660171" lat="17.635724820480011">
        <ele>506.089</ele>
        <time>2024-09-25T11:10:58Z</time>
      </trkpt>
      <trkpt lon="78.51834394790518" lat="17.635726647438368">
        <ele>506.045</ele>
        <time>2024-09-25T11:10:58Z</time>
      </trkpt>
      <trkpt lon="78.518344945060704" lat="17.635728437373828">
        <ele>506.016</ele>
        <time>2024-09-25T11:10:58Z</time>
      </trkpt>
      <trkpt lon="78.51834592356694" lat="17.635730196809998">
        <ele>505.999</ele>
        <time>2024-09-25T11:10:58Z</time>
      </trkpt>
      <trkpt lon="78.518346887418645" lat="17.635731931723676">
        <ele>505.991</ele>
        <time>2024-09-25T11:10:58Z</time>
      </trkpt>
      <trkpt lon="78.518347840136101" lat="17.635733647471909">
        <ele>505.991</ele>
        <time>2024-09-25T11:10:58Z</time>
      </trkpt>
      <trkpt lon="78.518348784759596" lat="17.63573534875853">
        <ele>505.997</ele>
        <time>2024-09-25T11:10:58Z</time>
      </trkpt>
      <trkpt lon="78.518349723862045" lat="17.635737039631586">
        <ele>506.006</ele>
        <time>2024-09-25T11:10:58Z</time>
      </trkpt>
      <trkpt lon="78.518350659574708" lat="17.635738723504215">
        <ele>506.018</ele>
        <time>2024-09-25T11:10:58Z</time>
      </trkpt>
      <trkpt lon="78.518351593621873" lat="17.635740403192415">
        <ele>506.032</ele>
        <time>2024-09-25T11:10:58Z</time>
      </trkpt>
      <trkpt lon="78.518352527361174" lat="17.635742080964246">
        <ele>506.047</ele>
        <time>2024-09-25T11:10:58Z</time>
      </trkpt>
      <trkpt lon="78.518353461826734" lat="17.635743758595964">
        <ele>506.062</ele>
        <time>2024-09-25T11:10:58Z</time>
      </trkpt>
      <trkpt lon="78.518354397772853" lat="17.635745437431403">
        <ele>506.076</ele>
        <time>2024-09-25T11:10:58Z</time>
      </trkpt>
      <trkpt lon="78.518355335716706" lat="17.63574711844176">
        <ele>506.089</ele>
        <time>2024-09-25T11:10:58Z</time>
      </trkpt>
      <trkpt lon="78.518356275978761" lat="17.635748802283608">
        <ele>506.101</ele>
        <time>2024-09-25T11:10:58Z</time>
      </trkpt>
      <trkpt lon="78.518357218720112" lat="17.635750489353548">
        <ele>506.112</ele>
        <time>2024-09-25T11:10:58Z</time>
      </trkpt>
      <trkpt lon="78.518358163976075" lat="17.635752179838434">
        <ele>506.122</ele>
        <time>2024-09-25T11:10:58Z</time>
      </trkpt>
      <trkpt lon="78.518359111685939" lat="17.635753873760521">
        <ele>506.131</ele>
        <time>2024-09-25T11:10:58Z</time>
      </trkpt>
      <trkpt lon="78.518360061718738" lat="17.635755571017214">
        <ele>506.138</ele>
        <time>2024-09-25T11:10:58Z</time>
      </trkpt>
      <trkpt lon="78.518361013895046" lat="17.635757271415372">
        <ele>506.143</ele>
        <time>2024-09-25T11:10:58Z</time>
      </trkpt>
      <trkpt lon="78.518361968005166" lat="17.635758974700295">
        <ele>506.148</ele>
        <time>2024-09-25T11:10:58Z</time>
      </trkpt>
      <trkpt lon="78.518362923823901" lat="17.63576068057974">
        <ele>506.152</ele>
        <time>2024-09-25T11:10:58Z</time>
      </trkpt>
      <trkpt lon="78.518363881122113" lat="17.635762388743299">
        <ele>506.155</ele>
        <time>2024-09-25T11:10:58Z</time>
      </trkpt>
      <trkpt lon="78.518364839675741" lat="17.635764098877655">
        <ele>506.157</ele>
        <time>2024-09-25T11:10:58Z</time>
      </trkpt>
      <trkpt lon="78.518366075597427" lat="17.635766274372653">
        <ele>505.983</ele>
        <time>2024-09-25T11:10:59Z</time>
      </trkpt>
      <trkpt lon="78.51836727517761" lat="17.635768360148621">
        <ele>505.836</ele>
        <time>2024-09-25T11:10:59Z</time>
      </trkpt>
      <trkpt lon="78.518368439864545" lat="17.635770363182065">
        <ele>505.715</ele>
        <time>2024-09-25T11:10:59Z</time>
      </trkpt>
      <trkpt lon="78.518369571961756" lat="17.635772291605555">
        <ele>505.617</ele>
        <time>2024-09-25T11:10:59Z</time>
      </trkpt>
      <trkpt lon="78.518370674337461" lat="17.635774154140677">
        <ele>505.54</ele>
        <time>2024-09-25T11:10:59Z</time>
      </trkpt>
      <trkpt lon="78.518371750186006" lat="17.635775959650136">
        <ele>505.482</ele>
        <time>2024-09-25T11:10:59Z</time>
      </trkpt>
      <trkpt lon="78.518372802836552" lat="17.635777716795225">
        <ele>505.44</ele>
        <time>2024-09-25T11:10:59Z</time>
      </trkpt>
      <trkpt lon="78.518373835604365" lat="17.635779433784602">
        <ele>505.411</ele>
        <time>2024-09-25T11:10:59Z</time>
      </trkpt>
      <trkpt lon="78.518374851679013" lat="17.635781118200661">
        <ele>505.393</ele>
        <time>2024-09-25T11:10:59Z</time>
      </trkpt>
      <trkpt lon="78.518375854044606" lat="17.635782776890359">
        <ele>505.385</ele>
        <time>2024-09-25T11:10:59Z</time>
      </trkpt>
      <trkpt lon="78.518376845426701" lat="17.635784415908496">
        <ele>505.383</ele>
        <time>2024-09-25T11:10:59Z</time>
      </trkpt>
      <trkpt lon="78.518377828261322" lat="17.635786040502445">
        <ele>505.387</ele>
        <time>2024-09-25T11:10:59Z</time>
      </trkpt>
      <trkpt lon="78.518378804681603" lat="17.635787655128699">
        <ele>505.395</ele>
        <time>2024-09-25T11:10:59Z</time>
      </trkpt>
      <trkpt lon="78.51837977651833" lat="17.635789263492793">
        <ele>505.406</ele>
        <time>2024-09-25T11:10:59Z</time>
      </trkpt>
      <trkpt lon="78.518380745310751" lat="17.6357908686055">
        <ele>505.418</ele>
        <time>2024-09-25T11:10:59Z</time>
      </trkpt>
      <trkpt lon="78.518381712324882" lat="17.635792472849307">
        <ele>505.431</ele>
        <time>2024-09-25T11:10:59Z</time>
      </trkpt>
      <trkpt lon="78.518382678576842" lat="17.635794078050345">
        <ele>505.445</ele>
        <time>2024-09-25T11:10:59Z</time>
      </trkpt>
      <trkpt lon="78.518383644859057" lat="17.635795685551937">
        <ele>505.458</ele>
        <time>2024-09-25T11:10:59Z</time>
      </trkpt>
      <trkpt lon="78.518384611767829" lat="17.6357972962868">
        <ele>505.47</ele>
        <time>2024-09-25T11:10:59Z</time>
      </trkpt>
      <trkpt lon="78.518385579730875" lat="17.635798910845747">
        <ele>505.481</ele>
        <time>2024-09-25T11:10:59Z</time>
      </trkpt>
      <trkpt lon="78.518386549034048" lat="17.635800529541331">
        <ele>505.491</ele>
        <time>2024-09-25T11:10:59Z</time>
      </trkpt>
      <trkpt lon="78.518387519846243" lat="17.635802152465509">
        <ele>505.5</ele>
        <time>2024-09-25T11:10:59Z</time>
      </trkpt>
      <trkpt lon="78.518388492242394" lat="17.63580377954073">
        <ele>505.508</ele>
        <time>2024-09-25T11:10:59Z</time>
      </trkpt>
      <trkpt lon="78.518389466223951" lat="17.635805410564377">
        <ele>505.515</ele>
        <time>2024-09-25T11:10:59Z</time>
      </trkpt>
      <trkpt lon="78.518390441736983" lat="17.635807045246594">
        <ele>505.52</ele>
        <time>2024-09-25T11:10:59Z</time>
      </trkpt>
      <trkpt lon="78.518391418687628" lat="17.635808683241827">
        <ele>505.525</ele>
        <time>2024-09-25T11:10:59Z</time>
      </trkpt>
      <trkpt lon="78.518392396955221" lat="17.635810324174525">
        <ele>505.528</ele>
        <time>2024-09-25T11:10:59Z</time>
      </trkpt>
      <trkpt lon="78.51839337640304" lat="17.635811967659585">
        <ele>505.531</ele>
        <time>2024-09-25T11:10:59Z</time>
      </trkpt>
      <trkpt lon="78.518394356887043" lat="17.635813613318064">
        <ele>505.533</ele>
        <time>2024-09-25T11:10:59Z</time>
      </trkpt>
      <trkpt lon="78.518395639308267" lat="17.635815832166777">
        <ele>505.363</ele>
        <time>2024-09-25T11:11:00Z</time>
      </trkpt>
      <trkpt lon="78.518396899851751" lat="17.635818070307181">
        <ele>505.219</ele>
        <time>2024-09-25T11:11:00Z</time>
      </trkpt>
      <trkpt lon="78.518398137343937" lat="17.635820315900357">
        <ele>505.101</ele>
        <time>2024-09-25T11:11:00Z</time>
      </trkpt>
      <trkpt lon="78.518399351700751" lat="17.635822559763135">
        <ele>505.005</ele>
        <time>2024-09-25T11:11:00Z</time>
      </trkpt>
      <trkpt lon="78.518400543662267" lat="17.635824795033177">
        <ele>504.93</ele>
        <time>2024-09-25T11:11:00Z</time>
      </trkpt>
      <trkpt lon="78.518401714564121" lat="17.635827016835965">
        <ele>504.873</ele>
        <time>2024-09-25T11:11:00Z</time>
      </trkpt>
      <trkpt lon="78.518402866144555" lat="17.635829221964727">
        <ele>504.831</ele>
        <time>2024-09-25T11:11:00Z</time>
      </trkpt>
      <trkpt lon="78.518404000384862" lat="17.635831408581211">
        <ele>504.803</ele>
        <time>2024-09-25T11:11:00Z</time>
      </trkpt>
      <trkpt lon="78.518405119380787" lat="17.635833575942634">
        <ele>504.786</ele>
        <time>2024-09-25T11:11:00Z</time>
      </trkpt>
      <trkpt lon="78.518406225241563" lat="17.635835724157779">
        <ele>504.778</ele>
        <time>2024-09-25T11:11:00Z</time>
      </trkpt>
      <trkpt lon="78.518407320013338" lat="17.635837853973577">
        <ele>504.776</ele>
        <time>2024-09-25T11:11:00Z</time>
      </trkpt>
      <trkpt lon="78.518408405623632" lat="17.635839966592076">
        <ele>504.78</ele>
        <time>2024-09-25T11:11:00Z</time>
      </trkpt>
      <trkpt lon="78.518409483843612" lat="17.635842063516641">
        <ele>504.788</ele>
        <time>2024-09-25T11:11:00Z</time>
      </trkpt>
      <trkpt lon="78.518410556265053" lat="17.635844146425562">
        <ele>504.799</ele>
        <time>2024-09-25T11:11:00Z</time>
      </trkpt>
      <trkpt lon="78.518411624289271" lat="17.635846217070714">
        <ele>504.811</ele>
        <time>2024-09-25T11:11:00Z</time>
      </trkpt>
      <trkpt lon="78.518412689125284" lat="17.635848277198598">
        <ele>504.823</ele>
        <time>2024-09-25T11:11:00Z</time>
      </trkpt>
      <trkpt lon="78.518413751795208" lat="17.635850328491003">
        <ele>504.836</ele>
        <time>2024-09-25T11:11:00Z</time>
      </trkpt>
      <trkpt lon="78.51841481314473" lat="17.635852372522542">
        <ele>504.849</ele>
        <time>2024-09-25T11:11:00Z</time>
      </trkpt>
      <trkpt lon="78.518415873857222" lat="17.635854410732339">
        <ele>504.861</ele>
        <time>2024-09-25T11:11:00Z</time>
      </trkpt>
      <trkpt lon="78.518416934469954" lat="17.635856444407413">
        <ele>504.872</ele>
        <time>2024-09-25T11:11:00Z</time>
      </trkpt>
      <trkpt lon="78.518417995391374" lat="17.635858474675427">
        <ele>504.882</ele>
        <time>2024-09-25T11:11:00Z</time>
      </trkpt>
      <trkpt lon="78.518419056918646" lat="17.635860502504755">
        <ele>504.891</ele>
        <time>2024-09-25T11:11:00Z</time>
      </trkpt>
      <trkpt lon="78.518420119254756" lat="17.635862528710067">
        <ele>504.899</ele>
        <time>2024-09-25T11:11:00Z</time>
      </trkpt>
      <trkpt lon="78.518421182524634" lat="17.63586455396187">
        <ele>504.905</ele>
        <time>2024-09-25T11:11:00Z</time>
      </trkpt>
      <trkpt lon="78.518422246789996" lat="17.635866578798719">
        <ele>504.91</ele>
        <time>2024-09-25T11:11:00Z</time>
      </trkpt>
      <trkpt lon="78.518423312062822" lat="17.635868603640997">
        <ele>504.915</ele>
        <time>2024-09-25T11:11:00Z</time>
      </trkpt>
      <trkpt lon="78.518424378317135" lat="17.635870628805407">
        <ele>504.918</ele>
        <time>2024-09-25T11:11:00Z</time>
      </trkpt>
      <trkpt lon="78.518425445499275" lat="17.635872654519495">
        <ele>504.921</ele>
        <time>2024-09-25T11:11:00Z</time>
      </trkpt>
      <trkpt lon="78.518426513536582" lat="17.6358746809357">
        <ele>504.923</ele>
        <time>2024-09-25T11:11:00Z</time>
      </trkpt>
      <trkpt lon="78.518427890412966" lat="17.635877240662811">
        <ele>504.807</ele>
        <time>2024-09-25T11:11:01Z</time>
      </trkpt>
      <trkpt lon="78.518429226538018" lat="17.635879678606695">
        <ele>504.71</ele>
        <time>2024-09-25T11:11:01Z</time>
      </trkpt>
      <trkpt lon="78.518430523627913" lat="17.635882005915732">
        <ele>504.629</ele>
        <time>2024-09-25T11:11:01Z</time>
      </trkpt>
      <trkpt lon="78.518431784331995" lat="17.635884234835974">
        <ele>504.564</ele>
        <time>2024-09-25T11:11:01Z</time>
      </trkpt>
      <trkpt lon="78.518433011911029" lat="17.635886378015645">
        <ele>504.513</ele>
        <time>2024-09-25T11:11:01Z</time>
      </trkpt>
      <trkpt lon="78.518434209973435" lat="17.635888447966849">
        <ele>504.474</ele>
        <time>2024-09-25T11:11:01Z</time>
      </trkpt>
      <trkpt lon="78.518435382264371" lat="17.635890456664566">
        <ele>504.445</ele>
        <time>2024-09-25T11:11:01Z</time>
      </trkpt>
      <trkpt lon="78.518436532502008" lat="17.635892415262994">
        <ele>504.426</ele>
        <time>2024-09-25T11:11:01Z</time>
      </trkpt>
      <trkpt lon="78.51843766425506" lat="17.635894333910237">
        <ele>504.414</ele>
        <time>2024-09-25T11:11:01Z</time>
      </trkpt>
      <trkpt lon="78.518438780855632" lat="17.635896221643559">
        <ele>504.408</ele>
        <time>2024-09-25T11:11:01Z</time>
      </trkpt>
      <trkpt lon="78.518439885341735" lat="17.635898086349012">
        <ele>504.407</ele>
        <time>2024-09-25T11:11:01Z</time>
      </trkpt>
      <trkpt lon="78.518440980424216" lat="17.635899934770944">
        <ele>504.41</ele>
        <time>2024-09-25T11:11:01Z</time>
      </trkpt>
      <trkpt lon="78.518442068473107" lat="17.635901772558871">
        <ele>504.415</ele>
        <time>2024-09-25T11:11:01Z</time>
      </trkpt>
      <trkpt lon="78.51844315151925" lat="17.63590360434079">
        <ele>504.422</ele>
        <time>2024-09-25T11:11:01Z</time>
      </trkpt>
      <trkpt lon="78.518444231267281" lat="17.635905433813942">
        <ele>504.43</ele>
        <time>2024-09-25T11:11:01Z</time>
      </trkpt>
      <trkpt lon="78.5184453091167" lat="17.635907263845546">
        <ele>504.439</ele>
        <time>2024-09-25T11:11:01Z</time>
      </trkpt>
      <trkpt lon="78.51844638618843" lat="17.63590909657756">
        <ele>504.447</ele>
        <time>2024-09-25T11:11:01Z</time>
      </trkpt>
      <trkpt lon="78.518447463354448" lat="17.635910933530841">
        <ele>504.456</ele>
        <time>2024-09-25T11:11:01Z</time>
      </trkpt>
      <trkpt lon="78.518448541268768" lat="17.635912775705243">
        <ele>504.464</ele>
        <time>2024-09-25T11:11:01Z</time>
      </trkpt>
      <trkpt lon="78.518449620398414" lat="17.635914623673138">
        <ele>504.472</ele>
        <time>2024-09-25T11:11:01Z</time>
      </trkpt>
      <trkpt lon="78.518450701053254" lat="17.635916477664793">
        <ele>504.478</ele>
        <time>2024-09-25T11:11:01Z</time>
      </trkpt>
      <trkpt lon="78.518451783413866" lat="17.635918337644583">
        <ele>504.484</ele>
        <time>2024-09-25T11:11:01Z</time>
      </trkpt>
      <trkpt lon="78.518452867557158" lat="17.63592020337769">
        <ele>504.49</ele>
        <time>2024-09-25T11:11:01Z</time>
      </trkpt>
      <trkpt lon="78.518453953479181" lat="17.635922074487304">
        <ele>504.494</ele>
        <time>2024-09-25T11:11:01Z</time>
      </trkpt>
      <trkpt lon="78.518455041115203" lat="17.635923950502651">
        <ele>504.498</ele>
        <time>2024-09-25T11:11:01Z</time>
      </trkpt>
      <trkpt lon="78.518456130356881" lat="17.63592583089849">
        <ele>504.501</ele>
        <time>2024-09-25T11:11:01Z</time>
      </trkpt>
      <trkpt lon="78.518457221066797" lat="17.635927715126755">
        <ele>504.503</ele>
        <time>2024-09-25T11:11:01Z</time>
      </trkpt>
      <trkpt lon="78.518458313090363" lat="17.635929602641202">
        <ele>504.505</ele>
        <time>2024-09-25T11:11:01Z</time>
      </trkpt>
      <trkpt lon="78.518459406265421" lat="17.635931492915944">
        <ele>504.506</ele>
        <time>2024-09-25T11:11:01Z</time>
      </trkpt>
      <trkpt lon="78.518460818330141" lat="17.635933826492813">
        <ele>504.874</ele>
        <time>2024-09-25T11:11:02Z</time>
      </trkpt>
      <trkpt lon="78.518462191058646" lat="17.635936001035834">
        <ele>505.185</ele>
        <time>2024-09-25T11:11:02Z</time>
      </trkpt>
      <trkpt lon="78.518463525763067" lat="17.635938034701478">
        <ele>505.441</ele>
        <time>2024-09-25T11:11:02Z</time>
      </trkpt>
      <trkpt lon="78.518464824753039" lat="17.635939946068909">
        <ele>505.646</ele>
        <time>2024-09-25T11:11:02Z</time>
      </trkpt>
      <trkpt lon="78.518466091009913" lat="17.635941753390689">
        <ele>505.807</ele>
        <time>2024-09-25T11:11:02Z</time>
      </trkpt>
      <trkpt lon="78.518467327917904" lat="17.63594347403928">
        <ele>505.928</ele>
        <time>2024-09-25T11:11:02Z</time>
      </trkpt>
      <trkpt lon="78.518468539047305" lat="17.63594512412039">
        <ele>506.016</ele>
        <time>2024-09-25T11:11:02Z</time>
      </trkpt>
      <trkpt lon="78.518469727984751" lat="17.635946718225497">
        <ele>506.075</ele>
        <time>2024-09-25T11:11:02Z</time>
      </trkpt>
      <trkpt lon="78.518470898204598" lat="17.635948269297881">
        <ele>506.11</ele>
        <time>2024-09-25T11:11:02Z</time>
      </trkpt>
      <trkpt lon="78.518472052975895" lat="17.635949788588857">
        <ele>506.126</ele>
        <time>2024-09-25T11:11:02Z</time>
      </trkpt>
      <trkpt lon="78.51847319529945" lat="17.635951285683593">
        <ele>506.128</ele>
        <time>2024-09-25T11:11:02Z</time>
      </trkpt>
      <trkpt lon="78.518474327869598" lat="17.635952768578381">
        <ele>506.118</ele>
        <time>2024-09-25T11:11:02Z</time>
      </trkpt>
      <trkpt lon="78.518475453056098" lat="17.635954243794114">
        <ele>506.1</ele>
        <time>2024-09-25T11:11:02Z</time>
      </trkpt>
      <trkpt lon="78.518476572901733" lat="17.635955716513013">
        <ele>506.076</ele>
        <time>2024-09-25T11:11:02Z</time>
      </trkpt>
      <trkpt lon="78.518477689131885" lat="17.635957190728245">
        <ele>506.049</ele>
        <time>2024-09-25T11:11:02Z</time>
      </trkpt>
      <trkpt lon="78.518478803172712" lat="17.63595866939794">
        <ele>506.02</ele>
        <time>2024-09-25T11:11:02Z</time>
      </trkpt>
      <trkpt lon="78.518479916175338" lat="17.635960154597292">
        <ele>505.992</ele>
        <time>2024-09-25T11:11:02Z</time>
      </trkpt>
      <trkpt lon="78.518481029043514" lat="17.635961647663844">
        <ele>505.964</ele>
        <time>2024-09-25T11:11:02Z</time>
      </trkpt>
      <trkpt lon="78.518482142463199" lat="17.635963149332639">
        <ele>505.937</ele>
        <time>2024-09-25T11:11:02Z</time>
      </trkpt>
      <trkpt lon="78.518483256932328" lat="17.635964659859017">
        <ele>505.913</ele>
        <time>2024-09-25T11:11:02Z</time>
      </trkpt>
      <trkpt lon="78.5184843727898" lat="17.635966179127838">
        <ele>505.892</ele>
        <time>2024-09-25T11:11:02Z</time>
      </trkpt>
      <trkpt lon="78.518485490242853" lat="17.635967706748691">
        <ele>505.872</ele>
        <time>2024-09-25T11:11:02Z</time>
      </trkpt>
      <trkpt lon="78.518486609392312" lat="17.635969242137222">
        <ele>505.856</ele>
        <time>2024-09-25T11:11:02Z</time>
      </trkpt>
      <trkpt lon="78.518487730255259" lat="17.635970784583172">
        <ele>505.842</ele>
        <time>2024-09-25T11:11:02Z</time>
      </trkpt>
      <trkpt lon="78.518488852785055" lat="17.635972333306043">
        <ele>505.83</ele>
        <time>2024-09-25T11:11:02Z</time>
      </trkpt>
      <trkpt lon="78.518489976888659" lat="17.635973887499485">
        <ele>505.821</ele>
        <time>2024-09-25T11:11:02Z</time>
      </trkpt>
      <trkpt lon="78.518491102441303" lat="17.635975446365677">
        <ele>505.814</ele>
        <time>2024-09-25T11:11:02Z</time>
      </trkpt>
      <trkpt lon="78.518492229298573" lat="17.635977009140927">
        <ele>505.808</ele>
        <time>2024-09-25T11:11:02Z</time>
      </trkpt>
      <trkpt lon="78.518493357306312" lat="17.635978575113793">
        <ele>505.804</ele>
        <time>2024-09-25T11:11:02Z</time>
      </trkpt>
      <trkpt lon="78.518494788571246" lat="17.635980567535324">
        <ele>505.615</ele>
        <time>2024-09-25T11:11:03Z</time>
      </trkpt>
      <trkpt lon="78.518496157499442" lat="17.635982478122191">
        <ele>505.457</ele>
        <time>2024-09-25T11:11:03Z</time>
      </trkpt>
      <trkpt lon="78.518497469264162" lat="17.635984313074101">
        <ele>505.327</ele>
        <time>2024-09-25T11:11:03Z</time>
      </trkpt>
      <trkpt lon="78.518498729750263" lat="17.635986079691204">
        <ele>505.223</ele>
        <time>2024-09-25T11:11:03Z</time>
      </trkpt>
      <trkpt lon="78.51849994517471" lat="17.635987785849679">
        <ele>505.141</ele>
        <time>2024-09-25T11:11:03Z</time>
      </trkpt>
      <trkpt lon="78.518501121788915" lat="17.635989439586378">
        <ele>505.081</ele>
        <time>2024-09-25T11:11:03Z</time>
      </trkpt>
      <trkpt lon="78.518502265653126" lat="17.635991048780166">
        <ele>505.037</ele>
        <time>2024-09-25T11:11:03Z</time>
      </trkpt>
      <trkpt lon="78.518503382473043" lat="17.635992620917172">
        <ele>505.008</ele>
        <time>2024-09-25T11:11:03Z</time>
      </trkpt>
      <trkpt lon="78.518504477488875" lat="17.635994162927521">
        <ele>504.992</ele>
        <time>2024-09-25T11:11:03Z</time>
      </trkpt>
      <trkpt lon="78.518505555408083" lat="17.635995681081507">
        <ele>504.984</ele>
        <time>2024-09-25T11:11:03Z</time>
      </trkpt>
      <trkpt lon="78.518506620372918" lat="17.635997180934286">
        <ele>504.985</ele>
        <time>2024-09-25T11:11:03Z</time>
      </trkpt>
      <trkpt lon="78.518507675955789" lat="17.635998667309003">
        <ele>504.991</ele>
        <time>2024-09-25T11:11:03Z</time>
      </trkpt>
      <trkpt lon="78.518508725175451" lat="17.636000144309502">
        <ele>505.001</ele>
        <time>2024-09-25T11:11:03Z</time>
      </trkpt>
      <trkpt lon="78.518509770528482" lat="17.636001615354878">
        <ele>505.014</ele>
        <time>2024-09-25T11:11:03Z</time>
      </trkpt>
      <trkpt lon="78.518510814031131" lat="17.636003083229323">
        <ele>505.028</ele>
        <time>2024-09-25T11:11:03Z</time>
      </trkpt>
      <trkpt lon="78.518511857267541" lat="17.636004550141717">
        <ele>505.043</ele>
        <time>2024-09-25T11:11:03Z</time>
      </trkpt>
      <trkpt lon="78.518512901441085" lat="17.63600601779056">
        <ele>505.058</ele>
        <time>2024-09-25T11:11:03Z</time>
      </trkpt>
      <trkpt lon="78.518513947426371" lat="17.636007487430643">
        <ele>505.073</ele>
        <time>2024-09-25T11:11:03Z</time>
      </trkpt>
      <trkpt lon="78.518514995819757" lat="17.636008959938675">
        <ele>505.086</ele>
        <time>2024-09-25T11:11:03Z</time>
      </trkpt>
      <trkpt lon="78.518516046987159" lat="17.636010435875953">
        <ele>505.099</ele>
        <time>2024-09-25T11:11:03Z</time>
      </trkpt>
      <trkpt lon="78.51851710110806" lat="17.636011915546479">
        <ele>505.11</ele>
        <time>2024-09-25T11:11:03Z</time>
      </trkpt>
      <trkpt lon="78.518518158215187" lat="17.636013399049773">
        <ele>505.12</ele>
        <time>2024-09-25T11:11:03Z</time>
      </trkpt>
      <trkpt lon="78.518519218229542" lat="17.63601488632774">
        <ele>505.128</ele>
        <time>2024-09-25T11:11:03Z</time>
      </trkpt>
      <trkpt lon="78.518520280990543" lat="17.6360163772055">
        <ele>505.136</ele>
        <time>2024-09-25T11:11:03Z</time>
      </trkpt>
      <trkpt lon="78.518521346281801" lat="17.636017871426208">
        <ele>505.141</ele>
        <time>2024-09-25T11:11:03Z</time>
      </trkpt>
      <trkpt lon="78.51852241385231" lat="17.636019368680152">
        <ele>505.146</ele>
        <time>2024-09-25T11:11:03Z</time>
      </trkpt>
      <trkpt lon="78.518523483433697" lat="17.636020868628524">
        <ele>505.15</ele>
        <time>2024-09-25T11:11:03Z</time>
      </trkpt>
      <trkpt lon="78.518524554753824" lat="17.636022370922355">
        <ele>505.153</ele>
        <time>2024-09-25T11:11:03Z</time>
      </trkpt>
      <trkpt lon="78.518525627547177" lat="17.636023875217127">
        <ele>505.155</ele>
        <time>2024-09-25T11:11:03Z</time>
      </trkpt>
      <trkpt lon="78.518526986408659" lat="17.636025819221352">
        <ele>504.918</ele>
        <time>2024-09-25T11:11:04Z</time>
      </trkpt>
      <trkpt lon="78.518528284041622" lat="17.636027709833865">
        <ele>504.719</ele>
        <time>2024-09-25T11:11:04Z</time>
      </trkpt>
      <trkpt lon="78.518529525669265" lat="17.636029548693873">
        <ele>504.554</ele>
        <time>2024-09-25T11:11:04Z</time>
      </trkpt>
      <trkpt lon="78.518530717173945" lat="17.63603133883435">
        <ele>504.421</ele>
        <time>2024-09-25T11:11:04Z</time>
      </trkpt>
      <trkpt lon="78.518531864730605" lat="17.636033084233574">
        <ele>504.316</ele>
        <time>2024-09-25T11:11:04Z</time>
      </trkpt>
      <trkpt lon="78.518532974520255" lat="17.636034789444267">
        <ele>504.237</ele>
        <time>2024-09-25T11:11:04Z</time>
      </trkpt>
      <trkpt lon="78.518534052513871" lat="17.636036459294036">
        <ele>504.18</ele>
        <time>2024-09-25T11:11:04Z</time>
      </trkpt>
      <trkpt lon="78.518535104316697" lat="17.636038098650062">
        <ele>504.141</ele>
        <time>2024-09-25T11:11:04Z</time>
      </trkpt>
      <trkpt lon="78.518536135063655" lat="17.636039712240326">
        <ele>504.117</ele>
        <time>2024-09-25T11:11:04Z</time>
      </trkpt>
      <trkpt lon="78.51853714935676" lat="17.636041304523662">
        <ele>504.106</ele>
        <time>2024-09-25T11:11:04Z</time>
      </trkpt>
      <trkpt lon="78.518538151236513" lat="17.636042879601181">
        <ele>504.104</ele>
        <time>2024-09-25T11:11:04Z</time>
      </trkpt>
      <trkpt lon="78.518539144179812" lat="17.636044441161911">
        <ele>504.11</ele>
        <time>2024-09-25T11:11:04Z</time>
      </trkpt>
      <trkpt lon="78.518540131117945" lat="17.636045992456118">
        <ele>504.121</ele>
        <time>2024-09-25T11:11:04Z</time>
      </trkpt>
      <trkpt lon="78.51854111446913" lat="17.636047536290448">
        <ele>504.135</ele>
        <time>2024-09-25T11:11:04Z</time>
      </trkpt>
      <trkpt lon="78.518542096180823" lat="17.636049075039676">
        <ele>504.152</ele>
        <time>2024-09-25T11:11:04Z</time>
      </trkpt>
      <trkpt lon="78.518543077777991" lat="17.636050610670541">
        <ele>504.17</ele>
        <time>2024-09-25T11:11:04Z</time>
      </trkpt>
      <trkpt lon="78.518544060414129" lat="17.636052144773895">
        <ele>504.188</ele>
        <time>2024-09-25T11:11:04Z</time>
      </trkpt>
      <trkpt lon="78.518545044922703" lat="17.636053678602003">
        <ele>504.206</ele>
        <time>2024-09-25T11:11:04Z</time>
      </trkpt>
      <trkpt lon="78.518546031866961" lat="17.636055213108399">
        <ele>504.223</ele>
        <time>2024-09-25T11:11:04Z</time>
      </trkpt>
      <trkpt lon="78.518547021586883" lat="17.63605674898831">
        <ele>504.238</ele>
        <time>2024-09-25T11:11:04Z</time>
      </trkpt>
      <trkpt lon="78.518548014242384" lat="17.636058286718118">
        <ele>504.252</ele>
        <time>2024-09-25T11:11:04Z</time>
      </trkpt>
      <trkpt lon="78.518549009852023" lat="17.636059826592675">
        <ele>504.264</ele>
        <time>2024-09-25T11:11:04Z</time>
      </trkpt>
      <trkpt lon="78.518550008327239" lat="17.636061368759758">
        <ele>504.275</ele>
        <time>2024-09-25T11:11:04Z</time>
      </trkpt>
      <trkpt lon="78.518551009501721" lat="17.636062913251152">
        <ele>504.284</ele>
        <time>2024-09-25T11:11:04Z</time>
      </trkpt>
      <trkpt lon="78.518552013156366" lat="17.636064460010093">
        <ele>504.291</ele>
        <time>2024-09-25T11:11:04Z</time>
      </trkpt>
      <trkpt lon="78.518553019039885" lat="17.636066008915044">
        <ele>504.297</ele>
        <time>2024-09-25T11:11:04Z</time>
      </trkpt>
      <trkpt lon="78.51855402688544" lat="17.636067559799855">
        <ele>504.302</ele>
        <time>2024-09-25T11:11:04Z</time>
      </trkpt>
      <trkpt lon="78.518555036423749" lat="17.636069112470526">
        <ele>504.306</ele>
        <time>2024-09-25T11:11:04Z</time>
      </trkpt>
      <trkpt lon="78.518556047393034" lat="17.636070666718798">
        <ele>504.308</ele>
        <time>2024-09-25T11:11:04Z</time>
      </trkpt>
      <trkpt lon="78.518557370704727" lat="17.636072768615904">
        <ele>504.085</ele>
        <time>2024-09-25T11:11:05Z</time>
      </trkpt>
      <trkpt lon="78.518558672344838" lat="17.636074893995186">
        <ele>503.896</ele>
        <time>2024-09-25T11:11:05Z</time>
      </trkpt>
      <trkpt lon="78.518559950912064" lat="17.636077030799726">
        <ele>503.739</ele>
        <time>2024-09-25T11:11:05Z</time>
      </trkpt>
      <trkpt lon="78.518561206151389" lat="17.636079169544047">
        <ele>503.613</ele>
        <time>2024-09-25T11:11:05Z</time>
      </trkpt>
      <trkpt lon="78.518562438680718" lat="17.636081303010478">
        <ele>503.514</ele>
        <time>2024-09-25T11:11:05Z</time>
      </trkpt>
      <trkpt lon="78.51856364975454" lat="17.636083425941518">
        <ele>503.439</ele>
        <time>2024-09-25T11:11:05Z</time>
      </trkpt>
      <trkpt lon="78.518564841063636" lat="17.636085534739873">
        <ele>503.385</ele>
        <time>2024-09-25T11:11:05Z</time>
      </trkpt>
      <trkpt lon="78.518566014568947" lat="17.636087627184654">
        <ele>503.348</ele>
        <time>2024-09-25T11:11:05Z</time>
      </trkpt>
      <trkpt lon="78.518567172366986" lat="17.636089702169667">
        <ele>503.325</ele>
        <time>2024-09-25T11:11:05Z</time>
      </trkpt>
      <trkpt lon="78.518568316583639" lat="17.636091759467408">
        <ele>503.314</ele>
        <time>2024-09-25T11:11:05Z</time>
      </trkpt>
      <trkpt lon="78.518569449293068" lat="17.636093799520644">
        <ele>503.312</ele>
        <time>2024-09-25T11:11:05Z</time>
      </trkpt>
      <trkpt lon="78.518570572458458" lat="17.636095823262018">
        <ele>503.317</ele>
        <time>2024-09-25T11:11:05Z</time>
      </trkpt>
      <trkpt lon="78.518571687891153" lat="17.636097831961067">
        <ele>503.328</ele>
        <time>2024-09-25T11:11:05Z</time>
      </trkpt>
      <trkpt lon="78.518572797225119" lat="17.636099827097198">
        <ele>503.341</ele>
        <time>2024-09-25T11:11:05Z</time>
      </trkpt>
      <trkpt lon="78.518573901903864" lat="17.636101810256637">
        <ele>503.357</ele>
        <time>2024-09-25T11:11:05Z</time>
      </trkpt>
      <trkpt lon="78.518575003177205" lat="17.636103783051038">
        <ele>503.374</ele>
        <time>2024-09-25T11:11:05Z</time>
      </trkpt>
      <trkpt lon="78.518576102105527" lat="17.636105747055264">
        <ele>503.391</ele>
        <time>2024-09-25T11:11:05Z</time>
      </trkpt>
      <trkpt lon="78.518577199569606" lat="17.636107703761745">
        <ele>503.408</ele>
        <time>2024-09-25T11:11:05Z</time>
      </trkpt>
      <trkpt lon="78.518578296284247" lat="17.636109654548942">
        <ele>503.424</ele>
        <time>2024-09-25T11:11:05Z</time>
      </trkpt>
      <trkpt lon="78.518579392814303" lat="17.636111600661536">
        <ele>503.438</ele>
        <time>2024-09-25T11:11:05Z</time>
      </trkpt>
      <trkpt lon="78.518580489591969" lat="17.636113543200118">
        <ele>503.451</ele>
        <time>2024-09-25T11:11:05Z</time>
      </trkpt>
      <trkpt lon="78.518581586934459" lat="17.636115483118466">
        <ele>503.463</ele>
        <time>2024-09-25T11:11:05Z</time>
      </trkpt>
      <trkpt lon="78.51858268506129" lat="17.63611742122654">
        <ele>503.473</ele>
        <time>2024-09-25T11:11:05Z</time>
      </trkpt>
      <trkpt lon="78.518583784110646" lat="17.636119358197778">
        <ele>503.482</ele>
        <time>2024-09-25T11:11:05Z</time>
      </trkpt>
      <trkpt lon="78.518584884154706" lat="17.636121294579304">
        <ele>503.489</ele>
        <time>2024-09-25T11:11:05Z</time>
      </trkpt>
      <trkpt lon="78.518585985213306" lat="17.636123230804031">
        <ele>503.494</ele>
        <time>2024-09-25T11:11:05Z</time>
      </trkpt>
      <trkpt lon="78.518587087266184" lat="17.636125167203744">
        <ele>503.499</ele>
        <time>2024-09-25T11:11:05Z</time>
      </trkpt>
      <trkpt lon="78.518588190263529" lat="17.636127104022467">
        <ele>503.502</ele>
        <time>2024-09-25T11:11:05Z</time>
      </trkpt>
      <trkpt lon="78.518589294134969" lat="17.636129041429594">
        <ele>503.505</ele>
        <time>2024-09-25T11:11:05Z</time>
      </trkpt>
      <trkpt lon="78.518590680366046" lat="17.636131496600406">
        <ele>503.457</ele>
        <time>2024-09-25T11:11:06Z</time>
      </trkpt>
      <trkpt lon="78.518591993421538" lat="17.636133841981774">
        <ele>503.416</ele>
        <time>2024-09-25T11:11:06Z</time>
      </trkpt>
      <trkpt lon="78.518593240525064" lat="17.636136087073897">
        <ele>503.381</ele>
        <time>2024-09-25T11:11:06Z</time>
      </trkpt>
      <trkpt lon="78.518594429412317" lat="17.636138242521131">
        <ele>503.354</ele>
        <time>2024-09-25T11:11:06Z</time>
      </trkpt>
      <trkpt lon="78.51859556793643" lat="17.63614031946063">
        <ele>503.332</ele>
        <time>2024-09-25T11:11:06Z</time>
      </trkpt>
      <trkpt lon="78.518596663766232" lat="17.636142329014248">
        <ele>503.315</ele>
        <time>2024-09-25T11:11:06Z</time>
      </trkpt>
      <trkpt lon="78.518597724165375" lat="17.636144281906059">
        <ele>503.302</ele>
        <time>2024-09-25T11:11:06Z</time>
      </trkpt>
      <trkpt lon="78.518598755839747" lat="17.636146188187851">
        <ele>503.293</ele>
        <time>2024-09-25T11:11:06Z</time>
      </trkpt>
      <trkpt lon="78.518599764841966" lat="17.636148057055539">
        <ele>503.288</ele>
        <time>2024-09-25T11:11:06Z</time>
      </trkpt>
      <trkpt lon="78.518600756521963" lat="17.636149896740495">
        <ele>503.285</ele>
        <time>2024-09-25T11:11:06Z</time>
      </trkpt>
      <trkpt lon="78.518601735514167" lat="17.63615171446115">
        <ele>503.284</ele>
        <time>2024-09-25T11:11:06Z</time>
      </trkpt>
      <trkpt lon="78.518602705752727" lat="17.636153516421661">
        <ele>503.284</ele>
        <time>2024-09-25T11:11:06Z</time>
      </trkpt>
      <trkpt lon="78.518603670507289" lat="17.636155307846163">
        <ele>503.286</ele>
        <time>2024-09-25T11:11:06Z</time>
      </trkpt>
      <trkpt lon="78.518604632432996" lat="17.636157093038584">
        <ele>503.289</ele>
        <time>2024-09-25T11:11:06Z</time>
      </trkpt>
      <trkpt lon="78.518605593629573" lat="17.636158875459731">
        <ele>503.292</ele>
        <time>2024-09-25T11:11:06Z</time>
      </trkpt>
      <trkpt lon="78.51860655570519" lat="17.636160657814663">
        <ele>503.295</ele>
        <time>2024-09-25T11:11:06Z</time>
      </trkpt>
      <trkpt lon="78.518607519841524" lat="17.636162442144787">
        <ele>503.299</ele>
        <time>2024-09-25T11:11:06Z</time>
      </trkpt>
      <trkpt lon="78.518608486857815" lat="17.636164229920357">
        <ele>503.302</ele>
        <time>2024-09-25T11:11:06Z</time>
      </trkpt>
      <trkpt lon="78.51860945727158" lat="17.636166022130013">
        <ele>503.306</ele>
        <time>2024-09-25T11:11:06Z</time>
      </trkpt>
      <trkpt lon="78.518610431354958" lat="17.636167819365017">
        <ele>503.309</ele>
        <time>2024-09-25T11:11:06Z</time>
      </trkpt>
      <trkpt lon="78.518611409185652" lat="17.636169621896542">
        <ele>503.311</ele>
        <time>2024-09-25T11:11:06Z</time>
      </trkpt>
      <trkpt lon="78.51861239069207" lat="17.636171429745069">
        <ele>503.314</ele>
        <time>2024-09-25T11:11:06Z</time>
      </trkpt>
      <trkpt lon="78.518613375692581" lat="17.636173242741371">
        <ele>503.316</ele>
        <time>2024-09-25T11:11:06Z</time>
      </trkpt>
      <trkpt lon="78.518614363928975" lat="17.636175060579117">
        <ele>503.318</ele>
        <time>2024-09-25T11:11:06Z</time>
      </trkpt>
      <trkpt lon="78.518615355094198" lat="17.636176882859239">
        <ele>503.319</ele>
        <time>2024-09-25T11:11:06Z</time>
      </trkpt>
      <trkpt lon="78.518616348855076" lat="17.636178709126643">
        <ele>503.321</ele>
        <time>2024-09-25T11:11:06Z</time>
      </trkpt>
      <trkpt lon="78.518617344870293" lat="17.636180538899797">
        <ele>503.322</ele>
        <time>2024-09-25T11:11:06Z</time>
      </trkpt>
      <trkpt lon="78.518618342804302" lat="17.636182371693955">
        <ele>503.322</ele>
        <time>2024-09-25T11:11:06Z</time>
      </trkpt>
      <trkpt lon="78.51861934233753" lat="17.636184207038802">
        <ele>503.323</ele>
        <time>2024-09-25T11:11:06Z</time>
      </trkpt>
      <trkpt lon="78.518620709484622" lat="17.636186621768353">
        <ele>503.245</ele>
        <time>2024-09-25T11:11:07Z</time>
      </trkpt>
      <trkpt lon="78.518622104792897" lat="17.636189007610596">
        <ele>503.178</ele>
        <time>2024-09-25T11:11:07Z</time>
      </trkpt>
      <trkpt lon="78.518623518158464" lat="17.636191360187304">
        <ele>503.124</ele>
        <time>2024-09-25T11:11:07Z</time>
      </trkpt>
      <trkpt lon="78.518624941337734" lat="17.636193677353393">
        <ele>503.08</ele>
        <time>2024-09-25T11:11:07Z</time>
      </trkpt>
      <trkpt lon="78.518626367775738" lat="17.636195958721629">
        <ele>503.045</ele>
        <time>2024-09-25T11:11:07Z</time>
      </trkpt>
      <trkpt lon="78.518627792418073" lat="17.636198205243339">
        <ele>503.019</ele>
        <time>2024-09-25T11:11:07Z</time>
      </trkpt>
      <trkpt lon="78.518629211517037" lat="17.636200418845835">
        <ele>503</ele>
        <time>2024-09-25T11:11:07Z</time>
      </trkpt>
      <trkpt lon="78.518630622440028" lat="17.636202602125206">
        <ele>502.987</ele>
        <time>2024-09-25T11:11:07Z</time>
      </trkpt>
      <trkpt lon="78.518632023486532" lat="17.636204758091512">
        <ele>502.979</ele>
        <time>2024-09-25T11:11:07Z</time>
      </trkpt>
      <trkpt lon="78.518633413717623" lat="17.636206889962345">
        <ele>502.975</ele>
        <time>2024-09-25T11:11:07Z</time>
      </trkpt>
      <trkpt lon="78.518634792801194" lat="17.63620900099999">
        <ele>502.975</ele>
        <time>2024-09-25T11:11:07Z</time>
      </trkpt>
      <trkpt lon="78.518636160873996" lat="17.636211094387118">
        <ele>502.977</ele>
        <time>2024-09-25T11:11:07Z</time>
      </trkpt>
      <trkpt lon="78.518637518421542" lat="17.636213173135864">
        <ele>502.981</ele>
        <time>2024-09-25T11:11:07Z</time>
      </trkpt>
      <trkpt lon="78.518638866175323" lat="17.636215240025201">
        <ele>502.985</ele>
        <time>2024-09-25T11:11:07Z</time>
      </trkpt>
      <trkpt lon="78.51864020502687" lat="17.636217297561824">
        <ele>502.991</ele>
        <time>2024-09-25T11:11:07Z</time>
      </trkpt>
      <trkpt lon="78.518641535957443" lat="17.636219347960129">
        <ele>502.997</ele>
        <time>2024-09-25T11:11:07Z</time>
      </trkpt>
      <trkpt lon="78.518642859981767" lat="17.636221393137276">
        <ele>503.003</ele>
        <time>2024-09-25T11:11:07Z</time>
      </trkpt>
      <trkpt lon="78.518644178104637" lat="17.636223434719767">
        <ele>503.009</ele>
        <time>2024-09-25T11:11:07Z</time>
      </trkpt>
      <trkpt lon="78.51864549128841" lat="17.636225474058531">
        <ele>503.015</ele>
        <time>2024-09-25T11:11:07Z</time>
      </trkpt>
      <trkpt lon="78.518646800430105" lat="17.636227512249832">
        <ele>503.02</ele>
        <time>2024-09-25T11:11:07Z</time>
      </trkpt>
      <trkpt lon="78.51864810634622" lat="17.636229550159914">
        <ele>503.024</ele>
        <time>2024-09-25T11:11:07Z</time>
      </trkpt>
      <trkpt lon="78.518649409764308" lat="17.636231588451523">
        <ele>503.028</ele>
        <time>2024-09-25T11:11:07Z</time>
      </trkpt>
      <trkpt lon="78.518650711319552" lat="17.636233627610995">
        <ele>503.032</ele>
        <time>2024-09-25T11:11:07Z</time>
      </trkpt>
      <trkpt lon="78.51865201155546" lat="17.636235667974805">
        <ele>503.035</ele>
        <time>2024-09-25T11:11:07Z</time>
      </trkpt>
      <trkpt lon="78.518653310927562" lat="17.636237709754763">
        <ele>503.037</ele>
        <time>2024-09-25T11:11:07Z</time>
      </trkpt>
      <trkpt lon="78.518654609809232" lat="17.636239753061357">
        <ele>503.039</ele>
        <time>2024-09-25T11:11:07Z</time>
      </trkpt>
      <trkpt lon="78.518655908498971" lat="17.636241797924853">
        <ele>503.041</ele>
        <time>2024-09-25T11:11:07Z</time>
      </trkpt>
      <trkpt lon="78.518657207228429" lat="17.636243844313992">
        <ele>503.042</ele>
        <time>2024-09-25T11:11:07Z</time>
      </trkpt>
      <trkpt lon="78.51865850617088" lat="17.636245892152235">
        <ele>503.043</ele>
        <time>2024-09-25T11:11:07Z</time>
      </trkpt>
      <trkpt lon="78.518660102936877" lat="17.636248440608391">
        <ele>503.262</ele>
        <time>2024-09-25T11:11:08Z</time>
      </trkpt>
      <trkpt lon="78.518661584506319" lat="17.63625083374879">
        <ele>503.446</ele>
        <time>2024-09-25T11:11:08Z</time>
      </trkpt>
      <trkpt lon="78.518662964563376" lat="17.63625308842337">
        <ele>503.598</ele>
        <time>2024-09-25T11:11:08Z</time>
      </trkpt>
      <trkpt lon="78.518664256948824" lat="17.636255222142672">
        <ele>503.72</ele>
        <time>2024-09-25T11:11:08Z</time>
      </trkpt>
      <trkpt lon="78.518665475140793" lat="17.636257252307061">
        <ele>503.815</ele>
        <time>2024-09-25T11:11:08Z</time>
      </trkpt>
      <trkpt lon="78.518666631875988" lat="17.63625919562957">
        <ele>503.887</ele>
        <time>2024-09-25T11:11:08Z</time>
      </trkpt>
      <trkpt lon="78.51866773888986" lat="17.636261067724678">
        <ele>503.939</ele>
        <time>2024-09-25T11:11:08Z</time>
      </trkpt>
      <trkpt lon="78.518668806755556" lat="17.636262882836476">
        <ele>503.974</ele>
        <time>2024-09-25T11:11:08Z</time>
      </trkpt>
      <trkpt lon="78.518669844802844" lat="17.636264653681359">
        <ele>503.995</ele>
        <time>2024-09-25T11:11:08Z</time>
      </trkpt>
      <trkpt lon="78.518670861100233" lat="17.636266391382492">
        <ele>504.005</ele>
        <time>2024-09-25T11:11:08Z</time>
      </trkpt>
      <trkpt lon="78.518671862485192" lat="17.636268105475736">
        <ele>504.005</ele>
        <time>2024-09-25T11:11:08Z</time>
      </trkpt>
      <trkpt lon="78.51867285462987" lat="17.636269803969249">
        <ele>503.999</ele>
        <time>2024-09-25T11:11:08Z</time>
      </trkpt>
      <trkpt lon="78.518673842130895" lat="17.636271493441473">
        <ele>503.989</ele>
        <time>2024-09-25T11:11:08Z</time>
      </trkpt>
      <trkpt lon="78.518674828614564" lat="17.63627317916464">
        <ele>503.975</ele>
        <time>2024-09-25T11:11:08Z</time>
      </trkpt>
      <trkpt lon="78.518675816849751" lat="17.636274865243241">
        <ele>503.959</ele>
        <time>2024-09-25T11:11:08Z</time>
      </trkpt>
      <trkpt lon="78.518676808862836" lat="17.636276554758961">
        <ele>503.942</ele>
        <time>2024-09-25T11:11:08Z</time>
      </trkpt>
      <trkpt lon="78.518677806050164" lat="17.636278249915456">
        <ele>503.924</ele>
        <time>2024-09-25T11:11:08Z</time>
      </trkpt>
      <trkpt lon="78.518678809284594" lat="17.636279952177976">
        <ele>503.908</ele>
        <time>2024-09-25T11:11:08Z</time>
      </trkpt>
      <trkpt lon="78.518679819014139" lat="17.636281662404258">
        <ele>503.892</ele>
        <time>2024-09-25T11:11:08Z</time>
      </trkpt>
      <trkpt lon="78.518680835350892" lat="17.636283380964318">
        <ele>503.878</ele>
        <time>2024-09-25T11:11:08Z</time>
      </trkpt>
      <trkpt lon="78.518681858149904" lat="17.636285107847648">
        <ele>503.865</ele>
        <time>2024-09-25T11:11:08Z</time>
      </trkpt>
      <trkpt lon="78.518682887077517" lat="17.636286842757261">
        <ele>503.854</ele>
        <time>2024-09-25T11:11:08Z</time>
      </trkpt>
      <trkpt lon="78.51868392166935" lat="17.636288585190552">
        <ele>503.844</ele>
        <time>2024-09-25T11:11:08Z</time>
      </trkpt>
      <trkpt lon="78.518684961378611" lat="17.636290334507351">
        <ele>503.836</ele>
        <time>2024-09-25T11:11:08Z</time>
      </trkpt>
      <trkpt lon="78.518686005615436" lat="17.636292089986028">
        <ele>503.829</ele>
        <time>2024-09-25T11:11:08Z</time>
      </trkpt>
      <trkpt lon="78.51868705377791" lat="17.636293850868622">
        <ele>503.823</ele>
        <time>2024-09-25T11:11:08Z</time>
      </trkpt>
      <trkpt lon="78.518688105275984" lat="17.636295616396087">
        <ele>503.819</ele>
        <time>2024-09-25T11:11:08Z</time>
      </trkpt>
      <trkpt lon="78.518689159549012" lat="17.636297385834933">
        <ele>503.815</ele>
        <time>2024-09-25T11:11:08Z</time>
      </trkpt>
      <trkpt lon="78.518690216077999" lat="17.63629915849641">
        <ele>503.813</ele>
        <time>2024-09-25T11:11:08Z</time>
      </trkpt>
      <trkpt lon="78.518691455957125" lat="17.636301363172425">
        <ele>503.729</ele>
        <time>2024-09-25T11:11:09Z</time>
      </trkpt>
      <trkpt lon="78.518692552725852" lat="17.636303432478805">
        <ele>503.659</ele>
        <time>2024-09-25T11:11:09Z</time>
      </trkpt>
      <trkpt lon="78.518693525972566" lat="17.636305380965549">
        <ele>503.602</ele>
        <time>2024-09-25T11:11:09Z</time>
      </trkpt>
      <trkpt lon="78.518694394753069" lat="17.636307223796635">
        <ele>503.556</ele>
        <time>2024-09-25T11:11:09Z</time>
      </trkpt>
      <trkpt lon="78.518695177059939" lat="17.636308976072211">
        <ele>503.52</ele>
        <time>2024-09-25T11:11:09Z</time>
      </trkpt>
      <trkpt lon="78.518695889459423" lat="17.636310652319924">
        <ele>503.494</ele>
        <time>2024-09-25T11:11:09Z</time>
      </trkpt>
      <trkpt lon="78.518696546867218" lat="17.636312266131299">
        <ele>503.475</ele>
        <time>2024-09-25T11:11:09Z</time>
      </trkpt>
      <trkpt lon="78.518697162436794" lat="17.636313829920194">
        <ele>503.462</ele>
        <time>2024-09-25T11:11:09Z</time>
      </trkpt>
      <trkpt lon="78.518697747536493" lat="17.636315354781612">
        <ele>503.455</ele>
        <time>2024-09-25T11:11:09Z</time>
      </trkpt>
      <trkpt lon="78.518698311794083" lat="17.63631685043104">
        <ele>503.452</ele>
        <time>2024-09-25T11:11:09Z</time>
      </trkpt>
      <trkpt lon="78.518698863190991" lat="17.63631832520667">
        <ele>503.452</ele>
        <time>2024-09-25T11:11:09Z</time>
      </trkpt>
      <trkpt lon="78.518699408190372" lat="17.636319786118893">
        <ele>503.455</ele>
        <time>2024-09-25T11:11:09Z</time>
      </trkpt>
      <trkpt lon="78.518699951886418" lat="17.636321238933707">
        <ele>503.46</ele>
        <time>2024-09-25T11:11:09Z</time>
      </trkpt>
      <trkpt lon="78.518700498164478" lat="17.636322688278831">
        <ele>503.466</ele>
        <time>2024-09-25T11:11:09Z</time>
      </trkpt>
      <trkpt lon="78.518701049863736" lat="17.636324137763207">
        <ele>503.472</ele>
        <time>2024-09-25T11:11:09Z</time>
      </trkpt>
      <trkpt lon="78.518701608936112" lat="17.636325590102473">
        <ele>503.479</ele>
        <time>2024-09-25T11:11:09Z</time>
      </trkpt>
      <trkpt lon="78.51870217659696" lat="17.636327047244581">
        <ele>503.486</ele>
        <time>2024-09-25T11:11:09Z</time>
      </trkpt>
      <trkpt lon="78.518702753464126" lat="17.636328510491122">
        <ele>503.492</ele>
        <time>2024-09-25T11:11:09Z</time>
      </trkpt>
      <trkpt lon="78.518703339683668" lat="17.636329980611251">
        <ele>503.498</ele>
        <time>2024-09-25T11:11:09Z</time>
      </trkpt>
      <trkpt lon="78.518703935040875" lat="17.636331457946067">
        <ele>503.504</ele>
        <time>2024-09-25T11:11:09Z</time>
      </trkpt>
      <trkpt lon="78.518704539056543" lat="17.636332942502133">
        <ele>503.509</ele>
        <time>2024-09-25T11:11:09Z</time>
      </trkpt>
      <trkpt lon="78.518705151068744" lat="17.636334434033607">
        <ele>503.513</ele>
        <time>2024-09-25T11:11:09Z</time>
      </trkpt>
      <trkpt lon="78.518705770300784" lat="17.636335932112917">
        <ele>503.517</ele>
        <time>2024-09-25T11:11:09Z</time>
      </trkpt>
      <trkpt lon="78.518706395916467" lat="17.63633743619036">
        <ele>503.52</ele>
        <time>2024-09-25T11:11:09Z</time>
      </trkpt>
      <trkpt lon="78.518707027063741" lat="17.636338945643246">
        <ele>503.523</ele>
        <time>2024-09-25T11:11:09Z</time>
      </trkpt>
      <trkpt lon="78.518707662908199" lat="17.636340459815507">
        <ele>503.525</ele>
        <time>2024-09-25T11:11:09Z</time>
      </trkpt>
      <trkpt lon="78.518708302657743" lat="17.636341978048677">
        <ele>503.526</ele>
        <time>2024-09-25T11:11:09Z</time>
      </trkpt>
      <trkpt lon="78.518708945579661" lat="17.636343499705372">
        <ele>503.527</ele>
        <time>2024-09-25T11:11:09Z</time>
      </trkpt>
      <trkpt lon="78.518709591011429" lat="17.63634502418622">
        <ele>503.528</ele>
        <time>2024-09-25T11:11:09Z</time>
      </trkpt>
      <trkpt lon="78.518710476487442" lat="17.636347091980628">
        <ele>503.76</ele>
        <time>2024-09-25T11:11:10Z</time>
      </trkpt>
      <trkpt lon="78.518711382482266" lat="17.636349188074952">
        <ele>503.956</ele>
        <time>2024-09-25T11:11:10Z</time>
      </trkpt>
      <trkpt lon="78.518712301918796" lat="17.636351299594985">
        <ele>504.116</ele>
        <time>2024-09-25T11:11:10Z</time>
      </trkpt>
      <trkpt lon="78.518713228995395" lat="17.636353416300228">
        <ele>504.246</ele>
        <time>2024-09-25T11:11:10Z</time>
      </trkpt>
      <trkpt lon="78.518714159073383" lat="17.636355530291159">
        <ele>504.347</ele>
        <time>2024-09-25T11:11:10Z</time>
      </trkpt>
      <trkpt lon="78.518715088551787" lat="17.636357635707252">
        <ele>504.423</ele>
        <time>2024-09-25T11:11:10Z</time>
      </trkpt>
      <trkpt lon="78.518716014736981" lat="17.636359728428562">
        <ele>504.478</ele>
        <time>2024-09-25T11:11:10Z</time>
      </trkpt>
      <trkpt lon="78.518716935712845" lat="17.636361805790273">
        <ele>504.515</ele>
        <time>2024-09-25T11:11:10Z</time>
      </trkpt>
      <trkpt lon="78.518717850215864" lat="17.636363866317033">
        <ele>504.537</ele>
        <time>2024-09-25T11:11:10Z</time>
      </trkpt>
      <trkpt lon="78.518718757518386" lat="17.636365909481366">
        <ele>504.547</ele>
        <time>2024-09-25T11:11:10Z</time>
      </trkpt>
      <trkpt lon="78.518719657321967" lat="17.636367935488625">
        <ele>504.548</ele>
        <time>2024-09-25T11:11:10Z</time>
      </trkpt>
      <trkpt lon="78.518720549662063" lat="17.636369945089466">
        <ele>504.542</ele>
        <time>2024-09-25T11:11:10Z</time>
      </trkpt>
      <trkpt lon="78.518721434824627" lat="17.636371939419515">
        <ele>504.531</ele>
        <time>2024-09-25T11:11:10Z</time>
      </trkpt>
      <trkpt lon="78.518722313274424" lat="17.636373919865168">
        <ele>504.516</ele>
        <time>2024-09-25T11:11:10Z</time>
      </trkpt>
      <trkpt lon="78.518723185594993" lat="17.636375887953701">
        <ele>504.499</ele>
        <time>2024-09-25T11:11:10Z</time>
      </trkpt>
      <trkpt lon="78.518724052439026" lat="17.636377845265553">
        <ele>504.481</ele>
        <time>2024-09-25T11:11:10Z</time>
      </trkpt>
      <trkpt lon="78.518724914488772" lat="17.636379793366345">
        <ele>504.463</ele>
        <time>2024-09-25T11:11:10Z</time>
      </trkpt>
      <trkpt lon="78.518725772424986" lat="17.636381733756156">
        <ele>504.445</ele>
        <time>2024-09-25T11:11:10Z</time>
      </trkpt>
      <trkpt lon="78.5187266269037" lat="17.636383667833567">
        <ele>504.428</ele>
        <time>2024-09-25T11:11:10Z</time>
      </trkpt>
      <trkpt lon="78.518727478539546" lat="17.636385596872071">
        <ele>504.413</ele>
        <time>2024-09-25T11:11:10Z</time>
      </trkpt>
      <trkpt lon="78.518728327894522" lat="17.636387522006643">
        <ele>504.399</ele>
        <time>2024-09-25T11:11:10Z</time>
      </trkpt>
      <trkpt lon="78.51872917547152" lat="17.636389444228431">
        <ele>504.387</ele>
        <time>2024-09-25T11:11:10Z</time>
      </trkpt>
      <trkpt lon="78.518730021711349" lat="17.636391364385727">
        <ele>504.377</ele>
        <time>2024-09-25T11:11:10Z</time>
      </trkpt>
      <trkpt lon="78.518730866992769" lat="17.636393283189687">
        <ele>504.368</ele>
        <time>2024-09-25T11:11:10Z</time>
      </trkpt>
      <trkpt lon="78.518731711634572" lat="17.63639520122339">
        <ele>504.361</ele>
        <time>2024-09-25T11:11:10Z</time>
      </trkpt>
      <trkpt lon="78.518732555899263" lat="17.636397118953127">
        <ele>504.355</ele>
        <time>2024-09-25T11:11:10Z</time>
      </trkpt>
      <trkpt lon="78.518733399997814" lat="17.636399036740951">
        <ele>504.35</ele>
        <time>2024-09-25T11:11:10Z</time>
      </trkpt>
      <trkpt lon="78.518734244095043" lat="17.636400954857759">
        <ele>504.347</ele>
        <time>2024-09-25T11:11:10Z</time>
      </trkpt>
      <trkpt lon="78.518735088315253" lat="17.636402873496337">
        <ele>504.344</ele>
        <time>2024-09-25T11:11:10Z</time>
      </trkpt>
      <trkpt lon="78.518736229298824" lat="17.636405346370655">
        <ele>504.298</ele>
        <time>2024-09-25T11:11:11Z</time>
      </trkpt>
      <trkpt lon="78.518737382341925" lat="17.636407745444117">
        <ele>504.26</ele>
        <time>2024-09-25T11:11:11Z</time>
      </trkpt>
      <trkpt lon="78.51873854109391" lat="17.636410074007198">
        <ele>504.229</ele>
        <time>2024-09-25T11:11:11Z</time>
      </trkpt>
      <trkpt lon="78.518739700569284" lat="17.636412336989064">
        <ele>504.204</ele>
        <time>2024-09-25T11:11:11Z</time>
      </trkpt>
      <trkpt lon="78.518740856984778" lat="17.636414540382969">
        <ele>504.184</ele>
        <time>2024-09-25T11:11:11Z</time>
      </trkpt>
      <trkpt lon="78.518742007594781" lat="17.636416690776151">
        <ele>504.17</ele>
        <time>2024-09-25T11:11:11Z</time>
      </trkpt>
      <trkpt lon="78.518743150531236" lat="17.636418794974837">
        <ele>504.16</ele>
        <time>2024-09-25T11:11:11Z</time>
      </trkpt>
      <trkpt lon="78.518744284652442" lat="17.636420859713954">
        <ele>504.154</ele>
        <time>2024-09-25T11:11:11Z</time>
      </trkpt>
      <trkpt lon="78.518745409403934" lat="17.636422891440791">
        <ele>504.15</ele>
        <time>2024-09-25T11:11:11Z</time>
      </trkpt>
      <trkpt lon="78.518746524693142" lat="17.636424896161898">
        <ele>504.149</ele>
        <time>2024-09-25T11:11:11Z</time>
      </trkpt>
      <trkpt lon="78.518747630778904" lat="17.636426879342988">
        <ele>504.15</ele>
        <time>2024-09-25T11:11:11Z</time>
      </trkpt>
      <trkpt lon="78.51874872817595" lat="17.636428845852262">
        <ele>504.152</ele>
        <time>2024-09-25T11:11:11Z</time>
      </trkpt>
      <trkpt lon="78.518749817574047" lat="17.636430799938445">
        <ele>504.154</ele>
        <time>2024-09-25T11:11:11Z</time>
      </trkpt>
      <trkpt lon="78.518750899770964" lat="17.63643274523573">
        <ele>504.158</ele>
        <time>2024-09-25T11:11:11Z</time>
      </trkpt>
      <trkpt lon="78.518751975618144" lat="17.636434684788863">
        <ele>504.162</ele>
        <time>2024-09-25T11:11:11Z</time>
      </trkpt>
      <trkpt lon="78.518753045977945" lat="17.636436621092507">
        <ele>504.165</ele>
        <time>2024-09-25T11:11:11Z</time>
      </trkpt>
      <trkpt lon="78.518754111690996" lat="17.636438556140028">
        <ele>504.169</ele>
        <time>2024-09-25T11:11:11Z</time>
      </trkpt>
      <trkpt lon="78.518755173552364" lat="17.636440491477686">
        <ele>504.173</ele>
        <time>2024-09-25T11:11:11Z</time>
      </trkpt>
      <trkpt lon="78.518756232295118" lat="17.636442428260992">
        <ele>504.176</ele>
        <time>2024-09-25T11:11:11Z</time>
      </trkpt>
      <trkpt lon="78.51875728858019" lat="17.636444367310791">
        <ele>504.18</ele>
        <time>2024-09-25T11:11:11Z</time>
      </trkpt>
      <trkpt lon="78.518758342991148" lat="17.636446309167123">
        <ele>504.182</ele>
        <time>2024-09-25T11:11:11Z</time>
      </trkpt>
      <trkpt lon="78.518759396032991" lat="17.636448254139623">
        <ele>504.185</ele>
        <time>2024-09-25T11:11:11Z</time>
      </trkpt>
      <trkpt lon="78.518760448133904" lat="17.636450202353473">
        <ele>504.187</ele>
        <time>2024-09-25T11:11:11Z</time>
      </trkpt>
      <trkpt lon="78.518761499649386" lat="17.636452153790461">
        <ele>504.189</ele>
        <time>2024-09-25T11:11:11Z</time>
      </trkpt>
      <trkpt lon="78.51876255086772" lat="17.636454108324937">
        <ele>504.19</ele>
        <time>2024-09-25T11:11:11Z</time>
      </trkpt>
      <trkpt lon="78.518763602016563" lat="17.636456065754597">
        <ele>504.191</ele>
        <time>2024-09-25T11:11:11Z</time>
      </trkpt>
      <trkpt lon="78.518764653269898" lat="17.6364580258264">
        <ele>504.192</ele>
        <time>2024-09-25T11:11:11Z</time>
      </trkpt>
      <trkpt lon="78.518765704755282" lat="17.636459988257844">
        <ele>504.193</ele>
        <time>2024-09-25T11:11:11Z</time>
      </trkpt>
      <trkpt lon="78.518766756560794" lat="17.636461952754026">
        <ele>504.193</ele>
        <time>2024-09-25T11:11:11Z</time>
      </trkpt>
      <trkpt lon="78.518768133758584" lat="17.636464572238335">
        <ele>504.387</ele>
        <time>2024-09-25T11:11:12Z</time>
      </trkpt>
      <trkpt lon="78.518769488706198" lat="17.636467190099875">
        <ele>504.551</ele>
        <time>2024-09-25T11:11:12Z</time>
      </trkpt>
      <trkpt lon="78.518770820006736" lat="17.636469796578929">
        <ele>504.686</ele>
        <time>2024-09-25T11:11:12Z</time>
      </trkpt>
      <trkpt lon="78.518772127428477" lat="17.63647238471377">
        <ele>504.794</ele>
        <time>2024-09-25T11:11:12Z</time>
      </trkpt>
      <trkpt lon="78.518773411625986" lat="17.636474949893618">
        <ele>504.879</ele>
        <time>2024-09-25T11:11:12Z</time>
      </trkpt>
      <trkpt lon="78.518774673899273" lat="17.636477489440004">
        <ele>504.943</ele>
        <time>2024-09-25T11:11:12Z</time>
      </trkpt>
      <trkpt lon="78.518775915989721" lat="17.636480002224079">
        <ele>504.989</ele>
        <time>2024-09-25T11:11:12Z</time>
      </trkpt>
      <trkpt lon="78.518777139910895" lat="17.636482488324319">
        <ele>505.02</ele>
        <time>2024-09-25T11:11:12Z</time>
      </trkpt>
      <trkpt lon="78.51877834781169" lat="17.636484948726597">
        <ele>505.039</ele>
        <time>2024-09-25T11:11:12Z</time>
      </trkpt>
      <trkpt lon="78.518779541868341" lat="17.636487385066538">
        <ele>505.047</ele>
        <time>2024-09-25T11:11:12Z</time>
      </trkpt>
      <trkpt lon="78.518780724202117" lat="17.636489799412765">
        <ele>505.048</ele>
        <time>2024-09-25T11:11:12Z</time>
      </trkpt>
      <trkpt lon="78.518781896819192" lat="17.636492194088454">
        <ele>505.043</ele>
        <time>2024-09-25T11:11:12Z</time>
      </trkpt>
      <trkpt lon="78.518783061569295" lat="17.636494571527994">
        <ele>505.033</ele>
        <time>2024-09-25T11:11:12Z</time>
      </trkpt>
      <trkpt lon="78.518784220120011" lat="17.636496934165056">
        <ele>505.021</ele>
        <time>2024-09-25T11:11:12Z</time>
      </trkpt>
      <trkpt lon="78.518785373943672" lat="17.636499284348261">
        <ele>505.007</ele>
        <time>2024-09-25T11:11:12Z</time>
      </trkpt>
      <trkpt lon="78.518786524314308" lat="17.636501624280545">
        <ele>504.992</ele>
        <time>2024-09-25T11:11:12Z</time>
      </trkpt>
      <trkpt lon="78.518787672312243" lat="17.636503955978515">
        <ele>504.977</ele>
        <time>2024-09-25T11:11:12Z</time>
      </trkpt>
      <trkpt lon="78.518788818834224" lat="17.636506281248295">
        <ele>504.962</ele>
        <time>2024-09-25T11:11:12Z</time>
      </trkpt>
      <trkpt lon="78.518789964607492" lat="17.63650860167461">
        <ele>504.948</ele>
        <time>2024-09-25T11:11:12Z</time>
      </trkpt>
      <trkpt lon="78.518791110206266" lat="17.63651091862026">
        <ele>504.935</ele>
        <time>2024-09-25T11:11:12Z</time>
      </trkpt>
      <trkpt lon="78.51879225606946" lat="17.63651323323343">
        <ele>504.924</ele>
        <time>2024-09-25T11:11:12Z</time>
      </trkpt>
      <trkpt lon="78.518793402518767" lat="17.63651554646064">
        <ele>504.914</ele>
        <time>2024-09-25T11:11:12Z</time>
      </trkpt>
      <trkpt lon="78.518794549776288" lat="17.636517859063527">
        <ele>504.905</ele>
        <time>2024-09-25T11:11:12Z</time>
      </trkpt>
      <trkpt lon="78.518795697981417" lat="17.636520171637905">
        <ele>504.898</ele>
        <time>2024-09-25T11:11:12Z</time>
      </trkpt>
      <trkpt lon="78.518796847206275" lat="17.636522484633897">
        <ele>504.892</ele>
        <time>2024-09-25T11:11:12Z</time>
      </trkpt>
      <trkpt lon="78.518797997469861" lat="17.636524798376175">
        <ele>504.887</ele>
        <time>2024-09-25T11:11:12Z</time>
      </trkpt>
      <trkpt lon="78.518799148750418" lat="17.636527113083556">
        <ele>504.883</ele>
        <time>2024-09-25T11:11:12Z</time>
      </trkpt>
      <trkpt lon="78.518800300996205" lat="17.636529428887481">
        <ele>504.88</ele>
        <time>2024-09-25T11:11:12Z</time>
      </trkpt>
      <trkpt lon="78.518801454134703" lat="17.636531745848941">
        <ele>504.878</ele>
        <time>2024-09-25T11:11:12Z</time>
      </trkpt>
      <trkpt lon="78.518802880191743" lat="17.636534635913499">
        <ele>504.73</ele>
        <time>2024-09-25T11:11:13Z</time>
      </trkpt>
      <trkpt lon="78.518804211258924" lat="17.636537355870416">
        <ele>504.605</ele>
        <time>2024-09-25T11:11:13Z</time>
      </trkpt>
      <trkpt lon="78.518805458135446" lat="17.636539923844389">
        <ele>504.503</ele>
        <time>2024-09-25T11:11:13Z</time>
      </trkpt>
      <trkpt lon="78.518806631885795" lat="17.636542358776317">
        <ele>504.421</ele>
        <time>2024-09-25T11:11:13Z</time>
      </trkpt>
      <trkpt lon="78.518807743390141" lat="17.636544679564565">
        <ele>504.357</ele>
        <time>2024-09-25T11:11:13Z</time>
      </trkpt>
      <trkpt lon="78.518808803011879" lat="17.636546904419113">
        <ele>504.309</ele>
        <time>2024-09-25T11:11:13Z</time>
      </trkpt>
      <trkpt lon="78.518809820364908" lat="17.636549050398607">
        <ele>504.274</ele>
        <time>2024-09-25T11:11:13Z</time>
      </trkpt>
      <trkpt lon="78.518810804164289" lat="17.636551133101381">
        <ele>504.251</ele>
        <time>2024-09-25T11:11:13Z</time>
      </trkpt>
      <trkpt lon="78.518811762144878" lat="17.636553166483235">
        <ele>504.238</ele>
        <time>2024-09-25T11:11:13Z</time>
      </trkpt>
      <trkpt lon="78.518812701033951" lat="17.636555162777139">
        <ele>504.232</ele>
        <time>2024-09-25T11:11:13Z</time>
      </trkpt>
      <trkpt lon="78.518813626565716" lat="17.636557132492516">
        <ele>504.232</ele>
        <time>2024-09-25T11:11:13Z</time>
      </trkpt>
      <trkpt lon="78.518814543526545" lat="17.636559084474591">
        <ele>504.236</ele>
        <time>2024-09-25T11:11:13Z</time>
      </trkpt>
      <trkpt lon="78.518815455822178" lat="17.636561026006884">
        <ele>504.244</ele>
        <time>2024-09-25T11:11:13Z</time>
      </trkpt>
      <trkpt lon="78.518816366558809" lat="17.636562962942744">
        <ele>504.254</ele>
        <time>2024-09-25T11:11:13Z</time>
      </trkpt>
      <trkpt lon="78.518817278132104" lat="17.636564899854136">
        <ele>504.265</ele>
        <time>2024-09-25T11:11:13Z</time>
      </trkpt>
      <trkpt lon="78.518818192318889" lat="17.636566840188337">
        <ele>504.276</ele>
        <time>2024-09-25T11:11:13Z</time>
      </trkpt>
      <trkpt lon="78.518819110367801" lat="17.636568786425084">
        <ele>504.288</ele>
        <time>2024-09-25T11:11:13Z</time>
      </trkpt>
      <trkpt lon="78.518820033085944" lat="17.636570740228652">
        <ele>504.299</ele>
        <time>2024-09-25T11:11:13Z</time>
      </trkpt>
      <trkpt lon="78.51882096091957" lat="17.636572702590811">
        <ele>504.31</ele>
        <time>2024-09-25T11:11:13Z</time>
      </trkpt>
      <trkpt lon="78.518821894027411" lat="17.636574673961938">
        <ele>504.32</ele>
        <time>2024-09-25T11:11:13Z</time>
      </trkpt>
      <trkpt lon="78.518822832345975" lat="17.636576654368664">
        <ele>504.329</ele>
        <time>2024-09-25T11:11:13Z</time>
      </trkpt>
      <trkpt lon="78.51882377564641" lat="17.636578643517261">
        <ele>504.336</ele>
        <time>2024-09-25T11:11:13Z</time>
      </trkpt>
      <trkpt lon="78.518824723583222" lat="17.636580640882723">
        <ele>504.343</ele>
        <time>2024-09-25T11:11:13Z</time>
      </trkpt>
      <trkpt lon="78.518825675734917" lat="17.636582645783928">
        <ele>504.349</ele>
        <time>2024-09-25T11:11:13Z</time>
      </trkpt>
      <trkpt lon="78.51882663163741" lat="17.63658465744572">
        <ele>504.353</ele>
        <time>2024-09-25T11:11:13Z</time>
      </trkpt>
      <trkpt lon="78.518827590810588" lat="17.636586675048989">
        <ele>504.357</ele>
        <time>2024-09-25T11:11:13Z</time>
      </trkpt>
      <trkpt lon="78.51882855277897" lat="17.636588697769941">
        <ele>504.36</ele>
        <time>2024-09-25T11:11:13Z</time>
      </trkpt>
      <trkpt lon="78.518829517087056" lat="17.636590724809849">
        <ele>504.362</ele>
        <time>2024-09-25T11:11:13Z</time>
      </trkpt>
      <trkpt lon="78.518830483310211" lat="17.636592755416626">
        <ele>504.364</ele>
        <time>2024-09-25T11:11:13Z</time>
      </trkpt>
      <trkpt lon="78.518831621763567" lat="17.636595094439659">
        <ele>504.386</ele>
        <time>2024-09-25T11:11:14Z</time>
      </trkpt>
      <trkpt lon="78.518832633142367" lat="17.636597121261797">
        <ele>504.404</ele>
        <time>2024-09-25T11:11:14Z</time>
      </trkpt>
      <trkpt lon="78.518833534709884" lat="17.636598880126087">
        <ele>504.419</ele>
        <time>2024-09-25T11:11:14Z</time>
      </trkpt>
      <trkpt lon="78.518834343293051" lat="17.636600413689543">
        <ele>504.431</ele>
        <time>2024-09-25T11:11:14Z</time>
      </trkpt>
      <trkpt lon="78.518835074805537" lat="17.636601761932159">
        <ele>504.44</ele>
        <time>2024-09-25T11:11:14Z</time>
      </trkpt>
      <trkpt lon="78.518835743919894" lat="17.636602961427499">
        <ele>504.447</ele>
        <time>2024-09-25T11:11:14Z</time>
      </trkpt>
      <trkpt lon="78.518836363863542" lat="17.63660404491112">
        <ele>504.451</ele>
        <time>2024-09-25T11:11:14Z</time>
      </trkpt>
      <trkpt lon="78.51883694631519" lat="17.636605041088572">
        <ele>504.454</ele>
        <time>2024-09-25T11:11:14Z</time>
      </trkpt>
      <trkpt lon="78.518837501380474" lat="17.636605974630609">
        <ele>504.456</ele>
        <time>2024-09-25T11:11:14Z</time>
      </trkpt>
      <trkpt lon="78.518838037628271" lat="17.636606866309691">
        <ele>504.456</ele>
        <time>2024-09-25T11:11:14Z</time>
      </trkpt>
      <trkpt lon="78.518838562171496" lat="17.636607733238282">
        <ele>504.456</ele>
        <time>2024-09-25T11:11:14Z</time>
      </trkpt>
      <trkpt lon="78.518839080778392" lat="17.636608589175584">
        <ele>504.455</ele>
        <time>2024-09-25T11:11:14Z</time>
      </trkpt>
      <trkpt lon="78.518839598003368" lat="17.636609444875216">
        <ele>504.453</ele>
        <time>2024-09-25T11:11:14Z</time>
      </trkpt>
      <trkpt lon="78.518840117327571" lat="17.636610308451679">
        <ele>504.452</ele>
        <time>2024-09-25T11:11:14Z</time>
      </trkpt>
      <trkpt lon="78.518840641302262" lat="17.636611185748251">
        <ele>504.45</ele>
        <time>2024-09-25T11:11:14Z</time>
      </trkpt>
      <trkpt lon="78.518841171689104" lat="17.636612080693205">
        <ele>504.448</ele>
        <time>2024-09-25T11:11:14Z</time>
      </trkpt>
      <trkpt lon="78.518841709593374" lat="17.63661299563482">
        <ele>504.446</ele>
        <time>2024-09-25T11:11:14Z</time>
      </trkpt>
      <trkpt lon="78.518842255587174" lat="17.6366139316488">
        <ele>504.444</ele>
        <time>2024-09-25T11:11:14Z</time>
      </trkpt>
      <trkpt lon="78.518842809820825" lat="17.636614888814204">
        <ele>504.443</ele>
        <time>2024-09-25T11:11:14Z</time>
      </trkpt>
      <trkpt lon="78.518843372121481" lat="17.636615866456065">
        <ele>504.441</ele>
        <time>2024-09-25T11:11:14Z</time>
      </trkpt>
      <trkpt lon="78.518843942078703" lat="17.636616863354451">
        <ele>504.44</ele>
        <time>2024-09-25T11:11:14Z</time>
      </trkpt>
      <trkpt lon="78.518844519117152" lat="17.636617877921001">
        <ele>504.438</ele>
        <time>2024-09-25T11:11:14Z</time>
      </trkpt>
      <trkpt lon="78.51884510255725" lat="17.636618908344779">
        <ele>504.437</ele>
        <time>2024-09-25T11:11:14Z</time>
      </trkpt>
      <trkpt lon="78.518845691664367" lat="17.636619952709975">
        <ele>504.437</ele>
        <time>2024-09-25T11:11:14Z</time>
      </trkpt>
      <trkpt lon="78.518846285687928" lat="17.636621009088245">
        <ele>504.436</ele>
        <time>2024-09-25T11:11:14Z</time>
      </trkpt>
      <trkpt lon="78.518846883891399" lat="17.636622075608777">
        <ele>504.435</ele>
        <time>2024-09-25T11:11:14Z</time>
      </trkpt>
      <trkpt lon="78.518847485574383" lat="17.636623150509084">
        <ele>504.435</ele>
        <time>2024-09-25T11:11:14Z</time>
      </trkpt>
      <trkpt lon="78.518848090088099" lat="17.636624232169563">
        <ele>504.435</ele>
        <time>2024-09-25T11:11:14Z</time>
      </trkpt>
      <trkpt lon="78.518848696845154" lat="17.636625319134549">
        <ele>504.435</ele>
        <time>2024-09-25T11:11:14Z</time>
      </trkpt>
      <trkpt lon="78.51884950814437" lat="17.636626851250277">
        <ele>504.119</ele>
        <time>2024-09-25T11:11:15Z</time>
      </trkpt>
      <trkpt lon="78.518850320931321" lat="17.636628452488235">
        <ele>503.853</ele>
        <time>2024-09-25T11:11:15Z</time>
      </trkpt>
      <trkpt lon="78.518851131686802" lat="17.636630104758314">
        <ele>503.634</ele>
        <time>2024-09-25T11:11:15Z</time>
      </trkpt>
      <trkpt lon="78.518851937828529" lat="17.636631792651624">
        <ele>503.458</ele>
        <time>2024-09-25T11:11:15Z</time>
      </trkpt>
      <trkpt lon="78.518852737570185" lat="17.636633503315533">
        <ele>503.32</ele>
        <time>2024-09-25T11:11:15Z</time>
      </trkpt>
      <trkpt lon="78.518853529787478" lat="17.63663522627073">
        <ele>503.215</ele>
        <time>2024-09-25T11:11:15Z</time>
      </trkpt>
      <trkpt lon="78.518854313894209" lat="17.636636953190884">
        <ele>503.14</ele>
        <time>2024-09-25T11:11:15Z</time>
      </trkpt>
      <trkpt lon="78.518855089730167" lat="17.636638677661775">
        <ele>503.09</ele>
        <time>2024-09-25T11:11:15Z</time>
      </trkpt>
      <trkpt lon="78.518855857461816" lat="17.636640394933334">
        <ele>503.059</ele>
        <time>2024-09-25T11:11:15Z</time>
      </trkpt>
      <trkpt lon="78.518856617496098" lat="17.636642101674902">
        <ele>503.045</ele>
        <time>2024-09-25T11:11:15Z</time>
      </trkpt>
      <trkpt lon="78.518857370407076" lat="17.636643795741467">
        <ele>503.043</ele>
        <time>2024-09-25T11:11:15Z</time>
      </trkpt>
      <trkpt lon="78.51885811687491" lat="17.636645475956289">
        <ele>503.052</ele>
        <time>2024-09-25T11:11:15Z</time>
      </trkpt>
      <trkpt lon="78.518858857636047" lat="17.636647141913372">
        <ele>503.067</ele>
        <time>2024-09-25T11:11:15Z</time>
      </trkpt>
      <trkpt lon="78.518859593443835" lat="17.636648793801836">
        <ele>503.087</ele>
        <time>2024-09-25T11:11:15Z</time>
      </trkpt>
      <trkpt lon="78.518860325038176" lat="17.636650432252821">
        <ele>503.11</ele>
        <time>2024-09-25T11:11:15Z</time>
      </trkpt>
      <trkpt lon="78.51886105312316" lat="17.636652058208767">
        <ele>503.134</ele>
        <time>2024-09-25T11:11:15Z</time>
      </trkpt>
      <trkpt lon="78.518861778351408" lat="17.636653672814038">
        <ele>503.159</ele>
        <time>2024-09-25T11:11:15Z</time>
      </trkpt>
      <trkpt lon="78.518862501314089" lat="17.636655277325474">
        <ele>503.183</ele>
        <time>2024-09-25T11:11:15Z</time>
      </trkpt>
      <trkpt lon="78.518863222535515" lat="17.636656873041044">
        <ele>503.205</ele>
        <time>2024-09-25T11:11:15Z</time>
      </trkpt>
      <trkpt lon="78.518863942471398" lat="17.636658461244657">
        <ele>503.226</ele>
        <time>2024-09-25T11:11:15Z</time>
      </trkpt>
      <trkpt lon="78.518864661509909" lat="17.636660043165023">
        <ele>503.245</ele>
        <time>2024-09-25T11:11:15Z</time>
      </trkpt>
      <trkpt lon="78.518865379974812" lat="17.636661619946569">
        <ele>503.261</ele>
        <time>2024-09-25T11:11:15Z</time>
      </trkpt>
      <trkpt lon="78.51886609813009" lat="17.636663192630458">
        <ele>503.275</ele>
        <time>2024-09-25T11:11:15Z</time>
      </trkpt>
      <trkpt lon="78.518866816185493" lat="17.63666476214383">
        <ele>503.287</ele>
        <time>2024-09-25T11:11:15Z</time>
      </trkpt>
      <trkpt lon="78.518867534302601" lat="17.636666329295704">
        <ele>503.297</ele>
        <time>2024-09-25T11:11:15Z</time>
      </trkpt>
      <trkpt lon="78.518868252601067" lat="17.636667894777922">
        <ele>503.305</ele>
        <time>2024-09-25T11:11:15Z</time>
      </trkpt>
      <trkpt lon="78.518868971164792" lat="17.636669459170008">
        <ele>503.311</ele>
        <time>2024-09-25T11:11:15Z</time>
      </trkpt>
      <trkpt lon="78.518869690047808" lat="17.636671022946665">
        <ele>503.316</ele>
        <time>2024-09-25T11:11:15Z</time>
      </trkpt>
      <trkpt lon="78.518870409279771" lat="17.636672586487116">
        <ele>503.32</ele>
        <time>2024-09-25T11:11:15Z</time>
      </trkpt>
      <trkpt lon="78.518871353882574" lat="17.636674666778884">
        <ele>503.645</ele>
        <time>2024-09-25T11:11:16Z</time>
      </trkpt>
      <trkpt lon="78.518872285641095" lat="17.636676741645982">
        <ele>503.919</ele>
        <time>2024-09-25T11:11:16Z</time>
      </trkpt>
      <trkpt lon="78.51887320317627" lat="17.636678804244021">
        <ele>504.145</ele>
        <time>2024-09-25T11:11:16Z</time>
      </trkpt>
      <trkpt lon="78.518874105942501" lat="17.636680849839689">
        <ele>504.326</ele>
        <time>2024-09-25T11:11:16Z</time>
      </trkpt>
      <trkpt lon="78.518874994041454" lat="17.636682875455413">
        <ele>504.467</ele>
        <time>2024-09-25T11:11:16Z</time>
      </trkpt>
      <trkpt lon="78.518875868059112" lat="17.636684879540542">
        <ele>504.573</ele>
        <time>2024-09-25T11:11:16Z</time>
      </trkpt>
      <trkpt lon="78.518876728926244" lat="17.636686861673905">
        <ele>504.65</ele>
        <time>2024-09-25T11:11:16Z</time>
      </trkpt>
      <trkpt lon="78.518877577801177" lat="17.636688822300375">
        <ele>504.701</ele>
        <time>2024-09-25T11:11:16Z</time>
      </trkpt>
      <trkpt lon="78.51887841597356" lat="17.636690762502226">
        <ele>504.731</ele>
        <time>2024-09-25T11:11:16Z</time>
      </trkpt>
      <trkpt lon="78.518879244787215" lat="17.636692683804618">
        <ele>504.745</ele>
        <time>2024-09-25T11:11:16Z</time>
      </trkpt>
      <trkpt lon="78.518880065580191" lat="17.636694588013597">
        <ele>504.745</ele>
        <time>2024-09-25T11:11:16Z</time>
      </trkpt>
      <trkpt lon="78.518880879639639" lat="17.636696477084225">
        <ele>504.736</ele>
        <time>2024-09-25T11:11:16Z</time>
      </trkpt>
      <trkpt lon="78.518881688169742" lat="17.636698353016001">
        <ele>504.719</ele>
        <time>2024-09-25T11:11:16Z</time>
      </trkpt>
      <trkpt lon="78.518882492270194" lat="17.636700217772482">
        <ele>504.698</ele>
        <time>2024-09-25T11:11:16Z</time>
      </trkpt>
      <trkpt lon="78.518883292923846" lat="17.636702073221926">
        <ele>504.673</ele>
        <time>2024-09-25T11:11:16Z</time>
      </trkpt>
      <trkpt lon="78.518884090991278" lat="17.636703921095886">
        <ele>504.648</ele>
        <time>2024-09-25T11:11:16Z</time>
      </trkpt>
      <trkpt lon="78.518884887211016" lat="17.636705762962723">
        <ele>504.622</ele>
        <time>2024-09-25T11:11:16Z</time>
      </trkpt>
      <trkpt lon="78.518885682203958" lat="17.636707600213306">
        <ele>504.597</ele>
        <time>2024-09-25T11:11:16Z</time>
      </trkpt>
      <trkpt lon="78.518886476480731" lat="17.636709434056417">
        <ele>504.574</ele>
        <time>2024-09-25T11:11:16Z</time>
      </trkpt>
      <trkpt lon="78.518887270451131" lat="17.636711265521594">
        <ele>504.553</ele>
        <time>2024-09-25T11:11:16Z</time>
      </trkpt>
      <trkpt lon="78.518888064434719" lat="17.636713095467499">
        <ele>504.533</ele>
        <time>2024-09-25T11:11:16Z</time>
      </trkpt>
      <trkpt lon="78.518888858671929" lat="17.636714924594173">
        <ele>504.516</ele>
        <time>2024-09-25T11:11:16Z</time>
      </trkpt>
      <trkpt lon="78.518889653335179" lat="17.636716753457765">
        <ele>504.502</ele>
        <time>2024-09-25T11:11:16Z</time>
      </trkpt>
      <trkpt lon="78.518890448539651" lat="17.636718582486644">
        <ele>504.489</ele>
        <time>2024-09-25T11:11:16Z</time>
      </trkpt>
      <trkpt lon="78.518891244353384" lat="17.636720411997985">
        <ele>504.479</ele>
        <time>2024-09-25T11:11:16Z</time>
      </trkpt>
      <trkpt lon="78.518892040806506" lat="17.636722242214116">
        <ele>504.471</ele>
        <time>2024-09-25T11:11:16Z</time>
      </trkpt>
      <trkpt lon="78.518892837899514" lat="17.636724073278167">
        <ele>504.465</ele>
        <time>2024-09-25T11:11:16Z</time>
      </trkpt>
      <trkpt lon="78.518893635610567" lat="17.636725905268573">
        <ele>504.46</ele>
        <time>2024-09-25T11:11:16Z</time>
      </trkpt>
      <trkpt lon="78.518894433901721" lat="17.63672773821229">
        <ele>504.456</ele>
        <time>2024-09-25T11:11:16Z</time>
      </trkpt>
      <trkpt lon="78.518895371776409" lat="17.636729982791998">
        <ele>504.305</ele>
        <time>2024-09-25T11:11:17Z</time>
      </trkpt>
      <trkpt lon="78.518896202297" lat="17.636732057675875">
        <ele>504.178</ele>
        <time>2024-09-25T11:11:17Z</time>
      </trkpt>
      <trkpt lon="78.518896940240097" lat="17.636733983355533">
        <ele>504.074</ele>
        <time>2024-09-25T11:11:17Z</time>
      </trkpt>
      <trkpt lon="78.518897599959672" lat="17.636735780459595">
        <ele>503.991</ele>
        <time>2024-09-25T11:11:17Z</time>
      </trkpt>
      <trkpt lon="78.518898194992587" lat="17.636737469003528">
        <ele>503.927</ele>
        <time>2024-09-25T11:11:17Z</time>
      </trkpt>
      <trkpt lon="78.518898737789641" lat="17.636739067845493">
        <ele>503.878</ele>
        <time>2024-09-25T11:11:17Z</time>
      </trkpt>
      <trkpt lon="78.518899239550549" lat="17.636740594316336">
        <ele>503.844</ele>
        <time>2024-09-25T11:11:17Z</time>
      </trkpt>
      <trkpt lon="78.518899710142975" lat="17.636742063993687">
        <ele>503.821</ele>
        <time>2024-09-25T11:11:17Z</time>
      </trkpt>
      <trkpt lon="78.518900158087746" lat="17.636743490592593">
        <ele>503.807</ele>
        <time>2024-09-25T11:11:17Z</time>
      </trkpt>
      <trkpt lon="78.518900590594555" lat="17.636744885947742">
        <ele>503.802</ele>
        <time>2024-09-25T11:11:17Z</time>
      </trkpt>
      <trkpt lon="78.51890101363432" lat="17.636746260065372">
        <ele>503.802</ele>
        <time>2024-09-25T11:11:17Z</time>
      </trkpt>
      <trkpt lon="78.51890143203677" lat="17.636747621225897">
        <ele>503.807</ele>
        <time>2024-09-25T11:11:17Z</time>
      </trkpt>
      <trkpt lon="78.518901849603722" lat="17.636748976121211">
        <ele>503.815</ele>
        <time>2024-09-25T11:11:17Z</time>
      </trkpt>
      <trkpt lon="78.518902269230026" lat="17.636750330013353">
        <ele>503.825</ele>
        <time>2024-09-25T11:11:17Z</time>
      </trkpt>
      <trkpt lon="78.518902693026362" lat="17.636751686903771">
        <ele>503.837</ele>
        <time>2024-09-25T11:11:17Z</time>
      </trkpt>
      <trkpt lon="78.518903122438957" lat="17.636753049704684">
        <ele>503.849</ele>
        <time>2024-09-25T11:11:17Z</time>
      </trkpt>
      <trkpt lon="78.518903558362965" lat="17.63675442040611">
        <ele>503.861</ele>
        <time>2024-09-25T11:11:17Z</time>
      </trkpt>
      <trkpt lon="78.518904001247037" lat="17.636755800233772">
        <ele>503.873</ele>
        <time>2024-09-25T11:11:17Z</time>
      </trkpt>
      <trkpt lon="78.518904451187638" lat="17.636757189794704">
        <ele>503.884</ele>
        <time>2024-09-25T11:11:17Z</time>
      </trkpt>
      <trkpt lon="78.518904908012431" lat="17.636758589208458">
        <ele>503.894</ele>
        <time>2024-09-25T11:11:17Z</time>
      </trkpt>
      <trkpt lon="78.518905371352432" lat="17.636759998222988">
        <ele>503.903</ele>
        <time>2024-09-25T11:11:17Z</time>
      </trkpt>
      <trkpt lon="78.518905840703198" lat="17.636761416314862">
        <ele>503.911</ele>
        <time>2024-09-25T11:11:17Z</time>
      </trkpt>
      <trkpt lon="78.518906315475775" lat="17.636762842774267">
        <ele>503.917</ele>
        <time>2024-09-25T11:11:17Z</time>
      </trkpt>
      <trkpt lon="78.51890679503785" lat="17.636764276775537">
        <ele>503.923</ele>
        <time>2024-09-25T11:11:17Z</time>
      </trkpt>
      <trkpt lon="78.518907278746482" lat="17.636765717434351">
        <ele>503.928</ele>
        <time>2024-09-25T11:11:17Z</time>
      </trkpt>
      <trkpt lon="78.518907765972983" lat="17.63676716385288">
        <ele>503.932</ele>
        <time>2024-09-25T11:11:17Z</time>
      </trkpt>
      <trkpt lon="78.518908256121279" lat="17.636768615154306">
        <ele>503.935</ele>
        <time>2024-09-25T11:11:17Z</time>
      </trkpt>
      <trkpt lon="78.518908748640555" lat="17.636770070508085">
        <ele>503.937</ele>
        <time>2024-09-25T11:11:17Z</time>
      </trkpt>
      <trkpt lon="78.518909243033292" lat="17.63677152914741">
        <ele>503.938</ele>
        <time>2024-09-25T11:11:17Z</time>
      </trkpt>
      <trkpt lon="78.518910031571153" lat="17.636773551270661">
        <ele>504.234</ele>
        <time>2024-09-25T11:11:18Z</time>
      </trkpt>
      <trkpt lon="78.518910928781395" lat="17.636775637351153">
        <ele>504.483</ele>
        <time>2024-09-25T11:11:18Z</time>
      </trkpt>
      <trkpt lon="78.518911912938975" lat="17.636777768538359">
        <ele>504.688</ele>
        <time>2024-09-25T11:11:18Z</time>
      </trkpt>
      <trkpt lon="78.518912964647626" lat="17.636779929055937">
        <ele>504.853</ele>
        <time>2024-09-25T11:11:18Z</time>
      </trkpt>
      <trkpt lon="78.518914066940155" lat="17.636782105992825">
        <ele>504.982</ele>
        <time>2024-09-25T11:11:18Z</time>
      </trkpt>
      <trkpt lon="78.518915205269693" lat="17.63678428904624">
        <ele>505.079</ele>
        <time>2024-09-25T11:11:18Z</time>
      </trkpt>
      <trkpt lon="78.518916367419067" lat="17.636786470237357">
        <ele>505.149</ele>
        <time>2024-09-25T11:11:18Z</time>
      </trkpt>
      <trkpt lon="78.518917543351535" lat="17.636788643616292">
        <ele>505.196</ele>
        <time>2024-09-25T11:11:18Z</time>
      </trkpt>
      <trkpt lon="78.518918725022559" lat="17.636790804969237">
        <ele>505.224</ele>
        <time>2024-09-25T11:11:18Z</time>
      </trkpt>
      <trkpt lon="78.518919906168762" lat="17.636792951537409">
        <ele>505.236</ele>
        <time>2024-09-25T11:11:18Z</time>
      </trkpt>
      <trkpt lon="78.518921082086933" lat="17.636795081754659">
        <ele>505.237</ele>
        <time>2024-09-25T11:11:18Z</time>
      </trkpt>
      <trkpt lon="78.518922249413308" lat="17.636797195008249">
        <ele>505.229</ele>
        <time>2024-09-25T11:11:18Z</time>
      </trkpt>
      <trkpt lon="78.51892340591057" lat="17.636799291425415">
        <ele>505.214</ele>
        <time>2024-09-25T11:11:18Z</time>
      </trkpt>
      <trkpt lon="78.518924550268295" lat="17.636801371686786">
        <ele>505.195</ele>
        <time>2024-09-25T11:11:18Z</time>
      </trkpt>
      <trkpt lon="78.518925681920265" lat="17.636803436866504">
        <ele>505.174</ele>
        <time>2024-09-25T11:11:18Z</time>
      </trkpt>
      <trkpt lon="78.518926800880919" lat="17.636805488298048">
        <ele>505.151</ele>
        <time>2024-09-25T11:11:18Z</time>
      </trkpt>
      <trkpt lon="78.518927907601906" lat="17.636807527464079">
        <ele>505.127</ele>
        <time>2024-09-25T11:11:18Z</time>
      </trkpt>
      <trkpt lon="78.518929002848736" lat="17.636809555908208">
        <ele>505.105</ele>
        <time>2024-09-25T11:11:18Z</time>
      </trkpt>
      <trkpt lon="78.518930087596956" lat="17.636811575166398">
        <ele>505.084</ele>
        <time>2024-09-25T11:11:18Z</time>
      </trkpt>
      <trkpt lon="78.518931162946544" lat="17.636813586715505">
        <ele>505.064</ele>
        <time>2024-09-25T11:11:18Z</time>
      </trkpt>
      <trkpt lon="78.51893223005311" lat="17.636815591936532">
        <ele>505.047</ele>
        <time>2024-09-25T11:11:18Z</time>
      </trkpt>
      <trkpt lon="78.518933290074045" lat="17.636817592090271">
        <ele>505.032</ele>
        <time>2024-09-25T11:11:18Z</time>
      </trkpt>
      <trkpt lon="78.518934344127857" lat="17.636819588303105">
        <ele>505.018</ele>
        <time>2024-09-25T11:11:18Z</time>
      </trkpt>
      <trkpt lon="78.518935393264925" lat="17.636821581560984">
        <ele>505.007</ele>
        <time>2024-09-25T11:11:18Z</time>
      </trkpt>
      <trkpt lon="78.518936438447838" lat="17.636823572709758">
        <ele>504.998</ele>
        <time>2024-09-25T11:11:18Z</time>
      </trkpt>
      <trkpt lon="78.518937480539506" lat="17.636825562460285">
        <ele>504.99</ele>
        <time>2024-09-25T11:11:18Z</time>
      </trkpt>
      <trkpt lon="78.518938520297752" lat="17.636827551396983">
        <ele>504.984</ele>
        <time>2024-09-25T11:11:18Z</time>
      </trkpt>
      <trkpt lon="78.518939558374896" lat="17.636829539988661">
        <ele>504.98</ele>
        <time>2024-09-25T11:11:18Z</time>
      </trkpt>
      <trkpt lon="78.518940595321013" lat="17.636831528600688">
        <ele>504.977</ele>
        <time>2024-09-25T11:11:18Z</time>
      </trkpt>
      <trkpt lon="78.518942025524368" lat="17.636834096844957">
        <ele>505.178</ele>
        <time>2024-09-25T11:11:19Z</time>
      </trkpt>
      <trkpt lon="78.518943494679078" lat="17.636836592907002">
        <ele>505.348</ele>
        <time>2024-09-25T11:11:19Z</time>
      </trkpt>
      <trkpt lon="78.518944990875283" lat="17.636839019493994">
        <ele>505.489</ele>
        <time>2024-09-25T11:11:19Z</time>
      </trkpt>
      <trkpt lon="78.518946504196023" lat="17.636841381059433">
        <ele>505.603</ele>
        <time>2024-09-25T11:11:19Z</time>
      </trkpt>
      <trkpt lon="78.518948026571039" lat="17.636843683218576">
        <ele>505.692</ele>
        <time>2024-09-25T11:11:19Z</time>
      </trkpt>
      <trkpt lon="78.518949551602347" lat="17.636845932267409">
        <ele>505.76</ele>
        <time>2024-09-25T11:11:19Z</time>
      </trkpt>
      <trkpt lon="78.51895107437484" lat="17.63684813479642">
        <ele>505.809</ele>
        <time>2024-09-25T11:11:19Z</time>
      </trkpt>
      <trkpt lon="78.518952591261879" lat="17.636850297389206">
        <ele>505.843</ele>
        <time>2024-09-25T11:11:19Z</time>
      </trkpt>
      <trkpt lon="78.518954099734032" lat="17.636852426395532">
        <ele>505.864</ele>
        <time>2024-09-25T11:11:19Z</time>
      </trkpt>
      <trkpt lon="78.518955598176802" lat="17.636854527768367">
        <ele>505.874</ele>
        <time>2024-09-25T11:11:19Z</time>
      </trkpt>
      <trkpt lon="78.518957085721496" lat="17.636856606954847">
        <ele>505.876</ele>
        <time>2024-09-25T11:11:19Z</time>
      </trkpt>
      <trkpt lon="78.51895856209174" lat="17.636858668831618">
        <ele>505.872</ele>
        <time>2024-09-25T11:11:19Z</time>
      </trkpt>
      <trkpt lon="78.518960027467259" lat="17.636860717675912">
        <ele>505.863</ele>
        <time>2024-09-25T11:11:19Z</time>
      </trkpt>
      <trkpt lon="78.518961482365413" lat="17.636862757164582">
        <ele>505.85</ele>
        <time>2024-09-25T11:11:19Z</time>
      </trkpt>
      <trkpt lon="78.518962927540045" lat="17.636864790394213">
        <ele>505.836</ele>
        <time>2024-09-25T11:11:19Z</time>
      </trkpt>
      <trkpt lon="78.518964363897084" lat="17.636866819916424">
        <ele>505.821</ele>
        <time>2024-09-25T11:11:19Z</time>
      </trkpt>
      <trkpt lon="78.518965792425675" lat="17.636868847783418">
        <ele>505.806</ele>
        <time>2024-09-25T11:11:19Z</time>
      </trkpt>
      <trkpt lon="78.518967214143331" lat="17.636870875599673">
        <ele>505.791</ele>
        <time>2024-09-25T11:11:19Z</time>
      </trkpt>
      <trkpt lon="78.518968630053593" lat="17.636872904576425">
        <ele>505.777</ele>
        <time>2024-09-25T11:11:19Z</time>
      </trkpt>
      <trkpt lon="78.518970041114642" lat="17.636874935586416">
        <ele>505.764</ele>
        <time>2024-09-25T11:11:19Z</time>
      </trkpt>
      <trkpt lon="78.518971448217172" lat="17.636876969216921">
        <ele>505.752</ele>
        <time>2024-09-25T11:11:19Z</time>
      </trkpt>
      <trkpt lon="78.51897285217008" lat="17.636879005819637">
        <ele>505.742</ele>
        <time>2024-09-25T11:11:19Z</time>
      </trkpt>
      <trkpt lon="78.518974253692505" lat="17.636881045556443">
        <ele>505.733</ele>
        <time>2024-09-25T11:11:19Z</time>
      </trkpt>
      <trkpt lon="78.518975653410962" lat="17.636883088440534">
        <ele>505.725</ele>
        <time>2024-09-25T11:11:19Z</time>
      </trkpt>
      <trkpt lon="78.518977051860361" lat="17.636885134372555">
        <ele>505.719</ele>
        <time>2024-09-25T11:11:19Z</time>
      </trkpt>
      <trkpt lon="78.518978449488017" lat="17.636887183171751">
        <ele>505.713</ele>
        <time>2024-09-25T11:11:19Z</time>
      </trkpt>
      <trkpt lon="78.518979846659661" lat="17.636889234602293">
        <ele>505.709</ele>
        <time>2024-09-25T11:11:19Z</time>
      </trkpt>
      <trkpt lon="78.518981243666801" lat="17.636891288395034">
        <ele>505.706</ele>
        <time>2024-09-25T11:11:19Z</time>
      </trkpt>
      <trkpt lon="78.518982640734933" lat="17.63689334426504">
        <ele>505.704</ele>
        <time>2024-09-25T11:11:19Z</time>
      </trkpt>
      <trkpt lon="78.518984359865058" lat="17.636896108797259">
        <ele>505.172</ele>
        <time>2024-09-25T11:11:20Z</time>
      </trkpt>
      <trkpt lon="78.51898595662206" lat="17.63689889119604">
        <ele>504.724</ele>
        <time>2024-09-25T11:11:20Z</time>
      </trkpt>
      <trkpt lon="78.518987445466379" lat="17.636901677822713">
        <ele>504.355</ele>
        <time>2024-09-25T11:11:20Z</time>
      </trkpt>
      <trkpt lon="78.518988841046223" lat="17.636904458249418">
        <ele>504.058</ele>
        <time>2024-09-25T11:11:20Z</time>
      </trkpt>
      <trkpt lon="78.518990157642605" lat="17.636907224830789">
        <ele>503.826</ele>
        <time>2024-09-25T11:11:20Z</time>
      </trkpt>
      <trkpt lon="78.51899140876381" lat="17.63690997228446">
        <ele>503.651</ele>
        <time>2024-09-25T11:11:20Z</time>
      </trkpt>
      <trkpt lon="78.518992606866462" lat="17.636912697292789">
        <ele>503.525</ele>
        <time>2024-09-25T11:11:20Z</time>
      </trkpt>
      <trkpt lon="78.518993763181868" lat="17.636915398134391">
        <ele>503.44</ele>
        <time>2024-09-25T11:11:20Z</time>
      </trkpt>
      <trkpt lon="78.518994887627571" lat="17.636918074350948">
        <ele>503.389</ele>
        <time>2024-09-25T11:11:20Z</time>
      </trkpt>
      <trkpt lon="78.518995988786372" lat="17.636920726452171">
        <ele>503.366</ele>
        <time>2024-09-25T11:11:20Z</time>
      </trkpt>
      <trkpt lon="78.518997073936859" lat="17.636923355659796">
        <ele>503.364</ele>
        <time>2024-09-25T11:11:20Z</time>
      </trkpt>
      <trkpt lon="78.5189981491217" lat="17.636925963689858">
        <ele>503.378</ele>
        <time>2024-09-25T11:11:20Z</time>
      </trkpt>
      <trkpt lon="78.518999219242062" lat="17.636928552571408">
        <ele>503.405</ele>
        <time>2024-09-25T11:11:20Z</time>
      </trkpt>
      <trkpt lon="78.519000288168357" lat="17.636931124498979">
        <ele>503.439</ele>
        <time>2024-09-25T11:11:20Z</time>
      </trkpt>
      <trkpt lon="78.519001358859697" lat="17.636933681715643">
        <ele>503.478</ele>
        <time>2024-09-25T11:11:20Z</time>
      </trkpt>
      <trkpt lon="78.519002433485355" lat="17.63693622642316">
        <ele>503.519</ele>
        <time>2024-09-25T11:11:20Z</time>
      </trkpt>
      <trkpt lon="78.51900351354395" lat="17.636938760715676">
        <ele>503.561</ele>
        <time>2024-09-25T11:11:20Z</time>
      </trkpt>
      <trkpt lon="78.519004599976483" lat="17.636941286533503">
        <ele>503.601</ele>
        <time>2024-09-25T11:11:20Z</time>
      </trkpt>
      <trkpt lon="78.519005693270941" lat="17.636943805633585">
        <ele>503.639</ele>
        <time>2024-09-25T11:11:20Z</time>
      </trkpt>
      <trkpt lon="78.519006793556855" lat="17.636946319573642">
        <ele>503.674</ele>
        <time>2024-09-25T11:11:20Z</time>
      </trkpt>
      <trkpt lon="78.519007900689061" lat="17.636948829707105">
        <ele>503.705</ele>
        <time>2024-09-25T11:11:20Z</time>
      </trkpt>
      <trkpt lon="78.519009014320389" lat="17.636951337186421">
        <ele>503.733</ele>
        <time>2024-09-25T11:11:20Z</time>
      </trkpt>
      <trkpt lon="78.519010133963391" lat="17.636953842972485">
        <ele>503.757</ele>
        <time>2024-09-25T11:11:20Z</time>
      </trkpt>
      <trkpt lon="78.519011259041875" lat="17.63695634784845">
        <ele>503.777</ele>
        <time>2024-09-25T11:11:20Z</time>
      </trkpt>
      <trkpt lon="78.519012388932708" lat="17.636958852436265">
        <ele>503.794</ele>
        <time>2024-09-25T11:11:20Z</time>
      </trkpt>
      <trkpt lon="78.51901352299906" lat="17.636961357214783">
        <ele>503.807</ele>
        <time>2024-09-25T11:11:20Z</time>
      </trkpt>
      <trkpt lon="78.519014660615838" lat="17.636963862538341">
        <ele>503.818</ele>
        <time>2024-09-25T11:11:20Z</time>
      </trkpt>
      <trkpt lon="78.519015801188559" lat="17.63696636865512">
        <ele>503.826</ele>
        <time>2024-09-25T11:11:20Z</time>
      </trkpt>
      <trkpt lon="78.51901694416641" lat="17.636968875724648">
        <ele>503.832</ele>
        <time>2024-09-25T11:11:20Z</time>
      </trkpt>
      <trkpt lon="78.519018385976182" lat="17.636972027313174">
        <ele>503.258</ele>
        <time>2024-09-25T11:11:21Z</time>
      </trkpt>
      <trkpt lon="78.519019757640748" lat="17.636975015369099">
        <ele>502.774</ele>
        <time>2024-09-25T11:11:21Z</time>
      </trkpt>
      <trkpt lon="78.51902106550078" lat="17.636977855931956">
        <ele>502.374</ele>
        <time>2024-09-25T11:11:21Z</time>
      </trkpt>
      <trkpt lon="78.51902231655184" lat="17.636980566214891">
        <ele>502.051</ele>
        <time>2024-09-25T11:11:21Z</time>
      </trkpt>
      <trkpt lon="78.519023518040214" lat="17.636983163717925">
        <ele>501.798</ele>
        <time>2024-09-25T11:11:21Z</time>
      </trkpt>
      <trkpt lon="78.519024677149517" lat="17.636985665549588">
        <ele>501.606</ele>
        <time>2024-09-25T11:11:21Z</time>
      </trkpt>
      <trkpt lon="78.51902580076667" lat="17.636988087929126">
        <ele>501.466</ele>
        <time>2024-09-25T11:11:21Z</time>
      </trkpt>
      <trkpt lon="78.519026895315719" lat="17.636990445842159">
        <ele>501.371</ele>
        <time>2024-09-25T11:11:21Z</time>
      </trkpt>
      <trkpt lon="78.51902796664875" lat="17.636992752823932">
        <ele>501.314</ele>
        <time>2024-09-25T11:11:21Z</time>
      </trkpt>
      <trkpt lon="78.519029019983407" lat="17.636995020846324">
        <ele>501.286</ele>
        <time>2024-09-25T11:11:21Z</time>
      </trkpt>
      <trkpt lon="78.519030059877906" lat="17.63699726028694">
        <ele>501.281</ele>
        <time>2024-09-25T11:11:21Z</time>
      </trkpt>
      <trkpt lon="78.519031090235046" lat="17.636999479961197">
        <ele>501.295</ele>
        <time>2024-09-25T11:11:21Z</time>
      </trkpt>
      <trkpt lon="78.519032114328084" lat="17.637001687200769">
        <ele>501.321</ele>
        <time>2024-09-25T11:11:21Z</time>
      </trkpt>
      <trkpt lon="78.519033134841962" lat="17.637003887964216">
        <ele>501.356</ele>
        <time>2024-09-25T11:11:21Z</time>
      </trkpt>
      <trkpt lon="78.51903415392492" lat="17.63700608696811">
        <ele>501.397</ele>
        <time>2024-09-25T11:11:21Z</time>
      </trkpt>
      <trkpt lon="78.519035173246081" lat="17.637008287828987">
        <ele>501.441</ele>
        <time>2024-09-25T11:11:21Z</time>
      </trkpt>
      <trkpt lon="78.519036194055346" lat="17.63701049320855">
        <ele>501.485</ele>
        <time>2024-09-25T11:11:21Z</time>
      </trkpt>
      <trkpt lon="78.519037217243223" lat="17.637012704956309">
        <ele>501.527</ele>
        <time>2024-09-25T11:11:21Z</time>
      </trkpt>
      <trkpt lon="78.519038243398384" lat="17.637014924245292">
        <ele>501.568</ele>
        <time>2024-09-25T11:11:21Z</time>
      </trkpt>
      <trkpt lon="78.519039272861576" lat="17.637017151697844">
        <ele>501.605</ele>
        <time>2024-09-25T11:11:21Z</time>
      </trkpt>
      <trkpt lon="78.519040305774723" lat="17.637019387499581">
        <ele>501.639</ele>
        <time>2024-09-25T11:11:21Z</time>
      </trkpt>
      <trkpt lon="78.519041342125007" lat="17.637021631500474">
        <ele>501.669</ele>
        <time>2024-09-25T11:11:21Z</time>
      </trkpt>
      <trkpt lon="78.519042381783407" lat="17.637023883302671">
        <ele>501.694</ele>
        <time>2024-09-25T11:11:21Z</time>
      </trkpt>
      <trkpt lon="78.519043424537784" lat="17.63702614233534">
        <ele>501.716</ele>
        <time>2024-09-25T11:11:21Z</time>
      </trkpt>
      <trkpt lon="78.519044470120676" lat="17.637028407917068">
        <ele>501.734</ele>
        <time>2024-09-25T11:11:21Z</time>
      </trkpt>
      <trkpt lon="78.519045518232261" lat="17.637030679306754">
        <ele>501.749</ele>
        <time>2024-09-25T11:11:21Z</time>
      </trkpt>
      <trkpt lon="78.519046568558693" lat="17.63703295574404">
        <ele>501.76</ele>
        <time>2024-09-25T11:11:21Z</time>
      </trkpt>
      <trkpt lon="78.51904762078648" lat="17.637035236480461">
        <ele>501.769</ele>
        <time>2024-09-25T11:11:21Z</time>
      </trkpt>
      <trkpt lon="78.519048674613273" lat="17.637037520802501">
        <ele>501.776</ele>
        <time>2024-09-25T11:11:21Z</time>
      </trkpt>
      <trkpt lon="78.519049979581325" lat="17.637040349367997">
        <ele>502.261</ele>
        <time>2024-09-25T11:11:22Z</time>
      </trkpt>
      <trkpt lon="78.519051199212043" lat="17.637042992955731">
        <ele>502.669</ele>
        <time>2024-09-25T11:11:22Z</time>
      </trkpt>
      <trkpt lon="78.519052343043228" lat="17.637045472217963">
        <ele>503.005</ele>
        <time>2024-09-25T11:11:22Z</time>
      </trkpt>
      <trkpt lon="78.519053420897109" lat="17.637047808429543">
        <ele>503.274</ele>
        <time>2024-09-25T11:11:22Z</time>
      </trkpt>
      <trkpt lon="78.519054442469113" lat="17.637050022595798">
        <ele>503.484</ele>
        <time>2024-09-25T11:11:22Z</time>
      </trkpt>
      <trkpt lon="78.519055417022457" lat="17.637052134789382">
        <ele>503.642</ele>
        <time>2024-09-25T11:11:22Z</time>
      </trkpt>
      <trkpt lon="78.519056353172786" lat="17.637054163682787">
        <ele>503.756</ele>
        <time>2024-09-25T11:11:22Z</time>
      </trkpt>
      <trkpt lon="78.519057258748418" lat="17.637056126244563">
        <ele>503.831</ele>
        <time>2024-09-25T11:11:22Z</time>
      </trkpt>
      <trkpt lon="78.519058140712289" lat="17.637058037569496">
        <ele>503.876</ele>
        <time>2024-09-25T11:11:22Z</time>
      </trkpt>
      <trkpt lon="78.519059005133172" lat="17.63705991081568">
        <ele>503.896</ele>
        <time>2024-09-25T11:11:22Z</time>
      </trkpt>
      <trkpt lon="78.519059857195089" lat="17.637061757224327">
        <ele>503.896</ele>
        <time>2024-09-25T11:11:22Z</time>
      </trkpt>
      <trkpt lon="78.519060701234991" lat="17.637063586201279">
        <ele>503.882</ele>
        <time>2024-09-25T11:11:22Z</time>
      </trkpt>
      <trkpt lon="78.519061540800806" lat="17.637065405442193">
        <ele>503.857</ele>
        <time>2024-09-25T11:11:22Z</time>
      </trkpt>
      <trkpt lon="78.519062378722339" lat="17.637067221086298">
        <ele>503.825</ele>
        <time>2024-09-25T11:11:22Z</time>
      </trkpt>
      <trkpt lon="78.519063217189867" lat="17.637069037886356">
        <ele>503.789</ele>
        <time>2024-09-25T11:11:22Z</time>
      </trkpt>
      <trkpt lon="78.519064057835493" lat="17.63707085938492">
        <ele>503.751</ele>
        <time>2024-09-25T11:11:22Z</time>
      </trkpt>
      <trkpt lon="78.519064901813891" lat="17.637072688089255">
        <ele>503.712</ele>
        <time>2024-09-25T11:11:22Z</time>
      </trkpt>
      <trkpt lon="78.519065749879701" lat="17.637074525639125">
        <ele>503.675</ele>
        <time>2024-09-25T11:11:22Z</time>
      </trkpt>
      <trkpt lon="78.519066602459858" lat="17.637076372963413">
        <ele>503.64</ele>
        <time>2024-09-25T11:11:22Z</time>
      </trkpt>
      <trkpt lon="78.519067459719409" lat="17.637078230422869">
        <ele>503.608</ele>
        <time>2024-09-25T11:11:22Z</time>
      </trkpt>
      <trkpt lon="78.519068321620239" lat="17.637080097937446">
        <ele>503.58</ele>
        <time>2024-09-25T11:11:22Z</time>
      </trkpt>
      <trkpt lon="78.519069187972434" lat="17.637081975097601">
        <ele>503.554</ele>
        <time>2024-09-25T11:11:22Z</time>
      </trkpt>
      <trkpt lon="78.519070058478263" lat="17.637083861259633">
        <ele>503.533</ele>
        <time>2024-09-25T11:11:22Z</time>
      </trkpt>
      <trkpt lon="78.519070932769026" lat="17.63708575562568">
        <ele>503.514</ele>
        <time>2024-09-25T11:11:22Z</time>
      </trkpt>
      <trkpt lon="78.519071810435349" lat="17.637087657309387">
        <ele>503.499</ele>
        <time>2024-09-25T11:11:22Z</time>
      </trkpt>
      <trkpt lon="78.519072691051406" lat="17.637089565388472">
        <ele>503.487</ele>
        <time>2024-09-25T11:11:22Z</time>
      </trkpt>
      <trkpt lon="78.51907357419374" lat="17.637091478945596">
        <ele>503.477</ele>
        <time>2024-09-25T11:11:22Z</time>
      </trkpt>
      <trkpt lon="78.519074459455453" lat="17.637093397099012">
        <ele>503.47</ele>
        <time>2024-09-25T11:11:22Z</time>
      </trkpt>
      <trkpt lon="78.519075346456177" lat="17.637095319024414">
        <ele>503.465</ele>
        <time>2024-09-25T11:11:22Z</time>
      </trkpt>
      <trkpt lon="78.519076482708101" lat="17.63709784877609">
        <ele>503.133</ele>
        <time>2024-09-25T11:11:23Z</time>
      </trkpt>
      <trkpt lon="78.519077579091103" lat="17.63710034923507">
        <ele>502.854</ele>
        <time>2024-09-25T11:11:23Z</time>
      </trkpt>
      <trkpt lon="78.519078637986553" lat="17.637102815545848">
        <ele>502.625</ele>
        <time>2024-09-25T11:11:23Z</time>
      </trkpt>
      <trkpt lon="78.519079662491478" lat="17.637105245234203">
        <ele>502.442</ele>
        <time>2024-09-25T11:11:23Z</time>
      </trkpt>
      <trkpt lon="78.519080656134818" lat="17.63710763770689">
        <ele>502.299</ele>
        <time>2024-09-25T11:11:23Z</time>
      </trkpt>
      <trkpt lon="78.519081622648514" lat="17.637109993809172">
        <ele>502.191</ele>
        <time>2024-09-25T11:11:23Z</time>
      </trkpt>
      <trkpt lon="78.519082565787954" lat="17.637112315441335">
        <ele>502.114</ele>
        <time>2024-09-25T11:11:23Z</time>
      </trkpt>
      <trkpt lon="78.519083489195793" lat="17.637114605232956">
        <ele>502.063</ele>
        <time>2024-09-25T11:11:23Z</time>
      </trkpt>
      <trkpt lon="78.519084396303185" lat="17.637116866272041">
        <ele>502.033</ele>
        <time>2024-09-25T11:11:23Z</time>
      </trkpt>
      <trkpt lon="78.519085290262623" lat="17.637119101884927">
        <ele>502.02</ele>
        <time>2024-09-25T11:11:23Z</time>
      </trkpt>
      <trkpt lon="78.519086173907198" lat="17.637121315462078">
        <ele>502.02</ele>
        <time>2024-09-25T11:11:23Z</time>
      </trkpt>
      <trkpt lon="78.519087049730729" lat="17.637123510324567">
        <ele>502.03</ele>
        <time>2024-09-25T11:11:23Z</time>
      </trkpt>
      <trkpt lon="78.519087919884697" lat="17.637125689625808">
        <ele>502.047</ele>
        <time>2024-09-25T11:11:23Z</time>
      </trkpt>
      <trkpt lon="78.519088786187851" lat="17.637127856283325">
        <ele>502.069</ele>
        <time>2024-09-25T11:11:23Z</time>
      </trkpt>
      <trkpt lon="78.519089650144906" lat="17.63713001293549">
        <ele>502.094</ele>
        <time>2024-09-25T11:11:23Z</time>
      </trkpt>
      <trkpt lon="78.51909051297163" lat="17.637132161918633">
        <ele>502.121</ele>
        <time>2024-09-25T11:11:23Z</time>
      </trkpt>
      <trkpt lon="78.519091375623731" lat="17.637134305260243">
        <ele>502.147</ele>
        <time>2024-09-25T11:11:23Z</time>
      </trkpt>
      <trkpt lon="78.51909223882771" lat="17.637136444684611">
        <ele>502.172</ele>
        <time>2024-09-25T11:11:23Z</time>
      </trkpt>
      <trkpt lon="78.519093103112056" lat="17.637138581627564">
        <ele>502.196</ele>
        <time>2024-09-25T11:11:23Z</time>
      </trkpt>
      <trkpt lon="78.519093968837623" lat="17.637140717257633">
        <ele>502.218</ele>
        <time>2024-09-25T11:11:23Z</time>
      </trkpt>
      <trkpt lon="78.519094836226373" lat="17.637142852501274">
        <ele>502.238</ele>
        <time>2024-09-25T11:11:23Z</time>
      </trkpt>
      <trkpt lon="78.519095705387855" lat="17.637144988070279">
        <ele>502.255</ele>
        <time>2024-09-25T11:11:23Z</time>
      </trkpt>
      <trkpt lon="78.519096576343102" lat="17.637147124489907">
        <ele>502.27</ele>
        <time>2024-09-25T11:11:23Z</time>
      </trkpt>
      <trkpt lon="78.519097449045688" lat="17.637149262126574">
        <ele>502.282</ele>
        <time>2024-09-25T11:11:23Z</time>
      </trkpt>
      <trkpt lon="78.519098323399888" lat="17.637151401214215">
        <ele>502.293</ele>
        <time>2024-09-25T11:11:23Z</time>
      </trkpt>
      <trkpt lon="78.519099199276212" lat="17.637153541878781">
        <ele>502.301</ele>
        <time>2024-09-25T11:11:23Z</time>
      </trkpt>
      <trkpt lon="78.519100076524182" lat="17.637155684160462">
        <ele>502.308</ele>
        <time>2024-09-25T11:11:23Z</time>
      </trkpt>
      <trkpt lon="78.519100954982733" lat="17.637157828033381">
        <ele>502.313</ele>
        <time>2024-09-25T11:11:23Z</time>
      </trkpt>
      <trkpt lon="78.51910183448841" lat="17.637159973422776">
        <ele>502.316</ele>
        <time>2024-09-25T11:11:23Z</time>
      </trkpt>
      <trkpt lon="78.519102963583649" lat="17.637162744971132">
        <ele>502.477</ele>
        <time>2024-09-25T11:11:24Z</time>
      </trkpt>
      <trkpt lon="78.519104055141071" lat="17.637165439476973">
        <ele>502.612</ele>
        <time>2024-09-25T11:11:24Z</time>
      </trkpt>
      <trkpt lon="78.519105111239938" lat="17.637168059566765">
        <ele>502.723</ele>
        <time>2024-09-25T11:11:24Z</time>
      </trkpt>
      <trkpt lon="78.519106134679063" lat="17.637170609804766">
        <ele>502.811</ele>
        <time>2024-09-25T11:11:24Z</time>
      </trkpt>
      <trkpt lon="78.519107128702501" lat="17.63717309605747">
        <ele>502.88</ele>
        <time>2024-09-25T11:11:24Z</time>
      </trkpt>
      <trkpt lon="78.519108096777231" lat="17.637175524969283">
        <ele>502.932</ele>
        <time>2024-09-25T11:11:24Z</time>
      </trkpt>
      <trkpt lon="78.519109042417895" lat="17.637177903540255">
        <ele>502.969</ele>
        <time>2024-09-25T11:11:24Z</time>
      </trkpt>
      <trkpt lon="78.519109969052977" lat="17.637180238795413">
        <ele>502.993</ele>
        <time>2024-09-25T11:11:24Z</time>
      </trkpt>
      <trkpt lon="78.519110879926998" lat="17.637182537534656">
        <ele>503.008</ele>
        <time>2024-09-25T11:11:24Z</time>
      </trkpt>
      <trkpt lon="78.519111778033079" lat="17.637184806152018">
        <ele>503.014</ele>
        <time>2024-09-25T11:11:24Z</time>
      </trkpt>
      <trkpt lon="78.51911266607091" lat="17.637187050513511">
        <ele>503.013</ele>
        <time>2024-09-25T11:11:24Z</time>
      </trkpt>
      <trkpt lon="78.519113546425217" lat="17.637189275883422">
        <ele>503.008</ele>
        <time>2024-09-25T11:11:24Z</time>
      </trkpt>
      <trkpt lon="78.519114421160481" lat="17.637191486889606">
        <ele>502.999</ele>
        <time>2024-09-25T11:11:24Z</time>
      </trkpt>
      <trkpt lon="78.519115292028062" lat="17.637193687519449">
        <ele>502.988</ele>
        <time>2024-09-25T11:11:24Z</time>
      </trkpt>
      <trkpt lon="78.51911616048254" lat="17.637195881139075">
        <ele>502.976</ele>
        <time>2024-09-25T11:11:24Z</time>
      </trkpt>
      <trkpt lon="78.519117027704127" lat="17.637198070529362">
        <ele>502.963</ele>
        <time>2024-09-25T11:11:24Z</time>
      </trkpt>
      <trkpt lon="78.519117894625381" lat="17.637200257933475">
        <ele>502.95</ele>
        <time>2024-09-25T11:11:24Z</time>
      </trkpt>
      <trkpt lon="78.51911876195966" lat="17.637202445111317">
        <ele>502.938</ele>
        <time>2024-09-25T11:11:24Z</time>
      </trkpt>
      <trkpt lon="78.519119630230364" lat="17.637204633397388">
        <ele>502.926</ele>
        <time>2024-09-25T11:11:24Z</time>
      </trkpt>
      <trkpt lon="78.519120499799541" lat="17.637206823759168">
        <ele>502.916</ele>
        <time>2024-09-25T11:11:24Z</time>
      </trkpt>
      <trkpt lon="78.519121370894993" lat="17.637209016853873">
        <ele>502.906</ele>
        <time>2024-09-25T11:11:24Z</time>
      </trkpt>
      <trkpt lon="78.519122243635437" lat="17.637211213082015">
        <ele>502.898</ele>
        <time>2024-09-25T11:11:24Z</time>
      </trkpt>
      <trkpt lon="78.519123118053258" lat="17.63721341263668">
        <ele>502.891</ele>
        <time>2024-09-25T11:11:24Z</time>
      </trkpt>
      <trkpt lon="78.519123994114594" lat="17.637215615547884">
        <ele>502.884</ele>
        <time>2024-09-25T11:11:24Z</time>
      </trkpt>
      <trkpt lon="78.519124871736835" lat="17.637217821721698">
        <ele>502.879</ele>
        <time>2024-09-25T11:11:24Z</time>
      </trkpt>
      <trkpt lon="78.519125750803525" lat="17.637220030974003">
        <ele>502.875</ele>
        <time>2024-09-25T11:11:24Z</time>
      </trkpt>
      <trkpt lon="78.519126631176675" lat="17.637222243059096">
        <ele>502.872</ele>
        <time>2024-09-25T11:11:24Z</time>
      </trkpt>
      <trkpt lon="78.519127512706916" lat="17.637224457693385">
        <ele>502.87</ele>
        <time>2024-09-25T11:11:24Z</time>
      </trkpt>
      <trkpt lon="78.519128395241481" lat="17.637226674574556">
        <ele>502.868</ele>
        <time>2024-09-25T11:11:24Z</time>
      </trkpt>
      <trkpt lon="78.519129471149682" lat="17.637229460654581">
        <ele>502.824</ele>
        <time>2024-09-25T11:11:25Z</time>
      </trkpt>
      <trkpt lon="78.519130461306361" lat="17.637232101663038">
        <ele>502.786</ele>
        <time>2024-09-25T11:11:25Z</time>
      </trkpt>
      <trkpt lon="78.51913137623599" lat="17.637234611724125">
        <ele>502.756</ele>
        <time>2024-09-25T11:11:25Z</time>
      </trkpt>
      <trkpt lon="78.519132226484643" lat="17.637237006032546">
        <ele>502.732</ele>
        <time>2024-09-25T11:11:25Z</time>
      </trkpt>
      <trkpt lon="78.51913302224844" lat="17.637239300062287">
        <ele>502.713</ele>
        <time>2024-09-25T11:11:25Z</time>
      </trkpt>
      <trkpt lon="78.519133773105537" lat="17.637241508960461">
        <ele>502.699</ele>
        <time>2024-09-25T11:11:25Z</time>
      </trkpt>
      <trkpt lon="78.5191344878357" lat="17.63724364710173">
        <ele>502.689</ele>
        <time>2024-09-25T11:11:25Z</time>
      </trkpt>
      <trkpt lon="78.519135174311899" lat="17.637245727779263">
        <ele>502.682</ele>
        <time>2024-09-25T11:11:25Z</time>
      </trkpt>
      <trkpt lon="78.519135839450115" lat="17.637247763009309">
        <ele>502.679</ele>
        <time>2024-09-25T11:11:25Z</time>
      </trkpt>
      <trkpt lon="78.519136489204797" lat="17.637249763428258">
        <ele>502.677</ele>
        <time>2024-09-25T11:11:25Z</time>
      </trkpt>
      <trkpt lon="78.519137128598743" lat="17.637251738262933">
        <ele>502.678</ele>
        <time>2024-09-25T11:11:25Z</time>
      </trkpt>
      <trkpt lon="78.519137761778012" lat="17.637253695357185">
        <ele>502.679</ele>
        <time>2024-09-25T11:11:25Z</time>
      </trkpt>
      <trkpt lon="78.519138392083846" lat="17.637255641239928">
        <ele>502.682</ele>
        <time>2024-09-25T11:11:25Z</time>
      </trkpt>
      <trkpt lon="78.519139022134681" lat="17.63725758122213">
        <ele>502.685</ele>
        <time>2024-09-25T11:11:25Z</time>
      </trkpt>
      <trkpt lon="78.5191396539132" lat="17.637259519512199">
        <ele>502.689</ele>
        <time>2024-09-25T11:11:25Z</time>
      </trkpt>
      <trkpt lon="78.51914028885399" lat="17.637261459341264">
        <ele>502.692</ele>
        <time>2024-09-25T11:11:25Z</time>
      </trkpt>
      <trkpt lon="78.519140927928632" lat="17.637263403091552">
        <ele>502.696</ele>
        <time>2024-09-25T11:11:25Z</time>
      </trkpt>
      <trkpt lon="78.519141571725953" lat="17.637265352422645">
        <ele>502.699</ele>
        <time>2024-09-25T11:11:25Z</time>
      </trkpt>
      <trkpt lon="78.519142220525794" lat="17.637267308391749">
        <ele>502.703</ele>
        <time>2024-09-25T11:11:25Z</time>
      </trkpt>
      <trkpt lon="78.5191428743654" lat="17.637269271565263">
        <ele>502.706</ele>
        <time>2024-09-25T11:11:25Z</time>
      </trkpt>
      <trkpt lon="78.51914353309779" lat="17.637271242119947">
        <ele>502.708</ele>
        <time>2024-09-25T11:11:25Z</time>
      </trkpt>
      <trkpt lon="78.519144196442284" lat="17.637273219932712">
        <ele>502.711</ele>
        <time>2024-09-25T11:11:25Z</time>
      </trkpt>
      <trkpt lon="78.519144864027098" lat="17.6372752046587">
        <ele>502.713</ele>
        <time>2024-09-25T11:11:25Z</time>
      </trkpt>
      <trkpt lon="78.519145535424698" lat="17.637277195797857">
        <ele>502.714</ele>
        <time>2024-09-25T11:11:25Z</time>
      </trkpt>
      <trkpt lon="78.519146210180438" lat="17.637279192750523">
        <ele>502.716</ele>
        <time>2024-09-25T11:11:25Z</time>
      </trkpt>
      <trkpt lon="78.519146887834935" lat="17.637281194862759">
        <ele>502.717</ele>
        <time>2024-09-25T11:11:25Z</time>
      </trkpt>
      <trkpt lon="78.519147567941232" lat="17.637283201462427">
        <ele>502.718</ele>
        <time>2024-09-25T11:11:25Z</time>
      </trkpt>
      <trkpt lon="78.519148250077279" lat="17.637285211887026">
        <ele>502.718</ele>
        <time>2024-09-25T11:11:25Z</time>
      </trkpt>
      <trkpt lon="78.51914893385441" lat="17.637287225504302">
        <ele>502.719</ele>
        <time>2024-09-25T11:11:25Z</time>
      </trkpt>
      <trkpt lon="78.519149737561776" lat="17.637289721807868">
        <ele>502.607</ele>
        <time>2024-09-25T11:11:26Z</time>
      </trkpt>
      <trkpt lon="78.51915044971129" lat="17.637292057497174">
        <ele>502.513</ele>
        <time>2024-09-25T11:11:26Z</time>
      </trkpt>
      <trkpt lon="78.519151082778023" lat="17.637294250348642">
        <ele>502.436</ele>
        <time>2024-09-25T11:11:26Z</time>
      </trkpt>
      <trkpt lon="78.51915164891237" lat="17.637296318723038">
        <ele>502.373</ele>
        <time>2024-09-25T11:11:26Z</time>
      </trkpt>
      <trkpt lon="78.519152159597965" lat="17.637298280783956">
        <ele>502.324</ele>
        <time>2024-09-25T11:11:26Z</time>
      </trkpt>
      <trkpt lon="78.51915262541705" lat="17.637300153915561">
        <ele>502.287</ele>
        <time>2024-09-25T11:11:26Z</time>
      </trkpt>
      <trkpt lon="78.519153055904823" lat="17.637301954310733">
        <ele>502.26</ele>
        <time>2024-09-25T11:11:26Z</time>
      </trkpt>
      <trkpt lon="78.519153459476129" lat="17.637303696701988">
        <ele>502.242</ele>
        <time>2024-09-25T11:11:26Z</time>
      </trkpt>
      <trkpt lon="78.519153843408958" lat="17.637305394209339">
        <ele>502.231</ele>
        <time>2024-09-25T11:11:26Z</time>
      </trkpt>
      <trkpt lon="78.519154213871616" lat="17.637307058281632">
        <ele>502.226</ele>
        <time>2024-09-25T11:11:26Z</time>
      </trkpt>
      <trkpt lon="78.519154575981673" lat="17.637308698710353">
        <ele>502.225</ele>
        <time>2024-09-25T11:11:26Z</time>
      </trkpt>
      <trkpt lon="78.519154933886881" lat="17.637310323697594">
        <ele>502.228</ele>
        <time>2024-09-25T11:11:26Z</time>
      </trkpt>
      <trkpt lon="78.519155290859956" lat="17.63731193996249">
        <ele>502.233</ele>
        <time>2024-09-25T11:11:26Z</time>
      </trkpt>
      <trkpt lon="78.519155649400261" lat="17.637313552872946">
        <ele>502.24</ele>
        <time>2024-09-25T11:11:26Z</time>
      </trkpt>
      <trkpt lon="78.519156011337444" lat="17.637315166591868">
        <ele>502.248</ele>
        <time>2024-09-25T11:11:26Z</time>
      </trkpt>
      <trkpt lon="78.519156377932745" lat="17.637316784229242">
        <ele>502.257</ele>
        <time>2024-09-25T11:11:26Z</time>
      </trkpt>
      <trkpt lon="78.519156749975124" lat="17.637318407993344">
        <ele>502.265</ele>
        <time>2024-09-25T11:11:26Z</time>
      </trkpt>
      <trkpt lon="78.519157127870159" lat="17.637320039336025">
        <ele>502.274</ele>
        <time>2024-09-25T11:11:26Z</time>
      </trkpt>
      <trkpt lon="78.519157511720337" lat="17.637321679088522">
        <ele>502.282</ele>
        <time>2024-09-25T11:11:26Z</time>
      </trkpt>
      <trkpt lon="78.519157901396056" lat="17.637323327585364">
        <ele>502.289</ele>
        <time>2024-09-25T11:11:26Z</time>
      </trkpt>
      <trkpt lon="78.519158296597311" lat="17.637324984775045">
        <ele>502.295</ele>
        <time>2024-09-25T11:11:26Z</time>
      </trkpt>
      <trkpt lon="78.519158696906089" lat="17.637326650316847">
        <ele>502.301</ele>
        <time>2024-09-25T11:11:26Z</time>
      </trkpt>
      <trkpt lon="78.519159101829885" lat="17.637328323663869">
        <ele>502.306</ele>
        <time>2024-09-25T11:11:26Z</time>
      </trkpt>
      <trkpt lon="78.519159510837184" lat="17.637330004132778">
        <ele>502.31</ele>
        <time>2024-09-25T11:11:26Z</time>
      </trkpt>
      <trkpt lon="78.519159923385473" lat="17.637331690961137">
        <ele>502.314</ele>
        <time>2024-09-25T11:11:26Z</time>
      </trkpt>
      <trkpt lon="78.519160338942854" lat="17.637333383353344">
        <ele>502.317</ele>
        <time>2024-09-25T11:11:26Z</time>
      </trkpt>
      <trkpt lon="78.519160757003831" lat="17.637335080516436">
        <ele>502.319</ele>
        <time>2024-09-25T11:11:26Z</time>
      </trkpt>
      <trkpt lon="78.519161177100457" lat="17.637336781686987">
        <ele>502.321</ele>
        <time>2024-09-25T11:11:26Z</time>
      </trkpt>
      <trkpt lon="78.519161598809276" lat="17.63733848615033">
        <ele>502.322</ele>
        <time>2024-09-25T11:11:26Z</time>
      </trkpt>
      <trkpt lon="78.519162226353686" lat="17.63734078157978">
        <ele>502.445</ele>
        <time>2024-09-25T11:11:27Z</time>
      </trkpt>
      <trkpt lon="78.519162908588584" lat="17.63734309477563">
        <ele>502.548</ele>
        <time>2024-09-25T11:11:27Z</time>
      </trkpt>
      <trkpt lon="78.519163633650976" lat="17.637345413763189">
        <ele>502.633</ele>
        <time>2024-09-25T11:11:27Z</time>
      </trkpt>
      <trkpt lon="78.519164391111005" lat="17.637347729314605">
        <ele>502.701</ele>
        <time>2024-09-25T11:11:27Z</time>
      </trkpt>
      <trkpt lon="78.519165171981328" lat="17.637350034593112">
        <ele>502.755</ele>
        <time>2024-09-25T11:11:27Z</time>
      </trkpt>
      <trkpt lon="78.519165968674145" lat="17.637352324801828">
        <ele>502.795</ele>
        <time>2024-09-25T11:11:27Z</time>
      </trkpt>
      <trkpt lon="78.519166774920137" lat="17.637354596848137">
        <ele>502.824</ele>
        <time>2024-09-25T11:11:27Z</time>
      </trkpt>
      <trkpt lon="78.519167585661648" lat="17.637356849031544">
        <ele>502.843</ele>
        <time>2024-09-25T11:11:27Z</time>
      </trkpt>
      <trkpt lon="78.51916839692997" lat="17.637359080760007">
        <ele>502.855</ele>
        <time>2024-09-25T11:11:27Z</time>
      </trkpt>
      <trkpt lon="78.519169205715173" lat="17.637361292297616">
        <ele>502.86</ele>
        <time>2024-09-25T11:11:27Z</time>
      </trkpt>
      <trkpt lon="78.519170009834554" lat="17.637363484544654">
        <ele>502.86</ele>
        <time>2024-09-25T11:11:27Z</time>
      </trkpt>
      <trkpt lon="78.519170807804784" lat="17.637365658849713">
        <ele>502.856</ele>
        <time>2024-09-25T11:11:27Z</time>
      </trkpt>
      <trkpt lon="78.519171598721258" lat="17.637367816852493">
        <ele>502.85</ele>
        <time>2024-09-25T11:11:27Z</time>
      </trkpt>
      <trkpt lon="78.519172382147062" lat="17.637369960355176">
        <ele>502.842</ele>
        <time>2024-09-25T11:11:27Z</time>
      </trkpt>
      <trkpt lon="78.519173158012961" lat="17.637372091219863">
        <ele>502.833</ele>
        <time>2024-09-25T11:11:27Z</time>
      </trkpt>
      <trkpt lon="78.519173926529348" lat="17.637374211289131">
        <ele>502.823</ele>
        <time>2024-09-25T11:11:27Z</time>
      </trkpt>
      <trkpt lon="78.519174688110027" lat="17.637376322326858">
        <ele>502.814</ele>
        <time>2024-09-25T11:11:27Z</time>
      </trkpt>
      <trkpt lon="78.519175443307816" lat="17.637378425976344">
        <ele>502.804</ele>
        <time>2024-09-25T11:11:27Z</time>
      </trkpt>
      <trkpt lon="78.519176192761108" lat="17.637380523732919">
        <ele>502.795</ele>
        <time>2024-09-25T11:11:27Z</time>
      </trkpt>
      <trkpt lon="78.519176937150633" lat="17.637382616928438">
        <ele>502.787</ele>
        <time>2024-09-25T11:11:27Z</time>
      </trkpt>
      <trkpt lon="78.519177677165388" lat="17.637384706725278">
        <ele>502.78</ele>
        <time>2024-09-25T11:11:27Z</time>
      </trkpt>
      <trkpt lon="78.519178413476695" lat="17.637386794117692">
        <ele>502.774</ele>
        <time>2024-09-25T11:11:27Z</time>
      </trkpt>
      <trkpt lon="78.519179146719225" lat="17.637388879938658">
        <ele>502.768</ele>
        <time>2024-09-25T11:11:27Z</time>
      </trkpt>
      <trkpt lon="78.519179877477967" lat="17.637390964870672">
        <ele>502.764</ele>
        <time>2024-09-25T11:11:27Z</time>
      </trkpt>
      <trkpt lon="78.519180606280145" lat="17.637393049459078">
        <ele>502.76</ele>
        <time>2024-09-25T11:11:27Z</time>
      </trkpt>
      <trkpt lon="78.519181333591163" lat="17.637395134126898">
        <ele>502.757</ele>
        <time>2024-09-25T11:11:27Z</time>
      </trkpt>
      <trkpt lon="78.51918205981363" lat="17.637397219190252">
        <ele>502.754</ele>
        <time>2024-09-25T11:11:27Z</time>
      </trkpt>
      <trkpt lon="78.519182785288834" lat="17.637399304873711">
        <ele>502.752</ele>
        <time>2024-09-25T11:11:27Z</time>
      </trkpt>
      <trkpt lon="78.519183510299996" lat="17.637401391325007">
        <ele>502.751</ele>
        <time>2024-09-25T11:11:27Z</time>
      </trkpt>
      <trkpt lon="78.519184413831326" lat="17.637404108062253">
        <ele>502.794</ele>
        <time>2024-09-25T11:11:28Z</time>
      </trkpt>
      <trkpt lon="78.519185263350096" lat="17.637406767793145">
        <ele>502.83</ele>
        <time>2024-09-25T11:11:28Z</time>
      </trkpt>
      <trkpt lon="78.519186064749633" lat="17.637409369998068">
        <ele>502.86</ele>
        <time>2024-09-25T11:11:28Z</time>
      </trkpt>
      <trkpt lon="78.519186824143546" lat="17.637411916283153">
        <ele>502.885</ele>
        <time>2024-09-25T11:11:28Z</time>
      </trkpt>
      <trkpt lon="78.519187547599202" lat="17.63741440980116">
        <ele>502.904</ele>
        <time>2024-09-25T11:11:28Z</time>
      </trkpt>
      <trkpt lon="78.519188240938362" lat="17.637416854761245">
        <ele>502.919</ele>
        <time>2024-09-25T11:11:28Z</time>
      </trkpt>
      <trkpt lon="78.519188909595485" lat="17.637419256022703">
        <ele>502.929</ele>
        <time>2024-09-25T11:11:28Z</time>
      </trkpt>
      <trkpt lon="78.519189558524332" lat="17.637421618766151">
        <ele>502.937</ele>
        <time>2024-09-25T11:11:28Z</time>
      </trkpt>
      <trkpt lon="78.519190192144251" lat="17.63742394823452">
        <ele>502.942</ele>
        <time>2024-09-25T11:11:28Z</time>
      </trkpt>
      <trkpt lon="78.519190814318307" lat="17.637426249535618">
        <ele>502.944</ele>
        <time>2024-09-25T11:11:28Z</time>
      </trkpt>
      <trkpt lon="78.519191428356038" lat="17.637428527498017">
        <ele>502.945</ele>
        <time>2024-09-25T11:11:28Z</time>
      </trkpt>
      <trkpt lon="78.519192037034784" lat="17.637430786572093">
        <ele>502.944</ele>
        <time>2024-09-25T11:11:28Z</time>
      </trkpt>
      <trkpt lon="78.519192642634252" lat="17.637433030768587">
        <ele>502.942</ele>
        <time>2024-09-25T11:11:28Z</time>
      </trkpt>
      <trkpt lon="78.519193246979881" lat="17.637435263627545">
        <ele>502.94</ele>
        <time>2024-09-25T11:11:28Z</time>
      </trkpt>
      <trkpt lon="78.519193851491224" lat="17.637437488211241">
        <ele>502.937</ele>
        <time>2024-09-25T11:11:28Z</time>
      </trkpt>
      <trkpt lon="78.519194457232658" lat="17.637439707115458">
        <ele>502.934</ele>
        <time>2024-09-25T11:11:28Z</time>
      </trkpt>
      <trkpt lon="78.519195064963782" lat="17.63744192249419">
        <ele>502.93</ele>
        <time>2024-09-25T11:11:28Z</time>
      </trkpt>
      <trkpt lon="78.519195675188058" lat="17.637444136093581">
        <ele>502.927</ele>
        <time>2024-09-25T11:11:28Z</time>
      </trkpt>
      <trkpt lon="78.519196288198486" lat="17.637446349291697">
        <ele>502.924</ele>
        <time>2024-09-25T11:11:28Z</time>
      </trkpt>
      <trkpt lon="78.519196904119127" lat="17.63744856314128">
        <ele>502.922</ele>
        <time>2024-09-25T11:11:28Z</time>
      </trkpt>
      <trkpt lon="78.519197522942449" lat="17.637450778413278">
        <ele>502.919</ele>
        <time>2024-09-25T11:11:28Z</time>
      </trkpt>
      <trkpt lon="78.519198144561955" lat="17.637452995639453">
        <ele>502.917</ele>
        <time>2024-09-25T11:11:28Z</time>
      </trkpt>
      <trkpt lon="78.51919876880028" lat="17.637455215152777">
        <ele>502.915</ele>
        <time>2024-09-25T11:11:28Z</time>
      </trkpt>
      <trkpt lon="78.51919939543275" lat="17.637457437124826">
        <ele>502.913</ele>
        <time>2024-09-25T11:11:28Z</time>
      </trkpt>
      <trkpt lon="78.519200024206867" lat="17.63745966159955">
        <ele>502.912</ele>
        <time>2024-09-25T11:11:28Z</time>
      </trkpt>
      <trkpt lon="78.519200654857926" lat="17.637461888523152">
        <ele>502.911</ele>
        <time>2024-09-25T11:11:28Z</time>
      </trkpt>
      <trkpt lon="78.519201287121163" lat="17.637464117770044">
        <ele>502.91</ele>
        <time>2024-09-25T11:11:28Z</time>
      </trkpt>
      <trkpt lon="78.519201920741068" lat="17.637466349164864">
        <ele>502.909</ele>
        <time>2024-09-25T11:11:28Z</time>
      </trkpt>
      <trkpt lon="78.519202555477861" lat="17.637468582500826">
        <ele>502.909</ele>
        <time>2024-09-25T11:11:28Z</time>
      </trkpt>
      <trkpt lon="78.519203361720145" lat="17.637471382658866">
        <ele>502.472</ele>
        <time>2024-09-25T11:11:29Z</time>
      </trkpt>
      <trkpt lon="78.519204133682649" lat="17.637474031095437">
        <ele>502.104</ele>
        <time>2024-09-25T11:11:29Z</time>
      </trkpt>
      <trkpt lon="78.519204874087137" lat="17.637476543047608">
        <ele>501.8</ele>
        <time>2024-09-25T11:11:29Z</time>
      </trkpt>
      <trkpt lon="78.519205586081242" lat="17.637478934741289">
        <ele>501.556</ele>
        <time>2024-09-25T11:11:29Z</time>
      </trkpt>
      <trkpt lon="78.519206273024423" lat="17.637481222584277">
        <ele>501.365</ele>
        <time>2024-09-25T11:11:29Z</time>
      </trkpt>
      <trkpt lon="78.51920693831903" lat="17.637483422551664">
        <ele>501.22</ele>
        <time>2024-09-25T11:11:29Z</time>
      </trkpt>
      <trkpt lon="78.519207585281677" lat="17.637485549737558">
        <ele>501.116</ele>
        <time>2024-09-25T11:11:29Z</time>
      </trkpt>
      <trkpt lon="78.519208217049112" lat="17.637487618047754">
        <ele>501.046</ele>
        <time>2024-09-25T11:11:29Z</time>
      </trkpt>
      <trkpt lon="78.519208836513599" lat="17.63748964000936">
        <ele>501.004</ele>
        <time>2024-09-25T11:11:29Z</time>
      </trkpt>
      <trkpt lon="78.519209446282616" lat="17.637491626675143">
        <ele>500.984</ele>
        <time>2024-09-25T11:11:29Z</time>
      </trkpt>
      <trkpt lon="78.519210048658465" lat="17.637493587602641">
        <ele>500.982</ele>
        <time>2024-09-25T11:11:29Z</time>
      </trkpt>
      <trkpt lon="78.519210645633379" lat="17.637495530890344">
        <ele>500.994</ele>
        <time>2024-09-25T11:11:29Z</time>
      </trkpt>
      <trkpt lon="78.51921123889673" lat="17.637497463255624">
        <ele>501.015</ele>
        <time>2024-09-25T11:11:29Z</time>
      </trkpt>
      <trkpt lon="78.519211829850889" lat="17.637499390141478">
        <ele>501.043</ele>
        <time>2024-09-25T11:11:29Z</time>
      </trkpt>
      <trkpt lon="78.519212419633178" lat="17.637501315841202">
        <ele>501.075</ele>
        <time>2024-09-25T11:11:29Z</time>
      </trkpt>
      <trkpt lon="78.519213009141609" lat="17.637503243632359">
        <ele>501.108</ele>
        <time>2024-09-25T11:11:29Z</time>
      </trkpt>
      <trkpt lon="78.519213599062653" lat="17.637505175912978">
        <ele>501.142</ele>
        <time>2024-09-25T11:11:29Z</time>
      </trkpt>
      <trkpt lon="78.519214189899444" lat="17.637507114334824">
        <ele>501.175</ele>
        <time>2024-09-25T11:11:29Z</time>
      </trkpt>
      <trkpt lon="78.519214781999437" lat="17.637509059929744">
        <ele>501.206</ele>
        <time>2024-09-25T11:11:29Z</time>
      </trkpt>
      <trkpt lon="78.5192153755807" lat="17.637511013226451">
        <ele>501.235</ele>
        <time>2024-09-25T11:11:29Z</time>
      </trkpt>
      <trkpt lon="78.519215970756164" lat="17.63751297435601">
        <ele>501.261</ele>
        <time>2024-09-25T11:11:29Z</time>
      </trkpt>
      <trkpt lon="78.519216567555588" lat="17.637514943145202">
        <ele>501.283</ele>
        <time>2024-09-25T11:11:29Z</time>
      </trkpt>
      <trkpt lon="78.519217165945008" lat="17.637516919197441">
        <ele>501.303</ele>
        <time>2024-09-25T11:11:29Z</time>
      </trkpt>
      <trkpt lon="78.519217765843621" lat="17.637518901961528">
        <ele>501.32</ele>
        <time>2024-09-25T11:11:29Z</time>
      </trkpt>
      <trkpt lon="78.51921836713808" lat="17.637520890788867">
        <ele>501.333</ele>
        <time>2024-09-25T11:11:29Z</time>
      </trkpt>
      <trkpt lon="78.519218969694464" lat="17.637522884979965">
        <ele>501.344</ele>
        <time>2024-09-25T11:11:29Z</time>
      </trkpt>
      <trkpt lon="78.519219573368019" lat="17.637524883821268">
        <ele>501.353</ele>
        <time>2024-09-25T11:11:29Z</time>
      </trkpt>
      <trkpt lon="78.519220178010798" lat="17.637526886613369">
        <ele>501.36</ele>
        <time>2024-09-25T11:11:29Z</time>
      </trkpt>
      <trkpt lon="78.51922078347765" lat="17.637528892691854">
        <ele>501.365</ele>
        <time>2024-09-25T11:11:29Z</time>
      </trkpt>
      <trkpt lon="78.519221584303537" lat="17.637531502409242">
        <ele>501.347</ele>
        <time>2024-09-25T11:11:30Z</time>
      </trkpt>
      <trkpt lon="78.519222379133396" lat="17.637534055582051">
        <ele>501.332</ele>
        <time>2024-09-25T11:11:30Z</time>
      </trkpt>
      <trkpt lon="78.519223165906922" lat="17.637536551758437">
        <ele>501.319</ele>
        <time>2024-09-25T11:11:30Z</time>
      </trkpt>
      <trkpt lon="78.519223943350781" lat="17.637538992577223">
        <ele>501.308</ele>
        <time>2024-09-25T11:11:30Z</time>
      </trkpt>
      <trkpt lon="78.519224710829164" lat="17.637541381196289">
        <ele>501.298</ele>
        <time>2024-09-25T11:11:30Z</time>
      </trkpt>
      <trkpt lon="78.519225468208845" lat="17.637543721808946">
        <ele>501.291</ele>
        <time>2024-09-25T11:11:30Z</time>
      </trkpt>
      <trkpt lon="78.519226215740105" lat="17.637546019243388">
        <ele>501.284</ele>
        <time>2024-09-25T11:11:30Z</time>
      </trkpt>
      <trkpt lon="78.519226953953677" lat="17.637548278638729">
        <ele>501.28</ele>
        <time>2024-09-25T11:11:30Z</time>
      </trkpt>
      <trkpt lon="78.519227683573192" lat="17.63755050518996">
        <ele>501.276</ele>
        <time>2024-09-25T11:11:30Z</time>
      </trkpt>
      <trkpt lon="78.519228405442632" lat="17.637552703953801">
        <ele>501.274</ele>
        <time>2024-09-25T11:11:30Z</time>
      </trkpt>
      <trkpt lon="78.51922912046733" lat="17.637554879707114">
        <ele>501.272</ele>
        <time>2024-09-25T11:11:30Z</time>
      </trkpt>
      <trkpt lon="78.519229829567436" lat="17.637557036849895">
        <ele>501.272</ele>
        <time>2024-09-25T11:11:30Z</time>
      </trkpt>
      <trkpt lon="78.519230533642371" lat="17.637559179345267">
        <ele>501.271</ele>
        <time>2024-09-25T11:11:30Z</time>
      </trkpt>
      <trkpt lon="78.519231233544645" lat="17.637561310689378">
        <ele>501.271</ele>
        <time>2024-09-25T11:11:30Z</time>
      </trkpt>
      <trkpt lon="78.519231930061778" lat="17.637563433904958">
        <ele>501.272</ele>
        <time>2024-09-25T11:11:30Z</time>
      </trkpt>
      <trkpt lon="78.519232623904983" lat="17.637565551552871">
        <ele>501.273</ele>
        <time>2024-09-25T11:11:30Z</time>
      </trkpt>
      <trkpt lon="78.519233315703275" lat="17.637567665756908">
        <ele>501.274</ele>
        <time>2024-09-25T11:11:30Z</time>
      </trkpt>
      <trkpt lon="78.519234006001795" lat="17.637569778237612">
        <ele>501.274</ele>
        <time>2024-09-25T11:11:30Z</time>
      </trkpt>
      <trkpt lon="78.519234695263592" lat="17.637571890351804">
        <ele>501.275</ele>
        <time>2024-09-25T11:11:30Z</time>
      </trkpt>
      <trkpt lon="78.51923538387372" lat="17.637574003135011">
        <ele>501.276</ele>
        <time>2024-09-25T11:11:30Z</time>
      </trkpt>
      <trkpt lon="78.519236072145048" lat="17.63757611734459">
        <ele>501.277</ele>
        <time>2024-09-25T11:11:30Z</time>
      </trkpt>
      <trkpt lon="78.519236760325228" lat="17.637578233501916">
        <ele>501.278</ele>
        <time>2024-09-25T11:11:30Z</time>
      </trkpt>
      <trkpt lon="78.519237448604073" lat="17.637580351932364">
        <ele>501.279</ele>
        <time>2024-09-25T11:11:30Z</time>
      </trkpt>
      <trkpt lon="78.519238137121263" lat="17.637582472802261">
        <ele>501.28</ele>
        <time>2024-09-25T11:11:30Z</time>
      </trkpt>
      <trkpt lon="78.519238825973801" lat="17.637584596152269">
        <ele>501.28</ele>
        <time>2024-09-25T11:11:30Z</time>
      </trkpt>
      <trkpt lon="78.519239515223163" lat="17.637586721926912">
        <ele>501.281</ele>
        <time>2024-09-25T11:11:30Z</time>
      </trkpt>
      <trkpt lon="78.519240204901919" lat="17.63758885000016">
        <ele>501.281</ele>
        <time>2024-09-25T11:11:30Z</time>
      </trkpt>
      <trkpt lon="78.51924089501972" lat="17.637590980197185">
        <ele>501.281</ele>
        <time>2024-09-25T11:11:30Z</time>
      </trkpt>
      <trkpt lon="78.519241585568551" lat="17.637593112312441">
        <ele>501.282</ele>
        <time>2024-09-25T11:11:30Z</time>
      </trkpt>
      <trkpt lon="78.519242412770438" lat="17.637595699705948">
        <ele>501.158</ele>
        <time>2024-09-25T11:11:31Z</time>
      </trkpt>
      <trkpt lon="78.519243160493403" lat="17.637598069842891">
        <ele>501.053</ele>
        <time>2024-09-25T11:11:31Z</time>
      </trkpt>
      <trkpt lon="78.519243839179808" lat="17.637600249971705">
        <ele>500.967</ele>
        <time>2024-09-25T11:11:31Z</time>
      </trkpt>
      <trkpt lon="78.519244459098829" lat="17.637602267231486">
        <ele>500.898</ele>
        <time>2024-09-25T11:11:31Z</time>
      </trkpt>
      <trkpt lon="78.519245030032479" lat="17.63760414773639">
        <ele>500.844</ele>
        <time>2024-09-25T11:11:31Z</time>
      </trkpt>
      <trkpt lon="78.519245561055811" lat="17.637605915921036">
        <ele>500.803</ele>
        <time>2024-09-25T11:11:31Z</time>
      </trkpt>
      <trkpt lon="78.519246060395773" lat="17.637607594105393">
        <ele>500.773</ele>
        <time>2024-09-25T11:11:31Z</time>
      </trkpt>
      <trkpt lon="78.519246535354299" lat="17.637609202240228">
        <ele>500.753</ele>
        <time>2024-09-25T11:11:31Z</time>
      </trkpt>
      <trkpt lon="78.519246992282447" lat="17.637610757797482">
        <ele>500.741</ele>
        <time>2024-09-25T11:11:31Z</time>
      </trkpt>
      <trkpt lon="78.519247436593929" lat="17.637612275773748">
        <ele>500.735</ele>
        <time>2024-09-25T11:11:31Z</time>
      </trkpt>
      <trkpt lon="78.519247872807853" lat="17.637613768778841">
        <ele>500.735</ele>
        <time>2024-09-25T11:11:31Z</time>
      </trkpt>
      <trkpt lon="78.519248304611992" lat="17.637615247185469">
        <ele>500.738</ele>
        <time>2024-09-25T11:11:31Z</time>
      </trkpt>
      <trkpt lon="78.519248734939396" lat="17.63761671931972">
        <ele>500.744</ele>
        <time>2024-09-25T11:11:31Z</time>
      </trkpt>
      <trkpt lon="78.519249166052361" lat="17.637618191675767">
        <ele>500.752</ele>
        <time>2024-09-25T11:11:31Z</time>
      </trkpt>
      <trkpt lon="78.519249599628935" lat="17.637619669141312">
        <ele>500.761</ele>
        <time>2024-09-25T11:11:31Z</time>
      </trkpt>
      <trkpt lon="78.51925003684849" lat="17.637621155223343">
        <ele>500.77</ele>
        <time>2024-09-25T11:11:31Z</time>
      </trkpt>
      <trkpt lon="78.519250478473566" lat="17.637622652266231">
        <ele>500.78</ele>
        <time>2024-09-25T11:11:31Z</time>
      </trkpt>
      <trkpt lon="78.519250924925942" lat="17.637624161656543">
        <ele>500.789</ele>
        <time>2024-09-25T11:11:31Z</time>
      </trkpt>
      <trkpt lon="78.519251376355939" lat="17.637625684010683">
        <ele>500.798</ele>
        <time>2024-09-25T11:11:31Z</time>
      </trkpt>
      <trkpt lon="78.519251832704015" lat="17.637627219343081">
        <ele>500.806</ele>
        <time>2024-09-25T11:11:31Z</time>
      </trkpt>
      <trkpt lon="78.519252293754448" lat="17.63762876721389">
        <ele>500.813</ele>
        <time>2024-09-25T11:11:31Z</time>
      </trkpt>
      <trkpt lon="78.519252759181356" lat="17.637630326856108">
        <ele>500.82</ele>
        <time>2024-09-25T11:11:31Z</time>
      </trkpt>
      <trkpt lon="78.519253228587047" lat="17.637631897282741">
        <ele>500.825</ele>
        <time>2024-09-25T11:11:31Z</time>
      </trkpt>
      <trkpt lon="78.5192537015336" lat="17.637633477375246">
        <ele>500.83</ele>
        <time>2024-09-25T11:11:31Z</time>
      </trkpt>
      <trkpt lon="78.519254177567902" lat="17.637635065954761">
        <ele>500.834</ele>
        <time>2024-09-25T11:11:31Z</time>
      </trkpt>
      <trkpt lon="78.519254656241174" lat="17.637636661837899">
        <ele>500.837</ele>
        <time>2024-09-25T11:11:31Z</time>
      </trkpt>
      <trkpt lon="78.519255137123466" lat="17.637638263878955">
        <ele>500.84</ele>
        <time>2024-09-25T11:11:31Z</time>
      </trkpt>
      <trkpt lon="78.519255619813947" lat="17.637639871000424">
        <ele>500.841</ele>
        <time>2024-09-25T11:11:31Z</time>
      </trkpt>
      <trkpt lon="78.519256103947683" lat="17.63764148221362">
        <ele>500.843</ele>
        <time>2024-09-25T11:11:31Z</time>
      </trkpt>
      <trkpt lon="78.519256744170036" lat="17.637643646940607">
        <ele>500.825</ele>
        <time>2024-09-25T11:11:32Z</time>
      </trkpt>
      <trkpt lon="78.519257379579528" lat="17.637645824264425">
        <ele>500.811</ele>
        <time>2024-09-25T11:11:32Z</time>
      </trkpt>
      <trkpt lon="78.519258008452695" lat="17.637648003501756">
        <ele>500.798</ele>
        <time>2024-09-25T11:11:32Z</time>
      </trkpt>
      <trkpt lon="78.51925862971737" lat="17.637650176532897">
        <ele>500.788</ele>
        <time>2024-09-25T11:11:32Z</time>
      </trkpt>
      <trkpt lon="78.519259242829591" lat="17.637652337452625">
        <ele>500.78</ele>
        <time>2024-09-25T11:11:32Z</time>
      </trkpt>
      <trkpt lon="78.519259847662397" lat="17.637654482230101">
        <ele>500.774</ele>
        <time>2024-09-25T11:11:32Z</time>
      </trkpt>
      <trkpt lon="78.519260444407649" lat="17.637656608387434">
        <ele>500.769</ele>
        <time>2024-09-25T11:11:32Z</time>
      </trkpt>
      <trkpt lon="78.519261033490864" lat="17.637658714703399">
        <ele>500.766</ele>
        <time>2024-09-25T11:11:32Z</time>
      </trkpt>
      <trkpt lon="78.519261615498849" lat="17.637660800946488">
        <ele>500.764</ele>
        <time>2024-09-25T11:11:32Z</time>
      </trkpt>
      <trkpt lon="78.519262191119708" lat="17.637662867639307">
        <ele>500.762</ele>
        <time>2024-09-25T11:11:32Z</time>
      </trkpt>
      <trkpt lon="78.519262761093941" lat="17.637664915854764">
        <ele>500.762</ele>
        <time>2024-09-25T11:11:32Z</time>
      </trkpt>
      <trkpt lon="78.519263326175846" lat="17.637666947043328">
        <ele>500.762</ele>
        <time>2024-09-25T11:11:32Z</time>
      </trkpt>
      <trkpt lon="78.519263887103961" lat="17.637668962889723">
        <ele>500.763</ele>
        <time>2024-09-25T11:11:32Z</time>
      </trkpt>
      <trkpt lon="78.519264444579221" lat="17.637670965196723">
        <ele>500.763</ele>
        <time>2024-09-25T11:11:32Z</time>
      </trkpt>
      <trkpt lon="78.519264999249955" lat="17.637672955793516">
        <ele>500.764</ele>
        <time>2024-09-25T11:11:32Z</time>
      </trkpt>
      <trkpt lon="78.519265551702247" lat="17.63767493646564">
        <ele>500.766</ele>
        <time>2024-09-25T11:11:32Z</time>
      </trkpt>
      <trkpt lon="78.519266102454964" lat="17.637676908903746">
        <ele>500.767</ele>
        <time>2024-09-25T11:11:32Z</time>
      </trkpt>
      <trkpt lon="78.519266651958276" lat="17.637678874668225">
        <ele>500.768</ele>
        <time>2024-09-25T11:11:32Z</time>
      </trkpt>
      <trkpt lon="78.519267200594882" lat="17.6376808351671">
        <ele>500.769</ele>
        <time>2024-09-25T11:11:32Z</time>
      </trkpt>
      <trkpt lon="78.51926774868339" lat="17.637682791644622">
        <ele>500.77</ele>
        <time>2024-09-25T11:11:32Z</time>
      </trkpt>
      <trkpt lon="78.519268296482977" lat="17.637684745178394">
        <ele>500.771</ele>
        <time>2024-09-25T11:11:32Z</time>
      </trkpt>
      <trkpt lon="78.519268844199104" lat="17.637686696682955">
        <ele>500.772</ele>
        <time>2024-09-25T11:11:32Z</time>
      </trkpt>
      <trkpt lon="78.519269391989482" lat="17.637688646918175">
        <ele>500.773</ele>
        <time>2024-09-25T11:11:32Z</time>
      </trkpt>
      <trkpt lon="78.519269939970485" lat="17.637690596500939">
        <ele>500.773</ele>
        <time>2024-09-25T11:11:32Z</time>
      </trkpt>
      <trkpt lon="78.519270488223157" lat="17.63769254591892">
        <ele>500.774</ele>
        <time>2024-09-25T11:11:32Z</time>
      </trkpt>
      <trkpt lon="78.519271036799196" lat="17.637694495545464">
        <ele>500.775</ele>
        <time>2024-09-25T11:11:32Z</time>
      </trkpt>
      <trkpt lon="78.519271585726315" lat="17.637696445654754">
        <ele>500.775</ele>
        <time>2024-09-25T11:11:32Z</time>
      </trkpt>
      <trkpt lon="78.519272135013239" lat="17.637698396436708">
        <ele>500.775</ele>
        <time>2024-09-25T11:11:32Z</time>
      </trkpt>
      <trkpt lon="78.519272684654041" lat="17.637700348011137">
        <ele>500.775</ele>
        <time>2024-09-25T11:11:32Z</time>
      </trkpt>
      <trkpt lon="78.519273383235159" lat="17.637702875470655">
        <ele>500.659</ele>
        <time>2024-09-25T11:11:33Z</time>
      </trkpt>
      <trkpt lon="78.519274052388695" lat="17.637705338080139">
        <ele>500.562</ele>
        <time>2024-09-25T11:11:33Z</time>
      </trkpt>
      <trkpt lon="78.519274694491841" lat="17.637707737370953">
        <ele>500.481</ele>
        <time>2024-09-25T11:11:33Z</time>
      </trkpt>
      <trkpt lon="78.519275312276037" lat="17.637710076696447">
        <ele>500.416</ele>
        <time>2024-09-25T11:11:33Z</time>
      </trkpt>
      <trkpt lon="78.519275908644843" lat="17.637712360666971">
        <ele>500.365</ele>
        <time>2024-09-25T11:11:33Z</time>
      </trkpt>
      <trkpt lon="78.519276486530728" lat="17.637714594680297">
        <ele>500.327</ele>
        <time>2024-09-25T11:11:33Z</time>
      </trkpt>
      <trkpt lon="78.519277048786151" lat="17.637716784540331">
        <ele>500.299</ele>
        <time>2024-09-25T11:11:33Z</time>
      </trkpt>
      <trkpt lon="78.519277598104154" lat="17.63771893615553">
        <ele>500.281</ele>
        <time>2024-09-25T11:11:33Z</time>
      </trkpt>
      <trkpt lon="78.519278136964118" lat="17.637721055307992">
        <ele>500.269</ele>
        <time>2024-09-25T11:11:33Z</time>
      </trkpt>
      <trkpt lon="78.519278667598215" lat="17.637723147483751">
        <ele>500.264</ele>
        <time>2024-09-25T11:11:33Z</time>
      </trkpt>
      <trkpt lon="78.519279191974761" lat="17.637725217755147">
        <ele>500.263</ele>
        <time>2024-09-25T11:11:33Z</time>
      </trkpt>
      <trkpt lon="78.519279711794837" lat="17.637727270706499">
        <ele>500.266</ele>
        <time>2024-09-25T11:11:33Z</time>
      </trkpt>
      <trkpt lon="78.519280228498999" lat="17.637729310395045">
        <ele>500.272</ele>
        <time>2024-09-25T11:11:33Z</time>
      </trkpt>
      <trkpt lon="78.519280743281371" lat="17.637731340339805">
        <ele>500.279</ele>
        <time>2024-09-25T11:11:33Z</time>
      </trkpt>
      <trkpt lon="78.519281257108801" lat="17.637733363531854">
        <ele>500.288</ele>
        <time>2024-09-25T11:11:33Z</time>
      </trkpt>
      <trkpt lon="78.519281770743319" lat="17.637735382460434">
        <ele>500.297</ele>
        <time>2024-09-25T11:11:33Z</time>
      </trkpt>
      <trkpt lon="78.519282284766049" lat="17.637737399150041">
        <ele>500.306</ele>
        <time>2024-09-25T11:11:33Z</time>
      </trkpt>
      <trkpt lon="78.519282799601584" lat="17.637739415204521">
        <ele>500.314</ele>
        <time>2024-09-25T11:11:33Z</time>
      </trkpt>
      <trkpt lon="78.519283315541713" lat="17.637741431854941">
        <ele>500.322</ele>
        <time>2024-09-25T11:11:33Z</time>
      </trkpt>
      <trkpt lon="78.519283832768082" lat="17.6377434500086">
        <ele>500.33</ele>
        <time>2024-09-25T11:11:33Z</time>
      </trkpt>
      <trkpt lon="78.519284351372889" lat="17.637745470297229">
        <ele>500.337</ele>
        <time>2024-09-25T11:11:33Z</time>
      </trkpt>
      <trkpt lon="78.519284871377849" lat="17.637747493122895">
        <ele>500.343</ele>
        <time>2024-09-25T11:11:33Z</time>
      </trkpt>
      <trkpt lon="78.519285392750618" lat="17.637749518700566">
        <ele>500.348</ele>
        <time>2024-09-25T11:11:33Z</time>
      </trkpt>
      <trkpt lon="78.519285915419346" lat="17.637751547096723">
        <ele>500.352</ele>
        <time>2024-09-25T11:11:33Z</time>
      </trkpt>
      <trkpt lon="78.519286439284897" lat="17.637753578263585">
        <ele>500.356</ele>
        <time>2024-09-25T11:11:33Z</time>
      </trkpt>
      <trkpt lon="78.519286964230929" lat="17.637755612068922">
        <ele>500.359</ele>
        <time>2024-09-25T11:11:33Z</time>
      </trkpt>
      <trkpt lon="78.519287490132228" lat="17.637757648321418">
        <ele>500.361</ele>
        <time>2024-09-25T11:11:33Z</time>
      </trkpt>
      <trkpt lon="78.519288016861253" lat="17.63775968679187">
        <ele>500.363</ele>
        <time>2024-09-25T11:11:33Z</time>
      </trkpt>
      <trkpt lon="78.519288544293076" lat="17.637761727230476">
        <ele>500.364</ele>
        <time>2024-09-25T11:11:33Z</time>
      </trkpt>
      <trkpt lon="78.519289247318241" lat="17.637764390948401">
        <ele>500.243</ele>
        <time>2024-09-25T11:11:34Z</time>
      </trkpt>
      <trkpt lon="78.519289949697637" lat="17.637767004899892">
        <ele>500.141</ele>
        <time>2024-09-25T11:11:34Z</time>
      </trkpt>
      <trkpt lon="78.519290648833476" lat="17.63776956740044">
        <ele>500.057</ele>
        <time>2024-09-25T11:11:34Z</time>
      </trkpt>
      <trkpt lon="78.519291342880152" lat="17.637772078967082">
        <ele>499.989</ele>
        <time>2024-09-25T11:11:34Z</time>
      </trkpt>
      <trkpt lon="78.519292030623149" lat="17.637774541758443">
        <ele>499.935</ele>
        <time>2024-09-25T11:11:34Z</time>
      </trkpt>
      <trkpt lon="78.519292711365878" lat="17.637776959095653">
        <ele>499.895</ele>
        <time>2024-09-25T11:11:34Z</time>
      </trkpt>
      <trkpt lon="78.519293384826327" lat="17.637779335060813">
        <ele>499.865</ele>
        <time>2024-09-25T11:11:34Z</time>
      </trkpt>
      <trkpt lon="78.519294051044852" lat="17.637781674167876">
        <ele>499.845</ele>
        <time>2024-09-25T11:11:34Z</time>
      </trkpt>
      <trkpt lon="78.519294710303384" lat="17.637783981099581">
        <ele>499.833</ele>
        <time>2024-09-25T11:11:34Z</time>
      </trkpt>
      <trkpt lon="78.519295363056116" lat="17.637786260503272">
        <ele>499.827</ele>
        <time>2024-09-25T11:11:34Z</time>
      </trkpt>
      <trkpt lon="78.519296009871397" lat="17.637788516838199">
        <ele>499.826</ele>
        <time>2024-09-25T11:11:34Z</time>
      </trkpt>
      <trkpt lon="78.519296651383868" lat="17.63779075426698">
        <ele>499.829</ele>
        <time>2024-09-25T11:11:34Z</time>
      </trkpt>
      <trkpt lon="78.51929728825607" lat="17.637792976584052">
        <ele>499.835</ele>
        <time>2024-09-25T11:11:34Z</time>
      </trkpt>
      <trkpt lon="78.519297921148592" lat="17.637795187174529">
        <ele>499.842</ele>
        <time>2024-09-25T11:11:34Z</time>
      </trkpt>
      <trkpt lon="78.519298550697613" lat="17.63779738899742">
        <ele>499.851</ele>
        <time>2024-09-25T11:11:34Z</time>
      </trkpt>
      <trkpt lon="78.519299177498809" lat="17.637799584587764">
        <ele>499.86</ele>
        <time>2024-09-25T11:11:34Z</time>
      </trkpt>
      <trkpt lon="78.51929980209664" lat="17.637801776072962">
        <ele>499.869</ele>
        <time>2024-09-25T11:11:34Z</time>
      </trkpt>
      <trkpt lon="78.519300424978056" lat="17.637803965199243">
        <ele>499.878</ele>
        <time>2024-09-25T11:11:34Z</time>
      </trkpt>
      <trkpt lon="78.519301046569723" lat="17.637806153364878">
        <ele>499.887</ele>
        <time>2024-09-25T11:11:34Z</time>
      </trkpt>
      <trkpt lon="78.519301667238082" lat="17.637808341657255">
        <ele>499.895</ele>
        <time>2024-09-25T11:11:34Z</time>
      </trkpt>
      <trkpt lon="78.519302287291382" lat="17.63781053089167">
        <ele>499.902</ele>
        <time>2024-09-25T11:11:34Z</time>
      </trkpt>
      <trkpt lon="78.519302906983398" lat="17.637812721649986">
        <ele>499.908</ele>
        <time>2024-09-25T11:11:34Z</time>
      </trkpt>
      <trkpt lon="78.519303526517945" lat="17.637814914317897">
        <ele>499.913</ele>
        <time>2024-09-25T11:11:34Z</time>
      </trkpt>
      <trkpt lon="78.519304146054154" lat="17.63781710911983">
        <ele>499.918</ele>
        <time>2024-09-25T11:11:34Z</time>
      </trkpt>
      <trkpt lon="78.519304765711894" lat="17.637819306150842">
        <ele>499.922</ele>
        <time>2024-09-25T11:11:34Z</time>
      </trkpt>
      <trkpt lon="78.51930538557734" lat="17.637821505405181">
        <ele>499.925</ele>
        <time>2024-09-25T11:11:34Z</time>
      </trkpt>
      <trkpt lon="78.519306005708216" lat="17.637823706801299">
        <ele>499.927</ele>
        <time>2024-09-25T11:11:34Z</time>
      </trkpt>
      <trkpt lon="78.519306626138814" lat="17.637825910203336">
        <ele>499.929</ele>
        <time>2024-09-25T11:11:34Z</time>
      </trkpt>
      <trkpt lon="78.519307246884566" lat="17.63782811543922">
        <ele>499.931</ele>
        <time>2024-09-25T11:11:34Z</time>
      </trkpt>
      <trkpt lon="78.519308027411384" lat="17.637830980683031">
        <ele>499.948</ele>
        <time>2024-09-25T11:11:35Z</time>
      </trkpt>
      <trkpt lon="78.519308767618341" lat="17.63783378061316">
        <ele>499.963</ele>
        <time>2024-09-25T11:11:35Z</time>
      </trkpt>
      <trkpt lon="78.519309471439399" lat="17.637836515463235">
        <ele>499.975</ele>
        <time>2024-09-25T11:11:35Z</time>
      </trkpt>
      <trkpt lon="78.519310143103695" lat="17.637839187669531">
        <ele>499.984</ele>
        <time>2024-09-25T11:11:35Z</time>
      </trkpt>
      <trkpt lon="78.519310786915966" lat="17.637841801244114">
        <ele>499.992</ele>
        <time>2024-09-25T11:11:35Z</time>
      </trkpt>
      <trkpt lon="78.519311407088523" lat="17.637844361247563">
        <ele>499.997</ele>
        <time>2024-09-25T11:11:35Z</time>
      </trkpt>
      <trkpt lon="78.519312007617586" lat="17.637846873355087">
        <ele>500.001</ele>
        <time>2024-09-25T11:11:35Z</time>
      </trkpt>
      <trkpt lon="78.519312592197807" lat="17.637849343508133">
        <ele>500.003</ele>
        <time>2024-09-25T11:11:35Z</time>
      </trkpt>
      <trkpt lon="78.519313164168153" lat="17.637851777642492">
        <ele>500.004</ele>
        <time>2024-09-25T11:11:35Z</time>
      </trkpt>
      <trkpt lon="78.519313726483517" lat="17.637854181483551">
        <ele>500.005</ele>
        <time>2024-09-25T11:11:35Z</time>
      </trkpt>
      <trkpt lon="78.519314281706656" lat="17.63785656039925">
        <ele>500.004</ele>
        <time>2024-09-25T11:11:35Z</time>
      </trkpt>
      <trkpt lon="78.519314832015695" lat="17.63785891930166">
        <ele>500.004</ele>
        <time>2024-09-25T11:11:35Z</time>
      </trkpt>
      <trkpt lon="78.519315379223258" lat="17.637861262588615">
        <ele>500.002</ele>
        <time>2024-09-25T11:11:35Z</time>
      </trkpt>
      <trkpt lon="78.519315924803379" lat="17.63786359411759">
        <ele>500.001</ele>
        <time>2024-09-25T11:11:35Z</time>
      </trkpt>
      <trkpt lon="78.519316469923751" lat="17.637865917204742">
        <ele>499.999</ele>
        <time>2024-09-25T11:11:35Z</time>
      </trkpt>
      <trkpt lon="78.519317015480581" lat="17.637868234643022">
        <ele>499.998</ele>
        <time>2024-09-25T11:11:35Z</time>
      </trkpt>
      <trkpt lon="78.519317562134262" lat="17.637870548733986">
        <ele>499.996</ele>
        <time>2024-09-25T11:11:35Z</time>
      </trkpt>
      <trkpt lon="78.519318110344528" lat="17.637872861328823">
        <ele>499.995</ele>
        <time>2024-09-25T11:11:35Z</time>
      </trkpt>
      <trkpt lon="78.519318660403883" lat="17.637875173874953">
        <ele>499.994</ele>
        <time>2024-09-25T11:11:35Z</time>
      </trkpt>
      <trkpt lon="78.519319212468588" lat="17.63787748746515">
        <ele>499.992</ele>
        <time>2024-09-25T11:11:35Z</time>
      </trkpt>
      <trkpt lon="78.51931976658679" lat="17.637879802886907">
        <ele>499.991</ele>
        <time>2024-09-25T11:11:35Z</time>
      </trkpt>
      <trkpt lon="78.519320322723502" lat="17.637882120670241">
        <ele>499.99</ele>
        <time>2024-09-25T11:11:35Z</time>
      </trkpt>
      <trkpt lon="78.519320880782203" lat="17.637884441132673">
        <ele>499.99</ele>
        <time>2024-09-25T11:11:35Z</time>
      </trkpt>
      <trkpt lon="78.519321440623401" lat="17.637886764420511">
        <ele>499.989</ele>
        <time>2024-09-25T11:11:35Z</time>
      </trkpt>
      <trkpt lon="78.519322002080045" lat="17.637889090545919">
        <ele>499.988</ele>
        <time>2024-09-25T11:11:35Z</time>
      </trkpt>
      <trkpt lon="78.519322564970111" lat="17.637891419419521">
        <ele>499.988</ele>
        <time>2024-09-25T11:11:35Z</time>
      </trkpt>
      <trkpt lon="78.519323129106596" lat="17.637893750878508">
        <ele>499.988</ele>
        <time>2024-09-25T11:11:35Z</time>
      </trkpt>
      <trkpt lon="78.519323694305257" lat="17.637896084710356">
        <ele>499.987</ele>
        <time>2024-09-25T11:11:35Z</time>
      </trkpt>
      <trkpt lon="78.519324260390306" lat="17.637898420672453">
        <ele>499.987</ele>
        <time>2024-09-25T11:11:35Z</time>
      </trkpt>
      <trkpt lon="78.519325000896615" lat="17.637901325204005">
        <ele>499.902</ele>
        <time>2024-09-25T11:11:36Z</time>
      </trkpt>
      <trkpt lon="78.519325728890735" lat="17.637904050546304">
        <ele>499.829</ele>
        <time>2024-09-25T11:11:36Z</time>
      </trkpt>
      <trkpt lon="78.519326443644573" lat="17.637906616224498">
        <ele>499.77</ele>
        <time>2024-09-25T11:11:36Z</time>
      </trkpt>
      <trkpt lon="78.51932714506907" lat="17.637909042501921">
        <ele>499.722</ele>
        <time>2024-09-25T11:11:36Z</time>
      </trkpt>
      <trkpt lon="78.519327833560041" lat="17.637911349494644">
        <ele>499.684</ele>
        <time>2024-09-25T11:11:36Z</time>
      </trkpt>
      <trkpt lon="78.519328509865005" lat="17.637913556509112">
        <ele>499.656</ele>
        <time>2024-09-25T11:11:36Z</time>
      </trkpt>
      <trkpt lon="78.519329174970679" lat="17.637915681570977">
        <ele>499.636</ele>
        <time>2024-09-25T11:11:36Z</time>
      </trkpt>
      <trkpt lon="78.519329830009795" lat="17.637917741114389">
        <ele>499.622</ele>
        <time>2024-09-25T11:11:36Z</time>
      </trkpt>
      <trkpt lon="78.519330476185829" lat="17.637919749803057">
        <ele>499.614</ele>
        <time>2024-09-25T11:11:36Z</time>
      </trkpt>
      <trkpt lon="78.519331114713779" lat="17.637921720456845">
        <ele>499.61</ele>
        <time>2024-09-25T11:11:36Z</time>
      </trkpt>
      <trkpt lon="78.519331746775137" lat="17.63792366406048">
        <ele>499.61</ele>
        <time>2024-09-25T11:11:36Z</time>
      </trkpt>
      <trkpt lon="78.519332373485128" lat="17.637925589833856">
        <ele>499.612</ele>
        <time>2024-09-25T11:11:36Z</time>
      </trkpt>
      <trkpt lon="78.519332995870258" lat="17.637927505346287">
        <ele>499.616</ele>
        <time>2024-09-25T11:11:36Z</time>
      </trkpt>
      <trkpt lon="78.519333614854517" lat="17.637929416659997">
        <ele>499.622</ele>
        <time>2024-09-25T11:11:36Z</time>
      </trkpt>
      <trkpt lon="78.519334231252557" lat="17.637931328490609">
        <ele>499.628</ele>
        <time>2024-09-25T11:11:36Z</time>
      </trkpt>
      <trkpt lon="78.51933484576827" lat="17.637933244374874">
        <ele>499.634</ele>
        <time>2024-09-25T11:11:36Z</time>
      </trkpt>
      <trkpt lon="78.519335458997631" lat="17.637935166838073">
        <ele>499.641</ele>
        <time>2024-09-25T11:11:36Z</time>
      </trkpt>
      <trkpt lon="78.51933607143458" lat="17.637937097555319">
        <ele>499.648</ele>
        <time>2024-09-25T11:11:36Z</time>
      </trkpt>
      <trkpt lon="78.519336683478983" lat="17.63793903750269">
        <ele>499.654</ele>
        <time>2024-09-25T11:11:36Z</time>
      </trkpt>
      <trkpt lon="78.519337295445865" lat="17.637940987095408">
        <ele>499.659</ele>
        <time>2024-09-25T11:11:36Z</time>
      </trkpt>
      <trkpt lon="78.519337907575434" lat="17.637942946311508">
        <ele>499.664</ele>
        <time>2024-09-25T11:11:36Z</time>
      </trkpt>
      <trkpt lon="78.519338520043078" lat="17.637944914800215">
        <ele>499.669</ele>
        <time>2024-09-25T11:11:36Z</time>
      </trkpt>
      <trkpt lon="78.519339132969279" lat="17.637946891975083">
        <ele>499.673</ele>
        <time>2024-09-25T11:11:36Z</time>
      </trkpt>
      <trkpt lon="78.519339746428912" lat="17.637948877092381">
        <ele>499.676</ele>
        <time>2024-09-25T11:11:36Z</time>
      </trkpt>
      <trkpt lon="78.51934036045995" lat="17.637950869315638">
        <ele>499.679</ele>
        <time>2024-09-25T11:11:36Z</time>
      </trkpt>
      <trkpt lon="78.519340975071103" lat="17.637952867767524">
        <ele>499.681</ele>
        <time>2024-09-25T11:11:36Z</time>
      </trkpt>
      <trkpt lon="78.519341590248843" lat="17.637954871570383">
        <ele>499.683</ele>
        <time>2024-09-25T11:11:36Z</time>
      </trkpt>
      <trkpt lon="78.519342205963284" lat="17.637956879876786">
        <ele>499.684</ele>
        <time>2024-09-25T11:11:36Z</time>
      </trkpt>
      <trkpt lon="78.519342822173243" lat="17.637958891891529">
        <ele>499.685</ele>
        <time>2024-09-25T11:11:36Z</time>
      </trkpt>
      <trkpt lon="78.519343580223563" lat="17.637961453637597">
        <ele>499.376</ele>
        <time>2024-09-25T11:11:37Z</time>
      </trkpt>
      <trkpt lon="78.519344284125253" lat="17.637963911770964">
        <ele>499.116</ele>
        <time>2024-09-25T11:11:37Z</time>
      </trkpt>
      <trkpt lon="78.519344940243329" lat="17.637966274025146">
        <ele>498.901</ele>
        <time>2024-09-25T11:11:37Z</time>
      </trkpt>
      <trkpt lon="78.519345555035301" lat="17.637968549559588">
        <ele>498.728</ele>
        <time>2024-09-25T11:11:37Z</time>
      </trkpt>
      <trkpt lon="78.519346134804167" lat="17.637970748290499">
        <ele>498.593</ele>
        <time>2024-09-25T11:11:37Z</time>
      </trkpt>
      <trkpt lon="78.519346685517519" lat="17.637972880360199">
        <ele>498.49</ele>
        <time>2024-09-25T11:11:37Z</time>
      </trkpt>
      <trkpt lon="78.519347212682945" lat="17.637974955729195">
        <ele>498.416</ele>
        <time>2024-09-25T11:11:37Z</time>
      </trkpt>
      <trkpt lon="78.519347721269881" lat="17.637976983875031">
        <ele>498.366</ele>
        <time>2024-09-25T11:11:37Z</time>
      </trkpt>
      <trkpt lon="78.519348215669623" lat="17.637978973582047">
        <ele>498.336</ele>
        <time>2024-09-25T11:11:37Z</time>
      </trkpt>
      <trkpt lon="78.519348699685096" lat="17.637980932806961">
        <ele>498.321</ele>
        <time>2024-09-25T11:11:37Z</time>
      </trkpt>
      <trkpt lon="78.519349176543628" lat="17.637982868606279">
        <ele>498.32</ele>
        <time>2024-09-25T11:11:37Z</time>
      </trkpt>
      <trkpt lon="78.519349648926593" lat="17.637984787112849">
        <ele>498.327</ele>
        <time>2024-09-25T11:11:37Z</time>
      </trkpt>
      <trkpt lon="78.519350119010682" lat="17.637986693550278">
        <ele>498.342</ele>
        <time>2024-09-25T11:11:37Z</time>
      </trkpt>
      <trkpt lon="78.519350588516559" lat="17.637988592275342">
        <ele>498.362</ele>
        <time>2024-09-25T11:11:37Z</time>
      </trkpt>
      <trkpt lon="78.519351058761359" lat="17.637990486840096">
        <ele>498.384</ele>
        <time>2024-09-25T11:11:37Z</time>
      </trkpt>
      <trkpt lon="78.519351530712314" lat="17.637992380066613">
        <ele>498.407</ele>
        <time>2024-09-25T11:11:37Z</time>
      </trkpt>
      <trkpt lon="78.519352005039266" lat="17.637994274128697">
        <ele>498.431</ele>
        <time>2024-09-25T11:11:37Z</time>
      </trkpt>
      <trkpt lon="78.519352482164649" lat="17.637996170635972">
        <ele>498.455</ele>
        <time>2024-09-25T11:11:37Z</time>
      </trkpt>
      <trkpt lon="78.519352962309696" lat="17.637998070716883">
        <ele>498.477</ele>
        <time>2024-09-25T11:11:37Z</time>
      </trkpt>
      <trkpt lon="78.519353445536339" lat="17.637999975097955">
        <ele>498.497</ele>
        <time>2024-09-25T11:11:37Z</time>
      </trkpt>
      <trkpt lon="78.51935393178421" lat="17.638001884177516">
        <ele>498.515</ele>
        <time>2024-09-25T11:11:37Z</time>
      </trkpt>
      <trkpt lon="78.5193544209029" lat="17.638003798092662">
        <ele>498.531</ele>
        <time>2024-09-25T11:11:37Z</time>
      </trkpt>
      <trkpt lon="78.519354912679304" lat="17.638005716778792">
        <ele>498.545</ele>
        <time>2024-09-25T11:11:37Z</time>
      </trkpt>
      <trkpt lon="78.519355406860512" lat="17.638007640021531">
        <ele>498.556</ele>
        <time>2024-09-25T11:11:37Z</time>
      </trkpt>
      <trkpt lon="78.519355903172325" lat="17.638009567501026">
        <ele>498.566</ele>
        <time>2024-09-25T11:11:37Z</time>
      </trkpt>
      <trkpt lon="78.519356401334093" lat="17.638011498829027">
        <ele>498.574</ele>
        <time>2024-09-25T11:11:37Z</time>
      </trkpt>
      <trkpt lon="78.519356901069969" lat="17.638013433579214">
        <ele>498.58</ele>
        <time>2024-09-25T11:11:37Z</time>
      </trkpt>
      <trkpt lon="78.519357402117393" lat="17.638015371311369">
        <ele>498.585</ele>
        <time>2024-09-25T11:11:37Z</time>
      </trkpt>
      <trkpt lon="78.519357904232848" lat="17.638017311590083">
        <ele>498.588</ele>
        <time>2024-09-25T11:11:37Z</time>
      </trkpt>
      <trkpt lon="78.519358408881175" lat="17.638019672372472">
        <ele>498.614</ele>
        <time>2024-09-25T11:11:38Z</time>
      </trkpt>
      <trkpt lon="78.519358774208442" lat="17.638021840715549">
        <ele>498.635</ele>
        <time>2024-09-25T11:11:38Z</time>
      </trkpt>
      <trkpt lon="78.519359022034223" lat="17.638023840413535">
        <ele>498.652</ele>
        <time>2024-09-25T11:11:38Z</time>
      </trkpt>
      <trkpt lon="78.519359172887206" lat="17.638025695259753">
        <ele>498.665</ele>
        <time>2024-09-25T11:11:38Z</time>
      </trkpt>
      <trkpt lon="78.519359245609948" lat="17.638027428220557">
        <ele>498.675</ele>
        <time>2024-09-25T11:11:38Z</time>
      </trkpt>
      <trkpt lon="78.519359257119717" lat="17.638029060841287">
        <ele>498.682</ele>
        <time>2024-09-25T11:11:38Z</time>
      </trkpt>
      <trkpt lon="78.51935922229481" lat="17.638030612847878">
        <ele>498.687</ele>
        <time>2024-09-25T11:11:38Z</time>
      </trkpt>
      <trkpt lon="78.51935915395994" lat="17.638032101909694">
        <ele>498.689</ele>
        <time>2024-09-25T11:11:38Z</time>
      </trkpt>
      <trkpt lon="78.519359062946293" lat="17.638033543532188">
        <ele>498.691</ele>
        <time>2024-09-25T11:11:38Z</time>
      </trkpt>
      <trkpt lon="78.519358958206226" lat="17.638034951051136">
        <ele>498.691</ele>
        <time>2024-09-25T11:11:38Z</time>
      </trkpt>
      <trkpt lon="78.519358846964877" lat="17.638036335703628">
        <ele>498.69</ele>
        <time>2024-09-25T11:11:38Z</time>
      </trkpt>
      <trkpt lon="78.519358734894439" lat="17.638037706754496">
        <ele>498.688</ele>
        <time>2024-09-25T11:11:38Z</time>
      </trkpt>
      <trkpt lon="78.519358626299464" lat="17.638039071660081">
        <ele>498.686</ele>
        <time>2024-09-25T11:11:38Z</time>
      </trkpt>
      <trkpt lon="78.519358524304153" lat="17.638040436254514">
        <ele>498.684</ele>
        <time>2024-09-25T11:11:38Z</time>
      </trkpt>
      <trkpt lon="78.51935843103432" lat="17.638041804946447">
        <ele>498.681</ele>
        <time>2024-09-25T11:11:38Z</time>
      </trkpt>
      <trkpt lon="78.519358347789435" lat="17.638043180916906">
        <ele>498.679</ele>
        <time>2024-09-25T11:11:38Z</time>
      </trkpt>
      <trkpt lon="78.519358275200901" lat="17.638044566311009">
        <ele>498.677</ele>
        <time>2024-09-25T11:11:38Z</time>
      </trkpt>
      <trkpt lon="78.519358213374588" lat="17.638045962418509">
        <ele>498.674</ele>
        <time>2024-09-25T11:11:38Z</time>
      </trkpt>
      <trkpt lon="78.519358162016573" lat="17.63804736983958">
        <ele>498.672</ele>
        <time>2024-09-25T11:11:38Z</time>
      </trkpt>
      <trkpt lon="78.519358120541682" lat="17.638048788633725">
        <ele>498.671</ele>
        <time>2024-09-25T11:11:38Z</time>
      </trkpt>
      <trkpt lon="78.519358088165603" lat="17.638050218450825">
        <ele>498.669</ele>
        <time>2024-09-25T11:11:38Z</time>
      </trkpt>
      <trkpt lon="78.519358063981116" lat="17.638051658644148">
        <ele>498.668</ele>
        <time>2024-09-25T11:11:38Z</time>
      </trkpt>
      <trkpt lon="78.519358047019878" lat="17.63805310836581">
        <ele>498.667</ele>
        <time>2024-09-25T11:11:38Z</time>
      </trkpt>
      <trkpt lon="78.519358036301028" lat="17.638054566645756">
        <ele>498.666</ele>
        <time>2024-09-25T11:11:38Z</time>
      </trkpt>
      <trkpt lon="78.519358030868446" lat="17.63805603245553">
        <ele>498.665</ele>
        <time>2024-09-25T11:11:38Z</time>
      </trkpt>
      <trkpt lon="78.519358029817752" lat="17.638057504758351">
        <ele>498.664</ele>
        <time>2024-09-25T11:11:38Z</time>
      </trkpt>
      <trkpt lon="78.519358032315068" lat="17.638058982547182">
        <ele>498.664</ele>
        <time>2024-09-25T11:11:38Z</time>
      </trkpt>
      <trkpt lon="78.519358037608583" lat="17.638060464872385">
        <ele>498.663</ele>
        <time>2024-09-25T11:11:38Z</time>
      </trkpt>
      <trkpt lon="78.519358045034451" lat="17.638061950860561">
        <ele>498.663</ele>
        <time>2024-09-25T11:11:38Z</time>
      </trkpt>
      <trkpt lon="78.519358221817143" lat="17.638063995092004">
        <ele>498.902</ele>
        <time>2024-09-25T11:11:39Z</time>
      </trkpt>
      <trkpt lon="78.519358539391874" lat="17.638066091150364">
        <ele>499.104</ele>
        <time>2024-09-25T11:11:39Z</time>
      </trkpt>
      <trkpt lon="78.519358972813578" lat="17.638068222141875">
        <ele>499.27</ele>
        <time>2024-09-25T11:11:39Z</time>
      </trkpt>
      <trkpt lon="78.519359499255017" lat="17.63807037411857">
        <ele>499.404</ele>
        <time>2024-09-25T11:11:39Z</time>
      </trkpt>
      <trkpt lon="78.519360098278185" lat="17.638072535837448">
        <ele>499.509</ele>
        <time>2024-09-25T11:11:39Z</time>
      </trkpt>
      <trkpt lon="78.519360751955915" lat="17.638074698485035">
        <ele>499.588</ele>
        <time>2024-09-25T11:11:39Z</time>
      </trkpt>
      <trkpt lon="78.51936144487631" lat="17.638076855385336">
        <ele>499.645</ele>
        <time>2024-09-25T11:11:39Z</time>
      </trkpt>
      <trkpt lon="78.519362164058791" lat="17.638079001705478">
        <ele>499.684</ele>
        <time>2024-09-25T11:11:39Z</time>
      </trkpt>
      <trkpt lon="78.519362898806335" lat="17.638081134169813">
        <ele>499.707</ele>
        <time>2024-09-25T11:11:39Z</time>
      </trkpt>
      <trkpt lon="78.519363640514811" lat="17.638083250790299">
        <ele>499.718</ele>
        <time>2024-09-25T11:11:39Z</time>
      </trkpt>
      <trkpt lon="78.519364382456544" lat="17.638085350618567">
        <ele>499.719</ele>
        <time>2024-09-25T11:11:39Z</time>
      </trkpt>
      <trkpt lon="78.519365119551992" lat="17.638087433522891">
        <ele>499.713</ele>
        <time>2024-09-25T11:11:39Z</time>
      </trkpt>
      <trkpt lon="78.519365848140453" lat="17.638089499991729">
        <ele>499.701</ele>
        <time>2024-09-25T11:11:39Z</time>
      </trkpt>
      <trkpt lon="78.519366565757835" lat="17.63809155096407">
        <ele>499.686</ele>
        <time>2024-09-25T11:11:39Z</time>
      </trkpt>
      <trkpt lon="78.519367270927717" lat="17.63809358768593">
        <ele>499.669</ele>
        <time>2024-09-25T11:11:39Z</time>
      </trkpt>
      <trkpt lon="78.519367962969397" lat="17.638095611591471">
        <ele>499.651</ele>
        <time>2024-09-25T11:11:39Z</time>
      </trkpt>
      <trkpt lon="78.519368641825722" lat="17.638097624206889">
        <ele>499.632</ele>
        <time>2024-09-25T11:11:39Z</time>
      </trkpt>
      <trkpt lon="78.519369307911504" lat="17.638099627074748">
        <ele>499.614</ele>
        <time>2024-09-25T11:11:39Z</time>
      </trkpt>
      <trkpt lon="78.519369961982946" lat="17.638101621696382">
        <ele>499.597</ele>
        <time>2024-09-25T11:11:39Z</time>
      </trkpt>
      <trkpt lon="78.519370605027319" lat="17.6381036094899">
        <ele>499.581</ele>
        <time>2024-09-25T11:11:39Z</time>
      </trkpt>
      <trkpt lon="78.519371238171829" lat="17.638105591761427">
        <ele>499.567</ele>
        <time>2024-09-25T11:11:39Z</time>
      </trkpt>
      <trkpt lon="78.519371862609987" lat="17.638107569687318">
        <ele>499.555</ele>
        <time>2024-09-25T11:11:39Z</time>
      </trkpt>
      <trkpt lon="78.519372479543833" lat="17.638109544305244">
        <ele>499.544</ele>
        <time>2024-09-25T11:11:39Z</time>
      </trkpt>
      <trkpt lon="78.519373090140107" lat="17.638111516512303">
        <ele>499.535</ele>
        <time>2024-09-25T11:11:39Z</time>
      </trkpt>
      <trkpt lon="78.519373695498402" lat="17.63811348706847">
        <ele>499.528</ele>
        <time>2024-09-25T11:11:39Z</time>
      </trkpt>
      <trkpt lon="78.519374296629536" lat="17.638115456603952">
        <ele>499.522</ele>
        <time>2024-09-25T11:11:39Z</time>
      </trkpt>
      <trkpt lon="78.519374894442265" lat="17.638117425629265">
        <ele>499.517</ele>
        <time>2024-09-25T11:11:39Z</time>
      </trkpt>
      <trkpt lon="78.519375489736888" lat="17.638119394546955">
        <ele>499.513</ele>
        <time>2024-09-25T11:11:39Z</time>
      </trkpt>
      <trkpt lon="78.519376083204136" lat="17.638121363664204">
        <ele>499.51</ele>
        <time>2024-09-25T11:11:39Z</time>
      </trkpt>
      <trkpt lon="78.51937681654033" lat="17.638123833793419">
        <ele>499.525</ele>
        <time>2024-09-25T11:11:40Z</time>
      </trkpt>
      <trkpt lon="78.519377500235237" lat="17.638126170988581">
        <ele>499.537</ele>
        <time>2024-09-25T11:11:40Z</time>
      </trkpt>
      <trkpt lon="78.519378140211259" lat="17.6381283886946">
        <ele>499.548</ele>
        <time>2024-09-25T11:11:40Z</time>
      </trkpt>
      <trkpt lon="78.51937874245111" lat="17.638130501196205">
        <ele>499.557</ele>
        <time>2024-09-25T11:11:40Z</time>
      </trkpt>
      <trkpt lon="78.5193793127752" lat="17.638132522915082">
        <ele>499.564</ele>
        <time>2024-09-25T11:11:40Z</time>
      </trkpt>
      <trkpt lon="78.519379856679436" lat="17.638134467875325">
        <ele>499.57</ele>
        <time>2024-09-25T11:11:40Z</time>
      </trkpt>
      <trkpt lon="78.519380379224259" lat="17.638136349314262">
        <ele>499.574</ele>
        <time>2024-09-25T11:11:40Z</time>
      </trkpt>
      <trkpt lon="78.519380884966097" lat="17.638138179416433">
        <ele>499.578</ele>
        <time>2024-09-25T11:11:40Z</time>
      </trkpt>
      <trkpt lon="78.519381377923196" lat="17.638139969149613">
        <ele>499.58</ele>
        <time>2024-09-25T11:11:40Z</time>
      </trkpt>
      <trkpt lon="78.519381861568604" lat="17.638141728183449">
        <ele>499.582</ele>
        <time>2024-09-25T11:11:40Z</time>
      </trkpt>
      <trkpt lon="78.519382338843727" lat="17.638143464873234">
        <ele>499.582</ele>
        <time>2024-09-25T11:11:40Z</time>
      </trkpt>
      <trkpt lon="78.519382812187075" lat="17.638145186293304">
        <ele>499.583</ele>
        <time>2024-09-25T11:11:40Z</time>
      </trkpt>
      <trkpt lon="78.519383283573376" lat="17.638146898306712">
        <ele>499.583</ele>
        <time>2024-09-25T11:11:40Z</time>
      </trkpt>
      <trkpt lon="78.5193837545592" lat="17.63814860565979">
        <ele>499.582</ele>
        <time>2024-09-25T11:11:40Z</time>
      </trkpt>
      <trkpt lon="78.519384226331795" lat="17.638150312092257">
        <ele>499.582</ele>
        <time>2024-09-25T11:11:40Z</time>
      </trkpt>
      <trkpt lon="78.519384699758803" lat="17.638152020455141">
        <ele>499.581</ele>
        <time>2024-09-25T11:11:40Z</time>
      </trkpt>
      <trkpt lon="78.519385175436838" lat="17.638153732830546">
        <ele>499.58</ele>
        <time>2024-09-25T11:11:40Z</time>
      </trkpt>
      <trkpt lon="78.519385653737444" lat="17.63815545064865">
        <ele>499.579</ele>
        <time>2024-09-25T11:11:40Z</time>
      </trkpt>
      <trkpt lon="78.519386134849626" lat="17.638157174798515">
        <ele>499.578</ele>
        <time>2024-09-25T11:11:40Z</time>
      </trkpt>
      <trkpt lon="78.519386618818203" lat="17.638158905730439">
        <ele>499.577</ele>
        <time>2024-09-25T11:11:40Z</time>
      </trkpt>
      <trkpt lon="78.519387105577749" lat="17.638160643548328">
        <ele>499.577</ele>
        <time>2024-09-25T11:11:40Z</time>
      </trkpt>
      <trkpt lon="78.519387594982035" lat="17.638162388091374">
        <ele>499.576</ele>
        <time>2024-09-25T11:11:40Z</time>
      </trkpt>
      <trkpt lon="78.519388086828997" lat="17.638164139004783">
        <ele>499.575</ele>
        <time>2024-09-25T11:11:40Z</time>
      </trkpt>
      <trkpt lon="78.519388580881468" lat="17.638165895799879">
        <ele>499.575</ele>
        <time>2024-09-25T11:11:40Z</time>
      </trkpt>
      <trkpt lon="78.519389076884053" lat="17.638167657904027">
        <ele>499.574</ele>
        <time>2024-09-25T11:11:40Z</time>
      </trkpt>
      <trkpt lon="78.519389574576536" lat="17.638169424701182">
        <ele>499.574</ele>
        <time>2024-09-25T11:11:40Z</time>
      </trkpt>
      <trkpt lon="78.519390073704074" lat="17.638171195563977">
        <ele>499.574</ele>
        <time>2024-09-25T11:11:40Z</time>
      </trkpt>
      <trkpt lon="78.519390574024698" lat="17.638172969878305">
        <ele>499.573</ele>
        <time>2024-09-25T11:11:40Z</time>
      </trkpt>
      <trkpt lon="78.519391075314587" lat="17.638174747061363">
        <ele>499.573</ele>
        <time>2024-09-25T11:11:40Z</time>
      </trkpt>
      <trkpt lon="78.519391683650298" lat="17.638177059092467">
        <ele>499.631</ele>
        <time>2024-09-25T11:11:41Z</time>
      </trkpt>
      <trkpt lon="78.519392241024391" lat="17.638179321139773">
        <ele>499.68</ele>
        <time>2024-09-25T11:11:41Z</time>
      </trkpt>
      <trkpt lon="78.519392753764933" lat="17.638181532784479">
        <ele>499.72</ele>
        <time>2024-09-25T11:11:41Z</time>
      </trkpt>
      <trkpt lon="78.519393228192172" lat="17.638183695461304">
        <ele>499.752</ele>
        <time>2024-09-25T11:11:41Z</time>
      </trkpt>
      <trkpt lon="78.519393670401001" lat="17.638185811952383">
        <ele>499.777</ele>
        <time>2024-09-25T11:11:41Z</time>
      </trkpt>
      <trkpt lon="78.519394086104754" lat="17.638187885958907">
        <ele>499.797</ele>
        <time>2024-09-25T11:11:41Z</time>
      </trkpt>
      <trkpt lon="78.519394480530721" lat="17.638189921746346">
        <ele>499.81</ele>
        <time>2024-09-25T11:11:41Z</time>
      </trkpt>
      <trkpt lon="78.519394858358282" lat="17.638191923857388">
        <ele>499.82</ele>
        <time>2024-09-25T11:11:41Z</time>
      </trkpt>
      <trkpt lon="78.519395223691291" lat="17.638193896885927">
        <ele>499.825</ele>
        <time>2024-09-25T11:11:41Z</time>
      </trkpt>
      <trkpt lon="78.519395580057193" lat="17.638195845304921">
        <ele>499.828</ele>
        <time>2024-09-25T11:11:41Z</time>
      </trkpt>
      <trkpt lon="78.519395930426455" lat="17.638197773340817">
        <ele>499.828</ele>
        <time>2024-09-25T11:11:41Z</time>
      </trkpt>
      <trkpt lon="78.5193962772465" lat="17.638199684887464">
        <ele>499.827</ele>
        <time>2024-09-25T11:11:41Z</time>
      </trkpt>
      <trkpt lon="78.519396622485544" lat="17.638201583452769">
        <ele>499.824</ele>
        <time>2024-09-25T11:11:41Z</time>
      </trkpt>
      <trkpt lon="78.519396967682127" lat="17.638203472131863">
        <ele>499.821</ele>
        <time>2024-09-25T11:11:41Z</time>
      </trkpt>
      <trkpt lon="78.519397313997516" lat="17.638205353601251">
        <ele>499.816</ele>
        <time>2024-09-25T11:11:41Z</time>
      </trkpt>
      <trkpt lon="78.519397662268219" lat="17.638207230128906">
        <ele>499.812</ele>
        <time>2024-09-25T11:11:41Z</time>
      </trkpt>
      <trkpt lon="78.519398013056914" lat="17.63820910359609">
        <ele>499.807</ele>
        <time>2024-09-25T11:11:41Z</time>
      </trkpt>
      <trkpt lon="78.519398366700315" lat="17.638210975527201">
        <ele>499.803</ele>
        <time>2024-09-25T11:11:41Z</time>
      </trkpt>
      <trkpt lon="78.519398723353106" lat="17.638212847124716">
        <ele>499.799</ele>
        <time>2024-09-25T11:11:41Z</time>
      </trkpt>
      <trkpt lon="78.519399083027352" lat="17.63821471930666">
        <ele>499.795</ele>
        <time>2024-09-25T11:11:41Z</time>
      </trkpt>
      <trkpt lon="78.519399445627229" lat="17.638216592744751">
        <ele>499.792</ele>
        <time>2024-09-25T11:11:41Z</time>
      </trkpt>
      <trkpt lon="78.519399810978911" lat="17.638218467901726">
        <ele>499.789</ele>
        <time>2024-09-25T11:11:41Z</time>
      </trkpt>
      <trkpt lon="78.519400178855776" lat="17.638220345066703">
        <ele>499.786</ele>
        <time>2024-09-25T11:11:41Z</time>
      </trkpt>
      <trkpt lon="78.5194005489993" lat="17.638222224387889">
        <ele>499.784</ele>
        <time>2024-09-25T11:11:41Z</time>
      </trkpt>
      <trkpt lon="78.519400921135897" lat="17.638224105902122">
        <ele>499.782</ele>
        <time>2024-09-25T11:11:41Z</time>
      </trkpt>
      <trkpt lon="78.519401294990104" lat="17.638225989561004">
        <ele>499.781</ele>
        <time>2024-09-25T11:11:41Z</time>
      </trkpt>
      <trkpt lon="78.519401670294641" lat="17.63822787525358">
        <ele>499.78</ele>
        <time>2024-09-25T11:11:41Z</time>
      </trkpt>
      <trkpt lon="78.519402046797637" lat="17.638229762825574">
        <ele>499.779</ele>
        <time>2024-09-25T11:11:41Z</time>
      </trkpt>
      <trkpt lon="78.519402424267625" lat="17.638231652095424">
        <ele>499.778</ele>
        <time>2024-09-25T11:11:41Z</time>
      </trkpt>
      <trkpt lon="78.519402935462224" lat="17.638234049073333">
        <ele>499.616</ele>
        <time>2024-09-25T11:11:42Z</time>
      </trkpt>
      <trkpt lon="78.51940345300585" lat="17.638236341422868">
        <ele>499.479</ele>
        <time>2024-09-25T11:11:42Z</time>
      </trkpt>
      <trkpt lon="78.519403973800109" lat="17.638238537872549">
        <ele>499.367</ele>
        <time>2024-09-25T11:11:42Z</time>
      </trkpt>
      <trkpt lon="78.519404495396472" lat="17.638240648332577">
        <ele>499.276</ele>
        <time>2024-09-25T11:11:42Z</time>
      </trkpt>
      <trkpt lon="78.519405015921322" lat="17.638242683259744">
        <ele>499.206</ele>
        <time>2024-09-25T11:11:42Z</time>
      </trkpt>
      <trkpt lon="78.51940553399956" lat="17.638244653159738">
        <ele>499.152</ele>
        <time>2024-09-25T11:11:42Z</time>
      </trkpt>
      <trkpt lon="78.519406048679542" lat="17.638246568210231">
        <ele>499.114</ele>
        <time>2024-09-25T11:11:42Z</time>
      </trkpt>
      <trkpt lon="78.51940655936194" lat="17.638248437988185">
        <ele>499.088</ele>
        <time>2024-09-25T11:11:42Z</time>
      </trkpt>
      <trkpt lon="78.519407065733802" lat="17.638250271285131">
        <ele>499.073</ele>
        <time>2024-09-25T11:11:42Z</time>
      </trkpt>
      <trkpt lon="78.519407567708924" lat="17.638252075995211">
        <ele>499.065</ele>
        <time>2024-09-25T11:11:42Z</time>
      </trkpt>
      <trkpt lon="78.519408065375004" lat="17.638253859061948">
        <ele>499.065</ele>
        <time>2024-09-25T11:11:42Z</time>
      </trkpt>
      <trkpt lon="78.519408558947802" lat="17.638255626471128">
        <ele>499.069</ele>
        <time>2024-09-25T11:11:42Z</time>
      </trkpt>
      <trkpt lon="78.519409048732143" lat="17.63825738327871">
        <ele>499.077</ele>
        <time>2024-09-25T11:11:42Z</time>
      </trkpt>
      <trkpt lon="78.519409535089352" lat="17.638259133664125">
        <ele>499.088</ele>
        <time>2024-09-25T11:11:42Z</time>
      </trkpt>
      <trkpt lon="78.519410018410838" lat="17.638260881000935">
        <ele>499.1</ele>
        <time>2024-09-25T11:11:42Z</time>
      </trkpt>
      <trkpt lon="78.519410499097049" lat="17.638262627938062">
        <ele>499.112</ele>
        <time>2024-09-25T11:11:42Z</time>
      </trkpt>
      <trkpt lon="78.519410977541412" lat="17.638264376486177">
        <ele>499.125</ele>
        <time>2024-09-25T11:11:42Z</time>
      </trkpt>
      <trkpt lon="78.519411454118313" lat="17.638266128105016">
        <ele>499.137</ele>
        <time>2024-09-25T11:11:42Z</time>
      </trkpt>
      <trkpt lon="78.519411929174851" lat="17.638267883788298">
        <ele>499.149</ele>
        <time>2024-09-25T11:11:42Z</time>
      </trkpt>
      <trkpt lon="78.519412403025484" lat="17.638269644143957">
        <ele>499.159</ele>
        <time>2024-09-25T11:11:42Z</time>
      </trkpt>
      <trkpt lon="78.519412875949115" lat="17.638271409467993">
        <ele>499.169</ele>
        <time>2024-09-25T11:11:42Z</time>
      </trkpt>
      <trkpt lon="78.519413348188181" lat="17.638273179810991">
        <ele>499.177</ele>
        <time>2024-09-25T11:11:42Z</time>
      </trkpt>
      <trkpt lon="78.519413819949222" lat="17.638274955036774">
        <ele>499.185</ele>
        <time>2024-09-25T11:11:42Z</time>
      </trkpt>
      <trkpt lon="78.519414291404516" lat="17.638276734873124">
        <ele>499.191</ele>
        <time>2024-09-25T11:11:42Z</time>
      </trkpt>
      <trkpt lon="78.519414762694566" lat="17.63827851895471">
        <ele>499.196</ele>
        <time>2024-09-25T11:11:42Z</time>
      </trkpt>
      <trkpt lon="78.519415233931014" lat="17.638280306858711">
        <ele>499.2</ele>
        <time>2024-09-25T11:11:42Z</time>
      </trkpt>
      <trkpt lon="78.519415705199847" lat="17.638282098133644">
        <ele>499.203</ele>
        <time>2024-09-25T11:11:42Z</time>
      </trkpt>
      <trkpt lon="78.519416176564832" lat="17.638283892322111">
        <ele>499.206</ele>
        <time>2024-09-25T11:11:42Z</time>
      </trkpt>
      <trkpt lon="78.519416648070631" lat="17.638285688978137">
        <ele>499.207</ele>
        <time>2024-09-25T11:11:42Z</time>
      </trkpt>
      <trkpt lon="78.519417229676861" lat="17.638288056248655">
        <ele>499.596</ele>
        <time>2024-09-25T11:11:43Z</time>
      </trkpt>
      <trkpt lon="78.51941777114321" lat="17.638290398111472">
        <ele>499.924</ele>
        <time>2024-09-25T11:11:43Z</time>
      </trkpt>
      <trkpt lon="78.519418277137532" lat="17.638292709782512">
        <ele>500.194</ele>
        <time>2024-09-25T11:11:43Z</time>
      </trkpt>
      <trkpt lon="78.519418752410402" lat="17.638294988703979">
        <ele>500.411</ele>
        <time>2024-09-25T11:11:43Z</time>
      </trkpt>
      <trkpt lon="78.519419201609836" lat="17.638297234085137">
        <ele>500.581</ele>
        <time>2024-09-25T11:11:43Z</time>
      </trkpt>
      <trkpt lon="78.519419629145091" lat="17.638299446494738">
        <ele>500.709</ele>
        <time>2024-09-25T11:11:43Z</time>
      </trkpt>
      <trkpt lon="78.519420039092267" lat="17.638301627506589">
        <ele>500.801</ele>
        <time>2024-09-25T11:11:43Z</time>
      </trkpt>
      <trkpt lon="78.519420435134847" lat="17.638303779397454">
        <ele>500.863</ele>
        <time>2024-09-25T11:11:43Z</time>
      </trkpt>
      <trkpt lon="78.519420820532389" lat="17.638305904894942">
        <ele>500.9</ele>
        <time>2024-09-25T11:11:43Z</time>
      </trkpt>
      <trkpt lon="78.519421198111658" lat="17.638308006971783">
        <ele>500.917</ele>
        <time>2024-09-25T11:11:43Z</time>
      </trkpt>
      <trkpt lon="78.519421570275071" lat="17.638310088682243">
        <ele>500.918</ele>
        <time>2024-09-25T11:11:43Z</time>
      </trkpt>
      <trkpt lon="78.519421939021669" lat="17.638312153035979">
        <ele>500.908</ele>
        <time>2024-09-25T11:11:43Z</time>
      </trkpt>
      <trkpt lon="78.519422305977045" lat="17.638314202904507">
        <ele>500.888</ele>
        <time>2024-09-25T11:11:43Z</time>
      </trkpt>
      <trkpt lon="78.519422672428789" lat="17.638316240955465">
        <ele>500.863</ele>
        <time>2024-09-25T11:11:43Z</time>
      </trkpt>
      <trkpt lon="78.519423039364995" lat="17.638318269610181">
        <ele>500.835</ele>
        <time>2024-09-25T11:11:43Z</time>
      </trkpt>
      <trkpt lon="78.519423407513685" lat="17.638320291020207">
        <ele>500.804</ele>
        <time>2024-09-25T11:11:43Z</time>
      </trkpt>
      <trkpt lon="78.519423777381562" lat="17.63832230705902">
        <ele>500.774</ele>
        <time>2024-09-25T11:11:43Z</time>
      </trkpt>
      <trkpt lon="78.519424149290842" lat="17.638324319325417">
        <ele>500.745</ele>
        <time>2024-09-25T11:11:43Z</time>
      </trkpt>
      <trkpt lon="78.519424523413548" lat="17.638326329155603">
        <ele>500.717</ele>
        <time>2024-09-25T11:11:43Z</time>
      </trkpt>
      <trkpt lon="78.519424899802488" lat="17.638328337641436">
        <ele>500.691</ele>
        <time>2024-09-25T11:11:43Z</time>
      </trkpt>
      <trkpt lon="78.519425278418751" lat="17.638330345652673">
        <ele>500.668</ele>
        <time>2024-09-25T11:11:43Z</time>
      </trkpt>
      <trkpt lon="78.51942565915563" lat="17.638332353861419">
        <ele>500.648</ele>
        <time>2024-09-25T11:11:43Z</time>
      </trkpt>
      <trkpt lon="78.519426041859091" lat="17.63833436276747">
        <ele>500.631</ele>
        <time>2024-09-25T11:11:43Z</time>
      </trkpt>
      <trkpt lon="78.519426426344694" lat="17.638336372723359">
        <ele>500.616</ele>
        <time>2024-09-25T11:11:43Z</time>
      </trkpt>
      <trkpt lon="78.519426812411524" lat="17.638338383958367">
        <ele>500.604</ele>
        <time>2024-09-25T11:11:43Z</time>
      </trkpt>
      <trkpt lon="78.519427199853197" lat="17.63834039660091">
        <ele>500.594</ele>
        <time>2024-09-25T11:11:43Z</time>
      </trkpt>
      <trkpt lon="78.519427588466414" lat="17.638342410698911">
        <ele>500.586</ele>
        <time>2024-09-25T11:11:43Z</time>
      </trkpt>
      <trkpt lon="78.519427978057223" lat="17.638344426237946">
        <ele>500.58</ele>
        <time>2024-09-25T11:11:43Z</time>
      </trkpt>
      <trkpt lon="78.519428368445475" lat="17.638346443157094">
        <ele>500.576</ele>
        <time>2024-09-25T11:11:43Z</time>
      </trkpt>
      <trkpt lon="78.519428884380517" lat="17.638348969160383">
        <ele>500.427</ele>
        <time>2024-09-25T11:11:44Z</time>
      </trkpt>
      <trkpt lon="78.519429396139429" lat="17.638351355694816">
        <ele>500.302</ele>
        <time>2024-09-25T11:11:44Z</time>
      </trkpt>
      <trkpt lon="78.519429902420256" lat="17.638353616991939">
        <ele>500.2</ele>
        <time>2024-09-25T11:11:44Z</time>
      </trkpt>
      <trkpt lon="78.519430402431823" lat="17.638355768129092">
        <ele>500.118</ele>
        <time>2024-09-25T11:11:44Z</time>
      </trkpt>
      <trkpt lon="78.519430895795452" lat="17.638357824297543">
        <ele>500.055</ele>
        <time>2024-09-25T11:11:44Z</time>
      </trkpt>
      <trkpt lon="78.51943138245656" lat="17.638359800246889">
        <ele>500.007</ele>
        <time>2024-09-25T11:11:44Z</time>
      </trkpt>
      <trkpt lon="78.51943186260678" lat="17.638361709881529">
        <ele>499.973</ele>
        <time>2024-09-25T11:11:44Z</time>
      </trkpt>
      <trkpt lon="78.519432336616674" lat="17.638363565985863">
        <ele>499.951</ele>
        <time>2024-09-25T11:11:44Z</time>
      </trkpt>
      <trkpt lon="78.519432804978834" lat="17.63836538005603">
        <ele>499.938</ele>
        <time>2024-09-25T11:11:44Z</time>
      </trkpt>
      <trkpt lon="78.519433268260741" lat="17.638367162217797">
        <ele>499.933</ele>
        <time>2024-09-25T11:11:44Z</time>
      </trkpt>
      <trkpt lon="78.519433727066584" lat="17.638368921212276">
        <ele>499.934</ele>
        <time>2024-09-25T11:11:44Z</time>
      </trkpt>
      <trkpt lon="78.519434182007245" lat="17.638370664433229">
        <ele>499.939</ele>
        <time>2024-09-25T11:11:44Z</time>
      </trkpt>
      <trkpt lon="78.519434633677463" lat="17.638372398001987">
        <ele>499.947</ele>
        <time>2024-09-25T11:11:44Z</time>
      </trkpt>
      <trkpt lon="78.519435082639163" lat="17.638374126868122">
        <ele>499.957</ele>
        <time>2024-09-25T11:11:44Z</time>
      </trkpt>
      <trkpt lon="78.519435529409961" lat="17.638375854926014">
        <ele>499.969</ele>
        <time>2024-09-25T11:11:44Z</time>
      </trkpt>
      <trkpt lon="78.519435974456158" lat="17.638377585139366">
        <ele>499.981</ele>
        <time>2024-09-25T11:11:44Z</time>
      </trkpt>
      <trkpt lon="78.51943641818913" lat="17.638379319667422">
        <ele>499.993</ele>
        <time>2024-09-25T11:11:44Z</time>
      </trkpt>
      <trkpt lon="78.519436860964618" lat="17.638381059987999">
        <ele>500.004</ele>
        <time>2024-09-25T11:11:44Z</time>
      </trkpt>
      <trkpt lon="78.519437303084004" lat="17.638382807013937">
        <ele>500.015</ele>
        <time>2024-09-25T11:11:44Z</time>
      </trkpt>
      <trkpt lon="78.519437744797287" lat="17.638384561200464">
        <ele>500.025</ele>
        <time>2024-09-25T11:11:44Z</time>
      </trkpt>
      <trkpt lon="78.519438186306999" lat="17.638386322642074">
        <ele>500.034</ele>
        <time>2024-09-25T11:11:44Z</time>
      </trkpt>
      <trkpt lon="78.5194386277729" lat="17.638388091158028">
        <ele>500.042</ele>
        <time>2024-09-25T11:11:44Z</time>
      </trkpt>
      <trkpt lon="78.519439069316931" lat="17.638389866366399">
        <ele>500.048</ele>
        <time>2024-09-25T11:11:44Z</time>
      </trkpt>
      <trkpt lon="78.51943951102831" lat="17.638391647746865">
        <ele>500.054</ele>
        <time>2024-09-25T11:11:44Z</time>
      </trkpt>
      <trkpt lon="78.519439952968455" lat="17.638393434692844">
        <ele>500.059</ele>
        <time>2024-09-25T11:11:44Z</time>
      </trkpt>
      <trkpt lon="78.519440395175764" lat="17.638395226553804">
        <ele>500.062</ele>
        <time>2024-09-25T11:11:44Z</time>
      </trkpt>
      <trkpt lon="78.519440837669862" lat="17.638397022668666">
        <ele>500.065</ele>
        <time>2024-09-25T11:11:44Z</time>
      </trkpt>
      <trkpt lon="78.519441280455595" lat="17.638398822391373">
        <ele>500.067</ele>
        <time>2024-09-25T11:11:44Z</time>
      </trkpt>
      <trkpt lon="78.519441723526498" lat="17.638400625109615">
        <ele>500.069</ele>
        <time>2024-09-25T11:11:44Z</time>
      </trkpt>
      <trkpt lon="78.519442272959424" lat="17.638402519681904">
        <ele>500.257</ele>
        <time>2024-09-25T11:11:45Z</time>
      </trkpt>
      <trkpt lon="78.519442787134423" lat="17.638403983734587">
        <ele>500.415</ele>
        <time>2024-09-25T11:11:45Z</time>
      </trkpt>
      <trkpt lon="78.519443269990646" lat="17.638405083465177">
        <ele>500.545</ele>
        <time>2024-09-25T11:11:45Z</time>
      </trkpt>
      <trkpt lon="78.519443725585148" lat="17.638405881426934">
        <ele>500.649</ele>
        <time>2024-09-25T11:11:45Z</time>
      </trkpt>
      <trkpt lon="78.51944415792299" lat="17.638406435253618">
        <ele>500.731</ele>
        <time>2024-09-25T11:11:45Z</time>
      </trkpt>
      <trkpt lon="78.519444570830927" lat="17.638406796869031">
        <ele>500.792</ele>
        <time>2024-09-25T11:11:45Z</time>
      </trkpt>
      <trkpt lon="78.519444967868395" lat="17.638407012089452">
        <ele>500.837</ele>
        <time>2024-09-25T11:11:45Z</time>
      </trkpt>
      <trkpt lon="78.519445352269727" lat="17.638407120536058">
        <ele>500.866</ele>
        <time>2024-09-25T11:11:45Z</time>
      </trkpt>
      <trkpt lon="78.519445726911869" lat="17.638407155784062">
        <ele>500.884</ele>
        <time>2024-09-25T11:11:45Z</time>
      </trkpt>
      <trkpt lon="78.51944609430241" lat="17.63840714568509">
        <ele>500.892</ele>
        <time>2024-09-25T11:11:45Z</time>
      </trkpt>
      <trkpt lon="78.519446456583452" lat="17.638407112808999">
        <ele>500.892</ele>
        <time>2024-09-25T11:11:45Z</time>
      </trkpt>
      <trkpt lon="78.519446815547226" lat="17.63840707496032">
        <ele>500.887</ele>
        <time>2024-09-25T11:11:45Z</time>
      </trkpt>
      <trkpt lon="78.519447172659909" lat="17.638407045733079">
        <ele>500.877</ele>
        <time>2024-09-25T11:11:45Z</time>
      </trkpt>
      <trkpt lon="78.519447529091025" lat="17.63840703507525">
        <ele>500.865</ele>
        <time>2024-09-25T11:11:45Z</time>
      </trkpt>
      <trkpt lon="78.519447885745862" lat="17.638407049840875">
        <ele>500.851</ele>
        <time>2024-09-25T11:11:45Z</time>
      </trkpt>
      <trkpt lon="78.519448243299067" lat="17.638407094313703">
        <ele>500.836</ele>
        <time>2024-09-25T11:11:45Z</time>
      </trkpt>
      <trkpt lon="78.519448602227996" lat="17.638407170691192">
        <ele>500.822</ele>
        <time>2024-09-25T11:11:45Z</time>
      </trkpt>
      <trkpt lon="78.519448962844706" lat="17.6384072795218">
        <ele>500.807</ele>
        <time>2024-09-25T11:11:45Z</time>
      </trkpt>
      <trkpt lon="78.519449325325837" lat="17.638407420091902">
        <ele>500.794</ele>
        <time>2024-09-25T11:11:45Z</time>
      </trkpt>
      <trkpt lon="78.519449689739744" lat="17.638407590761268">
        <ele>500.782</ele>
        <time>2024-09-25T11:11:45Z</time>
      </trkpt>
      <trkpt lon="78.519450056070895" lat="17.638407789248156">
        <ele>500.77</ele>
        <time>2024-09-25T11:11:45Z</time>
      </trkpt>
      <trkpt lon="78.519450424240944" lat="17.638408012866474">
        <ele>500.761</ele>
        <time>2024-09-25T11:11:45Z</time>
      </trkpt>
      <trkpt lon="78.519450794126996" lat="17.638408258718616">
        <ele>500.752</ele>
        <time>2024-09-25T11:11:45Z</time>
      </trkpt>
      <trkpt lon="78.519451165576811" lat="17.63840852384816">
        <ele>500.745</ele>
        <time>2024-09-25T11:11:45Z</time>
      </trkpt>
      <trkpt lon="78.519451538421322" lat="17.638408805357024">
        <ele>500.739</ele>
        <time>2024-09-25T11:11:45Z</time>
      </trkpt>
      <trkpt lon="78.519451912484641" lat="17.638409100491756">
        <ele>500.734</ele>
        <time>2024-09-25T11:11:45Z</time>
      </trkpt>
      <trkpt lon="78.519452287591875" lat="17.638409406703541">
        <ele>500.731</ele>
        <time>2024-09-25T11:11:45Z</time>
      </trkpt>
      <trkpt lon="78.519452663574896" lat="17.638409721686354">
        <ele>500.728</ele>
        <time>2024-09-25T11:11:45Z</time>
      </trkpt>
      <trkpt lon="78.519453040276574" lat="17.638410043397261">
        <ele>500.726</ele>
        <time>2024-09-25T11:11:45Z</time>
      </trkpt>
      <trkpt lon="78.519453515498654" lat="17.638410903985442">
        <ele>500.152</ele>
        <time>2024-09-25T11:11:46Z</time>
      </trkpt>
      <trkpt lon="78.519453967616158" lat="17.638412128539898">
        <ele>499.668</ele>
        <time>2024-09-25T11:11:46Z</time>
      </trkpt>
      <trkpt lon="78.519454398724335" lat="17.638413650938517">
        <ele>499.27</ele>
        <time>2024-09-25T11:11:46Z</time>
      </trkpt>
      <trkpt lon="78.519454811132221" lat="17.638415410993584">
        <ele>498.95</ele>
        <time>2024-09-25T11:11:46Z</time>
      </trkpt>
      <trkpt lon="78.519455207229868" lat="17.638417355081089">
        <ele>498.699</ele>
        <time>2024-09-25T11:11:46Z</time>
      </trkpt>
      <trkpt lon="78.519455589385373" lat="17.638419436387142">
        <ele>498.51</ele>
        <time>2024-09-25T11:11:46Z</time>
      </trkpt>
      <trkpt lon="78.519455959868054" lat="17.638421614857247">
        <ele>498.374</ele>
        <time>2024-09-25T11:11:46Z</time>
      </trkpt>
      <trkpt lon="78.519456320793921" lat="17.638423856923289">
        <ele>498.282</ele>
        <time>2024-09-25T11:11:46Z</time>
      </trkpt>
      <trkpt lon="78.519456674089952" lat="17.638426135072468">
        <ele>498.227</ele>
        <time>2024-09-25T11:11:46Z</time>
      </trkpt>
      <trkpt lon="78.519457021473741" lat="17.638428427312082">
        <ele>498.202</ele>
        <time>2024-09-25T11:11:46Z</time>
      </trkpt>
      <trkpt lon="78.519457364445316" lat="17.638430716574341">
        <ele>498.2</ele>
        <time>2024-09-25T11:11:46Z</time>
      </trkpt>
      <trkpt lon="78.519457704288698" lat="17.638432990096675">
        <ele>498.216</ele>
        <time>2024-09-25T11:11:46Z</time>
      </trkpt>
      <trkpt lon="78.51945804208043" lat="17.638435238805101">
        <ele>498.244</ele>
        <time>2024-09-25T11:11:46Z</time>
      </trkpt>
      <trkpt lon="78.519458378703263" lat="17.638437456721263">
        <ele>498.281</ele>
        <time>2024-09-25T11:11:46Z</time>
      </trkpt>
      <trkpt lon="78.519458714863219" lat="17.638439640407974">
        <ele>498.323</ele>
        <time>2024-09-25T11:11:46Z</time>
      </trkpt>
      <trkpt lon="78.519459051108626" lat="17.638441788462984">
        <ele>498.367</ele>
        <time>2024-09-25T11:11:46Z</time>
      </trkpt>
      <trkpt lon="78.519459387849807" lat="17.638443901066704">
        <ele>498.412</ele>
        <time>2024-09-25T11:11:46Z</time>
      </trkpt>
      <trkpt lon="78.519459725378866" lat="17.638445979586326">
        <ele>498.456</ele>
        <time>2024-09-25T11:11:46Z</time>
      </trkpt>
      <trkpt lon="78.519460063888658" lat="17.638448026236162">
        <ele>498.497</ele>
        <time>2024-09-25T11:11:46Z</time>
      </trkpt>
      <trkpt lon="78.519460403490456" lat="17.638450043792208">
        <ele>498.534</ele>
        <time>2024-09-25T11:11:46Z</time>
      </trkpt>
      <trkpt lon="78.519460744230244" lat="17.638452035357446">
        <ele>498.568</ele>
        <time>2024-09-25T11:11:46Z</time>
      </trkpt>
      <trkpt lon="78.519461086103178" lat="17.638454004173592">
        <ele>498.598</ele>
        <time>2024-09-25T11:11:46Z</time>
      </trkpt>
      <trkpt lon="78.519461429066212" lat="17.638455953474356">
        <ele>498.624</ele>
        <time>2024-09-25T11:11:46Z</time>
      </trkpt>
      <trkpt lon="78.519461773049073" lat="17.638457886375104">
        <ele>498.645</ele>
        <time>2024-09-25T11:11:46Z</time>
      </trkpt>
      <trkpt lon="78.519462117963357" lat="17.638459805793804">
        <ele>498.663</ele>
        <time>2024-09-25T11:11:46Z</time>
      </trkpt>
      <trkpt lon="78.519462463710084" lat="17.638461714398286">
        <ele>498.678</ele>
        <time>2024-09-25T11:11:46Z</time>
      </trkpt>
      <trkpt lon="78.519462810185729" lat="17.638463614575169">
        <ele>498.689</ele>
        <time>2024-09-25T11:11:46Z</time>
      </trkpt>
      <trkpt lon="78.519463157286935" lat="17.638465508416214">
        <ele>498.698</ele>
        <time>2024-09-25T11:11:46Z</time>
      </trkpt>
      <trkpt lon="78.519463504914057" lat="17.638467397718244">
        <ele>498.704</ele>
        <time>2024-09-25T11:11:46Z</time>
      </trkpt>
      <trkpt lon="78.519463946517902" lat="17.638469891890086">
        <ele>498.621</ele>
        <time>2024-09-25T11:11:47Z</time>
      </trkpt>
      <trkpt lon="78.51946436935485" lat="17.638472362641128">
        <ele>498.55</ele>
        <time>2024-09-25T11:11:47Z</time>
      </trkpt>
      <trkpt lon="78.519464774925083" lat="17.638474805084041">
        <ele>498.491</ele>
        <time>2024-09-25T11:11:47Z</time>
      </trkpt>
      <trkpt lon="78.519465164959115" lat="17.638477216517796">
        <ele>498.442</ele>
        <time>2024-09-25T11:11:47Z</time>
      </trkpt>
      <trkpt lon="78.51946554130096" lat="17.638479595983238">
        <ele>498.403</ele>
        <time>2024-09-25T11:11:47Z</time>
      </trkpt>
      <trkpt lon="78.519465905816205" lat="17.638481943867564">
        <ele>498.373</ele>
        <time>2024-09-25T11:11:47Z</time>
      </trkpt>
      <trkpt lon="78.519466260321877" lat="17.638484261559423">
        <ele>498.351</ele>
        <time>2024-09-25T11:11:47Z</time>
      </trkpt>
      <trkpt lon="78.519466606535332" lat="17.638486551154166">
        <ele>498.335</ele>
        <time>2024-09-25T11:11:47Z</time>
      </trkpt>
      <trkpt lon="78.519466946039074" lat="17.638488815207083">
        <ele>498.325</ele>
        <time>2024-09-25T11:11:47Z</time>
      </trkpt>
      <trkpt lon="78.51946728025905" lat="17.638491056531436">
        <ele>498.319</ele>
        <time>2024-09-25T11:11:47Z</time>
      </trkpt>
      <trkpt lon="78.519467610453688" lat="17.638493278037245">
        <ele>498.316</ele>
        <time>2024-09-25T11:11:47Z</time>
      </trkpt>
      <trkpt lon="78.519467937711397" lat="17.638495482606405">
        <ele>498.317</ele>
        <time>2024-09-25T11:11:47Z</time>
      </trkpt>
      <trkpt lon="78.519468262954604" lat="17.638497672999527">
        <ele>498.319</ele>
        <time>2024-09-25T11:11:47Z</time>
      </trkpt>
      <trkpt lon="78.519468586948662" lat="17.638499851789923">
        <ele>498.323</ele>
        <time>2024-09-25T11:11:47Z</time>
      </trkpt>
      <trkpt lon="78.519468910313847" lat="17.638502021320349">
        <ele>498.328</ele>
        <time>2024-09-25T11:11:47Z</time>
      </trkpt>
      <trkpt lon="78.519469233539567" lat="17.638504183678396">
        <ele>498.334</ele>
        <time>2024-09-25T11:11:47Z</time>
      </trkpt>
      <trkpt lon="78.519469556999638" lat="17.638506340686817">
        <ele>498.34</ele>
        <time>2024-09-25T11:11:47Z</time>
      </trkpt>
      <trkpt lon="78.519469880967662" lat="17.63850849390542">
        <ele>498.346</ele>
        <time>2024-09-25T11:11:47Z</time>
      </trkpt>
      <trkpt lon="78.51947020563226" lat="17.638510644641624">
        <ele>498.351</ele>
        <time>2024-09-25T11:11:47Z</time>
      </trkpt>
      <trkpt lon="78.519470531111438" lat="17.638512793967198">
        <ele>498.356</ele>
        <time>2024-09-25T11:11:47Z</time>
      </trkpt>
      <trkpt lon="78.519470857465834" lat="17.63851494273904">
        <ele>498.361</ele>
        <time>2024-09-25T11:11:47Z</time>
      </trkpt>
      <trkpt lon="78.519471184710795" lat="17.638517091622333">
        <ele>498.365</ele>
        <time>2024-09-25T11:11:47Z</time>
      </trkpt>
      <trkpt lon="78.519471512826939" lat="17.638519241114629">
        <ele>498.369</ele>
        <time>2024-09-25T11:11:47Z</time>
      </trkpt>
      <trkpt lon="78.519471841769402" lat="17.638521391569839">
        <ele>498.372</ele>
        <time>2024-09-25T11:11:47Z</time>
      </trkpt>
      <trkpt lon="78.51947217147567" lat="17.638523543221304">
        <ele>498.375</ele>
        <time>2024-09-25T11:11:47Z</time>
      </trkpt>
      <trkpt lon="78.519472501872102" lat="17.638525696203381">
        <ele>498.377</ele>
        <time>2024-09-25T11:11:47Z</time>
      </trkpt>
      <trkpt lon="78.519472832879202" lat="17.63852785057113">
        <ele>498.379</ele>
        <time>2024-09-25T11:11:47Z</time>
      </trkpt>
      <trkpt lon="78.519473164415842" lat="17.638530006317943">
        <ele>498.38</ele>
        <time>2024-09-25T11:11:47Z</time>
      </trkpt>
      <trkpt lon="78.519473496402483" lat="17.638532163390938">
        <ele>498.381</ele>
        <time>2024-09-25T11:11:47Z</time>
      </trkpt>
      <trkpt lon="78.519473878485215" lat="17.638534876882812">
        <ele>498.304</ele>
        <time>2024-09-25T11:11:48Z</time>
      </trkpt>
      <trkpt lon="78.519474209229429" lat="17.638537451468007">
        <ele>498.239</ele>
        <time>2024-09-25T11:11:48Z</time>
      </trkpt>
      <trkpt lon="78.519474495934475" lat="17.638539900566482">
        <ele>498.185</ele>
        <time>2024-09-25T11:11:48Z</time>
      </trkpt>
      <trkpt lon="78.519474745632166" lat="17.638542238652441">
        <ele>498.141</ele>
        <time>2024-09-25T11:11:48Z</time>
      </trkpt>
      <trkpt lon="78.519474964908412" lat="17.638544480492126">
        <ele>498.107</ele>
        <time>2024-09-25T11:11:48Z</time>
      </trkpt>
      <trkpt lon="78.519475159784292" lat="17.638546640559095">
        <ele>498.081</ele>
        <time>2024-09-25T11:11:48Z</time>
      </trkpt>
      <trkpt lon="78.519475335645993" lat="17.638548732603624">
        <ele>498.062</ele>
        <time>2024-09-25T11:11:48Z</time>
      </trkpt>
      <trkpt lon="78.519475497214017" lat="17.638550769353245">
        <ele>498.049</ele>
        <time>2024-09-25T11:11:48Z</time>
      </trkpt>
      <trkpt lon="78.519475648543207" lat="17.638552762322501">
        <ele>498.042</ele>
        <time>2024-09-25T11:11:48Z</time>
      </trkpt>
      <trkpt lon="78.5194757930457" lat="17.638554721711689">
        <ele>498.038</ele>
        <time>2024-09-25T11:11:48Z</time>
      </trkpt>
      <trkpt lon="78.519475933530757" lat="17.638556656376153">
        <ele>498.037</ele>
        <time>2024-09-25T11:11:48Z</time>
      </trkpt>
      <trkpt lon="78.519476072255515" lat="17.638558573849856">
        <ele>498.039</ele>
        <time>2024-09-25T11:11:48Z</time>
      </trkpt>
      <trkpt lon="78.519476210982617" lat="17.638560480409026">
        <ele>498.043</ele>
        <time>2024-09-25T11:11:48Z</time>
      </trkpt>
      <trkpt lon="78.519476351040652" lat="17.638562381163847">
        <ele>498.047</ele>
        <time>2024-09-25T11:11:48Z</time>
      </trkpt>
      <trkpt lon="78.519476493384914" lat="17.638564280168023">
        <ele>498.053</ele>
        <time>2024-09-25T11:11:48Z</time>
      </trkpt>
      <trkpt lon="78.519476638656144" lat="17.638566180538099">
        <ele>498.059</ele>
        <time>2024-09-25T11:11:48Z</time>
      </trkpt>
      <trkpt lon="78.519476787235661" lat="17.638568084575947">
        <ele>498.065</ele>
        <time>2024-09-25T11:11:48Z</time>
      </trkpt>
      <trkpt lon="78.519476939296055" lat="17.638569993889369">
        <ele>498.07</ele>
        <time>2024-09-25T11:11:48Z</time>
      </trkpt>
      <trkpt lon="78.519477094846508" lat="17.638571909507135">
        <ele>498.076</ele>
        <time>2024-09-25T11:11:48Z</time>
      </trkpt>
      <trkpt lon="78.519477253772735" lat="17.638573831985806">
        <ele>498.081</ele>
        <time>2024-09-25T11:11:48Z</time>
      </trkpt>
      <trkpt lon="78.519477415871364" lat="17.638575761506655">
        <ele>498.085</ele>
        <time>2024-09-25T11:11:48Z</time>
      </trkpt>
      <trkpt lon="78.519477580878899" lat="17.638577697961757">
        <ele>498.089</ele>
        <time>2024-09-25T11:11:48Z</time>
      </trkpt>
      <trkpt lon="78.519477748495717" lat="17.63857964102894">
        <ele>498.093</ele>
        <time>2024-09-25T11:11:48Z</time>
      </trkpt>
      <trkpt lon="78.5194779184053" lat="17.638581590235717">
        <ele>498.096</ele>
        <time>2024-09-25T11:11:48Z</time>
      </trkpt>
      <trkpt lon="78.519478090289454" lat="17.63858354501269">
        <ele>498.098</ele>
        <time>2024-09-25T11:11:48Z</time>
      </trkpt>
      <trkpt lon="78.519478263839758" lat="17.638585504737197">
        <ele>498.1</ele>
        <time>2024-09-25T11:11:48Z</time>
      </trkpt>
      <trkpt lon="78.519478438765816" lat="17.638587468768037">
        <ele>498.102</ele>
        <time>2024-09-25T11:11:48Z</time>
      </trkpt>
      <trkpt lon="78.519478614800988" lat="17.638589436472316">
        <ele>498.103</ele>
        <time>2024-09-25T11:11:48Z</time>
      </trkpt>
      <trkpt lon="78.519478791705708" lat="17.638591407245364">
        <ele>498.104</ele>
        <time>2024-09-25T11:11:48Z</time>
      </trkpt>
      <trkpt lon="78.519479011406247" lat="17.63859398879606">
        <ele>498.003</ele>
        <time>2024-09-25T11:11:49Z</time>
      </trkpt>
      <trkpt lon="78.519479217371654" lat="17.638596529763145">
        <ele>497.918</ele>
        <time>2024-09-25T11:11:49Z</time>
      </trkpt>
      <trkpt lon="78.519479411039697" lat="17.63859902709228">
        <ele>497.848</ele>
        <time>2024-09-25T11:11:49Z</time>
      </trkpt>
      <trkpt lon="78.519479593921247" lat="17.638601479996556">
        <ele>497.791</ele>
        <time>2024-09-25T11:11:49Z</time>
      </trkpt>
      <trkpt lon="78.519479767529816" lat="17.638603889425628">
        <ele>497.746</ele>
        <time>2024-09-25T11:11:49Z</time>
      </trkpt>
      <trkpt lon="78.51947993332837" lat="17.638606257605208">
        <ele>497.713</ele>
        <time>2024-09-25T11:11:49Z</time>
      </trkpt>
      <trkpt lon="78.519480092690941" lat="17.638608587645624">
        <ele>497.688</ele>
        <time>2024-09-25T11:11:49Z</time>
      </trkpt>
      <trkpt lon="78.519480246876824" lat="17.638610883216032">
        <ele>497.672</ele>
        <time>2024-09-25T11:11:49Z</time>
      </trkpt>
      <trkpt lon="78.519480397015059" lat="17.638613148279404">
        <ele>497.662</ele>
        <time>2024-09-25T11:11:49Z</time>
      </trkpt>
      <trkpt lon="78.519480544097306" lat="17.63861538688257">
        <ele>497.657</ele>
        <time>2024-09-25T11:11:49Z</time>
      </trkpt>
      <trkpt lon="78.519480688977239" lat="17.638617602995033">
        <ele>497.656</ele>
        <time>2024-09-25T11:11:49Z</time>
      </trkpt>
      <trkpt lon="78.519480832374853" lat="17.638619800390142">
        <ele>497.658</ele>
        <time>2024-09-25T11:11:49Z</time>
      </trkpt>
      <trkpt lon="78.51948097488436" lat="17.638621982562345">
        <ele>497.663</ele>
        <time>2024-09-25T11:11:49Z</time>
      </trkpt>
      <trkpt lon="78.519481116984551" lat="17.638624152674488">
        <ele>497.669</ele>
        <time>2024-09-25T11:11:49Z</time>
      </trkpt>
      <trkpt lon="78.519481259050522" lat="17.638626313529603">
        <ele>497.677</ele>
        <time>2024-09-25T11:11:49Z</time>
      </trkpt>
      <trkpt lon="78.519481401366264" lat="17.638628467562153">
        <ele>497.684</ele>
        <time>2024-09-25T11:11:49Z</time>
      </trkpt>
      <trkpt lon="78.519481544137136" lat="17.638630616844214">
        <ele>497.692</ele>
        <time>2024-09-25T11:11:49Z</time>
      </trkpt>
      <trkpt lon="78.519481687502164" lat="17.638632763102724">
        <ele>497.7</ele>
        <time>2024-09-25T11:11:49Z</time>
      </trkpt>
      <trkpt lon="78.519481831545491" lat="17.638634907744482">
        <ele>497.707</ele>
        <time>2024-09-25T11:11:49Z</time>
      </trkpt>
      <trkpt lon="78.519481976307006" lat="17.638637051886111">
        <ele>497.713</ele>
        <time>2024-09-25T11:11:49Z</time>
      </trkpt>
      <trkpt lon="78.51948212179181" lat="17.638639196386702">
        <ele>497.719</ele>
        <time>2024-09-25T11:11:49Z</time>
      </trkpt>
      <trkpt lon="78.519482267978674" lat="17.638641341881382">
        <ele>497.724</ele>
        <time>2024-09-25T11:11:49Z</time>
      </trkpt>
      <trkpt lon="78.519482414827195" lat="17.638643488814395">
        <ele>497.729</ele>
        <time>2024-09-25T11:11:49Z</time>
      </trkpt>
      <trkpt lon="78.519482562283912" lat="17.638645637470677">
        <ele>497.733</ele>
        <time>2024-09-25T11:11:49Z</time>
      </trkpt>
      <trkpt lon="78.51948271028742" lat="17.638647788005162">
        <ele>497.736</ele>
        <time>2024-09-25T11:11:49Z</time>
      </trkpt>
      <trkpt lon="78.519482858772463" lat="17.638649940469417">
        <ele>497.738</ele>
        <time>2024-09-25T11:11:49Z</time>
      </trkpt>
      <trkpt lon="78.519483007673088" lat="17.63865209483529">
        <ele>497.741</ele>
        <time>2024-09-25T11:11:49Z</time>
      </trkpt>
      <trkpt lon="78.519483156925176" lat="17.638654251015524">
        <ele>497.742</ele>
        <time>2024-09-25T11:11:49Z</time>
      </trkpt>
      <trkpt lon="78.519483306468175" lat="17.638656408881332">
        <ele>497.743</ele>
        <time>2024-09-25T11:11:49Z</time>
      </trkpt>
      <trkpt lon="78.519483512429019" lat="17.638659161285375">
        <ele>497.577</ele>
        <time>2024-09-25T11:11:50Z</time>
      </trkpt>
      <trkpt lon="78.51948372378385" lat="17.638661806514921">
        <ele>497.437</ele>
        <time>2024-09-25T11:11:50Z</time>
      </trkpt>
      <trkpt lon="78.51948393881041" lat="17.638664352401392">
        <ele>497.321</ele>
        <time>2024-09-25T11:11:50Z</time>
      </trkpt>
      <trkpt lon="78.519484156082896" lat="17.638666808298325">
        <ele>497.227</ele>
        <time>2024-09-25T11:11:50Z</time>
      </trkpt>
      <trkpt lon="78.519484374448567" lat="17.638669184381811">
        <ele>497.154</ele>
        <time>2024-09-25T11:11:50Z</time>
      </trkpt>
      <trkpt lon="78.519484593000456" lat="17.638671491094584">
        <ele>497.099</ele>
        <time>2024-09-25T11:11:50Z</time>
      </trkpt>
      <trkpt lon="78.519484811048443" lat="17.638673738717721">
        <ele>497.058</ele>
        <time>2024-09-25T11:11:50Z</time>
      </trkpt>
      <trkpt lon="78.51948502808979" lat="17.638675937053389">
        <ele>497.031</ele>
        <time>2024-09-25T11:11:50Z</time>
      </trkpt>
      <trkpt lon="78.51948524378048" lat="17.638678095202305">
        <ele>497.015</ele>
        <time>2024-09-25T11:11:50Z</time>
      </trkpt>
      <trkpt lon="78.519485457908104" lat="17.63868022142039">
        <ele>497.007</ele>
        <time>2024-09-25T11:11:50Z</time>
      </trkpt>
      <trkpt lon="78.519485670366834" lat="17.638682323040005">
        <ele>497.006</ele>
        <time>2024-09-25T11:11:50Z</time>
      </trkpt>
      <trkpt lon="78.519485881134841" lat="17.638684406442685">
        <ele>497.01</ele>
        <time>2024-09-25T11:11:50Z</time>
      </trkpt>
      <trkpt lon="78.519486090254389" lat="17.638686477071584">
        <ele>497.018</ele>
        <time>2024-09-25T11:11:50Z</time>
      </trkpt>
      <trkpt lon="78.519486297814595" lat="17.638688539473453">
        <ele>497.028</ele>
        <time>2024-09-25T11:11:50Z</time>
      </trkpt>
      <trkpt lon="78.519486503936776" lat="17.638690597361428">
        <ele>497.04</ele>
        <time>2024-09-25T11:11:50Z</time>
      </trkpt>
      <trkpt lon="78.519486708762329" lat="17.638692653691287">
        <ele>497.052</ele>
        <time>2024-09-25T11:11:50Z</time>
      </trkpt>
      <trkpt lon="78.5194869124429" lat="17.638694710745252">
        <ele>497.065</ele>
        <time>2024-09-25T11:11:50Z</time>
      </trkpt>
      <trkpt lon="78.519487115132534" lat="17.638696770218555">
        <ele>497.078</ele>
        <time>2024-09-25T11:11:50Z</time>
      </trkpt>
      <trkpt lon="78.519487316981781" lat="17.638698833305064">
        <ele>497.09</ele>
        <time>2024-09-25T11:11:50Z</time>
      </trkpt>
      <trkpt lon="78.519487518133303" lat="17.638700900779252">
        <ele>497.1</ele>
        <time>2024-09-25T11:11:50Z</time>
      </trkpt>
      <trkpt lon="78.519487718718864" lat="17.638702973072547">
        <ele>497.11</ele>
        <time>2024-09-25T11:11:50Z</time>
      </trkpt>
      <trkpt lon="78.519487918857479" lat="17.638705050342811">
        <ele>497.119</ele>
        <time>2024-09-25T11:11:50Z</time>
      </trkpt>
      <trkpt lon="78.519488118654351" lat="17.63870713253619">
        <ele>497.126</ele>
        <time>2024-09-25T11:11:50Z</time>
      </trkpt>
      <trkpt lon="78.519488318200686" lat="17.638709219441115">
        <ele>497.133</ele>
        <time>2024-09-25T11:11:50Z</time>
      </trkpt>
      <trkpt lon="78.51948851757389" lat="17.638711310734475">
        <ele>497.138</ele>
        <time>2024-09-25T11:11:50Z</time>
      </trkpt>
      <trkpt lon="78.519488716838367" lat="17.638713406020301">
        <ele>497.142</ele>
        <time>2024-09-25T11:11:50Z</time>
      </trkpt>
      <trkpt lon="78.519488916046427" lat="17.638715504861445">
        <ele>497.145</ele>
        <time>2024-09-25T11:11:50Z</time>
      </trkpt>
      <trkpt lon="78.519489115239466" lat="17.638717606804907">
        <ele>497.148</ele>
        <time>2024-09-25T11:11:50Z</time>
      </trkpt>
      <trkpt lon="78.519489314449203" lat="17.638719711401471">
        <ele>497.15</ele>
        <time>2024-09-25T11:11:50Z</time>
      </trkpt>
      <trkpt lon="78.519489563139757" lat="17.638722263749099">
        <ele>497.106</ele>
        <time>2024-09-25T11:11:51Z</time>
      </trkpt>
      <trkpt lon="78.519489797368337" lat="17.638724600362817">
        <ele>497.068</ele>
        <time>2024-09-25T11:11:51Z</time>
      </trkpt>
      <trkpt lon="78.519490018673039" lat="17.638726748284881">
        <ele>497.037</ele>
        <time>2024-09-25T11:11:51Z</time>
      </trkpt>
      <trkpt lon="78.51949022866215" lat="17.638728734453228">
        <ele>497.012</ele>
        <time>2024-09-25T11:11:51Z</time>
      </trkpt>
      <trkpt lon="78.519490428940969" lat="17.638730584791652">
        <ele>496.991</ele>
        <time>2024-09-25T11:11:51Z</time>
      </trkpt>
      <trkpt lon="78.519490621056832" lat="17.638732323559147">
        <ele>496.976</ele>
        <time>2024-09-25T11:11:51Z</time>
      </trkpt>
      <trkpt lon="78.519490806459658" lat="17.638733972917276">
        <ele>496.965</ele>
        <time>2024-09-25T11:11:51Z</time>
      </trkpt>
      <trkpt lon="78.519490986475532" lat="17.638735552676863">
        <ele>496.957</ele>
        <time>2024-09-25T11:11:51Z</time>
      </trkpt>
      <trkpt lon="78.519491162291189" lat="17.638737080188712">
        <ele>496.952</ele>
        <time>2024-09-25T11:11:51Z</time>
      </trkpt>
      <trkpt lon="78.519491334947034" lat="17.638738570346636">
        <ele>496.949</ele>
        <time>2024-09-25T11:11:51Z</time>
      </trkpt>
      <trkpt lon="78.519491505337115" lat="17.638740035675092">
        <ele>496.949</ele>
        <time>2024-09-25T11:11:51Z</time>
      </trkpt>
      <trkpt lon="78.519491674214066" lat="17.638741486477514">
        <ele>496.949</ele>
        <time>2024-09-25T11:11:51Z</time>
      </trkpt>
      <trkpt lon="78.519491842197752" lat="17.638742931025266">
        <ele>496.951</ele>
        <time>2024-09-25T11:11:51Z</time>
      </trkpt>
      <trkpt lon="78.519492009786489" lat="17.638744375770649">
        <ele>496.954</ele>
        <time>2024-09-25T11:11:51Z</time>
      </trkpt>
      <trkpt lon="78.519492177369628" lat="17.638745825570641">
        <ele>496.956</ele>
        <time>2024-09-25T11:11:51Z</time>
      </trkpt>
      <trkpt lon="78.519492345240835" lat="17.63874728391097">
        <ele>496.96</ele>
        <time>2024-09-25T11:11:51Z</time>
      </trkpt>
      <trkpt lon="78.519492513611524" lat="17.638748753122631">
        <ele>496.963</ele>
        <time>2024-09-25T11:11:51Z</time>
      </trkpt>
      <trkpt lon="78.519492682623678" lat="17.638750234585217">
        <ele>496.966</ele>
        <time>2024-09-25T11:11:51Z</time>
      </trkpt>
      <trkpt lon="78.519492852362049" lat="17.638751728913228">
        <ele>496.969</ele>
        <time>2024-09-25T11:11:51Z</time>
      </trkpt>
      <trkpt lon="78.519493022865333" lat="17.638753236123069">
        <ele>496.972</ele>
        <time>2024-09-25T11:11:51Z</time>
      </trkpt>
      <trkpt lon="78.519493194136103" lat="17.638754755779743">
        <ele>496.975</ele>
        <time>2024-09-25T11:11:51Z</time>
      </trkpt>
      <trkpt lon="78.519493366149661" lat="17.638756287123069">
        <ele>496.977</ele>
        <time>2024-09-25T11:11:51Z</time>
      </trkpt>
      <trkpt lon="78.519493538861596" lat="17.63875782917415">
        <ele>496.979</ele>
        <time>2024-09-25T11:11:51Z</time>
      </trkpt>
      <trkpt lon="78.519493712214157" lat="17.63875938082321">
        <ele>496.98</ele>
        <time>2024-09-25T11:11:51Z</time>
      </trkpt>
      <trkpt lon="78.519493886141575" lat="17.638760940900347">
        <ele>496.982</ele>
        <time>2024-09-25T11:11:51Z</time>
      </trkpt>
      <trkpt lon="78.519494060574317" lat="17.638762508230975">
        <ele>496.983</ele>
        <time>2024-09-25T11:11:51Z</time>
      </trkpt>
      <trkpt lon="78.519494235442409" lat="17.638764081677767">
        <ele>496.984</ele>
        <time>2024-09-25T11:11:51Z</time>
      </trkpt>
      <trkpt lon="78.519494410677979" lat="17.638765660170979">
        <ele>496.985</ele>
        <time>2024-09-25T11:11:51Z</time>
      </trkpt>
      <trkpt lon="78.519494586217121" lat="17.638767242728964">
        <ele>496.985</ele>
        <time>2024-09-25T11:11:51Z</time>
      </trkpt>
      <trkpt lon="78.519494835132221" lat="17.638769386083769">
        <ele>496.686</ele>
        <time>2024-09-25T11:11:52Z</time>
      </trkpt>
      <trkpt lon="78.519495096427349" lat="17.638771556227947">
        <ele>496.434</ele>
        <time>2024-09-25T11:11:52Z</time>
      </trkpt>
      <trkpt lon="78.519495367021335" lat="17.638773740136493">
        <ele>496.226</ele>
        <time>2024-09-25T11:11:52Z</time>
      </trkpt>
      <trkpt lon="78.519495644268616" lat="17.638775927512935">
        <ele>496.058</ele>
        <time>2024-09-25T11:11:52Z</time>
      </trkpt>
      <trkpt lon="78.519495925943829" lat="17.638778110475194">
        <ele>495.927</ele>
        <time>2024-09-25T11:11:52Z</time>
      </trkpt>
      <trkpt lon="78.519496210215721" lat="17.63878028323494">
        <ele>495.828</ele>
        <time>2024-09-25T11:11:52Z</time>
      </trkpt>
      <trkpt lon="78.519496495613666" lat="17.638782441783157">
        <ele>495.756</ele>
        <time>2024-09-25T11:11:52Z</time>
      </trkpt>
      <trkpt lon="78.519496780989954" lat="17.638784583591342">
        <ele>495.708</ele>
        <time>2024-09-25T11:11:52Z</time>
      </trkpt>
      <trkpt lon="78.519497065480223" lat="17.638786707334841">
        <ele>495.678</ele>
        <time>2024-09-25T11:11:52Z</time>
      </trkpt>
      <trkpt lon="78.519497348463631" lat="17.638788812642471">
        <ele>495.665</ele>
        <time>2024-09-25T11:11:52Z</time>
      </trkpt>
      <trkpt lon="78.519497629524565" lat="17.638790899874685">
        <ele>495.663</ele>
        <time>2024-09-25T11:11:52Z</time>
      </trkpt>
      <trkpt lon="78.519497908416426" lat="17.638792969930947">
        <ele>495.671</ele>
        <time>2024-09-25T11:11:52Z</time>
      </trkpt>
      <trkpt lon="78.519498185028695" lat="17.638795024085788">
        <ele>495.685</ele>
        <time>2024-09-25T11:11:52Z</time>
      </trkpt>
      <trkpt lon="78.519498459357223" lat="17.638797063852209">
        <ele>495.704</ele>
        <time>2024-09-25T11:11:52Z</time>
      </trkpt>
      <trkpt lon="78.51949873147818" lat="17.638799090870432">
        <ele>495.726</ele>
        <time>2024-09-25T11:11:52Z</time>
      </trkpt>
      <trkpt lon="78.519499001525674" lat="17.638801106819617">
        <ele>495.749</ele>
        <time>2024-09-25T11:11:52Z</time>
      </trkpt>
      <trkpt lon="78.519499269672806" lat="17.638803113349947">
        <ele>495.772</ele>
        <time>2024-09-25T11:11:52Z</time>
      </trkpt>
      <trkpt lon="78.51949953611603" lat="17.638805112032472">
        <ele>495.795</ele>
        <time>2024-09-25T11:11:52Z</time>
      </trkpt>
      <trkpt lon="78.519499801062636" lat="17.63880710432402">
        <ele>495.816</ele>
        <time>2024-09-25T11:11:52Z</time>
      </trkpt>
      <trkpt lon="78.519500064720873" lat="17.638809091544722">
        <ele>495.835</ele>
        <time>2024-09-25T11:11:52Z</time>
      </trkpt>
      <trkpt lon="78.519500327292434" lat="17.638811074865821">
        <ele>495.853</ele>
        <time>2024-09-25T11:11:52Z</time>
      </trkpt>
      <trkpt lon="78.519500588967091" lat="17.63881305530564">
        <ele>495.869</ele>
        <time>2024-09-25T11:11:52Z</time>
      </trkpt>
      <trkpt lon="78.519500849919098" lat="17.638815033731881">
        <ele>495.882</ele>
        <time>2024-09-25T11:11:52Z</time>
      </trkpt>
      <trkpt lon="78.519501110304844" lat="17.63881701086855">
        <ele>495.893</ele>
        <time>2024-09-25T11:11:52Z</time>
      </trkpt>
      <trkpt lon="78.519501370261935" lat="17.638818987306209">
        <ele>495.903</ele>
        <time>2024-09-25T11:11:52Z</time>
      </trkpt>
      <trkpt lon="78.519501629908959" lat="17.638820963514306">
        <ele>495.91</ele>
        <time>2024-09-25T11:11:52Z</time>
      </trkpt>
      <trkpt lon="78.519501889346088" lat="17.638822939854688">
        <ele>495.916</ele>
        <time>2024-09-25T11:11:52Z</time>
      </trkpt>
      <trkpt lon="78.519502148656116" lat="17.638824916595528">
        <ele>495.921</ele>
        <time>2024-09-25T11:11:52Z</time>
      </trkpt>
      <trkpt lon="78.519502407905861" lat="17.638826893925071">
        <ele>495.924</ele>
        <time>2024-09-25T11:11:52Z</time>
      </trkpt>
      <trkpt lon="78.519502745054481" lat="17.638829313279803">
        <ele>495.933</ele>
        <time>2024-09-25T11:11:53Z</time>
      </trkpt>
      <trkpt lon="78.519503074757125" lat="17.63883154770139">
        <ele>495.94</ele>
        <time>2024-09-25T11:11:53Z</time>
      </trkpt>
      <trkpt lon="78.519503397028146" lat="17.638833619677509">
        <ele>495.946</ele>
        <time>2024-09-25T11:11:53Z</time>
      </trkpt>
      <trkpt lon="78.519503712136469" lat="17.638835551801296">
        <ele>495.95</ele>
        <time>2024-09-25T11:11:53Z</time>
      </trkpt>
      <trkpt lon="78.519504020533532" lat="17.638837365960743">
        <ele>495.952</ele>
        <time>2024-09-25T11:11:53Z</time>
      </trkpt>
      <trkpt lon="78.519504322792727" lat="17.638839082752138">
        <ele>495.954</ele>
        <time>2024-09-25T11:11:53Z</time>
      </trkpt>
      <trkpt lon="78.519504619559484" lat="17.638840721082794">
        <ele>495.955</ele>
        <time>2024-09-25T11:11:53Z</time>
      </trkpt>
      <trkpt lon="78.519504911511021" lat="17.638842297930189">
        <ele>495.955</ele>
        <time>2024-09-25T11:11:53Z</time>
      </trkpt>
      <trkpt lon="78.519505199325096" lat="17.638843828227472">
        <ele>495.955</ele>
        <time>2024-09-25T11:11:53Z</time>
      </trkpt>
      <trkpt lon="78.519505483656317" lat="17.638845324848123">
        <ele>495.954</ele>
        <time>2024-09-25T11:11:53Z</time>
      </trkpt>
      <trkpt lon="78.51950576511905" lat="17.638846798665924">
        <ele>495.953</ele>
        <time>2024-09-25T11:11:53Z</time>
      </trkpt>
      <trkpt lon="78.519506044276085" lat="17.638848258669622">
        <ele>495.952</ele>
        <time>2024-09-25T11:11:53Z</time>
      </trkpt>
      <trkpt lon="78.519506321631724" lat="17.638849712114833">
        <ele>495.951</ele>
        <time>2024-09-25T11:11:53Z</time>
      </trkpt>
      <trkpt lon="78.519506597628649" lat="17.638851164698714">
        <ele>495.95</ele>
        <time>2024-09-25T11:11:53Z</time>
      </trkpt>
      <trkpt lon="78.519506872647767" lat="17.638852620745787">
        <ele>495.948</ele>
        <time>2024-09-25T11:11:53Z</time>
      </trkpt>
      <trkpt lon="78.519507147010174" lat="17.638854083395671">
        <ele>495.947</ele>
        <time>2024-09-25T11:11:53Z</time>
      </trkpt>
      <trkpt lon="78.519507420980716" lat="17.638855554785749">
        <ele>495.946</ele>
        <time>2024-09-25T11:11:53Z</time>
      </trkpt>
      <trkpt lon="78.519507694772656" lat="17.638857036223676">
        <ele>495.945</ele>
        <time>2024-09-25T11:11:53Z</time>
      </trkpt>
      <trkpt lon="78.519507968552944" lat="17.638858528346233">
        <ele>495.944</ele>
        <time>2024-09-25T11:11:53Z</time>
      </trkpt>
      <trkpt lon="78.519508242447856" lat="17.638860031262368">
        <ele>495.944</ele>
        <time>2024-09-25T11:11:53Z</time>
      </trkpt>
      <trkpt lon="78.519508516548569" lat="17.638861544679354">
        <ele>495.943</ele>
        <time>2024-09-25T11:11:53Z</time>
      </trkpt>
      <trkpt lon="78.519508790916703" lat="17.638863068011847">
        <ele>495.943</ele>
        <time>2024-09-25T11:11:53Z</time>
      </trkpt>
      <trkpt lon="78.519509065589375" lat="17.63886460047425">
        <ele>495.942</ele>
        <time>2024-09-25T11:11:53Z</time>
      </trkpt>
      <trkpt lon="78.519509340584051" lat="17.638866141157294">
        <ele>495.942</ele>
        <time>2024-09-25T11:11:53Z</time>
      </trkpt>
      <trkpt lon="78.519509615902649" lat="17.638867689090066">
        <ele>495.942</ele>
        <time>2024-09-25T11:11:53Z</time>
      </trkpt>
      <trkpt lon="78.519509891535392" lat="17.638869243288894">
        <ele>495.941</ele>
        <time>2024-09-25T11:11:53Z</time>
      </trkpt>
      <trkpt lon="78.51951016746402" lat="17.638870802794663">
        <ele>495.941</ele>
        <time>2024-09-25T11:11:53Z</time>
      </trkpt>
      <trkpt lon="78.519510443664473" lat="17.63887236670007">
        <ele>495.941</ele>
        <time>2024-09-25T11:11:53Z</time>
      </trkpt>
      <trkpt lon="78.519510720109167" lat="17.63887393416838">
        <ele>495.941</ele>
        <time>2024-09-25T11:11:53Z</time>
      </trkpt>
      <trkpt lon="78.519511055573375" lat="17.638876031906936">
        <ele>495.874</ele>
        <time>2024-09-25T11:11:54Z</time>
      </trkpt>
      <trkpt lon="78.519511362871881" lat="17.638878134972838">
        <ele>495.817</ele>
        <time>2024-09-25T11:11:54Z</time>
      </trkpt>
      <trkpt lon="78.519511645536411" lat="17.638880234226686">
        <ele>495.77</ele>
        <time>2024-09-25T11:11:54Z</time>
      </trkpt>
      <trkpt lon="78.519511907084734" lat="17.638882322911442">
        <ele>495.732</ele>
        <time>2024-09-25T11:11:54Z</time>
      </trkpt>
      <trkpt lon="78.51951215090196" lat="17.6388843963006">
        <ele>495.702</ele>
        <time>2024-09-25T11:11:54Z</time>
      </trkpt>
      <trkpt lon="78.519512380155618" lat="17.638886451362449">
        <ele>495.68</ele>
        <time>2024-09-25T11:11:54Z</time>
      </trkpt>
      <trkpt lon="78.519512597739208" lat="17.638888486448121">
        <ele>495.664</ele>
        <time>2024-09-25T11:11:54Z</time>
      </trkpt>
      <trkpt lon="78.519512806239192" lat="17.638890501008436">
        <ele>495.653</ele>
        <time>2024-09-25T11:11:54Z</time>
      </trkpt>
      <trkpt lon="78.519513007920764" lat="17.638892495342237">
        <ele>495.647</ele>
        <time>2024-09-25T11:11:54Z</time>
      </trkpt>
      <trkpt lon="78.519513204728256" lat="17.638894470377235">
        <ele>495.644</ele>
        <time>2024-09-25T11:11:54Z</time>
      </trkpt>
      <trkpt lon="78.519513398296596" lat="17.63889642748299">
        <ele>495.643</ele>
        <time>2024-09-25T11:11:54Z</time>
      </trkpt>
      <trkpt lon="78.519513589970714" lat="17.638898368314564">
        <ele>495.645</ele>
        <time>2024-09-25T11:11:54Z</time>
      </trkpt>
      <trkpt lon="78.519513780830223" lat="17.638900294684749">
        <ele>495.648</ele>
        <time>2024-09-25T11:11:54Z</time>
      </trkpt>
      <trkpt lon="78.519513971717245" lat="17.638902208462291">
        <ele>495.653</ele>
        <time>2024-09-25T11:11:54Z</time>
      </trkpt>
      <trkpt lon="78.519514163265626" lat="17.638904111493204">
        <ele>495.658</ele>
        <time>2024-09-25T11:11:54Z</time>
      </trkpt>
      <trkpt lon="78.519514355930212" lat="17.638906005542264">
        <ele>495.663</ele>
        <time>2024-09-25T11:11:54Z</time>
      </trkpt>
      <trkpt lon="78.519514550015103" lat="17.638907892251723">
        <ele>495.668</ele>
        <time>2024-09-25T11:11:54Z</time>
      </trkpt>
      <trkpt lon="78.519514745700207" lat="17.638909773114424">
        <ele>495.673</ele>
        <time>2024-09-25T11:11:54Z</time>
      </trkpt>
      <trkpt lon="78.519514943065545" lat="17.638911649458759">
        <ele>495.678</ele>
        <time>2024-09-25T11:11:54Z</time>
      </trkpt>
      <trkpt lon="78.519515142113121" lat="17.638913522442994">
        <ele>495.683</ele>
        <time>2024-09-25T11:11:54Z</time>
      </trkpt>
      <trkpt lon="78.519515342786008" lat="17.638915393056962">
        <ele>495.687</ele>
        <time>2024-09-25T11:11:54Z</time>
      </trkpt>
      <trkpt lon="78.519515544984841" lat="17.638917262129109">
        <ele>495.69</ele>
        <time>2024-09-25T11:11:54Z</time>
      </trkpt>
      <trkpt lon="78.519515748581739" lat="17.638919130337491">
        <ele>495.693</ele>
        <time>2024-09-25T11:11:54Z</time>
      </trkpt>
      <trkpt lon="78.519515953431736" lat="17.638920998223227">
        <ele>495.696</ele>
        <time>2024-09-25T11:11:54Z</time>
      </trkpt>
      <trkpt lon="78.51951615938205" lat="17.63892286620543">
        <ele>495.698</ele>
        <time>2024-09-25T11:11:54Z</time>
      </trkpt>
      <trkpt lon="78.519516366279291" lat="17.638924734596689">
        <ele>495.699</ele>
        <time>2024-09-25T11:11:54Z</time>
      </trkpt>
      <trkpt lon="78.519516573974926" lat="17.638926603618419">
        <ele>495.701</ele>
        <time>2024-09-25T11:11:54Z</time>
      </trkpt>
      <trkpt lon="78.519516782329291" lat="17.638928473415643">
        <ele>495.702</ele>
        <time>2024-09-25T11:11:54Z</time>
      </trkpt>
      <trkpt lon="78.519516991214203" lat="17.638930344070744">
        <ele>495.703</ele>
        <time>2024-09-25T11:11:54Z</time>
      </trkpt>
      <trkpt lon="78.519517260349204" lat="17.638932726316678">
        <ele>495.489</ele>
        <time>2024-09-25T11:11:55Z</time>
      </trkpt>
      <trkpt lon="78.519517521417526" lat="17.638935012359745">
        <ele>495.309</ele>
        <time>2024-09-25T11:11:55Z</time>
      </trkpt>
      <trkpt lon="78.519517774735704" lat="17.638937209628924">
        <ele>495.16</ele>
        <time>2024-09-25T11:11:55Z</time>
      </trkpt>
      <trkpt lon="78.519518020811489" lat="17.638939326807307">
        <ele>495.04</ele>
        <time>2024-09-25T11:11:55Z</time>
      </trkpt>
      <trkpt lon="78.519518260279156" lat="17.638941373221833">
        <ele>494.946</ele>
        <time>2024-09-25T11:11:55Z</time>
      </trkpt>
      <trkpt lon="78.51951849384632" lat="17.638943358360848">
        <ele>494.875</ele>
        <time>2024-09-25T11:11:55Z</time>
      </trkpt>
      <trkpt lon="78.51951872225132" lat="17.638945291504854">
        <ele>494.824</ele>
        <time>2024-09-25T11:11:55Z</time>
      </trkpt>
      <trkpt lon="78.519518946229994" lat="17.638947181455372">
        <ele>494.789</ele>
        <time>2024-09-25T11:11:55Z</time>
      </trkpt>
      <trkpt lon="78.519519166490767" lat="17.638949036347199">
        <ele>494.768</ele>
        <time>2024-09-25T11:11:55Z</time>
      </trkpt>
      <trkpt lon="78.519519383696746" lat="17.63895086353002">
        <ele>494.758</ele>
        <time>2024-09-25T11:11:55Z</time>
      </trkpt>
      <trkpt lon="78.519519598453925" lat="17.638952669506448">
        <ele>494.757</ele>
        <time>2024-09-25T11:11:55Z</time>
      </trkpt>
      <trkpt lon="78.519519811304136" lat="17.638954459914736">
        <ele>494.763</ele>
        <time>2024-09-25T11:11:55Z</time>
      </trkpt>
      <trkpt lon="78.519520022722034" lat="17.638956239545749">
        <ele>494.773</ele>
        <time>2024-09-25T11:11:55Z</time>
      </trkpt>
      <trkpt lon="78.519520233115188" lat="17.638958012385203">
        <ele>494.786</ele>
        <time>2024-09-25T11:11:55Z</time>
      </trkpt>
      <trkpt lon="78.519520442826405" lat="17.638959781673456">
        <ele>494.802</ele>
        <time>2024-09-25T11:11:55Z</time>
      </trkpt>
      <trkpt lon="78.519520652137786" lat="17.638961549976468">
        <ele>494.818</ele>
        <time>2024-09-25T11:11:55Z</time>
      </trkpt>
      <trkpt lon="78.519520861275865" lat="17.638963319262722">
        <ele>494.834</ele>
        <time>2024-09-25T11:11:55Z</time>
      </trkpt>
      <trkpt lon="78.519521070417412" lat="17.638965090981934">
        <ele>494.85</ele>
        <time>2024-09-25T11:11:55Z</time>
      </trkpt>
      <trkpt lon="78.519521279695596" lat="17.638966866142439">
        <ele>494.866</ele>
        <time>2024-09-25T11:11:55Z</time>
      </trkpt>
      <trkpt lon="78.519521489206028" lat="17.638968645384814">
        <ele>494.88</ele>
        <time>2024-09-25T11:11:55Z</time>
      </trkpt>
      <trkpt lon="78.519521699012714" lat="17.638970429050183">
        <ele>494.892</ele>
        <time>2024-09-25T11:11:55Z</time>
      </trkpt>
      <trkpt lon="78.519521909153625" lat="17.638972217242081">
        <ele>494.903</ele>
        <time>2024-09-25T11:11:55Z</time>
      </trkpt>
      <trkpt lon="78.519522119645771" lat="17.638974009881352">
        <ele>494.913</ele>
        <time>2024-09-25T11:11:55Z</time>
      </trkpt>
      <trkpt lon="78.519522330489778" lat="17.63897580675388">
        <ele>494.921</ele>
        <time>2024-09-25T11:11:55Z</time>
      </trkpt>
      <trkpt lon="78.519522541673908" lat="17.638977607551237">
        <ele>494.928</ele>
        <time>2024-09-25T11:11:55Z</time>
      </trkpt>
      <trkpt lon="78.519522753177483" lat="17.638979411904621">
        <ele>494.933</ele>
        <time>2024-09-25T11:11:55Z</time>
      </trkpt>
      <trkpt lon="78.519522964973831" lat="17.638981219412528">
        <ele>494.937</ele>
        <time>2024-09-25T11:11:55Z</time>
      </trkpt>
      <trkpt lon="78.519523177032696" lat="17.638983029662743">
        <ele>494.941</ele>
        <time>2024-09-25T11:11:55Z</time>
      </trkpt>
      <trkpt lon="78.519523389322117" lat="17.638984842249293">
        <ele>494.943</ele>
        <time>2024-09-25T11:11:55Z</time>
      </trkpt>
      <trkpt lon="78.519523670165597" lat="17.638987159339173">
        <ele>494.666</ele>
        <time>2024-09-25T11:11:56Z</time>
      </trkpt>
      <trkpt lon="78.519523948946258" lat="17.63898939082819">
        <ele>494.431</ele>
        <time>2024-09-25T11:11:56Z</time>
      </trkpt>
      <trkpt lon="78.519524224940866" lat="17.638991542422726">
        <ele>494.238</ele>
        <time>2024-09-25T11:11:56Z</time>
      </trkpt>
      <trkpt lon="78.519524497701013" lat="17.638993621199013">
        <ele>494.082</ele>
        <time>2024-09-25T11:11:56Z</time>
      </trkpt>
      <trkpt lon="78.519524767001002" lat="17.63899563502012">
        <ele>493.96</ele>
        <time>2024-09-25T11:11:56Z</time>
      </trkpt>
      <trkpt lon="78.519525032790881" lat="17.638997592069181">
        <ele>493.867</ele>
        <time>2024-09-25T11:11:56Z</time>
      </trkpt>
      <trkpt lon="78.519525295154892" lat="17.638999500486413">
        <ele>493.8</ele>
        <time>2024-09-25T11:11:56Z</time>
      </trkpt>
      <trkpt lon="78.519525554275504" lat="17.63900136809697">
        <ele>493.754</ele>
        <time>2024-09-25T11:11:56Z</time>
      </trkpt>
      <trkpt lon="78.519525810402925" lat="17.639003202216752">
        <ele>493.726</ele>
        <time>2024-09-25T11:11:56Z</time>
      </trkpt>
      <trkpt lon="78.519526063829701" lat="17.639005009523704">
        <ele>493.713</ele>
        <time>2024-09-25T11:11:56Z</time>
      </trkpt>
      <trkpt lon="78.519526314870163" lat="17.63900679598294">
        <ele>493.711</ele>
        <time>2024-09-25T11:11:56Z</time>
      </trkpt>
      <trkpt lon="78.51952656384411" lat="17.639008566815082">
        <ele>493.718</ele>
        <time>2024-09-25T11:11:56Z</time>
      </trkpt>
      <trkpt lon="78.519526811064395" lat="17.639010326498234">
        <ele>493.731</ele>
        <time>2024-09-25T11:11:56Z</time>
      </trkpt>
      <trkpt lon="78.519527056827741" lat="17.639012078795243">
        <ele>493.748</ele>
        <time>2024-09-25T11:11:56Z</time>
      </trkpt>
      <trkpt lon="78.519527301408445" lat="17.639013826799122">
        <ele>493.767</ele>
        <time>2024-09-25T11:11:56Z</time>
      </trkpt>
      <trkpt lon="78.519527545054345" lat="17.639015572990534">
        <ele>493.789</ele>
        <time>2024-09-25T11:11:56Z</time>
      </trkpt>
      <trkpt lon="78.519527787984714" lat="17.639017319302372">
        <ele>493.81</ele>
        <time>2024-09-25T11:11:56Z</time>
      </trkpt>
      <trkpt lon="78.519528030389679" lat="17.639019067187512">
        <ele>493.831</ele>
        <time>2024-09-25T11:11:56Z</time>
      </trkpt>
      <trkpt lon="78.519528272430847" lat="17.639020817686511">
        <ele>493.85</ele>
        <time>2024-09-25T11:11:56Z</time>
      </trkpt>
      <trkpt lon="78.519528514242651" lat="17.63902257149298">
        <ele>493.868</ele>
        <time>2024-09-25T11:11:56Z</time>
      </trkpt>
      <trkpt lon="78.519528755934402" lat="17.639024329014905">
        <ele>493.885</ele>
        <time>2024-09-25T11:11:56Z</time>
      </trkpt>
      <trkpt lon="78.519528997592673" lat="17.6390260904308">
        <ele>493.899</ele>
        <time>2024-09-25T11:11:56Z</time>
      </trkpt>
      <trkpt lon="78.519529239283855" lat="17.639027855740004">
        <ele>493.911</ele>
        <time>2024-09-25T11:11:56Z</time>
      </trkpt>
      <trkpt lon="78.519529481056892" lat="17.639029624806803">
        <ele>493.922</ele>
        <time>2024-09-25T11:11:56Z</time>
      </trkpt>
      <trkpt lon="78.519529722945833" lat="17.639031397398391">
        <ele>493.931</ele>
        <time>2024-09-25T11:11:56Z</time>
      </trkpt>
      <trkpt lon="78.519529964972293" lat="17.639033173216873">
        <ele>493.938</ele>
        <time>2024-09-25T11:11:56Z</time>
      </trkpt>
      <trkpt lon="78.519530207147795" lat="17.639034951925616">
        <ele>493.943</ele>
        <time>2024-09-25T11:11:56Z</time>
      </trkpt>
      <trkpt lon="78.519530449475852" lat="17.639036733170489">
        <ele>493.948</ele>
        <time>2024-09-25T11:11:56Z</time>
      </trkpt>
      <trkpt lon="78.519530691953847" lat="17.639038516596464">
        <ele>493.951</ele>
        <time>2024-09-25T11:11:56Z</time>
      </trkpt>
      <trkpt lon="78.519530997124605" lat="17.639040815276317">
        <ele>493.911</ele>
        <time>2024-09-25T11:11:57Z</time>
      </trkpt>
      <trkpt lon="78.519531286784002" lat="17.639043045580795">
        <ele>493.876</ele>
        <time>2024-09-25T11:11:57Z</time>
      </trkpt>
      <trkpt lon="78.519531562424092" lat="17.63904521035964">
        <ele>493.848</ele>
        <time>2024-09-25T11:11:57Z</time>
      </trkpt>
      <trkpt lon="78.5195318256565" lat="17.639047314036663">
        <ele>493.824</ele>
        <time>2024-09-25T11:11:57Z</time>
      </trkpt>
      <trkpt lon="78.519532078126986" lat="17.639049362068608">
        <ele>493.806</ele>
        <time>2024-09-25T11:11:57Z</time>
      </trkpt>
      <trkpt lon="78.519532321449915" lat="17.639051360501362">
        <ele>493.791</ele>
        <time>2024-09-25T11:11:57Z</time>
      </trkpt>
      <trkpt lon="78.51953255715992" lat="17.639053315614934">
        <ele>493.78</ele>
        <time>2024-09-25T11:11:57Z</time>
      </trkpt>
      <trkpt lon="78.51953278667817" lat="17.639055233647721">
        <ele>493.773</ele>
        <time>2024-09-25T11:11:57Z</time>
      </trkpt>
      <trkpt lon="78.519533011291045" lat="17.63905712059011">
        <ele>493.768</ele>
        <time>2024-09-25T11:11:57Z</time>
      </trkpt>
      <trkpt lon="78.519533232138585" lat="17.639058982037486">
        <ele>493.765</ele>
        <time>2024-09-25T11:11:57Z</time>
      </trkpt>
      <trkpt lon="78.519533450210929" lat="17.639060823093153">
        <ele>493.764</ele>
        <time>2024-09-25T11:11:57Z</time>
      </trkpt>
      <trkpt lon="78.519533666350839" lat="17.639062648312244">
        <ele>493.764</ele>
        <time>2024-09-25T11:11:57Z</time>
      </trkpt>
      <trkpt lon="78.519533881260728" lat="17.63906446167848">
        <ele>493.765</ele>
        <time>2024-09-25T11:11:57Z</time>
      </trkpt>
      <trkpt lon="78.519534095512796" lat="17.639066266606488">
        <ele>493.767</ele>
        <time>2024-09-25T11:11:57Z</time>
      </trkpt>
      <trkpt lon="78.519534309561195" lat="17.639068065963322">
        <ele>493.77</ele>
        <time>2024-09-25T11:11:57Z</time>
      </trkpt>
      <trkpt lon="78.519534523755397" lat="17.639069862103693">
        <ele>493.772</ele>
        <time>2024-09-25T11:11:57Z</time>
      </trkpt>
      <trkpt lon="78.519534738353727" lat="17.639071656914318">
        <ele>493.775</ele>
        <time>2024-09-25T11:11:57Z</time>
      </trkpt>
      <trkpt lon="78.519534953536919" lat="17.639073451863617">
        <ele>493.778</ele>
        <time>2024-09-25T11:11:57Z</time>
      </trkpt>
      <trkpt lon="78.519535169420877" lat="17.639075248053693">
        <ele>493.781</ele>
        <time>2024-09-25T11:11:57Z</time>
      </trkpt>
      <trkpt lon="78.519535386068625" lat="17.639077046272241">
        <ele>493.783</ele>
        <time>2024-09-25T11:11:57Z</time>
      </trkpt>
      <trkpt lon="78.519535603501183" lat="17.639078847042583">
        <ele>493.785</ele>
        <time>2024-09-25T11:11:57Z</time>
      </trkpt>
      <trkpt lon="78.519535821707095" lat="17.639080650670593">
        <ele>493.787</ele>
        <time>2024-09-25T11:11:57Z</time>
      </trkpt>
      <trkpt lon="78.51953604065092" lat="17.639082457287593">
        <ele>493.789</ele>
        <time>2024-09-25T11:11:57Z</time>
      </trkpt>
      <trkpt lon="78.519536260280276" lat="17.63908426688878">
        <ele>493.791</ele>
        <time>2024-09-25T11:11:57Z</time>
      </trkpt>
      <trkpt lon="78.519536480531869" lat="17.639086079366887">
        <ele>493.792</ele>
        <time>2024-09-25T11:11:57Z</time>
      </trkpt>
      <trkpt lon="78.519536701336392" lat="17.639087894541142">
        <ele>493.793</ele>
        <time>2024-09-25T11:11:57Z</time>
      </trkpt>
      <trkpt lon="78.519536922622379" lat="17.639089712181651">
        <ele>493.794</ele>
        <time>2024-09-25T11:11:57Z</time>
      </trkpt>
      <trkpt lon="78.519537144319273" lat="17.639091532029454">
        <ele>493.795</ele>
        <time>2024-09-25T11:11:57Z</time>
      </trkpt>
      <trkpt lon="78.519537366359572" lat="17.639093353812694">
        <ele>493.795</ele>
        <time>2024-09-25T11:11:57Z</time>
      </trkpt>
      <trkpt lon="78.519537604692587" lat="17.639095741146146">
        <ele>493.848</ele>
        <time>2024-09-25T11:11:58Z</time>
      </trkpt>
      <trkpt lon="78.519537794192686" lat="17.63909809166006">
        <ele>493.892</ele>
        <time>2024-09-25T11:11:58Z</time>
      </trkpt>
      <trkpt lon="78.519537942280209" lat="17.6391004025005">
        <ele>493.928</ele>
        <time>2024-09-25T11:11:58Z</time>
      </trkpt>
      <trkpt lon="78.519538055986885" lat="17.639102672893955">
        <ele>493.958</ele>
        <time>2024-09-25T11:11:58Z</time>
      </trkpt>
      <trkpt lon="78.519538141807374" lat="17.639104903662023">
        <ele>493.98</ele>
        <time>2024-09-25T11:11:58Z</time>
      </trkpt>
      <trkpt lon="78.519538205605912" lat="17.639107096800188">
        <ele>493.998</ele>
        <time>2024-09-25T11:11:58Z</time>
      </trkpt>
      <trkpt lon="78.51953825256787" lat="17.639109255119529">
        <ele>494.01</ele>
        <time>2024-09-25T11:11:58Z</time>
      </trkpt>
      <trkpt lon="78.519538287186748" lat="17.639111381948293">
        <ele>494.018</ele>
        <time>2024-09-25T11:11:58Z</time>
      </trkpt>
      <trkpt lon="78.519538313278488" lat="17.639113480889016">
        <ele>494.023</ele>
        <time>2024-09-25T11:11:58Z</time>
      </trkpt>
      <trkpt lon="78.519538334015763" lat="17.639115555625864">
        <ele>494.026</ele>
        <time>2024-09-25T11:11:58Z</time>
      </trkpt>
      <trkpt lon="78.519538351976138" lat="17.639117609776598">
        <ele>494.026</ele>
        <time>2024-09-25T11:11:58Z</time>
      </trkpt>
      <trkpt lon="78.51953836919904" lat="17.639119646783271">
        <ele>494.024</ele>
        <time>2024-09-25T11:11:58Z</time>
      </trkpt>
      <trkpt lon="78.519538387247437" lat="17.639121669835962">
        <ele>494.022</ele>
        <time>2024-09-25T11:11:58Z</time>
      </trkpt>
      <trkpt lon="78.519538407270872" lat="17.639123681824003">
        <ele>494.018</ele>
        <time>2024-09-25T11:11:58Z</time>
      </trkpt>
      <trkpt lon="78.519538430067271" lat="17.639125685309693">
        <ele>494.014</ele>
        <time>2024-09-25T11:11:58Z</time>
      </trkpt>
      <trkpt lon="78.519538456141845" lat="17.639127682519796">
        <ele>494.01</ele>
        <time>2024-09-25T11:11:58Z</time>
      </trkpt>
      <trkpt lon="78.519538485761544" lat="17.639129675350834">
        <ele>494.006</ele>
        <time>2024-09-25T11:11:58Z</time>
      </trkpt>
      <trkpt lon="78.519538519004513" lat="17.639131665384514">
        <ele>494.002</ele>
        <time>2024-09-25T11:11:58Z</time>
      </trkpt>
      <trkpt lon="78.51953855580382" lat="17.639133653910307">
        <ele>493.998</ele>
        <time>2024-09-25T11:11:58Z</time>
      </trkpt>
      <trkpt lon="78.519538595985509" lat="17.639135641952596">
        <ele>493.995</ele>
        <time>2024-09-25T11:11:58Z</time>
      </trkpt>
      <trkpt lon="78.519538639300961" lat="17.639137630300368">
        <ele>493.992</ele>
        <time>2024-09-25T11:11:58Z</time>
      </trkpt>
      <trkpt lon="78.519538685453952" lat="17.639139619537772">
        <ele>493.989</ele>
        <time>2024-09-25T11:11:58Z</time>
      </trkpt>
      <trkpt lon="78.519538734122619" lat="17.639141610074248">
        <ele>493.987</ele>
        <time>2024-09-25T11:11:58Z</time>
      </trkpt>
      <trkpt lon="78.519538784976987" lat="17.639143602173323">
        <ele>493.985</ele>
        <time>2024-09-25T11:11:58Z</time>
      </trkpt>
      <trkpt lon="78.519538837692409" lat="17.639145595979379">
        <ele>493.983</ele>
        <time>2024-09-25T11:11:58Z</time>
      </trkpt>
      <trkpt lon="78.519538891959513" lat="17.639147591541974">
        <ele>493.982</ele>
        <time>2024-09-25T11:11:58Z</time>
      </trkpt>
      <trkpt lon="78.519538947491213" lat="17.639149588837462">
        <ele>493.981</ele>
        <time>2024-09-25T11:11:58Z</time>
      </trkpt>
      <trkpt lon="78.51953900402718" lat="17.639151587787836">
        <ele>493.98</ele>
        <time>2024-09-25T11:11:58Z</time>
      </trkpt>
      <trkpt lon="78.519539061336289" lat="17.63915358827682">
        <ele>493.979</ele>
        <time>2024-09-25T11:11:58Z</time>
      </trkpt>
      <trkpt lon="78.519539200776023" lat="17.639156171373255">
        <ele>494.028</ele>
        <time>2024-09-25T11:11:59Z</time>
      </trkpt>
      <trkpt lon="78.519539393334952" lat="17.639158681619989">
        <ele>494.07</ele>
        <time>2024-09-25T11:11:59Z</time>
      </trkpt>
      <trkpt lon="78.519539629331575" lat="17.639161121627414">
        <ele>494.104</ele>
        <time>2024-09-25T11:11:59Z</time>
      </trkpt>
      <trkpt lon="78.51953989995927" lat="17.639163495802627">
        <ele>494.132</ele>
        <time>2024-09-25T11:11:59Z</time>
      </trkpt>
      <trkpt lon="78.51954019737677" lat="17.639165809754061">
        <ele>494.154</ele>
        <time>2024-09-25T11:11:59Z</time>
      </trkpt>
      <trkpt lon="78.5195405147428" lat="17.639168069800945">
        <ele>494.17</ele>
        <time>2024-09-25T11:11:59Z</time>
      </trkpt>
      <trkpt lon="78.519540846207548" lat="17.639170282578874">
        <ele>494.182</ele>
        <time>2024-09-25T11:11:59Z</time>
      </trkpt>
      <trkpt lon="78.519541186871663" lat="17.639172454731462">
        <ele>494.19</ele>
        <time>2024-09-25T11:11:59Z</time>
      </trkpt>
      <trkpt lon="78.519541532722471" lat="17.639174592677641">
        <ele>494.195</ele>
        <time>2024-09-25T11:11:59Z</time>
      </trkpt>
      <trkpt lon="78.519541880555025" lat="17.639176702444068">
        <ele>494.198</ele>
        <time>2024-09-25T11:11:59Z</time>
      </trkpt>
      <trkpt lon="78.519542227884543" lat="17.639178789552375">
        <ele>494.198</ele>
        <time>2024-09-25T11:11:59Z</time>
      </trkpt>
      <trkpt lon="78.519542572855443" lat="17.639180858951757">
        <ele>494.197</ele>
        <time>2024-09-25T11:11:59Z</time>
      </trkpt>
      <trkpt lon="78.51954291415089" lat="17.639182914988009">
        <ele>494.195</ele>
        <time>2024-09-25T11:11:59Z</time>
      </trkpt>
      <trkpt lon="78.519543250905841" lat="17.639184961401142">
        <ele>494.192</ele>
        <time>2024-09-25T11:11:59Z</time>
      </trkpt>
      <trkpt lon="78.519543582625914" lat="17.639187001344634">
        <ele>494.188</ele>
        <time>2024-09-25T11:11:59Z</time>
      </trkpt>
      <trkpt lon="78.51954390911331" lat="17.639189037420319">
        <ele>494.184</ele>
        <time>2024-09-25T11:11:59Z</time>
      </trkpt>
      <trkpt lon="78.519544230400626" lat="17.639191071723818">
        <ele>494.181</ele>
        <time>2024-09-25T11:11:59Z</time>
      </trkpt>
      <trkpt lon="78.519544546693041" lat="17.639193105896393">
        <ele>494.177</ele>
        <time>2024-09-25T11:11:59Z</time>
      </trkpt>
      <trkpt lon="78.519544858318696" lat="17.639195141179798">
        <ele>494.174</ele>
        <time>2024-09-25T11:11:59Z</time>
      </trkpt>
      <trkpt lon="78.519545165687006" lat="17.639197178471505">
        <ele>494.17</ele>
        <time>2024-09-25T11:11:59Z</time>
      </trkpt>
      <trkpt lon="78.519545469254467" lat="17.639199218378302">
        <ele>494.167</ele>
        <time>2024-09-25T11:11:59Z</time>
      </trkpt>
      <trkpt lon="78.519545769497171" lat="17.63920126126677">
        <ele>494.165</ele>
        <time>2024-09-25T11:11:59Z</time>
      </trkpt>
      <trkpt lon="78.519546066889475" lat="17.639203307309696">
        <ele>494.163</ele>
        <time>2024-09-25T11:11:59Z</time>
      </trkpt>
      <trkpt lon="78.519546361887976" lat="17.639205356527782">
        <ele>494.161</ele>
        <time>2024-09-25T11:11:59Z</time>
      </trkpt>
      <trkpt lon="78.519546654919949" lat="17.639207408826358">
        <ele>494.159</ele>
        <time>2024-09-25T11:11:59Z</time>
      </trkpt>
      <trkpt lon="78.519546946375797" lat="17.639209464027079">
        <ele>494.158</ele>
        <time>2024-09-25T11:11:59Z</time>
      </trkpt>
      <trkpt lon="78.519547236604566" lat="17.639211521894719">
        <ele>494.157</ele>
        <time>2024-09-25T11:11:59Z</time>
      </trkpt>
      <trkpt lon="78.519547525911989" lat="17.639213582159339">
        <ele>494.156</ele>
        <time>2024-09-25T11:11:59Z</time>
      </trkpt>
      <trkpt lon="78.519547814560482" lat="17.639215644534211">
        <ele>494.156</ele>
        <time>2024-09-25T11:11:59Z</time>
      </trkpt>
      <trkpt lon="78.519548169721844" lat="17.63921823253985">
        <ele>494.134</ele>
        <time>2024-09-25T11:12:00Z</time>
      </trkpt>
      <trkpt lon="78.519548499488764" lat="17.639220682297712">
        <ele>494.117</ele>
        <time>2024-09-25T11:12:00Z</time>
      </trkpt>
      <trkpt lon="78.519548806937564" lat="17.639223007522606">
        <ele>494.102</ele>
        <time>2024-09-25T11:12:00Z</time>
      </trkpt>
      <trkpt lon="78.51954909516229" lat="17.639225222877872">
        <ele>494.09</ele>
        <time>2024-09-25T11:12:00Z</time>
      </trkpt>
      <trkpt lon="78.519549367162938" lat="17.639227343232626">
        <ele>494.081</ele>
        <time>2024-09-25T11:12:00Z</time>
      </trkpt>
      <trkpt lon="78.519549625764398" lat="17.639229383094719">
        <ele>494.074</ele>
        <time>2024-09-25T11:12:00Z</time>
      </trkpt>
      <trkpt lon="78.519549873561445" lat="17.639231356195829">
        <ele>494.07</ele>
        <time>2024-09-25T11:12:00Z</time>
      </trkpt>
      <trkpt lon="78.519550112885298" lat="17.639233275205644">
        <ele>494.066</ele>
        <time>2024-09-25T11:12:00Z</time>
      </trkpt>
      <trkpt lon="78.519550345787508" lat="17.639235151553319">
        <ele>494.065</ele>
        <time>2024-09-25T11:12:00Z</time>
      </trkpt>
      <trkpt lon="78.519550574037623" lat="17.639236995335931">
        <ele>494.064</ele>
        <time>2024-09-25T11:12:00Z</time>
      </trkpt>
      <trkpt lon="78.519550799131082" lat="17.63923881529578">
        <ele>494.064</ele>
        <time>2024-09-25T11:12:00Z</time>
      </trkpt>
      <trkpt lon="78.51955102230481" lat="17.63924061885028">
        <ele>494.065</ele>
        <time>2024-09-25T11:12:00Z</time>
      </trkpt>
      <trkpt lon="78.519551244557903" lat="17.639242412160538">
        <ele>494.066</ele>
        <time>2024-09-25T11:12:00Z</time>
      </trkpt>
      <trkpt lon="78.519551466675452" lat="17.639244200226667">
        <ele>494.067</ele>
        <time>2024-09-25T11:12:00Z</time>
      </trkpt>
      <trkpt lon="78.519551689253987" lat="17.639245986999953">
        <ele>494.069</ele>
        <time>2024-09-25T11:12:00Z</time>
      </trkpt>
      <trkpt lon="78.519551912727167" lat="17.639247775503833">
        <ele>494.07</ele>
        <time>2024-09-25T11:12:00Z</time>
      </trkpt>
      <trkpt lon="78.519552137390818" lat="17.639249567957318">
        <ele>494.072</ele>
        <time>2024-09-25T11:12:00Z</time>
      </trkpt>
      <trkpt lon="78.519552363426612" lat="17.639251365895976">
        <ele>494.074</ele>
        <time>2024-09-25T11:12:00Z</time>
      </trkpt>
      <trkpt lon="78.519552590923823" lat="17.639253170286835">
        <ele>494.075</ele>
        <time>2024-09-25T11:12:00Z</time>
      </trkpt>
      <trkpt lon="78.519552819899005" lat="17.639254981634785">
        <ele>494.077</ele>
        <time>2024-09-25T11:12:00Z</time>
      </trkpt>
      <trkpt lon="78.519553050313306" lat="17.639256800078812">
        <ele>494.078</ele>
        <time>2024-09-25T11:12:00Z</time>
      </trkpt>
      <trkpt lon="78.519553282087429" lat="17.639258625477229">
        <ele>494.079</ele>
        <time>2024-09-25T11:12:00Z</time>
      </trkpt>
      <trkpt lon="78.519553515114438" lat="17.639260457481729">
        <ele>494.08</ele>
        <time>2024-09-25T11:12:00Z</time>
      </trkpt>
      <trkpt lon="78.519553749270159" lat="17.639262295600318">
        <ele>494.081</ele>
        <time>2024-09-25T11:12:00Z</time>
      </trkpt>
      <trkpt lon="78.519553984421819" lat="17.639264139249796">
        <ele>494.082</ele>
        <time>2024-09-25T11:12:00Z</time>
      </trkpt>
      <trkpt lon="78.519554220434713" lat="17.639265987798449">
        <ele>494.082</ele>
        <time>2024-09-25T11:12:00Z</time>
      </trkpt>
      <trkpt lon="78.519554457177406" lat="17.639267840599935">
        <ele>494.083</ele>
        <time>2024-09-25T11:12:00Z</time>
      </trkpt>
      <trkpt lon="78.519554694525482" lat="17.639269697019341">
        <ele>494.083</ele>
        <time>2024-09-25T11:12:00Z</time>
      </trkpt>
      <trkpt lon="78.519554932364116" lat="17.63927155645241">
        <ele>494.083</ele>
        <time>2024-09-25T11:12:00Z</time>
      </trkpt>
      <trkpt lon="78.519555219936862" lat="17.639273879411594">
        <ele>493.922</ele>
        <time>2024-09-25T11:12:01Z</time>
      </trkpt>
      <trkpt lon="78.5195554824396" lat="17.639276069059886">
        <ele>493.785</ele>
        <time>2024-09-25T11:12:01Z</time>
      </trkpt>
      <trkpt lon="78.519555723028446" lat="17.639278139173907">
        <ele>493.673</ele>
        <time>2024-09-25T11:12:01Z</time>
      </trkpt>
      <trkpt lon="78.519555944843589" lat="17.639280104289998">
        <ele>493.583</ele>
        <time>2024-09-25T11:12:01Z</time>
      </trkpt>
      <trkpt lon="78.519556150904108" lat="17.63928197901236">
        <ele>493.512</ele>
        <time>2024-09-25T11:12:01Z</time>
      </trkpt>
      <trkpt lon="78.519556344033006" lat="17.639283777489151">
        <ele>493.458</ele>
        <time>2024-09-25T11:12:01Z</time>
      </trkpt>
      <trkpt lon="78.519556526807406" lat="17.6392855130334">
        <ele>493.42</ele>
        <time>2024-09-25T11:12:01Z</time>
      </trkpt>
      <trkpt lon="78.519556701529581" lat="17.63928719786627">
        <ele>493.394</ele>
        <time>2024-09-25T11:12:01Z</time>
      </trkpt>
      <trkpt lon="78.519556870214657" lat="17.639288842961413">
        <ele>493.378</ele>
        <time>2024-09-25T11:12:01Z</time>
      </trkpt>
      <trkpt lon="78.519557034591344" lat="17.639290457970993">
        <ele>493.37</ele>
        <time>2024-09-25T11:12:01Z</time>
      </trkpt>
      <trkpt lon="78.519557196112373" lat="17.639292051215808">
        <ele>493.37</ele>
        <time>2024-09-25T11:12:01Z</time>
      </trkpt>
      <trkpt lon="78.51955735597204" lat="17.639293629724072">
        <ele>493.374</ele>
        <time>2024-09-25T11:12:01Z</time>
      </trkpt>
      <trkpt lon="78.519557515128312" lat="17.639295199305547">
        <ele>493.381</ele>
        <time>2024-09-25T11:12:01Z</time>
      </trkpt>
      <trkpt lon="78.519557674327743" lat="17.639296764649742">
        <ele>493.392</ele>
        <time>2024-09-25T11:12:01Z</time>
      </trkpt>
      <trkpt lon="78.519557834131589" lat="17.639298329438834">
        <ele>493.403</ele>
        <time>2024-09-25T11:12:01Z</time>
      </trkpt>
      <trkpt lon="78.519557994941962" lat="17.63929989646779">
        <ele>493.416</ele>
        <time>2024-09-25T11:12:01Z</time>
      </trkpt>
      <trkpt lon="78.519558157027006" lat="17.639301467765712">
        <ele>493.428</ele>
        <time>2024-09-25T11:12:01Z</time>
      </trkpt>
      <trkpt lon="78.519558320544604" lat="17.639303044713902">
        <ele>493.44</ele>
        <time>2024-09-25T11:12:01Z</time>
      </trkpt>
      <trkpt lon="78.519558485564005" lat="17.63930462815739">
        <ele>493.452</ele>
        <time>2024-09-25T11:12:01Z</time>
      </trkpt>
      <trkpt lon="78.519558652085266" lat="17.639306218507592">
        <ele>493.463</ele>
        <time>2024-09-25T11:12:01Z</time>
      </trkpt>
      <trkpt lon="78.519558820056247" lat="17.639307815834776">
        <ele>493.472</ele>
        <time>2024-09-25T11:12:01Z</time>
      </trkpt>
      <trkpt lon="78.51955898938732" lat="17.639309419949605">
        <ele>493.48</ele>
        <time>2024-09-25T11:12:01Z</time>
      </trkpt>
      <trkpt lon="78.519559159963677" lat="17.639311030473632">
        <ele>493.488</ele>
        <time>2024-09-25T11:12:01Z</time>
      </trkpt>
      <trkpt lon="78.519559331655529" lat="17.639312646898986">
        <ele>493.494</ele>
        <time>2024-09-25T11:12:01Z</time>
      </trkpt>
      <trkpt lon="78.51955950432631" lat="17.639314268637889">
        <ele>493.499</ele>
        <time>2024-09-25T11:12:01Z</time>
      </trkpt>
      <trkpt lon="78.519559677839069" lat="17.639315895062715">
        <ele>493.503</ele>
        <time>2024-09-25T11:12:01Z</time>
      </trkpt>
      <trkpt lon="78.51955985206132" lat="17.639317525537624">
        <ele>493.506</ele>
        <time>2024-09-25T11:12:01Z</time>
      </trkpt>
      <trkpt lon="78.519560026868561" lat="17.639319159442653">
        <ele>493.509</ele>
        <time>2024-09-25T11:12:01Z</time>
      </trkpt>
      <trkpt lon="78.519560202146621" lat="17.639320796191338">
        <ele>493.51</ele>
        <time>2024-09-25T11:12:01Z</time>
      </trkpt>
      <trkpt lon="78.519560431541194" lat="17.639323034712131">
        <ele>493.289</ele>
        <time>2024-09-25T11:12:02Z</time>
      </trkpt>
      <trkpt lon="78.519560657161421" lat="17.6393253191575">
        <ele>493.102</ele>
        <time>2024-09-25T11:12:02Z</time>
      </trkpt>
      <trkpt lon="78.519560878745722" lat="17.639327632996711">
        <ele>492.948</ele>
        <time>2024-09-25T11:12:02Z</time>
      </trkpt>
      <trkpt lon="78.519561096237098" lat="17.639329962747816">
        <ele>492.823</ele>
        <time>2024-09-25T11:12:02Z</time>
      </trkpt>
      <trkpt lon="78.519561309734726" lat="17.639332297695312">
        <ele>492.726</ele>
        <time>2024-09-25T11:12:02Z</time>
      </trkpt>
      <trkpt lon="78.51956151945204" lat="17.639334629581217">
        <ele>492.652</ele>
        <time>2024-09-25T11:12:02Z</time>
      </trkpt>
      <trkpt lon="78.519561725681257" lat="17.639336952286865">
        <ele>492.598</ele>
        <time>2024-09-25T11:12:02Z</time>
      </trkpt>
      <trkpt lon="78.519561928763764" lat="17.639339261518728">
        <ele>492.562</ele>
        <time>2024-09-25T11:12:02Z</time>
      </trkpt>
      <trkpt lon="78.519562129066216" lat="17.639341554508214">
        <ele>492.54</ele>
        <time>2024-09-25T11:12:02Z</time>
      </trkpt>
      <trkpt lon="78.519562326961506" lat="17.63934382973239">
        <ele>492.529</ele>
        <time>2024-09-25T11:12:02Z</time>
      </trkpt>
      <trkpt lon="78.519562522814354" lat="17.639346086660222">
        <ele>492.527</ele>
        <time>2024-09-25T11:12:02Z</time>
      </trkpt>
      <trkpt lon="78.519562716970626" lat="17.639348325526822">
        <ele>492.533</ele>
        <time>2024-09-25T11:12:02Z</time>
      </trkpt>
      <trkpt lon="78.519562909749951" lat="17.639350547136672">
        <ele>492.543</ele>
        <time>2024-09-25T11:12:02Z</time>
      </trkpt>
      <trkpt lon="78.519563101441094" lat="17.639352752695508">
        <ele>492.557</ele>
        <time>2024-09-25T11:12:02Z</time>
      </trkpt>
      <trkpt lon="78.519563292299523" lat="17.639354943669673">
        <ele>492.573</ele>
        <time>2024-09-25T11:12:02Z</time>
      </trkpt>
      <trkpt lon="78.519563482546729" lat="17.639357121671029">
        <ele>492.589</ele>
        <time>2024-09-25T11:12:02Z</time>
      </trkpt>
      <trkpt lon="78.519563672370907" lat="17.639359288365153">
        <ele>492.606</ele>
        <time>2024-09-25T11:12:02Z</time>
      </trkpt>
      <trkpt lon="78.519563861928603" lat="17.639361445400279">
        <ele>492.623</ele>
        <time>2024-09-25T11:12:02Z</time>
      </trkpt>
      <trkpt lon="78.519564051347103" lat="17.639363594354315">
        <ele>492.639</ele>
        <time>2024-09-25T11:12:02Z</time>
      </trkpt>
      <trkpt lon="78.519564240727178" lat="17.639365736697354">
        <ele>492.653</ele>
        <time>2024-09-25T11:12:02Z</time>
      </trkpt>
      <trkpt lon="78.519564430146104" lat="17.639367873767174">
        <ele>492.666</ele>
        <time>2024-09-25T11:12:02Z</time>
      </trkpt>
      <trkpt lon="78.519564619660812" lat="17.639370006755357">
        <ele>492.678</ele>
        <time>2024-09-25T11:12:02Z</time>
      </trkpt>
      <trkpt lon="78.519564809310879" lat="17.639372136701873">
        <ele>492.688</ele>
        <time>2024-09-25T11:12:02Z</time>
      </trkpt>
      <trkpt lon="78.519564999121442" lat="17.639374264496304">
        <ele>492.696</ele>
        <time>2024-09-25T11:12:02Z</time>
      </trkpt>
      <trkpt lon="78.519565189105876" lat="17.639376390883974">
        <ele>492.703</ele>
        <time>2024-09-25T11:12:02Z</time>
      </trkpt>
      <trkpt lon="78.519565379268201" lat="17.639378516475581">
        <ele>492.709</ele>
        <time>2024-09-25T11:12:02Z</time>
      </trkpt>
      <trkpt lon="78.519565569605319" lat="17.639380641759111">
        <ele>492.713</ele>
        <time>2024-09-25T11:12:02Z</time>
      </trkpt>
      <trkpt lon="78.51956576010879" lat="17.639382767113123">
        <ele>492.716</ele>
        <time>2024-09-25T11:12:02Z</time>
      </trkpt>
      <trkpt lon="78.519565950766463" lat="17.639384892820537">
        <ele>492.719</ele>
        <time>2024-09-25T11:12:02Z</time>
      </trkpt>
      <trkpt lon="78.519566203458453" lat="17.639387706196633">
        <ele>492.666</ele>
        <time>2024-09-25T11:12:03Z</time>
      </trkpt>
      <trkpt lon="78.519566454685815" lat="17.639390499831915">
        <ele>492.621</ele>
        <time>2024-09-25T11:12:03Z</time>
      </trkpt>
      <trkpt lon="78.519566703736174" lat="17.639393266513228">
        <ele>492.583</ele>
        <time>2024-09-25T11:12:03Z</time>
      </trkpt>
      <trkpt lon="78.519566950148189" lat="17.639396001739275">
        <ele>492.553</ele>
        <time>2024-09-25T11:12:03Z</time>
      </trkpt>
      <trkpt lon="78.519567193665679" lat="17.639398703209313">
        <ele>492.529</ele>
        <time>2024-09-25T11:12:03Z</time>
      </trkpt>
      <trkpt lon="78.519567434196048" lat="17.63940137036132">
        <ele>492.51</ele>
        <time>2024-09-25T11:12:03Z</time>
      </trkpt>
      <trkpt lon="78.519567671773274" lat="17.639404003963467">
        <ele>492.497</ele>
        <time>2024-09-25T11:12:03Z</time>
      </trkpt>
      <trkpt lon="78.519567906525509" lat="17.639406605759969">
        <ele>492.487</ele>
        <time>2024-09-25T11:12:03Z</time>
      </trkpt>
      <trkpt lon="78.519568138647472" lat="17.639409178170226">
        <ele>492.481</ele>
        <time>2024-09-25T11:12:03Z</time>
      </trkpt>
      <trkpt lon="78.519568368377278" lat="17.639411724038563">
        <ele>492.478</ele>
        <time>2024-09-25T11:12:03Z</time>
      </trkpt>
      <trkpt lon="78.519568595977532" lat="17.639414246430864">
        <ele>492.477</ele>
        <time>2024-09-25T11:12:03Z</time>
      </trkpt>
      <trkpt lon="78.5195688217201" lat="17.639416748473526">
        <ele>492.478</ele>
        <time>2024-09-25T11:12:03Z</time>
      </trkpt>
      <trkpt lon="78.519569045874462" lat="17.639419233230008">
        <ele>492.48</ele>
        <time>2024-09-25T11:12:03Z</time>
      </trkpt>
      <trkpt lon="78.519569268698916" lat="17.639421703609926">
        <ele>492.482</ele>
        <time>2024-09-25T11:12:03Z</time>
      </trkpt>
      <trkpt lon="78.519569490434336" lat="17.639424162305879">
        <ele>492.486</ele>
        <time>2024-09-25T11:12:03Z</time>
      </trkpt>
      <trkpt lon="78.519569711300136" lat="17.639426611753354">
        <ele>492.49</ele>
        <time>2024-09-25T11:12:03Z</time>
      </trkpt>
      <trkpt lon="78.51956993149193" lat="17.639429054109456">
        <ele>492.494</ele>
        <time>2024-09-25T11:12:03Z</time>
      </trkpt>
      <trkpt lon="78.519570151180545" lat="17.639431491246519">
        <ele>492.497</ele>
        <time>2024-09-25T11:12:03Z</time>
      </trkpt>
      <trkpt lon="78.519570370512241" lat="17.639433924757192">
        <ele>492.501</ele>
        <time>2024-09-25T11:12:03Z</time>
      </trkpt>
      <trkpt lon="78.519570589609671" lat="17.639436355967977">
        <ele>492.504</ele>
        <time>2024-09-25T11:12:03Z</time>
      </trkpt>
      <trkpt lon="78.519570808573448" lat="17.639438785958685">
        <ele>492.507</ele>
        <time>2024-09-25T11:12:03Z</time>
      </trkpt>
      <trkpt lon="78.519571027484034" lat="17.63944121558567">
        <ele>492.51</ele>
        <time>2024-09-25T11:12:03Z</time>
      </trkpt>
      <trkpt lon="78.519571246403927" lat="17.63944364550709">
        <ele>492.513</ele>
        <time>2024-09-25T11:12:03Z</time>
      </trkpt>
      <trkpt lon="78.51957146537994" lat="17.639446076208856">
        <ele>492.515</ele>
        <time>2024-09-25T11:12:03Z</time>
      </trkpt>
      <trkpt lon="78.519571684445381" lat="17.639448508030149">
        <ele>492.516</ele>
        <time>2024-09-25T11:12:03Z</time>
      </trkpt>
      <trkpt lon="78.519571903622264" lat="17.639450941187775">
        <ele>492.518</ele>
        <time>2024-09-25T11:12:03Z</time>
      </trkpt>
      <trkpt lon="78.519572122923307" lat="17.639453375798748">
        <ele>492.519</ele>
        <time>2024-09-25T11:12:03Z</time>
      </trkpt>
      <trkpt lon="78.519572342353811" lat="17.63945581190081">
        <ele>492.52</ele>
        <time>2024-09-25T11:12:03Z</time>
      </trkpt>
      <trkpt lon="78.519572561913265" lat="17.639458249470621">
        <ele>492.52</ele>
        <time>2024-09-25T11:12:03Z</time>
      </trkpt>
      <trkpt lon="78.519572872800026" lat="17.639461259817569">
        <ele>492.834</ele>
        <time>2024-09-25T11:12:04Z</time>
      </trkpt>
      <trkpt lon="78.519573198766651" lat="17.639464065858164">
        <ele>493.099</ele>
        <time>2024-09-25T11:12:04Z</time>
      </trkpt>
      <trkpt lon="78.519573536055574" lat="17.639466691077235">
        <ele>493.317</ele>
        <time>2024-09-25T11:12:04Z</time>
      </trkpt>
      <trkpt lon="78.519573881441062" lat="17.639469159457761">
        <ele>493.492</ele>
        <time>2024-09-25T11:12:04Z</time>
      </trkpt>
      <trkpt lon="78.519574232210331" lat="17.639471494525342">
        <ele>493.629</ele>
        <time>2024-09-25T11:12:04Z</time>
      </trkpt>
      <trkpt lon="78.519574586131455" lat="17.639473718643764">
        <ele>493.733</ele>
        <time>2024-09-25T11:12:04Z</time>
      </trkpt>
      <trkpt lon="78.5195749414125" lat="17.63947585252436">
        <ele>493.808</ele>
        <time>2024-09-25T11:12:04Z</time>
      </trkpt>
      <trkpt lon="78.519575296655475" lat="17.639477914913517">
        <ele>493.858</ele>
        <time>2024-09-25T11:12:04Z</time>
      </trkpt>
      <trkpt lon="78.51957565080788" lat="17.639479922425394">
        <ele>493.888</ele>
        <time>2024-09-25T11:12:04Z</time>
      </trkpt>
      <trkpt lon="78.519576003114182" lat="17.639481889489819">
        <ele>493.902</ele>
        <time>2024-09-25T11:12:04Z</time>
      </trkpt>
      <trkpt lon="78.519576353068956" lat="17.63948382838894">
        <ele>493.904</ele>
        <time>2024-09-25T11:12:04Z</time>
      </trkpt>
      <trkpt lon="78.51957670037288" lat="17.639485749359373">
        <ele>493.895</ele>
        <time>2024-09-25T11:12:04Z</time>
      </trkpt>
      <trkpt lon="78.519577044892401" lat="17.639487660740286">
        <ele>493.88</ele>
        <time>2024-09-25T11:12:04Z</time>
      </trkpt>
      <trkpt lon="78.51957738662351" lat="17.639489569150918">
        <ele>493.86</ele>
        <time>2024-09-25T11:12:04Z</time>
      </trkpt>
      <trkpt lon="78.519577725660042" lat="17.639491479684093">
        <ele>493.837</ele>
        <time>2024-09-25T11:12:04Z</time>
      </trkpt>
      <trkpt lon="78.519578062166318" lat="17.639493396105159">
        <ele>493.813</ele>
        <time>2024-09-25T11:12:04Z</time>
      </trkpt>
      <trkpt lon="78.519578396354049" lat="17.639495321048013">
        <ele>493.788</ele>
        <time>2024-09-25T11:12:04Z</time>
      </trkpt>
      <trkpt lon="78.519578728463372" lat="17.639497256202169">
        <ele>493.765</ele>
        <time>2024-09-25T11:12:04Z</time>
      </trkpt>
      <trkpt lon="78.519579058747496" lat="17.639499202486583">
        <ele>493.742</ele>
        <time>2024-09-25T11:12:04Z</time>
      </trkpt>
      <trkpt lon="78.519579387460666" lat="17.639501160207438">
        <ele>493.722</ele>
        <time>2024-09-25T11:12:04Z</time>
      </trkpt>
      <trkpt lon="78.519579714849087" lat="17.639503129198353">
        <ele>493.703</ele>
        <time>2024-09-25T11:12:04Z</time>
      </trkpt>
      <trkpt lon="78.519580041144366" lat="17.639505108942522">
        <ele>493.687</ele>
        <time>2024-09-25T11:12:04Z</time>
      </trkpt>
      <trkpt lon="78.519580366559069" lat="17.639507098676916">
        <ele>493.673</ele>
        <time>2024-09-25T11:12:04Z</time>
      </trkpt>
      <trkpt lon="78.519580691283991" lat="17.639509097479394">
        <ele>493.661</ele>
        <time>2024-09-25T11:12:04Z</time>
      </trkpt>
      <trkpt lon="78.519581015486921" lat="17.639511104339913">
        <ele>493.651</ele>
        <time>2024-09-25T11:12:04Z</time>
      </trkpt>
      <trkpt lon="78.519581339312481" lat="17.639513118217231">
        <ele>493.643</ele>
        <time>2024-09-25T11:12:04Z</time>
      </trkpt>
      <trkpt lon="78.519581662882786" lat="17.639515138082768">
        <ele>493.637</ele>
        <time>2024-09-25T11:12:04Z</time>
      </trkpt>
      <trkpt lon="78.519581986298746" lat="17.639517162953194">
        <ele>493.632</ele>
        <time>2024-09-25T11:12:04Z</time>
      </trkpt>
      <trkpt lon="78.519582309641777" lat="17.63951919191344">
        <ele>493.628</ele>
        <time>2024-09-25T11:12:04Z</time>
      </trkpt>
      <trkpt lon="78.519582683165694" lat="17.639521841204893">
        <ele>493.268</ele>
        <time>2024-09-25T11:12:05Z</time>
      </trkpt>
      <trkpt lon="78.519583007821652" lat="17.639524441653329">
        <ele>492.964</ele>
        <time>2024-09-25T11:12:05Z</time>
      </trkpt>
      <trkpt lon="78.519583290570125" lat="17.639526991260194">
        <ele>492.715</ele>
        <time>2024-09-25T11:12:05Z</time>
      </trkpt>
      <trkpt lon="78.519583538113423" lat="17.63952949028462">
        <ele>492.514</ele>
        <time>2024-09-25T11:12:05Z</time>
      </trkpt>
      <trkpt lon="78.51958375672649" lat="17.63953194067863">
        <ele>492.358</ele>
        <time>2024-09-25T11:12:05Z</time>
      </trkpt>
      <trkpt lon="78.519583952144202" lat="17.639534345602573">
        <ele>492.24</ele>
        <time>2024-09-25T11:12:05Z</time>
      </trkpt>
      <trkpt lon="78.519584129495144" lat="17.6395367090179">
        <ele>492.155</ele>
        <time>2024-09-25T11:12:05Z</time>
      </trkpt>
      <trkpt lon="78.519584293272771" lat="17.639539035352364">
        <ele>492.098</ele>
        <time>2024-09-25T11:12:05Z</time>
      </trkpt>
      <trkpt lon="78.519584447335703" lat="17.639541329231463">
        <ele>492.065</ele>
        <time>2024-09-25T11:12:05Z</time>
      </trkpt>
      <trkpt lon="78.519584594930009" lat="17.63954359526911">
        <ele>492.049</ele>
        <time>2024-09-25T11:12:05Z</time>
      </trkpt>
      <trkpt lon="78.519584738727275" lat="17.639545837910251">
        <ele>492.049</ele>
        <time>2024-09-25T11:12:05Z</time>
      </trkpt>
      <trkpt lon="78.519584880873253" lat="17.639548061318091">
        <ele>492.059</ele>
        <time>2024-09-25T11:12:05Z</time>
      </trkpt>
      <trkpt lon="78.519585023042794" lat="17.63955026929888">
        <ele>492.077</ele>
        <time>2024-09-25T11:12:05Z</time>
      </trkpt>
      <trkpt lon="78.519585166497606" lat="17.63955246525758">
        <ele>492.101</ele>
        <time>2024-09-25T11:12:05Z</time>
      </trkpt>
      <trkpt lon="78.519585312144144" lat="17.639554652178436">
        <ele>492.128</ele>
        <time>2024-09-25T11:12:05Z</time>
      </trkpt>
      <trkpt lon="78.51958546058961" lat="17.639556832624883">
        <ele>492.156</ele>
        <time>2024-09-25T11:12:05Z</time>
      </trkpt>
      <trkpt lon="78.519585612194476" lat="17.639559008754134">
        <ele>492.184</ele>
        <time>2024-09-25T11:12:05Z</time>
      </trkpt>
      <trkpt lon="78.519585767120816" lat="17.639561182342263">
        <ele>492.212</ele>
        <time>2024-09-25T11:12:05Z</time>
      </trkpt>
      <trkpt lon="78.519585925375395" lat="17.639563354816346">
        <ele>492.238</ele>
        <time>2024-09-25T11:12:05Z</time>
      </trkpt>
      <trkpt lon="78.519586086847724" lat="17.639565527290831">
        <ele>492.261</ele>
        <time>2024-09-25T11:12:05Z</time>
      </trkpt>
      <trkpt lon="78.519586251342815" lat="17.639567700605788">
        <ele>492.283</ele>
        <time>2024-09-25T11:12:05Z</time>
      </trkpt>
      <trkpt lon="78.519586418608668" lat="17.639569875365286">
        <ele>492.302</ele>
        <time>2024-09-25T11:12:05Z</time>
      </trkpt>
      <trkpt lon="78.51958658835909" lat="17.639572051974518">
        <ele>492.318</ele>
        <time>2024-09-25T11:12:05Z</time>
      </trkpt>
      <trkpt lon="78.519586760292086" lat="17.639574230674683">
        <ele>492.331</ele>
        <time>2024-09-25T11:12:05Z</time>
      </trkpt>
      <trkpt lon="78.519586934104183" lat="17.639576411574986">
        <ele>492.343</ele>
        <time>2024-09-25T11:12:05Z</time>
      </trkpt>
      <trkpt lon="78.519587109501387" lat="17.639578594681335">
        <ele>492.352</ele>
        <time>2024-09-25T11:12:05Z</time>
      </trkpt>
      <trkpt lon="78.519587286206999" lat="17.639580779921573">
        <ele>492.359</ele>
        <time>2024-09-25T11:12:05Z</time>
      </trkpt>
      <trkpt lon="78.519587463967028" lat="17.6395829671672">
        <ele>492.364</ele>
        <time>2024-09-25T11:12:05Z</time>
      </trkpt>
      <trkpt lon="78.519587642553361" lat="17.639585156251705">
        <ele>492.368</ele>
        <time>2024-09-25T11:12:05Z</time>
      </trkpt>
      <trkpt lon="78.519587872329794" lat="17.639587936810308">
        <ele>492.201</ele>
        <time>2024-09-25T11:12:06Z</time>
      </trkpt>
      <trkpt lon="78.519588094980492" lat="17.639590598799462">
        <ele>492.059</ele>
        <time>2024-09-25T11:12:06Z</time>
      </trkpt>
      <trkpt lon="78.519588310778474" lat="17.639593151880209">
        <ele>491.942</ele>
        <time>2024-09-25T11:12:06Z</time>
      </trkpt>
      <trkpt lon="78.519588520167545" lat="17.639595607117474">
        <ele>491.847</ele>
        <time>2024-09-25T11:12:06Z</time>
      </trkpt>
      <trkpt lon="78.519588723704828" lat="17.639597976250183">
        <ele>491.772</ele>
        <time>2024-09-25T11:12:06Z</time>
      </trkpt>
      <trkpt lon="78.519588922013526" lat="17.639600271117644">
        <ele>491.715</ele>
        <time>2024-09-25T11:12:06Z</time>
      </trkpt>
      <trkpt lon="78.519589115744964" lat="17.639602503223671">
        <ele>491.673</ele>
        <time>2024-09-25T11:12:06Z</time>
      </trkpt>
      <trkpt lon="78.519589305549133" lat="17.639604683419662">
        <ele>491.645</ele>
        <time>2024-09-25T11:12:06Z</time>
      </trkpt>
      <trkpt lon="78.519589492052376" lat="17.639606821688357">
        <ele>491.627</ele>
        <time>2024-09-25T11:12:06Z</time>
      </trkpt>
      <trkpt lon="78.519589675841488" lat="17.63960892701099">
        <ele>491.618</ele>
        <time>2024-09-25T11:12:06Z</time>
      </trkpt>
      <trkpt lon="78.519589857453028" lat="17.639611007301944">
        <ele>491.616</ele>
        <time>2024-09-25T11:12:06Z</time>
      </trkpt>
      <trkpt lon="78.519590037367138" lat="17.639613069396525">
        <ele>491.619</ele>
        <time>2024-09-25T11:12:06Z</time>
      </trkpt>
      <trkpt lon="78.519590216004644" lat="17.639615119079242">
        <ele>491.627</ele>
        <time>2024-09-25T11:12:06Z</time>
      </trkpt>
      <trkpt lon="78.519590393727185" lat="17.639617161141594">
        <ele>491.636</ele>
        <time>2024-09-25T11:12:06Z</time>
      </trkpt>
      <trkpt lon="78.519590570839085" lat="17.639619199460139">
        <ele>491.648</ele>
        <time>2024-09-25T11:12:06Z</time>
      </trkpt>
      <trkpt lon="78.519590747590982" lat="17.639621237087102">
        <ele>491.66</ele>
        <time>2024-09-25T11:12:06Z</time>
      </trkpt>
      <trkpt lon="78.5195909241843" lat="17.639623276347322">
        <ele>491.673</ele>
        <time>2024-09-25T11:12:06Z</time>
      </trkpt>
      <trkpt lon="78.519591100776395" lat="17.63962531893657">
        <ele>491.685</ele>
        <time>2024-09-25T11:12:06Z</time>
      </trkpt>
      <trkpt lon="78.519591277485915" lat="17.639627366017535">
        <ele>491.697</ele>
        <time>2024-09-25T11:12:06Z</time>
      </trkpt>
      <trkpt lon="78.519591454398224" lat="17.639629418310676">
        <ele>491.708</ele>
        <time>2024-09-25T11:12:06Z</time>
      </trkpt>
      <trkpt lon="78.519591631570648" lat="17.639631476178074">
        <ele>491.718</ele>
        <time>2024-09-25T11:12:06Z</time>
      </trkpt>
      <trkpt lon="78.519591809037351" lat="17.63963353969908">
        <ele>491.726</ele>
        <time>2024-09-25T11:12:06Z</time>
      </trkpt>
      <trkpt lon="78.51959198681385" lat="17.639635608737169">
        <ele>491.734</ele>
        <time>2024-09-25T11:12:06Z</time>
      </trkpt>
      <trkpt lon="78.519592164901098" lat="17.639637682997822">
        <ele>491.74</ele>
        <time>2024-09-25T11:12:06Z</time>
      </trkpt>
      <trkpt lon="78.51959234328902" lat="17.63963976207765">
        <ele>491.745</ele>
        <time>2024-09-25T11:12:06Z</time>
      </trkpt>
      <trkpt lon="78.519592521959581" lat="17.639641845505206">
        <ele>491.75</ele>
        <time>2024-09-25T11:12:06Z</time>
      </trkpt>
      <trkpt lon="78.51959270088939" lat="17.639643932774117">
        <ele>491.753</ele>
        <time>2024-09-25T11:12:06Z</time>
      </trkpt>
      <trkpt lon="78.519592880051775" lat="17.639646023369263">
        <ele>491.756</ele>
        <time>2024-09-25T11:12:06Z</time>
      </trkpt>
      <trkpt lon="78.519593059418568" lat="17.63964811678682">
        <ele>491.758</ele>
        <time>2024-09-25T11:12:06Z</time>
      </trkpt>
      <trkpt lon="78.51959328016207" lat="17.63965075293282">
        <ele>491.604</ele>
        <time>2024-09-25T11:12:07Z</time>
      </trkpt>
      <trkpt lon="78.51959348521018" lat="17.639653256547025">
        <ele>491.474</ele>
        <time>2024-09-25T11:12:07Z</time>
      </trkpt>
      <trkpt lon="78.519593676399325" lat="17.639655640115688">
        <ele>491.366</ele>
        <time>2024-09-25T11:12:07Z</time>
      </trkpt>
      <trkpt lon="78.519593855595147" lat="17.639657917220209">
        <ele>491.279</ele>
        <time>2024-09-25T11:12:07Z</time>
      </trkpt>
      <trkpt lon="78.519594024620503" lat="17.639660101795847">
        <ele>491.211</ele>
        <time>2024-09-25T11:12:07Z</time>
      </trkpt>
      <trkpt lon="78.519594185202706" lat="17.639662207560658">
        <ele>491.16</ele>
        <time>2024-09-25T11:12:07Z</time>
      </trkpt>
      <trkpt lon="78.519594338937054" lat="17.639664247592556">
        <ele>491.122</ele>
        <time>2024-09-25T11:12:07Z</time>
      </trkpt>
      <trkpt lon="78.519594487263944" lat="17.639666234032706">
        <ele>491.097</ele>
        <time>2024-09-25T11:12:07Z</time>
      </trkpt>
      <trkpt lon="78.51959463145694" lat="17.639668177894499">
        <ele>491.081</ele>
        <time>2024-09-25T11:12:07Z</time>
      </trkpt>
      <trkpt lon="78.519594772619655" lat="17.639670088958709">
        <ele>491.073</ele>
        <time>2024-09-25T11:12:07Z</time>
      </trkpt>
      <trkpt lon="78.519594911689239" lat="17.639671975737258">
        <ele>491.072</ele>
        <time>2024-09-25T11:12:07Z</time>
      </trkpt>
      <trkpt lon="78.519595049444831" lat="17.639673845489988">
        <ele>491.076</ele>
        <time>2024-09-25T11:12:07Z</time>
      </trkpt>
      <trkpt lon="78.519595186519382" lat="17.639675704280769">
        <ele>491.083</ele>
        <time>2024-09-25T11:12:07Z</time>
      </trkpt>
      <trkpt lon="78.519595323413682" lat="17.63967755706134">
        <ele>491.092</ele>
        <time>2024-09-25T11:12:07Z</time>
      </trkpt>
      <trkpt lon="78.519595460511496" lat="17.639679407773123">
        <ele>491.103</ele>
        <time>2024-09-25T11:12:07Z</time>
      </trkpt>
      <trkpt lon="78.519595598095037" lat="17.639681259459071">
        <ele>491.115</ele>
        <time>2024-09-25T11:12:07Z</time>
      </trkpt>
      <trkpt lon="78.519595736360159" lat="17.639683114379185">
        <ele>491.126</ele>
        <time>2024-09-25T11:12:07Z</time>
      </trkpt>
      <trkpt lon="78.519595875430866" lat="17.639684974124759">
        <ele>491.138</ele>
        <time>2024-09-25T11:12:07Z</time>
      </trkpt>
      <trkpt lon="78.519596015372628" lat="17.639686839727762">
        <ele>491.149</ele>
        <time>2024-09-25T11:12:07Z</time>
      </trkpt>
      <trkpt lon="78.519596156204557" lat="17.639688711762677">
        <ele>491.159</ele>
        <time>2024-09-25T11:12:07Z</time>
      </trkpt>
      <trkpt lon="78.519596297910127" lat="17.639690590439187">
        <ele>491.168</ele>
        <time>2024-09-25T11:12:07Z</time>
      </trkpt>
      <trkpt lon="78.519596440446577" lat="17.639692475684701">
        <ele>491.176</ele>
        <time>2024-09-25T11:12:07Z</time>
      </trkpt>
      <trkpt lon="78.519596583752772" lat="17.639694367216361">
        <ele>491.183</ele>
        <time>2024-09-25T11:12:07Z</time>
      </trkpt>
      <trkpt lon="78.519596727755939" lat="17.639696264602634">
        <ele>491.189</ele>
        <time>2024-09-25T11:12:07Z</time>
      </trkpt>
      <trkpt lon="78.519596872376994" lat="17.639698167314894">
        <ele>491.193</ele>
        <time>2024-09-25T11:12:07Z</time>
      </trkpt>
      <trkpt lon="78.519597017534849" lat="17.639700074769696">
        <ele>491.197</ele>
        <time>2024-09-25T11:12:07Z</time>
      </trkpt>
      <trkpt lon="78.519597163149783" lat="17.639701986362521">
        <ele>491.2</ele>
        <time>2024-09-25T11:12:07Z</time>
      </trkpt>
      <trkpt lon="78.519597309145766" lat="17.639703901493966">
        <ele>491.203</ele>
        <time>2024-09-25T11:12:07Z</time>
      </trkpt>
      <trkpt lon="78.519597455452285" lat="17.639705819589295">
        <ele>491.205</ele>
        <time>2024-09-25T11:12:07Z</time>
      </trkpt>
      <trkpt lon="78.519597630190404" lat="17.639708313643958">
        <ele>491.163</ele>
        <time>2024-09-25T11:12:08Z</time>
      </trkpt>
      <trkpt lon="78.519597787669625" lat="17.639710752577969">
        <ele>491.127</ele>
        <time>2024-09-25T11:12:08Z</time>
      </trkpt>
      <trkpt lon="78.519597930154205" lat="17.639713136164467">
        <ele>491.098</ele>
        <time>2024-09-25T11:12:08Z</time>
      </trkpt>
      <trkpt lon="78.519598059871726" lat="17.639715466154605">
        <ele>491.074</ele>
        <time>2024-09-25T11:12:08Z</time>
      </trkpt>
      <trkpt lon="78.519598178944747" lat="17.639717745729783">
        <ele>491.055</ele>
        <time>2024-09-25T11:12:08Z</time>
      </trkpt>
      <trkpt lon="78.51959828934298" lat="17.639719979039047">
        <ele>491.04</ele>
        <time>2024-09-25T11:12:08Z</time>
      </trkpt>
      <trkpt lon="78.519598392852458" lat="17.639722170816786">
        <ele>491.029</ele>
        <time>2024-09-25T11:12:08Z</time>
      </trkpt>
      <trkpt lon="78.519598491058801" lat="17.639724326074205">
        <ele>491.022</ele>
        <time>2024-09-25T11:12:08Z</time>
      </trkpt>
      <trkpt lon="78.519598585341413" lat="17.639726449857143">
        <ele>491.017</ele>
        <time>2024-09-25T11:12:08Z</time>
      </trkpt>
      <trkpt lon="78.519598676876399" lat="17.639728547062308">
        <ele>491.015</ele>
        <time>2024-09-25T11:12:08Z</time>
      </trkpt>
      <trkpt lon="78.519598766645743" lat="17.639730622303937">
        <ele>491.014</ele>
        <time>2024-09-25T11:12:08Z</time>
      </trkpt>
      <trkpt lon="78.519598855450994" lat="17.63973267982308">
        <ele>491.015</ele>
        <time>2024-09-25T11:12:08Z</time>
      </trkpt>
      <trkpt lon="78.51959894392985" lat="17.639734723432202">
        <ele>491.016</ele>
        <time>2024-09-25T11:12:08Z</time>
      </trkpt>
      <trkpt lon="78.519599032574362" lat="17.639736756488272">
        <ele>491.019</ele>
        <time>2024-09-25T11:12:08Z</time>
      </trkpt>
      <trkpt lon="78.519599121749692" lat="17.639738781888326">
        <ele>491.021</ele>
        <time>2024-09-25T11:12:08Z</time>
      </trkpt>
      <trkpt lon="78.519599211712659" lat="17.639740802082077">
        <ele>491.025</ele>
        <time>2024-09-25T11:12:08Z</time>
      </trkpt>
      <trkpt lon="78.519599302629501" lat="17.63974281909697">
        <ele>491.028</ele>
        <time>2024-09-25T11:12:08Z</time>
      </trkpt>
      <trkpt lon="78.519599394592447" lat="17.639744834571722">
        <ele>491.031</ele>
        <time>2024-09-25T11:12:08Z</time>
      </trkpt>
      <trkpt lon="78.519599487634636" lat="17.63974684979511">
        <ele>491.034</ele>
        <time>2024-09-25T11:12:08Z</time>
      </trkpt>
      <trkpt lon="78.519599581743591" lat="17.639748865747368">
        <ele>491.036</ele>
        <time>2024-09-25T11:12:08Z</time>
      </trkpt>
      <trkpt lon="78.519599676872872" lat="17.639750883142096">
        <ele>491.039</ele>
        <time>2024-09-25T11:12:08Z</time>
      </trkpt>
      <trkpt lon="78.519599772952006" lat="17.639752902467119">
        <ele>491.041</ele>
        <time>2024-09-25T11:12:08Z</time>
      </trkpt>
      <trkpt lon="78.51959986989489" lat="17.63975492402313">
        <ele>491.043</ele>
        <time>2024-09-25T11:12:08Z</time>
      </trkpt>
      <trkpt lon="78.519599967606666" lat="17.63975694795932">
        <ele>491.044</ele>
        <time>2024-09-25T11:12:08Z</time>
      </trkpt>
      <trkpt lon="78.519600065989053" lat="17.63975897430549">
        <ele>491.046</ele>
        <time>2024-09-25T11:12:08Z</time>
      </trkpt>
      <trkpt lon="78.51960016494472" lat="17.639761003000405">
        <ele>491.047</ele>
        <time>2024-09-25T11:12:08Z</time>
      </trkpt>
      <trkpt lon="78.519600264380387" lat="17.639763033916338">
        <ele>491.048</ele>
        <time>2024-09-25T11:12:08Z</time>
      </trkpt>
      <trkpt lon="78.519600364209055" lat="17.639765066879868">
        <ele>491.048</ele>
        <time>2024-09-25T11:12:08Z</time>
      </trkpt>
      <trkpt lon="78.519600464351498" lat="17.639767101689163">
        <ele>491.049</ele>
        <time>2024-09-25T11:12:08Z</time>
      </trkpt>
      <trkpt lon="78.519600619608866" lat="17.639769731510818">
        <ele>490.629</ele>
        <time>2024-09-25T11:12:09Z</time>
      </trkpt>
      <trkpt lon="78.519600793104004" lat="17.639772289263647">
        <ele>490.276</ele>
        <time>2024-09-25T11:12:09Z</time>
      </trkpt>
      <trkpt lon="78.519600981105484" lat="17.639774777220889">
        <ele>489.984</ele>
        <time>2024-09-25T11:12:09Z</time>
      </trkpt>
      <trkpt lon="78.519601180296704" lat="17.639777199520086">
        <ele>489.75</ele>
        <time>2024-09-25T11:12:09Z</time>
      </trkpt>
      <trkpt lon="78.519601387788938" lat="17.639779561560413">
        <ele>489.566</ele>
        <time>2024-09-25T11:12:09Z</time>
      </trkpt>
      <trkpt lon="78.519601601116349" lat="17.639781869504585">
        <ele>489.427</ele>
        <time>2024-09-25T11:12:09Z</time>
      </trkpt>
      <trkpt lon="78.519601818217495" lat="17.639784129876862">
        <ele>489.327</ele>
        <time>2024-09-25T11:12:09Z</time>
      </trkpt>
      <trkpt lon="78.519602037407353" lat="17.639786349247455">
        <ele>489.259</ele>
        <time>2024-09-25T11:12:09Z</time>
      </trkpt>
      <trkpt lon="78.519602257343195" lat="17.639788533993041">
        <ele>489.218</ele>
        <time>2024-09-25T11:12:09Z</time>
      </trkpt>
      <trkpt lon="78.519602476986961" lat="17.63979069012295">
        <ele>489.199</ele>
        <time>2024-09-25T11:12:09Z</time>
      </trkpt>
      <trkpt lon="78.519602695566263" lat="17.639792823160903">
        <ele>489.197</ele>
        <time>2024-09-25T11:12:09Z</time>
      </trkpt>
      <trkpt lon="78.519602912535859" lat="17.639794938072733">
        <ele>489.208</ele>
        <time>2024-09-25T11:12:09Z</time>
      </trkpt>
      <trkpt lon="78.519603127540634" lat="17.639797039231254">
        <ele>489.228</ele>
        <time>2024-09-25T11:12:09Z</time>
      </trkpt>
      <trkpt lon="78.51960334038111" lat="17.639799130410413">
        <ele>489.254</ele>
        <time>2024-09-25T11:12:09Z</time>
      </trkpt>
      <trkpt lon="78.519603550982112" lat="17.639801214801636">
        <ele>489.285</ele>
        <time>2024-09-25T11:12:09Z</time>
      </trkpt>
      <trkpt lon="78.519603759364728" lat="17.639803295046409">
        <ele>489.317</ele>
        <time>2024-09-25T11:12:09Z</time>
      </trkpt>
      <trkpt lon="78.519603965621897" lat="17.639805373279927">
        <ele>489.35</ele>
        <time>2024-09-25T11:12:09Z</time>
      </trkpt>
      <trkpt lon="78.519604169897505" lat="17.639807451181582">
        <ele>489.381</ele>
        <time>2024-09-25T11:12:09Z</time>
      </trkpt>
      <trkpt lon="78.519604372368818" lat="17.639809530028849">
        <ele>489.411</ele>
        <time>2024-09-25T11:12:09Z</time>
      </trkpt>
      <trkpt lon="78.519604573232129" lat="17.639811610751874">
        <ele>489.439</ele>
        <time>2024-09-25T11:12:09Z</time>
      </trkpt>
      <trkpt lon="78.519604772691252" lat="17.639813693986675">
        <ele>489.463</ele>
        <time>2024-09-25T11:12:09Z</time>
      </trkpt>
      <trkpt lon="78.519604970948592" lat="17.639815780125449">
        <ele>489.485</ele>
        <time>2024-09-25T11:12:09Z</time>
      </trkpt>
      <trkpt lon="78.519605168198467" lat="17.639817869362997">
        <ele>489.504</ele>
        <time>2024-09-25T11:12:09Z</time>
      </trkpt>
      <trkpt lon="78.519605364622336" lat="17.639819961738542">
        <ele>489.52</ele>
        <time>2024-09-25T11:12:09Z</time>
      </trkpt>
      <trkpt lon="78.519605560385685" lat="17.639822057172672">
        <ele>489.533</ele>
        <time>2024-09-25T11:12:09Z</time>
      </trkpt>
      <trkpt lon="78.519605755636178" lat="17.639824155499305">
        <ele>489.544</ele>
        <time>2024-09-25T11:12:09Z</time>
      </trkpt>
      <trkpt lon="78.51960595050295" lat="17.639826256492793">
        <ele>489.552</ele>
        <time>2024-09-25T11:12:09Z</time>
      </trkpt>
      <trkpt lon="78.519606145096674" lat="17.639828359890416">
        <ele>489.558</ele>
        <time>2024-09-25T11:12:09Z</time>
      </trkpt>
      <trkpt lon="78.519606339510261" lat="17.639830465410643">
        <ele>489.563</ele>
        <time>2024-09-25T11:12:09Z</time>
      </trkpt>
      <trkpt lon="78.519606598336438" lat="17.639833196114473">
        <ele>489.482</ele>
        <time>2024-09-25T11:12:10Z</time>
      </trkpt>
      <trkpt lon="78.519606856617131" lat="17.639835860296902">
        <ele>489.414</ele>
        <time>2024-09-25T11:12:10Z</time>
      </trkpt>
      <trkpt lon="78.519607113492896" lat="17.639838458873708">
        <ele>489.356</ele>
        <time>2024-09-25T11:12:10Z</time>
      </trkpt>
      <trkpt lon="78.51960736836466" lat="17.639840994813643">
        <ele>489.31</ele>
        <time>2024-09-25T11:12:10Z</time>
      </trkpt>
      <trkpt lon="78.519607620850422" lat="17.639843472529918">
        <ele>489.273</ele>
        <time>2024-09-25T11:12:10Z</time>
      </trkpt>
      <trkpt lon="78.519607870745105" lat="17.639845897371323">
        <ele>489.244</ele>
        <time>2024-09-25T11:12:10Z</time>
      </trkpt>
      <trkpt lon="78.519608117984077" lat="17.639848275206159">
        <ele>489.223</ele>
        <time>2024-09-25T11:12:10Z</time>
      </trkpt>
      <trkpt lon="78.519608362610882" lat="17.639850612090534">
        <ele>489.208</ele>
        <time>2024-09-25T11:12:10Z</time>
      </trkpt>
      <trkpt lon="78.519608604749024" lat="17.639852914011808">
        <ele>489.199</ele>
        <time>2024-09-25T11:12:10Z</time>
      </trkpt>
      <trkpt lon="78.519608844578059" lat="17.639855186697574">
        <ele>489.193</ele>
        <time>2024-09-25T11:12:10Z</time>
      </trkpt>
      <trkpt lon="78.519609082313536" lat="17.639857435480703">
        <ele>489.192</ele>
        <time>2024-09-25T11:12:10Z</time>
      </trkpt>
      <trkpt lon="78.519609318190618" lat="17.639859665211315">
        <ele>489.193</ele>
        <time>2024-09-25T11:12:10Z</time>
      </trkpt>
      <trkpt lon="78.519609552451143" lat="17.639861880207182">
        <ele>489.195</ele>
        <time>2024-09-25T11:12:10Z</time>
      </trkpt>
      <trkpt lon="78.519609785333529" lat="17.639864084234823">
        <ele>489.2</ele>
        <time>2024-09-25T11:12:10Z</time>
      </trkpt>
      <trkpt lon="78.519610017065389" lat="17.639866280514422">
        <ele>489.205</ele>
        <time>2024-09-25T11:12:10Z</time>
      </trkpt>
      <trkpt lon="78.519610247858225" lat="17.639868471742485">
        <ele>489.21</ele>
        <time>2024-09-25T11:12:10Z</time>
      </trkpt>
      <trkpt lon="78.519610477904124" lat="17.639870660127116">
        <ele>489.216</ele>
        <time>2024-09-25T11:12:10Z</time>
      </trkpt>
      <trkpt lon="78.519610707373772" lat="17.639872847431558">
        <ele>489.222</ele>
        <time>2024-09-25T11:12:10Z</time>
      </trkpt>
      <trkpt lon="78.519610936415887" lat="17.639875035022499">
        <ele>489.227</ele>
        <time>2024-09-25T11:12:10Z</time>
      </trkpt>
      <trkpt lon="78.519611165157428" lat="17.639877223920209">
        <ele>489.232</ele>
        <time>2024-09-25T11:12:10Z</time>
      </trkpt>
      <trkpt lon="78.519611393704494" lat="17.639879414848409">
        <ele>489.237</ele>
        <time>2024-09-25T11:12:10Z</time>
      </trkpt>
      <trkpt lon="78.519611622143856" lat="17.639881608282124">
        <ele>489.241</ele>
        <time>2024-09-25T11:12:10Z</time>
      </trkpt>
      <trkpt lon="78.519611850544663" lat="17.639883804492435">
        <ele>489.245</ele>
        <time>2024-09-25T11:12:10Z</time>
      </trkpt>
      <trkpt lon="78.51961207896035" lat="17.639886003587247">
        <ele>489.248</ele>
        <time>2024-09-25T11:12:10Z</time>
      </trkpt>
      <trkpt lon="78.51961230743072" lat="17.639888205547727">
        <ele>489.251</ele>
        <time>2024-09-25T11:12:10Z</time>
      </trkpt>
      <trkpt lon="78.519612535983839" lat="17.639890410260161">
        <ele>489.253</ele>
        <time>2024-09-25T11:12:10Z</time>
      </trkpt>
      <trkpt lon="78.519612764637998" lat="17.639892617543254">
        <ele>489.254</ele>
        <time>2024-09-25T11:12:10Z</time>
      </trkpt>
      <trkpt lon="78.519612993403513" lat="17.639894827171062">
        <ele>489.256</ele>
        <time>2024-09-25T11:12:10Z</time>
      </trkpt>
      <trkpt lon="78.519613222284249" lat="17.639897038891846">
        <ele>489.257</ele>
        <time>2024-09-25T11:12:10Z</time>
      </trkpt>
      <trkpt lon="78.51961350380995" lat="17.639899900791381">
        <ele>489.018</ele>
        <time>2024-09-25T11:12:11Z</time>
      </trkpt>
      <trkpt lon="78.519613765197107" lat="17.639902687286156">
        <ele>488.817</ele>
        <time>2024-09-25T11:12:11Z</time>
      </trkpt>
      <trkpt lon="78.519614008820113" lat="17.63990540032199">
        <ele>488.651</ele>
        <time>2024-09-25T11:12:11Z</time>
      </trkpt>
      <trkpt lon="78.51961423708579" lat="17.639908043916833">
        <ele>488.517</ele>
        <time>2024-09-25T11:12:11Z</time>
      </trkpt>
      <trkpt lon="78.519614452341727" lat="17.639910623511096">
        <ele>488.413</ele>
        <time>2024-09-25T11:12:11Z</time>
      </trkpt>
      <trkpt lon="78.519614656809438" lat="17.639913145428519">
        <ele>488.333</ele>
        <time>2024-09-25T11:12:11Z</time>
      </trkpt>
      <trkpt lon="78.519614852538183" lat="17.639915616439104">
        <ele>488.276</ele>
        <time>2024-09-25T11:12:11Z</time>
      </trkpt>
      <trkpt lon="78.519615041376198" lat="17.639918043414124">
        <ele>488.237</ele>
        <time>2024-09-25T11:12:11Z</time>
      </trkpt>
      <trkpt lon="78.519615224956055" lat="17.63992043306256">
        <ele>488.214</ele>
        <time>2024-09-25T11:12:11Z</time>
      </trkpt>
      <trkpt lon="78.51961540469101" lat="17.639922791738062">
        <ele>488.203</ele>
        <time>2024-09-25T11:12:11Z</time>
      </trkpt>
      <trkpt lon="78.519615581779931" lat="17.63992512530578">
        <ele>488.201</ele>
        <time>2024-09-25T11:12:11Z</time>
      </trkpt>
      <trkpt lon="78.519615757218418" lat="17.639927439058916">
        <ele>488.207</ele>
        <time>2024-09-25T11:12:11Z</time>
      </trkpt>
      <trkpt lon="78.5196159318143" lat="17.639929737675711">
        <ele>488.219</ele>
        <time>2024-09-25T11:12:11Z</time>
      </trkpt>
      <trkpt lon="78.519616106205802" lat="17.639932025208363">
        <ele>488.234</ele>
        <time>2024-09-25T11:12:11Z</time>
      </trkpt>
      <trkpt lon="78.519616280881124" lat="17.639934305096432">
        <ele>488.251</ele>
        <time>2024-09-25T11:12:11Z</time>
      </trkpt>
      <trkpt lon="78.51961645619842" lat="17.639936580198189">
        <ele>488.269</ele>
        <time>2024-09-25T11:12:11Z</time>
      </trkpt>
      <trkpt lon="78.519616632405359" lat="17.639938852834476">
        <ele>488.288</ele>
        <time>2024-09-25T11:12:11Z</time>
      </trkpt>
      <trkpt lon="78.519616809657776" lat="17.639941124840401">
        <ele>488.306</ele>
        <time>2024-09-25T11:12:11Z</time>
      </trkpt>
      <trkpt lon="78.519616988036816" lat="17.639943397621185">
        <ele>488.323</ele>
        <time>2024-09-25T11:12:11Z</time>
      </trkpt>
      <trkpt lon="78.519617167564505" lat="17.639945672209201">
        <ele>488.338</ele>
        <time>2024-09-25T11:12:11Z</time>
      </trkpt>
      <trkpt lon="78.519617348217579" lat="17.639947949319904">
        <ele>488.352</ele>
        <time>2024-09-25T11:12:11Z</time>
      </trkpt>
      <trkpt lon="78.519617529939396" lat="17.639950229405002">
        <ele>488.365</ele>
        <time>2024-09-25T11:12:11Z</time>
      </trkpt>
      <trkpt lon="78.519617712650174" lat="17.639952512701701">
        <ele>488.375</ele>
        <time>2024-09-25T11:12:11Z</time>
      </trkpt>
      <trkpt lon="78.519617896255397" lat="17.639954799277273">
        <ele>488.384</ele>
        <time>2024-09-25T11:12:11Z</time>
      </trkpt>
      <trkpt lon="78.519618080652762" lat="17.639957089068567">
        <ele>488.392</ele>
        <time>2024-09-25T11:12:11Z</time>
      </trkpt>
      <trkpt lon="78.519618265737634" lat="17.639959381916292">
        <ele>488.398</ele>
        <time>2024-09-25T11:12:11Z</time>
      </trkpt>
      <trkpt lon="78.519618451407283" lat="17.639961677594222">
        <ele>488.403</ele>
        <time>2024-09-25T11:12:11Z</time>
      </trkpt>
      <trkpt lon="78.519618637563951" lat="17.639963975833542">
        <ele>488.406</ele>
        <time>2024-09-25T11:12:11Z</time>
      </trkpt>
      <trkpt lon="78.519618824117003" lat="17.639966276342651">
        <ele>488.409</ele>
        <time>2024-09-25T11:12:11Z</time>
      </trkpt>
      <trkpt lon="78.519619081400052" lat="17.639968937268474">
        <ele>488.414</ele>
        <time>2024-09-25T11:12:12Z</time>
      </trkpt>
      <trkpt lon="78.519619345734171" lat="17.639971253591259">
        <ele>488.418</ele>
        <time>2024-09-25T11:12:12Z</time>
      </trkpt>
      <trkpt lon="78.519619614908876" lat="17.63997327401751">
        <ele>488.421</ele>
        <time>2024-09-25T11:12:12Z</time>
      </trkpt>
      <trkpt lon="78.519619887089689" lat="17.639975045539156">
        <ele>488.423</ele>
        <time>2024-09-25T11:12:12Z</time>
      </trkpt>
      <trkpt lon="78.519620160789415" lat="17.639976612223645">
        <ele>488.425</ele>
        <time>2024-09-25T11:12:12Z</time>
      </trkpt>
      <trkpt lon="78.519620434834195" lat="17.639978014403514">
        <ele>488.425</ele>
        <time>2024-09-25T11:12:12Z</time>
      </trkpt>
      <trkpt lon="78.519620708327182" lat="17.639979288195136">
        <ele>488.425</ele>
        <time>2024-09-25T11:12:12Z</time>
      </trkpt>
      <trkpt lon="78.519620980611478" lat="17.639980465282388">
        <ele>488.425</ele>
        <time>2024-09-25T11:12:12Z</time>
      </trkpt>
      <trkpt lon="78.5196212512339" lat="17.639981572907526">
        <ele>488.425</ele>
        <time>2024-09-25T11:12:12Z</time>
      </trkpt>
      <trkpt lon="78.519621519910515" lat="17.63998263401853">
        <ele>488.424</ele>
        <time>2024-09-25T11:12:12Z</time>
      </trkpt>
      <trkpt lon="78.519621786494895" lat="17.639983667529346">
        <ele>488.423</ele>
        <time>2024-09-25T11:12:12Z</time>
      </trkpt>
      <trkpt lon="78.519622050949295" lat="17.639984688656121">
        <ele>488.423</ele>
        <time>2024-09-25T11:12:12Z</time>
      </trkpt>
      <trkpt lon="78.51962231331926" lat="17.639985709299111">
        <ele>488.422</ele>
        <time>2024-09-25T11:12:12Z</time>
      </trkpt>
      <trkpt lon="78.519622573711501" lat="17.63998673844571">
        <ele>488.421</ele>
        <time>2024-09-25T11:12:12Z</time>
      </trkpt>
      <trkpt lon="78.519622832275147" lat="17.639987782575446">
        <ele>488.42</ele>
        <time>2024-09-25T11:12:12Z</time>
      </trkpt>
      <trkpt lon="78.519623089186098" lat="17.639988846052329">
        <ele>488.419</ele>
        <time>2024-09-25T11:12:12Z</time>
      </trkpt>
      <trkpt lon="78.519623344634383" lat="17.63998993149411">
        <ele>488.419</ele>
        <time>2024-09-25T11:12:12Z</time>
      </trkpt>
      <trkpt lon="78.519623598814022" lat="17.639991040111273">
        <ele>488.418</ele>
        <time>2024-09-25T11:12:12Z</time>
      </trkpt>
      <trkpt lon="78.519623851915327" lat="17.639992172011446">
        <ele>488.417</ele>
        <time>2024-09-25T11:12:12Z</time>
      </trkpt>
      <trkpt lon="78.519624104119217" lat="17.63999332646716">
        <ele>488.417</ele>
        <time>2024-09-25T11:12:12Z</time>
      </trkpt>
      <trkpt lon="78.519624355593237" lat="17.639994502146703">
        <ele>488.417</ele>
        <time>2024-09-25T11:12:12Z</time>
      </trkpt>
      <trkpt lon="78.519624606489032" lat="17.639995697309136">
        <ele>488.416</ele>
        <time>2024-09-25T11:12:12Z</time>
      </trkpt>
      <trkpt lon="78.519624856940979" lat="17.639996909965479">
        <ele>488.416</ele>
        <time>2024-09-25T11:12:12Z</time>
      </trkpt>
      <trkpt lon="78.519625107065821" lat="17.63999813800887">
        <ele>488.416</ele>
        <time>2024-09-25T11:12:12Z</time>
      </trkpt>
      <trkpt lon="78.519625356962891" lat="17.639999379316741">
        <ele>488.416</ele>
        <time>2024-09-25T11:12:12Z</time>
      </trkpt>
      <trkpt lon="78.51962560671501" lat="17.640000631828411">
        <ele>488.416</ele>
        <time>2024-09-25T11:12:12Z</time>
      </trkpt>
      <trkpt lon="78.519625856389609" lat="17.640001893601401">
        <ele>488.416</ele>
        <time>2024-09-25T11:12:12Z</time>
      </trkpt>
      <trkpt lon="78.519626106040235" lat="17.640003162849808">
        <ele>488.416</ele>
        <time>2024-09-25T11:12:12Z</time>
      </trkpt>
      <trkpt lon="78.51962635570807" lat="17.640004437967782">
        <ele>488.416</ele>
        <time>2024-09-25T11:12:12Z</time>
      </trkpt>
      <trkpt lon="78.519626635949493" lat="17.640006246594616">
        <ele>488.507</ele>
        <time>2024-09-25T11:12:13Z</time>
      </trkpt>
      <trkpt lon="78.519626871568903" lat="17.640008145851894">
        <ele>488.585</ele>
        <time>2024-09-25T11:12:13Z</time>
      </trkpt>
      <trkpt lon="78.519627069142615" lat="17.640010112874787">
        <ele>488.649</ele>
        <time>2024-09-25T11:12:13Z</time>
      </trkpt>
      <trkpt lon="78.519627234949226" lat="17.640012128074005">
        <ele>488.7</ele>
        <time>2024-09-25T11:12:13Z</time>
      </trkpt>
      <trkpt lon="78.519627374824879" lat="17.640014175009707">
        <ele>488.74</ele>
        <time>2024-09-25T11:12:13Z</time>
      </trkpt>
      <trkpt lon="78.519627494069525" lat="17.640016240187119">
        <ele>488.771</ele>
        <time>2024-09-25T11:12:13Z</time>
      </trkpt>
      <trkpt lon="78.51962759739483" lat="17.640018312800148">
        <ele>488.793</ele>
        <time>2024-09-25T11:12:13Z</time>
      </trkpt>
      <trkpt lon="78.519627688905388" lat="17.64002038444476">
        <ele>488.808</ele>
        <time>2024-09-25T11:12:13Z</time>
      </trkpt>
      <trkpt lon="78.519627772105622" lat="17.640022448819501">
        <ele>488.817</ele>
        <time>2024-09-25T11:12:13Z</time>
      </trkpt>
      <trkpt lon="78.51962784992584" lat="17.640024501426705">
        <ele>488.821</ele>
        <time>2024-09-25T11:12:13Z</time>
      </trkpt>
      <trkpt lon="78.519627924761764" lat="17.640026539284644">
        <ele>488.821</ele>
        <time>2024-09-25T11:12:13Z</time>
      </trkpt>
      <trkpt lon="78.519627998522992" lat="17.640028560657868">
        <ele>488.819</ele>
        <time>2024-09-25T11:12:13Z</time>
      </trkpt>
      <trkpt lon="78.519628072686345" lat="17.640030564810669">
        <ele>488.814</ele>
        <time>2024-09-25T11:12:13Z</time>
      </trkpt>
      <trkpt lon="78.519628148351089" lat="17.640032551786501">
        <ele>488.809</ele>
        <time>2024-09-25T11:12:13Z</time>
      </trkpt>
      <trkpt lon="78.519628226293719" lat="17.640034522214666">
        <ele>488.802</ele>
        <time>2024-09-25T11:12:13Z</time>
      </trkpt>
      <trkpt lon="78.519628307020483" lat="17.640036477144225">
        <ele>488.795</ele>
        <time>2024-09-25T11:12:13Z</time>
      </trkpt>
      <trkpt lon="78.51962839081628" lat="17.640038417904226">
        <ele>488.788</ele>
        <time>2024-09-25T11:12:13Z</time>
      </trkpt>
      <trkpt lon="78.519628477789311" lat="17.640040345988616">
        <ele>488.781</ele>
        <time>2024-09-25T11:12:13Z</time>
      </trkpt>
      <trkpt lon="78.519628567910786" lat="17.640042262963782">
        <ele>488.774</ele>
        <time>2024-09-25T11:12:13Z</time>
      </trkpt>
      <trkpt lon="78.519628661049666" lat="17.640044170396287">
        <ele>488.768</ele>
        <time>2024-09-25T11:12:13Z</time>
      </trkpt>
      <trkpt lon="78.519628757002394" lat="17.640046069798448">
        <ele>488.763</ele>
        <time>2024-09-25T11:12:13Z</time>
      </trkpt>
      <trkpt lon="78.519628855517766" lat="17.640047962589158">
        <ele>488.758</ele>
        <time>2024-09-25T11:12:13Z</time>
      </trkpt>
      <trkpt lon="78.519628956317447" lat="17.640049850067605">
        <ele>488.754</ele>
        <time>2024-09-25T11:12:13Z</time>
      </trkpt>
      <trkpt lon="78.51962905911229" lat="17.640051733397627">
        <ele>488.75</ele>
        <time>2024-09-25T11:12:13Z</time>
      </trkpt>
      <trkpt lon="78.519629163615051" lat="17.640053613600621">
        <ele>488.748</ele>
        <time>2024-09-25T11:12:13Z</time>
      </trkpt>
      <trkpt lon="78.519629269549853" lat="17.640055491555124">
        <ele>488.745</ele>
        <time>2024-09-25T11:12:13Z</time>
      </trkpt>
      <trkpt lon="78.51962937665904" lat="17.640057368001482">
        <ele>488.743</ele>
        <time>2024-09-25T11:12:13Z</time>
      </trkpt>
      <trkpt lon="78.519629484707579" lat="17.640059243550155">
        <ele>488.742</ele>
        <time>2024-09-25T11:12:13Z</time>
      </trkpt>
      <trkpt lon="78.519629593485689" lat="17.640061118692493">
        <ele>488.741</ele>
        <time>2024-09-25T11:12:13Z</time>
      </trkpt>
      <trkpt lon="78.519629753655209" lat="17.640063575210192">
        <ele>488.631</ele>
        <time>2024-09-25T11:12:14Z</time>
      </trkpt>
      <trkpt lon="78.519629926535785" lat="17.640065992895401">
        <ele>488.539</ele>
        <time>2024-09-25T11:12:14Z</time>
      </trkpt>
      <trkpt lon="78.519630109280115" lat="17.640068369221726">
        <ele>488.463</ele>
        <time>2024-09-25T11:12:14Z</time>
      </trkpt>
      <trkpt lon="78.51963029939931" lat="17.64007070372109">
        <ele>488.401</ele>
        <time>2024-09-25T11:12:14Z</time>
      </trkpt>
      <trkpt lon="78.519630494761103" lat="17.640072997493263">
        <ele>488.354</ele>
        <time>2024-09-25T11:12:14Z</time>
      </trkpt>
      <trkpt lon="78.51963069357609" lat="17.640075252781681">
        <ele>488.318</ele>
        <time>2024-09-25T11:12:14Z</time>
      </trkpt>
      <trkpt lon="78.519630894375439" lat="17.640077472613982">
        <ele>488.292</ele>
        <time>2024-09-25T11:12:14Z</time>
      </trkpt>
      <trkpt lon="78.519631095983016" lat="17.640079660503801">
        <ele>488.275</ele>
        <time>2024-09-25T11:12:14Z</time>
      </trkpt>
      <trkpt lon="78.519631297484167" lat="17.640081820209112">
        <ele>488.264</ele>
        <time>2024-09-25T11:12:14Z</time>
      </trkpt>
      <trkpt lon="78.519631498193107" lat="17.640083955541542">
        <ele>488.26</ele>
        <time>2024-09-25T11:12:14Z</time>
      </trkpt>
      <trkpt lon="78.519631697620397" lat="17.640086070220811">
        <ele>488.26</ele>
        <time>2024-09-25T11:12:14Z</time>
      </trkpt>
      <trkpt lon="78.519631895441591" lat="17.640088167768159">
        <ele>488.263</ele>
        <time>2024-09-25T11:12:14Z</time>
      </trkpt>
      <trkpt lon="78.519632091467912" lat="17.640090251432927">
        <ele>488.268</ele>
        <time>2024-09-25T11:12:14Z</time>
      </trkpt>
      <trkpt lon="78.51963228561938" lat="17.640092324146654">
        <ele>488.275</ele>
        <time>2024-09-25T11:12:14Z</time>
      </trkpt>
      <trkpt lon="78.519632477900814" lat="17.640094388499495">
        <ele>488.284</ele>
        <time>2024-09-25T11:12:14Z</time>
      </trkpt>
      <trkpt lon="78.519632668380765" lat="17.640096446734312">
        <ele>488.292</ele>
        <time>2024-09-25T11:12:14Z</time>
      </trkpt>
      <trkpt lon="78.519632857173548" lat="17.640098500754284">
        <ele>488.301</ele>
        <time>2024-09-25T11:12:14Z</time>
      </trkpt>
      <trkpt lon="78.519633044423855" lat="17.640100552140435">
        <ele>488.309</ele>
        <time>2024-09-25T11:12:14Z</time>
      </trkpt>
      <trkpt lon="78.51963323029436" lat="17.640102602176036">
        <ele>488.317</ele>
        <time>2024-09-25T11:12:14Z</time>
      </trkpt>
      <trkpt lon="78.519633414955607" lat="17.640104651875337">
        <ele>488.324</ele>
        <time>2024-09-25T11:12:14Z</time>
      </trkpt>
      <trkpt lon="78.519633598578125" lat="17.640106702014581">
        <ele>488.331</ele>
        <time>2024-09-25T11:12:14Z</time>
      </trkpt>
      <trkpt lon="78.519633781326561" lat="17.640108753163624">
        <ele>488.337</ele>
        <time>2024-09-25T11:12:14Z</time>
      </trkpt>
      <trkpt lon="78.519633963355389" lat="17.640110805716972">
        <ele>488.341</ele>
        <time>2024-09-25T11:12:14Z</time>
      </trkpt>
      <trkpt lon="78.519634144806034" lat="17.640112859923232">
        <ele>488.346</ele>
        <time>2024-09-25T11:12:14Z</time>
      </trkpt>
      <trkpt lon="78.519634325805185" lat="17.640114915912413">
        <ele>488.349</ele>
        <time>2024-09-25T11:12:14Z</time>
      </trkpt>
      <trkpt lon="78.51963450646403" lat="17.640116973720591">
        <ele>488.352</ele>
        <time>2024-09-25T11:12:14Z</time>
      </trkpt>
      <trkpt lon="78.519634686878177" lat="17.640119033311791">
        <ele>488.354</ele>
        <time>2024-09-25T11:12:14Z</time>
      </trkpt>
      <trkpt lon="78.519634867128218" lat="17.640121094596971">
        <ele>488.356</ele>
        <time>2024-09-25T11:12:14Z</time>
      </trkpt>
      <trkpt lon="78.519635047280602" lat="17.64012315745018">
        <ele>488.357</ele>
        <time>2024-09-25T11:12:14Z</time>
      </trkpt>
      <trkpt lon="78.519635287878842" lat="17.640125761731301">
        <ele>488.169</ele>
        <time>2024-09-25T11:12:15Z</time>
      </trkpt>
      <trkpt lon="78.519635528605306" lat="17.640128240946137">
        <ele>488.01</ele>
        <time>2024-09-25T11:12:15Z</time>
      </trkpt>
      <trkpt lon="78.519635768546536" lat="17.640130606544108">
        <ele>487.879</ele>
        <time>2024-09-25T11:12:15Z</time>
      </trkpt>
      <trkpt lon="78.519636007041228" lat="17.64013287110177">
        <ele>487.774</ele>
        <time>2024-09-25T11:12:15Z</time>
      </trkpt>
      <trkpt lon="78.519636243641145" lat="17.640135047608556">
        <ele>487.691</ele>
        <time>2024-09-25T11:12:15Z</time>
      </trkpt>
      <trkpt lon="78.519636478074176" lat="17.640137148914029">
        <ele>487.628</ele>
        <time>2024-09-25T11:12:15Z</time>
      </trkpt>
      <trkpt lon="78.519636710210463" lat="17.640139187316048">
        <ele>487.583</ele>
        <time>2024-09-25T11:12:15Z</time>
      </trkpt>
      <trkpt lon="78.519636940031873" lat="17.64014117426952">
        <ele>487.552</ele>
        <time>2024-09-25T11:12:15Z</time>
      </trkpt>
      <trkpt lon="78.51963716760514" lat="17.640143120196075">
        <ele>487.534</ele>
        <time>2024-09-25T11:12:15Z</time>
      </trkpt>
      <trkpt lon="78.519637393058645" lat="17.640145034376538">
        <ele>487.525</ele>
        <time>2024-09-25T11:12:15Z</time>
      </trkpt>
      <trkpt lon="78.519637616562775" lat="17.640146924909438">
        <ele>487.523</ele>
        <time>2024-09-25T11:12:15Z</time>
      </trkpt>
      <trkpt lon="78.51963783831367" lat="17.640148798720837">
        <ele>487.528</ele>
        <time>2024-09-25T11:12:15Z</time>
      </trkpt>
      <trkpt lon="78.519638058520073" lat="17.640150661612427">
        <ele>487.537</ele>
        <time>2024-09-25T11:12:15Z</time>
      </trkpt>
      <trkpt lon="78.519638277392986" lat="17.640152518336848">
        <ele>487.548</ele>
        <time>2024-09-25T11:12:15Z</time>
      </trkpt>
      <trkpt lon="78.519638495137741" lat="17.640154372690898">
        <ele>487.562</ele>
        <time>2024-09-25T11:12:15Z</time>
      </trkpt>
      <trkpt lon="78.519638711948346" lat="17.64015622761897">
        <ele>487.576</ele>
        <time>2024-09-25T11:12:15Z</time>
      </trkpt>
      <trkpt lon="78.519638928003474" lat="17.640158085320675">
        <ele>487.591</ele>
        <time>2024-09-25T11:12:15Z</time>
      </trkpt>
      <trkpt lon="78.519639143464047" lat="17.64015994735778">
        <ele>487.605</ele>
        <time>2024-09-25T11:12:15Z</time>
      </trkpt>
      <trkpt lon="78.519639358471991" lat="17.640161814757008">
        <ele>487.618</ele>
        <time>2024-09-25T11:12:15Z</time>
      </trkpt>
      <trkpt lon="78.519639573150059" lat="17.640163688106092">
        <ele>487.63</ele>
        <time>2024-09-25T11:12:15Z</time>
      </trkpt>
      <trkpt lon="78.519639787602216" lat="17.640165567641446">
        <ele>487.641</ele>
        <time>2024-09-25T11:12:15Z</time>
      </trkpt>
      <trkpt lon="78.519640001914681" lat="17.640167453326438">
        <ele>487.651</ele>
        <time>2024-09-25T11:12:15Z</time>
      </trkpt>
      <trkpt lon="78.519640216157285" lat="17.640169344919887">
        <ele>487.66</ele>
        <time>2024-09-25T11:12:15Z</time>
      </trkpt>
      <trkpt lon="78.519640430385124" lat="17.640171242034786">
        <ele>487.667</ele>
        <time>2024-09-25T11:12:15Z</time>
      </trkpt>
      <trkpt lon="78.519640644640219" lat="17.640173144187653">
        <ele>487.673</ele>
        <time>2024-09-25T11:12:15Z</time>
      </trkpt>
      <trkpt lon="78.519640858953295" lat="17.640175050839066">
        <ele>487.677</ele>
        <time>2024-09-25T11:12:15Z</time>
      </trkpt>
      <trkpt lon="78.519641073345525" lat="17.640176961426167">
        <ele>487.681</ele>
        <time>2024-09-25T11:12:15Z</time>
      </trkpt>
      <trkpt lon="78.519641287830098" lat="17.640178875387996">
        <ele>487.684</ele>
        <time>2024-09-25T11:12:15Z</time>
      </trkpt>
      <trkpt lon="78.519641502413762" lat="17.64018079218447">
        <ele>487.686</ele>
        <time>2024-09-25T11:12:15Z</time>
      </trkpt>
      <trkpt lon="78.519641789105634" lat="17.640183291770864">
        <ele>487.502</ele>
        <time>2024-09-25T11:12:16Z</time>
      </trkpt>
      <trkpt lon="78.519642076087763" lat="17.640185742378385">
        <ele>487.346</ele>
        <time>2024-09-25T11:12:16Z</time>
      </trkpt>
      <trkpt lon="78.519642362224289" lat="17.640188142719406">
        <ele>487.217</ele>
        <time>2024-09-25T11:12:16Z</time>
      </trkpt>
      <trkpt lon="78.519642646688339" lat="17.640190493568994">
        <ele>487.114</ele>
        <time>2024-09-25T11:12:16Z</time>
      </trkpt>
      <trkpt lon="78.519642928914735" lat="17.640192797230203">
        <ele>487.032</ele>
        <time>2024-09-25T11:12:16Z</time>
      </trkpt>
      <trkpt lon="78.519643208555067" lat="17.640195057077904">
        <ele>486.97</ele>
        <time>2024-09-25T11:12:16Z</time>
      </trkpt>
      <trkpt lon="78.519643485436575" lat="17.640197277177741">
        <ele>486.925</ele>
        <time>2024-09-25T11:12:16Z</time>
      </trkpt>
      <trkpt lon="78.519643759524826" lat="17.640199461974856">
        <ele>486.895</ele>
        <time>2024-09-25T11:12:16Z</time>
      </trkpt>
      <trkpt lon="78.519644030890859" lat="17.640201616046099">
        <ele>486.876</ele>
        <time>2024-09-25T11:12:16Z</time>
      </trkpt>
      <trkpt lon="78.519644299682767" lat="17.640203743908653">
        <ele>486.867</ele>
        <time>2024-09-25T11:12:16Z</time>
      </trkpt>
      <trkpt lon="78.51964456610159" lat="17.640205849877837">
        <ele>486.866</ele>
        <time>2024-09-25T11:12:16Z</time>
      </trkpt>
      <trkpt lon="78.519644830381282" lat="17.640207937966942">
        <ele>486.87</ele>
        <time>2024-09-25T11:12:16Z</time>
      </trkpt>
      <trkpt lon="78.519645092772507" lat="17.640210011822212">
        <ele>486.878</ele>
        <time>2024-09-25T11:12:16Z</time>
      </trkpt>
      <trkpt lon="78.519645353529782" lat="17.640212074686566">
        <ele>486.89</ele>
        <time>2024-09-25T11:12:16Z</time>
      </trkpt>
      <trkpt lon="78.519645612901726" lat="17.640214129386266">
        <ele>486.903</ele>
        <time>2024-09-25T11:12:16Z</time>
      </trkpt>
      <trkpt lon="78.519645871123842" lat="17.640216178335351">
        <ele>486.917</ele>
        <time>2024-09-25T11:12:16Z</time>
      </trkpt>
      <trkpt lon="78.519646128413612" lat="17.640218223553269">
        <ele>486.931</ele>
        <time>2024-09-25T11:12:16Z</time>
      </trkpt>
      <trkpt lon="78.519646384967359" lat="17.640220266691895">
        <ele>486.945</ele>
        <time>2024-09-25T11:12:16Z</time>
      </trkpt>
      <trkpt lon="78.519646640958612" lat="17.640222309068644">
        <ele>486.958</ele>
        <time>2024-09-25T11:12:16Z</time>
      </trkpt>
      <trkpt lon="78.519646896537736" lat="17.640224351703072">
        <ele>486.97</ele>
        <time>2024-09-25T11:12:16Z</time>
      </trkpt>
      <trkpt lon="78.519647151832373" lat="17.640226395354777">
        <ele>486.98</ele>
        <time>2024-09-25T11:12:16Z</time>
      </trkpt>
      <trkpt lon="78.519647406948636" lat="17.640228440561032">
        <ele>486.99</ele>
        <time>2024-09-25T11:12:16Z</time>
      </trkpt>
      <trkpt lon="78.519647661972726" lat="17.640230487672859">
        <ele>486.998</ele>
        <time>2024-09-25T11:12:16Z</time>
      </trkpt>
      <trkpt lon="78.519647916972787" lat="17.640232536888679">
        <ele>487.005</ele>
        <time>2024-09-25T11:12:16Z</time>
      </trkpt>
      <trkpt lon="78.519648172001041" lat="17.640234588284994">
        <ele>487.011</ele>
        <time>2024-09-25T11:12:16Z</time>
      </trkpt>
      <trkpt lon="78.519648427095873" lat="17.640236641843746">
        <ele>487.016</ele>
        <time>2024-09-25T11:12:16Z</time>
      </trkpt>
      <trkpt lon="78.519648682283901" lat="17.640238697476228">
        <ele>487.02</ele>
        <time>2024-09-25T11:12:16Z</time>
      </trkpt>
      <trkpt lon="78.519648937581948" lat="17.64024075504355">
        <ele>487.022</ele>
        <time>2024-09-25T11:12:16Z</time>
      </trkpt>
      <trkpt lon="78.519649192998898" lat="17.640242814373821">
        <ele>487.024</ele>
        <time>2024-09-25T11:12:16Z</time>
      </trkpt>
      <trkpt lon="78.51964951249191" lat="17.640245391220603">
        <ele>486.918</ele>
        <time>2024-09-25T11:12:17Z</time>
      </trkpt>
      <trkpt lon="78.51964981399216" lat="17.640247823774573">
        <ele>486.828</ele>
        <time>2024-09-25T11:12:17Z</time>
      </trkpt>
      <trkpt lon="78.519650099365023" lat="17.640250126863794">
        <ele>486.754</ele>
        <time>2024-09-25T11:12:17Z</time>
      </trkpt>
      <trkpt lon="78.519650370576727" lat="17.640252316162069">
        <ele>486.694</ele>
        <time>2024-09-25T11:12:17Z</time>
      </trkpt>
      <trkpt lon="78.519650629601244" lat="17.640254407436409">
        <ele>486.647</ele>
        <time>2024-09-25T11:12:17Z</time>
      </trkpt>
      <trkpt lon="78.51965087834985" lat="17.640256415976502">
        <ele>486.611</ele>
        <time>2024-09-25T11:12:17Z</time>
      </trkpt>
      <trkpt lon="78.51965111862016" lat="17.640258356181238">
        <ele>486.584</ele>
        <time>2024-09-25T11:12:17Z</time>
      </trkpt>
      <trkpt lon="78.519651352061672" lat="17.640260241277943">
        <ele>486.566</ele>
        <time>2024-09-25T11:12:17Z</time>
      </trkpt>
      <trkpt lon="78.519651580154999" lat="17.640262083151423">
        <ele>486.555</ele>
        <time>2024-09-25T11:12:17Z</time>
      </trkpt>
      <trkpt lon="78.519651804201942" lat="17.640263892261739">
        <ele>486.55</ele>
        <time>2024-09-25T11:12:17Z</time>
      </trkpt>
      <trkpt lon="78.519652025324376" lat="17.640265677631678">
        <ele>486.549</ele>
        <time>2024-09-25T11:12:17Z</time>
      </trkpt>
      <trkpt lon="78.519652244469555" lat="17.640267446887233">
        <ele>486.551</ele>
        <time>2024-09-25T11:12:17Z</time>
      </trkpt>
      <trkpt lon="78.519652462420169" lat="17.64026920633664">
        <ele>486.556</ele>
        <time>2024-09-25T11:12:17Z</time>
      </trkpt>
      <trkpt lon="78.519652679807749" lat="17.640270961075696">
        <ele>486.562</ele>
        <time>2024-09-25T11:12:17Z</time>
      </trkpt>
      <trkpt lon="78.519652897127884" lat="17.640272715109283">
        <ele>486.57</ele>
        <time>2024-09-25T11:12:17Z</time>
      </trkpt>
      <trkpt lon="78.519653114756494" lat="17.640274471480843">
        <ele>486.577</ele>
        <time>2024-09-25T11:12:17Z</time>
      </trkpt>
      <trkpt lon="78.519653332966257" lat="17.640276232403373">
        <ele>486.585</ele>
        <time>2024-09-25T11:12:17Z</time>
      </trkpt>
      <trkpt lon="78.519653551942525" lat="17.640277999387017">
        <ele>486.593</ele>
        <time>2024-09-25T11:12:17Z</time>
      </trkpt>
      <trkpt lon="78.519653771798403" lat="17.640279773359644">
        <ele>486.601</ele>
        <time>2024-09-25T11:12:17Z</time>
      </trkpt>
      <trkpt lon="78.519653992588616" lat="17.640281554777978">
        <ele>486.608</ele>
        <time>2024-09-25T11:12:17Z</time>
      </trkpt>
      <trkpt lon="78.519654214321946" lat="17.640283343727724">
        <ele>486.614</ele>
        <time>2024-09-25T11:12:17Z</time>
      </trkpt>
      <trkpt lon="78.519654436972289" lat="17.640285140011926">
        <ele>486.619</ele>
        <time>2024-09-25T11:12:17Z</time>
      </trkpt>
      <trkpt lon="78.519654660488087" lat="17.640286943227398">
        <ele>486.624</ele>
        <time>2024-09-25T11:12:17Z</time>
      </trkpt>
      <trkpt lon="78.519654884800431" lat="17.640288752829498">
        <ele>486.628</ele>
        <time>2024-09-25T11:12:17Z</time>
      </trkpt>
      <trkpt lon="78.519655109829742" lat="17.640290568185865">
        <ele>486.632</ele>
        <time>2024-09-25T11:12:17Z</time>
      </trkpt>
      <trkpt lon="78.51965533549108" lat="17.640292388619969">
        <ele>486.634</ele>
        <time>2024-09-25T11:12:17Z</time>
      </trkpt>
      <trkpt lon="78.519655561698499" lat="17.640294213445493">
        <ele>486.636</ele>
        <time>2024-09-25T11:12:17Z</time>
      </trkpt>
      <trkpt lon="78.519655788368254" lat="17.640296041992574">
        <ele>486.638</ele>
        <time>2024-09-25T11:12:17Z</time>
      </trkpt>
      <trkpt lon="78.519656015421134" lat="17.640297873627002">
        <ele>486.639</ele>
        <time>2024-09-25T11:12:17Z</time>
      </trkpt>
      <trkpt lon="78.519656299060458" lat="17.640300216872298">
        <ele>486.793</ele>
        <time>2024-09-25T11:12:18Z</time>
      </trkpt>
      <trkpt lon="78.519656566414412" lat="17.640302475181041">
        <ele>486.922</ele>
        <time>2024-09-25T11:12:18Z</time>
      </trkpt>
      <trkpt lon="78.519656819164638" lat="17.640304653975004">
        <ele>487.028</ele>
        <time>2024-09-25T11:12:18Z</time>
      </trkpt>
      <trkpt lon="78.519657059085958" lat="17.640306760102668">
        <ele>487.114</ele>
        <time>2024-09-25T11:12:18Z</time>
      </trkpt>
      <trkpt lon="78.519657287961806" lat="17.640308801250153">
        <ele>487.18</ele>
        <time>2024-09-25T11:12:18Z</time>
      </trkpt>
      <trkpt lon="78.519657507520137" lat="17.640310785468078">
        <ele>487.231</ele>
        <time>2024-09-25T11:12:18Z</time>
      </trkpt>
      <trkpt lon="78.519657719387112" lat="17.640312720802228">
        <ele>487.267</ele>
        <time>2024-09-25T11:12:18Z</time>
      </trkpt>
      <trkpt lon="78.519657925055682" lat="17.640314615015328">
        <ele>487.291</ele>
        <time>2024-09-25T11:12:18Z</time>
      </trkpt>
      <trkpt lon="78.519658125866499" lat="17.640316475387138">
        <ele>487.306</ele>
        <time>2024-09-25T11:12:18Z</time>
      </trkpt>
      <trkpt lon="78.519658322998893" lat="17.640318308580529">
        <ele>487.312</ele>
        <time>2024-09-25T11:12:18Z</time>
      </trkpt>
      <trkpt lon="78.519658517469594" lat="17.640320120561952">
        <ele>487.312</ele>
        <time>2024-09-25T11:12:18Z</time>
      </trkpt>
      <trkpt lon="78.519658710137492" lat="17.640321916565686">
        <ele>487.308</ele>
        <time>2024-09-25T11:12:18Z</time>
      </trkpt>
      <trkpt lon="78.519658901712589" lat="17.640323701092299">
        <ele>487.3</ele>
        <time>2024-09-25T11:12:18Z</time>
      </trkpt>
      <trkpt lon="78.519659092768094" lat="17.640325477932983">
        <ele>487.29</ele>
        <time>2024-09-25T11:12:18Z</time>
      </trkpt>
      <trkpt lon="78.519659283754152" lat="17.640327250212518">
        <ele>487.279</ele>
        <time>2024-09-25T11:12:18Z</time>
      </trkpt>
      <trkpt lon="78.51965947501246" lat="17.640329020444813">
        <ele>487.267</ele>
        <time>2024-09-25T11:12:18Z</time>
      </trkpt>
      <trkpt lon="78.519659666791171" lat="17.640330790596">
        <ele>487.255</ele>
        <time>2024-09-25T11:12:18Z</time>
      </trkpt>
      <trkpt lon="78.519659859259264" lat="17.640332562150984">
        <ele>487.243</ele>
        <time>2024-09-25T11:12:18Z</time>
      </trkpt>
      <trkpt lon="78.51966005252018" lat="17.640334336180373">
        <ele>487.232</ele>
        <time>2024-09-25T11:12:18Z</time>
      </trkpt>
      <trkpt lon="78.519660246624341" lat="17.640336113405258">
        <ele>487.222</ele>
        <time>2024-09-25T11:12:18Z</time>
      </trkpt>
      <trkpt lon="78.519660441580484" lat="17.640337894258245">
        <ele>487.213</ele>
        <time>2024-09-25T11:12:18Z</time>
      </trkpt>
      <trkpt lon="78.519660637365618" lat="17.640339678939434">
        <ele>487.205</ele>
        <time>2024-09-25T11:12:18Z</time>
      </trkpt>
      <trkpt lon="78.519660833933614" lat="17.640341467466705">
        <ele>487.198</ele>
        <time>2024-09-25T11:12:18Z</time>
      </trkpt>
      <trkpt lon="78.519661031222512" lat="17.640343259719984">
        <ele>487.193</ele>
        <time>2024-09-25T11:12:18Z</time>
      </trkpt>
      <trkpt lon="78.519661229160562" lat="17.64034505547934">
        <ele>487.188</ele>
        <time>2024-09-25T11:12:18Z</time>
      </trkpt>
      <trkpt lon="78.519661427671139" lat="17.640346854457231">
        <ele>487.184</ele>
        <time>2024-09-25T11:12:18Z</time>
      </trkpt>
      <trkpt lon="78.519661626676609" lat="17.640348656325127">
        <ele>487.181</ele>
        <time>2024-09-25T11:12:18Z</time>
      </trkpt>
      <trkpt lon="78.519661826101228" lat="17.640350460735007">
        <ele>487.179</ele>
        <time>2024-09-25T11:12:18Z</time>
      </trkpt>
      <trkpt lon="78.519662025873401" lat="17.640352267336244">
        <ele>487.177</ele>
        <time>2024-09-25T11:12:18Z</time>
      </trkpt>
      <trkpt lon="78.519662310669247" lat="17.640354518695304">
        <ele>487.008</ele>
        <time>2024-09-25T11:12:19Z</time>
      </trkpt>
      <trkpt lon="78.519662610824241" lat="17.640356635720089">
        <ele>486.867</ele>
        <time>2024-09-25T11:12:19Z</time>
      </trkpt>
      <trkpt lon="78.519662922609683" lat="17.640358632715493">
        <ele>486.75</ele>
        <time>2024-09-25T11:12:19Z</time>
      </trkpt>
      <trkpt lon="78.51966324281095" lat="17.64036052463328">
        <ele>486.656</ele>
        <time>2024-09-25T11:12:19Z</time>
      </trkpt>
      <trkpt lon="78.519663568712474" lat="17.640362326393554">
        <ele>486.583</ele>
        <time>2024-09-25T11:12:19Z</time>
      </trkpt>
      <trkpt lon="78.519663898069311" lat="17.640364052374416">
        <ele>486.528</ele>
        <time>2024-09-25T11:12:19Z</time>
      </trkpt>
      <trkpt lon="78.519664229069164" lat="17.640365716046038">
        <ele>486.489</ele>
        <time>2024-09-25T11:12:19Z</time>
      </trkpt>
      <trkpt lon="78.519664560288817" lat="17.640367329726388">
        <ele>486.462</ele>
        <time>2024-09-25T11:12:19Z</time>
      </trkpt>
      <trkpt lon="78.519664890647832" lat="17.640368904437089">
        <ele>486.447</ele>
        <time>2024-09-25T11:12:19Z</time>
      </trkpt>
      <trkpt lon="78.519665219361613" lat="17.640370449839789">
        <ele>486.44</ele>
        <time>2024-09-25T11:12:19Z</time>
      </trkpt>
      <trkpt lon="78.519665545895876" lat="17.640371974235432">
        <ele>486.439</ele>
        <time>2024-09-25T11:12:19Z</time>
      </trkpt>
      <trkpt lon="78.519665869923571" lat="17.640373484610951">
        <ele>486.444</ele>
        <time>2024-09-25T11:12:19Z</time>
      </trkpt>
      <trkpt lon="78.519666191285182" lat="17.640374986720104">
        <ele>486.453</ele>
        <time>2024-09-25T11:12:19Z</time>
      </trkpt>
      <trkpt lon="78.519666509953069" lat="17.64037648518725">
        <ele>486.464</ele>
        <time>2024-09-25T11:12:19Z</time>
      </trkpt>
      <trkpt lon="78.519666825999963" lat="17.640377983624791">
        <ele>486.476</ele>
        <time>2024-09-25T11:12:19Z</time>
      </trkpt>
      <trkpt lon="78.519667139571681" lat="17.640379484756838">
        <ele>486.489</ele>
        <time>2024-09-25T11:12:19Z</time>
      </trkpt>
      <trkpt lon="78.519667450864134" lat="17.640380990543285">
        <ele>486.503</ele>
        <time>2024-09-25T11:12:19Z</time>
      </trkpt>
      <trkpt lon="78.519667760104156" lat="17.640382502299897">
        <ele>486.516</ele>
        <time>2024-09-25T11:12:19Z</time>
      </trkpt>
      <trkpt lon="78.519668067533999" lat="17.640384020811169">
        <ele>486.528</ele>
        <time>2024-09-25T11:12:19Z</time>
      </trkpt>
      <trkpt lon="78.519668373399156" lat="17.64038554643389">
        <ele>486.539</ele>
        <time>2024-09-25T11:12:19Z</time>
      </trkpt>
      <trkpt lon="78.519668677939023" lat="17.640387079190042">
        <ele>486.549</ele>
        <time>2024-09-25T11:12:19Z</time>
      </trkpt>
      <trkpt lon="78.519668981380065" lat="17.640388618848451">
        <ele>486.557</ele>
        <time>2024-09-25T11:12:19Z</time>
      </trkpt>
      <trkpt lon="78.519669283931194" lat="17.64039016499515">
        <ele>486.565</ele>
        <time>2024-09-25T11:12:19Z</time>
      </trkpt>
      <trkpt lon="78.519669585780747" lat="17.640391717092754">
        <ele>486.571</ele>
        <time>2024-09-25T11:12:19Z</time>
      </trkpt>
      <trkpt lon="78.51966988709512" lat="17.640393274529497">
        <ele>486.577</ele>
        <time>2024-09-25T11:12:19Z</time>
      </trkpt>
      <trkpt lon="78.519670188018281" lat="17.64039483665881">
        <ele>486.581</ele>
        <time>2024-09-25T11:12:19Z</time>
      </trkpt>
      <trkpt lon="78.519670488672361" lat="17.640396402830316">
        <ele>486.584</ele>
        <time>2024-09-25T11:12:19Z</time>
      </trkpt>
      <trkpt lon="78.519670789158781" lat="17.640397972413382">
        <ele>486.587</ele>
        <time>2024-09-25T11:12:19Z</time>
      </trkpt>
      <trkpt lon="78.519671089559807" lat="17.640399544814141">
        <ele>486.589</ele>
        <time>2024-09-25T11:12:19Z</time>
      </trkpt>
      <trkpt lon="78.519671454363234" lat="17.640401659215442">
        <ele>486.724</ele>
        <time>2024-09-25T11:12:20Z</time>
      </trkpt>
      <trkpt lon="78.519671788743807" lat="17.640403787329351">
        <ele>486.837</ele>
        <time>2024-09-25T11:12:20Z</time>
      </trkpt>
      <trkpt lon="78.519672096542976" lat="17.640405918598752">
        <ele>486.931</ele>
        <time>2024-09-25T11:12:20Z</time>
      </trkpt>
      <trkpt lon="78.519672381579625" lat="17.640408044955933">
        <ele>487.006</ele>
        <time>2024-09-25T11:12:20Z</time>
      </trkpt>
      <trkpt lon="78.519672647523009" lat="17.640410160489932">
        <ele>487.064</ele>
        <time>2024-09-25T11:12:20Z</time>
      </trkpt>
      <trkpt lon="78.519672897802153" lat="17.640412261120851">
        <ele>487.108</ele>
        <time>2024-09-25T11:12:20Z</time>
      </trkpt>
      <trkpt lon="78.519673135545929" lat="17.640414344290765">
        <ele>487.139</ele>
        <time>2024-09-25T11:12:20Z</time>
      </trkpt>
      <trkpt lon="78.519673363548264" lat="17.640416408677872">
        <ele>487.16</ele>
        <time>2024-09-25T11:12:20Z</time>
      </trkpt>
      <trkpt lon="78.519673584253582" lat="17.640418453938093">
        <ele>487.173</ele>
        <time>2024-09-25T11:12:20Z</time>
      </trkpt>
      <trkpt lon="78.519673799757925" lat="17.640420480476308">
        <ele>487.178</ele>
        <time>2024-09-25T11:12:20Z</time>
      </trkpt>
      <trkpt lon="78.519674011821962" lat="17.640422489247925">
        <ele>487.178</ele>
        <time>2024-09-25T11:12:20Z</time>
      </trkpt>
      <trkpt lon="78.519674221892387" lat="17.640424481590152">
        <ele>487.174</ele>
        <time>2024-09-25T11:12:20Z</time>
      </trkpt>
      <trkpt lon="78.51967443112899" lat="17.640426459081581">
        <ele>487.167</ele>
        <time>2024-09-25T11:12:20Z</time>
      </trkpt>
      <trkpt lon="78.519674640434971" lat="17.640428423427934">
        <ele>487.158</ele>
        <time>2024-09-25T11:12:20Z</time>
      </trkpt>
      <trkpt lon="78.519674850488784" lat="17.640430376371519">
        <ele>487.148</ele>
        <time>2024-09-25T11:12:20Z</time>
      </trkpt>
      <trkpt lon="78.519675061775885" lat="17.640432319621731">
        <ele>487.138</ele>
        <time>2024-09-25T11:12:20Z</time>
      </trkpt>
      <trkpt lon="78.519675274619388" lat="17.640434254803775">
        <ele>487.127</ele>
        <time>2024-09-25T11:12:20Z</time>
      </trkpt>
      <trkpt lon="78.519675489208794" lat="17.640436183422953">
        <ele>487.117</ele>
        <time>2024-09-25T11:12:20Z</time>
      </trkpt>
      <trkpt lon="78.519675705626355" lat="17.640438106841916">
        <ele>487.107</ele>
        <time>2024-09-25T11:12:20Z</time>
      </trkpt>
      <trkpt lon="78.519675923870537" lat="17.640440026268443">
        <ele>487.098</ele>
        <time>2024-09-25T11:12:20Z</time>
      </trkpt>
      <trkpt lon="78.519676143876779" lat="17.640441942751625">
        <ele>487.09</ele>
        <time>2024-09-25T11:12:20Z</time>
      </trkpt>
      <trkpt lon="78.519676365535219" lat="17.640443857184515">
        <ele>487.083</ele>
        <time>2024-09-25T11:12:20Z</time>
      </trkpt>
      <trkpt lon="78.519676588705636" lat="17.640445770311505">
        <ele>487.077</ele>
        <time>2024-09-25T11:12:20Z</time>
      </trkpt>
      <trkpt lon="78.51967681322985" lat="17.640447682739087">
        <ele>487.072</ele>
        <time>2024-09-25T11:12:20Z</time>
      </trkpt>
      <trkpt lon="78.519677038941595" lat="17.640449594948731">
        <ele>487.068</ele>
        <time>2024-09-25T11:12:20Z</time>
      </trkpt>
      <trkpt lon="78.519677265674275" lat="17.640451507310949">
        <ele>487.064</ele>
        <time>2024-09-25T11:12:20Z</time>
      </trkpt>
      <trkpt lon="78.519677493266883" lat="17.640453420099739">
        <ele>487.061</ele>
        <time>2024-09-25T11:12:20Z</time>
      </trkpt>
      <trkpt lon="78.519677721568172" lat="17.640455333506825">
        <ele>487.059</ele>
        <time>2024-09-25T11:12:20Z</time>
      </trkpt>
      <trkpt lon="78.519677950439515" lat="17.640457247655267">
        <ele>487.058</ele>
        <time>2024-09-25T11:12:20Z</time>
      </trkpt>
      <trkpt lon="78.51967824108938" lat="17.640459643629537">
        <ele>486.923</ele>
        <time>2024-09-25T11:12:21Z</time>
      </trkpt>
      <trkpt lon="78.519678519339095" lat="17.640461906067092">
        <ele>486.81</ele>
        <time>2024-09-25T11:12:21Z</time>
      </trkpt>
      <trkpt lon="78.51967878616054" lat="17.640464048738018">
        <ele>486.717</ele>
        <time>2024-09-25T11:12:21Z</time>
      </trkpt>
      <trkpt lon="78.519679042683237" lat="17.640466086181782">
        <ele>486.642</ele>
        <time>2024-09-25T11:12:21Z</time>
      </trkpt>
      <trkpt lon="78.519679290116287" lat="17.640468033012908">
        <ele>486.583</ele>
        <time>2024-09-25T11:12:21Z</time>
      </trkpt>
      <trkpt lon="78.519679529686826" lat="17.640469903394941">
        <ele>486.539</ele>
        <time>2024-09-25T11:12:21Z</time>
      </trkpt>
      <trkpt lon="78.519679762592929" lat="17.640471710659575">
        <ele>486.508</ele>
        <time>2024-09-25T11:12:21Z</time>
      </trkpt>
      <trkpt lon="78.519679989969177" lat="17.640473467048466">
        <ele>486.487</ele>
        <time>2024-09-25T11:12:21Z</time>
      </trkpt>
      <trkpt lon="78.51968021286288" lat="17.640475183556418">
        <ele>486.474</ele>
        <time>2024-09-25T11:12:21Z</time>
      </trkpt>
      <trkpt lon="78.519680432219204" lat="17.640476869856517">
        <ele>486.468</ele>
        <time>2024-09-25T11:12:21Z</time>
      </trkpt>
      <trkpt lon="78.519680648873461" lat="17.640478534289578">
        <ele>486.468</ele>
        <time>2024-09-25T11:12:21Z</time>
      </trkpt>
      <trkpt lon="78.519680863549183" lat="17.640480183902454">
        <ele>486.472</ele>
        <time>2024-09-25T11:12:21Z</time>
      </trkpt>
      <trkpt lon="78.519681076860465" lat="17.640481824521864">
        <ele>486.479</ele>
        <time>2024-09-25T11:12:21Z</time>
      </trkpt>
      <trkpt lon="78.519681289317617" lat="17.640483460852408">
        <ele>486.488</ele>
        <time>2024-09-25T11:12:21Z</time>
      </trkpt>
      <trkpt lon="78.519681501335" lat="17.640485096589448">
        <ele>486.498</ele>
        <time>2024-09-25T11:12:21Z</time>
      </trkpt>
      <trkpt lon="78.519681713240217" lat="17.640486734539206">
        <ele>486.509</ele>
        <time>2024-09-25T11:12:21Z</time>
      </trkpt>
      <trkpt lon="78.519681925284132" lat="17.640488376740215">
        <ele>486.519</ele>
        <time>2024-09-25T11:12:21Z</time>
      </trkpt>
      <trkpt lon="78.519682137651017" lat="17.64049002458151">
        <ele>486.529</ele>
        <time>2024-09-25T11:12:21Z</time>
      </trkpt>
      <trkpt lon="78.519682350468585" lat="17.640491678914287">
        <ele>486.539</ele>
        <time>2024-09-25T11:12:21Z</time>
      </trkpt>
      <trkpt lon="78.519682563817426" lat="17.640493340154745">
        <ele>486.548</ele>
        <time>2024-09-25T11:12:21Z</time>
      </trkpt>
      <trkpt lon="78.51968277773986" lat="17.640495008376725">
        <ele>486.556</ele>
        <time>2024-09-25T11:12:21Z</time>
      </trkpt>
      <trkpt lon="78.519682992247866" lat="17.640496683393433">
        <ele>486.563</ele>
        <time>2024-09-25T11:12:21Z</time>
      </trkpt>
      <trkpt lon="78.519683207330132" lat="17.64049836482808">
        <ele>486.569</ele>
        <time>2024-09-25T11:12:21Z</time>
      </trkpt>
      <trkpt lon="78.519683422958181" lat="17.640500052173749">
        <ele>486.574</ele>
        <time>2024-09-25T11:12:21Z</time>
      </trkpt>
      <trkpt lon="78.519683639091625" lat="17.640501744843039">
        <ele>486.578</ele>
        <time>2024-09-25T11:12:21Z</time>
      </trkpt>
      <trkpt lon="78.51968385568243" lat="17.640503442208267">
        <ele>486.582</ele>
        <time>2024-09-25T11:12:21Z</time>
      </trkpt>
      <trkpt lon="78.519684072678515" lat="17.640505143633199">
        <ele>486.584</ele>
        <time>2024-09-25T11:12:21Z</time>
      </trkpt>
      <trkpt lon="78.519684290026547" lat="17.640506848497235">
        <ele>486.586</ele>
        <time>2024-09-25T11:12:21Z</time>
      </trkpt>
      <trkpt lon="78.519684507674114" lat="17.640508556213121">
        <ele>486.588</ele>
        <time>2024-09-25T11:12:21Z</time>
      </trkpt>
      <trkpt lon="78.519684793084139" lat="17.640510647906872">
        <ele>486.611</ele>
        <time>2024-09-25T11:12:22Z</time>
      </trkpt>
      <trkpt lon="78.519685074258831" lat="17.640512582042007">
        <ele>486.631</ele>
        <time>2024-09-25T11:12:22Z</time>
      </trkpt>
      <trkpt lon="78.519685350822485" lat="17.640514377421546">
        <ele>486.646</ele>
        <time>2024-09-25T11:12:22Z</time>
      </trkpt>
      <trkpt lon="78.51968562265202" lat="17.640516053038347">
        <ele>486.659</ele>
        <time>2024-09-25T11:12:22Z</time>
      </trkpt>
      <trkpt lon="78.519685889819073" lat="17.640517627368759">
        <ele>486.668</ele>
        <time>2024-09-25T11:12:22Z</time>
      </trkpt>
      <trkpt lon="78.519686152539563" lat="17.640519117858123">
        <ele>486.675</ele>
        <time>2024-09-25T11:12:22Z</time>
      </trkpt>
      <trkpt lon="78.519686411130692" lat="17.640520540568733">
        <ele>486.68</ele>
        <time>2024-09-25T11:12:22Z</time>
      </trkpt>
      <trkpt lon="78.519686665974959" lat="17.640521909962473">
        <ele>486.683</ele>
        <time>2024-09-25T11:12:22Z</time>
      </trkpt>
      <trkpt lon="78.51968691749083" lat="17.640523238792586">
        <ele>486.685</ele>
        <time>2024-09-25T11:12:22Z</time>
      </trkpt>
      <trkpt lon="78.51968716610935" lat="17.640524538081401">
        <ele>486.686</ele>
        <time>2024-09-25T11:12:22Z</time>
      </trkpt>
      <trkpt lon="78.519687412256062" lat="17.640525817163656">
        <ele>486.685</ele>
        <time>2024-09-25T11:12:22Z</time>
      </trkpt>
      <trkpt lon="78.519687656337595" lat="17.640527083777787">
        <ele>486.684</ele>
        <time>2024-09-25T11:12:22Z</time>
      </trkpt>
      <trkpt lon="78.519687898732201" lat="17.640528344190141">
        <ele>486.683</ele>
        <time>2024-09-25T11:12:22Z</time>
      </trkpt>
      <trkpt lon="78.519688139783568" lat="17.640529603339775">
        <ele>486.681</ele>
        <time>2024-09-25T11:12:22Z</time>
      </trkpt>
      <trkpt lon="78.519688379797458" lat="17.640530864993686">
        <ele>486.679</ele>
        <time>2024-09-25T11:12:22Z</time>
      </trkpt>
      <trkpt lon="78.51968861904038" lat="17.640532131904511">
        <ele>486.677</ele>
        <time>2024-09-25T11:12:22Z</time>
      </trkpt>
      <trkpt lon="78.519688857739993" lat="17.640533405964675">
        <ele>486.675</ele>
        <time>2024-09-25T11:12:22Z</time>
      </trkpt>
      <trkpt lon="78.519689096086793" lat="17.640534688352421">
        <ele>486.673</ele>
        <time>2024-09-25T11:12:22Z</time>
      </trkpt>
      <trkpt lon="78.519689334236631" lat="17.640535979666723">
        <ele>486.672</ele>
        <time>2024-09-25T11:12:22Z</time>
      </trkpt>
      <trkpt lon="78.519689572313823" lat="17.640537280049081">
        <ele>486.67</ele>
        <time>2024-09-25T11:12:22Z</time>
      </trkpt>
      <trkpt lon="78.519689810414604" lat="17.640538589291239">
        <ele>486.669</ele>
        <time>2024-09-25T11:12:22Z</time>
      </trkpt>
      <trkpt lon="78.519690048610713" lat="17.640539906928517">
        <ele>486.667</ele>
        <time>2024-09-25T11:12:22Z</time>
      </trkpt>
      <trkpt lon="78.519690286952894" lat="17.640541232319073">
        <ele>486.666</ele>
        <time>2024-09-25T11:12:22Z</time>
      </trkpt>
      <trkpt lon="78.519690525474346" lat="17.640542564709822">
        <ele>486.666</ele>
        <time>2024-09-25T11:12:22Z</time>
      </trkpt>
      <trkpt lon="78.519690764193854" lat="17.640543903289963">
        <ele>486.665</ele>
        <time>2024-09-25T11:12:22Z</time>
      </trkpt>
      <trkpt lon="78.519691003118709" lat="17.640545247233348">
        <ele>486.664</ele>
        <time>2024-09-25T11:12:22Z</time>
      </trkpt>
      <trkpt lon="78.519691242247276" lat="17.640546595730957">
        <ele>486.664</ele>
        <time>2024-09-25T11:12:22Z</time>
      </trkpt>
      <trkpt lon="78.519691481571229" lat="17.640547948014767">
        <ele>486.663</ele>
        <time>2024-09-25T11:12:22Z</time>
      </trkpt>
      <trkpt lon="78.519691721077535" lat="17.640549303374353">
        <ele>486.663</ele>
        <time>2024-09-25T11:12:22Z</time>
      </trkpt>
      <trkpt lon="78.51969201234445" lat="17.64055105266706">
        <ele>486.829</ele>
        <time>2024-09-25T11:12:23Z</time>
      </trkpt>
      <trkpt lon="78.519692279726158" lat="17.640552752079575">
        <ele>486.969</ele>
        <time>2024-09-25T11:12:23Z</time>
      </trkpt>
      <trkpt lon="78.51969252619547" lat="17.640554403273367">
        <ele>487.084</ele>
        <time>2024-09-25T11:12:23Z</time>
      </trkpt>
      <trkpt lon="78.519692754719628" lat="17.640556009175466">
        <ele>487.177</ele>
        <time>2024-09-25T11:12:23Z</time>
      </trkpt>
      <trkpt lon="78.51969296815858" lat="17.64055757356526">
        <ele>487.25</ele>
        <time>2024-09-25T11:12:23Z</time>
      </trkpt>
      <trkpt lon="78.519693169192124" lat="17.64055910073338">
        <ele>487.305</ele>
        <time>2024-09-25T11:12:23Z</time>
      </trkpt>
      <trkpt lon="78.519693360271134" lat="17.64056059520685">
        <ele>487.344</ele>
        <time>2024-09-25T11:12:23Z</time>
      </trkpt>
      <trkpt lon="78.519693543588843" lat="17.640562061533661">
        <ele>487.371</ele>
        <time>2024-09-25T11:12:23Z</time>
      </trkpt>
      <trkpt lon="78.519693721068066" lat="17.640563504119665">
        <ele>487.387</ele>
        <time>2024-09-25T11:12:23Z</time>
      </trkpt>
      <trkpt lon="78.519693894361041" lat="17.64056492711056">
        <ele>487.395</ele>
        <time>2024-09-25T11:12:23Z</time>
      </trkpt>
      <trkpt lon="78.519694064858626" lat="17.640566334311956">
        <ele>487.396</ele>
        <time>2024-09-25T11:12:23Z</time>
      </trkpt>
      <trkpt lon="78.51969423370636" lat="17.640567729140937">
        <ele>487.391</ele>
        <time>2024-09-25T11:12:23Z</time>
      </trkpt>
      <trkpt lon="78.519694401825049" lat="17.640569114603025">
        <ele>487.383</ele>
        <time>2024-09-25T11:12:23Z</time>
      </trkpt>
      <trkpt lon="78.519694569934131" lat="17.640570493289143">
        <ele>487.373</ele>
        <time>2024-09-25T11:12:23Z</time>
      </trkpt>
      <trkpt lon="78.519694738576291" lat="17.640571867387692">
        <ele>487.361</ele>
        <time>2024-09-25T11:12:23Z</time>
      </trkpt>
      <trkpt lon="78.519694908142071" lat="17.640573238707642">
        <ele>487.348</ele>
        <time>2024-09-25T11:12:23Z</time>
      </trkpt>
      <trkpt lon="78.51969507889379" lat="17.640574608709116">
        <ele>487.335</ele>
        <time>2024-09-25T11:12:23Z</time>
      </trkpt>
      <trkpt lon="78.519695250988022" lat="17.640575978538575">
        <ele>487.323</ele>
        <time>2024-09-25T11:12:23Z</time>
      </trkpt>
      <trkpt lon="78.519695424496149" lat="17.640577349066206">
        <ele>487.311</ele>
        <time>2024-09-25T11:12:23Z</time>
      </trkpt>
      <trkpt lon="78.519695599422889" lat="17.640578720923727">
        <ele>487.3</ele>
        <time>2024-09-25T11:12:23Z</time>
      </trkpt>
      <trkpt lon="78.519695775722539" lat="17.640580094541153">
        <ele>487.29</ele>
        <time>2024-09-25T11:12:23Z</time>
      </trkpt>
      <trkpt lon="78.519695953312961" lat="17.640581470181509">
        <ele>487.282</ele>
        <time>2024-09-25T11:12:23Z</time>
      </trkpt>
      <trkpt lon="78.519696132087418" lat="17.640582847972819">
        <ele>487.274</ele>
        <time>2024-09-25T11:12:23Z</time>
      </trkpt>
      <trkpt lon="78.519696311924307" lat="17.640584227936891">
        <ele>487.268</ele>
        <time>2024-09-25T11:12:23Z</time>
      </trkpt>
      <trkpt lon="78.519696492695076" lat="17.640585610014696">
        <ele>487.263</ele>
        <time>2024-09-25T11:12:23Z</time>
      </trkpt>
      <trkpt lon="78.519696674270378" lat="17.640586994088338">
        <ele>487.259</ele>
        <time>2024-09-25T11:12:23Z</time>
      </trkpt>
      <trkpt lon="78.519696856524817" lat="17.640588379999631">
        <ele>487.255</ele>
        <time>2024-09-25T11:12:23Z</time>
      </trkpt>
      <trkpt lon="78.51969703934023" lat="17.640589767565508">
        <ele>487.253</ele>
        <time>2024-09-25T11:12:23Z</time>
      </trkpt>
      <trkpt lon="78.519697222608059" lat="17.640591156590514">
        <ele>487.251</ele>
        <time>2024-09-25T11:12:23Z</time>
      </trkpt>
      <trkpt lon="78.519697460353441" lat="17.640592957665731">
        <ele>487.191</ele>
        <time>2024-09-25T11:12:24Z</time>
      </trkpt>
      <trkpt lon="78.51969769238346" lat="17.640594714487612">
        <ele>487.142</ele>
        <time>2024-09-25T11:12:24Z</time>
      </trkpt>
      <trkpt lon="78.519697918738075" lat="17.640596427723342">
        <ele>487.101</ele>
        <time>2024-09-25T11:12:24Z</time>
      </trkpt>
      <trkpt lon="78.519698139644532" lat="17.64059809938955">
        <ele>487.068</ele>
        <time>2024-09-25T11:12:24Z</time>
      </trkpt>
      <trkpt lon="78.519698355463362" lat="17.640599732450085">
        <ele>487.043</ele>
        <time>2024-09-25T11:12:24Z</time>
      </trkpt>
      <trkpt lon="78.519698566643001" lat="17.640601330479871">
        <ele>487.024</ele>
        <time>2024-09-25T11:12:24Z</time>
      </trkpt>
      <trkpt lon="78.519698773682606" lat="17.640602897390334">
        <ele>487.01</ele>
        <time>2024-09-25T11:12:24Z</time>
      </trkpt>
      <trkpt lon="78.519698977102223" lat="17.640604437210701">
        <ele>487.001</ele>
        <time>2024-09-25T11:12:24Z</time>
      </trkpt>
      <trkpt lon="78.519699177419611" lat="17.640605953919081">
        <ele>486.996</ele>
        <time>2024-09-25T11:12:24Z</time>
      </trkpt>
      <trkpt lon="78.519699375132788" lat="17.640607451316896">
        <ele>486.994</ele>
        <time>2024-09-25T11:12:24Z</time>
      </trkpt>
      <trkpt lon="78.519699570707587" lat="17.640608932940349">
        <ele>486.994</ele>
        <time>2024-09-25T11:12:24Z</time>
      </trkpt>
      <trkpt lon="78.519699764569467" lat="17.640610402002917">
        <ele>486.996</ele>
        <time>2024-09-25T11:12:24Z</time>
      </trkpt>
      <trkpt lon="78.519699957098609" lat="17.640611861363197">
        <ele>487</ele>
        <time>2024-09-25T11:12:24Z</time>
      </trkpt>
      <trkpt lon="78.519700148627891" lat="17.64061331351299">
        <ele>487.004</ele>
        <time>2024-09-25T11:12:24Z</time>
      </trkpt>
      <trkpt lon="78.519700339442977" lat="17.640614760581069">
        <ele>487.008</ele>
        <time>2024-09-25T11:12:24Z</time>
      </trkpt>
      <trkpt lon="78.519700529783975" lat="17.640616204348621">
        <ele>487.013</ele>
        <time>2024-09-25T11:12:24Z</time>
      </trkpt>
      <trkpt lon="78.519700719848359" lat="17.640617646272954">
        <ele>487.018</ele>
        <time>2024-09-25T11:12:24Z</time>
      </trkpt>
      <trkpt lon="78.519700909794608" lat="17.640619087516626">
        <ele>487.023</ele>
        <time>2024-09-25T11:12:24Z</time>
      </trkpt>
      <trkpt lon="78.5197010997463" lat="17.640620528979632">
        <ele>487.027</ele>
        <time>2024-09-25T11:12:24Z</time>
      </trkpt>
      <trkpt lon="78.519701289796359" lat="17.640621971332774">
        <ele>487.031</ele>
        <time>2024-09-25T11:12:24Z</time>
      </trkpt>
      <trkpt lon="78.519701480011449" lat="17.640623415050811">
        <ele>487.035</ele>
        <time>2024-09-25T11:12:24Z</time>
      </trkpt>
      <trkpt lon="78.519701670436092" lat="17.64062486044422">
        <ele>487.038</ele>
        <time>2024-09-25T11:12:24Z</time>
      </trkpt>
      <trkpt lon="78.519701861096564" lat="17.640626307688855">
        <ele>487.04</ele>
        <time>2024-09-25T11:12:24Z</time>
      </trkpt>
      <trkpt lon="78.519702052004462" lat="17.640627756852986">
        <ele>487.043</ele>
        <time>2024-09-25T11:12:24Z</time>
      </trkpt>
      <trkpt lon="78.519702243159969" lat="17.640629207921421">
        <ele>487.044</ele>
        <time>2024-09-25T11:12:24Z</time>
      </trkpt>
      <trkpt lon="78.519702434554603" lat="17.640630660816566">
        <ele>487.046</ele>
        <time>2024-09-25T11:12:24Z</time>
      </trkpt>
      <trkpt lon="78.519702626173668" lat="17.640632115416494">
        <ele>487.047</ele>
        <time>2024-09-25T11:12:24Z</time>
      </trkpt>
      <trkpt lon="78.519702817998308" lat="17.640633571570092">
        <ele>487.048</ele>
        <time>2024-09-25T11:12:24Z</time>
      </trkpt>
      <trkpt lon="78.519703010007134" lat="17.640635029109479">
        <ele>487.049</ele>
        <time>2024-09-25T11:12:24Z</time>
      </trkpt>
      <trkpt lon="78.519703249277498" lat="17.640636890783515">
        <ele>486.898</ele>
        <time>2024-09-25T11:12:25Z</time>
      </trkpt>
      <trkpt lon="78.519703474256076" lat="17.64063868225572">
        <ele>486.772</ele>
        <time>2024-09-25T11:12:25Z</time>
      </trkpt>
      <trkpt lon="78.519703686470891" lat="17.640640408405606">
        <ele>486.667</ele>
        <time>2024-09-25T11:12:25Z</time>
      </trkpt>
      <trkpt lon="78.519703887517053" lat="17.640642075180008">
        <ele>486.583</ele>
        <time>2024-09-25T11:12:25Z</time>
      </trkpt>
      <trkpt lon="78.519704078984901" lat="17.640643689123799">
        <ele>486.517</ele>
        <time>2024-09-25T11:12:25Z</time>
      </trkpt>
      <trkpt lon="78.519704262405867" lat="17.640645257005353">
        <ele>486.467</ele>
        <time>2024-09-25T11:12:25Z</time>
      </trkpt>
      <trkpt lon="78.519704439213825" lat="17.640646785526478">
        <ele>486.431</ele>
        <time>2024-09-25T11:12:25Z</time>
      </trkpt>
      <trkpt lon="78.519704610719344" lat="17.640648281106049">
        <ele>486.406</ele>
        <time>2024-09-25T11:12:25Z</time>
      </trkpt>
      <trkpt lon="78.519704778094479" lat="17.640649749726744">
        <ele>486.391</ele>
        <time>2024-09-25T11:12:25Z</time>
      </trkpt>
      <trkpt lon="78.519704942366175" lat="17.640651196834646">
        <ele>486.384</ele>
        <time>2024-09-25T11:12:25Z</time>
      </trkpt>
      <trkpt lon="78.51970510441636" lat="17.640652627282229">
        <ele>486.383</ele>
        <time>2024-09-25T11:12:25Z</time>
      </trkpt>
      <trkpt lon="78.51970526498701" lat="17.640654045305947">
        <ele>486.387</ele>
        <time>2024-09-25T11:12:25Z</time>
      </trkpt>
      <trkpt lon="78.519705424688794" lat="17.64065545453078">
        <ele>486.394</ele>
        <time>2024-09-25T11:12:25Z</time>
      </trkpt>
      <trkpt lon="78.519705584012215" lat="17.64065685799487">
        <ele>486.404</ele>
        <time>2024-09-25T11:12:25Z</time>
      </trkpt>
      <trkpt lon="78.519705743340168" lat="17.640658258188484">
        <ele>486.415</ele>
        <time>2024-09-25T11:12:25Z</time>
      </trkpt>
      <trkpt lon="78.519705902961149" lat="17.640659657102397">
        <ele>486.426</ele>
        <time>2024-09-25T11:12:25Z</time>
      </trkpt>
      <trkpt lon="78.519706063082424" lat="17.640661056281733">
        <ele>486.438</ele>
        <time>2024-09-25T11:12:25Z</time>
      </trkpt>
      <trkpt lon="78.519706223842874" lat="17.640662456882016">
        <ele>486.449</ele>
        <time>2024-09-25T11:12:25Z</time>
      </trkpt>
      <trkpt lon="78.519706385324994" lat="17.640663859724949">
        <ele>486.46</ele>
        <time>2024-09-25T11:12:25Z</time>
      </trkpt>
      <trkpt lon="78.519706547565903" lat="17.640665265352052">
        <ele>486.469</ele>
        <time>2024-09-25T11:12:25Z</time>
      </trkpt>
      <trkpt lon="78.519706710567235" lat="17.640666674074851">
        <ele>486.478</ele>
        <time>2024-09-25T11:12:25Z</time>
      </trkpt>
      <trkpt lon="78.519706874303807" lat="17.640668086020654">
        <ele>486.486</ele>
        <time>2024-09-25T11:12:25Z</time>
      </trkpt>
      <trkpt lon="78.519707038731099" lat="17.640669501173512">
        <ele>486.493</ele>
        <time>2024-09-25T11:12:25Z</time>
      </trkpt>
      <trkpt lon="78.519707203791569" lat="17.640670919410013">
        <ele>486.498</ele>
        <time>2024-09-25T11:12:25Z</time>
      </trkpt>
      <trkpt lon="78.519707369419848" lat="17.640672340530038">
        <ele>486.503</ele>
        <time>2024-09-25T11:12:25Z</time>
      </trkpt>
      <trkpt lon="78.519707535546942" lat="17.640673764282599">
        <ele>486.507</ele>
        <time>2024-09-25T11:12:25Z</time>
      </trkpt>
      <trkpt lon="78.519707702103517" lat="17.640675190387064">
        <ele>486.51</ele>
        <time>2024-09-25T11:12:25Z</time>
      </trkpt>
      <trkpt lon="78.519707869022398" lat="17.640676618550209">
        <ele>486.512</ele>
        <time>2024-09-25T11:12:25Z</time>
      </trkpt>
      <trkpt lon="78.51970803624036" lat="17.640678048479508">
        <ele>486.514</ele>
        <time>2024-09-25T11:12:25Z</time>
      </trkpt>
      <trkpt lon="78.519708254357411" lat="17.640679927013679">
        <ele>486.602</ele>
        <time>2024-09-25T11:12:26Z</time>
      </trkpt>
      <trkpt lon="78.519708468253882" lat="17.64068178064003">
        <ele>486.677</ele>
        <time>2024-09-25T11:12:26Z</time>
      </trkpt>
      <trkpt lon="78.519708677803195" lat="17.640683606392876">
        <ele>486.738</ele>
        <time>2024-09-25T11:12:26Z</time>
      </trkpt>
      <trkpt lon="78.5197088830609" lat="17.640685403004657">
        <ele>486.787</ele>
        <time>2024-09-25T11:12:26Z</time>
      </trkpt>
      <trkpt lon="78.519709084217936" lat="17.640687170531901">
        <ele>486.825</ele>
        <time>2024-09-25T11:12:26Z</time>
      </trkpt>
      <trkpt lon="78.519709281560637" lat="17.640688910027311">
        <ele>486.853</ele>
        <time>2024-09-25T11:12:26Z</time>
      </trkpt>
      <trkpt lon="78.51970947543731" lat="17.640690623257935">
        <ele>486.874</ele>
        <time>2024-09-25T11:12:26Z</time>
      </trkpt>
      <trkpt lon="78.519709666230895" lat="17.640692312467959">
        <ele>486.887</ele>
        <time>2024-09-25T11:12:26Z</time>
      </trkpt>
      <trkpt lon="78.519709854337123" lat="17.640693980183293">
        <ele>486.895</ele>
        <time>2024-09-25T11:12:26Z</time>
      </trkpt>
      <trkpt lon="78.519710040147629" lat="17.640695629054498">
        <ele>486.899</ele>
        <time>2024-09-25T11:12:26Z</time>
      </trkpt>
      <trkpt lon="78.519710224037368" lat="17.640697261734054">
        <ele>486.899</ele>
        <time>2024-09-25T11:12:26Z</time>
      </trkpt>
      <trkpt lon="78.519710406355699" lat="17.640698880783749">
        <ele>486.896</ele>
        <time>2024-09-25T11:12:26Z</time>
      </trkpt>
      <trkpt lon="78.519710587420533" lat="17.640700488608058">
        <ele>486.891</ele>
        <time>2024-09-25T11:12:26Z</time>
      </trkpt>
      <trkpt lon="78.519710767515079" lat="17.640702087409359">
        <ele>486.885</ele>
        <time>2024-09-25T11:12:26Z</time>
      </trkpt>
      <trkpt lon="78.519710946886477" lat="17.640703679161199">
        <ele>486.879</ele>
        <time>2024-09-25T11:12:26Z</time>
      </trkpt>
      <trkpt lon="78.51971112574617" lat="17.640705265596083">
        <ele>486.872</ele>
        <time>2024-09-25T11:12:26Z</time>
      </trkpt>
      <trkpt lon="78.519711304271311" lat="17.640706848204658">
        <ele>486.864</ele>
        <time>2024-09-25T11:12:26Z</time>
      </trkpt>
      <trkpt lon="78.519711482607065" lat="17.640708428243482">
        <ele>486.858</ele>
        <time>2024-09-25T11:12:26Z</time>
      </trkpt>
      <trkpt lon="78.519711660869405" lat="17.640710006749014">
        <ele>486.851</ele>
        <time>2024-09-25T11:12:26Z</time>
      </trkpt>
      <trkpt lon="78.519711839148343" lat="17.640711584555792">
        <ele>486.845</ele>
        <time>2024-09-25T11:12:26Z</time>
      </trkpt>
      <trkpt lon="78.519712017511154" lat="17.640713162317187">
        <ele>486.84</ele>
        <time>2024-09-25T11:12:26Z</time>
      </trkpt>
      <trkpt lon="78.519712196005599" lat="17.640714740527283">
        <ele>486.836</ele>
        <time>2024-09-25T11:12:26Z</time>
      </trkpt>
      <trkpt lon="78.519712374663158" lat="17.640716319542953">
        <ele>486.832</ele>
        <time>2024-09-25T11:12:26Z</time>
      </trkpt>
      <trkpt lon="78.519712553501861" lat="17.640717899605228">
        <ele>486.828</ele>
        <time>2024-09-25T11:12:26Z</time>
      </trkpt>
      <trkpt lon="78.519712732529015" lat="17.640719480859467">
        <ele>486.826</ele>
        <time>2024-09-25T11:12:26Z</time>
      </trkpt>
      <trkpt lon="78.519712911743596" lat="17.640721063373839">
        <ele>486.823</ele>
        <time>2024-09-25T11:12:26Z</time>
      </trkpt>
      <trkpt lon="78.519713091138314" lat="17.640722647155968">
        <ele>486.822</ele>
        <time>2024-09-25T11:12:26Z</time>
      </trkpt>
      <trkpt lon="78.519713270701416" lat="17.640724232167575">
        <ele>486.82</ele>
        <time>2024-09-25T11:12:26Z</time>
      </trkpt>
      <trkpt lon="78.519713450418195" lat="17.640725818337103">
        <ele>486.819</ele>
        <time>2024-09-25T11:12:26Z</time>
      </trkpt>
      <trkpt lon="78.51971367926545" lat="17.640727590401927">
        <ele>486.657</ele>
        <time>2024-09-25T11:12:27Z</time>
      </trkpt>
      <trkpt lon="78.519713898862094" lat="17.640729072062417">
        <ele>486.52</ele>
        <time>2024-09-25T11:12:27Z</time>
      </trkpt>
      <trkpt lon="78.519714109916094" lat="17.640730306205494">
        <ele>486.407</ele>
        <time>2024-09-25T11:12:27Z</time>
      </trkpt>
      <trkpt lon="78.519714313257779" lat="17.640731333756037">
        <ele>486.317</ele>
        <time>2024-09-25T11:12:27Z</time>
      </trkpt>
      <trkpt lon="78.51971450978094" lat="17.640732192738596">
        <ele>486.246</ele>
        <time>2024-09-25T11:12:27Z</time>
      </trkpt>
      <trkpt lon="78.519714700396079" lat="17.640732917670885">
        <ele>486.193</ele>
        <time>2024-09-25T11:12:27Z</time>
      </trkpt>
      <trkpt lon="78.519714885994787" lat="17.640733539228314">
        <ele>486.154</ele>
        <time>2024-09-25T11:12:27Z</time>
      </trkpt>
      <trkpt lon="78.519715067423334" lat="17.64073408412461">
        <ele>486.129</ele>
        <time>2024-09-25T11:12:27Z</time>
      </trkpt>
      <trkpt lon="78.519715245464511" lat="17.64073457515935">
        <ele>486.113</ele>
        <time>2024-09-25T11:12:27Z</time>
      </trkpt>
      <trkpt lon="78.519715420825975" lat="17.640735031389774">
        <ele>486.106</ele>
        <time>2024-09-25T11:12:27Z</time>
      </trkpt>
      <trkpt lon="78.519715594134311" lat="17.640735468390243">
        <ele>486.106</ele>
        <time>2024-09-25T11:12:27Z</time>
      </trkpt>
      <trkpt lon="78.5197157659331" lat="17.640735898568796">
        <ele>486.11</ele>
        <time>2024-09-25T11:12:27Z</time>
      </trkpt>
      <trkpt lon="78.519715936684548" lat="17.640736331515718">
        <ele>486.118</ele>
        <time>2024-09-25T11:12:27Z</time>
      </trkpt>
      <trkpt lon="78.51971610677343" lat="17.640736774364175">
        <ele>486.129</ele>
        <time>2024-09-25T11:12:27Z</time>
      </trkpt>
      <trkpt lon="78.51971627651281" lat="17.640737232147394">
        <ele>486.141</ele>
        <time>2024-09-25T11:12:27Z</time>
      </trkpt>
      <trkpt lon="78.519716446150852" lat="17.640737708140822">
        <ele>486.153</ele>
        <time>2024-09-25T11:12:27Z</time>
      </trkpt>
      <trkpt lon="78.519716615878096" lat="17.640738204181119">
        <ele>486.166</ele>
        <time>2024-09-25T11:12:27Z</time>
      </trkpt>
      <trkpt lon="78.519716785835101" lat="17.640738720956584">
        <ele>486.178</ele>
        <time>2024-09-25T11:12:27Z</time>
      </trkpt>
      <trkpt lon="78.519716956119836" lat="17.640739258265956">
        <ele>486.19</ele>
        <time>2024-09-25T11:12:27Z</time>
      </trkpt>
      <trkpt lon="78.519717126794774" lat="17.640739815244395">
        <ele>486.201</ele>
        <time>2024-09-25T11:12:27Z</time>
      </trkpt>
      <trkpt lon="78.519717297893479" lat="17.640740390556889">
        <ele>486.21</ele>
        <time>2024-09-25T11:12:27Z</time>
      </trkpt>
      <trkpt lon="78.519717469426496" lat="17.640740982560356">
        <ele>486.219</ele>
        <time>2024-09-25T11:12:27Z</time>
      </trkpt>
      <trkpt lon="78.519717641386691" lat="17.640741589436555">
        <ele>486.226</ele>
        <time>2024-09-25T11:12:27Z</time>
      </trkpt>
      <trkpt lon="78.519717813753886" lat="17.640742209298356">
        <ele>486.232</ele>
        <time>2024-09-25T11:12:27Z</time>
      </trkpt>
      <trkpt lon="78.519717986498719" lat="17.640742840272232">
        <ele>486.237</ele>
        <time>2024-09-25T11:12:27Z</time>
      </trkpt>
      <trkpt lon="78.519718159585935" lat="17.640743480559969">
        <ele>486.241</ele>
        <time>2024-09-25T11:12:27Z</time>
      </trkpt>
      <trkpt lon="78.519718332977064" lat="17.640744128482599">
        <ele>486.245</ele>
        <time>2024-09-25T11:12:27Z</time>
      </trkpt>
      <trkpt lon="78.519718506632572" lat="17.640744782509326">
        <ele>486.247</ele>
        <time>2024-09-25T11:12:27Z</time>
      </trkpt>
      <trkpt lon="78.519718680513449" lat="17.64074544127423">
        <ele>486.249</ele>
        <time>2024-09-25T11:12:27Z</time>
      </trkpt>
      <trkpt lon="78.519718854582493" lat="17.640746103583105">
        <ele>486.25</ele>
        <time>2024-09-25T11:12:27Z</time>
      </trkpt>
      <trkpt lon="78.519719028805099" lat="17.640746768412658">
        <ele>486.251</ele>
        <time>2024-09-25T11:12:28Z</time>
      </trkpt>
      <trkpt lon="78.519719203149847" lat="17.640747434903979">
        <ele>486.251</ele>
        <time>2024-09-25T11:12:28Z</time>
      </trkpt>
      <trkpt lon="78.519719377588842" lat="17.640748102351893">
        <ele>486.251</ele>
        <time>2024-09-25T11:12:28Z</time>
      </trkpt>
      <trkpt lon="78.519719552097769" lat="17.640748770191603">
        <ele>486.251</ele>
        <time>2024-09-25T11:12:28Z</time>
      </trkpt>
      <trkpt lon="78.519719726655836" lat="17.640749437983761">
        <ele>486.251</ele>
        <time>2024-09-25T11:12:28Z</time>
      </trkpt>
      <trkpt lon="78.519719901245708" lat="17.640750105398816">
        <ele>486.25</ele>
        <time>2024-09-25T11:12:28Z</time>
      </trkpt>
      <trkpt lon="78.519720075853215" lat="17.640750772201461">
        <ele>486.25</ele>
        <time>2024-09-25T11:12:28Z</time>
      </trkpt>
      <trkpt lon="78.519720250467017" lat="17.640751438235572">
        <ele>486.249</ele>
        <time>2024-09-25T11:12:28Z</time>
      </trkpt>
      <trkpt lon="78.51972042507839" lat="17.640752103410158">
        <ele>486.249</ele>
        <time>2024-09-25T11:12:28Z</time>
      </trkpt>
      <trkpt lon="78.519720599680824" lat="17.640752767686475">
        <ele>486.248</ele>
        <time>2024-09-25T11:12:28Z</time>
      </trkpt>
      <trkpt lon="78.5197207742697" lat="17.640753431066518">
        <ele>486.248</ele>
        <time>2024-09-25T11:12:28Z</time>
      </trkpt>
      <trkpt lon="78.519720948842064" lat="17.640754093582913">
        <ele>486.247</ele>
        <time>2024-09-25T11:12:28Z</time>
      </trkpt>
      <trkpt lon="78.519721123396209" lat="17.640754755290253">
        <ele>486.247</ele>
        <time>2024-09-25T11:12:28Z</time>
      </trkpt>
      <trkpt lon="78.519721297931511" lat="17.640755416257779">
        <ele>486.246</ele>
        <time>2024-09-25T11:12:28Z</time>
      </trkpt>
      <trkpt lon="78.519721472448154" lat="17.640756076563388">
        <ele>486.246</ele>
        <time>2024-09-25T11:12:28Z</time>
      </trkpt>
      <trkpt lon="78.519721646946905" lat="17.640756736288786">
        <ele>486.246</ele>
        <time>2024-09-25T11:12:28Z</time>
      </trkpt>
      <trkpt lon="78.519721821428988" lat="17.640757395515713">
        <ele>486.246</ele>
        <time>2024-09-25T11:12:28Z</time>
      </trkpt>
      <trkpt lon="78.519721995895878" lat="17.640758054323094">
        <ele>486.245</ele>
        <time>2024-09-25T11:12:28Z</time>
      </trkpt>
      <trkpt lon="78.519722170349226" lat="17.640758712785001">
        <ele>486.245</ele>
        <time>2024-09-25T11:12:28Z</time>
      </trkpt>
      <trkpt lon="78.519722344790765" lat="17.640759370969267">
        <ele>486.245</ele>
        <time>2024-09-25T11:12:28Z</time>
      </trkpt>
      <trkpt lon="78.519722519222171" lat="17.640760028936665">
        <ele>486.245</ele>
        <time>2024-09-25T11:12:28Z</time>
      </trkpt>
      <trkpt lon="78.519722693645107" lat="17.640760686740538">
        <ele>486.245</ele>
        <time>2024-09-25T11:12:28Z</time>
      </trkpt>
      <trkpt lon="78.519722868061081" lat="17.640761344426778">
        <ele>486.245</ele>
        <time>2024-09-25T11:12:28Z</time>
      </trkpt>
      <trkpt lon="78.519723042471497" lat="17.640762002034062">
        <ele>486.245</ele>
        <time>2024-09-25T11:12:28Z</time>
      </trkpt>
      <trkpt lon="78.519723216877594" lat="17.640762659594294">
        <ele>486.245</ele>
        <time>2024-09-25T11:12:28Z</time>
      </trkpt>
      <trkpt lon="78.519723391280465" lat="17.64076331713315">
        <ele>486.245</ele>
        <time>2024-09-25T11:12:28Z</time>
      </trkpt>
      <trkpt lon="78.519723565681019" lat="17.64076397467073">
        <ele>486.245</ele>
        <time>2024-09-25T11:12:28Z</time>
      </trkpt>
      <trkpt lon="78.519723740080067" lat="17.640764632222229">
        <ele>486.245</ele>
        <time>2024-09-25T11:12:28Z</time>
      </trkpt>
      <trkpt lon="78.519723931239412" lat="17.640765675867339">
        <ele>486.037</ele>
        <time>2024-09-25T11:12:29Z</time>
      </trkpt>
      <trkpt lon="78.519724087530079" lat="17.640766860059294">
        <ele>485.862</ele>
        <time>2024-09-25T11:12:29Z</time>
      </trkpt>
      <trkpt lon="78.519724214180528" lat="17.640768156801073">
        <ele>485.718</ele>
        <time>2024-09-25T11:12:29Z</time>
      </trkpt>
      <trkpt lon="78.519724316161444" lat="17.640769541079344">
        <ele>485.601</ele>
        <time>2024-09-25T11:12:29Z</time>
      </trkpt>
      <trkpt lon="78.519724398076548" lat="17.640770990998604">
        <ele>485.51</ele>
        <time>2024-09-25T11:12:29Z</time>
      </trkpt>
      <trkpt lon="78.519724464093073" lat="17.640772487774036">
        <ele>485.442</ele>
        <time>2024-09-25T11:12:29Z</time>
      </trkpt>
      <trkpt lon="78.519724517904478" lat="17.640774015618092">
        <ele>485.392</ele>
        <time>2024-09-25T11:12:29Z</time>
      </trkpt>
      <trkpt lon="78.519724562718807" lat="17.640775561550878">
        <ele>485.359</ele>
        <time>2024-09-25T11:12:29Z</time>
      </trkpt>
      <trkpt lon="78.519724601266816" lat="17.640777115159754">
        <ele>485.338</ele>
        <time>2024-09-25T11:12:29Z</time>
      </trkpt>
      <trkpt lon="78.519724635824602" lat="17.64077866832892">
        <ele>485.329</ele>
        <time>2024-09-25T11:12:29Z</time>
      </trkpt>
      <trkpt lon="78.519724668246525" lat="17.640780214955836">
        <ele>485.328</ele>
        <time>2024-09-25T11:12:29Z</time>
      </trkpt>
      <trkpt lon="78.519724700004545" lat="17.640781750667507">
        <ele>485.334</ele>
        <time>2024-09-25T11:12:29Z</time>
      </trkpt>
      <trkpt lon="78.519724732231381" lat="17.640783272546589">
        <ele>485.344</ele>
        <time>2024-09-25T11:12:29Z</time>
      </trkpt>
      <trkpt lon="78.519724765764551" lat="17.64078477887433">
        <ele>485.357</ele>
        <time>2024-09-25T11:12:29Z</time>
      </trkpt>
      <trkpt lon="78.519724801190065" lat="17.640786268895191">
        <ele>485.372</ele>
        <time>2024-09-25T11:12:29Z</time>
      </trkpt>
      <trkpt lon="78.519724838883917" lat="17.640787742605962">
        <ele>485.388</ele>
        <time>2024-09-25T11:12:29Z</time>
      </trkpt>
      <trkpt lon="78.51972487905077" lat="17.640789200570644">
        <ele>485.404</ele>
        <time>2024-09-25T11:12:29Z</time>
      </trkpt>
      <trkpt lon="78.519724921759035" lat="17.64079064376125">
        <ele>485.42</ele>
        <time>2024-09-25T11:12:29Z</time>
      </trkpt>
      <trkpt lon="78.519724966971992" lat="17.640792073423579">
        <ele>485.435</ele>
        <time>2024-09-25T11:12:29Z</time>
      </trkpt>
      <trkpt lon="78.519725014574973" lat="17.640793490966562">
        <ele>485.448</ele>
        <time>2024-09-25T11:12:29Z</time>
      </trkpt>
      <trkpt lon="78.519725064398585" lat="17.640794897873164">
        <ele>485.46</ele>
        <time>2024-09-25T11:12:29Z</time>
      </trkpt>
      <trkpt lon="78.519725116237964" lat="17.640796295630658">
        <ele>485.471</ele>
        <time>2024-09-25T11:12:29Z</time>
      </trkpt>
      <trkpt lon="78.519725169868678" lat="17.640797685677914">
        <ele>485.481</ele>
        <time>2024-09-25T11:12:29Z</time>
      </trkpt>
      <trkpt lon="78.519725225059375" lat="17.64079906936734">
        <ele>485.488</ele>
        <time>2024-09-25T11:12:29Z</time>
      </trkpt>
      <trkpt lon="78.519725281581458" lat="17.64080044793921">
        <ele>485.495</ele>
        <time>2024-09-25T11:12:29Z</time>
      </trkpt>
      <trkpt lon="78.51972533921635" lat="17.640801822506187">
        <ele>485.5</ele>
        <time>2024-09-25T11:12:29Z</time>
      </trkpt>
      <trkpt lon="78.519725397760681" lat="17.6408031940461">
        <ele>485.504</ele>
        <time>2024-09-25T11:12:29Z</time>
      </trkpt>
      <trkpt lon="78.519725457029523" lat="17.640804563401176">
        <ele>485.508</ele>
        <time>2024-09-25T11:12:29Z</time>
      </trkpt>
      <trkpt lon="78.51972551685833" lat="17.640805931282177">
        <ele>485.51</ele>
        <time>2024-09-25T11:12:29Z</time>
      </trkpt>
      <trkpt lon="78.519725644897406" lat="17.640807471880592">
        <ele>485.703</ele>
        <time>2024-09-25T11:12:30Z</time>
      </trkpt>
      <trkpt lon="78.519725813600019" lat="17.640808772295681">
        <ele>485.865</ele>
        <time>2024-09-25T11:12:30Z</time>
      </trkpt>
      <trkpt lon="78.519726015477843" lat="17.64080986795723">
        <ele>485.998</ele>
        <time>2024-09-25T11:12:30Z</time>
      </trkpt>
      <trkpt lon="78.519726243733913" lat="17.640810792683656">
        <ele>486.105</ele>
        <time>2024-09-25T11:12:30Z</time>
      </trkpt>
      <trkpt lon="78.519726492328488" lat="17.640811577904209">
        <ele>486.189</ele>
        <time>2024-09-25T11:12:30Z</time>
      </trkpt>
      <trkpt lon="78.519726756002342" lat="17.640812252155662">
        <ele>486.252</ele>
        <time>2024-09-25T11:12:30Z</time>
      </trkpt>
      <trkpt lon="78.519727030267347" lat="17.640812840803317">
        <ele>486.297</ele>
        <time>2024-09-25T11:12:30Z</time>
      </trkpt>
      <trkpt lon="78.519727311372435" lat="17.640813365940879">
        <ele>486.327</ele>
        <time>2024-09-25T11:12:30Z</time>
      </trkpt>
      <trkpt lon="78.519727596252437" lat="17.640813846428561">
        <ele>486.345</ele>
        <time>2024-09-25T11:12:30Z</time>
      </trkpt>
      <trkpt lon="78.519727882465716" lat="17.64081429803414">
        <ele>486.353</ele>
        <time>2024-09-25T11:12:30Z</time>
      </trkpt>
      <trkpt lon="78.519728168125383" lat="17.640814733646653">
        <ele>486.353</ele>
        <time>2024-09-25T11:12:30Z</time>
      </trkpt>
      <trkpt lon="78.519728451828342" lat="17.640815163537482">
        <ele>486.347</ele>
        <time>2024-09-25T11:12:30Z</time>
      </trkpt>
      <trkpt lon="78.519728732584838" lat="17.640815595648064">
        <ele>486.337</ele>
        <time>2024-09-25T11:12:30Z</time>
      </trkpt>
      <trkpt lon="78.519729009751117" lat="17.640816035887692">
        <ele>486.325</ele>
        <time>2024-09-25T11:12:30Z</time>
      </trkpt>
      <trkpt lon="78.51972928296658" lat="17.640816488428563">
        <ele>486.31</ele>
        <time>2024-09-25T11:12:30Z</time>
      </trkpt>
      <trkpt lon="78.519729552096635" lat="17.640816955988537">
        <ele>486.295</ele>
        <time>2024-09-25T11:12:30Z</time>
      </trkpt>
      <trkpt lon="78.519729817181684" lat="17.640817440094775">
        <ele>486.28</ele>
        <time>2024-09-25T11:12:30Z</time>
      </trkpt>
      <trkpt lon="78.519730078392683" lat="17.640817941323849">
        <ele>486.265</ele>
        <time>2024-09-25T11:12:30Z</time>
      </trkpt>
      <trkpt lon="78.519730335993017" lat="17.640818459515721">
        <ele>486.251</ele>
        <time>2024-09-25T11:12:30Z</time>
      </trkpt>
      <trkpt lon="78.519730590306651" lat="17.640818993960654">
        <ele>486.239</ele>
        <time>2024-09-25T11:12:30Z</time>
      </trkpt>
      <trkpt lon="78.51973084169191" lat="17.640819543559182">
        <ele>486.227</ele>
        <time>2024-09-25T11:12:30Z</time>
      </trkpt>
      <trkpt lon="78.519731090520636" lat="17.640820106956241">
        <ele>486.217</ele>
        <time>2024-09-25T11:12:30Z</time>
      </trkpt>
      <trkpt lon="78.5197313371619" lat="17.640820682651153">
        <ele>486.209</ele>
        <time>2024-09-25T11:12:30Z</time>
      </trkpt>
      <trkpt lon="78.519731581969864" lat="17.640821269085599">
        <ele>486.201</ele>
        <time>2024-09-25T11:12:30Z</time>
      </trkpt>
      <trkpt lon="78.519731825275215" lat="17.640821864711906">
        <ele>486.195</ele>
        <time>2024-09-25T11:12:30Z</time>
      </trkpt>
      <trkpt lon="78.519732067379366" lat="17.640822468044206">
        <ele>486.19</ele>
        <time>2024-09-25T11:12:30Z</time>
      </trkpt>
      <trkpt lon="78.519732308551269" lat="17.640823077694794">
        <ele>486.187</ele>
        <time>2024-09-25T11:12:30Z</time>
      </trkpt>
      <trkpt lon="78.519732549026031" lat="17.640823692398168">
        <ele>486.184</ele>
        <time>2024-09-25T11:12:30Z</time>
      </trkpt>
      <trkpt lon="78.519732789005104" lat="17.640824311024907">
        <ele>486.182</ele>
        <time>2024-09-25T11:12:30Z</time>
      </trkpt>
      <trkpt lon="78.51973313540465" lat="17.640825196552374">
        <ele>486.115</ele>
        <time>2024-09-25T11:12:31Z</time>
      </trkpt>
      <trkpt lon="78.519733503780017" lat="17.640826133011991">
        <ele>486.059</ele>
        <time>2024-09-25T11:12:31Z</time>
      </trkpt>
      <trkpt lon="78.519733889124822" lat="17.640827107976435">
        <ele>486.013</ele>
        <time>2024-09-25T11:12:31Z</time>
      </trkpt>
      <trkpt lon="78.519734287075806" lat="17.640828110740557">
        <ele>485.976</ele>
        <time>2024-09-25T11:12:31Z</time>
      </trkpt>
      <trkpt lon="78.51973469390613" lat="17.6408291322692">
        <ele>485.948</ele>
        <time>2024-09-25T11:12:31Z</time>
      </trkpt>
      <trkpt lon="78.519735106498047" lat="17.640830165099846">
        <ele>485.927</ele>
        <time>2024-09-25T11:12:31Z</time>
      </trkpt>
      <trkpt lon="78.519735522301232" lat="17.640831203214617">
        <ele>485.912</ele>
        <time>2024-09-25T11:12:31Z</time>
      </trkpt>
      <trkpt lon="78.51973593928173" lat="17.640832241893644">
        <ele>485.902</ele>
        <time>2024-09-25T11:12:31Z</time>
      </trkpt>
      <trkpt lon="78.519736355865405" lat="17.640833277559413">
        <ele>485.896</ele>
        <time>2024-09-25T11:12:31Z</time>
      </trkpt>
      <trkpt lon="78.519736770879433" lat="17.64083430761978">
        <ele>485.894</ele>
        <time>2024-09-25T11:12:31Z</time>
      </trkpt>
      <trkpt lon="78.519737183494229" lat="17.640835330315433">
        <ele>485.894</ele>
        <time>2024-09-25T11:12:31Z</time>
      </trkpt>
      <trkpt lon="78.519737593167775" lat="17.640836344575927">
        <ele>485.897</ele>
        <time>2024-09-25T11:12:31Z</time>
      </trkpt>
      <trkpt lon="78.51973799959363" lat="17.640837349887299">
        <ele>485.9</ele>
        <time>2024-09-25T11:12:31Z</time>
      </trkpt>
      <trkpt lon="78.519738402653573" lat="17.640838346172906">
        <ele>485.905</ele>
        <time>2024-09-25T11:12:31Z</time>
      </trkpt>
      <trkpt lon="78.519738802375386" lat="17.640839333688429">
        <ele>485.91</ele>
        <time>2024-09-25T11:12:31Z</time>
      </trkpt>
      <trkpt lon="78.519739198895962" lat="17.640840312931186">
        <ele>485.916</ele>
        <time>2024-09-25T11:12:31Z</time>
      </trkpt>
      <trkpt lon="78.519739592429644" lat="17.640841284563365">
        <ele>485.921</ele>
        <time>2024-09-25T11:12:31Z</time>
      </trkpt>
      <trkpt lon="78.519739983241735" lat="17.640842249348434">
        <ele>485.926</ele>
        <time>2024-09-25T11:12:31Z</time>
      </trkpt>
      <trkpt lon="78.519740371626767" lat="17.640843208099714">
        <ele>485.931</ele>
        <time>2024-09-25T11:12:31Z</time>
      </trkpt>
      <trkpt lon="78.519740757891043" lat="17.640844161639837">
        <ele>485.935</ele>
        <time>2024-09-25T11:12:31Z</time>
      </trkpt>
      <trkpt lon="78.5197411423391" lat="17.640845110769899">
        <ele>485.939</ele>
        <time>2024-09-25T11:12:31Z</time>
      </trkpt>
      <trkpt lon="78.519741525263584" lat="17.640846056246932">
        <ele>485.943</ele>
        <time>2024-09-25T11:12:31Z</time>
      </trkpt>
      <trkpt lon="78.519741906938023" lat="17.640846998768467">
        <ele>485.946</ele>
        <time>2024-09-25T11:12:31Z</time>
      </trkpt>
      <trkpt lon="78.519742287612004" lat="17.640847938962956">
        <ele>485.948</ele>
        <time>2024-09-25T11:12:31Z</time>
      </trkpt>
      <trkpt lon="78.51974266750841" lat="17.640848877384947">
        <ele>485.951</ele>
        <time>2024-09-25T11:12:31Z</time>
      </trkpt>
      <trkpt lon="78.519743046822271" lat="17.640849814514031">
        <ele>485.952</ele>
        <time>2024-09-25T11:12:31Z</time>
      </trkpt>
      <trkpt lon="78.519743425720819" lat="17.640850750756631">
        <ele>485.954</ele>
        <time>2024-09-25T11:12:31Z</time>
      </trkpt>
      <trkpt lon="78.519743804344557" lat="17.640851686449896">
        <ele>485.954</ele>
        <time>2024-09-25T11:12:31Z</time>
      </trkpt>
      <trkpt lon="78.519744182808935" lat="17.640852621867058">
        <ele>485.955</ele>
        <time>2024-09-25T11:12:31Z</time>
      </trkpt>
      <trkpt lon="78.5197446059654" lat="17.64085390143628">
        <ele>485.863</ele>
        <time>2024-09-25T11:12:32Z</time>
      </trkpt>
      <trkpt lon="78.519744960099047" lat="17.640855207217829">
        <ele>485.785</ele>
        <time>2024-09-25T11:12:32Z</time>
      </trkpt>
      <trkpt lon="78.519745255437002" lat="17.640856529964747">
        <ele>485.721</ele>
        <time>2024-09-25T11:12:32Z</time>
      </trkpt>
      <trkpt lon="78.519745501730526" lat="17.64085786211735">
        <ele>485.669</ele>
        <time>2024-09-25T11:12:32Z</time>
      </trkpt>
      <trkpt lon="78.519745708033568" lat="17.640859197650371">
        <ele>485.628</ele>
        <time>2024-09-25T11:12:32Z</time>
      </trkpt>
      <trkpt lon="78.519745882559931" lat="17.640860531904483">
        <ele>485.598</ele>
        <time>2024-09-25T11:12:32Z</time>
      </trkpt>
      <trkpt lon="78.519746032604928" lat="17.640861861411814">
        <ele>485.575</ele>
        <time>2024-09-25T11:12:32Z</time>
      </trkpt>
      <trkpt lon="78.51974616451804" lat="17.640863183723091">
        <ele>485.56</ele>
        <time>2024-09-25T11:12:32Z</time>
      </trkpt>
      <trkpt lon="78.519746283715349" lat="17.640864497241921">
        <ele>485.551</ele>
        <time>2024-09-25T11:12:32Z</time>
      </trkpt>
      <trkpt lon="78.519746394721167" lat="17.640865801070273">
        <ele>485.547</ele>
        <time>2024-09-25T11:12:32Z</time>
      </trkpt>
      <trkpt lon="78.519746501230472" lat="17.640867094867733">
        <ele>485.546</ele>
        <time>2024-09-25T11:12:32Z</time>
      </trkpt>
      <trkpt lon="78.519746606184768" lat="17.640868378726061">
        <ele>485.548</ele>
        <time>2024-09-25T11:12:32Z</time>
      </trkpt>
      <trkpt lon="78.51974671185539" lat="17.6408696530596">
        <ele>485.552</ele>
        <time>2024-09-25T11:12:32Z</time>
      </trkpt>
      <trkpt lon="78.519746819929665" lat="17.640870918511471">
        <ele>485.558</ele>
        <time>2024-09-25T11:12:32Z</time>
      </trkpt>
      <trkpt lon="78.519746931596018" lat="17.640872175874932">
        <ele>485.565</ele>
        <time>2024-09-25T11:12:32Z</time>
      </trkpt>
      <trkpt lon="78.519747047625557" lat="17.640873426028843">
        <ele>485.572</ele>
        <time>2024-09-25T11:12:32Z</time>
      </trkpt>
      <trkpt lon="78.519747168448049" lat="17.640874669886092">
        <ele>485.579</ele>
        <time>2024-09-25T11:12:32Z</time>
      </trkpt>
      <trkpt lon="78.519747294220963" lat="17.6408759083535">
        <ele>485.586</ele>
        <time>2024-09-25T11:12:32Z</time>
      </trkpt>
      <trkpt lon="78.519747424891136" lat="17.640877142301829">
        <ele>485.592</ele>
        <time>2024-09-25T11:12:32Z</time>
      </trkpt>
      <trkpt lon="78.519747560248348" lat="17.640878372544421">
        <ele>485.598</ele>
        <time>2024-09-25T11:12:32Z</time>
      </trkpt>
      <trkpt lon="78.519747699971404" lat="17.640879599823069">
        <ele>485.604</ele>
        <time>2024-09-25T11:12:32Z</time>
      </trkpt>
      <trkpt lon="78.519747843666565" lat="17.640880824799897">
        <ele>485.608</ele>
        <time>2024-09-25T11:12:32Z</time>
      </trkpt>
      <trkpt lon="78.51974799089902" lat="17.64088204805395">
        <ele>485.613</ele>
        <time>2024-09-25T11:12:32Z</time>
      </trkpt>
      <trkpt lon="78.51974814121823" lat="17.640883270081567">
        <ele>485.616</ele>
        <time>2024-09-25T11:12:32Z</time>
      </trkpt>
      <trkpt lon="78.519748294177319" lat="17.640884491299481">
        <ele>485.619</ele>
        <time>2024-09-25T11:12:32Z</time>
      </trkpt>
      <trkpt lon="78.519748449347773" lat="17.640885712049947">
        <ele>485.621</ele>
        <time>2024-09-25T11:12:32Z</time>
      </trkpt>
      <trkpt lon="78.519748606329742" lat="17.640886932607206">
        <ele>485.623</ele>
        <time>2024-09-25T11:12:32Z</time>
      </trkpt>
      <trkpt lon="78.51974876475893" lat="17.640888153184694">
        <ele>485.625</ele>
        <time>2024-09-25T11:12:32Z</time>
      </trkpt>
      <trkpt lon="78.519748924310449" lat="17.640889373942592">
        <ele>485.626</ele>
        <time>2024-09-25T11:12:32Z</time>
      </trkpt>
      <trkpt lon="78.51974913236208" lat="17.640890899037377">
        <ele>486.14</ele>
        <time>2024-09-25T11:12:33Z</time>
      </trkpt>
      <trkpt lon="78.519749336415387" lat="17.640892336511389">
        <ele>486.573</ele>
        <time>2024-09-25T11:12:33Z</time>
      </trkpt>
      <trkpt lon="78.519749536260491" lat="17.640893695601815">
        <ele>486.93</ele>
        <time>2024-09-25T11:12:33Z</time>
      </trkpt>
      <trkpt lon="78.519749731885312" lat="17.640894985993963">
        <ele>487.217</ele>
        <time>2024-09-25T11:12:33Z</time>
      </trkpt>
      <trkpt lon="78.519749923427312" lat="17.640896217374607">
        <ele>487.442</ele>
        <time>2024-09-25T11:12:33Z</time>
      </trkpt>
      <trkpt lon="78.519750111131913" lat="17.640897399095188">
        <ele>487.611</ele>
        <time>2024-09-25T11:12:33Z</time>
      </trkpt>
      <trkpt lon="78.51975029531738" lat="17.640898539929619">
        <ele>487.734</ele>
        <time>2024-09-25T11:12:33Z</time>
      </trkpt>
      <trkpt lon="78.519750476345848" lat="17.640899647911748">
        <ele>487.816</ele>
        <time>2024-09-25T11:12:33Z</time>
      </trkpt>
      <trkpt lon="78.519750654599932" lat="17.640900730238542">
        <ele>487.866</ele>
        <time>2024-09-25T11:12:33Z</time>
      </trkpt>
      <trkpt lon="78.519750830464417" lat="17.640901793226174">
        <ele>487.889</ele>
        <time>2024-09-25T11:12:33Z</time>
      </trkpt>
      <trkpt lon="78.519751004312326" lat="17.640902842307501">
        <ele>487.891</ele>
        <time>2024-09-25T11:12:33Z</time>
      </trkpt>
      <trkpt lon="78.519751176494921" lat="17.640903882060847">
        <ele>487.877</ele>
        <time>2024-09-25T11:12:33Z</time>
      </trkpt>
      <trkpt lon="78.51975134733479" lat="17.640904916261377">
        <ele>487.852</ele>
        <time>2024-09-25T11:12:33Z</time>
      </trkpt>
      <trkpt lon="78.519751517121747" lat="17.640905947947715">
        <ele>487.819</ele>
        <time>2024-09-25T11:12:33Z</time>
      </trkpt>
      <trkpt lon="78.519751686110823" lat="17.640906979497739">
        <ele>487.782</ele>
        <time>2024-09-25T11:12:33Z</time>
      </trkpt>
      <trkpt lon="78.519751854521971" lat="17.640908012708657">
        <ele>487.742</ele>
        <time>2024-09-25T11:12:33Z</time>
      </trkpt>
      <trkpt lon="78.51975202254107" lat="17.64090904887756">
        <ele>487.702</ele>
        <time>2024-09-25T11:12:33Z</time>
      </trkpt>
      <trkpt lon="78.519752190321867" lat="17.640910088879476">
        <ele>487.663</ele>
        <time>2024-09-25T11:12:33Z</time>
      </trkpt>
      <trkpt lon="78.519752357988509" lat="17.640911133240916">
        <ele>487.626</ele>
        <time>2024-09-25T11:12:33Z</time>
      </trkpt>
      <trkpt lon="78.519752525638566" lat="17.640912182207355">
        <ele>487.593</ele>
        <time>2024-09-25T11:12:33Z</time>
      </trkpt>
      <trkpt lon="78.519752693346163" lat="17.640913235803907">
        <ele>487.562</ele>
        <time>2024-09-25T11:12:33Z</time>
      </trkpt>
      <trkpt lon="78.519752861165173" lat="17.640914293888724">
        <ele>487.536</ele>
        <time>2024-09-25T11:12:33Z</time>
      </trkpt>
      <trkpt lon="78.519753029132318" lat="17.640915356198981">
        <ele>487.512</ele>
        <time>2024-09-25T11:12:33Z</time>
      </trkpt>
      <trkpt lon="78.519753197270163" lat="17.640916422389829">
        <ele>487.493</ele>
        <time>2024-09-25T11:12:33Z</time>
      </trkpt>
      <trkpt lon="78.519753365589779" lat="17.640917492066535">
        <ele>487.477</ele>
        <time>2024-09-25T11:12:33Z</time>
      </trkpt>
      <trkpt lon="78.519753534093198" lat="17.640918564810487">
        <ele>487.464</ele>
        <time>2024-09-25T11:12:33Z</time>
      </trkpt>
      <trkpt lon="78.519753702775546" lat="17.640919640199613">
        <ele>487.454</ele>
        <time>2024-09-25T11:12:33Z</time>
      </trkpt>
      <trkpt lon="78.519753871626989" lat="17.640920717823871">
        <ele>487.446</ele>
        <time>2024-09-25T11:12:33Z</time>
      </trkpt>
      <trkpt lon="78.519754040634197" lat="17.640921797296553">
        <ele>487.44</ele>
        <time>2024-09-25T11:12:33Z</time>
      </trkpt>
      <trkpt lon="78.519754256132444" lat="17.640923153557129">
        <ele>487.657</ele>
        <time>2024-09-25T11:12:34Z</time>
      </trkpt>
      <trkpt lon="78.519754463153319" lat="17.640924438943959">
        <ele>487.84</ele>
        <time>2024-09-25T11:12:34Z</time>
      </trkpt>
      <trkpt lon="78.519754662324473" lat="17.640925660299271">
        <ele>487.992</ele>
        <time>2024-09-25T11:12:34Z</time>
      </trkpt>
      <trkpt lon="78.519754854391664" lat="17.640926825004591">
        <ele>488.115</ele>
        <time>2024-09-25T11:12:34Z</time>
      </trkpt>
      <trkpt lon="78.519755040163744" lat="17.640927940591631">
        <ele>488.212</ele>
        <time>2024-09-25T11:12:34Z</time>
      </trkpt>
      <trkpt lon="78.519755220469079" lat="17.640929014443742">
        <ele>488.286</ele>
        <time>2024-09-25T11:12:34Z</time>
      </trkpt>
      <trkpt lon="78.51975539612198" lat="17.640930053576017">
        <ele>488.34</ele>
        <time>2024-09-25T11:12:34Z</time>
      </trkpt>
      <trkpt lon="78.519755567897818" lat="17.640931064482341">
        <ele>488.377</ele>
        <time>2024-09-25T11:12:34Z</time>
      </trkpt>
      <trkpt lon="78.519755736515734" lat="17.640932053038153">
        <ele>488.4</ele>
        <time>2024-09-25T11:12:34Z</time>
      </trkpt>
      <trkpt lon="78.519755902627537" lat="17.640933024448668">
        <ele>488.412</ele>
        <time>2024-09-25T11:12:34Z</time>
      </trkpt>
      <trkpt lon="78.519756066811567" lat="17.64093398323309">
        <ele>488.415</ele>
        <time>2024-09-25T11:12:34Z</time>
      </trkpt>
      <trkpt lon="78.519756229570774" lat="17.640934933236565">
        <ele>488.411</ele>
        <time>2024-09-25T11:12:34Z</time>
      </trkpt>
      <trkpt lon="78.519756391333729" lat="17.640935877662578">
        <ele>488.401</ele>
        <time>2024-09-25T11:12:34Z</time>
      </trkpt>
      <trkpt lon="78.519756552458105" lat="17.640936819119663">
        <ele>488.389</ele>
        <time>2024-09-25T11:12:34Z</time>
      </trkpt>
      <trkpt lon="78.519756713235708" lat="17.640937759677279">
        <ele>488.374</ele>
        <time>2024-09-25T11:12:34Z</time>
      </trkpt>
      <trkpt lon="78.519756873898572" lat="17.640938700926657">
        <ele>488.358</ele>
        <time>2024-09-25T11:12:34Z</time>
      </trkpt>
      <trkpt lon="78.519757034625542" lat="17.640939644043272">
        <ele>488.342</ele>
        <time>2024-09-25T11:12:34Z</time>
      </trkpt>
      <trkpt lon="78.519757195549246" lat="17.640940589848359">
        <ele>488.326</ele>
        <time>2024-09-25T11:12:34Z</time>
      </trkpt>
      <trkpt lon="78.51975735676281" lat="17.640941538867615">
        <ele>488.311</ele>
        <time>2024-09-25T11:12:34Z</time>
      </trkpt>
      <trkpt lon="78.519757518326387" lat="17.64094249138569">
        <ele>488.297</ele>
        <time>2024-09-25T11:12:34Z</time>
      </trkpt>
      <trkpt lon="78.519757680273145" lat="17.640943447495651">
        <ele>488.284</ele>
        <time>2024-09-25T11:12:34Z</time>
      </trkpt>
      <trkpt lon="78.51975784261478" lat="17.640944407142911">
        <ele>488.273</ele>
        <time>2024-09-25T11:12:34Z</time>
      </trkpt>
      <trkpt lon="78.519758005346418" lat="17.640945370163472">
        <ele>488.263</ele>
        <time>2024-09-25T11:12:34Z</time>
      </trkpt>
      <trkpt lon="78.519758168450807" lat="17.64094633631656">
        <ele>488.255</ele>
        <time>2024-09-25T11:12:34Z</time>
      </trkpt>
      <trkpt lon="78.519758331902025" lat="17.640947305311883">
        <ele>488.248</ele>
        <time>2024-09-25T11:12:34Z</time>
      </trkpt>
      <trkpt lon="78.519758495668484" lat="17.640948276831907">
        <ele>488.243</ele>
        <time>2024-09-25T11:12:34Z</time>
      </trkpt>
      <trkpt lon="78.519758659715393" lat="17.640949250549593">
        <ele>488.238</ele>
        <time>2024-09-25T11:12:34Z</time>
      </trkpt>
      <trkpt lon="78.519758824006828" lat="17.640950226142092">
        <ele>488.235</ele>
        <time>2024-09-25T11:12:34Z</time>
      </trkpt>
      <trkpt lon="78.519758988507192" lat="17.640951203300922">
        <ele>488.232</ele>
        <time>2024-09-25T11:12:34Z</time>
      </trkpt>
      <trkpt lon="78.519759238860999" lat="17.640952457315237">
        <ele>488.441</ele>
        <time>2024-09-25T11:12:35Z</time>
      </trkpt>
      <trkpt lon="78.51975951520987" lat="17.640953669285274">
        <ele>488.617</ele>
        <time>2024-09-25T11:12:35Z</time>
      </trkpt>
      <trkpt lon="78.519759812149218" lat="17.64095484154031">
        <ele>488.763</ele>
        <time>2024-09-25T11:12:35Z</time>
      </trkpt>
      <trkpt lon="78.519760124889942" lat="17.640955977215469">
        <ele>488.88</ele>
        <time>2024-09-25T11:12:35Z</time>
      </trkpt>
      <trkpt lon="78.519760449273164" lat="17.640957079944421">
        <ele>488.973</ele>
        <time>2024-09-25T11:12:35Z</time>
      </trkpt>
      <trkpt lon="78.519760781759516" lat="17.640958153610487">
        <ele>489.043</ele>
        <time>2024-09-25T11:12:35Z</time>
      </trkpt>
      <trkpt lon="78.519761119399561" lat="17.640959202150295">
        <ele>489.093</ele>
        <time>2024-09-25T11:12:35Z</time>
      </trkpt>
      <trkpt lon="78.519761459790985" lat="17.640960229403944">
        <ele>489.128</ele>
        <time>2024-09-25T11:12:35Z</time>
      </trkpt>
      <trkpt lon="78.519761801027329" lat="17.640961239005414">
        <ele>489.149</ele>
        <time>2024-09-25T11:12:35Z</time>
      </trkpt>
      <trkpt lon="78.519762141642133" lat="17.640962234307093">
        <ele>489.159</ele>
        <time>2024-09-25T11:12:35Z</time>
      </trkpt>
      <trkpt lon="78.519762480551563" lat="17.640963218332683">
        <ele>489.161</ele>
        <time>2024-09-25T11:12:35Z</time>
      </trkpt>
      <trkpt lon="78.519762816997797" lat="17.64096419375311">
        <ele>489.156</ele>
        <time>2024-09-25T11:12:35Z</time>
      </trkpt>
      <trkpt lon="78.519763150495137" lat="17.640965162880601">
        <ele>489.147</ele>
        <time>2024-09-25T11:12:35Z</time>
      </trkpt>
      <trkpt lon="78.519763480779872" lat="17.640966127676702">
        <ele>489.134</ele>
        <time>2024-09-25T11:12:35Z</time>
      </trkpt>
      <trkpt lon="78.519763807764775" lat="17.640967089770474">
        <ele>489.119</ele>
        <time>2024-09-25T11:12:35Z</time>
      </trkpt>
      <trkpt lon="78.519764131498718" lat="17.640968050483785">
        <ele>489.103</ele>
        <time>2024-09-25T11:12:35Z</time>
      </trkpt>
      <trkpt lon="78.519764452131412" lat="17.640969010861024">
        <ele>489.087</ele>
        <time>2024-09-25T11:12:35Z</time>
      </trkpt>
      <trkpt lon="78.519764769883423" lat="17.640969971701132">
        <ele>489.072</ele>
        <time>2024-09-25T11:12:35Z</time>
      </trkpt>
      <trkpt lon="78.519765085021078" lat="17.640970933590292">
        <ele>489.057</ele>
        <time>2024-09-25T11:12:35Z</time>
      </trkpt>
      <trkpt lon="78.519765397835897" lat="17.640971896933944">
        <ele>489.043</ele>
        <time>2024-09-25T11:12:35Z</time>
      </trkpt>
      <trkpt lon="78.519765708628356" lat="17.640972861987201">
        <ele>489.031</ele>
        <time>2024-09-25T11:12:35Z</time>
      </trkpt>
      <trkpt lon="78.519766017695133" lat="17.640973828883002">
        <ele>489.02</ele>
        <time>2024-09-25T11:12:35Z</time>
      </trkpt>
      <trkpt lon="78.51976632531985" lat="17.640974797657567">
        <ele>489.011</ele>
        <time>2024-09-25T11:12:35Z</time>
      </trkpt>
      <trkpt lon="78.519766631766359" lat="17.640975768272945">
        <ele>489.003</ele>
        <time>2024-09-25T11:12:35Z</time>
      </trkpt>
      <trkpt lon="78.519766937274483" lat="17.64097674063661">
        <ele>488.996</ele>
        <time>2024-09-25T11:12:35Z</time>
      </trkpt>
      <trkpt lon="78.519767242057583" lat="17.640977714618092">
        <ele>488.991</ele>
        <time>2024-09-25T11:12:35Z</time>
      </trkpt>
      <trkpt lon="78.519767546301694" lat="17.640978690062855">
        <ele>488.987</ele>
        <time>2024-09-25T11:12:35Z</time>
      </trkpt>
      <trkpt lon="78.519767850165735" lat="17.640979666803592">
        <ele>488.984</ele>
        <time>2024-09-25T11:12:35Z</time>
      </trkpt>
      <trkpt lon="78.519768153782749" lat="17.64098064466917">
        <ele>488.981</ele>
        <time>2024-09-25T11:12:35Z</time>
      </trkpt>
      <trkpt lon="78.519768575619779" lat="17.640981943077396">
        <ele>488.866</ele>
        <time>2024-09-25T11:12:36Z</time>
      </trkpt>
      <trkpt lon="78.519769011469151" lat="17.640983236026337">
        <ele>488.77</ele>
        <time>2024-09-25T11:12:36Z</time>
      </trkpt>
      <trkpt lon="78.519769457377095" lat="17.640984519467189">
        <ele>488.69</ele>
        <time>2024-09-25T11:12:36Z</time>
      </trkpt>
      <trkpt lon="78.51976991001392" lat="17.640985790678094">
        <ele>488.627</ele>
        <time>2024-09-25T11:12:36Z</time>
      </trkpt>
      <trkpt lon="78.519770366635925" lat="17.64098704803202">
        <ele>488.577</ele>
        <time>2024-09-25T11:12:36Z</time>
      </trkpt>
      <trkpt lon="78.519770825036488" lat="17.640988290783717">
        <ele>488.54</ele>
        <time>2024-09-25T11:12:36Z</time>
      </trkpt>
      <trkpt lon="78.519771283490456" lat="17.640989518878524">
        <ele>488.513</ele>
        <time>2024-09-25T11:12:36Z</time>
      </trkpt>
      <trkpt lon="78.519771740695504" lat="17.640990732784257">
        <ele>488.496</ele>
        <time>2024-09-25T11:12:36Z</time>
      </trkpt>
      <trkpt lon="78.51977219571333" lat="17.640991933346342">
        <ele>488.486</ele>
        <time>2024-09-25T11:12:36Z</time>
      </trkpt>
      <trkpt lon="78.519772647912532" lat="17.640993121665478">
        <ele>488.481</ele>
        <time>2024-09-25T11:12:36Z</time>
      </trkpt>
      <trkpt lon="78.519773096915088" lat="17.640994298996574">
        <ele>488.481</ele>
        <time>2024-09-25T11:12:36Z</time>
      </trkpt>
      <trkpt lon="78.519773542547028" lat="17.640995466667217">
        <ele>488.485</ele>
        <time>2024-09-25T11:12:36Z</time>
      </trkpt>
      <trkpt lon="78.519773984794298" lat="17.640996626013646">
        <ele>488.491</ele>
        <time>2024-09-25T11:12:36Z</time>
      </trkpt>
      <trkpt lon="78.519774423763806" lat="17.640997778332235">
        <ele>488.499</ele>
        <time>2024-09-25T11:12:36Z</time>
      </trkpt>
      <trkpt lon="78.519774859650013" lat="17.640998924844279">
        <ele>488.507</ele>
        <time>2024-09-25T11:12:36Z</time>
      </trkpt>
      <trkpt lon="78.519775292706569" lat="17.641000066672071">
        <ele>488.517</ele>
        <time>2024-09-25T11:12:36Z</time>
      </trkpt>
      <trkpt lon="78.519775723222963" lat="17.641001204824288">
        <ele>488.526</ele>
        <time>2024-09-25T11:12:36Z</time>
      </trkpt>
      <trkpt lon="78.51977615150561" lat="17.64100234018894">
        <ele>488.535</ele>
        <time>2024-09-25T11:12:36Z</time>
      </trkpt>
      <trkpt lon="78.519776577863084" lat="17.641003473532226">
        <ele>488.543</ele>
        <time>2024-09-25T11:12:36Z</time>
      </trkpt>
      <trkpt lon="78.519777002594864" lat="17.641004605501923">
        <ele>488.551</ele>
        <time>2024-09-25T11:12:36Z</time>
      </trkpt>
      <trkpt lon="78.519777425983122" lat="17.641005736634035">
        <ele>488.557</ele>
        <time>2024-09-25T11:12:36Z</time>
      </trkpt>
      <trkpt lon="78.519777848287262" lat="17.641006867361703">
        <ele>488.563</ele>
        <time>2024-09-25T11:12:36Z</time>
      </trkpt>
      <trkpt lon="78.519778269740456" lat="17.641007998025479">
        <ele>488.569</ele>
        <time>2024-09-25T11:12:36Z</time>
      </trkpt>
      <trkpt lon="78.519778690548037" lat="17.641009128884296">
        <ele>488.573</ele>
        <time>2024-09-25T11:12:36Z</time>
      </trkpt>
      <trkpt lon="78.5197791108872" lat="17.641010260126571">
        <ele>488.576</ele>
        <time>2024-09-25T11:12:36Z</time>
      </trkpt>
      <trkpt lon="78.519779530907797" lat="17.641011391881008">
        <ele>488.579</ele>
        <time>2024-09-25T11:12:36Z</time>
      </trkpt>
      <trkpt lon="78.519779950733835" lat="17.641012524226849">
        <ele>488.582</ele>
        <time>2024-09-25T11:12:36Z</time>
      </trkpt>
      <trkpt lon="78.519780370465554" lat="17.641013657203292">
        <ele>488.583</ele>
        <time>2024-09-25T11:12:36Z</time>
      </trkpt>
      <trkpt lon="78.519780790181798" lat="17.641014790817977">
        <ele>488.585</ele>
        <time>2024-09-25T11:12:36Z</time>
      </trkpt>
      <trkpt lon="78.519781338226352" lat="17.641016238366628">
        <ele>488.462</ele>
        <time>2024-09-25T11:12:37Z</time>
      </trkpt>
      <trkpt lon="78.519781876107615" lat="17.64101763095027">
        <ele>488.358</ele>
        <time>2024-09-25T11:12:37Z</time>
      </trkpt>
      <trkpt lon="78.519782403507108" lat="17.641018972471791">
        <ele>488.273</ele>
        <time>2024-09-25T11:12:37Z</time>
      </trkpt>
      <trkpt lon="78.51978292054882" lat="17.641020267646603">
        <ele>488.204</ele>
        <time>2024-09-25T11:12:37Z</time>
      </trkpt>
      <trkpt lon="78.519783427685908" lat="17.641021521638823">
        <ele>488.149</ele>
        <time>2024-09-25T11:12:37Z</time>
      </trkpt>
      <trkpt lon="78.519783925603946" lat="17.641022739771479">
        <ele>488.108</ele>
        <time>2024-09-25T11:12:37Z</time>
      </trkpt>
      <trkpt lon="78.519784415139895" lat="17.641023927302513">
        <ele>488.079</ele>
        <time>2024-09-25T11:12:37Z</time>
      </trkpt>
      <trkpt lon="78.519784897215786" lat="17.641025089258214">
        <ele>488.058</ele>
        <time>2024-09-25T11:12:37Z</time>
      </trkpt>
      <trkpt lon="78.519785372785719" lat="17.641026230315681">
        <ele>488.046</ele>
        <time>2024-09-25T11:12:37Z</time>
      </trkpt>
      <trkpt lon="78.519785842794874" lat="17.641027354726365">
        <ele>488.04</ele>
        <time>2024-09-25T11:12:37Z</time>
      </trkpt>
      <trkpt lon="78.519786308148852" lat="17.641028466273191">
        <ele>488.039</ele>
        <time>2024-09-25T11:12:37Z</time>
      </trkpt>
      <trkpt lon="78.519786769691976" lat="17.641029568254542">
        <ele>488.042</ele>
        <time>2024-09-25T11:12:37Z</time>
      </trkpt>
      <trkpt lon="78.519787228193081" lat="17.641030663488991">
        <ele>488.047</ele>
        <time>2024-09-25T11:12:37Z</time>
      </trkpt>
      <trkpt lon="78.519787684337359" lat="17.64103175433554">
        <ele>488.055</ele>
        <time>2024-09-25T11:12:37Z</time>
      </trkpt>
      <trkpt lon="78.519788138723143" lat="17.641032842724815">
        <ele>488.064</ele>
        <time>2024-09-25T11:12:37Z</time>
      </trkpt>
      <trkpt lon="78.519788591862593" lat="17.641033930197505">
        <ele>488.073</ele>
        <time>2024-09-25T11:12:37Z</time>
      </trkpt>
      <trkpt lon="78.519789044185003" lat="17.641035017946834">
        <ele>488.082</ele>
        <time>2024-09-25T11:12:37Z</time>
      </trkpt>
      <trkpt lon="78.519789496042407" lat="17.641036106862661">
        <ele>488.092</ele>
        <time>2024-09-25T11:12:37Z</time>
      </trkpt>
      <trkpt lon="78.519789947716291" lat="17.641037197575262">
        <ele>488.1</ele>
        <time>2024-09-25T11:12:37Z</time>
      </trkpt>
      <trkpt lon="78.519790399425233" lat="17.641038290497359">
        <ele>488.108</ele>
        <time>2024-09-25T11:12:37Z</time>
      </trkpt>
      <trkpt lon="78.519790851332786" lat="17.641039385863326">
        <ele>488.115</ele>
        <time>2024-09-25T11:12:37Z</time>
      </trkpt>
      <trkpt lon="78.519791303555323" lat="17.641040483764968">
        <ele>488.122</ele>
        <time>2024-09-25T11:12:37Z</time>
      </trkpt>
      <trkpt lon="78.519791756169653" lat="17.64104158418343">
        <ele>488.127</ele>
        <time>2024-09-25T11:12:37Z</time>
      </trkpt>
      <trkpt lon="78.519792209220043" lat="17.641042687017084">
        <ele>488.132</ele>
        <time>2024-09-25T11:12:37Z</time>
      </trkpt>
      <trkpt lon="78.51979266272474" lat="17.641043792105449">
        <ele>488.136</ele>
        <time>2024-09-25T11:12:37Z</time>
      </trkpt>
      <trkpt lon="78.519793116681711" lat="17.641044899249252">
        <ele>488.139</ele>
        <time>2024-09-25T11:12:37Z</time>
      </trkpt>
      <trkpt lon="78.51979357107372" lat="17.641046008226887">
        <ele>488.141</ele>
        <time>2024-09-25T11:12:37Z</time>
      </trkpt>
      <trkpt lon="78.519794025872656" lat="17.641047118807624">
        <ele>488.143</ele>
        <time>2024-09-25T11:12:37Z</time>
      </trkpt>
      <trkpt lon="78.51979448104322" lat="17.641048230761854">
        <ele>488.145</ele>
        <time>2024-09-25T11:12:37Z</time>
      </trkpt>
      <trkpt lon="78.519795093389206" lat="17.641049677500337">
        <ele>488.336</ele>
        <time>2024-09-25T11:12:38Z</time>
      </trkpt>
      <trkpt lon="78.519795709916451" lat="17.641051093029397">
        <ele>488.497</ele>
        <time>2024-09-25T11:12:38Z</time>
      </trkpt>
      <trkpt lon="78.519796327574582" lat="17.641052477118869">
        <ele>488.63</ele>
        <time>2024-09-25T11:12:38Z</time>
      </trkpt>
      <trkpt lon="78.51979694402489" lat="17.641053830687113">
        <ele>488.737</ele>
        <time>2024-09-25T11:12:38Z</time>
      </trkpt>
      <trkpt lon="78.519797557546383" lat="17.641055155486388">
        <ele>488.82</ele>
        <time>2024-09-25T11:12:38Z</time>
      </trkpt>
      <trkpt lon="78.51979816694346" lat="17.641056453836679">
        <ele>488.883</ele>
        <time>2024-09-25T11:12:38Z</time>
      </trkpt>
      <trkpt lon="78.519798771458085" lat="17.641057728405386">
        <ele>488.928</ele>
        <time>2024-09-25T11:12:38Z</time>
      </trkpt>
      <trkpt lon="78.519799370688418" lat="17.64105898202914">
        <ele>488.959</ele>
        <time>2024-09-25T11:12:38Z</time>
      </trkpt>
      <trkpt lon="78.519799964515059" lat="17.641060217573635">
        <ele>488.977</ele>
        <time>2024-09-25T11:12:38Z</time>
      </trkpt>
      <trkpt lon="78.519800553035665" lat="17.641061437826952">
        <ele>488.985</ele>
        <time>2024-09-25T11:12:38Z</time>
      </trkpt>
      <trkpt lon="78.519801136508121" lat="17.64106264542184">
        <ele>488.985</ele>
        <time>2024-09-25T11:12:38Z</time>
      </trkpt>
      <trkpt lon="78.519801715302151" lat="17.641063842782522">
        <ele>488.98</ele>
        <time>2024-09-25T11:12:38Z</time>
      </trkpt>
      <trkpt lon="78.519802289858916" lat="17.641065032091834">
        <ele>488.97</ele>
        <time>2024-09-25T11:12:38Z</time>
      </trkpt>
      <trkpt lon="78.519802860658146" lat="17.641066215274851">
        <ele>488.958</ele>
        <time>2024-09-25T11:12:38Z</time>
      </trkpt>
      <trkpt lon="78.519803428191977" lat="17.641067393995485">
        <ele>488.944</ele>
        <time>2024-09-25T11:12:38Z</time>
      </trkpt>
      <trkpt lon="78.519803992944773" lat="17.641068569662988">
        <ele>488.929</ele>
        <time>2024-09-25T11:12:38Z</time>
      </trkpt>
      <trkpt lon="78.519804555378215" lat="17.641069743445719">
        <ele>488.914</ele>
        <time>2024-09-25T11:12:38Z</time>
      </trkpt>
      <trkpt lon="78.519805115920917" lat="17.641070916289848">
        <ele>488.899</ele>
        <time>2024-09-25T11:12:38Z</time>
      </trkpt>
      <trkpt lon="78.519805674961617" lat="17.641072088941225">
        <ele>488.886</ele>
        <time>2024-09-25T11:12:38Z</time>
      </trkpt>
      <trkpt lon="78.519806232845511" lat="17.641073261968764">
        <ele>488.873</ele>
        <time>2024-09-25T11:12:38Z</time>
      </trkpt>
      <trkpt lon="78.519806789873002" lat="17.641074435788259">
        <ele>488.862</ele>
        <time>2024-09-25T11:12:38Z</time>
      </trkpt>
      <trkpt lon="78.519807346300283" lat="17.641075610685647">
        <ele>488.852</ele>
        <time>2024-09-25T11:12:38Z</time>
      </trkpt>
      <trkpt lon="78.519807902341299" lat="17.641076786839029">
        <ele>488.843</ele>
        <time>2024-09-25T11:12:38Z</time>
      </trkpt>
      <trkpt lon="78.519808458170758" lat="17.641077964339047">
        <ele>488.836</ele>
        <time>2024-09-25T11:12:38Z</time>
      </trkpt>
      <trkpt lon="78.519809013927699" lat="17.641079143207254">
        <ele>488.83</ele>
        <time>2024-09-25T11:12:38Z</time>
      </trkpt>
      <trkpt lon="78.519809569719442" lat="17.641080323412389">
        <ele>488.825</ele>
        <time>2024-09-25T11:12:38Z</time>
      </trkpt>
      <trkpt lon="78.519810125625696" lat="17.641081504884447">
        <ele>488.821</ele>
        <time>2024-09-25T11:12:38Z</time>
      </trkpt>
      <trkpt lon="78.519810681702566" lat="17.641082687526666">
        <ele>488.818</ele>
        <time>2024-09-25T11:12:38Z</time>
      </trkpt>
      <trkpt lon="78.519811237986403" lat="17.641083871225469">
        <ele>488.816</ele>
        <time>2024-09-25T11:12:38Z</time>
      </trkpt>
      <trkpt lon="78.519812003216131" lat="17.641085412337702">
        <ele>488.696</ele>
        <time>2024-09-25T11:12:39Z</time>
      </trkpt>
      <trkpt lon="78.519812787727531" lat="17.641086921038521">
        <ele>488.595</ele>
        <time>2024-09-25T11:12:39Z</time>
      </trkpt>
      <trkpt lon="78.519813585332102" lat="17.641088396982532">
        <ele>488.512</ele>
        <time>2024-09-25T11:12:39Z</time>
      </trkpt>
      <trkpt lon="78.519814390910156" lat="17.641089841046988">
        <ele>488.445</ele>
        <time>2024-09-25T11:12:39Z</time>
      </trkpt>
      <trkpt lon="78.519815200325453" lat="17.641091255000326">
        <ele>488.393</ele>
        <time>2024-09-25T11:12:39Z</time>
      </trkpt>
      <trkpt lon="78.519816010326807" lat="17.641092641221345">
        <ele>488.354</ele>
        <time>2024-09-25T11:12:39Z</time>
      </trkpt>
      <trkpt lon="78.519816818443047" lat="17.641094002466339">
        <ele>488.326</ele>
        <time>2024-09-25T11:12:39Z</time>
      </trkpt>
      <trkpt lon="78.519817622876815" lat="17.641095341680433">
        <ele>488.308</ele>
        <time>2024-09-25T11:12:39Z</time>
      </trkpt>
      <trkpt lon="78.519818422401158" lat="17.641096661848831">
        <ele>488.297</ele>
        <time>2024-09-25T11:12:39Z</time>
      </trkpt>
      <trkpt lon="78.519819216261652" lat="17.641097965883255">
        <ele>488.292</ele>
        <time>2024-09-25T11:12:39Z</time>
      </trkpt>
      <trkpt lon="78.519820004086341" lat="17.641099256538926">
        <ele>488.292</ele>
        <time>2024-09-25T11:12:39Z</time>
      </trkpt>
      <trkpt lon="78.519820785804413" lat="17.64110053635741">
        <ele>488.296</ele>
        <time>2024-09-25T11:12:39Z</time>
      </trkpt>
      <trkpt lon="78.519821561574574" lat="17.641101807630935">
        <ele>488.302</ele>
        <time>2024-09-25T11:12:39Z</time>
      </trkpt>
      <trkpt lon="78.519822331723034" lat="17.641103072384176">
        <ele>488.31</ele>
        <time>2024-09-25T11:12:39Z</time>
      </trkpt>
      <trkpt lon="78.519823096690942" lat="17.641104332369814">
        <ele>488.319</ele>
        <time>2024-09-25T11:12:39Z</time>
      </trkpt>
      <trkpt lon="78.51982385699074" lat="17.64110558907462">
        <ele>488.329</ele>
        <time>2024-09-25T11:12:39Z</time>
      </trkpt>
      <trkpt lon="78.519824613170826" lat="17.641106843733283">
        <ele>488.339</ele>
        <time>2024-09-25T11:12:39Z</time>
      </trkpt>
      <trkpt lon="78.519825365787696" lat="17.64110809734759">
        <ele>488.348</ele>
        <time>2024-09-25T11:12:39Z</time>
      </trkpt>
      <trkpt lon="78.519826115384561" lat="17.64110935070898">
        <ele>488.356</ele>
        <time>2024-09-25T11:12:39Z</time>
      </trkpt>
      <trkpt lon="78.519826862475796" lat="17.641110604422828">
        <ele>488.364</ele>
        <time>2024-09-25T11:12:39Z</time>
      </trkpt>
      <trkpt lon="78.519827607536172" lat="17.641111858933236">
        <ele>488.372</ele>
        <time>2024-09-25T11:12:39Z</time>
      </trkpt>
      <trkpt lon="78.519828350994089" lat="17.641113114547316">
        <ele>488.378</ele>
        <time>2024-09-25T11:12:39Z</time>
      </trkpt>
      <trkpt lon="78.519829093228154" lat="17.64111437145824">
        <ele>488.383</ele>
        <time>2024-09-25T11:12:39Z</time>
      </trkpt>
      <trkpt lon="78.519829834566252" lat="17.641115629766585">
        <ele>488.388</ele>
        <time>2024-09-25T11:12:39Z</time>
      </trkpt>
      <trkpt lon="78.519830575286676" lat="17.641116889499639">
        <ele>488.392</ele>
        <time>2024-09-25T11:12:39Z</time>
      </trkpt>
      <trkpt lon="78.519831315620664" lat="17.641118150628493">
        <ele>488.395</ele>
        <time>2024-09-25T11:12:39Z</time>
      </trkpt>
      <trkpt lon="78.519832055755927" lat="17.64111941308288">
        <ele>488.397</ele>
        <time>2024-09-25T11:12:39Z</time>
      </trkpt>
      <trkpt lon="78.519832795840884" lat="17.641120676763798">
        <ele>488.399</ele>
        <time>2024-09-25T11:12:39Z</time>
      </trkpt>
      <trkpt lon="78.51983353598915" lat="17.641121941554019">
        <ele>488.4</ele>
        <time>2024-09-25T11:12:39Z</time>
      </trkpt>
      <trkpt lon="78.519834549519331" lat="17.641123602197322">
        <ele>488.472</ele>
        <time>2024-09-25T11:12:40Z</time>
      </trkpt>
      <trkpt lon="78.519835584794876" lat="17.641125239977718">
        <ele>488.532</ele>
        <time>2024-09-25T11:12:40Z</time>
      </trkpt>
      <trkpt lon="78.519836634288069" lat="17.641126852462616">
        <ele>488.582</ele>
        <time>2024-09-25T11:12:40Z</time>
      </trkpt>
      <trkpt lon="78.519837691830631" lat="17.641128438696775">
        <ele>488.622</ele>
        <time>2024-09-25T11:12:40Z</time>
      </trkpt>
      <trkpt lon="78.519838752493285" lat="17.64112999887179">
        <ele>488.653</ele>
        <time>2024-09-25T11:12:40Z</time>
      </trkpt>
      <trkpt lon="78.519839812451906" lat="17.641131534037093">
        <ele>488.676</ele>
        <time>2024-09-25T11:12:40Z</time>
      </trkpt>
      <trkpt lon="78.519840868848235" lat="17.641133045852321">
        <ele>488.693</ele>
        <time>2024-09-25T11:12:40Z</time>
      </trkpt>
      <trkpt lon="78.519841919651412" lat="17.641134536379468">
        <ele>488.704</ele>
        <time>2024-09-25T11:12:40Z</time>
      </trkpt>
      <trkpt lon="78.519842963524781" lat="17.641136007912202">
        <ele>488.71</ele>
        <time>2024-09-25T11:12:40Z</time>
      </trkpt>
      <trkpt lon="78.519843999701393" lat="17.64113746283919">
        <ele>488.713</ele>
        <time>2024-09-25T11:12:40Z</time>
      </trkpt>
      <trkpt lon="78.519845027870446" lat="17.641138903537747">
        <ele>488.713</ele>
        <time>2024-09-25T11:12:40Z</time>
      </trkpt>
      <trkpt lon="78.519846048075735" lat="17.641140332294064">
        <ele>488.711</ele>
        <time>2024-09-25T11:12:40Z</time>
      </trkpt>
      <trkpt lon="78.519847060626859" lat="17.641141751246256">
        <ele>488.707</ele>
        <time>2024-09-25T11:12:40Z</time>
      </trkpt>
      <trkpt lon="78.519848066022988" lat="17.641143162346548">
        <ele>488.702</ele>
        <time>2024-09-25T11:12:40Z</time>
      </trkpt>
      <trkpt lon="78.519849064888902" lat="17.641144567339257">
        <ele>488.697</ele>
        <time>2024-09-25T11:12:40Z</time>
      </trkpt>
      <trkpt lon="78.519850057922369" lat="17.641145967751378">
        <ele>488.691</ele>
        <time>2024-09-25T11:12:40Z</time>
      </trkpt>
      <trkpt lon="78.519851045851937" lat="17.641147364893069">
        <ele>488.685</ele>
        <time>2024-09-25T11:12:40Z</time>
      </trkpt>
      <trkpt lon="78.519852029404049" lat="17.641148759865519">
        <ele>488.68</ele>
        <time>2024-09-25T11:12:40Z</time>
      </trkpt>
      <trkpt lon="78.519853009278322" lat="17.641150153574163">
        <ele>488.675</ele>
        <time>2024-09-25T11:12:40Z</time>
      </trkpt>
      <trkpt lon="78.519853986129846" lat="17.641151546745419">
        <ele>488.67</ele>
        <time>2024-09-25T11:12:40Z</time>
      </trkpt>
      <trkpt lon="78.519854960557453" lat="17.641152939945542">
        <ele>488.666</ele>
        <time>2024-09-25T11:12:40Z</time>
      </trkpt>
      <trkpt lon="78.519855933096721" lat="17.641154333600369">
        <ele>488.662</ele>
        <time>2024-09-25T11:12:40Z</time>
      </trkpt>
      <trkpt lon="78.519856904216951" lat="17.641155728015121">
        <ele>488.659</ele>
        <time>2024-09-25T11:12:40Z</time>
      </trkpt>
      <trkpt lon="78.51985787432119" lat="17.641157123393487">
        <ele>488.656</ele>
        <time>2024-09-25T11:12:40Z</time>
      </trkpt>
      <trkpt lon="78.519858843748565" lat="17.641158519855537">
        <ele>488.654</ele>
        <time>2024-09-25T11:12:40Z</time>
      </trkpt>
      <trkpt lon="78.519859812778179" lat="17.641159917454157">
        <ele>488.652</ele>
        <time>2024-09-25T11:12:40Z</time>
      </trkpt>
      <trkpt lon="78.519860781634293" lat="17.641161316189734">
        <ele>488.65</ele>
        <time>2024-09-25T11:12:40Z</time>
      </trkpt>
      <trkpt lon="78.519861750491941" lat="17.641162716023079">
        <ele>488.649</ele>
        <time>2024-09-25T11:12:40Z</time>
      </trkpt>
      <trkpt lon="78.519862719483044" lat="17.641164116886525">
        <ele>488.649</ele>
        <time>2024-09-25T11:12:40Z</time>
      </trkpt>
      <trkpt lon="78.519863986189719" lat="17.641165858130368">
        <ele>488.925</ele>
        <time>2024-09-25T11:12:41Z</time>
      </trkpt>
      <trkpt lon="78.519865230650211" lat="17.641167491397557">
        <ele>489.158</ele>
        <time>2024-09-25T11:12:41Z</time>
      </trkpt>
      <trkpt lon="78.519866451900313" lat="17.641169028512721">
        <ele>489.35</ele>
        <time>2024-09-25T11:12:41Z</time>
      </trkpt>
      <trkpt lon="78.519867650019265" lat="17.641170481728722">
        <ele>489.505</ele>
        <time>2024-09-25T11:12:41Z</time>
      </trkpt>
      <trkpt lon="78.519868825870148" lat="17.641171863195691">
        <ele>489.626</ele>
        <time>2024-09-25T11:12:41Z</time>
      </trkpt>
      <trkpt lon="78.519869980876891" lat="17.641173184564359">
        <ele>489.718</ele>
        <time>2024-09-25T11:12:41Z</time>
      </trkpt>
      <trkpt lon="78.519871116836782" lat="17.641174456704388">
        <ele>489.785</ele>
        <time>2024-09-25T11:12:41Z</time>
      </trkpt>
      <trkpt lon="78.519872235766115" lat="17.641175689519159">
        <ele>489.829</ele>
        <time>2024-09-25T11:12:41Z</time>
      </trkpt>
      <trkpt lon="78.51987333977624" lat="17.64117689183972">
        <ele>489.856</ele>
        <time>2024-09-25T11:12:41Z</time>
      </trkpt>
      <trkpt lon="78.519874430976898" lat="17.64117807138209">
        <ele>489.869</ele>
        <time>2024-09-25T11:12:41Z</time>
      </trkpt>
      <trkpt lon="78.519875511403285" lat="17.641179234753785">
        <ele>489.871</ele>
        <time>2024-09-25T11:12:41Z</time>
      </trkpt>
      <trkpt lon="78.519876582963732" lat="17.641180387497251">
        <ele>489.864</ele>
        <time>2024-09-25T11:12:41Z</time>
      </trkpt>
      <trkpt lon="78.51987764740467" lat="17.641181534159568">
        <ele>489.851</ele>
        <time>2024-09-25T11:12:41Z</time>
      </trkpt>
      <trkpt lon="78.519878706289873" lat="17.641182678379597">
        <ele>489.833</ele>
        <time>2024-09-25T11:12:41Z</time>
      </trkpt>
      <trkpt lon="78.51987976099106" lat="17.641183822985184">
        <ele>489.813</ele>
        <time>2024-09-25T11:12:41Z</time>
      </trkpt>
      <trkpt lon="78.51988081268756" lat="17.641184970094614">
        <ele>489.792</ele>
        <time>2024-09-25T11:12:41Z</time>
      </trkpt>
      <trkpt lon="78.519881862372742" lat="17.641186121217721">
        <ele>489.771</ele>
        <time>2024-09-25T11:12:41Z</time>
      </trkpt>
      <trkpt lon="78.519882910865235" lat="17.641187277353261">
        <ele>489.75</ele>
        <time>2024-09-25T11:12:41Z</time>
      </trkpt>
      <trkpt lon="78.519883958823584" lat="17.641188439080025">
        <ele>489.73</ele>
        <time>2024-09-25T11:12:41Z</time>
      </trkpt>
      <trkpt lon="78.519885006762749" lat="17.641189606640147">
        <ele>489.712</ele>
        <time>2024-09-25T11:12:41Z</time>
      </trkpt>
      <trkpt lon="78.519886055071581" lat="17.641190780013556">
        <ele>489.696</ele>
        <time>2024-09-25T11:12:41Z</time>
      </trkpt>
      <trkpt lon="78.519887104030374" lat="17.641191958983232">
        <ele>489.682</ele>
        <time>2024-09-25T11:12:41Z</time>
      </trkpt>
      <trkpt lon="78.519888153827836" lat="17.641193143191238">
        <ele>489.669</ele>
        <time>2024-09-25T11:12:41Z</time>
      </trkpt>
      <trkpt lon="78.519889204577083" lat="17.641194332185822">
        <ele>489.659</ele>
        <time>2024-09-25T11:12:41Z</time>
      </trkpt>
      <trkpt lon="78.51989025633037" lat="17.641195525460223">
        <ele>489.65</ele>
        <time>2024-09-25T11:12:41Z</time>
      </trkpt>
      <trkpt lon="78.519891309092174" lat="17.641196722483794">
        <ele>489.643</ele>
        <time>2024-09-25T11:12:41Z</time>
      </trkpt>
      <trkpt lon="78.519892362830845" lat="17.641197922726327">
        <ele>489.637</ele>
        <time>2024-09-25T11:12:41Z</time>
      </trkpt>
      <trkpt lon="78.519893417488632" lat="17.641199125676351">
        <ele>489.633</ele>
        <time>2024-09-25T11:12:41Z</time>
      </trkpt>
      <trkpt lon="78.51989447299006" lat="17.641200330854282">
        <ele>489.63</ele>
        <time>2024-09-25T11:12:41Z</time>
      </trkpt>
      <trkpt lon="78.519895822709856" lat="17.641201826506613">
        <ele>489.855</ele>
        <time>2024-09-25T11:12:42Z</time>
      </trkpt>
      <trkpt lon="78.519897122912539" lat="17.641203227397536">
        <ele>490.044</ele>
        <time>2024-09-25T11:12:42Z</time>
      </trkpt>
      <trkpt lon="78.519898376913915" lat="17.641204543894123">
        <ele>490.201</ele>
        <time>2024-09-25T11:12:42Z</time>
      </trkpt>
      <trkpt lon="78.519899588818063" lat="17.641205786742162">
        <ele>490.328</ele>
        <time>2024-09-25T11:12:42Z</time>
      </trkpt>
      <trkpt lon="78.519900763180658" lat="17.641206966599743">
        <ele>490.427</ele>
        <time>2024-09-25T11:12:42Z</time>
      </trkpt>
      <trkpt lon="78.51990190473964" lat="17.641208093688693">
        <ele>490.503</ele>
        <time>2024-09-25T11:12:42Z</time>
      </trkpt>
      <trkpt lon="78.519903018205767" lat="17.641209177546987">
        <ele>490.558</ele>
        <time>2024-09-25T11:12:42Z</time>
      </trkpt>
      <trkpt lon="78.51990410810572" lat="17.641210226865866">
        <ele>490.595</ele>
        <time>2024-09-25T11:12:42Z</time>
      </trkpt>
      <trkpt lon="78.519905178670228" lat="17.641211249396427">
        <ele>490.618</ele>
        <time>2024-09-25T11:12:42Z</time>
      </trkpt>
      <trkpt lon="78.519906233759968" lat="17.641212251911913">
        <ele>490.629</ele>
        <time>2024-09-25T11:12:42Z</time>
      </trkpt>
      <trkpt lon="78.519907276822607" lat="17.641213240213201">
        <ele>490.631</ele>
        <time>2024-09-25T11:12:42Z</time>
      </trkpt>
      <trkpt lon="78.519908310874712" lat="17.641214219166724">
        <ele>490.626</ele>
        <time>2024-09-25T11:12:42Z</time>
      </trkpt>
      <trkpt lon="78.519909338503197" lat="17.641215192765511">
        <ele>490.616</ele>
        <time>2024-09-25T11:12:42Z</time>
      </trkpt>
      <trkpt lon="78.519910361881159" lat="17.641216164205549">
        <ele>490.602</ele>
        <time>2024-09-25T11:12:42Z</time>
      </trkpt>
      <trkpt lon="78.519911382794362" lat="17.641217135970976">
        <ele>490.586</ele>
        <time>2024-09-25T11:12:42Z</time>
      </trkpt>
      <trkpt lon="78.519912402674507" lat="17.641218109923088">
        <ele>490.569</ele>
        <time>2024-09-25T11:12:42Z</time>
      </trkpt>
      <trkpt lon="78.519913422636733" lat="17.641219087389008">
        <ele>490.552</ele>
        <time>2024-09-25T11:12:42Z</time>
      </trkpt>
      <trkpt lon="78.519914443518815" lat="17.641220069247115">
        <ele>490.536</ele>
        <time>2024-09-25T11:12:42Z</time>
      </trkpt>
      <trkpt lon="78.519915465920292" lat="17.641221056007009">
        <ele>490.52</ele>
        <time>2024-09-25T11:12:42Z</time>
      </trkpt>
      <trkpt lon="78.519916490240377" lat="17.641222047882589">
        <ele>490.505</ele>
        <time>2024-09-25T11:12:42Z</time>
      </trkpt>
      <trkpt lon="78.519917516713335" lat="17.641223044857455">
        <ele>490.492</ele>
        <time>2024-09-25T11:12:42Z</time>
      </trkpt>
      <trkpt lon="78.51991854544103" lat="17.641224046742131">
        <ele>490.48</ele>
        <time>2024-09-25T11:12:42Z</time>
      </trkpt>
      <trkpt lon="78.519919576421913" lat="17.641225053223284">
        <ele>490.47</ele>
        <time>2024-09-25T11:12:42Z</time>
      </trkpt>
      <trkpt lon="78.519920609576573" lat="17.641226063905087">
        <ele>490.462</ele>
        <time>2024-09-25T11:12:42Z</time>
      </trkpt>
      <trkpt lon="78.519921644769681" lat="17.64122707834327">
        <ele>490.455</ele>
        <time>2024-09-25T11:12:42Z</time>
      </trkpt>
      <trkpt lon="78.519922681828405" lat="17.641228096072481">
        <ele>490.449</ele>
        <time>2024-09-25T11:12:42Z</time>
      </trkpt>
      <trkpt lon="78.519923720557671" lat="17.641229116627642">
        <ele>490.444</ele>
        <time>2024-09-25T11:12:42Z</time>
      </trkpt>
      <trkpt lon="78.519924760752403" lat="17.641230139560022">
        <ele>490.441</ele>
        <time>2024-09-25T11:12:42Z</time>
      </trkpt>
      <trkpt lon="78.519925802207169" lat="17.641231164448804">
        <ele>490.438</ele>
        <time>2024-09-25T11:12:42Z</time>
      </trkpt>
      <trkpt lon="78.519927143708827" lat="17.641232471728635">
        <ele>490.467</ele>
        <time>2024-09-25T11:12:43Z</time>
      </trkpt>
      <trkpt lon="78.519928444584068" lat="17.641233728200604">
        <ele>490.491</ele>
        <time>2024-09-25T11:12:43Z</time>
      </trkpt>
      <trkpt lon="78.519929706619621" lat="17.641234937454222">
        <ele>490.511</ele>
        <time>2024-09-25T11:12:43Z</time>
      </trkpt>
      <trkpt lon="78.519930932511187" lat="17.641236103835158">
        <ele>490.528</ele>
        <time>2024-09-25T11:12:43Z</time>
      </trkpt>
      <trkpt lon="78.51993212554612" lat="17.641237232108175">
        <ele>490.541</ele>
        <time>2024-09-25T11:12:43Z</time>
      </trkpt>
      <trkpt lon="78.519933289343513" lat="17.641238327188479">
        <ele>490.552</ele>
        <time>2024-09-25T11:12:43Z</time>
      </trkpt>
      <trkpt lon="78.519934427646916" lat="17.641239393933972">
        <ele>490.559</ele>
        <time>2024-09-25T11:12:43Z</time>
      </trkpt>
      <trkpt lon="78.51993554416363" lat="17.641240436990667">
        <ele>490.565</ele>
        <time>2024-09-25T11:12:43Z</time>
      </trkpt>
      <trkpt lon="78.519936642444918" lat="17.641241460683482">
        <ele>490.568</ele>
        <time>2024-09-25T11:12:43Z</time>
      </trkpt>
      <trkpt lon="78.5199377258011" lat="17.641242468945098">
        <ele>490.571</ele>
        <time>2024-09-25T11:12:43Z</time>
      </trkpt>
      <trkpt lon="78.519938797245842" lat="17.641243465275942">
        <ele>490.571</ele>
        <time>2024-09-25T11:12:43Z</time>
      </trkpt>
      <trkpt lon="78.519939859464586" lat="17.641244452729033">
        <ele>490.571</ele>
        <time>2024-09-25T11:12:43Z</time>
      </trkpt>
      <trkpt lon="78.519940914802064" lat="17.641245433914104">
        <ele>490.571</ele>
        <time>2024-09-25T11:12:43Z</time>
      </trkpt>
      <trkpt lon="78.519941965264763" lat="17.641246411016084">
        <ele>490.569</ele>
        <time>2024-09-25T11:12:43Z</time>
      </trkpt>
      <trkpt lon="78.519943012534497" lat="17.641247385823824">
        <ele>490.568</ele>
        <time>2024-09-25T11:12:43Z</time>
      </trkpt>
      <trkpt lon="78.519944057989917" lat="17.641248359765452">
        <ele>490.566</ele>
        <time>2024-09-25T11:12:43Z</time>
      </trkpt>
      <trkpt lon="78.519945102733288" lat="17.641249333947599">
        <ele>490.564</ele>
        <time>2024-09-25T11:12:43Z</time>
      </trkpt>
      <trkpt lon="78.519946147620232" lat="17.641250309196103">
        <ele>490.562</ele>
        <time>2024-09-25T11:12:43Z</time>
      </trkpt>
      <trkpt lon="78.51994719329079" lat="17.641251286096463">
        <ele>490.56</ele>
        <time>2024-09-25T11:12:43Z</time>
      </trkpt>
      <trkpt lon="78.519948240200165" lat="17.641252265032673">
        <ele>490.558</ele>
        <time>2024-09-25T11:12:43Z</time>
      </trkpt>
      <trkpt lon="78.519949288648505" lat="17.641253246223481">
        <ele>490.557</ele>
        <time>2024-09-25T11:12:43Z</time>
      </trkpt>
      <trkpt lon="78.519950338808613" lat="17.641254229755493">
        <ele>490.555</ele>
        <time>2024-09-25T11:12:43Z</time>
      </trkpt>
      <trkpt lon="78.519951390751288" lat="17.641255215612681">
        <ele>490.554</ele>
        <time>2024-09-25T11:12:43Z</time>
      </trkpt>
      <trkpt lon="78.519952444468018" lat="17.641256203702213">
        <ele>490.553</ele>
        <time>2024-09-25T11:12:43Z</time>
      </trkpt>
      <trkpt lon="78.519953499890761" lat="17.64125719387658">
        <ele>490.552</ele>
        <time>2024-09-25T11:12:43Z</time>
      </trkpt>
      <trkpt lon="78.519954556908971" lat="17.641258185952193">
        <ele>490.551</ele>
        <time>2024-09-25T11:12:43Z</time>
      </trkpt>
      <trkpt lon="78.519955615383921" lat="17.641259179724617">
        <ele>490.55</ele>
        <time>2024-09-25T11:12:43Z</time>
      </trkpt>
      <trkpt lon="78.519956675160444" lat="17.641260174980829">
        <ele>490.55</ele>
        <time>2024-09-25T11:12:43Z</time>
      </trkpt>
      <trkpt lon="78.519957736076364" lat="17.641261171508713">
        <ele>490.55</ele>
        <time>2024-09-25T11:12:43Z</time>
      </trkpt>
      <trkpt lon="78.519959274305435" lat="17.641262644597042">
        <ele>490.403</ele>
        <time>2024-09-25T11:12:44Z</time>
      </trkpt>
      <trkpt lon="78.519960915785944" lat="17.641264238447427">
        <ele>490.279</ele>
        <time>2024-09-25T11:12:44Z</time>
      </trkpt>
      <trkpt lon="78.519962636980836" lat="17.641265926761928">
        <ele>490.177</ele>
        <time>2024-09-25T11:12:44Z</time>
      </trkpt>
      <trkpt lon="78.5199644173791" lat="17.641267686436095">
        <ele>490.095</ele>
        <time>2024-09-25T11:12:44Z</time>
      </trkpt>
      <trkpt lon="78.519966239463145" lat="17.641269497575184">
        <ele>490.031</ele>
        <time>2024-09-25T11:12:44Z</time>
      </trkpt>
      <trkpt lon="78.519968088580214" lat="17.641271343394905">
        <ele>489.983</ele>
        <time>2024-09-25T11:12:44Z</time>
      </trkpt>
      <trkpt lon="78.519969952746024" lat="17.641273210038566">
        <ele>489.948</ele>
        <time>2024-09-25T11:12:44Z</time>
      </trkpt>
      <trkpt lon="78.519971822404017" lat="17.64127508633759">
        <ele>489.924</ele>
        <time>2024-09-25T11:12:44Z</time>
      </trkpt>
      <trkpt lon="78.519973690159532" lat="17.641276963537603">
        <ele>489.91</ele>
        <time>2024-09-25T11:12:44Z</time>
      </trkpt>
      <trkpt lon="78.519975550504469" lat="17.64127883500813">
        <ele>489.904</ele>
        <time>2024-09-25T11:12:44Z</time>
      </trkpt>
      <trkpt lon="78.519977399544061" lat="17.641280695950002">
        <ele>489.903</ele>
        <time>2024-09-25T11:12:44Z</time>
      </trkpt>
      <trkpt lon="78.519979234735047" lat="17.641282543111178">
        <ele>489.907</ele>
        <time>2024-09-25T11:12:44Z</time>
      </trkpt>
      <trkpt lon="78.519981054641178" lat="17.641284374518808">
        <ele>489.914</ele>
        <time>2024-09-25T11:12:44Z</time>
      </trkpt>
      <trkpt lon="78.51998285871062" lat="17.641286189232829">
        <ele>489.923</ele>
        <time>2024-09-25T11:12:44Z</time>
      </trkpt>
      <trkpt lon="78.519984647077408" lat="17.641287987124361">
        <ele>489.934</ele>
        <time>2024-09-25T11:12:44Z</time>
      </trkpt>
      <trkpt lon="78.519986420387909" lat="17.641289768680487">
        <ele>489.946</ele>
        <time>2024-09-25T11:12:44Z</time>
      </trkpt>
      <trkpt lon="78.519988179652245" lat="17.641291534835684">
        <ele>489.957</ele>
        <time>2024-09-25T11:12:44Z</time>
      </trkpt>
      <trkpt lon="78.519989926119678" lat="17.641293286829235">
        <ele>489.968</ele>
        <time>2024-09-25T11:12:44Z</time>
      </trkpt>
      <trkpt lon="78.519991661176348" lat="17.64129502608715">
        <ele>489.979</ele>
        <time>2024-09-25T11:12:44Z</time>
      </trkpt>
      <trkpt lon="78.519993386263437" lat="17.641296754126675">
        <ele>489.988</ele>
        <time>2024-09-25T11:12:44Z</time>
      </trkpt>
      <trkpt lon="78.519995102813553" lat="17.641298472481143">
        <ele>489.997</ele>
        <time>2024-09-25T11:12:44Z</time>
      </trkpt>
      <trkpt lon="78.519996812203118" lat="17.641300182642752">
        <ele>490.004</ele>
        <time>2024-09-25T11:12:44Z</time>
      </trkpt>
      <trkpt lon="78.519998515718342" lat="17.641301886020869">
        <ele>490.011</ele>
        <time>2024-09-25T11:12:44Z</time>
      </trkpt>
      <trkpt lon="78.520000214532828" lat="17.641303583913494">
        <ele>490.017</ele>
        <time>2024-09-25T11:12:44Z</time>
      </trkpt>
      <trkpt lon="78.520001909694528" lat="17.641305277489568">
        <ele>490.021</ele>
        <time>2024-09-25T11:12:44Z</time>
      </trkpt>
      <trkpt lon="78.520003602120198" lat="17.641306967780181">
        <ele>490.025</ele>
        <time>2024-09-25T11:12:44Z</time>
      </trkpt>
      <trkpt lon="78.520005292595982" lat="17.641308655676681">
        <ele>490.028</ele>
        <time>2024-09-25T11:12:44Z</time>
      </trkpt>
      <trkpt lon="78.520006981782203" lat="17.641310341934126">
        <ele>490.03</ele>
        <time>2024-09-25T11:12:44Z</time>
      </trkpt>
      <trkpt lon="78.520008670221372" lat="17.641312027178607">
        <ele>490.032</ele>
        <time>2024-09-25T11:12:44Z</time>
      </trkpt>
      <trkpt lon="78.520010754530006" lat="17.641314036185022">
        <ele>490.476</ele>
        <time>2024-09-25T11:12:45Z</time>
      </trkpt>
      <trkpt lon="78.520012696397984" lat="17.641315842858099">
        <ele>490.851</ele>
        <time>2024-09-25T11:12:45Z</time>
      </trkpt>
      <trkpt lon="78.520014512432297" lat="17.641317474354025">
        <ele>491.159</ele>
        <time>2024-09-25T11:12:45Z</time>
      </trkpt>
      <trkpt lon="78.520016219521636" lat="17.641318957227302">
        <ele>491.407</ele>
        <time>2024-09-25T11:12:45Z</time>
      </trkpt>
      <trkpt lon="78.520017834180507" lat="17.641320316656639">
        <ele>491.601</ele>
        <time>2024-09-25T11:12:45Z</time>
      </trkpt>
      <trkpt lon="78.520019372067836" lat="17.641321575909231">
        <ele>491.747</ele>
        <time>2024-09-25T11:12:45Z</time>
      </trkpt>
      <trkpt lon="78.52002084765374" lat="17.641322756003287">
        <ele>491.853</ele>
        <time>2024-09-25T11:12:45Z</time>
      </trkpt>
      <trkpt lon="78.520022274009719" lat="17.641323875531761">
        <ele>491.924</ele>
        <time>2024-09-25T11:12:45Z</time>
      </trkpt>
      <trkpt lon="78.520023662698961" lat="17.641324950613694">
        <ele>491.966</ele>
        <time>2024-09-25T11:12:45Z</time>
      </trkpt>
      <trkpt lon="78.520025023746086" lat="17.641325994943458">
        <ele>491.986</ele>
        <time>2024-09-25T11:12:45Z</time>
      </trkpt>
      <trkpt lon="78.520026365667832" lat="17.641327019912072">
        <ele>491.987</ele>
        <time>2024-09-25T11:12:45Z</time>
      </trkpt>
      <trkpt lon="78.520027695548436" lat="17.641328034778663">
        <ele>491.975</ele>
        <time>2024-09-25T11:12:45Z</time>
      </trkpt>
      <trkpt lon="78.520029019146278" lat="17.641329046873736">
        <ele>491.953</ele>
        <time>2024-09-25T11:12:45Z</time>
      </trkpt>
      <trkpt lon="78.52003034102033" lat="17.641330061819385">
        <ele>491.925</ele>
        <time>2024-09-25T11:12:45Z</time>
      </trkpt>
      <trkpt lon="78.520031664667059" lat="17.641331083754647">
        <ele>491.892</ele>
        <time>2024-09-25T11:12:45Z</time>
      </trkpt>
      <trkpt lon="78.520032992660603" lat="17.641332115556839">
        <ele>491.858</ele>
        <time>2024-09-25T11:12:45Z</time>
      </trkpt>
      <trkpt lon="78.520034326790423" lat="17.641333159052262">
        <ele>491.823</ele>
        <time>2024-09-25T11:12:45Z</time>
      </trkpt>
      <trkpt lon="78.520035668192335" lat="17.641334215211522">
        <ele>491.79</ele>
        <time>2024-09-25T11:12:45Z</time>
      </trkpt>
      <trkpt lon="78.520037017469974" lat="17.64133528432647">
        <ele>491.758</ele>
        <time>2024-09-25T11:12:45Z</time>
      </trkpt>
      <trkpt lon="78.520038374804869" lat="17.641336366167163">
        <ele>491.729</ele>
        <time>2024-09-25T11:12:45Z</time>
      </trkpt>
      <trkpt lon="78.520039740054031" lat="17.641337460118322">
        <ele>491.702</ele>
        <time>2024-09-25T11:12:45Z</time>
      </trkpt>
      <trkpt lon="78.520041112834832" lat="17.641338565295552">
        <ele>491.679</ele>
        <time>2024-09-25T11:12:45Z</time>
      </trkpt>
      <trkpt lon="78.520042492597256" lat="17.641339680642311">
        <ele>491.659</ele>
        <time>2024-09-25T11:12:45Z</time>
      </trkpt>
      <trkpt lon="78.520043878684234" lat="17.641340805008987">
        <ele>491.643</ele>
        <time>2024-09-25T11:12:45Z</time>
      </trkpt>
      <trkpt lon="78.520045270380805" lat="17.641341937215728">
        <ele>491.629</ele>
        <time>2024-09-25T11:12:45Z</time>
      </trkpt>
      <trkpt lon="78.52004666695322" lat="17.641343076100867">
        <ele>491.617</ele>
        <time>2024-09-25T11:12:45Z</time>
      </trkpt>
      <trkpt lon="78.520048067679028" lat="17.641344220556789">
        <ele>491.609</ele>
        <time>2024-09-25T11:12:45Z</time>
      </trkpt>
      <trkpt lon="78.52004947186937" lat="17.641345369555086">
        <ele>491.602</ele>
        <time>2024-09-25T11:12:45Z</time>
      </trkpt>
      <trkpt lon="78.520050878884703" lat="17.641346522162777">
        <ele>491.597</ele>
        <time>2024-09-25T11:12:45Z</time>
      </trkpt>
      <trkpt lon="78.520052701368442" lat="17.64134799676253">
        <ele>491.392</ele>
        <time>2024-09-25T11:12:46Z</time>
      </trkpt>
      <trkpt lon="78.520054477629955" lat="17.641349418158359">
        <ele>491.22</ele>
        <time>2024-09-25T11:12:46Z</time>
      </trkpt>
      <trkpt lon="78.520056208447002" lat="17.641350789548305">
        <ele>491.079</ele>
        <time>2024-09-25T11:12:46Z</time>
      </trkpt>
      <trkpt lon="78.52005789598411" lat="17.641352115079748">
        <ele>490.966</ele>
        <time>2024-09-25T11:12:46Z</time>
      </trkpt>
      <trkpt lon="78.520059543375993" lat="17.641353399471672">
        <ele>490.879</ele>
        <time>2024-09-25T11:12:46Z</time>
      </trkpt>
      <trkpt lon="78.520061154379889" lat="17.641354647710056">
        <ele>490.813</ele>
        <time>2024-09-25T11:12:46Z</time>
      </trkpt>
      <trkpt lon="78.520062733091734" lat="17.64135586480899">
        <ele>490.766</ele>
        <time>2024-09-25T11:12:46Z</time>
      </trkpt>
      <trkpt lon="78.520064283720615" lat="17.641357055629609">
        <ele>490.735</ele>
        <time>2024-09-25T11:12:46Z</time>
      </trkpt>
      <trkpt lon="78.520065810414678" lat="17.641358224748934">
        <ele>490.717</ele>
        <time>2024-09-25T11:12:46Z</time>
      </trkpt>
      <trkpt lon="78.520067317132103" lat="17.641359376370858">
        <ele>490.709</ele>
        <time>2024-09-25T11:12:46Z</time>
      </trkpt>
      <trkpt lon="78.520068807550402" lat="17.641360514272012">
        <ele>490.71</ele>
        <time>2024-09-25T11:12:46Z</time>
      </trkpt>
      <trkpt lon="78.520070285007776" lat="17.641361641775788">
        <ele>490.717</ele>
        <time>2024-09-25T11:12:46Z</time>
      </trkpt>
      <trkpt lon="78.52007175247077" lat="17.641362761748503">
        <ele>490.728</ele>
        <time>2024-09-25T11:12:46Z</time>
      </trkpt>
      <trkpt lon="78.520073212522647" lat="17.64136387661237">
        <ele>490.742</ele>
        <time>2024-09-25T11:12:46Z</time>
      </trkpt>
      <trkpt lon="78.520074667368135" lat="17.641364988370729">
        <ele>490.757</ele>
        <time>2024-09-25T11:12:46Z</time>
      </trkpt>
      <trkpt lon="78.520076118850014" lat="17.641366098641566">
        <ele>490.774</ele>
        <time>2024-09-25T11:12:46Z</time>
      </trkpt>
      <trkpt lon="78.520077568474193" lat="17.641367208696213">
        <ele>490.79</ele>
        <time>2024-09-25T11:12:46Z</time>
      </trkpt>
      <trkpt lon="78.520079017440352" lat="17.641368319500522">
        <ele>490.806</ele>
        <time>2024-09-25T11:12:46Z</time>
      </trkpt>
      <trkpt lon="78.520080466675722" lat="17.641369431756541">
        <ele>490.821</ele>
        <time>2024-09-25T11:12:46Z</time>
      </trkpt>
      <trkpt lon="78.52008191686987" lat="17.641370545943062">
        <ele>490.834</ele>
        <time>2024-09-25T11:12:46Z</time>
      </trkpt>
      <trkpt lon="78.520083368509347" lat="17.641371662353961">
        <ele>490.846</ele>
        <time>2024-09-25T11:12:46Z</time>
      </trkpt>
      <trkpt lon="78.5200848219107" lat="17.641372781133519">
        <ele>490.857</ele>
        <time>2024-09-25T11:12:46Z</time>
      </trkpt>
      <trkpt lon="78.520086277251352" lat="17.641373902308231">
        <ele>490.866</ele>
        <time>2024-09-25T11:12:46Z</time>
      </trkpt>
      <trkpt lon="78.520087734597737" lat="17.641375025814895">
        <ele>490.874</ele>
        <time>2024-09-25T11:12:46Z</time>
      </trkpt>
      <trkpt lon="78.520089193930232" lat="17.641376151524881">
        <ele>490.88</ele>
        <time>2024-09-25T11:12:46Z</time>
      </trkpt>
      <trkpt lon="78.520090655165092" lat="17.641377279264699">
        <ele>490.886</ele>
        <time>2024-09-25T11:12:46Z</time>
      </trkpt>
      <trkpt lon="78.520092118173139" lat="17.641378408833081">
        <ele>490.89</ele>
        <time>2024-09-25T11:12:46Z</time>
      </trkpt>
      <trkpt lon="78.520093582795369" lat="17.641379540014803">
        <ele>490.893</ele>
        <time>2024-09-25T11:12:46Z</time>
      </trkpt>
      <trkpt lon="78.520095048855893" lat="17.641380672591598">
        <ele>490.895</ele>
        <time>2024-09-25T11:12:46Z</time>
      </trkpt>
      <trkpt lon="78.520096911791953" lat="17.641382094848595">
        <ele>490.815</ele>
        <time>2024-09-25T11:12:47Z</time>
      </trkpt>
      <trkpt lon="78.520098695973758" lat="17.641383441996577">
        <ele>490.748</ele>
        <time>2024-09-25T11:12:47Z</time>
      </trkpt>
      <trkpt lon="78.520100407736535" lat="17.641384721407785">
        <ele>490.692</ele>
        <time>2024-09-25T11:12:47Z</time>
      </trkpt>
      <trkpt lon="78.520102054370909" lat="17.641385940991967">
        <ele>490.646</ele>
        <time>2024-09-25T11:12:47Z</time>
      </trkpt>
      <trkpt lon="78.520103643634528" lat="17.641387108789342">
        <ele>490.611</ele>
        <time>2024-09-25T11:12:47Z</time>
      </trkpt>
      <trkpt lon="78.520105183367647" lat="17.641388232659267">
        <ele>490.583</ele>
        <time>2024-09-25T11:12:47Z</time>
      </trkpt>
      <trkpt lon="78.520106681200517" lat="17.641389320051793">
        <ele>490.563</ele>
        <time>2024-09-25T11:12:47Z</time>
      </trkpt>
      <trkpt lon="78.520108144340085" lat="17.641390377849717">
        <ele>490.55</ele>
        <time>2024-09-25T11:12:47Z</time>
      </trkpt>
      <trkpt lon="78.520109579423945" lat="17.641391412269186">
        <ele>490.541</ele>
        <time>2024-09-25T11:12:47Z</time>
      </trkpt>
      <trkpt lon="78.520110992429949" lat="17.641392428807944">
        <ele>490.537</ele>
        <time>2024-09-25T11:12:47Z</time>
      </trkpt>
      <trkpt lon="78.520112388631048" lat="17.641393432231247">
        <ele>490.536</ele>
        <time>2024-09-25T11:12:47Z</time>
      </trkpt>
      <trkpt lon="78.520113772585688" lat="17.641394426586711">
        <ele>490.537</ele>
        <time>2024-09-25T11:12:47Z</time>
      </trkpt>
      <trkpt lon="78.520115148155398" lat="17.641395415240417">
        <ele>490.541</ele>
        <time>2024-09-25T11:12:47Z</time>
      </trkpt>
      <trkpt lon="78.520116518542281" lat="17.641396400927771">
        <ele>490.545</ele>
        <time>2024-09-25T11:12:47Z</time>
      </trkpt>
      <trkpt lon="78.520117886340088" lat="17.641397385813793">
        <ele>490.551</ele>
        <time>2024-09-25T11:12:47Z</time>
      </trkpt>
      <trkpt lon="78.52011925359399" lat="17.641398371558335">
        <ele>490.556</ele>
        <time>2024-09-25T11:12:47Z</time>
      </trkpt>
      <trkpt lon="78.520120621864521" lat="17.641399359382806">
        <ele>490.562</ele>
        <time>2024-09-25T11:12:47Z</time>
      </trkpt>
      <trkpt lon="78.520121992292758" lat="17.641400350135687">
        <ele>490.568</ele>
        <time>2024-09-25T11:12:47Z</time>
      </trkpt>
      <trkpt lon="78.520123365663906" lat="17.641401344354875">
        <ele>490.574</ele>
        <time>2024-09-25T11:12:47Z</time>
      </trkpt>
      <trkpt lon="78.520124742467672" lat="17.641402342325463">
        <ele>490.579</ele>
        <time>2024-09-25T11:12:47Z</time>
      </trkpt>
      <trkpt lon="78.520126122953982" lat="17.64140334413208">
        <ele>490.583</ele>
        <time>2024-09-25T11:12:47Z</time>
      </trkpt>
      <trkpt lon="78.520127507183375" lat="17.641404349705301">
        <ele>490.588</ele>
        <time>2024-09-25T11:12:47Z</time>
      </trkpt>
      <trkpt lon="78.520128895071451" lat="17.64140535886197">
        <ele>490.591</ele>
        <time>2024-09-25T11:12:47Z</time>
      </trkpt>
      <trkpt lon="78.520130286427531" lat="17.641406371339585">
        <ele>490.594</ele>
        <time>2024-09-25T11:12:47Z</time>
      </trkpt>
      <trkpt lon="78.520131680987475" lat="17.641407386824927">
        <ele>490.597</ele>
        <time>2024-09-25T11:12:47Z</time>
      </trkpt>
      <trkpt lon="78.520133078440864" lat="17.641408404977433">
        <ele>490.599</ele>
        <time>2024-09-25T11:12:47Z</time>
      </trkpt>
      <trkpt lon="78.52013447845323" lat="17.641409425447755">
        <ele>490.6</ele>
        <time>2024-09-25T11:12:47Z</time>
      </trkpt>
      <trkpt lon="78.520135880683554" lat="17.641410447892049">
        <ele>490.602</ele>
        <time>2024-09-25T11:12:47Z</time>
      </trkpt>
      <trkpt lon="78.520137284797784" lat="17.641411471982575">
        <ele>490.603</ele>
        <time>2024-09-25T11:12:47Z</time>
      </trkpt>
      <trkpt lon="78.520139066153561" lat="17.641412772242081">
        <ele>490.706</ele>
        <time>2024-09-25T11:12:48Z</time>
      </trkpt>
      <trkpt lon="78.520140769749702" lat="17.641414016670485">
        <ele>490.793</ele>
        <time>2024-09-25T11:12:48Z</time>
      </trkpt>
      <trkpt lon="78.520142402009483" lat="17.64141520977131">
        <ele>490.865</ele>
        <time>2024-09-25T11:12:48Z</time>
      </trkpt>
      <trkpt lon="78.520143970252278" lat="17.641416356721944">
        <ele>490.922</ele>
        <time>2024-09-25T11:12:48Z</time>
      </trkpt>
      <trkpt lon="78.520145482218808" lat="17.641417463027928">
        <ele>490.967</ele>
        <time>2024-09-25T11:12:48Z</time>
      </trkpt>
      <trkpt lon="78.520146945698585" lat="17.641418534250981">
        <ele>491.001</ele>
        <time>2024-09-25T11:12:48Z</time>
      </trkpt>
      <trkpt lon="78.520148368247334" lat="17.641419575802004">
        <ele>491.025</ele>
        <time>2024-09-25T11:12:48Z</time>
      </trkpt>
      <trkpt lon="78.520149756982207" lat="17.641420592790301">
        <ele>491.042</ele>
        <time>2024-09-25T11:12:48Z</time>
      </trkpt>
      <trkpt lon="78.520151118442513" lat="17.64142158992038">
        <ele>491.051</ele>
        <time>2024-09-25T11:12:48Z</time>
      </trkpt>
      <trkpt lon="78.520152458504938" lat="17.641422571428237">
        <ele>491.056</ele>
        <time>2024-09-25T11:12:48Z</time>
      </trkpt>
      <trkpt lon="78.520153782342518" lat="17.641423541049566">
        <ele>491.056</ele>
        <time>2024-09-25T11:12:48Z</time>
      </trkpt>
      <trkpt lon="78.520155094418243" lat="17.641424502013209">
        <ele>491.053</ele>
        <time>2024-09-25T11:12:48Z</time>
      </trkpt>
      <trkpt lon="78.520156398504881" lat="17.641425457053785">
        <ele>491.048</ele>
        <time>2024-09-25T11:12:48Z</time>
      </trkpt>
      <trkpt lon="78.520157697723846" lat="17.641426408438395">
        <ele>491.041</ele>
        <time>2024-09-25T11:12:48Z</time>
      </trkpt>
      <trkpt lon="78.520158994597153" lat="17.641427358002986">
        <ele>491.033</ele>
        <time>2024-09-25T11:12:48Z</time>
      </trkpt>
      <trkpt lon="78.520160291107416" lat="17.641428307194726">
        <ele>491.025</ele>
        <time>2024-09-25T11:12:48Z</time>
      </trkpt>
      <trkpt lon="78.520161588761738" lat="17.641429257117462">
        <ele>491.017</ele>
        <time>2024-09-25T11:12:48Z</time>
      </trkpt>
      <trkpt lon="78.5201628886565" lat="17.641430208577912">
        <ele>491.009</ele>
        <time>2024-09-25T11:12:48Z</time>
      </trkpt>
      <trkpt lon="78.520164191540331" lat="17.641431162130779">
        <ele>491.002</ele>
        <time>2024-09-25T11:12:48Z</time>
      </trkpt>
      <trkpt lon="78.520165497873776" lat="17.641432118121543">
        <ele>490.995</ele>
        <time>2024-09-25T11:12:48Z</time>
      </trkpt>
      <trkpt lon="78.520166807884181" lat="17.641433076725971">
        <ele>490.989</ele>
        <time>2024-09-25T11:12:48Z</time>
      </trkpt>
      <trkpt lon="78.520168121615242" lat="17.641434037985785">
        <ele>490.984</ele>
        <time>2024-09-25T11:12:48Z</time>
      </trkpt>
      <trkpt lon="78.520169438970683" lat="17.641435001840215">
        <ele>490.979</ele>
        <time>2024-09-25T11:12:48Z</time>
      </trkpt>
      <trkpt lon="78.52017075975202" lat="17.641435968153345">
        <ele>490.975</ele>
        <time>2024-09-25T11:12:48Z</time>
      </trkpt>
      <trkpt lon="78.52017208369071" lat="17.641436936737335">
        <ele>490.972</ele>
        <time>2024-09-25T11:12:48Z</time>
      </trkpt>
      <trkpt lon="78.520173410474641" lat="17.641437907371717">
        <ele>490.969</ele>
        <time>2024-09-25T11:12:48Z</time>
      </trkpt>
      <trkpt lon="78.520174739769729" lat="17.641438879819091">
        <ele>490.967</ele>
        <time>2024-09-25T11:12:48Z</time>
      </trkpt>
      <trkpt lon="78.520176071236932" lat="17.641439853837547">
        <ele>490.966</ele>
        <time>2024-09-25T11:12:48Z</time>
      </trkpt>
      <trkpt lon="78.520177404545223" lat="17.641440829190152">
        <ele>490.964</ele>
        <time>2024-09-25T11:12:48Z</time>
      </trkpt>
      <trkpt lon="78.520179164777744" lat="17.641442136099837">
        <ele>490.878</ele>
        <time>2024-09-25T11:12:49Z</time>
      </trkpt>
      <trkpt lon="78.520180909061921" lat="17.64144344755719">
        <ele>490.806</ele>
        <time>2024-09-25T11:12:49Z</time>
      </trkpt>
      <trkpt lon="78.52018263333801" lat="17.64144475774992">
        <ele>490.747</ele>
        <time>2024-09-25T11:12:49Z</time>
      </trkpt>
      <trkpt lon="78.5201843352406" lat="17.641446062340549">
        <ele>490.699</ele>
        <time>2024-09-25T11:12:49Z</time>
      </trkpt>
      <trkpt lon="78.520186013763606" lat="17.641447358253981">
        <ele>490.662</ele>
        <time>2024-09-25T11:12:49Z</time>
      </trkpt>
      <trkpt lon="78.520187668960546" lat="17.64144864347351">
        <ele>490.634</ele>
        <time>2024-09-25T11:12:49Z</time>
      </trkpt>
      <trkpt lon="78.520189301681896" lat="17.641449916850288">
        <ele>490.614</ele>
        <time>2024-09-25T11:12:49Z</time>
      </trkpt>
      <trkpt lon="78.520190913349296" lat="17.641451177929603">
        <ele>490.6</ele>
        <time>2024-09-25T11:12:49Z</time>
      </trkpt>
      <trkpt lon="78.520192505765579" lat="17.641452426795745">
        <ele>490.592</ele>
        <time>2024-09-25T11:12:49Z</time>
      </trkpt>
      <trkpt lon="78.520194080958333" lat="17.641453663936417">
        <ele>490.589</ele>
        <time>2024-09-25T11:12:49Z</time>
      </trkpt>
      <trkpt lon="78.52019564105413" lat="17.641454890126472">
        <ele>490.589</ele>
        <time>2024-09-25T11:12:49Z</time>
      </trkpt>
      <trkpt lon="78.520197188180305" lat="17.641456106330295">
        <ele>490.591</ele>
        <time>2024-09-25T11:12:49Z</time>
      </trkpt>
      <trkpt lon="78.520198724390923" lat="17.641457313621686">
        <ele>490.596</ele>
        <time>2024-09-25T11:12:49Z</time>
      </trkpt>
      <trkpt lon="78.52020025161346" lat="17.641458513119602">
        <ele>490.602</ele>
        <time>2024-09-25T11:12:49Z</time>
      </trkpt>
      <trkpt lon="78.520201771613017" lat="17.641459705938193">
        <ele>490.608</ele>
        <time>2024-09-25T11:12:49Z</time>
      </trkpt>
      <trkpt lon="78.520203285970979" lat="17.641460893149286">
        <ele>490.615</ele>
        <time>2024-09-25T11:12:49Z</time>
      </trkpt>
      <trkpt lon="78.520204796075362" lat="17.641462075755587">
        <ele>490.622</ele>
        <time>2024-09-25T11:12:49Z</time>
      </trkpt>
      <trkpt lon="78.520206303120204" lat="17.641463254672875">
        <ele>490.628</ele>
        <time>2024-09-25T11:12:49Z</time>
      </trkpt>
      <trkpt lon="78.520207808111849" lat="17.64146443071958">
        <ele>490.634</ele>
        <time>2024-09-25T11:12:49Z</time>
      </trkpt>
      <trkpt lon="78.52020931188018" lat="17.641465604612353">
        <ele>490.64</ele>
        <time>2024-09-25T11:12:49Z</time>
      </trkpt>
      <trkpt lon="78.520210815093265" lat="17.641466776966219">
        <ele>490.645</ele>
        <time>2024-09-25T11:12:49Z</time>
      </trkpt>
      <trkpt lon="78.520212318274005" lat="17.641467948298232">
        <ele>490.65</ele>
        <time>2024-09-25T11:12:49Z</time>
      </trkpt>
      <trkpt lon="78.520213821817677" lat="17.641469119033651">
        <ele>490.653</ele>
        <time>2024-09-25T11:12:49Z</time>
      </trkpt>
      <trkpt lon="78.520215326009634" lat="17.641470289513759">
        <ele>490.657</ele>
        <time>2024-09-25T11:12:49Z</time>
      </trkpt>
      <trkpt lon="78.520216831042475" lat="17.641471460004684">
        <ele>490.659</ele>
        <time>2024-09-25T11:12:49Z</time>
      </trkpt>
      <trkpt lon="78.520218337032205" lat="17.641472630706662">
        <ele>490.661</ele>
        <time>2024-09-25T11:12:49Z</time>
      </trkpt>
      <trkpt lon="78.520219844033008" lat="17.641473801763308">
        <ele>490.663</ele>
        <time>2024-09-25T11:12:49Z</time>
      </trkpt>
      <trkpt lon="78.52022135205064" lat="17.641474973270565">
        <ele>490.664</ele>
        <time>2024-09-25T11:12:49Z</time>
      </trkpt>
      <trkpt lon="78.520222861054094" lat="17.641476145285104">
        <ele>490.665</ele>
        <time>2024-09-25T11:12:49Z</time>
      </trkpt>
      <trkpt lon="78.520224743570651" lat="17.641477650058995">
        <ele>490.705</ele>
        <time>2024-09-25T11:12:50Z</time>
      </trkpt>
      <trkpt lon="78.520226515526218" lat="17.641479104890657">
        <ele>490.738</ele>
        <time>2024-09-25T11:12:50Z</time>
      </trkpt>
      <trkpt lon="78.520228188663168" lat="17.641480512623058">
        <ele>490.765</ele>
        <time>2024-09-25T11:12:50Z</time>
      </trkpt>
      <trkpt lon="78.520229775264966" lat="17.641481877034998">
        <ele>490.787</ele>
        <time>2024-09-25T11:12:50Z</time>
      </trkpt>
      <trkpt lon="78.520231287596332" lat="17.64148320247946">
        <ele>490.804</ele>
        <time>2024-09-25T11:12:50Z</time>
      </trkpt>
      <trkpt lon="78.520232737481976" lat="17.641484493591097">
        <ele>490.817</ele>
        <time>2024-09-25T11:12:50Z</time>
      </trkpt>
      <trkpt lon="78.520234136004191" lat="17.641485755055928">
        <ele>490.826</ele>
        <time>2024-09-25T11:12:50Z</time>
      </trkpt>
      <trkpt lon="78.520235493300831" lat="17.641486991435954">
        <ele>490.832</ele>
        <time>2024-09-25T11:12:50Z</time>
      </trkpt>
      <trkpt lon="78.520236818445639" lat="17.641488207041249">
        <ele>490.835</ele>
        <time>2024-09-25T11:12:50Z</time>
      </trkpt>
      <trkpt lon="78.520238119395188" lat="17.6414894058423">
        <ele>490.837</ele>
        <time>2024-09-25T11:12:50Z</time>
      </trkpt>
      <trkpt lon="78.520239402987514" lat="17.641490591415721">
        <ele>490.836</ele>
        <time>2024-09-25T11:12:50Z</time>
      </trkpt>
      <trkpt lon="78.520240674980059" lat="17.641491766916999">
        <ele>490.835</ele>
        <time>2024-09-25T11:12:50Z</time>
      </trkpt>
      <trkpt lon="78.52024194011571" lat="17.641492935074588">
        <ele>490.833</ele>
        <time>2024-09-25T11:12:50Z</time>
      </trkpt>
      <trkpt lon="78.520243202207865" lat="17.641494098200276">
        <ele>490.83</ele>
        <time>2024-09-25T11:12:50Z</time>
      </trkpt>
      <trkpt lon="78.520244464236825" lat="17.641495258211474">
        <ele>490.827</ele>
        <time>2024-09-25T11:12:50Z</time>
      </trkpt>
      <trkpt lon="78.520245728451357" lat="17.641496416661727">
        <ele>490.824</ele>
        <time>2024-09-25T11:12:50Z</time>
      </trkpt>
      <trkpt lon="78.520246996470746" lat="17.641497574776327">
        <ele>490.821</ele>
        <time>2024-09-25T11:12:50Z</time>
      </trkpt>
      <trkpt lon="78.520248269383487" lat="17.641498733490575">
        <ele>490.818</ele>
        <time>2024-09-25T11:12:50Z</time>
      </trkpt>
      <trkpt lon="78.520249547840137" lat="17.641499893488692">
        <ele>490.815</ele>
        <time>2024-09-25T11:12:50Z</time>
      </trkpt>
      <trkpt lon="78.520250832138601" lat="17.641501055241864">
        <ele>490.812</ele>
        <time>2024-09-25T11:12:50Z</time>
      </trkpt>
      <trkpt lon="78.520252122300533" lat="17.64150221904433">
        <ele>490.81</ele>
        <time>2024-09-25T11:12:50Z</time>
      </trkpt>
      <trkpt lon="78.520253418138637" lat="17.641503385046722">
        <ele>490.808</ele>
        <time>2024-09-25T11:12:50Z</time>
      </trkpt>
      <trkpt lon="78.520254719314607" lat="17.641504553286186">
        <ele>490.806</ele>
        <time>2024-09-25T11:12:50Z</time>
      </trkpt>
      <trkpt lon="78.520256025388022" lat="17.641505723713031">
        <ele>490.805</ele>
        <time>2024-09-25T11:12:50Z</time>
      </trkpt>
      <trkpt lon="78.520257335856826" lat="17.641506896213837">
        <ele>490.804</ele>
        <time>2024-09-25T11:12:50Z</time>
      </trkpt>
      <trkpt lon="78.520258650189902" lat="17.641508070631073">
        <ele>490.803</ele>
        <time>2024-09-25T11:12:50Z</time>
      </trkpt>
      <trkpt lon="78.520259967852681" lat="17.641509246779442">
        <ele>490.802</ele>
        <time>2024-09-25T11:12:50Z</time>
      </trkpt>
      <trkpt lon="78.520261288326552" lat="17.641510424459142">
        <ele>490.801</ele>
        <time>2024-09-25T11:12:50Z</time>
      </trkpt>
      <trkpt lon="78.520262611122959" lat="17.64151160346637">
        <ele>490.801</ele>
        <time>2024-09-25T11:12:50Z</time>
      </trkpt>
      <trkpt lon="78.520264265210827" lat="17.641513107588246">
        <ele>490.921</ele>
        <time>2024-09-25T11:12:51Z</time>
      </trkpt>
      <trkpt lon="78.520265825789437" lat="17.641514553449944">
        <ele>491.023</ele>
        <time>2024-09-25T11:12:51Z</time>
      </trkpt>
      <trkpt lon="78.520267302407504" lat="17.641515945234996">
        <ele>491.106</ele>
        <time>2024-09-25T11:12:51Z</time>
      </trkpt>
      <trkpt lon="78.520268705178893" lat="17.641517287975031">
        <ele>491.174</ele>
        <time>2024-09-25T11:12:51Z</time>
      </trkpt>
      <trkpt lon="78.520270044292175" lat="17.64151858716626">
        <ele>491.227</ele>
        <time>2024-09-25T11:12:51Z</time>
      </trkpt>
      <trkpt lon="78.520271329638476" lat="17.641519848464217">
        <ele>491.267</ele>
        <time>2024-09-25T11:12:51Z</time>
      </trkpt>
      <trkpt lon="78.520272570541124" lat="17.641521077448132">
        <ele>491.295</ele>
        <time>2024-09-25T11:12:51Z</time>
      </trkpt>
      <trkpt lon="78.520273775571681" lat="17.641522279445947">
        <ele>491.315</ele>
        <time>2024-09-25T11:12:51Z</time>
      </trkpt>
      <trkpt lon="78.520274952437347" lat="17.64152345941115">
        <ele>491.327</ele>
        <time>2024-09-25T11:12:51Z</time>
      </trkpt>
      <trkpt lon="78.520276107926037" lat="17.64152462184293">
        <ele>491.332</ele>
        <time>2024-09-25T11:12:51Z</time>
      </trkpt>
      <trkpt lon="78.520277247897013" lat="17.641525770741758">
        <ele>491.333</ele>
        <time>2024-09-25T11:12:51Z</time>
      </trkpt>
      <trkpt lon="78.520278377305985" lat="17.641526909593246">
        <ele>491.33</ele>
        <time>2024-09-25T11:12:51Z</time>
      </trkpt>
      <trkpt lon="78.520279500255441" lat="17.641528041373832">
        <ele>491.324</ele>
        <time>2024-09-25T11:12:51Z</time>
      </trkpt>
      <trkpt lon="78.520280620062238" lat="17.641529168572767">
        <ele>491.317</ele>
        <time>2024-09-25T11:12:51Z</time>
      </trkpt>
      <trkpt lon="78.520281739335843" lat="17.641530293225603">
        <ele>491.308</ele>
        <time>2024-09-25T11:12:51Z</time>
      </trkpt>
      <trkpt lon="78.520282860061798" lat="17.6415314169552">
        <ele>491.299</ele>
        <time>2024-09-25T11:12:51Z</time>
      </trkpt>
      <trkpt lon="78.520283983686411" lat="17.64153254101695">
        <ele>491.29</ele>
        <time>2024-09-25T11:12:51Z</time>
      </trkpt>
      <trkpt lon="78.520285111199243" lat="17.641533666345659">
        <ele>491.281</ele>
        <time>2024-09-25T11:12:51Z</time>
      </trkpt>
      <trkpt lon="78.520286243211245" lat="17.641534793601991">
        <ele>491.272</ele>
        <time>2024-09-25T11:12:51Z</time>
      </trkpt>
      <trkpt lon="78.520287380026673" lat="17.641535923217024">
        <ele>491.264</ele>
        <time>2024-09-25T11:12:51Z</time>
      </trkpt>
      <trkpt lon="78.520288521708082" lat="17.641537055433798">
        <ele>491.257</ele>
        <time>2024-09-25T11:12:51Z</time>
      </trkpt>
      <trkpt lon="78.520289668133628" lat="17.641538190345162">
        <ele>491.251</ele>
        <time>2024-09-25T11:12:51Z</time>
      </trkpt>
      <trkpt lon="78.520290819046707" lat="17.641539327927529">
        <ele>491.246</ele>
        <time>2024-09-25T11:12:51Z</time>
      </trkpt>
      <trkpt lon="78.520291974098058" lat="17.64154046807035">
        <ele>491.241</ele>
        <time>2024-09-25T11:12:51Z</time>
      </trkpt>
      <trkpt lon="78.520293132880639" lat="17.641541610601379">
        <ele>491.237</ele>
        <time>2024-09-25T11:12:51Z</time>
      </trkpt>
      <trkpt lon="78.520294294958063" lat="17.641542755307825">
        <ele>491.234</ele>
        <time>2024-09-25T11:12:51Z</time>
      </trkpt>
      <trkpt lon="78.520295459886967" lat="17.641543901953742">
        <ele>491.232</ele>
        <time>2024-09-25T11:12:51Z</time>
      </trkpt>
      <trkpt lon="78.520296627234075" lat="17.64154505029391">
        <ele>491.23</ele>
        <time>2024-09-25T11:12:51Z</time>
      </trkpt>
      <trkpt lon="78.520297796588792" lat="17.641546200084637">
        <ele>491.228</ele>
        <time>2024-09-25T11:12:51Z</time>
      </trkpt>
      <trkpt lon="78.520299271426623" lat="17.641547702889124">
        <ele>491.143</ele>
        <time>2024-09-25T11:12:52Z</time>
      </trkpt>
      <trkpt lon="78.520300674195653" lat="17.641549179169559">
        <ele>491.07</ele>
        <time>2024-09-25T11:12:52Z</time>
      </trkpt>
      <trkpt lon="78.52030201148655" lat="17.641550627678281">
        <ele>491.011</ele>
        <time>2024-09-25T11:12:52Z</time>
      </trkpt>
      <trkpt lon="78.520303290541406" lat="17.64155204843928">
        <ele>490.963</ele>
        <time>2024-09-25T11:12:52Z</time>
      </trkpt>
      <trkpt lon="78.520304518841954" lat="17.641553442434283">
        <ele>490.926</ele>
        <time>2024-09-25T11:12:52Z</time>
      </trkpt>
      <trkpt lon="78.52030570379064" lat="17.641554811332892">
        <ele>490.899</ele>
        <time>2024-09-25T11:12:52Z</time>
      </trkpt>
      <trkpt lon="78.520306852473126" lat="17.641556157265249">
        <ele>490.879</ele>
        <time>2024-09-25T11:12:52Z</time>
      </trkpt>
      <trkpt lon="78.520307971490212" lat="17.641557482634688">
        <ele>490.865</ele>
        <time>2024-09-25T11:12:52Z</time>
      </trkpt>
      <trkpt lon="78.520309066847915" lat="17.641558789967004">
        <ele>490.857</ele>
        <time>2024-09-25T11:12:52Z</time>
      </trkpt>
      <trkpt lon="78.52031014389533" lat="17.641560081792594">
        <ele>490.854</ele>
        <time>2024-09-25T11:12:52Z</time>
      </trkpt>
      <trkpt lon="78.520311207300566" lat="17.641561360557443">
        <ele>490.854</ele>
        <time>2024-09-25T11:12:52Z</time>
      </trkpt>
      <trkpt lon="78.520312261056347" lat="17.641562628558965">
        <ele>490.857</ele>
        <time>2024-09-25T11:12:52Z</time>
      </trkpt>
      <trkpt lon="78.520313308507511" lat="17.641563887902784">
        <ele>490.861</ele>
        <time>2024-09-25T11:12:52Z</time>
      </trkpt>
      <trkpt lon="78.52031435239445" lat="17.641565140476821">
        <ele>490.867</ele>
        <time>2024-09-25T11:12:52Z</time>
      </trkpt>
      <trkpt lon="78.52031539490666" lat="17.641566387939335">
        <ele>490.873</ele>
        <time>2024-09-25T11:12:52Z</time>
      </trkpt>
      <trkpt lon="78.520316437742366" lat="17.641567631717859">
        <ele>490.88</ele>
        <time>2024-09-25T11:12:52Z</time>
      </trkpt>
      <trkpt lon="78.520317482170498" lat="17.641568873016436">
        <ele>490.887</ele>
        <time>2024-09-25T11:12:52Z</time>
      </trkpt>
      <trkpt lon="78.520318529092293" lat="17.641570112828816">
        <ele>490.893</ele>
        <time>2024-09-25T11:12:52Z</time>
      </trkpt>
      <trkpt lon="78.520319579100487" lat="17.641571351955719">
        <ele>490.9</ele>
        <time>2024-09-25T11:12:52Z</time>
      </trkpt>
      <trkpt lon="78.520320632534734" lat="17.641572591024545">
        <ele>490.905</ele>
        <time>2024-09-25T11:12:52Z</time>
      </trkpt>
      <trkpt lon="78.520321689532082" lat="17.64157383051025">
        <ele>490.91</ele>
        <time>2024-09-25T11:12:52Z</time>
      </trkpt>
      <trkpt lon="78.520322750072083" lat="17.641575070756392">
        <ele>490.915</ele>
        <time>2024-09-25T11:12:52Z</time>
      </trkpt>
      <trkpt lon="78.520323814016308" lat="17.641576311995543">
        <ele>490.919</ele>
        <time>2024-09-25T11:12:52Z</time>
      </trkpt>
      <trkpt lon="78.520324881142173" lat="17.641577554368531">
        <ele>490.922</ele>
        <time>2024-09-25T11:12:52Z</time>
      </trkpt>
      <trkpt lon="78.520325951171387" lat="17.641578797942135">
        <ele>490.925</ele>
        <time>2024-09-25T11:12:52Z</time>
      </trkpt>
      <trkpt lon="78.520327023793357" lat="17.641580042724996">
        <ele>490.927</ele>
        <time>2024-09-25T11:12:52Z</time>
      </trkpt>
      <trkpt lon="78.520328098683905" lat="17.641581288681635">
        <ele>490.928</ele>
        <time>2024-09-25T11:12:52Z</time>
      </trkpt>
      <trkpt lon="78.520329175519848" lat="17.641582535744547">
        <ele>490.93</ele>
        <time>2024-09-25T11:12:52Z</time>
      </trkpt>
      <trkpt lon="78.520330253990039" lat="17.641583783824416">
        <ele>490.931</ele>
        <time>2024-09-25T11:12:52Z</time>
      </trkpt>
      <trkpt lon="78.520331638219702" lat="17.641585348565322">
        <ele>490.886</ele>
        <time>2024-09-25T11:12:53Z</time>
      </trkpt>
      <trkpt lon="78.520332976207868" lat="17.641586828398779">
        <ele>490.849</ele>
        <time>2024-09-25T11:12:53Z</time>
      </trkpt>
      <trkpt lon="78.52033427050614" lat="17.641588231869935">
        <ele>490.818</ele>
        <time>2024-09-25T11:12:53Z</time>
      </trkpt>
      <trkpt lon="78.520335524555264" lat="17.641589568072238">
        <ele>490.793</ele>
        <time>2024-09-25T11:12:53Z</time>
      </trkpt>
      <trkpt lon="78.520336742346728" lat="17.641590846196653">
        <ele>490.773</ele>
        <time>2024-09-25T11:12:53Z</time>
      </trkpt>
      <trkpt lon="78.520337928148592" lat="17.641592075188466">
        <ele>490.758</ele>
        <time>2024-09-25T11:12:53Z</time>
      </trkpt>
      <trkpt lon="78.520339086289141" lat="17.641593263497093">
        <ele>490.747</ele>
        <time>2024-09-25T11:12:53Z</time>
      </trkpt>
      <trkpt lon="78.520340220991727" lat="17.64159441890472">
        <ele>490.74</ele>
        <time>2024-09-25T11:12:53Z</time>
      </trkpt>
      <trkpt lon="78.52034133625402" lat="17.641595548420312">
        <ele>490.735</ele>
        <time>2024-09-25T11:12:53Z</time>
      </trkpt>
      <trkpt lon="78.520342435764618" lat="17.641596658226533">
        <ele>490.733</ele>
        <time>2024-09-25T11:12:53Z</time>
      </trkpt>
      <trkpt lon="78.520343522851093" lat="17.641597753668453">
        <ele>490.732</ele>
        <time>2024-09-25T11:12:53Z</time>
      </trkpt>
      <trkpt lon="78.520344600453313" lat="17.641598839274138">
        <ele>490.733</ele>
        <time>2024-09-25T11:12:53Z</time>
      </trkpt>
      <trkpt lon="78.520345671116772" lat="17.641599918798516">
        <ele>490.735</ele>
        <time>2024-09-25T11:12:53Z</time>
      </trkpt>
      <trkpt lon="78.520346737001248" lat="17.641600995283298">
        <ele>490.738</ele>
        <time>2024-09-25T11:12:53Z</time>
      </trkpt>
      <trkpt lon="78.520347799900833" lat="17.641602071126947">
        <ele>490.741</ele>
        <time>2024-09-25T11:12:53Z</time>
      </trkpt>
      <trkpt lon="78.520348861271572" lat="17.641603148159721">
        <ele>490.744</ele>
        <time>2024-09-25T11:12:53Z</time>
      </trkpt>
      <trkpt lon="78.52034992226416" lat="17.641604227720002">
        <ele>490.747</ele>
        <time>2024-09-25T11:12:53Z</time>
      </trkpt>
      <trkpt lon="78.520350983759144" lat="17.641605310728906">
        <ele>490.751</ele>
        <time>2024-09-25T11:12:53Z</time>
      </trkpt>
      <trkpt lon="78.520352046402834" lat="17.641606397761013">
        <ele>490.754</ele>
        <time>2024-09-25T11:12:53Z</time>
      </trkpt>
      <trkpt lon="78.52035311064256" lat="17.641607489109735">
        <ele>490.757</ele>
        <time>2024-09-25T11:12:53Z</time>
      </trkpt>
      <trkpt lon="78.520354176760065" lat="17.641608584846338">
        <ele>490.759</ele>
        <time>2024-09-25T11:12:53Z</time>
      </trkpt>
      <trkpt lon="78.520355244902561" lat="17.641609684872151">
        <ele>490.761</ele>
        <time>2024-09-25T11:12:53Z</time>
      </trkpt>
      <trkpt lon="78.520356315110632" lat="17.641610788963835">
        <ele>490.763</ele>
        <time>2024-09-25T11:12:53Z</time>
      </trkpt>
      <trkpt lon="78.520357387343182" lat="17.641611896811835">
        <ele>490.765</ele>
        <time>2024-09-25T11:12:53Z</time>
      </trkpt>
      <trkpt lon="78.520358461498915" lat="17.641613008052346">
        <ele>490.767</ele>
        <time>2024-09-25T11:12:53Z</time>
      </trkpt>
      <trkpt lon="78.520359537434672" lat="17.641614122293312">
        <ele>490.768</ele>
        <time>2024-09-25T11:12:53Z</time>
      </trkpt>
      <trkpt lon="78.520360614980731" lat="17.641615239134989">
        <ele>490.769</ele>
        <time>2024-09-25T11:12:53Z</time>
      </trkpt>
      <trkpt lon="78.520361693953234" lat="17.641616358185722">
        <ele>490.769</ele>
        <time>2024-09-25T11:12:53Z</time>
      </trkpt>
      <trkpt lon="78.520362774164013" lat="17.64161747907356">
        <ele>490.77</ele>
        <time>2024-09-25T11:12:53Z</time>
      </trkpt>
      <trkpt lon="78.520364157503863" lat="17.641618994826782">
        <ele>490.646</ele>
        <time>2024-09-25T11:12:54Z</time>
      </trkpt>
      <trkpt lon="78.520365491868489" lat="17.641620527515968">
        <ele>490.542</ele>
        <time>2024-09-25T11:12:54Z</time>
      </trkpt>
      <trkpt lon="78.520366780318923" lat="17.641622068375153">
        <ele>490.457</ele>
        <time>2024-09-25T11:12:54Z</time>
      </trkpt>
      <trkpt lon="78.520368026757183" lat="17.641623610512688">
        <ele>490.388</ele>
        <time>2024-09-25T11:12:54Z</time>
      </trkpt>
      <trkpt lon="78.520369235583701" lat="17.641625148689144">
        <ele>490.333</ele>
        <time>2024-09-25T11:12:54Z</time>
      </trkpt>
      <trkpt lon="78.520370411421823" lat="17.641626679092518">
        <ele>490.292</ele>
        <time>2024-09-25T11:12:54Z</time>
      </trkpt>
      <trkpt lon="78.520371558902326" lat="17.641628199119218">
        <ele>490.263</ele>
        <time>2024-09-25T11:12:54Z</time>
      </trkpt>
      <trkpt lon="78.520372682500835" lat="17.641629707166985">
        <ele>490.243</ele>
        <time>2024-09-25T11:12:54Z</time>
      </trkpt>
      <trkpt lon="78.520373786420521" lat="17.641631202444028">
        <ele>490.231</ele>
        <time>2024-09-25T11:12:54Z</time>
      </trkpt>
      <trkpt lon="78.520374874513223" lat="17.641632684796999">
        <ele>490.225</ele>
        <time>2024-09-25T11:12:54Z</time>
      </trkpt>
      <trkpt lon="78.520375950232179" lat="17.641634154559142">
        <ele>490.224</ele>
        <time>2024-09-25T11:12:54Z</time>
      </trkpt>
      <trkpt lon="78.520377016610226" lat="17.641635612418931">
        <ele>490.227</ele>
        <time>2024-09-25T11:12:54Z</time>
      </trkpt>
      <trkpt lon="78.520378076257941" lat="17.641637059308696">
        <ele>490.233</ele>
        <time>2024-09-25T11:12:54Z</time>
      </trkpt>
      <trkpt lon="78.520379131376984" lat="17.641638496312233">
        <ele>490.241</ele>
        <time>2024-09-25T11:12:54Z</time>
      </trkpt>
      <trkpt lon="78.520380183784255" lat="17.641639924589853">
        <ele>490.25</ele>
        <time>2024-09-25T11:12:54Z</time>
      </trkpt>
      <trkpt lon="78.520381234943571" lat="17.641641345319265">
        <ele>490.259</ele>
        <time>2024-09-25T11:12:54Z</time>
      </trkpt>
      <trkpt lon="78.520382286001677" lat="17.641642759650384">
        <ele>490.269</ele>
        <time>2024-09-25T11:12:54Z</time>
      </trkpt>
      <trkpt lon="78.520383337826559" lat="17.641644168672244">
        <ele>490.278</ele>
        <time>2024-09-25T11:12:54Z</time>
      </trkpt>
      <trkpt lon="78.520384391045866" lat="17.641645573390154">
        <ele>490.287</ele>
        <time>2024-09-25T11:12:54Z</time>
      </trkpt>
      <trkpt lon="78.520385446084319" lat="17.641646974711406">
        <ele>490.295</ele>
        <time>2024-09-25T11:12:54Z</time>
      </trkpt>
      <trkpt lon="78.520386503198878" lat="17.641648373437899">
        <ele>490.302</ele>
        <time>2024-09-25T11:12:54Z</time>
      </trkpt>
      <trkpt lon="78.520387562511175" lat="17.641649770264223">
        <ele>490.308</ele>
        <time>2024-09-25T11:12:54Z</time>
      </trkpt>
      <trkpt lon="78.520388624036556" lat="17.641651165779969">
        <ele>490.314</ele>
        <time>2024-09-25T11:12:54Z</time>
      </trkpt>
      <trkpt lon="78.520389687709724" lat="17.641652560475084">
        <ele>490.319</ele>
        <time>2024-09-25T11:12:54Z</time>
      </trkpt>
      <trkpt lon="78.520390753406872" lat="17.641653954747408">
        <ele>490.323</ele>
        <time>2024-09-25T11:12:54Z</time>
      </trkpt>
      <trkpt lon="78.520391820964377" lat="17.64165534891152">
        <ele>490.326</ele>
        <time>2024-09-25T11:12:54Z</time>
      </trkpt>
      <trkpt lon="78.520392890194316" lat="17.641656743208312">
        <ele>490.328</ele>
        <time>2024-09-25T11:12:54Z</time>
      </trkpt>
      <trkpt lon="78.520393960896925" lat="17.641658137814762">
        <ele>490.33</ele>
        <time>2024-09-25T11:12:54Z</time>
      </trkpt>
      <trkpt lon="78.520395032870454" lat="17.641659532853524">
        <ele>490.331</ele>
        <time>2024-09-25T11:12:54Z</time>
      </trkpt>
      <trkpt lon="78.520396332803145" lat="17.641661263531788">
        <ele>490.425</ele>
        <time>2024-09-25T11:12:55Z</time>
      </trkpt>
      <trkpt lon="78.520397522748766" lat="17.64166288380704">
        <ele>490.504</ele>
        <time>2024-09-25T11:12:55Z</time>
      </trkpt>
      <trkpt lon="78.520398616508245" lat="17.641664406019931">
        <ele>490.569</ele>
        <time>2024-09-25T11:12:55Z</time>
      </trkpt>
      <trkpt lon="78.520399627825384" lat="17.641665842878645">
        <ele>490.621</ele>
        <time>2024-09-25T11:12:55Z</time>
      </trkpt>
      <trkpt lon="78.520400569923638" lat="17.641667206927075">
        <ele>490.662</ele>
        <time>2024-09-25T11:12:55Z</time>
      </trkpt>
      <trkpt lon="78.520401455174934" lat="17.641668510149636">
        <ele>490.692</ele>
        <time>2024-09-25T11:12:55Z</time>
      </trkpt>
      <trkpt lon="78.520402294879659" lat="17.641669763692786">
        <ele>490.714</ele>
        <time>2024-09-25T11:12:55Z</time>
      </trkpt>
      <trkpt lon="78.520403099138022" lat="17.641670977684221">
        <ele>490.729</ele>
        <time>2024-09-25T11:12:55Z</time>
      </trkpt>
      <trkpt lon="78.520403876794745" lat="17.641672161131943">
        <ele>490.737</ele>
        <time>2024-09-25T11:12:55Z</time>
      </trkpt>
      <trkpt lon="78.52040463544094" lat="17.64167332188708">
        <ele>490.741</ele>
        <time>2024-09-25T11:12:55Z</time>
      </trkpt>
      <trkpt lon="78.520405381459142" lat="17.641674466656028">
        <ele>490.741</ele>
        <time>2024-09-25T11:12:55Z</time>
      </trkpt>
      <trkpt lon="78.520406120099153" lat="17.64167560104935">
        <ele>490.738</ele>
        <time>2024-09-25T11:12:55Z</time>
      </trkpt>
      <trkpt lon="78.520406855574592" lat="17.641676729656719">
        <ele>490.733</ele>
        <time>2024-09-25T11:12:55Z</time>
      </trkpt>
      <trkpt lon="78.520407591171676" lat="17.641677856138841">
        <ele>490.727</ele>
        <time>2024-09-25T11:12:55Z</time>
      </trkpt>
      <trkpt lon="78.520408329363349" lat="17.641678983329019">
        <ele>490.72</ele>
        <time>2024-09-25T11:12:55Z</time>
      </trkpt>
      <trkpt lon="78.520409071923666" lat="17.641680113338452">
        <ele>490.713</ele>
        <time>2024-09-25T11:12:55Z</time>
      </trkpt>
      <trkpt lon="78.520409820038211" lat="17.641681247660678">
        <ele>490.705</ele>
        <time>2024-09-25T11:12:55Z</time>
      </trkpt>
      <trkpt lon="78.520410574407805" lat="17.641682387271786">
        <ele>490.698</ele>
        <time>2024-09-25T11:12:55Z</time>
      </trkpt>
      <trkpt lon="78.520411335343525" lat="17.641683532723871">
        <ele>490.691</ele>
        <time>2024-09-25T11:12:55Z</time>
      </trkpt>
      <trkpt lon="78.520412102851807" lat="17.641684684230274">
        <ele>490.685</ele>
        <time>2024-09-25T11:12:55Z</time>
      </trkpt>
      <trkpt lon="78.52041287670923" lat="17.641685841741545">
        <ele>490.68</ele>
        <time>2024-09-25T11:12:55Z</time>
      </trkpt>
      <trkpt lon="78.520413656526912" lat="17.641687005011864">
        <ele>490.675</ele>
        <time>2024-09-25T11:12:55Z</time>
      </trkpt>
      <trkpt lon="78.520414441804704" lat="17.641688173655936">
        <ele>490.67</ele>
        <time>2024-09-25T11:12:55Z</time>
      </trkpt>
      <trkpt lon="78.520415231975946" lat="17.641689347196678">
        <ele>490.667</ele>
        <time>2024-09-25T11:12:55Z</time>
      </trkpt>
      <trkpt lon="78.520416026443542" lat="17.641690525104405">
        <ele>490.664</ele>
        <time>2024-09-25T11:12:55Z</time>
      </trkpt>
      <trkpt lon="78.520416824608205" lat="17.641691706828176">
        <ele>490.662</ele>
        <time>2024-09-25T11:12:55Z</time>
      </trkpt>
      <trkpt lon="78.520417625889763" lat="17.641692891820153">
        <ele>490.66</ele>
        <time>2024-09-25T11:12:55Z</time>
      </trkpt>
      <trkpt lon="78.52041842974262" lat="17.641694079553865">
        <ele>490.658</ele>
        <time>2024-09-25T11:12:55Z</time>
      </trkpt>
      <trkpt lon="78.520419235666211" lat="17.64169526953723">
        <ele>490.657</ele>
        <time>2024-09-25T11:12:55Z</time>
      </trkpt>
      <trkpt lon="78.520420239288896" lat="17.641696858532804">
        <ele>490.612</ele>
        <time>2024-09-25T11:12:56Z</time>
      </trkpt>
      <trkpt lon="78.520421182491305" lat="17.641698448534544">
        <ele>490.574</ele>
        <time>2024-09-25T11:12:56Z</time>
      </trkpt>
      <trkpt lon="78.520422071632311" lat="17.641700033182385">
        <ele>490.543</ele>
        <time>2024-09-25T11:12:56Z</time>
      </trkpt>
      <trkpt lon="78.520422913382859" lat="17.641701607867937">
        <ele>490.519</ele>
        <time>2024-09-25T11:12:56Z</time>
      </trkpt>
      <trkpt lon="78.520423714417419" lat="17.641703169463309">
        <ele>490.499</ele>
        <time>2024-09-25T11:12:56Z</time>
      </trkpt>
      <trkpt lon="78.520424481181365" lat="17.641704716065256">
        <ele>490.485</ele>
        <time>2024-09-25T11:12:56Z</time>
      </trkpt>
      <trkpt lon="78.52042521972345" lat="17.641706246759789">
        <ele>490.474</ele>
        <time>2024-09-25T11:12:56Z</time>
      </trkpt>
      <trkpt lon="78.520425935583489" lat="17.64170776141038">
        <ele>490.468</ele>
        <time>2024-09-25T11:12:56Z</time>
      </trkpt>
      <trkpt lon="78.520426633725194" lat="17.641709260471302">
        <ele>490.464</ele>
        <time>2024-09-25T11:12:56Z</time>
      </trkpt>
      <trkpt lon="78.520427318505611" lat="17.641710744826405">
        <ele>490.462</ele>
        <time>2024-09-25T11:12:56Z</time>
      </trkpt>
      <trkpt lon="78.520427993673181" lat="17.641712215652671">
        <ele>490.462</ele>
        <time>2024-09-25T11:12:56Z</time>
      </trkpt>
      <trkpt lon="78.520428662387388" lat="17.641713674307166">
        <ele>490.463</ele>
        <time>2024-09-25T11:12:56Z</time>
      </trkpt>
      <trkpt lon="78.520429327254021" lat="17.641715122235585">
        <ele>490.466</ele>
        <time>2024-09-25T11:12:56Z</time>
      </trkpt>
      <trkpt lon="78.520429990370985" lat="17.641716560900218">
        <ele>490.469</ele>
        <time>2024-09-25T11:12:56Z</time>
      </trkpt>
      <trkpt lon="78.520430653380473" lat="17.641717991725088">
        <ele>490.472</ele>
        <time>2024-09-25T11:12:56Z</time>
      </trkpt>
      <trkpt lon="78.520431317524128" lat="17.64171941605591">
        <ele>490.476</ele>
        <time>2024-09-25T11:12:56Z</time>
      </trkpt>
      <trkpt lon="78.520431983698515" lat="17.641720835132642">
        <ele>490.48</ele>
        <time>2024-09-25T11:12:56Z</time>
      </trkpt>
      <trkpt lon="78.520432652509001" lat="17.641722250072444">
        <ele>490.483</ele>
        <time>2024-09-25T11:12:56Z</time>
      </trkpt>
      <trkpt lon="78.520433324320337" lat="17.641723661861128">
        <ele>490.486</ele>
        <time>2024-09-25T11:12:56Z</time>
      </trkpt>
      <trkpt lon="78.520433999303251" lat="17.641725071351246">
        <ele>490.489</ele>
        <time>2024-09-25T11:12:56Z</time>
      </trkpt>
      <trkpt lon="78.520434677476331" lat="17.641726479265294">
        <ele>490.492</ele>
        <time>2024-09-25T11:12:56Z</time>
      </trkpt>
      <trkpt lon="78.520435358742759" lat="17.641727886202638">
        <ele>490.494</ele>
        <time>2024-09-25T11:12:56Z</time>
      </trkpt>
      <trkpt lon="78.520436042922142" lat="17.641729292649">
        <ele>490.496</ele>
        <time>2024-09-25T11:12:56Z</time>
      </trkpt>
      <trkpt lon="78.520436729777344" lat="17.641730698987587">
        <ele>490.498</ele>
        <time>2024-09-25T11:12:56Z</time>
      </trkpt>
      <trkpt lon="78.520437419036668" lat="17.641732105511004">
        <ele>490.499</ele>
        <time>2024-09-25T11:12:56Z</time>
      </trkpt>
      <trkpt lon="78.520438110411803" lat="17.641733512433401">
        <ele>490.501</ele>
        <time>2024-09-25T11:12:56Z</time>
      </trkpt>
      <trkpt lon="78.520438803611952" lat="17.641734919902358">
        <ele>490.501</ele>
        <time>2024-09-25T11:12:56Z</time>
      </trkpt>
      <trkpt lon="78.52043949835452" lat="17.641736328010133">
        <ele>490.502</ele>
        <time>2024-09-25T11:12:56Z</time>
      </trkpt>
      <trkpt lon="78.52044019437291" lat="17.641737736804089">
        <ele>490.503</ele>
        <time>2024-09-25T11:12:56Z</time>
      </trkpt>
      <trkpt lon="78.520441019143846" lat="17.641739517476406">
        <ele>490.46</ele>
        <time>2024-09-25T11:12:57Z</time>
      </trkpt>
      <trkpt lon="78.520441756280363" lat="17.641741214419252">
        <ele>490.424</ele>
        <time>2024-09-25T11:12:57Z</time>
      </trkpt>
      <trkpt lon="78.520442417546775" lat="17.641742835200962">
        <ele>490.395</ele>
        <time>2024-09-25T11:12:57Z</time>
      </trkpt>
      <trkpt lon="78.520443014446116" lat="17.641744388171677">
        <ele>490.371</ele>
        <time>2024-09-25T11:12:57Z</time>
      </trkpt>
      <trkpt lon="78.52044355788496" lat="17.641745881980867">
        <ele>490.352</ele>
        <time>2024-09-25T11:12:57Z</time>
      </trkpt>
      <trkpt lon="78.520444057941489" lat="17.641747325203262">
        <ele>490.338</ele>
        <time>2024-09-25T11:12:57Z</time>
      </trkpt>
      <trkpt lon="78.520444523719391" lat="17.641748726059451">
        <ele>490.327</ele>
        <time>2024-09-25T11:12:57Z</time>
      </trkpt>
      <trkpt lon="78.520444963271643" lat="17.641750092217585">
        <ele>490.32</ele>
        <time>2024-09-25T11:12:57Z</time>
      </trkpt>
      <trkpt lon="78.520445383579528" lat="17.641751430663067">
        <ele>490.316</ele>
        <time>2024-09-25T11:12:57Z</time>
      </trkpt>
      <trkpt lon="78.520445790573945" lat="17.641752747624029">
        <ele>490.314</ele>
        <time>2024-09-25T11:12:57Z</time>
      </trkpt>
      <trkpt lon="78.520446189188064" lat="17.641754048541475">
        <ele>490.313</ele>
        <time>2024-09-25T11:12:57Z</time>
      </trkpt>
      <trkpt lon="78.520446583431635" lat="17.641755338074091">
        <ele>490.314</ele>
        <time>2024-09-25T11:12:57Z</time>
      </trkpt>
      <trkpt lon="78.52044697647905" lat="17.641756620129055">
        <ele>490.316</ele>
        <time>2024-09-25T11:12:57Z</time>
      </trkpt>
      <trkpt lon="78.520447370764757" lat="17.641757897911344">
        <ele>490.319</ele>
        <time>2024-09-25T11:12:57Z</time>
      </trkpt>
      <trkpt lon="78.520447768080899" lat="17.641759173985314">
        <ele>490.322</ele>
        <time>2024-09-25T11:12:57Z</time>
      </trkpt>
      <trkpt lon="78.520448169673145" lat="17.641760450343334">
        <ele>490.325</ele>
        <time>2024-09-25T11:12:57Z</time>
      </trkpt>
      <trkpt lon="78.520448576332015" lat="17.64176172847743">
        <ele>490.328</ele>
        <time>2024-09-25T11:12:57Z</time>
      </trkpt>
      <trkpt lon="78.52044898847744" lat="17.641763009450621">
        <ele>490.332</ele>
        <time>2024-09-25T11:12:57Z</time>
      </trkpt>
      <trkpt lon="78.520449406235457" lat="17.641764293965636">
        <ele>490.335</ele>
        <time>2024-09-25T11:12:57Z</time>
      </trkpt>
      <trkpt lon="78.52044982950612" lat="17.641765582429201">
        <ele>490.337</ele>
        <time>2024-09-25T11:12:57Z</time>
      </trkpt>
      <trkpt lon="78.520450258022635" lat="17.641766875010774">
        <ele>490.34</ele>
        <time>2024-09-25T11:12:57Z</time>
      </trkpt>
      <trkpt lon="78.520450691401749" lat="17.641768171695091">
        <ele>490.342</ele>
        <time>2024-09-25T11:12:57Z</time>
      </trkpt>
      <trkpt lon="78.520451129185645" lat="17.641769472328154">
        <ele>490.344</ele>
        <time>2024-09-25T11:12:57Z</time>
      </trkpt>
      <trkpt lon="78.520451570876276" lat="17.641770776656742">
        <ele>490.346</ele>
        <time>2024-09-25T11:12:57Z</time>
      </trkpt>
      <trkpt lon="78.520452015962491" lat="17.641772084361637">
        <ele>490.347</ele>
        <time>2024-09-25T11:12:57Z</time>
      </trkpt>
      <trkpt lon="78.520452463941083" lat="17.641773395084943">
        <ele>490.348</ele>
        <time>2024-09-25T11:12:57Z</time>
      </trkpt>
      <trkpt lon="78.520452914332267" lat="17.641774708452051">
        <ele>490.349</ele>
        <time>2024-09-25T11:12:57Z</time>
      </trkpt>
      <trkpt lon="78.520453366690575" lat="17.64177602408876">
        <ele>490.35</ele>
        <time>2024-09-25T11:12:57Z</time>
      </trkpt>
      <trkpt lon="78.520453820611891" lat="17.641777341634164">
        <ele>490.35</ele>
        <time>2024-09-25T11:12:57Z</time>
      </trkpt>
      <trkpt lon="78.520454438854401" lat="17.641779112084201">
        <ele>490.346</ele>
        <time>2024-09-25T11:12:58Z</time>
      </trkpt>
      <trkpt lon="78.520455067727951" lat="17.641780892961073">
        <ele>490.343</ele>
        <time>2024-09-25T11:12:58Z</time>
      </trkpt>
      <trkpt lon="78.520455702941177" lat="17.641782675647708">
        <ele>490.34</ele>
        <time>2024-09-25T11:12:58Z</time>
      </trkpt>
      <trkpt lon="78.520456341038994" lat="17.641784453585569">
        <ele>490.338</ele>
        <time>2024-09-25T11:12:58Z</time>
      </trkpt>
      <trkpt lon="78.520456979316734" lat="17.641786221995648">
        <ele>490.336</ele>
        <time>2024-09-25T11:12:58Z</time>
      </trkpt>
      <trkpt lon="78.520457615729342" lat="17.641787977606349">
        <ele>490.334</ele>
        <time>2024-09-25T11:12:58Z</time>
      </trkpt>
      <trkpt lon="78.520458248799955" lat="17.641789718395998">
        <ele>490.333</ele>
        <time>2024-09-25T11:12:58Z</time>
      </trkpt>
      <trkpt lon="78.520458877531397" lat="17.641791443355345">
        <ele>490.332</ele>
        <time>2024-09-25T11:12:58Z</time>
      </trkpt>
      <trkpt lon="78.520459501322648" lat="17.641793152273376">
        <ele>490.332</ele>
        <time>2024-09-25T11:12:58Z</time>
      </trkpt>
      <trkpt lon="78.520460119892249" lat="17.641794845548127">
        <ele>490.332</ele>
        <time>2024-09-25T11:12:58Z</time>
      </trkpt>
      <trkpt lon="78.520460733209362" lat="17.641796524022912">
        <ele>490.331</ele>
        <time>2024-09-25T11:12:58Z</time>
      </trkpt>
      <trkpt lon="78.520461341433133" lat="17.641798188847424">
        <ele>490.331</ele>
        <time>2024-09-25T11:12:58Z</time>
      </trkpt>
      <trkpt lon="78.520461944860443" lat="17.641799841362388">
        <ele>490.332</ele>
        <time>2024-09-25T11:12:58Z</time>
      </trkpt>
      <trkpt lon="78.520462543881649" lat="17.641801483005956">
        <ele>490.332</ele>
        <time>2024-09-25T11:12:58Z</time>
      </trkpt>
      <trkpt lon="78.520463138944024" lat="17.641803115239782">
        <ele>490.332</ele>
        <time>2024-09-25T11:12:58Z</time>
      </trkpt>
      <trkpt lon="78.520463730522209" lat="17.641804739492471">
        <ele>490.332</ele>
        <time>2024-09-25T11:12:58Z</time>
      </trkpt>
      <trkpt lon="78.520464319095041" lat="17.641806357118117">
        <ele>490.332</ele>
        <time>2024-09-25T11:12:58Z</time>
      </trkpt>
      <trkpt lon="78.52046490512781" lat="17.641807969367594">
        <ele>490.333</ele>
        <time>2024-09-25T11:12:58Z</time>
      </trkpt>
      <trkpt lon="78.520465489059461" lat="17.641809577370545">
        <ele>490.333</ele>
        <time>2024-09-25T11:12:58Z</time>
      </trkpt>
      <trkpt lon="78.520466071293896" lat="17.641811182125995">
        <ele>490.333</ele>
        <time>2024-09-25T11:12:58Z</time>
      </trkpt>
      <trkpt lon="78.520466652194472" lat="17.641812784499802">
        <ele>490.333</ele>
        <time>2024-09-25T11:12:58Z</time>
      </trkpt>
      <trkpt lon="78.520467232081458" lat="17.641814385227377">
        <ele>490.334</ele>
        <time>2024-09-25T11:12:58Z</time>
      </trkpt>
      <trkpt lon="78.520467811231455" lat="17.641815984920253">
        <ele>490.334</ele>
        <time>2024-09-25T11:12:58Z</time>
      </trkpt>
      <trkpt lon="78.520468389878559" lat="17.641817584075351">
        <ele>490.334</ele>
        <time>2024-09-25T11:12:58Z</time>
      </trkpt>
      <trkpt lon="78.520468968216719" lat="17.641819183085932">
        <ele>490.334</ele>
        <time>2024-09-25T11:12:58Z</time>
      </trkpt>
      <trkpt lon="78.520469546402865" lat="17.641820782253465">
        <ele>490.334</ele>
        <time>2024-09-25T11:12:58Z</time>
      </trkpt>
      <trkpt lon="78.520470124560575" lat="17.641822381799745">
        <ele>490.334</ele>
        <time>2024-09-25T11:12:58Z</time>
      </trkpt>
      <trkpt lon="78.520470702783967" lat="17.641823981878815">
        <ele>490.334</ele>
        <time>2024-09-25T11:12:58Z</time>
      </trkpt>
      <trkpt lon="78.52047128114171" lat="17.641825582588293">
        <ele>490.334</ele>
        <time>2024-09-25T11:12:58Z</time>
      </trkpt>
      <trkpt lon="78.520471980661" lat="17.641827669304671">
        <ele>490.401</ele>
        <time>2024-09-25T11:12:59Z</time>
      </trkpt>
      <trkpt lon="78.520472619225671" lat="17.641829714374861">
        <ele>490.458</ele>
        <time>2024-09-25T11:12:59Z</time>
      </trkpt>
      <trkpt lon="78.520473204621695" lat="17.641831717028388">
        <ele>490.504</ele>
        <time>2024-09-25T11:12:59Z</time>
      </trkpt>
      <trkpt lon="78.520473744564768" lat="17.641833678157553">
        <ele>490.542</ele>
        <time>2024-09-25T11:12:59Z</time>
      </trkpt>
      <trkpt lon="78.520474246449638" lat="17.641835599877083">
        <ele>490.571</ele>
        <time>2024-09-25T11:12:59Z</time>
      </trkpt>
      <trkpt lon="78.520474717172306" lat="17.64183748514975">
        <ele>490.593</ele>
        <time>2024-09-25T11:12:59Z</time>
      </trkpt>
      <trkpt lon="78.520475163013316" lat="17.641839337474703">
        <ele>490.609</ele>
        <time>2024-09-25T11:12:59Z</time>
      </trkpt>
      <trkpt lon="78.520475589571149" lat="17.641841160633891">
        <ele>490.62</ele>
        <time>2024-09-25T11:12:59Z</time>
      </trkpt>
      <trkpt lon="78.520476001735716" lat="17.641842958491115">
        <ele>490.626</ele>
        <time>2024-09-25T11:12:59Z</time>
      </trkpt>
      <trkpt lon="78.520476403692982" lat="17.641844734837672">
        <ele>490.629</ele>
        <time>2024-09-25T11:12:59Z</time>
      </trkpt>
      <trkpt lon="78.520476798952885" lat="17.641846493278546">
        <ele>490.629</ele>
        <time>2024-09-25T11:12:59Z</time>
      </trkpt>
      <trkpt lon="78.520477190393834" lat="17.641848237153084">
        <ele>490.628</ele>
        <time>2024-09-25T11:12:59Z</time>
      </trkpt>
      <trkpt lon="78.520477580318271" lat="17.641849969484408">
        <ele>490.624</ele>
        <time>2024-09-25T11:12:59Z</time>
      </trkpt>
      <trkpt lon="78.520477970514477" lat="17.64185169295228">
        <ele>490.62</ele>
        <time>2024-09-25T11:12:59Z</time>
      </trkpt>
      <trkpt lon="78.520478362321057" lat="17.641853409884558">
        <ele>490.615</ele>
        <time>2024-09-25T11:12:59Z</time>
      </trkpt>
      <trkpt lon="78.520478756691119" lat="17.641855122262999">
        <ele>490.61</ele>
        <time>2024-09-25T11:12:59Z</time>
      </trkpt>
      <trkpt lon="78.520479154254119" lat="17.641856831739638">
        <ele>490.605</ele>
        <time>2024-09-25T11:12:59Z</time>
      </trkpt>
      <trkpt lon="78.520479555373683" lat="17.641858539660568">
        <ele>490.6</ele>
        <time>2024-09-25T11:12:59Z</time>
      </trkpt>
      <trkpt lon="78.520479960200376" lat="17.641860247094531">
        <ele>490.595</ele>
        <time>2024-09-25T11:12:59Z</time>
      </trkpt>
      <trkpt lon="78.520480368718935" lat="17.641861954864076">
        <ele>490.591</ele>
        <time>2024-09-25T11:12:59Z</time>
      </trkpt>
      <trkpt lon="78.520480780789683" lat="17.641863663577599">
        <ele>490.587</ele>
        <time>2024-09-25T11:12:59Z</time>
      </trkpt>
      <trkpt lon="78.520481196183937" lat="17.641865373660924">
        <ele>490.583</ele>
        <time>2024-09-25T11:12:59Z</time>
      </trkpt>
      <trkpt lon="78.520481614613914" lat="17.641867085387485">
        <ele>490.58</ele>
        <time>2024-09-25T11:12:59Z</time>
      </trkpt>
      <trkpt lon="78.520482035757212" lat="17.641868798906319">
        <ele>490.578</ele>
        <time>2024-09-25T11:12:59Z</time>
      </trkpt>
      <trkpt lon="78.520482459276593" lat="17.641870514267545">
        <ele>490.576</ele>
        <time>2024-09-25T11:12:59Z</time>
      </trkpt>
      <trkpt lon="78.520482884835332" lat="17.641872231444946">
        <ele>490.574</ele>
        <time>2024-09-25T11:12:59Z</time>
      </trkpt>
      <trkpt lon="78.520483312108766" lat="17.641873950355695">
        <ele>490.573</ele>
        <time>2024-09-25T11:12:59Z</time>
      </trkpt>
      <trkpt lon="78.520483740792599" lat="17.641875670877152">
        <ele>490.572</ele>
        <time>2024-09-25T11:12:59Z</time>
      </trkpt>
      <trkpt lon="78.520484170608469" lat="17.641877392860927">
        <ele>490.571</ele>
        <time>2024-09-25T11:12:59Z</time>
      </trkpt>
      <trkpt lon="78.520484739610296" lat="17.641879637426104">
        <ele>490.484</ele>
        <time>2024-09-25T11:13:00Z</time>
      </trkpt>
      <trkpt lon="78.520485304846616" lat="17.64188183709059">
        <ele>490.411</ele>
        <time>2024-09-25T11:13:00Z</time>
      </trkpt>
      <trkpt lon="78.520485864712597" lat="17.641883990961528">
        <ele>490.351</ele>
        <time>2024-09-25T11:13:00Z</time>
      </trkpt>
      <trkpt lon="78.520486418184973" lat="17.641886099956235">
        <ele>490.303</ele>
        <time>2024-09-25T11:13:00Z</time>
      </trkpt>
      <trkpt lon="78.520486964714451" lat="17.641888166324701">
        <ele>490.265</ele>
        <time>2024-09-25T11:13:00Z</time>
      </trkpt>
      <trkpt lon="78.520487504128099" lat="17.641890193243384">
        <ele>490.236</ele>
        <time>2024-09-25T11:13:00Z</time>
      </trkpt>
      <trkpt lon="78.520488036542673" lat="17.641892184476784">
        <ele>490.216</ele>
        <time>2024-09-25T11:13:00Z</time>
      </trkpt>
      <trkpt lon="78.520488562289231" lat="17.641894144101961">
        <ele>490.202</ele>
        <time>2024-09-25T11:13:00Z</time>
      </trkpt>
      <trkpt lon="78.52048908184895" lat="17.641896076289996">
        <ele>490.194</ele>
        <time>2024-09-25T11:13:00Z</time>
      </trkpt>
      <trkpt lon="78.52048959579939" lat="17.64189798513797">
        <ele>490.191</ele>
        <time>2024-09-25T11:13:00Z</time>
      </trkpt>
      <trkpt lon="78.520490104770715" lat="17.641899874544904">
        <ele>490.19</ele>
        <time>2024-09-25T11:13:00Z</time>
      </trkpt>
      <trkpt lon="78.520490609410871" lat="17.641901748125122">
        <ele>490.193</ele>
        <time>2024-09-25T11:13:00Z</time>
      </trkpt>
      <trkpt lon="78.520491110358748" lat="17.641903609152788">
        <ele>490.197</ele>
        <time>2024-09-25T11:13:00Z</time>
      </trkpt>
      <trkpt lon="78.520491608224134" lat="17.641905460531966">
        <ele>490.203</ele>
        <time>2024-09-25T11:13:00Z</time>
      </trkpt>
      <trkpt lon="78.520492103573758" lat="17.641907304786862">
        <ele>490.209</ele>
        <time>2024-09-25T11:13:00Z</time>
      </trkpt>
      <trkpt lon="78.520492596922239" lat="17.641909144067682">
        <ele>490.216</ele>
        <time>2024-09-25T11:13:00Z</time>
      </trkpt>
      <trkpt lon="78.520493088726951" lat="17.641910980168031">
        <ele>490.223</ele>
        <time>2024-09-25T11:13:00Z</time>
      </trkpt>
      <trkpt lon="78.520493579386326" lat="17.641912814550412">
        <ele>490.229</ele>
        <time>2024-09-25T11:13:00Z</time>
      </trkpt>
      <trkpt lon="78.520494069240442" lat="17.641914648376947">
        <ele>490.236</ele>
        <time>2024-09-25T11:13:00Z</time>
      </trkpt>
      <trkpt lon="78.520494558573645" lat="17.641916482542953">
        <ele>490.241</ele>
        <time>2024-09-25T11:13:00Z</time>
      </trkpt>
      <trkpt lon="78.520495047618368" lat="17.641918317711564">
        <ele>490.247</ele>
        <time>2024-09-25T11:13:00Z</time>
      </trkpt>
      <trkpt lon="78.520495536559835" lat="17.641920154347829">
        <ele>490.251</ele>
        <time>2024-09-25T11:13:00Z</time>
      </trkpt>
      <trkpt lon="78.520496025541277" lat="17.641921992751342">
        <ele>490.255</ele>
        <time>2024-09-25T11:13:00Z</time>
      </trkpt>
      <trkpt lon="78.520496514669247" lat="17.641923833086565">
        <ele>490.258</ele>
        <time>2024-09-25T11:13:00Z</time>
      </trkpt>
      <trkpt lon="78.520497004019006" lat="17.641925675410388">
        <ele>490.261</ele>
        <time>2024-09-25T11:13:00Z</time>
      </trkpt>
      <trkpt lon="78.520497493639553" lat="17.641927519696633">
        <ele>490.263</ele>
        <time>2024-09-25T11:13:00Z</time>
      </trkpt>
      <trkpt lon="78.520497983558457" lat="17.641929365857411">
        <ele>490.265</ele>
        <time>2024-09-25T11:13:00Z</time>
      </trkpt>
      <trkpt lon="78.520498473786091" lat="17.641931213761371">
        <ele>490.266</ele>
        <time>2024-09-25T11:13:00Z</time>
      </trkpt>
      <trkpt lon="78.5204989643196" lat="17.641933063248963">
        <ele>490.267</ele>
        <time>2024-09-25T11:13:00Z</time>
      </trkpt>
      <trkpt lon="78.520499649351009" lat="17.641935413234474">
        <ele>490.475</ele>
        <time>2024-09-25T11:13:01Z</time>
      </trkpt>
      <trkpt lon="78.520500360012036" lat="17.641937663756071">
        <ele>490.65</ele>
        <time>2024-09-25T11:13:01Z</time>
      </trkpt>
      <trkpt lon="78.520501089321826" lat="17.641939822843707">
        <ele>490.795</ele>
        <time>2024-09-25T11:13:01Z</time>
      </trkpt>
      <trkpt lon="78.520501831370467" lat="17.641941899725889">
        <ele>490.911</ele>
        <time>2024-09-25T11:13:01Z</time>
      </trkpt>
      <trkpt lon="78.520502581260544" lat="17.641943904214131">
        <ele>491.001</ele>
        <time>2024-09-25T11:13:01Z</time>
      </trkpt>
      <trkpt lon="78.520503335027996" lat="17.641945846218672">
        <ele>491.07</ele>
        <time>2024-09-25T11:13:01Z</time>
      </trkpt>
      <trkpt lon="78.520504089550016" lat="17.641947735380004">
        <ele>491.119</ele>
        <time>2024-09-25T11:13:01Z</time>
      </trkpt>
      <trkpt lon="78.520504842446357" lat="17.641949580800475">
        <ele>491.152</ele>
        <time>2024-09-25T11:13:01Z</time>
      </trkpt>
      <trkpt lon="78.520505591979216" lat="17.641951390860648">
        <ele>491.172</ele>
        <time>2024-09-25T11:13:01Z</time>
      </trkpt>
      <trkpt lon="78.520506336955407" lat="17.641953173105954">
        <ele>491.181</ele>
        <time>2024-09-25T11:13:01Z</time>
      </trkpt>
      <trkpt lon="78.520507076633749" lat="17.641954934190238">
        <ele>491.182</ele>
        <time>2024-09-25T11:13:01Z</time>
      </trkpt>
      <trkpt lon="78.520507810639515" lat="17.641956679864183">
        <ele>491.176</ele>
        <time>2024-09-25T11:13:01Z</time>
      </trkpt>
      <trkpt lon="78.520508538887242" lat="17.641958414997916">
        <ele>491.166</ele>
        <time>2024-09-25T11:13:01Z</time>
      </trkpt>
      <trkpt lon="78.520509261512458" lat="17.641960143628665">
        <ele>491.153</ele>
        <time>2024-09-25T11:13:01Z</time>
      </trkpt>
      <trkpt lon="78.520509978812612" lat="17.641961869025614">
        <ele>491.137</ele>
        <time>2024-09-25T11:13:01Z</time>
      </trkpt>
      <trkpt lon="78.520510691196833" lat="17.641963593765418">
        <ele>491.121</ele>
        <time>2024-09-25T11:13:01Z</time>
      </trkpt>
      <trkpt lon="78.520511399144283" lat="17.64196531981322">
        <ele>491.105</ele>
        <time>2024-09-25T11:13:01Z</time>
      </trkpt>
      <trkpt lon="78.520512103170233" lat="17.641967048604961">
        <ele>491.089</ele>
        <time>2024-09-25T11:13:01Z</time>
      </trkpt>
      <trkpt lon="78.520512803799292" lat="17.641968781127776">
        <ele>491.074</ele>
        <time>2024-09-25T11:13:01Z</time>
      </trkpt>
      <trkpt lon="78.520513501544883" lat="17.641970517996199">
        <ele>491.061</ele>
        <time>2024-09-25T11:13:01Z</time>
      </trkpt>
      <trkpt lon="78.520514196894183" lat="17.641972259522568">
        <ele>491.048</ele>
        <time>2024-09-25T11:13:01Z</time>
      </trkpt>
      <trkpt lon="78.520514890297648" lat="17.641974005780558">
        <ele>491.037</ele>
        <time>2024-09-25T11:13:01Z</time>
      </trkpt>
      <trkpt lon="78.520515582162432" lat="17.641975756661378">
        <ele>491.028</ele>
        <time>2024-09-25T11:13:01Z</time>
      </trkpt>
      <trkpt lon="78.520516272848866" lat="17.641977511922477">
        <ele>491.02</ele>
        <time>2024-09-25T11:13:01Z</time>
      </trkpt>
      <trkpt lon="78.520516962669518" lat="17.641979271228891">
        <ele>491.014</ele>
        <time>2024-09-25T11:13:01Z</time>
      </trkpt>
      <trkpt lon="78.520517651890046" lat="17.641981034187637">
        <ele>491.008</ele>
        <time>2024-09-25T11:13:01Z</time>
      </trkpt>
      <trkpt lon="78.520518340731584" lat="17.641982800375626">
        <ele>491.004</ele>
        <time>2024-09-25T11:13:01Z</time>
      </trkpt>
      <trkpt lon="78.520519029373958" lat="17.641984569361785">
        <ele>491.001</ele>
        <time>2024-09-25T11:13:01Z</time>
      </trkpt>
      <trkpt lon="78.520519717959658" lat="17.641986340723982">
        <ele>490.999</ele>
        <time>2024-09-25T11:13:01Z</time>
      </trkpt>
      <trkpt lon="78.520520553234888" lat="17.64198860603458">
        <ele>491.085</ele>
        <time>2024-09-25T11:13:02Z</time>
      </trkpt>
      <trkpt lon="78.520521318011717" lat="17.641990788453583">
        <ele>491.157</ele>
        <time>2024-09-25T11:13:02Z</time>
      </trkpt>
      <trkpt lon="78.520522021214362" lat="17.641992893416429">
        <ele>491.217</ele>
        <time>2024-09-25T11:13:02Z</time>
      </trkpt>
      <trkpt lon="78.520522671708434" lat="17.641994927710407">
        <ele>491.266</ele>
        <time>2024-09-25T11:13:02Z</time>
      </trkpt>
      <trkpt lon="78.520523278007474" lat="17.641996898906147">
        <ele>491.304</ele>
        <time>2024-09-25T11:13:02Z</time>
      </trkpt>
      <trkpt lon="78.520523848064002" lat="17.641998814901843">
        <ele>491.334</ele>
        <time>2024-09-25T11:13:02Z</time>
      </trkpt>
      <trkpt lon="78.52052438913141" lat="17.642000683568327">
        <ele>491.355</ele>
        <time>2024-09-25T11:13:02Z</time>
      </trkpt>
      <trkpt lon="78.520524907684162" lat="17.642002512482449">
        <ele>491.37</ele>
        <time>2024-09-25T11:13:02Z</time>
      </trkpt>
      <trkpt lon="78.520525409384746" lat="17.642004308736315">
        <ele>491.379</ele>
        <time>2024-09-25T11:13:02Z</time>
      </trkpt>
      <trkpt lon="78.520525899086877" lat="17.642006078810329">
        <ele>491.383</ele>
        <time>2024-09-25T11:13:02Z</time>
      </trkpt>
      <trkpt lon="78.520526380866059" lat="17.642007828498713">
        <ele>491.385</ele>
        <time>2024-09-25T11:13:02Z</time>
      </trkpt>
      <trkpt lon="78.52052685806963" lat="17.64200956287722">
        <ele>491.383</ele>
        <time>2024-09-25T11:13:02Z</time>
      </trkpt>
      <trkpt lon="78.520527333379761" lat="17.642011286303731">
        <ele>491.379</ele>
        <time>2024-09-25T11:13:02Z</time>
      </trkpt>
      <trkpt lon="78.520527808884097" lat="17.642013002443626">
        <ele>491.374</ele>
        <time>2024-09-25T11:13:02Z</time>
      </trkpt>
      <trkpt lon="78.52052828614957" lat="17.642014714312996">
        <ele>491.368</ele>
        <time>2024-09-25T11:13:02Z</time>
      </trkpt>
      <trkpt lon="78.520528766296195" lat="17.642016424333722">
        <ele>491.362</ele>
        <time>2024-09-25T11:13:02Z</time>
      </trkpt>
      <trkpt lon="78.520529250068208" lat="17.642018134395659">
        <ele>491.356</ele>
        <time>2024-09-25T11:13:02Z</time>
      </trkpt>
      <trkpt lon="78.520529737900716" lat="17.642019845921972">
        <ele>491.349</ele>
        <time>2024-09-25T11:13:02Z</time>
      </trkpt>
      <trkpt lon="78.520530229980693" lat="17.642021559934619">
        <ele>491.344</ele>
        <time>2024-09-25T11:13:02Z</time>
      </trkpt>
      <trkpt lon="78.520530726301573" lat="17.642023277117612">
        <ele>491.338</ele>
        <time>2024-09-25T11:13:02Z</time>
      </trkpt>
      <trkpt lon="78.520531226711142" lat="17.642024997876465">
        <ele>491.333</ele>
        <time>2024-09-25T11:13:02Z</time>
      </trkpt>
      <trkpt lon="78.520531730952598" lat="17.642026722392682">
        <ele>491.329</ele>
        <time>2024-09-25T11:13:02Z</time>
      </trkpt>
      <trkpt lon="78.52053223869936" lat="17.642028450672594">
        <ele>491.325</ele>
        <time>2024-09-25T11:13:02Z</time>
      </trkpt>
      <trkpt lon="78.520532749583467" lat="17.642030182590258">
        <ele>491.321</ele>
        <time>2024-09-25T11:13:02Z</time>
      </trkpt>
      <trkpt lon="78.52053326321861" lat="17.642031917924399">
        <ele>491.319</ele>
        <time>2024-09-25T11:13:02Z</time>
      </trkpt>
      <trkpt lon="78.520533779218013" lat="17.642033656389575">
        <ele>491.317</ele>
        <time>2024-09-25T11:13:02Z</time>
      </trkpt>
      <trkpt lon="78.520534297208044" lat="17.642035397661871">
        <ele>491.315</ele>
        <time>2024-09-25T11:13:02Z</time>
      </trkpt>
      <trkpt lon="78.52053481683788" lat="17.64203714139963">
        <ele>491.313</ele>
        <time>2024-09-25T11:13:02Z</time>
      </trkpt>
      <trkpt lon="78.520535337786157" lat="17.642038887259677">
        <ele>491.312</ele>
        <time>2024-09-25T11:13:02Z</time>
      </trkpt>
      <trkpt lon="78.520536032620228" lat="17.64204116480602">
        <ele>491.3</ele>
        <time>2024-09-25T11:13:03Z</time>
      </trkpt>
      <trkpt lon="78.520536727262865" lat="17.642043398408337">
        <ele>491.29</ele>
        <time>2024-09-25T11:13:03Z</time>
      </trkpt>
      <trkpt lon="78.520537419006857" lat="17.642045586824651">
        <ele>491.282</ele>
        <time>2024-09-25T11:13:03Z</time>
      </trkpt>
      <trkpt lon="78.520538105912138" lat="17.642047730688006">
        <ele>491.275</ele>
        <time>2024-09-25T11:13:03Z</time>
      </trkpt>
      <trkpt lon="78.520538786684313" lat="17.642049832022881">
        <ele>491.27</ele>
        <time>2024-09-25T11:13:03Z</time>
      </trkpt>
      <trkpt lon="78.520539460560613" lat="17.642051893832331">
        <ele>491.266</ele>
        <time>2024-09-25T11:13:03Z</time>
      </trkpt>
      <trkpt lon="78.52054012720555" lat="17.642053919752787">
        <ele>491.264</ele>
        <time>2024-09-25T11:13:03Z</time>
      </trkpt>
      <trkpt lon="78.520540786617389" lat="17.642055913771838">
        <ele>491.262</ele>
        <time>2024-09-25T11:13:03Z</time>
      </trkpt>
      <trkpt lon="78.520541439045999" lat="17.642057880003296">
        <ele>491.261</ele>
        <time>2024-09-25T11:13:03Z</time>
      </trkpt>
      <trkpt lon="78.520542084922255" lat="17.642059822513243">
        <ele>491.261</ele>
        <time>2024-09-25T11:13:03Z</time>
      </trkpt>
      <trkpt lon="78.520542724798517" lat="17.642061745190592">
        <ele>491.261</ele>
        <time>2024-09-25T11:13:03Z</time>
      </trkpt>
      <trkpt lon="78.520543359299523" lat="17.642063651655626">
        <ele>491.262</ele>
        <time>2024-09-25T11:13:03Z</time>
      </trkpt>
      <trkpt lon="78.520543989082938" lat="17.64206554520041">
        <ele>491.263</ele>
        <time>2024-09-25T11:13:03Z</time>
      </trkpt>
      <trkpt lon="78.520544614808301" lat="17.642067428755261">
        <ele>491.264</ele>
        <time>2024-09-25T11:13:03Z</time>
      </trkpt>
      <trkpt lon="78.520545237113737" lat="17.642069304876038">
        <ele>491.265</ele>
        <time>2024-09-25T11:13:03Z</time>
      </trkpt>
      <trkpt lon="78.520545856599043" lat="17.642071175747571">
        <ele>491.266</ele>
        <time>2024-09-25T11:13:03Z</time>
      </trkpt>
      <trkpt lon="78.520546473814306" lat="17.642073043199108">
        <ele>491.267</ele>
        <time>2024-09-25T11:13:03Z</time>
      </trkpt>
      <trkpt lon="78.520547089253014" lat="17.64207490872835">
        <ele>491.268</ele>
        <time>2024-09-25T11:13:03Z</time>
      </trkpt>
      <trkpt lon="78.520547703348868" lat="17.642076773531041">
        <ele>491.269</ele>
        <time>2024-09-25T11:13:03Z</time>
      </trkpt>
      <trkpt lon="78.520548316475441" lat="17.642078638533786">
        <ele>491.27</ele>
        <time>2024-09-25T11:13:03Z</time>
      </trkpt>
      <trkpt lon="78.520548928947974" lat="17.642080504428126">
        <ele>491.27</ele>
        <time>2024-09-25T11:13:03Z</time>
      </trkpt>
      <trkpt lon="78.520549541026853" lat="17.642082371704387">
        <ele>491.271</ele>
        <time>2024-09-25T11:13:03Z</time>
      </trkpt>
      <trkpt lon="78.520550152921999" lat="17.642084240684195">
        <ele>491.272</ele>
        <time>2024-09-25T11:13:03Z</time>
      </trkpt>
      <trkpt lon="78.52055076479806" lat="17.642086111550839">
        <ele>491.272</ele>
        <time>2024-09-25T11:13:03Z</time>
      </trkpt>
      <trkpt lon="78.520551376779807" lat="17.642087984376946">
        <ele>491.272</ele>
        <time>2024-09-25T11:13:03Z</time>
      </trkpt>
      <trkpt lon="78.520551988957607" lat="17.642089859149227">
        <ele>491.273</ele>
        <time>2024-09-25T11:13:03Z</time>
      </trkpt>
      <trkpt lon="78.520552601392779" lat="17.642091735790061">
        <ele>491.273</ele>
        <time>2024-09-25T11:13:03Z</time>
      </trkpt>
      <trkpt lon="78.520553214122629" lat="17.642093614176055">
        <ele>491.273</ele>
        <time>2024-09-25T11:13:03Z</time>
      </trkpt>
      <trkpt lon="78.520553827165017" lat="17.642095494153576">
        <ele>491.273</ele>
        <time>2024-09-25T11:13:03Z</time>
      </trkpt>
      <trkpt lon="78.520554595212246" lat="17.642097964439774">
        <ele>491.17</ele>
        <time>2024-09-25T11:13:04Z</time>
      </trkpt>
      <trkpt lon="78.520555321069622" lat="17.64210040233694">
        <ele>491.084</ele>
        <time>2024-09-25T11:13:04Z</time>
      </trkpt>
      <trkpt lon="78.520556009039439" lat="17.642102803956572">
        <ele>491.012</ele>
        <time>2024-09-25T11:13:04Z</time>
      </trkpt>
      <trkpt lon="78.520556663680622" lat="17.642105167627339">
        <ele>490.955</ele>
        <time>2024-09-25T11:13:04Z</time>
      </trkpt>
      <trkpt lon="78.520557289587231" lat="17.642107493407291">
        <ele>490.909</ele>
        <time>2024-09-25T11:13:04Z</time>
      </trkpt>
      <trkpt lon="78.52055789122025" lat="17.6421097826561">
        <ele>490.875</ele>
        <time>2024-09-25T11:13:04Z</time>
      </trkpt>
      <trkpt lon="78.520558472785453" lat="17.642112037667399">
        <ele>490.851</ele>
        <time>2024-09-25T11:13:04Z</time>
      </trkpt>
      <trkpt lon="78.520559038150139" lat="17.642114261359204">
        <ele>490.834</ele>
        <time>2024-09-25T11:13:04Z</time>
      </trkpt>
      <trkpt lon="78.520559590792203" lat="17.642116457018847">
        <ele>490.824</ele>
        <time>2024-09-25T11:13:04Z</time>
      </trkpt>
      <trkpt lon="78.52056013377512" lat="17.642118628097904">
        <ele>490.819</ele>
        <time>2024-09-25T11:13:04Z</time>
      </trkpt>
      <trkpt lon="78.520560669743688" lat="17.642120778051886">
        <ele>490.819</ele>
        <time>2024-09-25T11:13:04Z</time>
      </trkpt>
      <trkpt lon="78.520561200935177" lat="17.642122910219268">
        <ele>490.822</ele>
        <time>2024-09-25T11:13:04Z</time>
      </trkpt>
      <trkpt lon="78.520561729201972" lat="17.642125027734348">
        <ele>490.826</ele>
        <time>2024-09-25T11:13:04Z</time>
      </trkpt>
      <trkpt lon="78.520562256042041" lat="17.64212713346868">
        <ele>490.833</ele>
        <time>2024-09-25T11:13:04Z</time>
      </trkpt>
      <trkpt lon="78.520562782634087" lat="17.642129229996009">
        <ele>490.84</ele>
        <time>2024-09-25T11:13:04Z</time>
      </trkpt>
      <trkpt lon="78.520563309875243" lat="17.642131319576215">
        <ele>490.848</ele>
        <time>2024-09-25T11:13:04Z</time>
      </trkpt>
      <trkpt lon="78.52056383841925" lat="17.642133404154109">
        <ele>490.856</ele>
        <time>2024-09-25T11:13:04Z</time>
      </trkpt>
      <trkpt lon="78.520564368713679" lat="17.642135485369433">
        <ele>490.864</ele>
        <time>2024-09-25T11:13:04Z</time>
      </trkpt>
      <trkpt lon="78.520564901035101" lat="17.642137564575034">
        <ele>490.871</ele>
        <time>2024-09-25T11:13:04Z</time>
      </trkpt>
      <trkpt lon="78.520565435521632" lat="17.642139642860503">
        <ele>490.878</ele>
        <time>2024-09-25T11:13:04Z</time>
      </trkpt>
      <trkpt lon="78.520565972202164" lat="17.642141721079145">
        <ele>490.884</ele>
        <time>2024-09-25T11:13:04Z</time>
      </trkpt>
      <trkpt lon="78.520566511022295" lat="17.642143799876521">
        <ele>490.889</ele>
        <time>2024-09-25T11:13:04Z</time>
      </trkpt>
      <trkpt lon="78.520567051866692" lat="17.642145879719159">
        <ele>490.894</ele>
        <time>2024-09-25T11:13:04Z</time>
      </trkpt>
      <trkpt lon="78.520567594578154" lat="17.64214796092244">
        <ele>490.898</ele>
        <time>2024-09-25T11:13:04Z</time>
      </trkpt>
      <trkpt lon="78.520568138973303" lat="17.642150043676846">
        <ele>490.901</ele>
        <time>2024-09-25T11:13:04Z</time>
      </trkpt>
      <trkpt lon="78.520568684855448" lat="17.642152128072098">
        <ele>490.904</ele>
        <time>2024-09-25T11:13:04Z</time>
      </trkpt>
      <trkpt lon="78.52056923202467" lat="17.64215421411884">
        <ele>490.906</ele>
        <time>2024-09-25T11:13:04Z</time>
      </trkpt>
      <trkpt lon="78.520569780285584" lat="17.642156301767749">
        <ele>490.907</ele>
        <time>2024-09-25T11:13:04Z</time>
      </trkpt>
      <trkpt lon="78.520570329452966" lat="17.642158390925992">
        <ele>490.909</ele>
        <time>2024-09-25T11:13:04Z</time>
      </trkpt>
      <trkpt lon="78.520571002957666" lat="17.642161003408372">
        <ele>491.322</ele>
        <time>2024-09-25T11:13:05Z</time>
      </trkpt>
      <trkpt lon="78.520571626514808" lat="17.642163468093575">
        <ele>491.669</ele>
        <time>2024-09-25T11:13:05Z</time>
      </trkpt>
      <trkpt lon="78.520572206045955" lat="17.642165800297384">
        <ele>491.956</ele>
        <time>2024-09-25T11:13:05Z</time>
      </trkpt>
      <trkpt lon="78.520572747543838" lat="17.642168016166021">
        <ele>492.187</ele>
        <time>2024-09-25T11:13:05Z</time>
      </trkpt>
      <trkpt lon="78.520573256846717" lat="17.642170131910966">
        <ele>492.367</ele>
        <time>2024-09-25T11:13:05Z</time>
      </trkpt>
      <trkpt lon="78.520573739473704" lat="17.64217216322988">
        <ele>492.503</ele>
        <time>2024-09-25T11:13:05Z</time>
      </trkpt>
      <trkpt lon="78.520574200511575" lat="17.642174124887944">
        <ele>492.601</ele>
        <time>2024-09-25T11:13:05Z</time>
      </trkpt>
      <trkpt lon="78.52057464454461" lat="17.642176030434634">
        <ele>492.667</ele>
        <time>2024-09-25T11:13:05Z</time>
      </trkpt>
      <trkpt lon="78.520575075619078" lat="17.642177892032443">
        <ele>492.707</ele>
        <time>2024-09-25T11:13:05Z</time>
      </trkpt>
      <trkpt lon="78.520575497235157" lat="17.64217972037595">
        <ele>492.725</ele>
        <time>2024-09-25T11:13:05Z</time>
      </trkpt>
      <trkpt lon="78.520575912359803" lat="17.642181524681792">
        <ele>492.727</ele>
        <time>2024-09-25T11:13:05Z</time>
      </trkpt>
      <trkpt lon="78.520576323455003" lat="17.64218331273241">
        <ele>492.716</ele>
        <time>2024-09-25T11:13:05Z</time>
      </trkpt>
      <trkpt lon="78.520576732516588" lat="17.642185090958865">
        <ele>492.696</ele>
        <time>2024-09-25T11:13:05Z</time>
      </trkpt>
      <trkpt lon="78.520577141119659" lat="17.642186864550165">
        <ele>492.669</ele>
        <time>2024-09-25T11:13:05Z</time>
      </trkpt>
      <trkpt lon="78.520577550467479" lat="17.642188637578847">
        <ele>492.639</ele>
        <time>2024-09-25T11:13:05Z</time>
      </trkpt>
      <trkpt lon="78.520577961441219" lat="17.64219041313439">
        <ele>492.607</ele>
        <time>2024-09-25T11:13:05Z</time>
      </trkpt>
      <trkpt lon="78.52057837464865" lat="17.642192193457934">
        <ele>492.575</ele>
        <time>2024-09-25T11:13:05Z</time>
      </trkpt>
      <trkpt lon="78.520578790470367" lat="17.642193980073301">
        <ele>492.543</ele>
        <time>2024-09-25T11:13:05Z</time>
      </trkpt>
      <trkpt lon="78.520579209102451" lat="17.642195773910657">
        <ele>492.514</ele>
        <time>2024-09-25T11:13:05Z</time>
      </trkpt>
      <trkpt lon="78.520579630595122" lat="17.642197575420369">
        <ele>492.487</ele>
        <time>2024-09-25T11:13:05Z</time>
      </trkpt>
      <trkpt lon="78.520580054886892" lat="17.642199384675475">
        <ele>492.463</ele>
        <time>2024-09-25T11:13:05Z</time>
      </trkpt>
      <trkpt lon="78.520580481834202" lat="17.64220120146204">
        <ele>492.441</ele>
        <time>2024-09-25T11:13:05Z</time>
      </trkpt>
      <trkpt lon="78.520580911236593" lat="17.64220302535724">
        <ele>492.423</ele>
        <time>2024-09-25T11:13:05Z</time>
      </trkpt>
      <trkpt lon="78.52058134285771" lat="17.642204855795466">
        <ele>492.407</ele>
        <time>2024-09-25T11:13:05Z</time>
      </trkpt>
      <trkpt lon="78.520581776442327" lat="17.642206692123118">
        <ele>492.394</ele>
        <time>2024-09-25T11:13:05Z</time>
      </trkpt>
      <trkpt lon="78.520582211729874" lat="17.642208533642972">
        <ele>492.384</ele>
        <time>2024-09-25T11:13:05Z</time>
      </trkpt>
      <trkpt lon="78.520582648464767" lat="17.642210379649132">
        <ele>492.375</ele>
        <time>2024-09-25T11:13:05Z</time>
      </trkpt>
      <trkpt lon="78.520583086404088" lat="17.642212229453669">
        <ele>492.369</ele>
        <time>2024-09-25T11:13:05Z</time>
      </trkpt>
      <trkpt lon="78.520583525322891" lat="17.642214082406106">
        <ele>492.364</ele>
        <time>2024-09-25T11:13:05Z</time>
      </trkpt>
      <trkpt lon="78.52058410332063" lat="17.642216480725192">
        <ele>492.349</ele>
        <time>2024-09-25T11:13:06Z</time>
      </trkpt>
      <trkpt lon="78.520584674862079" lat="17.642218816556259">
        <ele>492.336</ele>
        <time>2024-09-25T11:13:06Z</time>
      </trkpt>
      <trkpt lon="78.520585238785827" lat="17.6422210912698">
        <ele>492.326</ele>
        <time>2024-09-25T11:13:06Z</time>
      </trkpt>
      <trkpt lon="78.520585794480979" lat="17.642223308021467">
        <ele>492.318</ele>
        <time>2024-09-25T11:13:06Z</time>
      </trkpt>
      <trkpt lon="78.520586341772784" lat="17.642225471203005">
        <ele>492.313</ele>
        <time>2024-09-25T11:13:06Z</time>
      </trkpt>
      <trkpt lon="78.520586880821384" lat="17.642227585985413">
        <ele>492.31</ele>
        <time>2024-09-25T11:13:06Z</time>
      </trkpt>
      <trkpt lon="78.520587412033734" lat="17.642229657947524">
        <ele>492.308</ele>
        <time>2024-09-25T11:13:06Z</time>
      </trkpt>
      <trkpt lon="78.520587935988772" lat="17.642231692781859">
        <ele>492.307</ele>
        <time>2024-09-25T11:13:06Z</time>
      </trkpt>
      <trkpt lon="78.520588453374955" lat="17.642233696068935">
        <ele>492.307</ele>
        <time>2024-09-25T11:13:06Z</time>
      </trkpt>
      <trkpt lon="78.520588964939364" lat="17.642235673111045">
        <ele>492.308</ele>
        <time>2024-09-25T11:13:06Z</time>
      </trkpt>
      <trkpt lon="78.520589471447352" lat="17.642237628816599">
        <ele>492.309</ele>
        <time>2024-09-25T11:13:06Z</time>
      </trkpt>
      <trkpt lon="78.52058997365144" lat="17.642239567626632">
        <ele>492.311</ele>
        <time>2024-09-25T11:13:06Z</time>
      </trkpt>
      <trkpt lon="78.52059047226841" lat="17.642241493475627">
        <ele>492.313</ele>
        <time>2024-09-25T11:13:06Z</time>
      </trkpt>
      <trkpt lon="78.520590967963116" lat="17.642243409779581">
        <ele>492.315</ele>
        <time>2024-09-25T11:13:06Z</time>
      </trkpt>
      <trkpt lon="78.520591461338228" lat="17.642245319445024">
        <ele>492.317</ele>
        <time>2024-09-25T11:13:06Z</time>
      </trkpt>
      <trkpt lon="78.520591952928626" lat="17.642247224893485">
        <ele>492.318</ele>
        <time>2024-09-25T11:13:06Z</time>
      </trkpt>
      <trkpt lon="78.520592443199476" lat="17.642249128096804">
        <ele>492.32</ele>
        <time>2024-09-25T11:13:06Z</time>
      </trkpt>
      <trkpt lon="78.52059293254726" lat="17.642251030619359">
        <ele>492.322</ele>
        <time>2024-09-25T11:13:06Z</time>
      </trkpt>
      <trkpt lon="78.520593421302905" lat="17.642252933664043">
        <ele>492.323</ele>
        <time>2024-09-25T11:13:06Z</time>
      </trkpt>
      <trkpt lon="78.520593909736434" lat="17.642254838119477">
        <ele>492.324</ele>
        <time>2024-09-25T11:13:06Z</time>
      </trkpt>
      <trkpt lon="78.520594398062599" lat="17.642256744606538">
        <ele>492.325</ele>
        <time>2024-09-25T11:13:06Z</time>
      </trkpt>
      <trkpt lon="78.520594886446972" lat="17.642258653522678">
        <ele>492.326</ele>
        <time>2024-09-25T11:13:06Z</time>
      </trkpt>
      <trkpt lon="78.520595375012391" lat="17.642260565083156">
        <ele>492.327</ele>
        <time>2024-09-25T11:13:06Z</time>
      </trkpt>
      <trkpt lon="78.520595863845131" lat="17.642262479358397">
        <ele>492.327</ele>
        <time>2024-09-25T11:13:06Z</time>
      </trkpt>
      <trkpt lon="78.52059635300094" lat="17.642264396307208">
        <ele>492.328</ele>
        <time>2024-09-25T11:13:06Z</time>
      </trkpt>
      <trkpt lon="78.520596842510656" lat="17.642266315805688">
        <ele>492.328</ele>
        <time>2024-09-25T11:13:06Z</time>
      </trkpt>
      <trkpt lon="78.520597332385208" lat="17.642268237671889">
        <ele>492.328</ele>
        <time>2024-09-25T11:13:06Z</time>
      </trkpt>
      <trkpt lon="78.520597822620161" lat="17.642270161686429">
        <ele>492.329</ele>
        <time>2024-09-25T11:13:06Z</time>
      </trkpt>
      <trkpt lon="78.520598313199685" lat="17.642272087609324">
        <ele>492.329</ele>
        <time>2024-09-25T11:13:06Z</time>
      </trkpt>
      <trkpt lon="78.520598944462932" lat="17.64227457795667">
        <ele>492.345</ele>
        <time>2024-09-25T11:13:07Z</time>
      </trkpt>
      <trkpt lon="78.520599556000732" lat="17.64227700115206">
        <ele>492.359</ele>
        <time>2024-09-25T11:13:07Z</time>
      </trkpt>
      <trkpt lon="78.520600148784041" lat="17.642279359145867">
        <ele>492.371</ele>
        <time>2024-09-25T11:13:07Z</time>
      </trkpt>
      <trkpt lon="78.520600724196044" lat="17.64228165567269">
        <ele>492.38</ele>
        <time>2024-09-25T11:13:07Z</time>
      </trkpt>
      <trkpt lon="78.520601283882726" lat="17.642283895682418">
        <ele>492.388</ele>
        <time>2024-09-25T11:13:07Z</time>
      </trkpt>
      <trkpt lon="78.520601829630976" lat="17.642286084869145">
        <ele>492.393</ele>
        <time>2024-09-25T11:13:07Z</time>
      </trkpt>
      <trkpt lon="78.520602363271863" lat="17.642288229290195">
        <ele>492.397</ele>
        <time>2024-09-25T11:13:07Z</time>
      </trkpt>
      <trkpt lon="78.520602886606127" lat="17.642290335066342">
        <ele>492.399</ele>
        <time>2024-09-25T11:13:07Z</time>
      </trkpt>
      <trkpt lon="78.520603401349163" lat="17.642292408153619">
        <ele>492.401</ele>
        <time>2024-09-25T11:13:07Z</time>
      </trkpt>
      <trkpt lon="78.520603909092401" lat="17.642294454177033">
        <ele>492.402</ele>
        <time>2024-09-25T11:13:07Z</time>
      </trkpt>
      <trkpt lon="78.520604411278597" lat="17.642296478316698">
        <ele>492.402</ele>
        <time>2024-09-25T11:13:07Z</time>
      </trkpt>
      <trkpt lon="78.520604909188293" lat="17.642298485237468">
        <ele>492.401</ele>
        <time>2024-09-25T11:13:07Z</time>
      </trkpt>
      <trkpt lon="78.520605403935335" lat="17.642300479053784">
        <ele>492.4</ele>
        <time>2024-09-25T11:13:07Z</time>
      </trkpt>
      <trkpt lon="78.520605896469164" lat="17.64230246332227">
        <ele>492.399</ele>
        <time>2024-09-25T11:13:07Z</time>
      </trkpt>
      <trkpt lon="78.520606387582347" lat="17.642304441055558">
        <ele>492.398</ele>
        <time>2024-09-25T11:13:07Z</time>
      </trkpt>
      <trkpt lon="78.520606877921665" lat="17.642306414751577">
        <ele>492.397</ele>
        <time>2024-09-25T11:13:07Z</time>
      </trkpt>
      <trkpt lon="78.520607368001592" lat="17.642308386433516">
        <ele>492.395</ele>
        <time>2024-09-25T11:13:07Z</time>
      </trkpt>
      <trkpt lon="78.520607858218909" lat="17.642310357696431">
        <ele>492.394</ele>
        <time>2024-09-25T11:13:07Z</time>
      </trkpt>
      <trkpt lon="78.520608348867967" lat="17.642312329757253">
        <ele>492.393</ele>
        <time>2024-09-25T11:13:07Z</time>
      </trkpt>
      <trkpt lon="78.520608840155646" lat="17.642314303505614">
        <ele>492.392</ele>
        <time>2024-09-25T11:13:07Z</time>
      </trkpt>
      <trkpt lon="78.520609332215713" lat="17.642316279553526">
        <ele>492.391</ele>
        <time>2024-09-25T11:13:07Z</time>
      </trkpt>
      <trkpt lon="78.520609825122193" lat="17.642318258282469">
        <ele>492.39</ele>
        <time>2024-09-25T11:13:07Z</time>
      </trkpt>
      <trkpt lon="78.520610318901504" lat="17.642320239886903">
        <ele>492.389</ele>
        <time>2024-09-25T11:13:07Z</time>
      </trkpt>
      <trkpt lon="78.520610813543215" lat="17.642322224413551">
        <ele>492.389</ele>
        <time>2024-09-25T11:13:07Z</time>
      </trkpt>
      <trkpt lon="78.520611309009524" lat="17.642324211796147">
        <ele>492.388</ele>
        <time>2024-09-25T11:13:07Z</time>
      </trkpt>
      <trkpt lon="78.52061180524332" lat="17.642326201885552">
        <ele>492.388</ele>
        <time>2024-09-25T11:13:07Z</time>
      </trkpt>
      <trkpt lon="78.520612302174868" lat="17.642328194475343">
        <ele>492.387</ele>
        <time>2024-09-25T11:13:07Z</time>
      </trkpt>
      <trkpt lon="78.520612799727374" lat="17.642330189323076">
        <ele>492.387</ele>
        <time>2024-09-25T11:13:07Z</time>
      </trkpt>
      <trkpt lon="78.520613297821399" lat="17.642332186167575">
        <ele>492.387</ele>
        <time>2024-09-25T11:13:07Z</time>
      </trkpt>
      <trkpt lon="78.520613947509688" lat="17.642334742824008">
        <ele>492.532</ele>
        <time>2024-09-25T11:13:08Z</time>
      </trkpt>
      <trkpt lon="78.5206145845831" lat="17.642337208490734">
        <ele>492.655</ele>
        <time>2024-09-25T11:13:08Z</time>
      </trkpt>
      <trkpt lon="78.520615208706516" lat="17.642339588932799">
        <ele>492.756</ele>
        <time>2024-09-25T11:13:08Z</time>
      </trkpt>
      <trkpt lon="78.520615820077012" lat="17.642341891455757">
        <ele>492.838</ele>
        <time>2024-09-25T11:13:08Z</time>
      </trkpt>
      <trkpt lon="78.520616419286114" lat="17.642344124272693">
        <ele>492.901</ele>
        <time>2024-09-25T11:13:08Z</time>
      </trkpt>
      <trkpt lon="78.520617007202006" lat="17.642346295995591">
        <ele>492.95</ele>
        <time>2024-09-25T11:13:08Z</time>
      </trkpt>
      <trkpt lon="78.520617584871374" lat="17.642348415238029">
        <ele>492.984</ele>
        <time>2024-09-25T11:13:08Z</time>
      </trkpt>
      <trkpt lon="78.520618153439088" lat="17.64235049031565">
        <ele>493.008</ele>
        <time>2024-09-25T11:13:08Z</time>
      </trkpt>
      <trkpt lon="78.520618714084236" lat="17.64235252903072">
        <ele>493.022</ele>
        <time>2024-09-25T11:13:08Z</time>
      </trkpt>
      <trkpt lon="78.520619267970787" lat="17.642354538527542">
        <ele>493.029</ele>
        <time>2024-09-25T11:13:08Z</time>
      </trkpt>
      <trkpt lon="78.520619816210896" lat="17.642356525206324">
        <ele>493.029</ele>
        <time>2024-09-25T11:13:08Z</time>
      </trkpt>
      <trkpt lon="78.520620359838972" lat="17.642358494684096">
        <ele>493.026</ele>
        <time>2024-09-25T11:13:08Z</time>
      </trkpt>
      <trkpt lon="78.520620899794977" lat="17.642360451792428">
        <ele>493.019</ele>
        <time>2024-09-25T11:13:08Z</time>
      </trkpt>
      <trkpt lon="78.520621436914993" lat="17.642362400603016">
        <ele>493.009</ele>
        <time>2024-09-25T11:13:08Z</time>
      </trkpt>
      <trkpt lon="78.520621971927753" lat="17.642364344473339">
        <ele>492.999</ele>
        <time>2024-09-25T11:13:08Z</time>
      </trkpt>
      <trkpt lon="78.520622505455776" lat="17.642366286105894">
        <ele>492.988</ele>
        <time>2024-09-25T11:13:08Z</time>
      </trkpt>
      <trkpt lon="78.520623038019878" lat="17.642368227615567">
        <ele>492.976</ele>
        <time>2024-09-25T11:13:08Z</time>
      </trkpt>
      <trkpt lon="78.520623570046169" lat="17.64237017060087">
        <ele>492.965</ele>
        <time>2024-09-25T11:13:08Z</time>
      </trkpt>
      <trkpt lon="78.520624101874503" lat="17.64237211621554">
        <ele>492.955</ele>
        <time>2024-09-25T11:13:08Z</time>
      </trkpt>
      <trkpt lon="78.520624633767937" lat="17.642374065237963">
        <ele>492.946</ele>
        <time>2024-09-25T11:13:08Z</time>
      </trkpt>
      <trkpt lon="78.520625165922525" lat="17.642376018136549">
        <ele>492.937</ele>
        <time>2024-09-25T11:13:08Z</time>
      </trkpt>
      <trkpt lon="78.520625698476977" lat="17.642377975129779">
        <ele>492.929</ele>
        <time>2024-09-25T11:13:08Z</time>
      </trkpt>
      <trkpt lon="78.520626231521973" lat="17.64237993624015">
        <ele>492.923</ele>
        <time>2024-09-25T11:13:08Z</time>
      </trkpt>
      <trkpt lon="78.520626765108844" lat="17.642381901341626">
        <ele>492.917</ele>
        <time>2024-09-25T11:13:08Z</time>
      </trkpt>
      <trkpt lon="78.520627299257441" lat="17.6423838702006">
        <ele>492.913</ele>
        <time>2024-09-25T11:13:08Z</time>
      </trkpt>
      <trkpt lon="78.520627833963246" lat="17.642385842510475">
        <ele>492.909</ele>
        <time>2024-09-25T11:13:08Z</time>
      </trkpt>
      <trkpt lon="78.520628369203465" lat="17.642387817920291">
        <ele>492.906</ele>
        <time>2024-09-25T11:13:08Z</time>
      </trkpt>
      <trkpt lon="78.520628904942399" lat="17.642389796057834">
        <ele>492.904</ele>
        <time>2024-09-25T11:13:08Z</time>
      </trkpt>
      <trkpt lon="78.520629441135782" lat="17.642391776547782">
        <ele>492.902</ele>
        <time>2024-09-25T11:13:08Z</time>
      </trkpt>
      <trkpt lon="78.520630157519079" lat="17.642394356902983">
        <ele>493.159</ele>
        <time>2024-09-25T11:13:09Z</time>
      </trkpt>
      <trkpt lon="78.520630874632417" lat="17.642396884661277">
        <ele>493.375</ele>
        <time>2024-09-25T11:13:09Z</time>
      </trkpt>
      <trkpt lon="78.520631589617992" lat="17.642399358899567">
        <ele>493.553</ele>
        <time>2024-09-25T11:13:09Z</time>
      </trkpt>
      <trkpt lon="78.520632300395448" lat="17.642401780780702">
        <ele>493.697</ele>
        <time>2024-09-25T11:13:09Z</time>
      </trkpt>
      <trkpt lon="78.520633005542734" lat="17.642404152999575">
        <ele>493.81</ele>
        <time>2024-09-25T11:13:09Z</time>
      </trkpt>
      <trkpt lon="78.520633704183396" lat="17.642406479312349">
        <ele>493.895</ele>
        <time>2024-09-25T11:13:09Z</time>
      </trkpt>
      <trkpt lon="78.520634395882752" lat="17.642408764144765">
        <ele>493.957</ele>
        <time>2024-09-25T11:13:09Z</time>
      </trkpt>
      <trkpt lon="78.520635080554158" lat="17.642411012273577">
        <ele>493.999</ele>
        <time>2024-09-25T11:13:09Z</time>
      </trkpt>
      <trkpt lon="78.5206357583764" lat="17.642413228574263">
        <ele>494.024</ele>
        <time>2024-09-25T11:13:09Z</time>
      </trkpt>
      <trkpt lon="78.520636429722103" lat="17.642415417827394">
        <ele>494.036</ele>
        <time>2024-09-25T11:13:09Z</time>
      </trkpt>
      <trkpt lon="78.520637095097086" lat="17.642417584575966">
        <ele>494.038</ele>
        <time>2024-09-25T11:13:09Z</time>
      </trkpt>
      <trkpt lon="78.520637755089979" lat="17.642419733026131">
        <ele>494.032</ele>
        <time>2024-09-25T11:13:09Z</time>
      </trkpt>
      <trkpt lon="78.520638410331472" lat="17.642421866984034">
        <ele>494.02</ele>
        <time>2024-09-25T11:13:09Z</time>
      </trkpt>
      <trkpt lon="78.520639061461935" lat="17.64242398982211">
        <ele>494.004</ele>
        <time>2024-09-25T11:13:09Z</time>
      </trkpt>
      <trkpt lon="78.520639709106902" lat="17.642426104468726">
        <ele>493.985</ele>
        <time>2024-09-25T11:13:09Z</time>
      </trkpt>
      <trkpt lon="78.520640353858937" lat="17.642428213415823">
        <ele>493.966</ele>
        <time>2024-09-25T11:13:09Z</time>
      </trkpt>
      <trkpt lon="78.5206409962652" lat="17.642430318739798">
        <ele>493.946</ele>
        <time>2024-09-25T11:13:09Z</time>
      </trkpt>
      <trkpt lon="78.520641636819633" lat="17.642432422131698">
        <ele>493.927</ele>
        <time>2024-09-25T11:13:09Z</time>
      </trkpt>
      <trkpt lon="78.520642275958863" lat="17.642434524933364">
        <ele>493.909</ele>
        <time>2024-09-25T11:13:09Z</time>
      </trkpt>
      <trkpt lon="78.520642914061185" lat="17.642436628176792">
        <ele>493.892</ele>
        <time>2024-09-25T11:13:09Z</time>
      </trkpt>
      <trkpt lon="78.520643551447776" lat="17.642438732624573">
        <ele>493.877</ele>
        <time>2024-09-25T11:13:09Z</time>
      </trkpt>
      <trkpt lon="78.520644188385603" lat="17.64244083880974">
        <ele>493.864</ele>
        <time>2024-09-25T11:13:09Z</time>
      </trkpt>
      <trkpt lon="78.52064482509148" lat="17.642442947073757">
        <ele>493.852</ele>
        <time>2024-09-25T11:13:09Z</time>
      </trkpt>
      <trkpt lon="78.520645461736919" lat="17.642445057601829">
        <ele>493.843</ele>
        <time>2024-09-25T11:13:09Z</time>
      </trkpt>
      <trkpt lon="78.520646098453298" lat="17.642447170454943">
        <ele>493.834</ele>
        <time>2024-09-25T11:13:09Z</time>
      </trkpt>
      <trkpt lon="78.520646735337195" lat="17.642449285598321">
        <ele>493.828</ele>
        <time>2024-09-25T11:13:09Z</time>
      </trkpt>
      <trkpt lon="78.520647372455571" lat="17.642451402926213">
        <ele>493.823</ele>
        <time>2024-09-25T11:13:09Z</time>
      </trkpt>
      <trkpt lon="78.520648009850802" lat="17.642453522283027">
        <ele>493.819</ele>
        <time>2024-09-25T11:13:09Z</time>
      </trkpt>
      <trkpt lon="78.520648647545173" lat="17.642455643481028">
        <ele>493.816</ele>
        <time>2024-09-25T11:13:09Z</time>
      </trkpt>
      <trkpt lon="78.520649450254027" lat="17.642458408576523">
        <ele>493.807</ele>
        <time>2024-09-25T11:13:10Z</time>
      </trkpt>
      <trkpt lon="78.520650212280842" lat="17.642461118462517">
        <ele>493.8</ele>
        <time>2024-09-25T11:13:10Z</time>
      </trkpt>
      <trkpt lon="78.52065093753923" lat="17.642463772021156">
        <ele>493.795</ele>
        <time>2024-09-25T11:13:10Z</time>
      </trkpt>
      <trkpt lon="78.520651630256268" lat="17.642466370365984">
        <ele>493.791</ele>
        <time>2024-09-25T11:13:10Z</time>
      </trkpt>
      <trkpt lon="78.520652294748544" lat="17.642468916253929">
        <ele>493.788</ele>
        <time>2024-09-25T11:13:10Z</time>
      </trkpt>
      <trkpt lon="78.520652935250155" lat="17.642471413584975">
        <ele>493.786</ele>
        <time>2024-09-25T11:13:10Z</time>
      </trkpt>
      <trkpt lon="78.520653555786026" lat="17.642473866985338">
        <ele>493.785</ele>
        <time>2024-09-25T11:13:10Z</time>
      </trkpt>
      <trkpt lon="78.520654160083595" lat="17.642476281467989">
        <ele>493.785</ele>
        <time>2024-09-25T11:13:10Z</time>
      </trkpt>
      <trkpt lon="78.520654751516588" lat="17.642478662163366">
        <ele>493.785</ele>
        <time>2024-09-25T11:13:10Z</time>
      </trkpt>
      <trkpt lon="78.520655333074956" lat="17.642481014112263">
        <ele>493.786</ele>
        <time>2024-09-25T11:13:10Z</time>
      </trkpt>
      <trkpt lon="78.520655907355533" lat="17.642483342112854">
        <ele>493.786</ele>
        <time>2024-09-25T11:13:10Z</time>
      </trkpt>
      <trkpt lon="78.520656476568547" lat="17.642485650613779">
        <ele>493.787</ele>
        <time>2024-09-25T11:13:10Z</time>
      </trkpt>
      <trkpt lon="78.520657042556138" lat="17.642487943645687">
        <ele>493.788</ele>
        <time>2024-09-25T11:13:10Z</time>
      </trkpt>
      <trkpt lon="78.520657606818943" lat="17.642490224784179">
        <ele>493.79</ele>
        <time>2024-09-25T11:13:10Z</time>
      </trkpt>
      <trkpt lon="78.52065817054806" lat="17.642492497137638">
        <ele>493.791</ele>
        <time>2024-09-25T11:13:10Z</time>
      </trkpt>
      <trkpt lon="78.520658734659904" lat="17.642494763354311">
        <ele>493.792</ele>
        <time>2024-09-25T11:13:10Z</time>
      </trkpt>
      <trkpt lon="78.520659299831991" lat="17.64249702564361">
        <ele>493.793</ele>
        <time>2024-09-25T11:13:10Z</time>
      </trkpt>
      <trkpt lon="78.52065986653821" lat="17.642499285807425">
        <ele>493.794</ele>
        <time>2024-09-25T11:13:10Z</time>
      </trkpt>
      <trkpt lon="78.520660435082505" lat="17.642501545277849">
        <ele>493.794</ele>
        <time>2024-09-25T11:13:10Z</time>
      </trkpt>
      <trkpt lon="78.52066100563016" lat="17.642503805158512">
        <ele>493.795</ele>
        <time>2024-09-25T11:13:10Z</time>
      </trkpt>
      <trkpt lon="78.520661578236215" lat="17.642506066267096">
        <ele>493.796</ele>
        <time>2024-09-25T11:13:10Z</time>
      </trkpt>
      <trkpt lon="78.520662152870656" lat="17.642508329177335">
        <ele>493.796</ele>
        <time>2024-09-25T11:13:10Z</time>
      </trkpt>
      <trkpt lon="78.520662729440417" lat="17.642510594259154">
        <ele>493.796</ele>
        <time>2024-09-25T11:13:10Z</time>
      </trkpt>
      <trkpt lon="78.520663307808121" lat="17.642512861715982">
        <ele>493.797</ele>
        <time>2024-09-25T11:13:10Z</time>
      </trkpt>
      <trkpt lon="78.5206638878078" lat="17.642515131618694">
        <ele>493.797</ele>
        <time>2024-09-25T11:13:10Z</time>
      </trkpt>
      <trkpt lon="78.520664469257625" lat="17.64251740393577">
        <ele>493.797</ele>
        <time>2024-09-25T11:13:10Z</time>
      </trkpt>
      <trkpt lon="78.520665051970198" lat="17.642519678559605">
        <ele>493.797</ele>
        <time>2024-09-25T11:13:10Z</time>
      </trkpt>
      <trkpt lon="78.520665635760409" lat="17.64252195532897">
        <ele>493.797</ele>
        <time>2024-09-25T11:13:10Z</time>
      </trkpt>
      <trkpt lon="78.52066622045129" lat="17.642524234047809">
        <ele>493.798</ele>
        <time>2024-09-25T11:13:10Z</time>
      </trkpt>
      <trkpt lon="78.520666994651961" lat="17.642527190097486">
        <ele>494.17</ele>
        <time>2024-09-25T11:13:11Z</time>
      </trkpt>
      <trkpt lon="78.520667763812597" lat="17.642530074732619">
        <ele>494.485</ele>
        <time>2024-09-25T11:13:11Z</time>
      </trkpt>
      <trkpt lon="78.520668525799707" lat="17.642532888877099">
        <ele>494.744</ele>
        <time>2024-09-25T11:13:11Z</time>
      </trkpt>
      <trkpt lon="78.520669279254122" lat="17.642535635675436">
        <ele>494.952</ele>
        <time>2024-09-25T11:13:11Z</time>
      </trkpt>
      <trkpt lon="78.520670023447622" lat="17.642538319836881">
        <ele>495.116</ele>
        <time>2024-09-25T11:13:11Z</time>
      </trkpt>
      <trkpt lon="78.520670758152903" lat="17.642540947086655">
        <ele>495.239</ele>
        <time>2024-09-25T11:13:11Z</time>
      </trkpt>
      <trkpt lon="78.520671483528105" lat="17.642543523717009">
        <ele>495.328</ele>
        <time>2024-09-25T11:13:11Z</time>
      </trkpt>
      <trkpt lon="78.520672200016506" lat="17.642546056229108">
        <ele>495.388</ele>
        <time>2024-09-25T11:13:11Z</time>
      </trkpt>
      <trkpt lon="78.520672908260849" lat="17.642548551055803">
        <ele>495.424</ele>
        <time>2024-09-25T11:13:11Z</time>
      </trkpt>
      <trkpt lon="78.520673609031959" lat="17.64255101435506">
        <ele>495.441</ele>
        <time>2024-09-25T11:13:11Z</time>
      </trkpt>
      <trkpt lon="78.520674303170424" lat="17.642553451863769">
        <ele>495.443</ele>
        <time>2024-09-25T11:13:11Z</time>
      </trkpt>
      <trkpt lon="78.520674991540261" lat="17.642555868802166">
        <ele>495.433</ele>
        <time>2024-09-25T11:13:11Z</time>
      </trkpt>
      <trkpt lon="78.520675674993115" lat="17.642558269819734">
        <ele>495.415</ele>
        <time>2024-09-25T11:13:11Z</time>
      </trkpt>
      <trkpt lon="78.520676354341731" lat="17.642560658974237">
        <ele>495.391</ele>
        <time>2024-09-25T11:13:11Z</time>
      </trkpt>
      <trkpt lon="78.52067703034129" lat="17.642563039736476">
        <ele>495.364</ele>
        <time>2024-09-25T11:13:11Z</time>
      </trkpt>
      <trkpt lon="78.520677703677364" lat="17.64256541501425">
        <ele>495.335</ele>
        <time>2024-09-25T11:13:11Z</time>
      </trkpt>
      <trkpt lon="78.520678374959274" lat="17.642567787189972">
        <ele>495.306</ele>
        <time>2024-09-25T11:13:11Z</time>
      </trkpt>
      <trkpt lon="78.520679044717667" lat="17.642570158167274">
        <ele>495.278</ele>
        <time>2024-09-25T11:13:11Z</time>
      </trkpt>
      <trkpt lon="78.520679713405443" lat="17.642572529422765">
        <ele>495.252</ele>
        <time>2024-09-25T11:13:11Z</time>
      </trkpt>
      <trkpt lon="78.520680381401206" lat="17.642574902059867">
        <ele>495.227</ele>
        <time>2024-09-25T11:13:11Z</time>
      </trkpt>
      <trkpt lon="78.520681049014385" lat="17.642577276862387">
        <ele>495.205</ele>
        <time>2024-09-25T11:13:11Z</time>
      </trkpt>
      <trkpt lon="78.520681716491524" lat="17.642579654345958">
        <ele>495.186</ele>
        <time>2024-09-25T11:13:11Z</time>
      </trkpt>
      <trkpt lon="78.520682384023175" lat="17.642582034806171">
        <ele>495.169</ele>
        <time>2024-09-25T11:13:11Z</time>
      </trkpt>
      <trkpt lon="78.520683051751107" lat="17.64258441836246">
        <ele>495.155</ele>
        <time>2024-09-25T11:13:11Z</time>
      </trkpt>
      <trkpt lon="78.520683719775363" lat="17.64258680499734">
        <ele>495.143</ele>
        <time>2024-09-25T11:13:11Z</time>
      </trkpt>
      <trkpt lon="78.520684388161058" lat="17.642589194590713">
        <ele>495.134</ele>
        <time>2024-09-25T11:13:11Z</time>
      </trkpt>
      <trkpt lon="78.520685056944728" lat="17.642591586949301">
        <ele>495.126</ele>
        <time>2024-09-25T11:13:11Z</time>
      </trkpt>
      <trkpt lon="78.520685726140115" lat="17.642593981831375">
        <ele>495.121</ele>
        <time>2024-09-25T11:13:11Z</time>
      </trkpt>
      <trkpt lon="78.520686395743255" lat="17.642596378967081">
        <ele>495.116</ele>
        <time>2024-09-25T11:13:11Z</time>
      </trkpt>
      <trkpt lon="78.520687224359463" lat="17.642599381757723">
        <ele>495.562</ele>
        <time>2024-09-25T11:13:12Z</time>
      </trkpt>
      <trkpt lon="78.520687998239552" lat="17.642602219375629">
        <ele>495.938</ele>
        <time>2024-09-25T11:13:12Z</time>
      </trkpt>
      <trkpt lon="78.52068872359294" lat="17.642604908568735">
        <ele>496.248</ele>
        <time>2024-09-25T11:13:12Z</time>
      </trkpt>
      <trkpt lon="78.520689406785635" lat="17.64260746711653">
        <ele>496.499</ele>
        <time>2024-09-25T11:13:12Z</time>
      </trkpt>
      <trkpt lon="78.52069005408066" lat="17.642609912958665">
        <ele>496.695</ele>
        <time>2024-09-25T11:13:12Z</time>
      </trkpt>
      <trkpt lon="78.520690671445863" lat="17.642612263532477">
        <ele>496.844</ele>
        <time>2024-09-25T11:13:12Z</time>
      </trkpt>
      <trkpt lon="78.520691264419341" lat="17.642614535291088">
        <ele>496.952</ele>
        <time>2024-09-25T11:13:12Z</time>
      </trkpt>
      <trkpt lon="78.52069183802287" lat="17.642616743374283">
        <ele>497.025</ele>
        <time>2024-09-25T11:13:12Z</time>
      </trkpt>
      <trkpt lon="78.520692396714665" lat="17.64261890140606">
        <ele>497.07</ele>
        <time>2024-09-25T11:13:12Z</time>
      </trkpt>
      <trkpt lon="78.520692944373266" lat="17.642621021394628">
        <ele>497.092</ele>
        <time>2024-09-25T11:13:12Z</time>
      </trkpt>
      <trkpt lon="78.520693484305554" lat="17.642623113713174">
        <ele>497.095</ele>
        <time>2024-09-25T11:13:12Z</time>
      </trkpt>
      <trkpt lon="78.520694019272625" lat="17.642625187142116">
        <ele>497.084</ele>
        <time>2024-09-25T11:13:12Z</time>
      </trkpt>
      <trkpt lon="78.520694551528265" lat="17.642627248956291">
        <ele>497.064</ele>
        <time>2024-09-25T11:13:12Z</time>
      </trkpt>
      <trkpt lon="78.520695082865601" lat="17.642629305042956">
        <ele>497.036</ele>
        <time>2024-09-25T11:13:12Z</time>
      </trkpt>
      <trkpt lon="78.520695614668185" lat="17.642631360038919">
        <ele>497.005</ele>
        <time>2024-09-25T11:13:12Z</time>
      </trkpt>
      <trkpt lon="78.520696147962823" lat="17.642633417477366">
        <ele>496.971</ele>
        <time>2024-09-25T11:13:12Z</time>
      </trkpt>
      <trkpt lon="78.520696683471726" lat="17.642635479936835">
        <ele>496.937</ele>
        <time>2024-09-25T11:13:12Z</time>
      </trkpt>
      <trkpt lon="78.520697221662388" lat="17.642637549186698">
        <ele>496.903</ele>
        <time>2024-09-25T11:13:12Z</time>
      </trkpt>
      <trkpt lon="78.520697762794086" lat="17.642639626324911">
        <ele>496.872</ele>
        <time>2024-09-25T11:13:12Z</time>
      </trkpt>
      <trkpt lon="78.520698306960142" lat="17.642641711905171">
        <ele>496.843</ele>
        <time>2024-09-25T11:13:12Z</time>
      </trkpt>
      <trkpt lon="78.520698854125499" lat="17.642643806051687">
        <ele>496.817</ele>
        <time>2024-09-25T11:13:12Z</time>
      </trkpt>
      <trkpt lon="78.520699404159572" lat="17.642645908560588">
        <ele>496.794</ele>
        <time>2024-09-25T11:13:12Z</time>
      </trkpt>
      <trkpt lon="78.52069995686432" lat="17.642648018987774">
        <ele>496.774</ele>
        <time>2024-09-25T11:13:12Z</time>
      </trkpt>
      <trkpt lon="78.520700511997674" lat="17.642650136723478">
        <ele>496.757</ele>
        <time>2024-09-25T11:13:12Z</time>
      </trkpt>
      <trkpt lon="78.520701069292841" lat="17.642652261054241">
        <ele>496.743</ele>
        <time>2024-09-25T11:13:12Z</time>
      </trkpt>
      <trkpt lon="78.520701628473631" lat="17.642654391213199">
        <ele>496.732</ele>
        <time>2024-09-25T11:13:12Z</time>
      </trkpt>
      <trkpt lon="78.520702189266331" lat="17.64265652641987">
        <ele>496.723</ele>
        <time>2024-09-25T11:13:12Z</time>
      </trkpt>
      <trkpt lon="78.520702751408677" lat="17.64265866591062">
        <ele>496.716</ele>
        <time>2024-09-25T11:13:12Z</time>
      </trkpt>
      <trkpt lon="78.52070331465606" lat="17.642660808961018">
        <ele>496.711</ele>
        <time>2024-09-25T11:13:12Z</time>
      </trkpt>
      <trkpt lon="78.520704008942289" lat="17.642663548284201">
        <ele>496.722</ele>
        <time>2024-09-25T11:13:13Z</time>
      </trkpt>
      <trkpt lon="78.520704654974736" lat="17.642666186262012">
        <ele>496.732</ele>
        <time>2024-09-25T11:13:13Z</time>
      </trkpt>
      <trkpt lon="78.520705258287762" lat="17.642668729588994">
        <ele>496.741</ele>
        <time>2024-09-25T11:13:13Z</time>
      </trkpt>
      <trkpt lon="78.52070582453689" lat="17.642671186598715">
        <ele>496.749</ele>
        <time>2024-09-25T11:13:13Z</time>
      </trkpt>
      <trkpt lon="78.520706359272495" lat="17.642673566570867">
        <ele>496.756</ele>
        <time>2024-09-25T11:13:13Z</time>
      </trkpt>
      <trkpt lon="78.520706867772972" lat="17.642675879176064">
        <ele>496.762</ele>
        <time>2024-09-25T11:13:13Z</time>
      </trkpt>
      <trkpt lon="78.520707354928405" lat="17.642678134043756">
        <ele>496.767</ele>
        <time>2024-09-25T11:13:13Z</time>
      </trkpt>
      <trkpt lon="78.520707825166298" lat="17.642680340437941">
        <ele>496.77</ele>
        <time>2024-09-25T11:13:13Z</time>
      </trkpt>
      <trkpt lon="78.520708282411675" lat="17.642682507025398">
        <ele>496.773</ele>
        <time>2024-09-25T11:13:13Z</time>
      </trkpt>
      <trkpt lon="78.520708730074531" lat="17.642684641721733">
        <ele>496.775</ele>
        <time>2024-09-25T11:13:13Z</time>
      </trkpt>
      <trkpt lon="78.520709171058172" lat="17.642686751601396">
        <ele>496.777</ele>
        <time>2024-09-25T11:13:13Z</time>
      </trkpt>
      <trkpt lon="78.520709607783076" lat="17.642688842859076">
        <ele>496.778</ele>
        <time>2024-09-25T11:13:13Z</time>
      </trkpt>
      <trkpt lon="78.520710042221765" lat="17.642690920811159">
        <ele>496.778</ele>
        <time>2024-09-25T11:13:13Z</time>
      </trkpt>
      <trkpt lon="78.520710475940561" lat="17.642692989927298">
        <ele>496.779</ele>
        <time>2024-09-25T11:13:13Z</time>
      </trkpt>
      <trkpt lon="78.520710910145169" lat="17.642695053883656">
        <ele>496.779</ele>
        <time>2024-09-25T11:13:13Z</time>
      </trkpt>
      <trkpt lon="78.520711345727605" lat="17.642697115630583">
        <ele>496.778</ele>
        <time>2024-09-25T11:13:13Z</time>
      </trkpt>
      <trkpt lon="78.520711783312436" lat="17.642699177468813">
        <ele>496.778</ele>
        <time>2024-09-25T11:13:13Z</time>
      </trkpt>
      <trkpt lon="78.520712223300919" lat="17.642701241129519">
        <ele>496.778</ele>
        <time>2024-09-25T11:13:13Z</time>
      </trkpt>
      <trkpt lon="78.520712665912058" lat="17.642703307854386">
        <ele>496.777</ele>
        <time>2024-09-25T11:13:13Z</time>
      </trkpt>
      <trkpt lon="78.520713111219834" lat="17.642705378473007">
        <ele>496.776</ele>
        <time>2024-09-25T11:13:13Z</time>
      </trkpt>
      <trkpt lon="78.520713559186419" lat="17.642707453475506">
        <ele>496.776</ele>
        <time>2024-09-25T11:13:13Z</time>
      </trkpt>
      <trkpt lon="78.520714009690906" lat="17.642709533079106">
        <ele>496.775</ele>
        <time>2024-09-25T11:13:13Z</time>
      </trkpt>
      <trkpt lon="78.520714462554054" lat="17.642711617287762">
        <ele>496.775</ele>
        <time>2024-09-25T11:13:13Z</time>
      </trkpt>
      <trkpt lon="78.520714917558806" lat="17.642713705944523">
        <ele>496.774</ele>
        <time>2024-09-25T11:13:13Z</time>
      </trkpt>
      <trkpt lon="78.520715374467173" lat="17.642715798776596">
        <ele>496.774</ele>
        <time>2024-09-25T11:13:13Z</time>
      </trkpt>
      <trkpt lon="78.520715833033663" lat="17.642717895433343">
        <ele>496.774</ele>
        <time>2024-09-25T11:13:13Z</time>
      </trkpt>
      <trkpt lon="78.52071629301561" lat="17.642719995517627">
        <ele>496.773</ele>
        <time>2024-09-25T11:13:13Z</time>
      </trkpt>
      <trkpt lon="78.520716754180938" lat="17.642722098611035">
        <ele>496.773</ele>
        <time>2024-09-25T11:13:13Z</time>
      </trkpt>
      <trkpt lon="78.520717216313614" lat="17.642724204293664">
        <ele>496.773</ele>
        <time>2024-09-25T11:13:13Z</time>
      </trkpt>
      <trkpt lon="78.520717838963293" lat="17.642726880446961">
        <ele>496.674</ele>
        <time>2024-09-25T11:13:14Z</time>
      </trkpt>
      <trkpt lon="78.520718466672975" lat="17.642729443922992">
        <ele>496.591</ele>
        <time>2024-09-25T11:13:14Z</time>
      </trkpt>
      <trkpt lon="78.520719096146465" lat="17.642731903690937">
        <ele>496.522</ele>
        <time>2024-09-25T11:13:14Z</time>
      </trkpt>
      <trkpt lon="78.520719724837761" lat="17.642734270113589">
        <ele>496.467</ele>
        <time>2024-09-25T11:13:14Z</time>
      </trkpt>
      <trkpt lon="78.520720350854845" lat="17.642736554244376">
        <ele>496.424</ele>
        <time>2024-09-25T11:13:14Z</time>
      </trkpt>
      <trkpt lon="78.520720972864325" lat="17.642738767273453">
        <ele>496.391</ele>
        <time>2024-09-25T11:13:14Z</time>
      </trkpt>
      <trkpt lon="78.520721590000278" lat="17.642740920105432">
        <ele>496.368</ele>
        <time>2024-09-25T11:13:14Z</time>
      </trkpt>
      <trkpt lon="78.520722201779208" lat="17.642743023050961">
        <ele>496.352</ele>
        <time>2024-09-25T11:13:14Z</time>
      </trkpt>
      <trkpt lon="78.520722808022654" lat="17.64274508561488">
        <ele>496.342</ele>
        <time>2024-09-25T11:13:14Z</time>
      </trkpt>
      <trkpt lon="78.520723408788399" lat="17.642747116364497">
        <ele>496.338</ele>
        <time>2024-09-25T11:13:14Z</time>
      </trkpt>
      <trkpt lon="78.520724004310182" lat="17.64274912286286">
        <ele>496.337</ele>
        <time>2024-09-25T11:13:14Z</time>
      </trkpt>
      <trkpt lon="78.52072459494633" lat="17.642751111653332">
        <ele>496.34</ele>
        <time>2024-09-25T11:13:14Z</time>
      </trkpt>
      <trkpt lon="78.520725181136626" lat="17.642753088283389">
        <ele>496.345</ele>
        <time>2024-09-25T11:13:14Z</time>
      </trkpt>
      <trkpt lon="78.520725763366997" lat="17.642755057357117">
        <ele>496.351</ele>
        <time>2024-09-25T11:13:14Z</time>
      </trkpt>
      <trkpt lon="78.520726342141273" lat="17.642757022607576">
        <ele>496.358</ele>
        <time>2024-09-25T11:13:14Z</time>
      </trkpt>
      <trkpt lon="78.520726917959252" lat="17.642758986981573">
        <ele>496.366</ele>
        <time>2024-09-25T11:13:14Z</time>
      </trkpt>
      <trkpt lon="78.520727491300377" lat="17.64276095273091">
        <ele>496.374</ele>
        <time>2024-09-25T11:13:14Z</time>
      </trkpt>
      <trkpt lon="78.520728062612065" lat="17.642762921505255">
        <ele>496.381</ele>
        <time>2024-09-25T11:13:14Z</time>
      </trkpt>
      <trkpt lon="78.520728632302081" lat="17.642764894443104">
        <ele>496.388</ele>
        <time>2024-09-25T11:13:14Z</time>
      </trkpt>
      <trkpt lon="78.520729200734095" lat="17.642766872258072">
        <ele>496.395</ele>
        <time>2024-09-25T11:13:14Z</time>
      </trkpt>
      <trkpt lon="78.520729768225962" lat="17.642768855318725">
        <ele>496.4</ele>
        <time>2024-09-25T11:13:14Z</time>
      </trkpt>
      <trkpt lon="78.520730335049947" lat="17.642770843720712">
        <ele>496.405</ele>
        <time>2024-09-25T11:13:14Z</time>
      </trkpt>
      <trkpt lon="78.520730901434447" lat="17.642772837350631">
        <ele>496.41</ele>
        <time>2024-09-25T11:13:14Z</time>
      </trkpt>
      <trkpt lon="78.520731467566932" lat="17.642774835941445">
        <ele>496.414</ele>
        <time>2024-09-25T11:13:14Z</time>
      </trkpt>
      <trkpt lon="78.520732033597454" lat="17.642776839119566">
        <ele>496.417</ele>
        <time>2024-09-25T11:13:14Z</time>
      </trkpt>
      <trkpt lon="78.520732599642656" lat="17.642778846444063">
        <ele>496.419</ele>
        <time>2024-09-25T11:13:14Z</time>
      </trkpt>
      <trkpt lon="78.520733165789977" lat="17.642780857438556">
        <ele>496.421</ele>
        <time>2024-09-25T11:13:14Z</time>
      </trkpt>
      <trkpt lon="78.52073373210176" lat="17.642782871616493">
        <ele>496.423</ele>
        <time>2024-09-25T11:13:14Z</time>
      </trkpt>
      <trkpt lon="78.520734298619288" lat="17.642784888500536">
        <ele>496.424</ele>
        <time>2024-09-25T11:13:14Z</time>
      </trkpt>
      <trkpt lon="78.520735024176304" lat="17.642787542314007">
        <ele>496.358</ele>
        <time>2024-09-25T11:13:15Z</time>
      </trkpt>
      <trkpt lon="78.520735724058454" lat="17.642790164523792">
        <ele>496.302</ele>
        <time>2024-09-25T11:13:15Z</time>
      </trkpt>
      <trkpt lon="78.520736399913773" lat="17.642792750307883">
        <ele>496.256</ele>
        <time>2024-09-25T11:13:15Z</time>
      </trkpt>
      <trkpt lon="78.520737053818934" lat="17.642795297296402">
        <ele>496.219</ele>
        <time>2024-09-25T11:13:15Z</time>
      </trkpt>
      <trkpt lon="78.520737688101747" lat="17.642797805050233">
        <ele>496.19</ele>
        <time>2024-09-25T11:13:15Z</time>
      </trkpt>
      <trkpt lon="78.52073830519835" lat="17.642800274600948">
        <ele>496.168</ele>
        <time>2024-09-25T11:13:15Z</time>
      </trkpt>
      <trkpt lon="78.520738907542054" lat="17.642802708052912">
        <ele>496.152</ele>
        <time>2024-09-25T11:13:15Z</time>
      </trkpt>
      <trkpt lon="78.520739497479454" lat="17.642805108246105">
        <ele>496.141</ele>
        <time>2024-09-25T11:13:15Z</time>
      </trkpt>
      <trkpt lon="78.520740077210306" lat="17.642807478476392">
        <ele>496.134</ele>
        <time>2024-09-25T11:13:15Z</time>
      </trkpt>
      <trkpt lon="78.520740648747307" lat="17.642809822268834">
        <ele>496.131</ele>
        <time>2024-09-25T11:13:15Z</time>
      </trkpt>
      <trkpt lon="78.52074121389218" lat="17.642812143198832">
        <ele>496.13</ele>
        <time>2024-09-25T11:13:15Z</time>
      </trkpt>
      <trkpt lon="78.520741774225144" lat="17.642814444755576">
        <ele>496.131</ele>
        <time>2024-09-25T11:13:15Z</time>
      </trkpt>
      <trkpt lon="78.520742331104458" lat="17.642816730242078">
        <ele>496.134</ele>
        <time>2024-09-25T11:13:15Z</time>
      </trkpt>
      <trkpt lon="78.520742885673954" lat="17.642819002706307">
        <ele>496.138</ele>
        <time>2024-09-25T11:13:15Z</time>
      </trkpt>
      <trkpt lon="78.520743438876096" lat="17.642821264898124">
        <ele>496.143</ele>
        <time>2024-09-25T11:13:15Z</time>
      </trkpt>
      <trkpt lon="78.520743991468805" lat="17.642823519247163">
        <ele>496.148</ele>
        <time>2024-09-25T11:13:15Z</time>
      </trkpt>
      <trkpt lon="78.520744544044604" lat="17.642825767857296">
        <ele>496.153</ele>
        <time>2024-09-25T11:13:15Z</time>
      </trkpt>
      <trkpt lon="78.520745097050678" lat="17.642828012513753">
        <ele>496.158</ele>
        <time>2024-09-25T11:13:15Z</time>
      </trkpt>
      <trkpt lon="78.520745650809246" lat="17.642830254699586">
        <ele>496.162</ele>
        <time>2024-09-25T11:13:15Z</time>
      </trkpt>
      <trkpt lon="78.520746205537023" lat="17.642832495618539">
        <ele>496.167</ele>
        <time>2024-09-25T11:13:15Z</time>
      </trkpt>
      <trkpt lon="78.520746761363725" lat="17.642834736222007">
        <ele>496.17</ele>
        <time>2024-09-25T11:13:15Z</time>
      </trkpt>
      <trkpt lon="78.520747318348967" lat="17.642836977238133">
        <ele>496.174</ele>
        <time>2024-09-25T11:13:15Z</time>
      </trkpt>
      <trkpt lon="78.520747876497467" lat="17.642839219201463">
        <ele>496.177</ele>
        <time>2024-09-25T11:13:15Z</time>
      </trkpt>
      <trkpt lon="78.520748435772362" lat="17.642841462482053">
        <ele>496.179</ele>
        <time>2024-09-25T11:13:15Z</time>
      </trkpt>
      <trkpt lon="78.520748996106747" lat="17.642843707313112">
        <ele>496.181</ele>
        <time>2024-09-25T11:13:15Z</time>
      </trkpt>
      <trkpt lon="78.52074955741341" lat="17.642845953816586">
        <ele>496.183</ele>
        <time>2024-09-25T11:13:15Z</time>
      </trkpt>
      <trkpt lon="78.520750119592833" lat="17.642848202026325">
        <ele>496.184</ele>
        <time>2024-09-25T11:13:15Z</time>
      </trkpt>
      <trkpt lon="78.520750682539699" lat="17.642850451908583">
        <ele>496.185</ele>
        <time>2024-09-25T11:13:15Z</time>
      </trkpt>
      <trkpt lon="78.520751246147938" lat="17.642852703379837">
        <ele>496.186</ele>
        <time>2024-09-25T11:13:15Z</time>
      </trkpt>
      <trkpt lon="78.52075184383699" lat="17.642855329187729">
        <ele>496.568</ele>
        <time>2024-09-25T11:13:16Z</time>
      </trkpt>
      <trkpt lon="78.520752311427586" lat="17.642857635868971">
        <ele>496.89</ele>
        <time>2024-09-25T11:13:16Z</time>
      </trkpt>
      <trkpt lon="78.520752668853305" lat="17.642859667975785">
        <ele>497.155</ele>
        <time>2024-09-25T11:13:16Z</time>
      </trkpt>
      <trkpt lon="78.520752934966325" lat="17.642861468628023">
        <ele>497.368</ele>
        <time>2024-09-25T11:13:16Z</time>
      </trkpt>
      <trkpt lon="78.520753127148893" lat="17.642863078368297">
        <ele>497.535</ele>
        <time>2024-09-25T11:13:16Z</time>
      </trkpt>
      <trkpt lon="78.520753261071548" lat="17.64286453438844">
        <ele>497.661</ele>
        <time>2024-09-25T11:13:16Z</time>
      </trkpt>
      <trkpt lon="78.520753350570303" lat="17.642865870062792">
        <ele>497.752</ele>
        <time>2024-09-25T11:13:16Z</time>
      </trkpt>
      <trkpt lon="78.520753407617761" lat="17.642867114728933">
        <ele>497.813</ele>
        <time>2024-09-25T11:13:16Z</time>
      </trkpt>
      <trkpt lon="78.520753442366043" lat="17.64286829366262">
        <ele>497.85</ele>
        <time>2024-09-25T11:13:16Z</time>
      </trkpt>
      <trkpt lon="78.520753463242414" lat="17.642869428199933">
        <ele>497.867</ele>
        <time>2024-09-25T11:13:16Z</time>
      </trkpt>
      <trkpt lon="78.520753477081243" lat="17.642870535966185">
        <ele>497.868</ele>
        <time>2024-09-25T11:13:16Z</time>
      </trkpt>
      <trkpt lon="78.520753489278789" lat="17.64287163117735">
        <ele>497.858</ele>
        <time>2024-09-25T11:13:16Z</time>
      </trkpt>
      <trkpt lon="78.520753503959824" lat="17.642872724985661">
        <ele>497.839</ele>
        <time>2024-09-25T11:13:16Z</time>
      </trkpt>
      <trkpt lon="78.520753524147423" lat="17.642873825846578">
        <ele>497.815</ele>
        <time>2024-09-25T11:13:16Z</time>
      </trkpt>
      <trkpt lon="78.520753551929189" lat="17.642874939889026">
        <ele>497.787</ele>
        <time>2024-09-25T11:13:16Z</time>
      </trkpt>
      <trkpt lon="78.520753588615065" lat="17.642876071275303">
        <ele>497.758</ele>
        <time>2024-09-25T11:13:16Z</time>
      </trkpt>
      <trkpt lon="78.520753634883235" lat="17.642877222540672">
        <ele>497.728</ele>
        <time>2024-09-25T11:13:16Z</time>
      </trkpt>
      <trkpt lon="78.520753690912187" lat="17.642878394905882">
        <ele>497.699</ele>
        <time>2024-09-25T11:13:16Z</time>
      </trkpt>
      <trkpt lon="78.520753756497484" lat="17.642879588558372">
        <ele>497.672</ele>
        <time>2024-09-25T11:13:16Z</time>
      </trkpt>
      <trkpt lon="78.520753831153101" lat="17.642880802900148">
        <ele>497.647</ele>
        <time>2024-09-25T11:13:16Z</time>
      </trkpt>
      <trkpt lon="78.520753914197684" lat="17.642882036761915">
        <ele>497.624</ele>
        <time>2024-09-25T11:13:16Z</time>
      </trkpt>
      <trkpt lon="78.520754004826273" lat="17.642883288584336">
        <ele>497.605</ele>
        <time>2024-09-25T11:13:16Z</time>
      </trkpt>
      <trkpt lon="78.520754102168681" lat="17.642884556568195">
        <ele>497.587</ele>
        <time>2024-09-25T11:13:16Z</time>
      </trkpt>
      <trkpt lon="78.520754205335805" lat="17.642885838795948">
        <ele>497.573</ele>
        <time>2024-09-25T11:13:16Z</time>
      </trkpt>
      <trkpt lon="78.520754313455114" lat="17.642887133327442">
        <ele>497.561</ele>
        <time>2024-09-25T11:13:16Z</time>
      </trkpt>
      <trkpt lon="78.520754425696936" lat="17.642888438272863">
        <ele>497.551</ele>
        <time>2024-09-25T11:13:16Z</time>
      </trkpt>
      <trkpt lon="78.520754541292632" lat="17.642889751845974">
        <ele>497.544</ele>
        <time>2024-09-25T11:13:16Z</time>
      </trkpt>
      <trkpt lon="78.520754659546341" lat="17.642891072400651">
        <ele>497.538</ele>
        <time>2024-09-25T11:13:16Z</time>
      </trkpt>
      <trkpt lon="78.520754779841198" lat="17.642892398453561">
        <ele>497.534</ele>
        <time>2024-09-25T11:13:16Z</time>
      </trkpt>
      <trkpt lon="78.520754999492823" lat="17.642894216642251">
        <ele>496.825</ele>
        <time>2024-09-25T11:13:17Z</time>
      </trkpt>
      <trkpt lon="78.520755269132124" lat="17.642896076222154">
        <ele>496.228</ele>
        <time>2024-09-25T11:13:17Z</time>
      </trkpt>
      <trkpt lon="78.52075557918586" lat="17.642897962746318">
        <ele>495.736</ele>
        <time>2024-09-25T11:13:17Z</time>
      </trkpt>
      <trkpt lon="78.520755921034052" lat="17.64289986438866">
        <ele>495.341</ele>
        <time>2024-09-25T11:13:17Z</time>
      </trkpt>
      <trkpt lon="78.520756287074619" lat="17.64290177170945">
        <ele>495.033</ele>
        <time>2024-09-25T11:13:17Z</time>
      </trkpt>
      <trkpt lon="78.520756670736816" lat="17.642903677395665">
        <ele>494.8</ele>
        <time>2024-09-25T11:13:17Z</time>
      </trkpt>
      <trkpt lon="78.520757066455531" lat="17.64290557599141">
        <ele>494.632</ele>
        <time>2024-09-25T11:13:17Z</time>
      </trkpt>
      <trkpt lon="78.52075746961701" lat="17.642907463630188">
        <ele>494.52</ele>
        <time>2024-09-25T11:13:17Z</time>
      </trkpt>
      <trkpt lon="78.520757876484822" lat="17.64290933777789">
        <ele>494.453</ele>
        <time>2024-09-25T11:13:17Z</time>
      </trkpt>
      <trkpt lon="78.520758284113668" lat="17.642911196992809">
        <ele>494.422</ele>
        <time>2024-09-25T11:13:17Z</time>
      </trkpt>
      <trkpt lon="78.52075869025694" lat="17.642913040706759">
        <ele>494.42</ele>
        <time>2024-09-25T11:13:17Z</time>
      </trkpt>
      <trkpt lon="78.520759093272659" lat="17.642914869029763">
        <ele>494.44</ele>
        <time>2024-09-25T11:13:17Z</time>
      </trkpt>
      <trkpt lon="78.520759492031729" lat="17.642916682579273">
        <ele>494.475</ele>
        <time>2024-09-25T11:13:17Z</time>
      </trkpt>
      <trkpt lon="78.520759885830827" lat="17.642918482333805">
        <ele>494.521</ele>
        <time>2024-09-25T11:13:17Z</time>
      </trkpt>
      <trkpt lon="78.520760274312039" lat="17.642920269510068">
        <ele>494.573</ele>
        <time>2024-09-25T11:13:17Z</time>
      </trkpt>
      <trkpt lon="78.520760657390255" lat="17.642922045462058">
        <ele>494.628</ele>
        <time>2024-09-25T11:13:17Z</time>
      </trkpt>
      <trkpt lon="78.52076103518894" lat="17.642923811600252">
        <ele>494.684</ele>
        <time>2024-09-25T11:13:17Z</time>
      </trkpt>
      <trkpt lon="78.520761407984551" lat="17.642925569328714">
        <ele>494.737</ele>
        <time>2024-09-25T11:13:17Z</time>
      </trkpt>
      <trkpt lon="78.520761776159205" lat="17.642927319997913">
        <ele>494.788</ele>
        <time>2024-09-25T11:13:17Z</time>
      </trkpt>
      <trkpt lon="78.520762140161438" lat="17.642929064871009">
        <ele>494.835</ele>
        <time>2024-09-25T11:13:17Z</time>
      </trkpt>
      <trkpt lon="78.520762500474277" lat="17.642930805101489">
        <ele>494.877</ele>
        <time>2024-09-25T11:13:17Z</time>
      </trkpt>
      <trkpt lon="78.520762857589943" lat="17.642932541720096">
        <ele>494.913</ele>
        <time>2024-09-25T11:13:17Z</time>
      </trkpt>
      <trkpt lon="78.520763211990527" lat="17.642934275629269">
        <ele>494.945</ele>
        <time>2024-09-25T11:13:17Z</time>
      </trkpt>
      <trkpt lon="78.520763564133745" lat="17.642936007603367">
        <ele>494.972</ele>
        <time>2024-09-25T11:13:17Z</time>
      </trkpt>
      <trkpt lon="78.520763914443009" lat="17.642937738293316">
        <ele>494.994</ele>
        <time>2024-09-25T11:13:17Z</time>
      </trkpt>
      <trkpt lon="78.520764263301174" lat="17.642939468234403">
        <ele>495.012</ele>
        <time>2024-09-25T11:13:17Z</time>
      </trkpt>
      <trkpt lon="78.520764611047269" lat="17.642941197856132">
        <ele>495.026</ele>
        <time>2024-09-25T11:13:17Z</time>
      </trkpt>
      <trkpt lon="78.520764957975459" lat="17.642942927493362">
        <ele>495.037</ele>
        <time>2024-09-25T11:13:17Z</time>
      </trkpt>
      <trkpt lon="78.520765304335896" lat="17.64294465739798">
        <ele>495.045</ele>
        <time>2024-09-25T11:13:17Z</time>
      </trkpt>
      <trkpt lon="78.520765772908774" lat="17.642946966525919">
        <ele>494.75</ele>
        <time>2024-09-25T11:13:18Z</time>
      </trkpt>
      <trkpt lon="78.520766246733402" lat="17.642949276018673">
        <ele>494.501</ele>
        <time>2024-09-25T11:13:18Z</time>
      </trkpt>
      <trkpt lon="78.520766723214834" lat="17.642951577133363">
        <ele>494.294</ele>
        <time>2024-09-25T11:13:18Z</time>
      </trkpt>
      <trkpt lon="78.520767200304704" lat="17.64295386357044">
        <ele>494.127</ele>
        <time>2024-09-25T11:13:18Z</time>
      </trkpt>
      <trkpt lon="78.520767676437799" lat="17.642956131090948">
        <ele>493.995</ele>
        <time>2024-09-25T11:13:18Z</time>
      </trkpt>
      <trkpt lon="78.520768150467447" lat="17.642958377156436">
        <ele>493.894</ele>
        <time>2024-09-25T11:13:18Z</time>
      </trkpt>
      <trkpt lon="78.520768621602343" lat="17.642960600598503">
        <ele>493.821</ele>
        <time>2024-09-25T11:13:18Z</time>
      </trkpt>
      <trkpt lon="78.520769089346487" lat="17.642962801322074">
        <ele>493.77</ele>
        <time>2024-09-25T11:13:18Z</time>
      </trkpt>
      <trkpt lon="78.52076955344377" lat="17.642964980044479">
        <ele>493.739</ele>
        <time>2024-09-25T11:13:18Z</time>
      </trkpt>
      <trkpt lon="78.520770013827772" lat="17.642967138070521">
        <ele>493.723</ele>
        <time>2024-09-25T11:13:18Z</time>
      </trkpt>
      <trkpt lon="78.520770470577403" lat="17.642969277102548">
        <ele>493.719</ele>
        <time>2024-09-25T11:13:18Z</time>
      </trkpt>
      <trkpt lon="78.520770923878331" lat="17.642971399083468">
        <ele>493.725</ele>
        <time>2024-09-25T11:13:18Z</time>
      </trkpt>
      <trkpt lon="78.520771373990328" lat="17.642973506070032">
        <ele>493.737</ele>
        <time>2024-09-25T11:13:18Z</time>
      </trkpt>
      <trkpt lon="78.52077182121991" lat="17.642975600133401">
        <ele>493.755</ele>
        <time>2024-09-25T11:13:18Z</time>
      </trkpt>
      <trkpt lon="78.520772265898287" lat="17.64297768328365">
        <ele>493.775</ele>
        <time>2024-09-25T11:13:18Z</time>
      </trkpt>
      <trkpt lon="78.520772708363708" lat="17.642979757415013">
        <ele>493.796</ele>
        <time>2024-09-25T11:13:18Z</time>
      </trkpt>
      <trkpt lon="78.520773148948024" lat="17.642981824268606">
        <ele>493.818</ele>
        <time>2024-09-25T11:13:18Z</time>
      </trkpt>
      <trkpt lon="78.520773587966673" lat="17.642983885409659">
        <ele>493.84</ele>
        <time>2024-09-25T11:13:18Z</time>
      </trkpt>
      <trkpt lon="78.520774025711859" lat="17.642985942216459">
        <ele>493.861</ele>
        <time>2024-09-25T11:13:18Z</time>
      </trkpt>
      <trkpt lon="78.520774462448045" lat="17.642987995878503">
        <ele>493.88</ele>
        <time>2024-09-25T11:13:18Z</time>
      </trkpt>
      <trkpt lon="78.520774898409641" lat="17.642990047401675">
        <ele>493.897</ele>
        <time>2024-09-25T11:13:18Z</time>
      </trkpt>
      <trkpt lon="78.520775333800245" lat="17.642992097618496">
        <ele>493.912</ele>
        <time>2024-09-25T11:13:18Z</time>
      </trkpt>
      <trkpt lon="78.520775768793186" lat="17.642994147201904">
        <ele>493.925</ele>
        <time>2024-09-25T11:13:18Z</time>
      </trkpt>
      <trkpt lon="78.52077620353289" lat="17.642996196681171">
        <ele>493.936</ele>
        <time>2024-09-25T11:13:18Z</time>
      </trkpt>
      <trkpt lon="78.520776638137065" lat="17.642998246458884">
        <ele>493.946</ele>
        <time>2024-09-25T11:13:18Z</time>
      </trkpt>
      <trkpt lon="78.520777072699104" lat="17.643000296828159">
        <ele>493.953</ele>
        <time>2024-09-25T11:13:18Z</time>
      </trkpt>
      <trkpt lon="78.520777507290916" lat="17.643002347989405">
        <ele>493.959</ele>
        <time>2024-09-25T11:13:18Z</time>
      </trkpt>
      <trkpt lon="78.520777941965648" lat="17.643004400066193">
        <ele>493.964</ele>
        <time>2024-09-25T11:13:18Z</time>
      </trkpt>
      <trkpt lon="78.520778376760489" lat="17.643006453119867">
        <ele>493.967</ele>
        <time>2024-09-25T11:13:18Z</time>
      </trkpt>
      <trkpt lon="78.520778957025186" lat="17.643009039025547">
        <ele>494.371</ele>
        <time>2024-09-25T11:13:19Z</time>
      </trkpt>
      <trkpt lon="78.520779537343316" lat="17.64301149532902">
        <ele>494.71</ele>
        <time>2024-09-25T11:13:19Z</time>
      </trkpt>
      <trkpt lon="78.520780115514313" lat="17.643013834384938">
        <ele>494.99</ele>
        <time>2024-09-25T11:13:19Z</time>
      </trkpt>
      <trkpt lon="78.520780689953938" lat="17.643016069578305">
        <ele>495.214</ele>
        <time>2024-09-25T11:13:19Z</time>
      </trkpt>
      <trkpt lon="78.520781259597555" lat="17.643018214606002">
        <ele>495.39</ele>
        <time>2024-09-25T11:13:19Z</time>
      </trkpt>
      <trkpt lon="78.520781823809187" lat="17.643020282924319">
        <ele>495.522</ele>
        <time>2024-09-25T11:13:19Z</time>
      </trkpt>
      <trkpt lon="78.520782382298066" lat="17.643022287340848">
        <ele>495.617</ele>
        <time>2024-09-25T11:13:19Z</time>
      </trkpt>
      <trkpt lon="78.520782935043741" lat="17.643024239729407">
        <ele>495.681</ele>
        <time>2024-09-25T11:13:19Z</time>
      </trkpt>
      <trkpt lon="78.520783482230271" lat="17.64302615084754">
        <ele>495.719</ele>
        <time>2024-09-25T11:13:19Z</time>
      </trkpt>
      <trkpt lon="78.520784024189467" lat="17.643028030237733">
        <ele>495.736</ele>
        <time>2024-09-25T11:13:19Z</time>
      </trkpt>
      <trkpt lon="78.520784561352983" lat="17.643029886195144">
        <ele>495.737</ele>
        <time>2024-09-25T11:13:19Z</time>
      </trkpt>
      <trkpt lon="78.520785094212741" lat="17.643031725786589">
        <ele>495.725</ele>
        <time>2024-09-25T11:13:19Z</time>
      </trkpt>
      <trkpt lon="78.520785623289058" lat="17.643033554907515">
        <ele>495.705</ele>
        <time>2024-09-25T11:13:19Z</time>
      </trkpt>
      <trkpt lon="78.520786149105518" lat="17.643035378365635">
        <ele>495.679</ele>
        <time>2024-09-25T11:13:19Z</time>
      </trkpt>
      <trkpt lon="78.520786672170061" lat="17.643037199981745">
        <ele>495.649</ele>
        <time>2024-09-25T11:13:19Z</time>
      </trkpt>
      <trkpt lon="78.520787192961109" lat="17.643039022699988">
        <ele>495.618</ele>
        <time>2024-09-25T11:13:19Z</time>
      </trkpt>
      <trkpt lon="78.520787711918288" lat="17.643040848701425">
        <ele>495.586</ele>
        <time>2024-09-25T11:13:19Z</time>
      </trkpt>
      <trkpt lon="78.520788229436661" lat="17.643042679516157">
        <ele>495.555</ele>
        <time>2024-09-25T11:13:19Z</time>
      </trkpt>
      <trkpt lon="78.520788745864024" lat="17.643044516130438">
        <ele>495.526</ele>
        <time>2024-09-25T11:13:19Z</time>
      </trkpt>
      <trkpt lon="78.520789261500425" lat="17.643046359086302">
        <ele>495.5</ele>
        <time>2024-09-25T11:13:19Z</time>
      </trkpt>
      <trkpt lon="78.520789776599514" lat="17.643048208572115">
        <ele>495.476</ele>
        <time>2024-09-25T11:13:19Z</time>
      </trkpt>
      <trkpt lon="78.520790291371171" lat="17.643050064503083">
        <ele>495.455</ele>
        <time>2024-09-25T11:13:19Z</time>
      </trkpt>
      <trkpt lon="78.520790805984973" lat="17.643051926591458">
        <ele>495.437</ele>
        <time>2024-09-25T11:13:19Z</time>
      </trkpt>
      <trkpt lon="78.520791320574219" lat="17.643053794406487">
        <ele>495.422</ele>
        <time>2024-09-25T11:13:19Z</time>
      </trkpt>
      <trkpt lon="78.52079183524026" lat="17.643055667424587">
        <ele>495.409</ele>
        <time>2024-09-25T11:13:19Z</time>
      </trkpt>
      <trkpt lon="78.520792350056809" lat="17.643057545070366">
        <ele>495.399</ele>
        <time>2024-09-25T11:13:19Z</time>
      </trkpt>
      <trkpt lon="78.520792865074228" lat="17.643059426749382">
        <ele>495.391</ele>
        <time>2024-09-25T11:13:19Z</time>
      </trkpt>
      <trkpt lon="78.520793380323511" lat="17.643061311873453">
        <ele>495.385</ele>
        <time>2024-09-25T11:13:19Z</time>
      </trkpt>
      <trkpt lon="78.520793895819935" lat="17.64306319987956">
        <ele>495.38</ele>
        <time>2024-09-25T11:13:19Z</time>
      </trkpt>
      <trkpt lon="78.520794459040843" lat="17.64306552200717">
        <ele>495.338</ele>
        <time>2024-09-25T11:13:20Z</time>
      </trkpt>
      <trkpt lon="78.520794917186862" lat="17.643067678006435">
        <ele>495.303</ele>
        <time>2024-09-25T11:13:20Z</time>
      </trkpt>
      <trkpt lon="78.520795286084052" lat="17.643069687278327">
        <ele>495.275</ele>
        <time>2024-09-25T11:13:20Z</time>
      </trkpt>
      <trkpt lon="78.52079558076187" lat="17.643071569543302">
        <ele>495.253</ele>
        <time>2024-09-25T11:13:20Z</time>
      </trkpt>
      <trkpt lon="78.520795815127272" lat="17.64307334407777">
        <ele>495.236</ele>
        <time>2024-09-25T11:13:20Z</time>
      </trkpt>
      <trkpt lon="78.520796001758185" lat="17.643075029153962">
        <ele>495.224</ele>
        <time>2024-09-25T11:13:20Z</time>
      </trkpt>
      <trkpt lon="78.520796151793775" lat="17.64307664165257">
        <ele>495.216</ele>
        <time>2024-09-25T11:13:20Z</time>
      </trkpt>
      <trkpt lon="78.520796274901841" lat="17.643078196819076">
        <ele>495.211</ele>
        <time>2024-09-25T11:13:20Z</time>
      </trkpt>
      <trkpt lon="78.520796379305324" lat="17.643079708136845">
        <ele>495.208</ele>
        <time>2024-09-25T11:13:20Z</time>
      </trkpt>
      <trkpt lon="78.520796471852378" lat="17.643081187292672">
        <ele>495.208</ele>
        <time>2024-09-25T11:13:20Z</time>
      </trkpt>
      <trkpt lon="78.520796558116999" lat="17.643082644213198">
        <ele>495.209</ele>
        <time>2024-09-25T11:13:20Z</time>
      </trkpt>
      <trkpt lon="78.520796642519144" lat="17.643084087153486">
        <ele>495.211</ele>
        <time>2024-09-25T11:13:20Z</time>
      </trkpt>
      <trkpt lon="78.520796728455338" lat="17.643085522821856">
        <ele>495.214</ele>
        <time>2024-09-25T11:13:20Z</time>
      </trkpt>
      <trkpt lon="78.520796818432629" lat="17.643086956527693">
        <ele>495.218</ele>
        <time>2024-09-25T11:13:20Z</time>
      </trkpt>
      <trkpt lon="78.520796914200545" lat="17.64308839234144">
        <ele>495.222</ele>
        <time>2024-09-25T11:13:20Z</time>
      </trkpt>
      <trkpt lon="78.520797016876813" lat="17.643089833258269">
        <ele>495.225</ele>
        <time>2024-09-25T11:13:20Z</time>
      </trkpt>
      <trkpt lon="78.520797127064057" lat="17.643091281358753">
        <ele>495.229</ele>
        <time>2024-09-25T11:13:20Z</time>
      </trkpt>
      <trkpt lon="78.520797244955702" lat="17.64309273796178">
        <ele>495.233</ele>
        <time>2024-09-25T11:13:20Z</time>
      </trkpt>
      <trkpt lon="78.520797370429989" lat="17.643094203766267">
        <ele>495.236</ele>
        <time>2024-09-25T11:13:20Z</time>
      </trkpt>
      <trkpt lon="78.520797503131789" lat="17.643095678979506">
        <ele>495.239</ele>
        <time>2024-09-25T11:13:20Z</time>
      </trkpt>
      <trkpt lon="78.520797642542419" lat="17.643097163431005">
        <ele>495.241</ele>
        <time>2024-09-25T11:13:20Z</time>
      </trkpt>
      <trkpt lon="78.520797788037854" lat="17.643098656671405">
        <ele>495.244</ele>
        <time>2024-09-25T11:13:20Z</time>
      </trkpt>
      <trkpt lon="78.520797938936425" lat="17.64310015805674">
        <ele>495.246</ele>
        <time>2024-09-25T11:13:20Z</time>
      </trkpt>
      <trkpt lon="78.520798094536588" lat="17.643101666818723">
        <ele>495.247</ele>
        <time>2024-09-25T11:13:20Z</time>
      </trkpt>
      <trkpt lon="78.520798254146257" lat="17.643103182122012">
        <ele>495.248</ele>
        <time>2024-09-25T11:13:20Z</time>
      </trkpt>
      <trkpt lon="78.520798417104473" lat="17.643104703109746">
        <ele>495.249</ele>
        <time>2024-09-25T11:13:20Z</time>
      </trkpt>
      <trkpt lon="78.520798582796701" lat="17.643106228938596">
        <ele>495.25</ele>
        <time>2024-09-25T11:13:20Z</time>
      </trkpt>
      <trkpt lon="78.520798750664738" lat="17.643107758804714">
        <ele>495.251</ele>
        <time>2024-09-25T11:13:20Z</time>
      </trkpt>
      <trkpt lon="78.520798920212243" lat="17.643109291961942">
        <ele>495.251</ele>
        <time>2024-09-25T11:13:20Z</time>
      </trkpt>
      <trkpt lon="78.520799221818777" lat="17.64311133422046">
        <ele>495.144</ele>
        <time>2024-09-25T11:13:21Z</time>
      </trkpt>
      <trkpt lon="78.520799587065952" lat="17.643113373552787">
        <ele>495.053</ele>
        <time>2024-09-25T11:13:21Z</time>
      </trkpt>
      <trkpt lon="78.5208000037739" lat="17.643115402471707">
        <ele>494.978</ele>
        <time>2024-09-25T11:13:21Z</time>
      </trkpt>
      <trkpt lon="78.520800460974058" lat="17.643117415694899">
        <ele>494.917</ele>
        <time>2024-09-25T11:13:21Z</time>
      </trkpt>
      <trkpt lon="78.520800948991933" lat="17.643119409785566">
        <ele>494.87</ele>
        <time>2024-09-25T11:13:21Z</time>
      </trkpt>
      <trkpt lon="78.520801459464423" lat="17.643121382817437">
        <ele>494.834</ele>
        <time>2024-09-25T11:13:21Z</time>
      </trkpt>
      <trkpt lon="78.5208019853075" lat="17.643123334069823">
        <ele>494.808</ele>
        <time>2024-09-25T11:13:21Z</time>
      </trkpt>
      <trkpt lon="78.520802520647294" lat="17.643125263755838">
        <ele>494.791</ele>
        <time>2024-09-25T11:13:21Z</time>
      </trkpt>
      <trkpt lon="78.52080306072618" lat="17.6431271727851">
        <ele>494.78</ele>
        <time>2024-09-25T11:13:21Z</time>
      </trkpt>
      <trkpt lon="78.520803601793205" lat="17.643129062560689">
        <ele>494.775</ele>
        <time>2024-09-25T11:13:21Z</time>
      </trkpt>
      <trkpt lon="78.520804140986527" lat="17.64313093480893">
        <ele>494.774</ele>
        <time>2024-09-25T11:13:21Z</time>
      </trkpt>
      <trkpt lon="78.520804676213913" lat="17.643132791439857">
        <ele>494.777</ele>
        <time>2024-09-25T11:13:21Z</time>
      </trkpt>
      <trkpt lon="78.520805206035917" lat="17.643134634435661">
        <ele>494.782</ele>
        <time>2024-09-25T11:13:21Z</time>
      </trkpt>
      <trkpt lon="78.520805729555235" lat="17.643136465764083">
        <ele>494.789</ele>
        <time>2024-09-25T11:13:21Z</time>
      </trkpt>
      <trkpt lon="78.520806246314322" lat="17.643138287313629">
        <ele>494.797</ele>
        <time>2024-09-25T11:13:21Z</time>
      </trkpt>
      <trkpt lon="78.520806756203044" lat="17.6431401008475">
        <ele>494.805</ele>
        <time>2024-09-25T11:13:21Z</time>
      </trkpt>
      <trkpt lon="78.520807259376994" lat="17.643141907973202">
        <ele>494.813</ele>
        <time>2024-09-25T11:13:21Z</time>
      </trkpt>
      <trkpt lon="78.520807756186656" lat="17.643143710125045">
        <ele>494.821</ele>
        <time>2024-09-25T11:13:21Z</time>
      </trkpt>
      <trkpt lon="78.520808247117245" lat="17.64314550855697">
        <ele>494.829</ele>
        <time>2024-09-25T11:13:21Z</time>
      </trkpt>
      <trkpt lon="78.520808732738701" lat="17.643147304343401">
        <ele>494.836</ele>
        <time>2024-09-25T11:13:21Z</time>
      </trkpt>
      <trkpt lon="78.520809213665061" lat="17.643149098386147">
        <ele>494.842</ele>
        <time>2024-09-25T11:13:21Z</time>
      </trkpt>
      <trkpt lon="78.520809690522213" lat="17.643150891425549">
        <ele>494.848</ele>
        <time>2024-09-25T11:13:21Z</time>
      </trkpt>
      <trkpt lon="78.520810163923301" lat="17.643152684054538">
        <ele>494.853</ele>
        <time>2024-09-25T11:13:21Z</time>
      </trkpt>
      <trkpt lon="78.520810634450555" lat="17.64315447673432">
        <ele>494.857</ele>
        <time>2024-09-25T11:13:21Z</time>
      </trkpt>
      <trkpt lon="78.520811102642639" lat="17.64315626981081">
        <ele>494.86</ele>
        <time>2024-09-25T11:13:21Z</time>
      </trkpt>
      <trkpt lon="78.520811568986758" lat="17.643158063530976">
        <ele>494.863</ele>
        <time>2024-09-25T11:13:21Z</time>
      </trkpt>
      <trkpt lon="78.520812033914311" lat="17.643159858058635">
        <ele>494.865</ele>
        <time>2024-09-25T11:13:21Z</time>
      </trkpt>
      <trkpt lon="78.52081249779971" lat="17.643161653489223">
        <ele>494.867</ele>
        <time>2024-09-25T11:13:21Z</time>
      </trkpt>
      <trkpt lon="78.520812960961379" lat="17.643163449863341">
        <ele>494.868</ele>
        <time>2024-09-25T11:13:21Z</time>
      </trkpt>
      <trkpt lon="78.520813543520887" lat="17.643165763123179">
        <ele>494.895</ele>
        <time>2024-09-25T11:13:22Z</time>
      </trkpt>
      <trkpt lon="78.520814096030449" lat="17.643168005597385">
        <ele>494.918</ele>
        <time>2024-09-25T11:13:22Z</time>
      </trkpt>
      <trkpt lon="78.520814621517502" lat="17.643170180618984">
        <ele>494.937</ele>
        <time>2024-09-25T11:13:22Z</time>
      </trkpt>
      <trkpt lon="78.520815123202624" lat="17.643172293043023">
        <ele>494.952</ele>
        <time>2024-09-25T11:13:22Z</time>
      </trkpt>
      <trkpt lon="78.520815604340171" lat="17.643174348703258">
        <ele>494.963</ele>
        <time>2024-09-25T11:13:22Z</time>
      </trkpt>
      <trkpt lon="78.52081606809692" lat="17.643176353968624">
        <ele>494.972</ele>
        <time>2024-09-25T11:13:22Z</time>
      </trkpt>
      <trkpt lon="78.520816517463629" lat="17.643178315390283">
        <ele>494.978</ele>
        <time>2024-09-25T11:13:22Z</time>
      </trkpt>
      <trkpt lon="78.520816955194576" lat="17.64318023942926">
        <ele>494.982</ele>
        <time>2024-09-25T11:13:22Z</time>
      </trkpt>
      <trkpt lon="78.520817383770051" lat="17.643182132254228">
        <ele>494.984</ele>
        <time>2024-09-25T11:13:22Z</time>
      </trkpt>
      <trkpt lon="78.520817805377675" lat="17.64318399959927">
        <ele>494.985</ele>
        <time>2024-09-25T11:13:22Z</time>
      </trkpt>
      <trkpt lon="78.520818221908542" lat="17.643185846671713">
        <ele>494.985</ele>
        <time>2024-09-25T11:13:22Z</time>
      </trkpt>
      <trkpt lon="78.520818634964471" lat="17.643187678100979">
        <ele>494.984</ele>
        <time>2024-09-25T11:13:22Z</time>
      </trkpt>
      <trkpt lon="78.520819045873623" lat="17.643189497920062">
        <ele>494.982</ele>
        <time>2024-09-25T11:13:22Z</time>
      </trkpt>
      <trkpt lon="78.520819455711745" lat="17.643191309572305">
        <ele>494.98</ele>
        <time>2024-09-25T11:13:22Z</time>
      </trkpt>
      <trkpt lon="78.520819865326956" lat="17.643193115936992">
        <ele>494.978</ele>
        <time>2024-09-25T11:13:22Z</time>
      </trkpt>
      <trkpt lon="78.52082027536629" lat="17.643194919368185">
        <ele>494.976</ele>
        <time>2024-09-25T11:13:22Z</time>
      </trkpt>
      <trkpt lon="78.520820686302812" lat="17.643196721742303">
        <ele>494.974</ele>
        <time>2024-09-25T11:13:22Z</time>
      </trkpt>
      <trkpt lon="78.520821098461923" lat="17.643198524510531">
        <ele>494.971</ele>
        <time>2024-09-25T11:13:22Z</time>
      </trkpt>
      <trkpt lon="78.520821512046481" lat="17.643200328753103">
        <ele>494.969</ele>
        <time>2024-09-25T11:13:22Z</time>
      </trkpt>
      <trkpt lon="78.520821927159901" lat="17.643202135233114">
        <ele>494.968</ele>
        <time>2024-09-25T11:13:22Z</time>
      </trkpt>
      <trkpt lon="78.520822343827021" lat="17.643203944448096">
        <ele>494.966</ele>
        <time>2024-09-25T11:13:22Z</time>
      </trkpt>
      <trkpt lon="78.5208227620126" lat="17.64320575667811">
        <ele>494.964</ele>
        <time>2024-09-25T11:13:22Z</time>
      </trkpt>
      <trkpt lon="78.520823181637383" lat="17.643207572029567">
        <ele>494.963</ele>
        <time>2024-09-25T11:13:22Z</time>
      </trkpt>
      <trkpt lon="78.520823602591619" lat="17.643209390474269">
        <ele>494.962</ele>
        <time>2024-09-25T11:13:22Z</time>
      </trkpt>
      <trkpt lon="78.520824024746403" lat="17.643211211883543">
        <ele>494.961</ele>
        <time>2024-09-25T11:13:22Z</time>
      </trkpt>
      <trkpt lon="78.520824447962852" lat="17.643213036057425">
        <ele>494.961</ele>
        <time>2024-09-25T11:13:22Z</time>
      </trkpt>
      <trkpt lon="78.520824872099453" lat="17.643214862749176">
        <ele>494.96</ele>
        <time>2024-09-25T11:13:22Z</time>
      </trkpt>
      <trkpt lon="78.520825297017524" lat="17.64321669168536">
        <ele>494.96</ele>
        <time>2024-09-25T11:13:22Z</time>
      </trkpt>
      <trkpt lon="78.520825722585414" lat="17.6432185225819">
        <ele>494.959</ele>
        <time>2024-09-25T11:13:22Z</time>
      </trkpt>
      <trkpt lon="78.520826240914559" lat="17.643220801340775">
        <ele>495.326</ele>
        <time>2024-09-25T11:13:23Z</time>
      </trkpt>
      <trkpt lon="78.52082671753152" lat="17.643222941568713">
        <ele>495.635</ele>
        <time>2024-09-25T11:13:23Z</time>
      </trkpt>
      <trkpt lon="78.520827157555445" lat="17.643224958203117">
        <ele>495.89</ele>
        <time>2024-09-25T11:13:23Z</time>
      </trkpt>
      <trkpt lon="78.520827566116068" lat="17.643226866796315">
        <ele>496.095</ele>
        <time>2024-09-25T11:13:23Z</time>
      </trkpt>
      <trkpt lon="78.520827948172936" lat="17.643228682824052">
        <ele>496.255</ele>
        <time>2024-09-25T11:13:23Z</time>
      </trkpt>
      <trkpt lon="78.520828308385106" lat="17.643230421166905">
        <ele>496.377</ele>
        <time>2024-09-25T11:13:23Z</time>
      </trkpt>
      <trkpt lon="78.52082865102328" lat="17.643232095739997">
        <ele>496.464</ele>
        <time>2024-09-25T11:13:23Z</time>
      </trkpt>
      <trkpt lon="78.520828979917113" lat="17.643233719247426">
        <ele>496.524</ele>
        <time>2024-09-25T11:13:23Z</time>
      </trkpt>
      <trkpt lon="78.520829298430783" lat="17.643235303039205">
        <ele>496.559</ele>
        <time>2024-09-25T11:13:23Z</time>
      </trkpt>
      <trkpt lon="78.520829609460733" lat="17.643236857050429">
        <ele>496.576</ele>
        <time>2024-09-25T11:13:23Z</time>
      </trkpt>
      <trkpt lon="78.520829915450292" lat="17.64323838980458">
        <ele>496.578</ele>
        <time>2024-09-25T11:13:23Z</time>
      </trkpt>
      <trkpt lon="78.520830218416279" lat="17.643239908465031">
        <ele>496.568</ele>
        <time>2024-09-25T11:13:23Z</time>
      </trkpt>
      <trkpt lon="78.520830519984045" lat="17.6432414189211">
        <ele>496.55</ele>
        <time>2024-09-25T11:13:23Z</time>
      </trkpt>
      <trkpt lon="78.520830821427367" lat="17.64324292589718">
        <ele>496.527</ele>
        <time>2024-09-25T11:13:23Z</time>
      </trkpt>
      <trkpt lon="78.520831123710721" lat="17.643244433075449">
        <ele>496.501</ele>
        <time>2024-09-25T11:13:23Z</time>
      </trkpt>
      <trkpt lon="78.520831427532016" lat="17.643245943224567">
        <ele>496.473</ele>
        <time>2024-09-25T11:13:23Z</time>
      </trkpt>
      <trkpt lon="78.520831733363906" lat="17.643247458328418">
        <ele>496.444</ele>
        <time>2024-09-25T11:13:23Z</time>
      </trkpt>
      <trkpt lon="78.520832041492852" lat="17.643248979710414">
        <ele>496.416</ele>
        <time>2024-09-25T11:13:23Z</time>
      </trkpt>
      <trkpt lon="78.520832352055038" lat="17.643250508150128">
        <ele>496.39</ele>
        <time>2024-09-25T11:13:23Z</time>
      </trkpt>
      <trkpt lon="78.520832665068625" lat="17.643252043990103">
        <ele>496.366</ele>
        <time>2024-09-25T11:13:23Z</time>
      </trkpt>
      <trkpt lon="78.52083298046216" lat="17.643253587231555">
        <ele>496.345</ele>
        <time>2024-09-25T11:13:23Z</time>
      </trkpt>
      <trkpt lon="78.520833298099106" lat="17.643255137618354">
        <ele>496.326</ele>
        <time>2024-09-25T11:13:23Z</time>
      </trkpt>
      <trkpt lon="78.520833617798658" lat="17.643256694709265">
        <ele>496.309</ele>
        <time>2024-09-25T11:13:23Z</time>
      </trkpt>
      <trkpt lon="78.520833939352869" lat="17.643258257938868">
        <ele>496.295</ele>
        <time>2024-09-25T11:13:23Z</time>
      </trkpt>
      <trkpt lon="78.520834262540589" lat="17.643259826667737">
        <ele>496.284</ele>
        <time>2024-09-25T11:13:23Z</time>
      </trkpt>
      <trkpt lon="78.520834587138367" lat="17.643261400222883">
        <ele>496.275</ele>
        <time>2024-09-25T11:13:23Z</time>
      </trkpt>
      <trkpt lon="78.520834912928805" lat="17.643262977929385">
        <ele>496.267</ele>
        <time>2024-09-25T11:13:23Z</time>
      </trkpt>
      <trkpt lon="78.520835239706614" lat="17.643264559134298">
        <ele>496.262</ele>
        <time>2024-09-25T11:13:23Z</time>
      </trkpt>
      <trkpt lon="78.520835567282717" lat="17.643266143223936">
        <ele>496.258</ele>
        <time>2024-09-25T11:13:23Z</time>
      </trkpt>
      <trkpt lon="78.52083602292798" lat="17.643268229474163">
        <ele>495.851</ele>
        <time>2024-09-25T11:13:24Z</time>
      </trkpt>
      <trkpt lon="78.520836494214478" lat="17.643270292579011">
        <ele>495.508</ele>
        <time>2024-09-25T11:13:24Z</time>
      </trkpt>
      <trkpt lon="78.520836976679675" lat="17.643272328381403">
        <ele>495.226</ele>
        <time>2024-09-25T11:13:24Z</time>
      </trkpt>
      <trkpt lon="78.520837466571408" lat="17.643274334695857">
        <ele>495</ele>
        <time>2024-09-25T11:13:24Z</time>
      </trkpt>
      <trkpt lon="78.520837960803306" lat="17.643276310899015">
        <ele>494.823</ele>
        <time>2024-09-25T11:13:24Z</time>
      </trkpt>
      <trkpt lon="78.52083845689809" lat="17.643278257566713">
        <ele>494.69</ele>
        <time>2024-09-25T11:13:24Z</time>
      </trkpt>
      <trkpt lon="78.520838952923683" lat="17.643280176158761">
        <ele>494.595</ele>
        <time>2024-09-25T11:13:24Z</time>
      </trkpt>
      <trkpt lon="78.520839447426027" lat="17.643282068750629">
        <ele>494.531</ele>
        <time>2024-09-25T11:13:24Z</time>
      </trkpt>
      <trkpt lon="78.520839939361949" lat="17.643283937809798">
        <ele>494.493</ele>
        <time>2024-09-25T11:13:24Z</time>
      </trkpt>
      <trkpt lon="78.520840428034177" lat="17.643285786013561">
        <ele>494.476</ele>
        <time>2024-09-25T11:13:24Z</time>
      </trkpt>
      <trkpt lon="78.520840913030483" lat="17.643287616104388">
        <ele>494.475</ele>
        <time>2024-09-25T11:13:24Z</time>
      </trkpt>
      <trkpt lon="78.520841394167803" lat="17.643289430778651">
        <ele>494.487</ele>
        <time>2024-09-25T11:13:24Z</time>
      </trkpt>
      <trkpt lon="78.520841871442101" lat="17.643291232604309">
        <ele>494.507</ele>
        <time>2024-09-25T11:13:24Z</time>
      </trkpt>
      <trkpt lon="78.52084234498453" lat="17.643293023963352">
        <ele>494.534</ele>
        <time>2024-09-25T11:13:24Z</time>
      </trkpt>
      <trkpt lon="78.520842815023556" lat="17.643294807014854">
        <ele>494.564</ele>
        <time>2024-09-25T11:13:24Z</time>
      </trkpt>
      <trkpt lon="78.520843281853061" lat="17.643296583674879">
        <ele>494.596</ele>
        <time>2024-09-25T11:13:24Z</time>
      </trkpt>
      <trkpt lon="78.520843745806047" lat="17.643298355609744">
        <ele>494.628</ele>
        <time>2024-09-25T11:13:24Z</time>
      </trkpt>
      <trkpt lon="78.520844207233438" lat="17.643300124239655">
        <ele>494.659</ele>
        <time>2024-09-25T11:13:24Z</time>
      </trkpt>
      <trkpt lon="78.520844666487477" lat="17.64330189074996">
        <ele>494.688</ele>
        <time>2024-09-25T11:13:24Z</time>
      </trkpt>
      <trkpt lon="78.520845123909169" lat="17.643303656107804">
        <ele>494.715</ele>
        <time>2024-09-25T11:13:24Z</time>
      </trkpt>
      <trkpt lon="78.520845579819195" lat="17.643305421082257">
        <ele>494.739</ele>
        <time>2024-09-25T11:13:24Z</time>
      </trkpt>
      <trkpt lon="78.520846034511791" lat="17.64330718626638">
        <ele>494.76</ele>
        <time>2024-09-25T11:13:24Z</time>
      </trkpt>
      <trkpt lon="78.520846488251038" lat="17.64330895209994">
        <ele>494.779</ele>
        <time>2024-09-25T11:13:24Z</time>
      </trkpt>
      <trkpt lon="78.520846941269113" lat="17.643310718891886">
        <ele>494.794</ele>
        <time>2024-09-25T11:13:24Z</time>
      </trkpt>
      <trkpt lon="78.52084739376609" lat="17.643312486841833">
        <ele>494.807</ele>
        <time>2024-09-25T11:13:24Z</time>
      </trkpt>
      <trkpt lon="78.520847845910879" lat="17.643314256060034">
        <ele>494.817</ele>
        <time>2024-09-25T11:13:24Z</time>
      </trkpt>
      <trkpt lon="78.520848297843031" lat="17.643316026585548">
        <ele>494.825</ele>
        <time>2024-09-25T11:13:24Z</time>
      </trkpt>
      <trkpt lon="78.520848749675139" lat="17.643317798402428">
        <ele>494.831</ele>
        <time>2024-09-25T11:13:24Z</time>
      </trkpt>
      <trkpt lon="78.520849201495537" lat="17.643319571453794">
        <ele>494.836</ele>
        <time>2024-09-25T11:13:24Z</time>
      </trkpt>
      <trkpt lon="78.520849792423377" lat="17.643321853732694">
        <ele>494.95</ele>
        <time>2024-09-25T11:13:25Z</time>
      </trkpt>
      <trkpt lon="78.520850373195444" lat="17.643324065382991">
        <ele>495.045</ele>
        <time>2024-09-25T11:13:25Z</time>
      </trkpt>
      <trkpt lon="78.52085094333313" lat="17.643326209797124">
        <ele>495.123</ele>
        <time>2024-09-25T11:13:25Z</time>
      </trkpt>
      <trkpt lon="78.520851502845005" lat="17.643328291867405">
        <ele>495.186</ele>
        <time>2024-09-25T11:13:25Z</time>
      </trkpt>
      <trkpt lon="78.520852052106548" lat="17.643330317446878">
        <ele>495.234</ele>
        <time>2024-09-25T11:13:25Z</time>
      </trkpt>
      <trkpt lon="78.520852591756793" lat="17.643332292909534">
        <ele>495.27</ele>
        <time>2024-09-25T11:13:25Z</time>
      </trkpt>
      <trkpt lon="78.520853122611214" lat="17.643334224800693">
        <ele>495.295</ele>
        <time>2024-09-25T11:13:25Z</time>
      </trkpt>
      <trkpt lon="78.520853645590009" lat="17.643336119567511">
        <ele>495.312</ele>
        <time>2024-09-25T11:13:25Z</time>
      </trkpt>
      <trkpt lon="78.520854161660381" lat="17.643337983359249">
        <ele>495.321</ele>
        <time>2024-09-25T11:13:25Z</time>
      </trkpt>
      <trkpt lon="78.520854671791298" lat="17.64333982188705">
        <ele>495.325</ele>
        <time>2024-09-25T11:13:25Z</time>
      </trkpt>
      <trkpt lon="78.520855176919497" lat="17.643341640333453">
        <ele>495.324</ele>
        <time>2024-09-25T11:13:25Z</time>
      </trkpt>
      <trkpt lon="78.520855677924828" lat="17.643343443302541">
        <ele>495.32</ele>
        <time>2024-09-25T11:13:25Z</time>
      </trkpt>
      <trkpt lon="78.520856175613716" lat="17.643345234802467">
        <ele>495.313</ele>
        <time>2024-09-25T11:13:25Z</time>
      </trkpt>
      <trkpt lon="78.520856670709222" lat="17.643347018252939">
        <ele>495.305</ele>
        <time>2024-09-25T11:13:25Z</time>
      </trkpt>
      <trkpt lon="78.5208571638465" lat="17.643348796511344">
        <ele>495.296</ele>
        <time>2024-09-25T11:13:25Z</time>
      </trkpt>
      <trkpt lon="78.520857655572314" lat="17.643350571911935">
        <ele>495.287</ele>
        <time>2024-09-25T11:13:25Z</time>
      </trkpt>
      <trkpt lon="78.520858146347848" lat="17.643352346313556">
        <ele>495.277</ele>
        <time>2024-09-25T11:13:25Z</time>
      </trkpt>
      <trkpt lon="78.520858636553783" lat="17.643354121152132">
        <ele>495.268</ele>
        <time>2024-09-25T11:13:25Z</time>
      </trkpt>
      <trkpt lon="78.520859126496802" lat="17.643355897494914">
        <ele>495.26</ele>
        <time>2024-09-25T11:13:25Z</time>
      </trkpt>
      <trkpt lon="78.520859616417283" lat="17.643357676094158">
        <ele>495.252</ele>
        <time>2024-09-25T11:13:25Z</time>
      </trkpt>
      <trkpt lon="78.520860106497167" lat="17.643359457438578">
        <ele>495.246</ele>
        <time>2024-09-25T11:13:25Z</time>
      </trkpt>
      <trkpt lon="78.520860596868076" lat="17.643361241801227">
        <ele>495.24</ele>
        <time>2024-09-25T11:13:25Z</time>
      </trkpt>
      <trkpt lon="78.520861087619139" lat="17.643363029283115">
        <ele>495.235</ele>
        <time>2024-09-25T11:13:25Z</time>
      </trkpt>
      <trkpt lon="78.520861578804343" lat="17.643364819852064">
        <ele>495.23</ele>
        <time>2024-09-25T11:13:25Z</time>
      </trkpt>
      <trkpt lon="78.520862070449269" lat="17.6433666133766">
        <ele>495.227</ele>
        <time>2024-09-25T11:13:25Z</time>
      </trkpt>
      <trkpt lon="78.520862562557269" lat="17.643368409654979">
        <ele>495.224</ele>
        <time>2024-09-25T11:13:25Z</time>
      </trkpt>
      <trkpt lon="78.520863055114773" lat="17.643370208439478">
        <ele>495.222</ele>
        <time>2024-09-25T11:13:25Z</time>
      </trkpt>
      <trkpt lon="78.52086354809596" lat="17.643372009456328">
        <ele>495.22</ele>
        <time>2024-09-25T11:13:25Z</time>
      </trkpt>
      <trkpt lon="78.520864041466638" lat="17.643373812421633">
        <ele>495.219</ele>
        <time>2024-09-25T11:13:25Z</time>
      </trkpt>
      <trkpt lon="78.520864653639322" lat="17.643376082246384">
        <ele>495.527</ele>
        <time>2024-09-25T11:13:26Z</time>
      </trkpt>
      <trkpt lon="78.520865226889441" lat="17.643378237413955">
        <ele>495.787</ele>
        <time>2024-09-25T11:13:26Z</time>
      </trkpt>
      <trkpt lon="78.520865765534779" lat="17.64338028881556">
        <ele>496.002</ele>
        <time>2024-09-25T11:13:26Z</time>
      </trkpt>
      <trkpt lon="78.520866274031931" lat="17.643382248264849">
        <ele>496.175</ele>
        <time>2024-09-25T11:13:26Z</time>
      </trkpt>
      <trkpt lon="78.520866756787385" lat="17.643384127860553">
        <ele>496.311</ele>
        <time>2024-09-25T11:13:26Z</time>
      </trkpt>
      <trkpt lon="78.520867218016789" lat="17.643385939496127">
        <ele>496.413</ele>
        <time>2024-09-25T11:13:26Z</time>
      </trkpt>
      <trkpt lon="78.520867661645553" lat="17.643387694497225">
        <ele>496.487</ele>
        <time>2024-09-25T11:13:26Z</time>
      </trkpt>
      <trkpt lon="78.520868091243941" lat="17.643389403368158">
        <ele>496.537</ele>
        <time>2024-09-25T11:13:26Z</time>
      </trkpt>
      <trkpt lon="78.520868509990564" lat="17.643391075629296">
        <ele>496.568</ele>
        <time>2024-09-25T11:13:26Z</time>
      </trkpt>
      <trkpt lon="78.520868920658373" lat="17.643392719728674">
        <ele>496.582</ele>
        <time>2024-09-25T11:13:26Z</time>
      </trkpt>
      <trkpt lon="78.520869325618207" lat="17.64339434301257">
        <ele>496.584</ele>
        <time>2024-09-25T11:13:26Z</time>
      </trkpt>
      <trkpt lon="78.520869726855494" lat="17.643395951741631">
        <ele>496.576</ele>
        <time>2024-09-25T11:13:26Z</time>
      </trkpt>
      <trkpt lon="78.520870125996183" lat="17.643397551140705">
        <ele>496.562</ele>
        <time>2024-09-25T11:13:26Z</time>
      </trkpt>
      <trkpt lon="78.520870524338719" lat="17.643399145472383">
        <ele>496.542</ele>
        <time>2024-09-25T11:13:26Z</time>
      </trkpt>
      <trkpt lon="78.520870922889614" lat="17.643400738125866">
        <ele>496.52</ele>
        <time>2024-09-25T11:13:26Z</time>
      </trkpt>
      <trkpt lon="78.520871322400353" lat="17.643402331714253">
        <ele>496.497</ele>
        <time>2024-09-25T11:13:26Z</time>
      </trkpt>
      <trkpt lon="78.520871723404099" lat="17.643403928174884">
        <ele>496.473</ele>
        <time>2024-09-25T11:13:26Z</time>
      </trkpt>
      <trkpt lon="78.520872126250893" lat="17.643405528868403">
        <ele>496.45</ele>
        <time>2024-09-25T11:13:26Z</time>
      </trkpt>
      <trkpt lon="78.520872531140625" lat="17.643407134673474">
        <ele>496.428</ele>
        <time>2024-09-25T11:13:26Z</time>
      </trkpt>
      <trkpt lon="78.520872938152976" lat="17.643408746074936">
        <ele>496.408</ele>
        <time>2024-09-25T11:13:26Z</time>
      </trkpt>
      <trkpt lon="78.520873347274332" lat="17.643410363243909">
        <ele>496.389</ele>
        <time>2024-09-25T11:13:26Z</time>
      </trkpt>
      <trkpt lon="78.520873758421175" lat="17.643411986109086">
        <ele>496.373</ele>
        <time>2024-09-25T11:13:26Z</time>
      </trkpt>
      <trkpt lon="78.520874171460221" lat="17.643413614418886">
        <ele>496.36</ele>
        <time>2024-09-25T11:13:26Z</time>
      </trkpt>
      <trkpt lon="78.520874586225247" lat="17.643415247794586">
        <ele>496.348</ele>
        <time>2024-09-25T11:13:26Z</time>
      </trkpt>
      <trkpt lon="78.520875002531014" lat="17.643416885774755">
        <ele>496.338</ele>
        <time>2024-09-25T11:13:26Z</time>
      </trkpt>
      <trkpt lon="78.520875420184424" lat="17.643418527851658">
        <ele>496.33</ele>
        <time>2024-09-25T11:13:26Z</time>
      </trkpt>
      <trkpt lon="78.520875838993078" lat="17.643420173500278">
        <ele>496.324</ele>
        <time>2024-09-25T11:13:26Z</time>
      </trkpt>
      <trkpt lon="78.520876258771821" lat="17.643421822200811">
        <ele>496.319</ele>
        <time>2024-09-25T11:13:26Z</time>
      </trkpt>
      <trkpt lon="78.52087667934741" lat="17.643423473455421">
        <ele>496.316</ele>
        <time>2024-09-25T11:13:26Z</time>
      </trkpt>
      <trkpt lon="78.520877114700866" lat="17.64342553449919">
        <ele>496.311</ele>
        <time>2024-09-25T11:13:27Z</time>
      </trkpt>
      <trkpt lon="78.520877444014971" lat="17.64342747559235">
        <ele>496.307</ele>
        <time>2024-09-25T11:13:27Z</time>
      </trkpt>
      <trkpt lon="78.520877683706232" lat="17.643429309256">
        <ele>496.305</ele>
        <time>2024-09-25T11:13:27Z</time>
      </trkpt>
      <trkpt lon="78.520877849262192" lat="17.643431048659647">
        <ele>496.303</ele>
        <time>2024-09-25T11:13:27Z</time>
      </trkpt>
      <trkpt lon="78.520877954932217" lat="17.643432707004241">
        <ele>496.302</ele>
        <time>2024-09-25T11:13:27Z</time>
      </trkpt>
      <trkpt lon="78.520878013537526" lat="17.643434297055954">
        <ele>496.302</ele>
        <time>2024-09-25T11:13:27Z</time>
      </trkpt>
      <trkpt lon="78.520878036377425" lat="17.643435830809882">
        <ele>496.302</ele>
        <time>2024-09-25T11:13:27Z</time>
      </trkpt>
      <trkpt lon="78.520878033211631" lat="17.643437319263274">
        <ele>496.302</ele>
        <time>2024-09-25T11:13:27Z</time>
      </trkpt>
      <trkpt lon="78.520878012300315" lat="17.643438772279271">
        <ele>496.303</ele>
        <time>2024-09-25T11:13:27Z</time>
      </trkpt>
      <trkpt lon="78.520877980486404" lat="17.643440198523574">
        <ele>496.304</ele>
        <time>2024-09-25T11:13:27Z</time>
      </trkpt>
      <trkpt lon="78.520877943306829" lat="17.643441605458275">
        <ele>496.305</ele>
        <time>2024-09-25T11:13:27Z</time>
      </trkpt>
      <trkpt lon="78.520877905121779" lat="17.643442999379015">
        <ele>496.306</ele>
        <time>2024-09-25T11:13:27Z</time>
      </trkpt>
      <trkpt lon="78.520877869252942" lat="17.643444385483516">
        <ele>496.307</ele>
        <time>2024-09-25T11:13:27Z</time>
      </trkpt>
      <trkpt lon="78.520877838123823" lat="17.643445767961342">
        <ele>496.308</ele>
        <time>2024-09-25T11:13:27Z</time>
      </trkpt>
      <trkpt lon="78.520877813396694" lat="17.643447150096613">
        <ele>496.309</ele>
        <time>2024-09-25T11:13:27Z</time>
      </trkpt>
      <trkpt lon="78.520877796102241" lat="17.643448534376837">
        <ele>496.31</ele>
        <time>2024-09-25T11:13:27Z</time>
      </trkpt>
      <trkpt lon="78.520877786759314" lat="17.643449922602656">
        <ele>496.311</ele>
        <time>2024-09-25T11:13:27Z</time>
      </trkpt>
      <trkpt lon="78.520877785482881" lat="17.643451315994383">
        <ele>496.311</ele>
        <time>2024-09-25T11:13:27Z</time>
      </trkpt>
      <trkpt lon="78.520877792079432" lat="17.643452715292508">
        <ele>496.312</ele>
        <time>2024-09-25T11:13:27Z</time>
      </trkpt>
      <trkpt lon="78.520877806129704" lat="17.643454120850098">
        <ele>496.312</ele>
        <time>2024-09-25T11:13:27Z</time>
      </trkpt>
      <trkpt lon="78.520877827058783" lat="17.643455532715922">
        <ele>496.313</ele>
        <time>2024-09-25T11:13:27Z</time>
      </trkpt>
      <trkpt lon="78.520877854194396" lat="17.643456950707659">
        <ele>496.313</ele>
        <time>2024-09-25T11:13:27Z</time>
      </trkpt>
      <trkpt lon="78.520877886814233" lat="17.64345837447512">
        <ele>496.313</ele>
        <time>2024-09-25T11:13:27Z</time>
      </trkpt>
      <trkpt lon="78.520877924183324" lat="17.64345980355375">
        <ele>496.313</ele>
        <time>2024-09-25T11:13:27Z</time>
      </trkpt>
      <trkpt lon="78.520877965582713" lat="17.643461237408907">
        <ele>496.313</ele>
        <time>2024-09-25T11:13:27Z</time>
      </trkpt>
      <trkpt lon="78.520878010330478" lat="17.643462675471682">
        <ele>496.314</ele>
        <time>2024-09-25T11:13:27Z</time>
      </trkpt>
      <trkpt lon="78.520878057796281" lat="17.643464117167099">
        <ele>496.314</ele>
        <time>2024-09-25T11:13:27Z</time>
      </trkpt>
      <trkpt lon="78.520878107410567" lat="17.643465561935574">
        <ele>496.314</ele>
        <time>2024-09-25T11:13:27Z</time>
      </trkpt>
      <trkpt lon="78.52087815866939" lat="17.643467009248564">
        <ele>496.314</ele>
        <time>2024-09-25T11:13:27Z</time>
      </trkpt>
      <trkpt lon="78.520878225649597" lat="17.643468855737243">
        <ele>496.006</ele>
        <time>2024-09-25T11:13:28Z</time>
      </trkpt>
      <trkpt lon="78.520878291557722" lat="17.643470630803623">
        <ele>495.747</ele>
        <time>2024-09-25T11:13:28Z</time>
      </trkpt>
      <trkpt lon="78.520878356163109" lat="17.643472339479708">
        <ele>495.533</ele>
        <time>2024-09-25T11:13:28Z</time>
      </trkpt>
      <trkpt lon="78.520878419337123" lat="17.643473987864365">
        <ele>495.361</ele>
        <time>2024-09-25T11:13:28Z</time>
      </trkpt>
      <trkpt lon="78.520878481032511" lat="17.643475582648875">
        <ele>495.226</ele>
        <time>2024-09-25T11:13:28Z</time>
      </trkpt>
      <trkpt lon="78.520878541265006" lat="17.643477130738717">
        <ele>495.125</ele>
        <time>2024-09-25T11:13:28Z</time>
      </trkpt>
      <trkpt lon="78.520878600097248" lat="17.643478638961007">
        <ele>495.051</ele>
        <time>2024-09-25T11:13:28Z</time>
      </trkpt>
      <trkpt lon="78.520878657625119" lat="17.643480113846689">
        <ele>495.002</ele>
        <time>2024-09-25T11:13:28Z</time>
      </trkpt>
      <trkpt lon="78.520878713966169" lat="17.643481561476637">
        <ele>494.972</ele>
        <time>2024-09-25T11:13:28Z</time>
      </trkpt>
      <trkpt lon="78.520878769250245" lat="17.643482987381283">
        <ele>494.958</ele>
        <time>2024-09-25T11:13:28Z</time>
      </trkpt>
      <trkpt lon="78.520878823611937" lat="17.643484396484041">
        <ele>494.956</ele>
        <time>2024-09-25T11:13:28Z</time>
      </trkpt>
      <trkpt lon="78.520878877184714" lat="17.643485793079776">
        <ele>494.964</ele>
        <time>2024-09-25T11:13:28Z</time>
      </trkpt>
      <trkpt lon="78.5208789300966" lat="17.643487180840378">
        <ele>494.979</ele>
        <time>2024-09-25T11:13:28Z</time>
      </trkpt>
      <trkpt lon="78.520878982467039" lat="17.643488562840616">
        <ele>494.999</ele>
        <time>2024-09-25T11:13:28Z</time>
      </trkpt>
      <trkpt lon="78.520879034404899" lat="17.643489941598339">
        <ele>495.021</ele>
        <time>2024-09-25T11:13:28Z</time>
      </trkpt>
      <trkpt lon="78.520879086007255" lat="17.643491319124163">
        <ele>495.045</ele>
        <time>2024-09-25T11:13:28Z</time>
      </trkpt>
      <trkpt lon="78.520879137358932" lat="17.643492696976494">
        <ele>495.069</ele>
        <time>2024-09-25T11:13:28Z</time>
      </trkpt>
      <trkpt lon="78.520879188532589" lat="17.643494076318749">
        <ele>495.092</ele>
        <time>2024-09-25T11:13:28Z</time>
      </trkpt>
      <trkpt lon="78.520879239589178" lat="17.643495457976186">
        <ele>495.114</ele>
        <time>2024-09-25T11:13:28Z</time>
      </trkpt>
      <trkpt lon="78.520879290578705" lat="17.643496842490492">
        <ele>495.134</ele>
        <time>2024-09-25T11:13:28Z</time>
      </trkpt>
      <trkpt lon="78.520879341541175" lat="17.643498230170781">
        <ele>495.152</ele>
        <time>2024-09-25T11:13:28Z</time>
      </trkpt>
      <trkpt lon="78.520879392507737" lat="17.643499621140123">
        <ele>495.168</ele>
        <time>2024-09-25T11:13:28Z</time>
      </trkpt>
      <trkpt lon="78.52087944350167" lat="17.643501015377058">
        <ele>495.182</ele>
        <time>2024-09-25T11:13:28Z</time>
      </trkpt>
      <trkpt lon="78.520879494539614" lat="17.643502412751932">
        <ele>495.193</ele>
        <time>2024-09-25T11:13:28Z</time>
      </trkpt>
      <trkpt lon="78.520879545632567" lat="17.643503813058032">
        <ele>495.203</ele>
        <time>2024-09-25T11:13:28Z</time>
      </trkpt>
      <trkpt lon="78.520879596786912" lat="17.643505216037735">
        <ele>495.211</ele>
        <time>2024-09-25T11:13:28Z</time>
      </trkpt>
      <trkpt lon="78.520879648005319" lat="17.643506621403986">
        <ele>495.217</ele>
        <time>2024-09-25T11:13:28Z</time>
      </trkpt>
      <trkpt lon="78.52087969928759" lat="17.643508028857521">
        <ele>495.222</ele>
        <time>2024-09-25T11:13:28Z</time>
      </trkpt>
      <trkpt lon="78.520879750631352" lat="17.643509438100264">
        <ele>495.225</ele>
        <time>2024-09-25T11:13:28Z</time>
      </trkpt>
      <trkpt lon="78.520879900820589" lat="17.643511308045223">
        <ele>495.089</ele>
        <time>2024-09-25T11:13:29Z</time>
      </trkpt>
      <trkpt lon="78.520880119798647" lat="17.643513169080986">
        <ele>494.973</ele>
        <time>2024-09-25T11:13:29Z</time>
      </trkpt>
      <trkpt lon="78.520880395238947" lat="17.643515015539279">
        <ele>494.878</ele>
        <time>2024-09-25T11:13:29Z</time>
      </trkpt>
      <trkpt lon="78.520880715888637" lat="17.643516843653533">
        <ele>494.8</ele>
        <time>2024-09-25T11:13:29Z</time>
      </trkpt>
      <trkpt lon="78.520881071695044" lat="17.64351865122152">
        <ele>494.74</ele>
        <time>2024-09-25T11:13:29Z</time>
      </trkpt>
      <trkpt lon="78.520881453859374" lat="17.643520437296718">
        <ele>494.693</ele>
        <time>2024-09-25T11:13:29Z</time>
      </trkpt>
      <trkpt lon="78.520881854833561" lat="17.643522201912045">
        <ele>494.659</ele>
        <time>2024-09-25T11:13:29Z</time>
      </trkpt>
      <trkpt lon="78.520882268274519" lat="17.6435239458376">
        <ele>494.636</ele>
        <time>2024-09-25T11:13:29Z</time>
      </trkpt>
      <trkpt lon="78.520882688967745" lat="17.643525670372426">
        <ele>494.621</ele>
        <time>2024-09-25T11:13:29Z</time>
      </trkpt>
      <trkpt lon="78.52088311273063" lat="17.643527377169185">
        <ele>494.614</ele>
        <time>2024-09-25T11:13:29Z</time>
      </trkpt>
      <trkpt lon="78.520883536303629" lat="17.643529068089705">
        <ele>494.612</ele>
        <time>2024-09-25T11:13:29Z</time>
      </trkpt>
      <trkpt lon="78.520883957236251" lat="17.643530745088832">
        <ele>494.615</ele>
        <time>2024-09-25T11:13:29Z</time>
      </trkpt>
      <trkpt lon="78.520884373772986" lat="17.643532410123626">
        <ele>494.621</ele>
        <time>2024-09-25T11:13:29Z</time>
      </trkpt>
      <trkpt lon="78.52088478474316" lat="17.643534065084868">
        <ele>494.629</ele>
        <time>2024-09-25T11:13:29Z</time>
      </trkpt>
      <trkpt lon="78.52088518945763" lat="17.643535711747695">
        <ele>494.638</ele>
        <time>2024-09-25T11:13:29Z</time>
      </trkpt>
      <trkpt lon="78.520885587614131" lat="17.643537351738434">
        <ele>494.648</ele>
        <time>2024-09-25T11:13:29Z</time>
      </trkpt>
      <trkpt lon="78.520885979212608" lat="17.643538986514752">
        <ele>494.659</ele>
        <time>2024-09-25T11:13:29Z</time>
      </trkpt>
      <trkpt lon="78.520886364480745" lat="17.64354061735655">
        <ele>494.669</ele>
        <time>2024-09-25T11:13:29Z</time>
      </trkpt>
      <trkpt lon="78.520886743810024" lat="17.643542245365275">
        <ele>494.678</ele>
        <time>2024-09-25T11:13:29Z</time>
      </trkpt>
      <trkpt lon="78.520887117701804" lat="17.643543871469614">
        <ele>494.687</ele>
        <time>2024-09-25T11:13:29Z</time>
      </trkpt>
      <trkpt lon="78.520887486722856" lat="17.643545496435756">
        <ele>494.695</ele>
        <time>2024-09-25T11:13:29Z</time>
      </trkpt>
      <trkpt lon="78.520887851469581" lat="17.6435471208808">
        <ele>494.702</ele>
        <time>2024-09-25T11:13:29Z</time>
      </trkpt>
      <trkpt lon="78.520888212539987" lat="17.643548745288015">
        <ele>494.708</ele>
        <time>2024-09-25T11:13:29Z</time>
      </trkpt>
      <trkpt lon="78.52088857051254" lat="17.643550370023014">
        <ele>494.713</ele>
        <time>2024-09-25T11:13:29Z</time>
      </trkpt>
      <trkpt lon="78.52088892593089" lat="17.643551995350023">
        <ele>494.718</ele>
        <time>2024-09-25T11:13:29Z</time>
      </trkpt>
      <trkpt lon="78.520889279293556" lat="17.643553621447655">
        <ele>494.721</ele>
        <time>2024-09-25T11:13:29Z</time>
      </trkpt>
      <trkpt lon="78.520889631047709" lat="17.643555248423784">
        <ele>494.724</ele>
        <time>2024-09-25T11:13:29Z</time>
      </trkpt>
      <trkpt lon="78.520889981586322" lat="17.643556876329228">
        <ele>494.726</ele>
        <time>2024-09-25T11:13:29Z</time>
      </trkpt>
      <trkpt lon="78.520890331247799" lat="17.643558505170017">
        <ele>494.728</ele>
        <time>2024-09-25T11:13:29Z</time>
      </trkpt>
      <trkpt lon="78.520890804294169" lat="17.643560614905649">
        <ele>494.554</ele>
        <time>2024-09-25T11:13:30Z</time>
      </trkpt>
      <trkpt lon="78.520891282673801" lat="17.643562670789095">
        <ele>494.408</ele>
        <time>2024-09-25T11:13:30Z</time>
      </trkpt>
      <trkpt lon="78.520891763787134" lat="17.643564674019427">
        <ele>494.287</ele>
        <time>2024-09-25T11:13:30Z</time>
      </trkpt>
      <trkpt lon="78.52089224557966" lat="17.643566627329115">
        <ele>494.19</ele>
        <time>2024-09-25T11:13:30Z</time>
      </trkpt>
      <trkpt lon="78.520892726479047" lat="17.64356853451163">
        <ele>494.113</ele>
        <time>2024-09-25T11:13:30Z</time>
      </trkpt>
      <trkpt lon="78.520893205331106" lat="17.643570400028501">
        <ele>494.055</ele>
        <time>2024-09-25T11:13:30Z</time>
      </trkpt>
      <trkpt lon="78.520893681336844" lat="17.643572228689909">
        <ele>494.013</ele>
        <time>2024-09-25T11:13:30Z</time>
      </trkpt>
      <trkpt lon="78.520894153992856" lat="17.643574025401794">
        <ele>493.985</ele>
        <time>2024-09-25T11:13:30Z</time>
      </trkpt>
      <trkpt lon="78.520894623035986" lat="17.643575794971905">
        <ele>493.968</ele>
        <time>2024-09-25T11:13:30Z</time>
      </trkpt>
      <trkpt lon="78.520895088393331" lat="17.643577541967012">
        <ele>493.959</ele>
        <time>2024-09-25T11:13:30Z</time>
      </trkpt>
      <trkpt lon="78.520895550137965" lat="17.643579270613618">
        <ele>493.958</ele>
        <time>2024-09-25T11:13:30Z</time>
      </trkpt>
      <trkpt lon="78.520896008450393" lat="17.643580984734953">
        <ele>493.962</ele>
        <time>2024-09-25T11:13:30Z</time>
      </trkpt>
      <trkpt lon="78.520896463585899" lat="17.64358268771748">
        <ele>493.97</ele>
        <time>2024-09-25T11:13:30Z</time>
      </trkpt>
      <trkpt lon="78.520896915847274" lat="17.643584382500801">
        <ele>493.981</ele>
        <time>2024-09-25T11:13:30Z</time>
      </trkpt>
      <trkpt lon="78.520897365562561" lat="17.643586071585588">
        <ele>493.993</ele>
        <time>2024-09-25T11:13:30Z</time>
      </trkpt>
      <trkpt lon="78.52089781306745" lat="17.643587757054796">
        <ele>494.006</ele>
        <time>2024-09-25T11:13:30Z</time>
      </trkpt>
      <trkpt lon="78.520898258691787" lat="17.643589440604142">
        <ele>494.02</ele>
        <time>2024-09-25T11:13:30Z</time>
      </trkpt>
      <trkpt lon="78.52089870274952" lat="17.643591123578574">
        <ele>494.033</ele>
        <time>2024-09-25T11:13:30Z</time>
      </trkpt>
      <trkpt lon="78.5208991455317" lat="17.643592807011888">
        <ele>494.045</ele>
        <time>2024-09-25T11:13:30Z</time>
      </trkpt>
      <trkpt lon="78.52089958730204" lat="17.643594491667443">
        <ele>494.056</ele>
        <time>2024-09-25T11:13:30Z</time>
      </trkpt>
      <trkpt lon="78.520900028294463" lat="17.643596178078226">
        <ele>494.066</ele>
        <time>2024-09-25T11:13:30Z</time>
      </trkpt>
      <trkpt lon="78.520900468712313" lat="17.643597866585054">
        <ele>494.075</ele>
        <time>2024-09-25T11:13:30Z</time>
      </trkpt>
      <trkpt lon="78.520900908728819" lat="17.643599557372045">
        <ele>494.083</ele>
        <time>2024-09-25T11:13:30Z</time>
      </trkpt>
      <trkpt lon="78.520901348488536" lat="17.643601250498801">
        <ele>494.09</ele>
        <time>2024-09-25T11:13:30Z</time>
      </trkpt>
      <trkpt lon="78.520901788109327" lat="17.64360294592899">
        <ele>494.095</ele>
        <time>2024-09-25T11:13:30Z</time>
      </trkpt>
      <trkpt lon="78.520902227684871" lat="17.643604643555236">
        <ele>494.1</ele>
        <time>2024-09-25T11:13:30Z</time>
      </trkpt>
      <trkpt lon="78.520902667287345" lat="17.643606343220331">
        <ele>494.103</ele>
        <time>2024-09-25T11:13:30Z</time>
      </trkpt>
      <trkpt lon="78.520903106970238" lat="17.643608044734954">
        <ele>494.106</ele>
        <time>2024-09-25T11:13:30Z</time>
      </trkpt>
      <trkpt lon="78.520903546771081" lat="17.643609747892164">
        <ele>494.108</ele>
        <time>2024-09-25T11:13:30Z</time>
      </trkpt>
      <trkpt lon="78.520904090277469" lat="17.643611859428866">
        <ele>494.239</ele>
        <time>2024-09-25T11:13:31Z</time>
      </trkpt>
      <trkpt lon="78.520904597237305" lat="17.643613835140442">
        <ele>494.35</ele>
        <time>2024-09-25T11:13:31Z</time>
      </trkpt>
      <trkpt lon="78.520905071844993" lat="17.643615690161162">
        <ele>494.441</ele>
        <time>2024-09-25T11:13:31Z</time>
      </trkpt>
      <trkpt lon="78.520905518385902" lat="17.643617440090964">
        <ele>494.513</ele>
        <time>2024-09-25T11:13:31Z</time>
      </trkpt>
      <trkpt lon="78.520905941065138" lat="17.643619100339016">
        <ele>494.57</ele>
        <time>2024-09-25T11:13:31Z</time>
      </trkpt>
      <trkpt lon="78.520906343881279" lat="17.643620685635561">
        <ele>494.613</ele>
        <time>2024-09-25T11:13:31Z</time>
      </trkpt>
      <trkpt lon="78.520906730538314" lat="17.643622209687464">
        <ele>494.644</ele>
        <time>2024-09-25T11:13:31Z</time>
      </trkpt>
      <trkpt lon="78.520907104389607" lat="17.643623684954147">
        <ele>494.664</ele>
        <time>2024-09-25T11:13:31Z</time>
      </trkpt>
      <trkpt lon="78.520907468407643" lat="17.643625122521978">
        <ele>494.676</ele>
        <time>2024-09-25T11:13:31Z</time>
      </trkpt>
      <trkpt lon="78.520907825174675" lat="17.643626532057286">
        <ele>494.681</ele>
        <time>2024-09-25T11:13:31Z</time>
      </trkpt>
      <trkpt lon="78.520908176889051" lat="17.643627921820229">
        <ele>494.681</ele>
        <time>2024-09-25T11:13:31Z</time>
      </trkpt>
      <trkpt lon="78.520908525383376" lat="17.643629298724125">
        <ele>494.677</ele>
        <time>2024-09-25T11:13:31Z</time>
      </trkpt>
      <trkpt lon="78.520908872150969" lat="17.643630668426923">
        <ele>494.671</ele>
        <time>2024-09-25T11:13:31Z</time>
      </trkpt>
      <trkpt lon="78.520909218377454" lat="17.643632035443758">
        <ele>494.662</ele>
        <time>2024-09-25T11:13:31Z</time>
      </trkpt>
      <trkpt lon="78.520909564975341" lat="17.643633403271494">
        <ele>494.652</ele>
        <time>2024-09-25T11:13:31Z</time>
      </trkpt>
      <trkpt lon="78.520909912619643" lat="17.643634774517952">
        <ele>494.642</ele>
        <time>2024-09-25T11:13:31Z</time>
      </trkpt>
      <trkpt lon="78.520910261782845" lat="17.643636151030229">
        <ele>494.631</ele>
        <time>2024-09-25T11:13:31Z</time>
      </trkpt>
      <trkpt lon="78.520910612768333" lat="17.643637534017813">
        <ele>494.621</ele>
        <time>2024-09-25T11:13:31Z</time>
      </trkpt>
      <trkpt lon="78.52091096574155" lat="17.643638924167554">
        <ele>494.612</ele>
        <time>2024-09-25T11:13:31Z</time>
      </trkpt>
      <trkpt lon="78.520911320758159" lat="17.643640321748475">
        <ele>494.603</ele>
        <time>2024-09-25T11:13:31Z</time>
      </trkpt>
      <trkpt lon="78.520911677789172" lat="17.64364172670529">
        <ele>494.595</ele>
        <time>2024-09-25T11:13:31Z</time>
      </trkpt>
      <trkpt lon="78.520912036742757" lat="17.64364313874017">
        <ele>494.588</ele>
        <time>2024-09-25T11:13:31Z</time>
      </trkpt>
      <trkpt lon="78.520912397482945" lat="17.643644557382796">
        <ele>494.583</ele>
        <time>2024-09-25T11:13:31Z</time>
      </trkpt>
      <trkpt lon="78.520912759845174" lat="17.643645982049147">
        <ele>494.578</ele>
        <time>2024-09-25T11:13:31Z</time>
      </trkpt>
      <trkpt lon="78.520913123649066" lat="17.643647412089784">
        <ele>494.573</ele>
        <time>2024-09-25T11:13:31Z</time>
      </trkpt>
      <trkpt lon="78.520913488708601" lat="17.643648846828505">
        <ele>494.57</ele>
        <time>2024-09-25T11:13:31Z</time>
      </trkpt>
      <trkpt lon="78.520913854839918" lat="17.643650285592422">
        <ele>494.568</ele>
        <time>2024-09-25T11:13:31Z</time>
      </trkpt>
      <trkpt lon="78.520914221867201" lat="17.6436517277345">
        <ele>494.566</ele>
        <time>2024-09-25T11:13:31Z</time>
      </trkpt>
      <trkpt lon="78.520914589626827" lat="17.643653172649685">
        <ele>494.564</ele>
        <time>2024-09-25T11:13:31Z</time>
      </trkpt>
      <trkpt lon="78.52091511818432" lat="17.643655115878715">
        <ele>494.55</ele>
        <time>2024-09-25T11:13:32Z</time>
      </trkpt>
      <trkpt lon="78.52091567864457" lat="17.643657071950319">
        <ele>494.538</ele>
        <time>2024-09-25T11:13:32Z</time>
      </trkpt>
      <trkpt lon="78.520916263496503" lat="17.643659031101855">
        <ele>494.528</ele>
        <time>2024-09-25T11:13:32Z</time>
      </trkpt>
      <trkpt lon="78.520916866231047" lat="17.643660985867125">
        <ele>494.52</ele>
        <time>2024-09-25T11:13:32Z</time>
      </trkpt>
      <trkpt lon="78.520917481320524" lat="17.643662930770329">
        <ele>494.514</ele>
        <time>2024-09-25T11:13:32Z</time>
      </trkpt>
      <trkpt lon="78.520918104169013" lat="17.64366486202622">
        <ele>494.51</ele>
        <time>2024-09-25T11:13:32Z</time>
      </trkpt>
      <trkpt lon="78.520918731042556" lat="17.64366677725538">
        <ele>494.507</ele>
        <time>2024-09-25T11:13:32Z</time>
      </trkpt>
      <trkpt lon="78.52091935898666" lat="17.643668675220756">
        <ele>494.506</ele>
        <time>2024-09-25T11:13:32Z</time>
      </trkpt>
      <trkpt lon="78.520919985737009" lat="17.643670555589395">
        <ele>494.505</ele>
        <time>2024-09-25T11:13:32Z</time>
      </trkpt>
      <trkpt lon="78.520920609628178" lat="17.64367241872143">
        <ele>494.505</ele>
        <time>2024-09-25T11:13:32Z</time>
      </trkpt>
      <trkpt lon="78.52092122950404" lat="17.643674265486943">
        <ele>494.505</ele>
        <time>2024-09-25T11:13:32Z</time>
      </trkpt>
      <trkpt lon="78.520921844632525" lat="17.643676097110209">
        <ele>494.506</ele>
        <time>2024-09-25T11:13:32Z</time>
      </trkpt>
      <trkpt lon="78.520922454626685" lat="17.64367791503998">
        <ele>494.507</ele>
        <time>2024-09-25T11:13:32Z</time>
      </trkpt>
      <trkpt lon="78.520923059373132" lat="17.643679720843913">
        <ele>494.508</ele>
        <time>2024-09-25T11:13:32Z</time>
      </trkpt>
      <trkpt lon="78.520923658968641" lat="17.64368151612485">
        <ele>494.509</ele>
        <time>2024-09-25T11:13:32Z</time>
      </trkpt>
      <trkpt lon="78.520924253665029" lat="17.643683302456491">
        <ele>494.511</ele>
        <time>2024-09-25T11:13:32Z</time>
      </trkpt>
      <trkpt lon="78.520924843822286" lat="17.643685081335914">
        <ele>494.512</ele>
        <time>2024-09-25T11:13:32Z</time>
      </trkpt>
      <trkpt lon="78.520925429869422" lat="17.643686854150445">
        <ele>494.513</ele>
        <time>2024-09-25T11:13:32Z</time>
      </trkpt>
      <trkpt lon="78.520926012272554" lat="17.64368862215651">
        <ele>494.514</ele>
        <time>2024-09-25T11:13:32Z</time>
      </trkpt>
      <trkpt lon="78.520926591509593" lat="17.643690386468208">
        <ele>494.515</ele>
        <time>2024-09-25T11:13:32Z</time>
      </trkpt>
      <trkpt lon="78.520927168050775" lat="17.643692148053667">
        <ele>494.516</ele>
        <time>2024-09-25T11:13:32Z</time>
      </trkpt>
      <trkpt lon="78.520927742344199" lat="17.643693907737354">
        <ele>494.517</ele>
        <time>2024-09-25T11:13:32Z</time>
      </trkpt>
      <trkpt lon="78.520928314805673" lat="17.643695666206821">
        <ele>494.517</ele>
        <time>2024-09-25T11:13:32Z</time>
      </trkpt>
      <trkpt lon="78.520928885812296" lat="17.643697424022516">
        <ele>494.518</ele>
        <time>2024-09-25T11:13:32Z</time>
      </trkpt>
      <trkpt lon="78.520929455698848" lat="17.643699181629618">
        <ele>494.518</ele>
        <time>2024-09-25T11:13:32Z</time>
      </trkpt>
      <trkpt lon="78.520930024756595" lat="17.643700939370959">
        <ele>494.519</ele>
        <time>2024-09-25T11:13:32Z</time>
      </trkpt>
      <trkpt lon="78.520930593233871" lat="17.643702697500309">
        <ele>494.519</ele>
        <time>2024-09-25T11:13:32Z</time>
      </trkpt>
      <trkpt lon="78.520931161338027" lat="17.643704456195483">
        <ele>494.519</ele>
        <time>2024-09-25T11:13:32Z</time>
      </trkpt>
      <trkpt lon="78.520931729238356" lat="17.643706215570873">
        <ele>494.519</ele>
        <time>2024-09-25T11:13:32Z</time>
      </trkpt>
      <trkpt lon="78.520932408498524" lat="17.643708428053376">
        <ele>494.773</ele>
        <time>2024-09-25T11:13:33Z</time>
      </trkpt>
      <trkpt lon="78.520933021482094" lat="17.64371052642133">
        <ele>494.987</ele>
        <time>2024-09-25T11:13:33Z</time>
      </trkpt>
      <trkpt lon="78.520933576992846" lat="17.643712521818994">
        <ele>495.163</ele>
        <time>2024-09-25T11:13:33Z</time>
      </trkpt>
      <trkpt lon="78.520934083663221" lat="17.643714426223141">
        <ele>495.305</ele>
        <time>2024-09-25T11:13:33Z</time>
      </trkpt>
      <trkpt lon="78.520934549696605" lat="17.643716251822166">
        <ele>495.416</ele>
        <time>2024-09-25T11:13:33Z</time>
      </trkpt>
      <trkpt lon="78.520934982688175" lat="17.643718010540702">
        <ele>495.5</ele>
        <time>2024-09-25T11:13:33Z</time>
      </trkpt>
      <trkpt lon="78.520935389510782" lat="17.643719713690402">
        <ele>495.56</ele>
        <time>2024-09-25T11:13:33Z</time>
      </trkpt>
      <trkpt lon="78.520935776254092" lat="17.643721371728034">
        <ele>495.601</ele>
        <time>2024-09-25T11:13:33Z</time>
      </trkpt>
      <trkpt lon="78.520936148205976" lat="17.64372299410276">
        <ele>495.625</ele>
        <time>2024-09-25T11:13:33Z</time>
      </trkpt>
      <trkpt lon="78.520936509866161" lat="17.643724589176045">
        <ele>495.637</ele>
        <time>2024-09-25T11:13:33Z</time>
      </trkpt>
      <trkpt lon="78.520936864984023" lat="17.643726164199048">
        <ele>495.638</ele>
        <time>2024-09-25T11:13:33Z</time>
      </trkpt>
      <trkpt lon="78.520937216613149" lat="17.643727725334127">
        <ele>495.631</ele>
        <time>2024-09-25T11:13:33Z</time>
      </trkpt>
      <trkpt lon="78.520937567176517" lat="17.643729277708882">
        <ele>495.619</ele>
        <time>2024-09-25T11:13:33Z</time>
      </trkpt>
      <trkpt lon="78.520937918537626" lat="17.64373082549281">
        <ele>495.603</ele>
        <time>2024-09-25T11:13:33Z</time>
      </trkpt>
      <trkpt lon="78.520938272073508" lat="17.643732371988381">
        <ele>495.584</ele>
        <time>2024-09-25T11:13:33Z</time>
      </trkpt>
      <trkpt lon="78.520938628746634" lat="17.643733919729794">
        <ele>495.565</ele>
        <time>2024-09-25T11:13:33Z</time>
      </trkpt>
      <trkpt lon="78.520938989173615" lat="17.643735470584097">
        <ele>495.545</ele>
        <time>2024-09-25T11:13:33Z</time>
      </trkpt>
      <trkpt lon="78.520939353688888" lat="17.643737025850594">
        <ele>495.526</ele>
        <time>2024-09-25T11:13:33Z</time>
      </trkpt>
      <trkpt lon="78.520939722402545" lat="17.643738586355489">
        <ele>495.508</ele>
        <time>2024-09-25T11:13:33Z</time>
      </trkpt>
      <trkpt lon="78.520940095251817" lat="17.64374015253966">
        <ele>495.491</ele>
        <time>2024-09-25T11:13:33Z</time>
      </trkpt>
      <trkpt lon="78.520940472045709" lat="17.64374172453822">
        <ele>495.476</ele>
        <time>2024-09-25T11:13:33Z</time>
      </trkpt>
      <trkpt lon="78.520940852503287" lat="17.643743302251085">
        <ele>495.463</ele>
        <time>2024-09-25T11:13:33Z</time>
      </trkpt>
      <trkpt lon="78.520941236285537" lat="17.643744885404356">
        <ele>495.452</ele>
        <time>2024-09-25T11:13:33Z</time>
      </trkpt>
      <trkpt lon="78.520941623021443" lat="17.643746473602629">
        <ele>495.442</ele>
        <time>2024-09-25T11:13:33Z</time>
      </trkpt>
      <trkpt lon="78.520942012328746" lat="17.643748066372627">
        <ele>495.434</ele>
        <time>2024-09-25T11:13:33Z</time>
      </trkpt>
      <trkpt lon="78.520942403829977" lat="17.643749663198825">
        <ele>495.428</ele>
        <time>2024-09-25T11:13:33Z</time>
      </trkpt>
      <trkpt lon="78.520942797164423" lat="17.643751263551742">
        <ele>495.423</ele>
        <time>2024-09-25T11:13:33Z</time>
      </trkpt>
      <trkpt lon="78.520943191996523" lat="17.643752866909761">
        <ele>495.419</ele>
        <time>2024-09-25T11:13:33Z</time>
      </trkpt>
      <trkpt lon="78.520943588021254" lat="17.643754472775317">
        <ele>495.416</ele>
        <time>2024-09-25T11:13:33Z</time>
      </trkpt>
      <trkpt lon="78.520944083474305" lat="17.64375650205643">
        <ele>495.495</ele>
        <time>2024-09-25T11:13:34Z</time>
      </trkpt>
      <trkpt lon="78.520944551196536" lat="17.643758435694377">
        <ele>495.562</ele>
        <time>2024-09-25T11:13:34Z</time>
      </trkpt>
      <trkpt lon="78.520944993949598" lat="17.643760282175197">
        <ele>495.617</ele>
        <time>2024-09-25T11:13:34Z</time>
      </trkpt>
      <trkpt lon="78.520945414682458" lat="17.643762050922675">
        <ele>495.662</ele>
        <time>2024-09-25T11:13:34Z</time>
      </trkpt>
      <trkpt lon="78.520945816382806" lat="17.643763751740217">
        <ele>495.698</ele>
        <time>2024-09-25T11:13:34Z</time>
      </trkpt>
      <trkpt lon="78.520946201963795" lat="17.643765394376917">
        <ele>495.725</ele>
        <time>2024-09-25T11:13:34Z</time>
      </trkpt>
      <trkpt lon="78.520946574181224" lat="17.643766988202358">
        <ele>495.745</ele>
        <time>2024-09-25T11:13:34Z</time>
      </trkpt>
      <trkpt lon="78.520946935576575" lat="17.643768541974648">
        <ele>495.759</ele>
        <time>2024-09-25T11:13:34Z</time>
      </trkpt>
      <trkpt lon="78.520947288441448" lat="17.643770063686787">
        <ele>495.767</ele>
        <time>2024-09-25T11:13:34Z</time>
      </trkpt>
      <trkpt lon="78.520947634799597" lat="17.643771560477447">
        <ele>495.772</ele>
        <time>2024-09-25T11:13:34Z</time>
      </trkpt>
      <trkpt lon="78.520947976402496" lat="17.643773038593359">
        <ele>495.773</ele>
        <time>2024-09-25T11:13:34Z</time>
      </trkpt>
      <trkpt lon="78.520948314735591" lat="17.643774503391978">
        <ele>495.772</ele>
        <time>2024-09-25T11:13:34Z</time>
      </trkpt>
      <trkpt lon="78.520948651032199" lat="17.643775959374317">
        <ele>495.768</ele>
        <time>2024-09-25T11:13:34Z</time>
      </trkpt>
      <trkpt lon="78.520948986292709" lat="17.643777410239498">
        <ele>495.764</ele>
        <time>2024-09-25T11:13:34Z</time>
      </trkpt>
      <trkpt lon="78.520949321307228" lat="17.643778858953688">
        <ele>495.759</ele>
        <time>2024-09-25T11:13:34Z</time>
      </trkpt>
      <trkpt lon="78.520949656679917" lat="17.643780307827537">
        <ele>495.753</ele>
        <time>2024-09-25T11:13:34Z</time>
      </trkpt>
      <trkpt lon="78.520949992853744" lat="17.643781758597299">
        <ele>495.747</ele>
        <time>2024-09-25T11:13:34Z</time>
      </trkpt>
      <trkpt lon="78.520950330134809" lat="17.643783212505944">
        <ele>495.741</ele>
        <time>2024-09-25T11:13:34Z</time>
      </trkpt>
      <trkpt lon="78.520950668715386" lat="17.643784670381439">
        <ele>495.736</ele>
        <time>2024-09-25T11:13:34Z</time>
      </trkpt>
      <trkpt lon="78.520951008695292" lat="17.643786132710154">
        <ele>495.731</ele>
        <time>2024-09-25T11:13:34Z</time>
      </trkpt>
      <trkpt lon="78.520951350101186" lat="17.643787599704059">
        <ele>495.726</ele>
        <time>2024-09-25T11:13:34Z</time>
      </trkpt>
      <trkpt lon="78.520951692903608" lat="17.643789071360924">
        <ele>495.722</ele>
        <time>2024-09-25T11:13:34Z</time>
      </trkpt>
      <trkpt lon="78.52095203703189" lat="17.643790547517135">
        <ele>495.719</ele>
        <time>2024-09-25T11:13:34Z</time>
      </trkpt>
      <trkpt lon="78.520952382386696" lat="17.643792027893092">
        <ele>495.716</ele>
        <time>2024-09-25T11:13:34Z</time>
      </trkpt>
      <trkpt lon="78.52095272885056" lat="17.643793512131481">
        <ele>495.713</ele>
        <time>2024-09-25T11:13:34Z</time>
      </trkpt>
      <trkpt lon="78.520953076296394" lat="17.64379499982882">
        <ele>495.711</ele>
        <time>2024-09-25T11:13:34Z</time>
      </trkpt>
      <trkpt lon="78.52095342459431" lat="17.643796490560828">
        <ele>495.71</ele>
        <time>2024-09-25T11:13:34Z</time>
      </trkpt>
      <trkpt lon="78.520953773616796" lat="17.643797983902282">
        <ele>495.708</ele>
        <time>2024-09-25T11:13:34Z</time>
      </trkpt>
      <trkpt lon="78.520954123242603" lat="17.643799479442023">
        <ele>495.707</ele>
        <time>2024-09-25T11:13:34Z</time>
      </trkpt>
      <trkpt lon="78.520954595463024" lat="17.643801413145994">
        <ele>495.699</ele>
        <time>2024-09-25T11:13:35Z</time>
      </trkpt>
      <trkpt lon="78.520955072464332" lat="17.643803294658444">
        <ele>495.691</ele>
        <time>2024-09-25T11:13:35Z</time>
      </trkpt>
      <trkpt lon="78.520955551599272" lat="17.64380512543077">
        <ele>495.685</ele>
        <time>2024-09-25T11:13:35Z</time>
      </trkpt>
      <trkpt lon="78.52095603079826" lat="17.64380690831922">
        <ele>495.68</ele>
        <time>2024-09-25T11:13:35Z</time>
      </trkpt>
      <trkpt lon="78.520956508498969" lat="17.643808647139831">
        <ele>495.677</ele>
        <time>2024-09-25T11:13:35Z</time>
      </trkpt>
      <trkpt lon="78.520956983575715" lat="17.643810346299624">
        <ele>495.674</ele>
        <time>2024-09-25T11:13:35Z</time>
      </trkpt>
      <trkpt lon="78.520957455271073" lat="17.643812010498067">
        <ele>495.673</ele>
        <time>2024-09-25T11:13:35Z</time>
      </trkpt>
      <trkpt lon="78.520957923131505" lat="17.643813644491868">
        <ele>495.671</ele>
        <time>2024-09-25T11:13:35Z</time>
      </trkpt>
      <trkpt lon="78.520958386948351" lat="17.643815252915672">
        <ele>495.671</ele>
        <time>2024-09-25T11:13:35Z</time>
      </trkpt>
      <trkpt lon="78.520958846704701" lat="17.643816840151182">
        <ele>495.671</ele>
        <time>2024-09-25T11:13:35Z</time>
      </trkpt>
      <trkpt lon="78.520959302528837" lat="17.643818410237234">
        <ele>495.671</ele>
        <time>2024-09-25T11:13:35Z</time>
      </trkpt>
      <trkpt lon="78.520959754654058" lat="17.643819966813954">
        <ele>495.671</ele>
        <time>2024-09-25T11:13:35Z</time>
      </trkpt>
      <trkpt lon="78.520960203384647" lat="17.64382151309449">
        <ele>495.672</ele>
        <time>2024-09-25T11:13:35Z</time>
      </trkpt>
      <trkpt lon="78.520960649067888" lat="17.643823051858536">
        <ele>495.673</ele>
        <time>2024-09-25T11:13:35Z</time>
      </trkpt>
      <trkpt lon="78.520961092071389" lat="17.643824585462514">
        <ele>495.674</ele>
        <time>2024-09-25T11:13:35Z</time>
      </trkpt>
      <trkpt lon="78.520961532765327" lat="17.643826115861934">
        <ele>495.674</ele>
        <time>2024-09-25T11:13:35Z</time>
      </trkpt>
      <trkpt lon="78.520961971508967" lat="17.64382764464218">
        <ele>495.675</ele>
        <time>2024-09-25T11:13:35Z</time>
      </trkpt>
      <trkpt lon="78.520962408640855" lat="17.64382917305457">
        <ele>495.676</ele>
        <time>2024-09-25T11:13:35Z</time>
      </trkpt>
      <trkpt lon="78.520962844472166" lat="17.643830702055148">
        <ele>495.677</ele>
        <time>2024-09-25T11:13:35Z</time>
      </trkpt>
      <trkpt lon="78.520963279282611" lat="17.64383223234416">
        <ele>495.677</ele>
        <time>2024-09-25T11:13:35Z</time>
      </trkpt>
      <trkpt lon="78.520963713318551" lat="17.643833764404722">
        <ele>495.678</ele>
        <time>2024-09-25T11:13:35Z</time>
      </trkpt>
      <trkpt lon="78.520964146792537" lat="17.643835298539486">
        <ele>495.678</ele>
        <time>2024-09-25T11:13:35Z</time>
      </trkpt>
      <trkpt lon="78.52096457988435" lat="17.643836834904569">
        <ele>495.679</ele>
        <time>2024-09-25T11:13:35Z</time>
      </trkpt>
      <trkpt lon="78.520965012742749" lat="17.643838373540188">
        <ele>495.679</ele>
        <time>2024-09-25T11:13:35Z</time>
      </trkpt>
      <trkpt lon="78.520965445488017" lat="17.643839914397812">
        <ele>495.679</ele>
        <time>2024-09-25T11:13:35Z</time>
      </trkpt>
      <trkpt lon="78.520965878214724" lat="17.643841457363685">
        <ele>495.679</ele>
        <time>2024-09-25T11:13:35Z</time>
      </trkpt>
      <trkpt lon="78.520966310994822" lat="17.643843002278842">
        <ele>495.68</ele>
        <time>2024-09-25T11:13:35Z</time>
      </trkpt>
      <trkpt lon="78.520966743880663" lat="17.643844548955755">
        <ele>495.68</ele>
        <time>2024-09-25T11:13:35Z</time>
      </trkpt>
      <trkpt lon="78.520967176908087" lat="17.643846097191876">
        <ele>495.68</ele>
        <time>2024-09-25T11:13:35Z</time>
      </trkpt>
      <trkpt lon="78.520967729581002" lat="17.643848110006651">
        <ele>495.719</ele>
        <time>2024-09-25T11:13:36Z</time>
      </trkpt>
      <trkpt lon="78.520968261014033" lat="17.643850077986645">
        <ele>495.752</ele>
        <time>2024-09-25T11:13:36Z</time>
      </trkpt>
      <trkpt lon="78.520968772751345" lat="17.643852001091616">
        <ele>495.78</ele>
        <time>2024-09-25T11:13:36Z</time>
      </trkpt>
      <trkpt lon="78.520969266641004" lat="17.643853880849701">
        <ele>495.802</ele>
        <time>2024-09-25T11:13:36Z</time>
      </trkpt>
      <trkpt lon="78.520969744695904" lat="17.643855719918225">
        <ele>495.819</ele>
        <time>2024-09-25T11:13:36Z</time>
      </trkpt>
      <trkpt lon="78.520970208983371" lat="17.643857521713429">
        <ele>495.832</ele>
        <time>2024-09-25T11:13:36Z</time>
      </trkpt>
      <trkpt lon="78.520970661539906" lat="17.643859290104995">
        <ele>495.842</ele>
        <time>2024-09-25T11:13:36Z</time>
      </trkpt>
      <trkpt lon="78.520971104308032" lat="17.643861029170029">
        <ele>495.848</ele>
        <time>2024-09-25T11:13:36Z</time>
      </trkpt>
      <trkpt lon="78.520971539092002" lat="17.643862743000394">
        <ele>495.852</ele>
        <time>2024-09-25T11:13:36Z</time>
      </trkpt>
      <trkpt lon="78.520971967529192" lat="17.643864435556981">
        <ele>495.853</ele>
        <time>2024-09-25T11:13:36Z</time>
      </trkpt>
      <trkpt lon="78.520972391074281" lat="17.643866110564385">
        <ele>495.854</ele>
        <time>2024-09-25T11:13:36Z</time>
      </trkpt>
      <trkpt lon="78.52097281099374" lat="17.643867771439727">
        <ele>495.853</ele>
        <time>2024-09-25T11:13:36Z</time>
      </trkpt>
      <trkpt lon="78.520973228368149" lat="17.643869421249683">
        <ele>495.851</ele>
        <time>2024-09-25T11:13:36Z</time>
      </trkpt>
      <trkpt lon="78.520973644100465" lat="17.643871062690248">
        <ele>495.848</ele>
        <time>2024-09-25T11:13:36Z</time>
      </trkpt>
      <trkpt lon="78.520974058928388" lat="17.643872698084369">
        <ele>495.845</ele>
        <time>2024-09-25T11:13:36Z</time>
      </trkpt>
      <trkpt lon="78.520974473439395" lat="17.643874329393107">
        <ele>495.842</ele>
        <time>2024-09-25T11:13:36Z</time>
      </trkpt>
      <trkpt lon="78.52097488808738" lat="17.643875958236617">
        <ele>495.839</ele>
        <time>2024-09-25T11:13:36Z</time>
      </trkpt>
      <trkpt lon="78.520975303209696" lat="17.643877585921814">
        <ele>495.836</ele>
        <time>2024-09-25T11:13:36Z</time>
      </trkpt>
      <trkpt lon="78.520975719044188" lat="17.643879213474101">
        <ele>495.833</ele>
        <time>2024-09-25T11:13:36Z</time>
      </trkpt>
      <trkpt lon="78.520976135745414" lat="17.643880841671056">
        <ele>495.831</ele>
        <time>2024-09-25T11:13:36Z</time>
      </trkpt>
      <trkpt lon="78.520976553399791" lat="17.643882471076441">
        <ele>495.828</ele>
        <time>2024-09-25T11:13:36Z</time>
      </trkpt>
      <trkpt lon="78.520976972039335" lat="17.643884102073262">
        <ele>495.826</ele>
        <time>2024-09-25T11:13:36Z</time>
      </trkpt>
      <trkpt lon="78.520977391654" lat="17.643885734894965">
        <ele>495.825</ele>
        <time>2024-09-25T11:13:36Z</time>
      </trkpt>
      <trkpt lon="78.520977812202318" lat="17.643887369654149">
        <ele>495.823</ele>
        <time>2024-09-25T11:13:36Z</time>
      </trkpt>
      <trkpt lon="78.52097823362061" lat="17.643889006368404">
        <ele>495.822</ele>
        <time>2024-09-25T11:13:36Z</time>
      </trkpt>
      <trkpt lon="78.520978655830689" lat="17.643890644983099">
        <ele>495.821</ele>
        <time>2024-09-25T11:13:36Z</time>
      </trkpt>
      <trkpt lon="78.520979078746095" lat="17.64389228539104">
        <ele>495.82</ele>
        <time>2024-09-25T11:13:36Z</time>
      </trkpt>
      <trkpt lon="78.520979502277143" lat="17.643893927449152">
        <ele>495.819</ele>
        <time>2024-09-25T11:13:36Z</time>
      </trkpt>
      <trkpt lon="78.52097992633486" lat="17.643895570992278">
        <ele>495.819</ele>
        <time>2024-09-25T11:13:36Z</time>
      </trkpt>
      <trkpt lon="78.520980460951989" lat="17.643897661841258">
        <ele>495.842</ele>
        <time>2024-09-25T11:13:37Z</time>
      </trkpt>
      <trkpt lon="78.520980969247105" lat="17.643899666443208">
        <ele>495.862</ele>
        <time>2024-09-25T11:13:37Z</time>
      </trkpt>
      <trkpt lon="78.520981453661463" lat="17.64390159155105">
        <ele>495.879</ele>
        <time>2024-09-25T11:13:37Z</time>
      </trkpt>
      <trkpt lon="78.520981916864685" lat="17.64390344501599">
        <ele>495.892</ele>
        <time>2024-09-25T11:13:37Z</time>
      </trkpt>
      <trkpt lon="78.520982361605803" lat="17.643905235244485">
        <ele>495.902</ele>
        <time>2024-09-25T11:13:37Z</time>
      </trkpt>
      <trkpt lon="78.520982790598239" lat="17.643906970769589">
        <ele>495.91</ele>
        <time>2024-09-25T11:13:37Z</time>
      </trkpt>
      <trkpt lon="78.520983206434366" lat="17.643908659923444">
        <ele>495.916</ele>
        <time>2024-09-25T11:13:37Z</time>
      </trkpt>
      <trkpt lon="78.520983611525267" lat="17.643910310597381">
        <ele>495.92</ele>
        <time>2024-09-25T11:13:37Z</time>
      </trkpt>
      <trkpt lon="78.520984008061617" lat="17.643911930076374">
        <ele>495.922</ele>
        <time>2024-09-25T11:13:37Z</time>
      </trkpt>
      <trkpt lon="78.520984397991867" lat="17.643913524935321">
        <ele>495.923</ele>
        <time>2024-09-25T11:13:37Z</time>
      </trkpt>
      <trkpt lon="78.5209847830142" lat="17.643915100985513">
        <ele>495.924</ele>
        <time>2024-09-25T11:13:37Z</time>
      </trkpt>
      <trkpt lon="78.520985164579201" lat="17.643916663260804">
        <ele>495.923</ele>
        <time>2024-09-25T11:13:37Z</time>
      </trkpt>
      <trkpt lon="78.520985543900423" lat="17.643918216034173">
        <ele>495.922</ele>
        <time>2024-09-25T11:13:37Z</time>
      </trkpt>
      <trkpt lon="78.520985921970563" lat="17.643919762856662">
        <ele>495.921</ele>
        <time>2024-09-25T11:13:37Z</time>
      </trkpt>
      <trkpt lon="78.520986299581395" lat="17.643921306611759">
        <ele>495.919</ele>
        <time>2024-09-25T11:13:37Z</time>
      </trkpt>
      <trkpt lon="78.520986677345704" lat="17.64392284957961">
        <ele>495.917</ele>
        <time>2024-09-25T11:13:37Z</time>
      </trkpt>
      <trkpt lon="78.520987055720113" lat="17.643924393506378">
        <ele>495.916</ele>
        <time>2024-09-25T11:13:37Z</time>
      </trkpt>
      <trkpt lon="78.520987435027607" lat="17.643925939675029">
        <ele>495.914</ele>
        <time>2024-09-25T11:13:37Z</time>
      </trkpt>
      <trkpt lon="78.520987815479288" lat="17.643927488974832">
        <ele>495.912</ele>
        <time>2024-09-25T11:13:37Z</time>
      </trkpt>
      <trkpt lon="78.520988197194541" lat="17.643929041967397">
        <ele>495.911</ele>
        <time>2024-09-25T11:13:37Z</time>
      </trkpt>
      <trkpt lon="78.520988580219466" lat="17.643930598947815">
        <ele>495.909</ele>
        <time>2024-09-25T11:13:37Z</time>
      </trkpt>
      <trkpt lon="78.520988964543335" lat="17.643932160000041">
        <ele>495.908</ele>
        <time>2024-09-25T11:13:37Z</time>
      </trkpt>
      <trkpt lon="78.520989350112956" lat="17.643933725045954">
        <ele>495.907</ele>
        <time>2024-09-25T11:13:37Z</time>
      </trkpt>
      <trkpt lon="78.520989736844967" lat="17.643935293887971">
        <ele>495.906</ele>
        <time>2024-09-25T11:13:37Z</time>
      </trkpt>
      <trkpt lon="78.520990124636157" lat="17.643936866245312">
        <ele>495.905</ele>
        <time>2024-09-25T11:13:37Z</time>
      </trkpt>
      <trkpt lon="78.520990513371942" lat="17.643938441784233">
        <ele>495.905</ele>
        <time>2024-09-25T11:13:37Z</time>
      </trkpt>
      <trkpt lon="78.520990902933136" lat="17.643940020142665">
        <ele>495.904</ele>
        <time>2024-09-25T11:13:37Z</time>
      </trkpt>
      <trkpt lon="78.520991293201249" lat="17.643941600949752">
        <ele>495.904</ele>
        <time>2024-09-25T11:13:37Z</time>
      </trkpt>
      <trkpt lon="78.520991684062366" lat="17.6439431838409">
        <ele>495.904</ele>
        <time>2024-09-25T11:13:37Z</time>
      </trkpt>
      <trkpt lon="78.520992197139236" lat="17.643945271116692">
        <ele>495.806</ele>
        <time>2024-09-25T11:13:38Z</time>
      </trkpt>
      <trkpt lon="78.520992703070505" lat="17.643947337399425">
        <ele>495.723</ele>
        <time>2024-09-25T11:13:38Z</time>
      </trkpt>
      <trkpt lon="78.520993201094086" lat="17.643949378239082">
        <ele>495.655</ele>
        <time>2024-09-25T11:13:38Z</time>
      </trkpt>
      <trkpt lon="78.520993690910089" lat="17.643951391164787">
        <ele>495.6</ele>
        <time>2024-09-25T11:13:38Z</time>
      </trkpt>
      <trkpt lon="78.520994172577488" lat="17.64395337528337">
        <ele>495.557</ele>
        <time>2024-09-25T11:13:38Z</time>
      </trkpt>
      <trkpt lon="78.520994646423773" lat="17.643955330922001">
        <ele>495.525</ele>
        <time>2024-09-25T11:13:38Z</time>
      </trkpt>
      <trkpt lon="78.520995112967384" lat="17.643957259316377">
        <ele>495.501</ele>
        <time>2024-09-25T11:13:38Z</time>
      </trkpt>
      <trkpt lon="78.520995572852783" lat="17.643959162344153">
        <ele>495.486</ele>
        <time>2024-09-25T11:13:38Z</time>
      </trkpt>
      <trkpt lon="78.520996026796979" lat="17.643961042301697">
        <ele>495.476</ele>
        <time>2024-09-25T11:13:38Z</time>
      </trkpt>
      <trkpt lon="78.520996475546823" lat="17.643962901721252">
        <ele>495.472</ele>
        <time>2024-09-25T11:13:38Z</time>
      </trkpt>
      <trkpt lon="78.520996919845672" lat="17.643964743224924">
        <ele>495.471</ele>
        <time>2024-09-25T11:13:38Z</time>
      </trkpt>
      <trkpt lon="78.520997360408472" lat="17.643966569411496">
        <ele>495.474</ele>
        <time>2024-09-25T11:13:38Z</time>
      </trkpt>
      <trkpt lon="78.520997797903902" lat="17.643968382771927">
        <ele>495.479</ele>
        <time>2024-09-25T11:13:38Z</time>
      </trkpt>
      <trkpt lon="78.52099823294256" lat="17.643970185629374">
        <ele>495.485</ele>
        <time>2024-09-25T11:13:38Z</time>
      </trkpt>
      <trkpt lon="78.520998666070028" lat="17.643971980099831">
        <ele>495.492</ele>
        <time>2024-09-25T11:13:38Z</time>
      </trkpt>
      <trkpt lon="78.52099909776399" lat="17.643973768069632">
        <ele>495.5</ele>
        <time>2024-09-25T11:13:38Z</time>
      </trkpt>
      <trkpt lon="78.520999528434274" lat="17.643975551186497">
        <ele>495.508</ele>
        <time>2024-09-25T11:13:38Z</time>
      </trkpt>
      <trkpt lon="78.520999958425364" lat="17.643977330861034">
        <ele>495.515</ele>
        <time>2024-09-25T11:13:38Z</time>
      </trkpt>
      <trkpt lon="78.521000388020553" lat="17.643979108276127">
        <ele>495.522</ele>
        <time>2024-09-25T11:13:38Z</time>
      </trkpt>
      <trkpt lon="78.521000817447117" lat="17.64398088440193">
        <ele>495.528</ele>
        <time>2024-09-25T11:13:38Z</time>
      </trkpt>
      <trkpt lon="78.521001246882264" lat="17.64398266001453">
        <ele>495.534</ele>
        <time>2024-09-25T11:13:38Z</time>
      </trkpt>
      <trkpt lon="78.52100167645925" lat="17.643984435716774">
        <ele>495.539</ele>
        <time>2024-09-25T11:13:38Z</time>
      </trkpt>
      <trkpt lon="78.521002106273627" lat="17.643986211959991">
        <ele>495.544</ele>
        <time>2024-09-25T11:13:38Z</time>
      </trkpt>
      <trkpt lon="78.521002536389133" lat="17.643987989065604">
        <ele>495.547</ele>
        <time>2024-09-25T11:13:38Z</time>
      </trkpt>
      <trkpt lon="78.521002966843398" lat="17.643989767245966">
        <ele>495.551</ele>
        <time>2024-09-25T11:13:38Z</time>
      </trkpt>
      <trkpt lon="78.521003397653018" lat="17.643991546623816">
        <ele>495.553</ele>
        <time>2024-09-25T11:13:38Z</time>
      </trkpt>
      <trkpt lon="78.521003828818166" lat="17.643993327250101">
        <ele>495.555</ele>
        <time>2024-09-25T11:13:38Z</time>
      </trkpt>
      <trkpt lon="78.521004260326592" lat="17.643995109119864">
        <ele>495.557</ele>
        <time>2024-09-25T11:13:38Z</time>
      </trkpt>
      <trkpt lon="78.521004692157192" lat="17.643996892186177">
        <ele>495.558</ele>
        <time>2024-09-25T11:13:38Z</time>
      </trkpt>
      <trkpt lon="78.521005238520942" lat="17.643999155329549">
        <ele>495.852</ele>
        <time>2024-09-25T11:13:39Z</time>
      </trkpt>
      <trkpt lon="78.521005759690127" lat="17.644001320472711">
        <ele>496.101</ele>
        <time>2024-09-25T11:13:39Z</time>
      </trkpt>
      <trkpt lon="78.52100625789069" lat="17.644003395761466">
        <ele>496.305</ele>
        <time>2024-09-25T11:13:39Z</time>
      </trkpt>
      <trkpt lon="78.521006735598277" lat="17.644005390456801">
        <ele>496.47</ele>
        <time>2024-09-25T11:13:39Z</time>
      </trkpt>
      <trkpt lon="78.521007195390737" lat="17.644007314338729">
        <ele>496.598</ele>
        <time>2024-09-25T11:13:39Z</time>
      </trkpt>
      <trkpt lon="78.521007639833499" lat="17.64400917723885">
        <ele>496.695</ele>
        <time>2024-09-25T11:13:39Z</time>
      </trkpt>
      <trkpt lon="78.521008071393496" lat="17.644010988686215">
        <ele>496.765</ele>
        <time>2024-09-25T11:13:39Z</time>
      </trkpt>
      <trkpt lon="78.521008492377746" lat="17.644012757650884">
        <ele>496.812</ele>
        <time>2024-09-25T11:13:39Z</time>
      </trkpt>
      <trkpt lon="78.521008904892568" lat="17.644014492370005">
        <ele>496.841</ele>
        <time>2024-09-25T11:13:39Z</time>
      </trkpt>
      <trkpt lon="78.52100931081992" lat="17.644016200242181">
        <ele>496.854</ele>
        <time>2024-09-25T11:13:39Z</time>
      </trkpt>
      <trkpt lon="78.521009711807224" lat="17.644017887776965">
        <ele>496.855</ele>
        <time>2024-09-25T11:13:39Z</time>
      </trkpt>
      <trkpt lon="78.521010109267877" lat="17.644019560587655">
        <ele>496.847</ele>
        <time>2024-09-25T11:13:39Z</time>
      </trkpt>
      <trkpt lon="78.521010504389807" lat="17.644021223416996">
        <ele>496.832</ele>
        <time>2024-09-25T11:13:39Z</time>
      </trkpt>
      <trkpt lon="78.521010898149683" lat="17.644022880186789">
        <ele>496.813</ele>
        <time>2024-09-25T11:13:39Z</time>
      </trkpt>
      <trkpt lon="78.521011291331078" lat="17.644024534063785">
        <ele>496.792</ele>
        <time>2024-09-25T11:13:39Z</time>
      </trkpt>
      <trkpt lon="78.521011684544732" lat="17.644026187535601">
        <ele>496.769</ele>
        <time>2024-09-25T11:13:39Z</time>
      </trkpt>
      <trkpt lon="78.521012078249925" lat="17.644027842491507">
        <ele>496.746</ele>
        <time>2024-09-25T11:13:39Z</time>
      </trkpt>
      <trkpt lon="78.521012472775766" lat="17.644029500304125">
        <ele>496.723</ele>
        <time>2024-09-25T11:13:39Z</time>
      </trkpt>
      <trkpt lon="78.521012868341884" lat="17.644031161908952">
        <ele>496.702</ele>
        <time>2024-09-25T11:13:39Z</time>
      </trkpt>
      <trkpt lon="78.521013265077684" lat="17.644032827879478">
        <ele>496.683</ele>
        <time>2024-09-25T11:13:39Z</time>
      </trkpt>
      <trkpt lon="78.521013663040094" lat="17.644034498496385">
        <ele>496.666</ele>
        <time>2024-09-25T11:13:39Z</time>
      </trkpt>
      <trkpt lon="78.52101406222944" lat="17.644036173809905">
        <ele>496.65</ele>
        <time>2024-09-25T11:13:39Z</time>
      </trkpt>
      <trkpt lon="78.521014462603347" lat="17.64403785369478">
        <ele>496.637</ele>
        <time>2024-09-25T11:13:39Z</time>
      </trkpt>
      <trkpt lon="78.521014864088713" lat="17.644039537897839">
        <ele>496.626</ele>
        <time>2024-09-25T11:13:39Z</time>
      </trkpt>
      <trkpt lon="78.521015266591888" lat="17.644041226078272">
        <ele>496.617</ele>
        <time>2024-09-25T11:13:39Z</time>
      </trkpt>
      <trkpt lon="78.521015670006875" lat="17.644042917841038">
        <ele>496.609</ele>
        <time>2024-09-25T11:13:39Z</time>
      </trkpt>
      <trkpt lon="78.521016074222132" lat="17.644044612763938">
        <ele>496.603</ele>
        <time>2024-09-25T11:13:39Z</time>
      </trkpt>
      <trkpt lon="78.521016479125791" lat="17.644046310418965">
        <ele>496.599</ele>
        <time>2024-09-25T11:13:39Z</time>
      </trkpt>
      <trkpt lon="78.521016884609594" lat="17.644048010388595">
        <ele>496.596</ele>
        <time>2024-09-25T11:13:39Z</time>
      </trkpt>
      <trkpt lon="78.521017406214511" lat="17.644050180466788">
        <ele>496.642</ele>
        <time>2024-09-25T11:13:40Z</time>
      </trkpt>
      <trkpt lon="78.521017911420273" lat="17.6440522676927">
        <ele>496.681</ele>
        <time>2024-09-25T11:13:40Z</time>
      </trkpt>
      <trkpt lon="78.521018401015596" lat="17.644054277857663">
        <ele>496.714</ele>
        <time>2024-09-25T11:13:40Z</time>
      </trkpt>
      <trkpt lon="78.52101887613712" lat="17.644056218003524">
        <ele>496.74</ele>
        <time>2024-09-25T11:13:40Z</time>
      </trkpt>
      <trkpt lon="78.521019338144356" lat="17.644058095870228">
        <ele>496.762</ele>
        <time>2024-09-25T11:13:40Z</time>
      </trkpt>
      <trkpt lon="78.521019788517535" lat="17.644059919455163">
        <ele>496.778</ele>
        <time>2024-09-25T11:13:40Z</time>
      </trkpt>
      <trkpt lon="78.521020228776564" lat="17.644061696672033">
        <ele>496.791</ele>
        <time>2024-09-25T11:13:40Z</time>
      </trkpt>
      <trkpt lon="78.521020660418415" lat="17.644063435096641">
        <ele>496.799</ele>
        <time>2024-09-25T11:13:40Z</time>
      </trkpt>
      <trkpt lon="78.521021084870767" lat="17.64406514178695">
        <ele>496.805</ele>
        <time>2024-09-25T11:13:40Z</time>
      </trkpt>
      <trkpt lon="78.521021503459522" lat="17.64406682316547">
        <ele>496.808</ele>
        <time>2024-09-25T11:13:40Z</time>
      </trkpt>
      <trkpt lon="78.521021917387813" lat="17.644068484952641">
        <ele>496.809</ele>
        <time>2024-09-25T11:13:40Z</time>
      </trkpt>
      <trkpt lon="78.521022327724438" lat="17.64407013214101">
        <ele>496.809</ele>
        <time>2024-09-25T11:13:40Z</time>
      </trkpt>
      <trkpt lon="78.521022735399796" lat="17.644071769001034">
        <ele>496.807</ele>
        <time>2024-09-25T11:13:40Z</time>
      </trkpt>
      <trkpt lon="78.521023141207664" lat="17.644073399110546">
        <ele>496.805</ele>
        <time>2024-09-25T11:13:40Z</time>
      </trkpt>
      <trkpt lon="78.521023545811261" lat="17.644075025401012">
        <ele>496.802</ele>
        <time>2024-09-25T11:13:40Z</time>
      </trkpt>
      <trkpt lon="78.521023949752362" lat="17.644076650214849">
        <ele>496.799</ele>
        <time>2024-09-25T11:13:40Z</time>
      </trkpt>
      <trkpt lon="78.521024353462337" lat="17.644078275369086">
        <ele>496.796</ele>
        <time>2024-09-25T11:13:40Z</time>
      </trkpt>
      <trkpt lon="78.521024757274432" lat="17.644079902221609">
        <ele>496.793</ele>
        <time>2024-09-25T11:13:40Z</time>
      </trkpt>
      <trkpt lon="78.521025161436285" lat="17.644081531737029">
        <ele>496.79</ele>
        <time>2024-09-25T11:13:40Z</time>
      </trkpt>
      <trkpt lon="78.521025566122432" lat="17.644083164550015">
        <ele>496.787</ele>
        <time>2024-09-25T11:13:40Z</time>
      </trkpt>
      <trkpt lon="78.521025971446235" lat="17.644084801024455">
        <ele>496.784</ele>
        <time>2024-09-25T11:13:40Z</time>
      </trkpt>
      <trkpt lon="78.52102637747096" lat="17.644086441307515">
        <ele>496.782</ele>
        <time>2024-09-25T11:13:40Z</time>
      </trkpt>
      <trkpt lon="78.521026784220027" lat="17.644088085377838">
        <ele>496.78</ele>
        <time>2024-09-25T11:13:40Z</time>
      </trkpt>
      <trkpt lon="78.521027191685889" lat="17.64408973308781">
        <ele>496.778</ele>
        <time>2024-09-25T11:13:40Z</time>
      </trkpt>
      <trkpt lon="78.52102759983795" lat="17.644091384199754">
        <ele>496.776</ele>
        <time>2024-09-25T11:13:40Z</time>
      </trkpt>
      <trkpt lon="78.521028008629358" lat="17.644093038416358">
        <ele>496.775</ele>
        <time>2024-09-25T11:13:40Z</time>
      </trkpt>
      <trkpt lon="78.521028418002572" lat="17.644094695405684">
        <ele>496.774</ele>
        <time>2024-09-25T11:13:40Z</time>
      </trkpt>
      <trkpt lon="78.521028827894" lat="17.644096354821208">
        <ele>496.774</ele>
        <time>2024-09-25T11:13:40Z</time>
      </trkpt>
      <trkpt lon="78.52102923823773" lat="17.644098016317471">
        <ele>496.773</ele>
        <time>2024-09-25T11:13:40Z</time>
      </trkpt>
      <trkpt lon="78.521029745789846" lat="17.644100135484315">
        <ele>496.676</ele>
        <time>2024-09-25T11:13:41Z</time>
      </trkpt>
      <trkpt lon="78.521030219616378" lat="17.644102172111602">
        <ele>496.594</ele>
        <time>2024-09-25T11:13:41Z</time>
      </trkpt>
      <trkpt lon="78.521030663534461" lat="17.644104132154414">
        <ele>496.527</ele>
        <time>2024-09-25T11:13:41Z</time>
      </trkpt>
      <trkpt lon="78.521031081460166" lat="17.644106022761491">
        <ele>496.473</ele>
        <time>2024-09-25T11:13:41Z</time>
      </trkpt>
      <trkpt lon="78.521031477248201" lat="17.644107851733096">
        <ele>496.431</ele>
        <time>2024-09-25T11:13:41Z</time>
      </trkpt>
      <trkpt lon="78.521031854573138" lat="17.64410962708973">
        <ele>496.399</ele>
        <time>2024-09-25T11:13:41Z</time>
      </trkpt>
      <trkpt lon="78.521032216846109" lat="17.644111356739369">
        <ele>496.376</ele>
        <time>2024-09-25T11:13:41Z</time>
      </trkpt>
      <trkpt lon="78.521032567161214" lat="17.644113048230526">
        <ele>496.361</ele>
        <time>2024-09-25T11:13:41Z</time>
      </trkpt>
      <trkpt lon="78.521032908266136" lat="17.644114708578591">
        <ele>496.351</ele>
        <time>2024-09-25T11:13:41Z</time>
      </trkpt>
      <trkpt lon="78.521033242551979" lat="17.644116344153449">
        <ele>496.347</ele>
        <time>2024-09-25T11:13:41Z</time>
      </trkpt>
      <trkpt lon="78.521033572058002" lat="17.644117960617166">
        <ele>496.347</ele>
        <time>2024-09-25T11:13:41Z</time>
      </trkpt>
      <trkpt lon="78.521033898487431" lat="17.644119562901604">
        <ele>496.35</ele>
        <time>2024-09-25T11:13:41Z</time>
      </trkpt>
      <trkpt lon="78.521034223231041" lat="17.644121155216911">
        <ele>496.354</ele>
        <time>2024-09-25T11:13:41Z</time>
      </trkpt>
      <trkpt lon="78.521034547395757" lat="17.644122741082988">
        <ele>496.361</ele>
        <time>2024-09-25T11:13:41Z</time>
      </trkpt>
      <trkpt lon="78.521034871836122" lat="17.644124323377152">
        <ele>496.368</ele>
        <time>2024-09-25T11:13:41Z</time>
      </trkpt>
      <trkpt lon="78.521035197186706" lat="17.644125904392428">
        <ele>496.375</ele>
        <time>2024-09-25T11:13:41Z</time>
      </trkpt>
      <trkpt lon="78.521035523894255" lat="17.644127485901748">
        <ele>496.383</ele>
        <time>2024-09-25T11:13:41Z</time>
      </trkpt>
      <trkpt lon="78.521035852248417" lat="17.644129069224416">
        <ele>496.39</ele>
        <time>2024-09-25T11:13:41Z</time>
      </trkpt>
      <trkpt lon="78.521036182410327" lat="17.644130655291967">
        <ele>496.397</ele>
        <time>2024-09-25T11:13:41Z</time>
      </trkpt>
      <trkpt lon="78.521036514438677" lat="17.644132244711283">
        <ele>496.403</ele>
        <time>2024-09-25T11:13:41Z</time>
      </trkpt>
      <trkpt lon="78.521036848312917" lat="17.644133837823439">
        <ele>496.409</ele>
        <time>2024-09-25T11:13:41Z</time>
      </trkpt>
      <trkpt lon="78.52103718395341" lat="17.644135434757285">
        <ele>496.414</ele>
        <time>2024-09-25T11:13:41Z</time>
      </trkpt>
      <trkpt lon="78.52103752123881" lat="17.644137035477236">
        <ele>496.419</ele>
        <time>2024-09-25T11:13:41Z</time>
      </trkpt>
      <trkpt lon="78.521037860020513" lat="17.64413863982498">
        <ele>496.422</ele>
        <time>2024-09-25T11:13:41Z</time>
      </trkpt>
      <trkpt lon="78.521038200134512" lat="17.644140247555178">
        <ele>496.425</ele>
        <time>2024-09-25T11:13:41Z</time>
      </trkpt>
      <trkpt lon="78.521038541410945" lat="17.644141858365437">
        <ele>496.428</ele>
        <time>2024-09-25T11:13:41Z</time>
      </trkpt>
      <trkpt lon="78.521038883681371" lat="17.644143471920824">
        <ele>496.43</ele>
        <time>2024-09-25T11:13:41Z</time>
      </trkpt>
      <trkpt lon="78.52103922678431" lat="17.644145087873536">
        <ele>496.431</ele>
        <time>2024-09-25T11:13:41Z</time>
      </trkpt>
      <trkpt lon="78.521039570569116" lat="17.644146705878132">
        <ele>496.432</ele>
        <time>2024-09-25T11:13:41Z</time>
      </trkpt>
      <trkpt lon="78.521039997955285" lat="17.644148779278176">
        <ele>496.392</ele>
        <time>2024-09-25T11:13:42Z</time>
      </trkpt>
      <trkpt lon="78.521040398935412" lat="17.64415078048529">
        <ele>496.358</ele>
        <time>2024-09-25T11:13:42Z</time>
      </trkpt>
      <trkpt lon="78.521040776352834" lat="17.644152713859654">
        <ele>496.33</ele>
        <time>2024-09-25T11:13:42Z</time>
      </trkpt>
      <trkpt lon="78.521041133169177" lat="17.644154585043808">
        <ele>496.307</ele>
        <time>2024-09-25T11:13:42Z</time>
      </trkpt>
      <trkpt lon="78.521041472332442" lat="17.644156400450985">
        <ele>496.29</ele>
        <time>2024-09-25T11:13:42Z</time>
      </trkpt>
      <trkpt lon="78.521041796677949" lat="17.644158166852662">
        <ele>496.276</ele>
        <time>2024-09-25T11:13:42Z</time>
      </trkpt>
      <trkpt lon="78.521042108857614" lat="17.6441598910552">
        <ele>496.266</ele>
        <time>2024-09-25T11:13:42Z</time>
      </trkpt>
      <trkpt lon="78.521042411292996" lat="17.644161579654874">
        <ele>496.259</ele>
        <time>2024-09-25T11:13:42Z</time>
      </trkpt>
      <trkpt lon="78.521042706147924" lat="17.644163238860511">
        <ele>496.255</ele>
        <time>2024-09-25T11:13:42Z</time>
      </trkpt>
      <trkpt lon="78.521042995316762" lat="17.644164874373242">
        <ele>496.253</ele>
        <time>2024-09-25T11:13:42Z</time>
      </trkpt>
      <trkpt lon="78.521043280425019" lat="17.644166491313506">
        <ele>496.252</ele>
        <time>2024-09-25T11:13:42Z</time>
      </trkpt>
      <trkpt lon="78.521043562839012" lat="17.64416809418617">
        <ele>496.253</ele>
        <time>2024-09-25T11:13:42Z</time>
      </trkpt>
      <trkpt lon="78.521043843682293" lat="17.644169686875635">
        <ele>496.254</ele>
        <time>2024-09-25T11:13:42Z</time>
      </trkpt>
      <trkpt lon="78.521044123856342" lat="17.644171272663662">
        <ele>496.257</ele>
        <time>2024-09-25T11:13:42Z</time>
      </trkpt>
      <trkpt lon="78.521044404063971" lat="17.644172854263783">
        <ele>496.26</ele>
        <time>2024-09-25T11:13:42Z</time>
      </trkpt>
      <trkpt lon="78.521044684833768" lat="17.64417443386694">
        <ele>496.262</ele>
        <time>2024-09-25T11:13:42Z</time>
      </trkpt>
      <trkpt lon="78.521044966544693" lat="17.644176013194055">
        <ele>496.265</ele>
        <time>2024-09-25T11:13:42Z</time>
      </trkpt>
      <trkpt lon="78.521045249449742" lat="17.644177593551966">
        <ele>496.268</ele>
        <time>2024-09-25T11:13:42Z</time>
      </trkpt>
      <trkpt lon="78.521045533698114" lat="17.644179175889999">
        <ele>496.271</ele>
        <time>2024-09-25T11:13:42Z</time>
      </trkpt>
      <trkpt lon="78.521045819355663" lat="17.64418076085499">
        <ele>496.274</ele>
        <time>2024-09-25T11:13:42Z</time>
      </trkpt>
      <trkpt lon="78.521046106423086" lat="17.644182348843312">
        <ele>496.276</ele>
        <time>2024-09-25T11:13:42Z</time>
      </trkpt>
      <trkpt lon="78.521046394851936" lat="17.644183940048759">
        <ele>496.278</ele>
        <time>2024-09-25T11:13:42Z</time>
      </trkpt>
      <trkpt lon="78.521046684558399" lat="17.644185534505681">
        <ele>496.28</ele>
        <time>2024-09-25T11:13:42Z</time>
      </trkpt>
      <trkpt lon="78.521046975434942" lat="17.644187132127062">
        <ele>496.282</ele>
        <time>2024-09-25T11:13:42Z</time>
      </trkpt>
      <trkpt lon="78.521047267359876" lat="17.644188732737401">
        <ele>496.283</ele>
        <time>2024-09-25T11:13:42Z</time>
      </trkpt>
      <trkpt lon="78.521047560205034" lat="17.6441903361006">
        <ele>496.284</ele>
        <time>2024-09-25T11:13:42Z</time>
      </trkpt>
      <trkpt lon="78.521047853841878" lat="17.644191941943088">
        <ele>496.285</ele>
        <time>2024-09-25T11:13:42Z</time>
      </trkpt>
      <trkpt lon="78.521048148145994" lat="17.644193549972531">
        <ele>496.285</ele>
        <time>2024-09-25T11:13:42Z</time>
      </trkpt>
      <trkpt lon="78.521048443000424" lat="17.644195159892615">
        <ele>496.286</ele>
        <time>2024-09-25T11:13:42Z</time>
      </trkpt>
      <trkpt lon="78.521048892051198" lat="17.644197290167817">
        <ele>496.239</ele>
        <time>2024-09-25T11:13:43Z</time>
      </trkpt>
      <trkpt lon="78.521049387962307" lat="17.64419940525751">
        <ele>496.199</ele>
        <time>2024-09-25T11:13:43Z</time>
      </trkpt>
      <trkpt lon="78.521049920983302" lat="17.644201499578063">
        <ele>496.166</ele>
        <time>2024-09-25T11:13:43Z</time>
      </trkpt>
      <trkpt lon="78.52105048247536" lat="17.644203569641743">
        <ele>496.14</ele>
        <time>2024-09-25T11:13:43Z</time>
      </trkpt>
      <trkpt lon="78.521051064937637" lat="17.644205613661846">
        <ele>496.119</ele>
        <time>2024-09-25T11:13:43Z</time>
      </trkpt>
      <trkpt lon="78.521051661987599" lat="17.644207631196011">
        <ele>496.103</ele>
        <time>2024-09-25T11:13:43Z</time>
      </trkpt>
      <trkpt lon="78.521052268307372" lat="17.644209622830598">
        <ele>496.092</ele>
        <time>2024-09-25T11:13:43Z</time>
      </trkpt>
      <trkpt lon="78.521052879566341" lat="17.644211589907087">
        <ele>496.084</ele>
        <time>2024-09-25T11:13:43Z</time>
      </trkpt>
      <trkpt lon="78.521053492328463" lat="17.644213534289587">
        <ele>496.079</ele>
        <time>2024-09-25T11:13:43Z</time>
      </trkpt>
      <trkpt lon="78.521054103951414" lat="17.644215458171423">
        <ele>496.077</ele>
        <time>2024-09-25T11:13:43Z</time>
      </trkpt>
      <trkpt lon="78.521054712482922" lat="17.644217363917935">
        <ele>496.077</ele>
        <time>2024-09-25T11:13:43Z</time>
      </trkpt>
      <trkpt lon="78.521055316558702" lat="17.644219253941973">
        <ele>496.078</ele>
        <time>2024-09-25T11:13:43Z</time>
      </trkpt>
      <trkpt lon="78.52105591530507" lat="17.644221130608408">
        <ele>496.08</ele>
        <time>2024-09-25T11:13:43Z</time>
      </trkpt>
      <trkpt lon="78.521056508248535" lat="17.644222996163808">
        <ele>496.083</ele>
        <time>2024-09-25T11:13:43Z</time>
      </trkpt>
      <trkpt lon="78.521057095233672" lat="17.64422485268755">
        <ele>496.086</ele>
        <time>2024-09-25T11:13:43Z</time>
      </trkpt>
      <trkpt lon="78.521057676350267" lat="17.644226702060759">
        <ele>496.09</ele>
        <time>2024-09-25T11:13:43Z</time>
      </trkpt>
      <trkpt lon="78.521058251869803" lat="17.644228545949794">
        <ele>496.094</ele>
        <time>2024-09-25T11:13:43Z</time>
      </trkpt>
      <trkpt lon="78.521058822191307" lat="17.644230385801233">
        <ele>496.097</ele>
        <time>2024-09-25T11:13:43Z</time>
      </trkpt>
      <trkpt lon="78.5210593877961" lat="17.644232222845762">
        <ele>496.1</ele>
        <time>2024-09-25T11:13:43Z</time>
      </trkpt>
      <trkpt lon="78.521059949210809" lat="17.644234058108559">
        <ele>496.103</ele>
        <time>2024-09-25T11:13:43Z</time>
      </trkpt>
      <trkpt lon="78.521060506977932" lat="17.644235892424309">
        <ele>496.106</ele>
        <time>2024-09-25T11:13:43Z</time>
      </trkpt>
      <trkpt lon="78.521061061633105" lat="17.644237726455092">
        <ele>496.109</ele>
        <time>2024-09-25T11:13:43Z</time>
      </trkpt>
      <trkpt lon="78.521061613688147" lat="17.644239560709895">
        <ele>496.111</ele>
        <time>2024-09-25T11:13:43Z</time>
      </trkpt>
      <trkpt lon="78.521062163619192" lat="17.64424139556462">
        <ele>496.113</ele>
        <time>2024-09-25T11:13:43Z</time>
      </trkpt>
      <trkpt lon="78.521062711858917" lat="17.644243231281795">
        <ele>496.114</ele>
        <time>2024-09-25T11:13:43Z</time>
      </trkpt>
      <trkpt lon="78.521063258792225" lat="17.64424506802936">
        <ele>496.115</ele>
        <time>2024-09-25T11:13:43Z</time>
      </trkpt>
      <trkpt lon="78.521063804754633" lat="17.644246905898129">
        <ele>496.116</ele>
        <time>2024-09-25T11:13:43Z</time>
      </trkpt>
      <trkpt lon="78.521064350032773" lat="17.644248744917626">
        <ele>496.117</ele>
        <time>2024-09-25T11:13:43Z</time>
      </trkpt>
      <trkpt lon="78.52106489486647" lat="17.644250585070136">
        <ele>496.117</ele>
        <time>2024-09-25T11:13:43Z</time>
      </trkpt>
      <trkpt lon="78.521065550412757" lat="17.64425278971132">
        <ele>496.354</ele>
        <time>2024-09-25T11:13:44Z</time>
      </trkpt>
      <trkpt lon="78.52106614562247" lat="17.64425478285192">
        <ele>496.553</ele>
        <time>2024-09-25T11:13:44Z</time>
      </trkpt>
      <trkpt lon="78.521066688396445" lat="17.644256592268036">
        <ele>496.717</ele>
        <time>2024-09-25T11:13:44Z</time>
      </trkpt>
      <trkpt lon="78.521067186511488" lat="17.644258245278305">
        <ele>496.849</ele>
        <time>2024-09-25T11:13:44Z</time>
      </trkpt>
      <trkpt lon="78.521067647380846" lat="17.644259767907759">
        <ele>496.953</ele>
        <time>2024-09-25T11:13:44Z</time>
      </trkpt>
      <trkpt lon="78.52106807788627" lat="17.644261184302465">
        <ele>497.031</ele>
        <time>2024-09-25T11:13:44Z</time>
      </trkpt>
      <trkpt lon="78.521068484269804" lat="17.644262516353546">
        <ele>497.087</ele>
        <time>2024-09-25T11:13:44Z</time>
      </trkpt>
      <trkpt lon="78.521068872074537" lat="17.644263783492033">
        <ele>497.125</ele>
        <time>2024-09-25T11:13:44Z</time>
      </trkpt>
      <trkpt lon="78.521069246124171" lat="17.644265002619694">
        <ele>497.148</ele>
        <time>2024-09-25T11:13:44Z</time>
      </trkpt>
      <trkpt lon="78.521069610532578" lat="17.644266188144712">
        <ele>497.158</ele>
        <time>2024-09-25T11:13:44Z</time>
      </trkpt>
      <trkpt lon="78.521069968735716" lat="17.644267352095188">
        <ele>497.159</ele>
        <time>2024-09-25T11:13:44Z</time>
      </trkpt>
      <trkpt lon="78.521070323539121" lat="17.644268504287357">
        <ele>497.153</ele>
        <time>2024-09-25T11:13:44Z</time>
      </trkpt>
      <trkpt lon="78.521070677175743" lat="17.6442696525292">
        <ele>497.141</ele>
        <time>2024-09-25T11:13:44Z</time>
      </trkpt>
      <trkpt lon="78.52107103136936" lat="17.644270802843689">
        <ele>497.126</ele>
        <time>2024-09-25T11:13:44Z</time>
      </trkpt>
      <trkpt lon="78.521071387399985" lat="17.644271959699051">
        <ele>497.109</ele>
        <time>2024-09-25T11:13:44Z</time>
      </trkpt>
      <trkpt lon="78.521071746168758" lat="17.644273126236346">
        <ele>497.091</ele>
        <time>2024-09-25T11:13:44Z</time>
      </trkpt>
      <trkpt lon="78.521072108259858" lat="17.644274304487116">
        <ele>497.072</ele>
        <time>2024-09-25T11:13:44Z</time>
      </trkpt>
      <trkpt lon="78.521072473998274" lat="17.644275495575961">
        <ele>497.054</ele>
        <time>2024-09-25T11:13:44Z</time>
      </trkpt>
      <trkpt lon="78.521072843502324" lat="17.644276699904776">
        <ele>497.037</ele>
        <time>2024-09-25T11:13:44Z</time>
      </trkpt>
      <trkpt lon="78.521073216730429" lat="17.644277917316703">
        <ele>497.022</ele>
        <time>2024-09-25T11:13:44Z</time>
      </trkpt>
      <trkpt lon="78.521073593521876" lat="17.644279147239139">
        <ele>497.008</ele>
        <time>2024-09-25T11:13:44Z</time>
      </trkpt>
      <trkpt lon="78.521073973631815" lat="17.644280388805964">
        <ele>496.996</ele>
        <time>2024-09-25T11:13:44Z</time>
      </trkpt>
      <trkpt lon="78.52107435676038" lat="17.644281640959885">
        <ele>496.985</ele>
        <time>2024-09-25T11:13:44Z</time>
      </trkpt>
      <trkpt lon="78.521074742576729" lat="17.644282902536222">
        <ele>496.976</ele>
        <time>2024-09-25T11:13:44Z</time>
      </trkpt>
      <trkpt lon="78.521075130738112" lat="17.644284172329794">
        <ele>496.969</ele>
        <time>2024-09-25T11:13:44Z</time>
      </trkpt>
      <trkpt lon="78.521075520904702" lat="17.644285449146729">
        <ele>496.963</ele>
        <time>2024-09-25T11:13:44Z</time>
      </trkpt>
      <trkpt lon="78.521075912750717" lat="17.64428673184316">
        <ele>496.958</ele>
        <time>2024-09-25T11:13:44Z</time>
      </trkpt>
      <trkpt lon="78.521076305972244" lat="17.644288019352633">
        <ele>496.954</ele>
        <time>2024-09-25T11:13:44Z</time>
      </trkpt>
      <trkpt lon="78.521076700292426" lat="17.644289310704085">
        <ele>496.952</ele>
        <time>2024-09-25T11:13:44Z</time>
      </trkpt>
      <trkpt lon="78.521077227306421" lat="17.644291096443347">
        <ele>496.849</ele>
        <time>2024-09-25T11:13:45Z</time>
      </trkpt>
      <trkpt lon="78.521077755101075" lat="17.644292935114908">
        <ele>496.763</ele>
        <time>2024-09-25T11:13:45Z</time>
      </trkpt>
      <trkpt lon="78.521078281453867" lat="17.644294810585031">
        <ele>496.693</ele>
        <time>2024-09-25T11:13:45Z</time>
      </trkpt>
      <trkpt lon="78.521078804739545" lat="17.644296709413872">
        <ele>496.636</ele>
        <time>2024-09-25T11:13:45Z</time>
      </trkpt>
      <trkpt lon="78.521079323839473" lat="17.64429862065905">
        <ele>496.592</ele>
        <time>2024-09-25T11:13:45Z</time>
      </trkpt>
      <trkpt lon="78.521079838055769" lat="17.64430053564082">
        <ele>496.56</ele>
        <time>2024-09-25T11:13:45Z</time>
      </trkpt>
      <trkpt lon="78.521080347031955" lat="17.644302447686478">
        <ele>496.536</ele>
        <time>2024-09-25T11:13:45Z</time>
      </trkpt>
      <trkpt lon="78.521080850681315" lat="17.644304351868008">
        <ele>496.521</ele>
        <time>2024-09-25T11:13:45Z</time>
      </trkpt>
      <trkpt lon="78.521081349123477" lat="17.644306244743714">
        <ele>496.512</ele>
        <time>2024-09-25T11:13:45Z</time>
      </trkpt>
      <trkpt lon="78.521081842629442" lat="17.644308124111824">
        <ele>496.508</ele>
        <time>2024-09-25T11:13:45Z</time>
      </trkpt>
      <trkpt lon="78.521082331574931" lat="17.644309988781718">
        <ele>496.508</ele>
        <time>2024-09-25T11:13:45Z</time>
      </trkpt>
      <trkpt lon="78.521082816401545" lat="17.644311838366342">
        <ele>496.512</ele>
        <time>2024-09-25T11:13:45Z</time>
      </trkpt>
      <trkpt lon="78.52108329758525" lat="17.64431367309783">
        <ele>496.517</ele>
        <time>2024-09-25T11:13:45Z</time>
      </trkpt>
      <trkpt lon="78.521083775611302" lat="17.644315493666991">
        <ele>496.524</ele>
        <time>2024-09-25T11:13:45Z</time>
      </trkpt>
      <trkpt lon="78.521084250955184" lat="17.644317301086424">
        <ele>496.532</ele>
        <time>2024-09-25T11:13:45Z</time>
      </trkpt>
      <trkpt lon="78.521084724068444" lat="17.644319096576112">
        <ele>496.54</ele>
        <time>2024-09-25T11:13:45Z</time>
      </trkpt>
      <trkpt lon="78.521085195368968" lat="17.644320881470009">
        <ele>496.549</ele>
        <time>2024-09-25T11:13:45Z</time>
      </trkpt>
      <trkpt lon="78.521085665234693" lat="17.644322657141647">
        <ele>496.557</ele>
        <time>2024-09-25T11:13:45Z</time>
      </trkpt>
      <trkpt lon="78.52108613400037" lat="17.644324424946703">
        <ele>496.564</ele>
        <time>2024-09-25T11:13:45Z</time>
      </trkpt>
      <trkpt lon="78.521086601956526" lat="17.644326186180297">
        <ele>496.571</ele>
        <time>2024-09-25T11:13:45Z</time>
      </trkpt>
      <trkpt lon="78.521087069350273" lat="17.644327942046942">
        <ele>496.577</ele>
        <time>2024-09-25T11:13:45Z</time>
      </trkpt>
      <trkpt lon="78.521087536387427" lat="17.644329693640998">
        <ele>496.582</ele>
        <time>2024-09-25T11:13:45Z</time>
      </trkpt>
      <trkpt lon="78.521088003235519" lat="17.644331441935797">
        <ele>496.587</ele>
        <time>2024-09-25T11:13:45Z</time>
      </trkpt>
      <trkpt lon="78.521088470027422" lat="17.644333187779633">
        <ele>496.591</ele>
        <time>2024-09-25T11:13:45Z</time>
      </trkpt>
      <trkpt lon="78.521088936865212" lat="17.644334931897085">
        <ele>496.594</ele>
        <time>2024-09-25T11:13:45Z</time>
      </trkpt>
      <trkpt lon="78.521089403824263" lat="17.644336674894298">
        <ele>496.596</ele>
        <time>2024-09-25T11:13:45Z</time>
      </trkpt>
      <trkpt lon="78.521089870957184" lat="17.644338417267107">
        <ele>496.598</ele>
        <time>2024-09-25T11:13:45Z</time>
      </trkpt>
      <trkpt lon="78.521090338297583" lat="17.644340159410966">
        <ele>496.6</ele>
        <time>2024-09-25T11:13:45Z</time>
      </trkpt>
      <trkpt lon="78.521090805863594" lat="17.644341901631918">
        <ele>496.601</ele>
        <time>2024-09-25T11:13:45Z</time>
      </trkpt>
      <trkpt lon="78.521091351474084" lat="17.64434405082703">
        <ele>496.279</ele>
        <time>2024-09-25T11:13:46Z</time>
      </trkpt>
      <trkpt lon="78.521091831044572" lat="17.644346051783575">
        <ele>496.007</ele>
        <time>2024-09-25T11:13:46Z</time>
      </trkpt>
      <trkpt lon="78.521092253798017" lat="17.644347921780366">
        <ele>495.783</ele>
        <time>2024-09-25T11:13:46Z</time>
      </trkpt>
      <trkpt lon="78.52109262866" lat="17.644349678390544">
        <ele>495.602</ele>
        <time>2024-09-25T11:13:46Z</time>
      </trkpt>
      <trkpt lon="78.521092964022003" lat="17.64435133879882">
        <ele>495.461</ele>
        <time>2024-09-25T11:13:46Z</time>
      </trkpt>
      <trkpt lon="78.521093267581463" lat="17.644352919300299">
        <ele>495.354</ele>
        <time>2024-09-25T11:13:46Z</time>
      </trkpt>
      <trkpt lon="78.521093546245282" lat="17.644354434953566">
        <ele>495.276</ele>
        <time>2024-09-25T11:13:46Z</time>
      </trkpt>
      <trkpt lon="78.521093806084608" lat="17.644355899362136">
        <ele>495.224</ele>
        <time>2024-09-25T11:13:46Z</time>
      </trkpt>
      <trkpt lon="78.521094052329687" lat="17.644357324560218">
        <ele>495.192</ele>
        <time>2024-09-25T11:13:46Z</time>
      </trkpt>
      <trkpt lon="78.521094289395307" lat="17.644358720981142">
        <ele>495.177</ele>
        <time>2024-09-25T11:13:46Z</time>
      </trkpt>
      <trkpt lon="78.521094520928187" lat="17.644360097489109">
        <ele>495.176</ele>
        <time>2024-09-25T11:13:46Z</time>
      </trkpt>
      <trkpt lon="78.521094749869448" lat="17.644361461457649">
        <ele>495.184</ele>
        <time>2024-09-25T11:13:46Z</time>
      </trkpt>
      <trkpt lon="78.521094978526122" lat="17.644362818880531">
        <ele>495.199</ele>
        <time>2024-09-25T11:13:46Z</time>
      </trkpt>
      <trkpt lon="78.521095208647196" lat="17.644364174503266">
        <ele>495.219</ele>
        <time>2024-09-25T11:13:46Z</time>
      </trkpt>
      <trkpt lon="78.521095441500208" lat="17.644365531965626">
        <ele>495.242</ele>
        <time>2024-09-25T11:13:46Z</time>
      </trkpt>
      <trkpt lon="78.52109567794578" lat="17.644366893947424">
        <ele>495.267</ele>
        <time>2024-09-25T11:13:46Z</time>
      </trkpt>
      <trkpt lon="78.52109591850791" lat="17.644368262311801">
        <ele>495.292</ele>
        <time>2024-09-25T11:13:46Z</time>
      </trkpt>
      <trkpt lon="78.5210961634386" lat="17.644369638241553">
        <ele>495.316</ele>
        <time>2024-09-25T11:13:46Z</time>
      </trkpt>
      <trkpt lon="78.521096412776117" lat="17.644371022365558">
        <ele>495.339</ele>
        <time>2024-09-25T11:13:46Z</time>
      </trkpt>
      <trkpt lon="78.521096666396261" lat="17.644372414873292">
        <ele>495.36</ele>
        <time>2024-09-25T11:13:46Z</time>
      </trkpt>
      <trkpt lon="78.521096924056693" lat="17.644373815616429">
        <ele>495.379</ele>
        <time>2024-09-25T11:13:46Z</time>
      </trkpt>
      <trkpt lon="78.521097185434371" lat="17.644375224197145">
        <ele>495.396</ele>
        <time>2024-09-25T11:13:46Z</time>
      </trkpt>
      <trkpt lon="78.521097450156731" lat="17.644376640043372">
        <ele>495.41</ele>
        <time>2024-09-25T11:13:46Z</time>
      </trkpt>
      <trkpt lon="78.521097717826748" lat="17.644378062471542">
        <ele>495.422</ele>
        <time>2024-09-25T11:13:46Z</time>
      </trkpt>
      <trkpt lon="78.521097988042783" lat="17.644379490737798">
        <ele>495.433</ele>
        <time>2024-09-25T11:13:46Z</time>
      </trkpt>
      <trkpt lon="78.521098260413652" lat="17.644380924078643">
        <ele>495.441</ele>
        <time>2024-09-25T11:13:46Z</time>
      </trkpt>
      <trkpt lon="78.521098534569632" lat="17.64438236174232">
        <ele>495.447</ele>
        <time>2024-09-25T11:13:46Z</time>
      </trkpt>
      <trkpt lon="78.521098810170017" lat="17.644383803012005">
        <ele>495.452</ele>
        <time>2024-09-25T11:13:46Z</time>
      </trkpt>
      <trkpt lon="78.521099086907824" lat="17.644385247222122">
        <ele>495.456</ele>
        <time>2024-09-25T11:13:46Z</time>
      </trkpt>
      <trkpt lon="78.521099472195644" lat="17.644387115981736">
        <ele>495.258</ele>
        <time>2024-09-25T11:13:47Z</time>
      </trkpt>
      <trkpt lon="78.521099871049174" lat="17.644388935677906">
        <ele>495.09</ele>
        <time>2024-09-25T11:13:47Z</time>
      </trkpt>
      <trkpt lon="78.52110027958976" lat="17.644390707390745">
        <ele>494.952</ele>
        <time>2024-09-25T11:13:47Z</time>
      </trkpt>
      <trkpt lon="78.521100694557163" lat="17.644392433600864">
        <ele>494.84</ele>
        <time>2024-09-25T11:13:47Z</time>
      </trkpt>
      <trkpt lon="78.521101113270603" lat="17.644394117758452">
        <ele>494.752</ele>
        <time>2024-09-25T11:13:47Z</time>
      </trkpt>
      <trkpt lon="78.521101533579127" lat="17.64439576392477">
        <ele>494.685</ele>
        <time>2024-09-25T11:13:47Z</time>
      </trkpt>
      <trkpt lon="78.521101953805939" lat="17.644397376480647">
        <ele>494.636</ele>
        <time>2024-09-25T11:13:47Z</time>
      </trkpt>
      <trkpt lon="78.521102372689896" lat="17.644398959895682">
        <ele>494.603</ele>
        <time>2024-09-25T11:13:47Z</time>
      </trkpt>
      <trkpt lon="78.521102789326932" lat="17.644400518551159">
        <ele>494.583</ele>
        <time>2024-09-25T11:13:47Z</time>
      </trkpt>
      <trkpt lon="78.521103203113611" lat="17.644402056609636">
        <ele>494.572</ele>
        <time>2024-09-25T11:13:47Z</time>
      </trkpt>
      <trkpt lon="78.521103613694024" lat="17.644403577924226">
        <ele>494.571</ele>
        <time>2024-09-25T11:13:47Z</time>
      </trkpt>
      <trkpt lon="78.521104020911238" lat="17.644405085980967">
        <ele>494.575</ele>
        <time>2024-09-25T11:13:47Z</time>
      </trkpt>
      <trkpt lon="78.521104424763763" lat="17.644406583868122">
        <ele>494.583</ele>
        <time>2024-09-25T11:13:47Z</time>
      </trkpt>
      <trkpt lon="78.521104825367331" lat="17.644408074266845">
        <ele>494.595</ele>
        <time>2024-09-25T11:13:47Z</time>
      </trkpt>
      <trkpt lon="78.521105222921975" lat="17.644409559458303">
        <ele>494.609</ele>
        <time>2024-09-25T11:13:47Z</time>
      </trkpt>
      <trkpt lon="78.521105617684427" lat="17.644411041342916">
        <ele>494.624</ele>
        <time>2024-09-25T11:13:47Z</time>
      </trkpt>
      <trkpt lon="78.521106009945157" lat="17.644412521468094">
        <ele>494.639</ele>
        <time>2024-09-25T11:13:47Z</time>
      </trkpt>
      <trkpt lon="78.521106400009998" lat="17.644414001061406">
        <ele>494.654</ele>
        <time>2024-09-25T11:13:47Z</time>
      </trkpt>
      <trkpt lon="78.521106788185776" lat="17.644415481066677">
        <ele>494.668</ele>
        <time>2024-09-25T11:13:47Z</time>
      </trkpt>
      <trkpt lon="78.521107174769369" lat="17.644416962181076">
        <ele>494.68</ele>
        <time>2024-09-25T11:13:47Z</time>
      </trkpt>
      <trkpt lon="78.52110756003988" lat="17.644418444891617">
        <ele>494.692</ele>
        <time>2024-09-25T11:13:47Z</time>
      </trkpt>
      <trkpt lon="78.521107944253288" lat="17.644419929509986">
        <ele>494.702</ele>
        <time>2024-09-25T11:13:47Z</time>
      </trkpt>
      <trkpt lon="78.521108327639269" lat="17.644421416204889">
        <ele>494.711</ele>
        <time>2024-09-25T11:13:47Z</time>
      </trkpt>
      <trkpt lon="78.521108710399687" lat="17.644422905031366">
        <ele>494.719</ele>
        <time>2024-09-25T11:13:47Z</time>
      </trkpt>
      <trkpt lon="78.521109092708457" lat="17.644424395956893">
        <ele>494.725</ele>
        <time>2024-09-25T11:13:47Z</time>
      </trkpt>
      <trkpt lon="78.521109474712333" lat="17.644425888884054">
        <ele>494.73</ele>
        <time>2024-09-25T11:13:47Z</time>
      </trkpt>
      <trkpt lon="78.521109856532561" lat="17.644427383669896">
        <ele>494.734</ele>
        <time>2024-09-25T11:13:47Z</time>
      </trkpt>
      <trkpt lon="78.521110238266886" lat="17.644428880142108">
        <ele>494.737</ele>
        <time>2024-09-25T11:13:47Z</time>
      </trkpt>
      <trkpt lon="78.521110619992001" lat="17.644430378112236">
        <ele>494.739</ele>
        <time>2024-09-25T11:13:47Z</time>
      </trkpt>
      <trkpt lon="78.521111063754262" lat="17.644432276657849">
        <ele>494.501</ele>
        <time>2024-09-25T11:13:48Z</time>
      </trkpt>
      <trkpt lon="78.521111452162486" lat="17.644434090575192">
        <ele>494.299</ele>
        <time>2024-09-25T11:13:48Z</time>
      </trkpt>
      <trkpt lon="78.521111793018491" lat="17.644435827064367">
        <ele>494.133</ele>
        <time>2024-09-25T11:13:48Z</time>
      </trkpt>
      <trkpt lon="78.521112093854825" lat="17.644437494241931">
        <ele>493.999</ele>
        <time>2024-09-25T11:13:48Z</time>
      </trkpt>
      <trkpt lon="78.521112361739497" lat="17.644439100633392">
        <ele>493.893</ele>
        <time>2024-09-25T11:13:48Z</time>
      </trkpt>
      <trkpt lon="78.521112603144857" lat="17.644440654776453">
        <ele>493.814</ele>
        <time>2024-09-25T11:13:48Z</time>
      </trkpt>
      <trkpt lon="78.521112823869458" lat="17.644442164921504">
        <ele>493.756</ele>
        <time>2024-09-25T11:13:48Z</time>
      </trkpt>
      <trkpt lon="78.521113029002592" lat="17.644443638815829">
        <ele>493.717</ele>
        <time>2024-09-25T11:13:48Z</time>
      </trkpt>
      <trkpt lon="78.521113222922082" lat="17.644445083558402">
        <ele>493.693</ele>
        <time>2024-09-25T11:13:48Z</time>
      </trkpt>
      <trkpt lon="78.521113409317451" lat="17.644446505512949">
        <ele>493.681</ele>
        <time>2024-09-25T11:13:48Z</time>
      </trkpt>
      <trkpt lon="78.521113591231241" lat="17.644447910267953">
        <ele>493.679</ele>
        <time>2024-09-25T11:13:48Z</time>
      </trkpt>
      <trkpt lon="78.521113771112596" lat="17.644449302633419">
        <ele>493.685</ele>
        <time>2024-09-25T11:13:48Z</time>
      </trkpt>
      <trkpt lon="78.521113950878288" lat="17.644450686665486">
        <ele>493.696</ele>
        <time>2024-09-25T11:13:48Z</time>
      </trkpt>
      <trkpt lon="78.521114131977242" lat="17.644452065711143">
        <ele>493.711</ele>
        <time>2024-09-25T11:13:48Z</time>
      </trkpt>
      <trkpt lon="78.521114315455392" lat="17.644453442466581">
        <ele>493.728</ele>
        <time>2024-09-25T11:13:48Z</time>
      </trkpt>
      <trkpt lon="78.521114502018548" lat="17.644454819043759">
        <ele>493.746</ele>
        <time>2024-09-25T11:13:48Z</time>
      </trkpt>
      <trkpt lon="78.521114692091587" lat="17.644456197040899">
        <ele>493.764</ele>
        <time>2024-09-25T11:13:48Z</time>
      </trkpt>
      <trkpt lon="78.521114885872933" lat="17.644457577613451">
        <ele>493.782</ele>
        <time>2024-09-25T11:13:48Z</time>
      </trkpt>
      <trkpt lon="78.52111508338335" lat="17.644458961542973">
        <ele>493.799</ele>
        <time>2024-09-25T11:13:48Z</time>
      </trkpt>
      <trkpt lon="78.521115284508994" lat="17.64446034930203">
        <ele>493.814</ele>
        <time>2024-09-25T11:13:48Z</time>
      </trkpt>
      <trkpt lon="78.521115489038507" lat="17.644461741113847">
        <ele>493.828</ele>
        <time>2024-09-25T11:13:48Z</time>
      </trkpt>
      <trkpt lon="78.521115696694324" lat="17.644463137005957">
        <ele>493.841</ele>
        <time>2024-09-25T11:13:48Z</time>
      </trkpt>
      <trkpt lon="78.521115907158659" lat="17.644464536857399">
        <ele>493.852</ele>
        <time>2024-09-25T11:13:48Z</time>
      </trkpt>
      <trkpt lon="78.521116120094405" lat="17.644465940439495">
        <ele>493.861</ele>
        <time>2024-09-25T11:13:48Z</time>
      </trkpt>
      <trkpt lon="78.521116335161636" lat="17.644467347450298">
        <ele>493.868</ele>
        <time>2024-09-25T11:13:48Z</time>
      </trkpt>
      <trkpt lon="78.521116552030065" lat="17.644468757543123">
        <ele>493.874</ele>
        <time>2024-09-25T11:13:48Z</time>
      </trkpt>
      <trkpt lon="78.521116770388176" lat="17.644470170349596">
        <ele>493.879</ele>
        <time>2024-09-25T11:13:48Z</time>
      </trkpt>
      <trkpt lon="78.521116989949419" lat="17.644471585497786">
        <ele>493.883</ele>
        <time>2024-09-25T11:13:48Z</time>
      </trkpt>
      <trkpt lon="78.521117210455984" lat="17.644473002626004">
        <ele>493.885</ele>
        <time>2024-09-25T11:13:48Z</time>
      </trkpt>
      <trkpt lon="78.521117566706437" lat="17.644474878064464">
        <ele>493.905</ele>
        <time>2024-09-25T11:13:49Z</time>
      </trkpt>
      <trkpt lon="78.521117975278898" lat="17.644476740399867">
        <ele>493.922</ele>
        <time>2024-09-25T11:13:49Z</time>
      </trkpt>
      <trkpt lon="78.521118425796288" lat="17.644478584638701">
        <ele>493.935</ele>
        <time>2024-09-25T11:13:49Z</time>
      </trkpt>
      <trkpt lon="78.521118908979446" lat="17.644480407645265">
        <ele>493.945</ele>
        <time>2024-09-25T11:13:49Z</time>
      </trkpt>
      <trkpt lon="78.521119416699193" lat="17.644482207793192">
        <ele>493.953</ele>
        <time>2024-09-25T11:13:49Z</time>
      </trkpt>
      <trkpt lon="78.521119941975456" lat="17.644483984650357">
        <ele>493.958</ele>
        <time>2024-09-25T11:13:49Z</time>
      </trkpt>
      <trkpt lon="78.521120478936865" lat="17.644485738699888">
        <ele>493.962</ele>
        <time>2024-09-25T11:13:49Z</time>
      </trkpt>
      <trkpt lon="78.521121022751643" lat="17.644487471098056">
        <ele>493.964</ele>
        <time>2024-09-25T11:13:49Z</time>
      </trkpt>
      <trkpt lon="78.521121569539545" lat="17.644489183468409">
        <ele>493.965</ele>
        <time>2024-09-25T11:13:49Z</time>
      </trkpt>
      <trkpt lon="78.521122116272295" lat="17.644490877730345">
        <ele>493.965</ele>
        <time>2024-09-25T11:13:49Z</time>
      </trkpt>
      <trkpt lon="78.521122660669064" lat="17.644492555959634">
        <ele>493.964</ele>
        <time>2024-09-25T11:13:49Z</time>
      </trkpt>
      <trkpt lon="78.52112320109164" lat="17.644494220277814">
        <ele>493.963</ele>
        <time>2024-09-25T11:13:49Z</time>
      </trkpt>
      <trkpt lon="78.521123736443144" lat="17.644495872767255">
        <ele>493.961</ele>
        <time>2024-09-25T11:13:49Z</time>
      </trkpt>
      <trkpt lon="78.521124266072846" lat="17.644497515408474">
        <ele>493.96</ele>
        <time>2024-09-25T11:13:49Z</time>
      </trkpt>
      <trkpt lon="78.52112478968894" lat="17.644499150036449">
        <ele>493.958</ele>
        <time>2024-09-25T11:13:49Z</time>
      </trkpt>
      <trkpt lon="78.521125307280286" lat="17.64450077831269">
        <ele>493.956</ele>
        <time>2024-09-25T11:13:49Z</time>
      </trkpt>
      <trkpt lon="78.521125819047725" lat="17.64450240171027">
        <ele>493.954</ele>
        <time>2024-09-25T11:13:49Z</time>
      </trkpt>
      <trkpt lon="78.521126325344909" lat="17.644504021509043">
        <ele>493.952</ele>
        <time>2024-09-25T11:13:49Z</time>
      </trkpt>
      <trkpt lon="78.521126826628389" lat="17.644505638798766">
        <ele>493.951</ele>
        <time>2024-09-25T11:13:49Z</time>
      </trkpt>
      <trkpt lon="78.521127323416493" lat="17.644507254488055">
        <ele>493.95</ele>
        <time>2024-09-25T11:13:49Z</time>
      </trkpt>
      <trkpt lon="78.521127816256026" lat="17.644508869317409">
        <ele>493.948</ele>
        <time>2024-09-25T11:13:49Z</time>
      </trkpt>
      <trkpt lon="78.52112830569628" lat="17.644510483874903">
        <ele>493.947</ele>
        <time>2024-09-25T11:13:49Z</time>
      </trkpt>
      <trkpt lon="78.521128792269437" lat="17.644512098613276">
        <ele>493.946</ele>
        <time>2024-09-25T11:13:49Z</time>
      </trkpt>
      <trkpt lon="78.521129276476202" lat="17.644513713867525">
        <ele>493.946</ele>
        <time>2024-09-25T11:13:49Z</time>
      </trkpt>
      <trkpt lon="78.521129758776183" lat="17.644515329872267">
        <ele>493.945</ele>
        <time>2024-09-25T11:13:49Z</time>
      </trkpt>
      <trkpt lon="78.521130239582092" lat="17.644516946778289">
        <ele>493.945</ele>
        <time>2024-09-25T11:13:49Z</time>
      </trkpt>
      <trkpt lon="78.521130719256917" lat="17.644518564667958">
        <ele>493.944</ele>
        <time>2024-09-25T11:13:49Z</time>
      </trkpt>
      <trkpt lon="78.521131198113537" lat="17.644520183569202">
        <ele>493.944</ele>
        <time>2024-09-25T11:13:49Z</time>
      </trkpt>
      <trkpt lon="78.52113167641626" lat="17.644521803467946">
        <ele>493.944</ele>
        <time>2024-09-25T11:13:49Z</time>
      </trkpt>
      <trkpt lon="78.521132252047778" lat="17.644523925749439">
        <ele>493.847</ele>
        <time>2024-09-25T11:13:50Z</time>
      </trkpt>
      <trkpt lon="78.521132774797621" lat="17.6445260148076">
        <ele>493.765</ele>
        <time>2024-09-25T11:13:50Z</time>
      </trkpt>
      <trkpt lon="78.521133251603942" lat="17.644528068261849">
        <ele>493.697</ele>
        <time>2024-09-25T11:13:50Z</time>
      </trkpt>
      <trkpt lon="78.521133689292455" lat="17.64453008555417">
        <ele>493.643</ele>
        <time>2024-09-25T11:13:50Z</time>
      </trkpt>
      <trkpt lon="78.521134094366985" lat="17.644532067519773">
        <ele>493.601</ele>
        <time>2024-09-25T11:13:50Z</time>
      </trkpt>
      <trkpt lon="78.521134472862855" lat="17.644534016015129">
        <ele>493.569</ele>
        <time>2024-09-25T11:13:50Z</time>
      </trkpt>
      <trkpt lon="78.521134830252649" lat="17.644535933602054">
        <ele>493.546</ele>
        <time>2024-09-25T11:13:50Z</time>
      </trkpt>
      <trkpt lon="78.52113517139469" lat="17.644537823285109">
        <ele>493.53</ele>
        <time>2024-09-25T11:13:50Z</time>
      </trkpt>
      <trkpt lon="78.521135500515513" lat="17.644539688298256">
        <ele>493.521</ele>
        <time>2024-09-25T11:13:50Z</time>
      </trkpt>
      <trkpt lon="78.521135821218621" lat="17.64454153193606">
        <ele>493.516</ele>
        <time>2024-09-25T11:13:50Z</time>
      </trkpt>
      <trkpt lon="78.521136136512752" lat="17.644543357424364">
        <ele>493.516</ele>
        <time>2024-09-25T11:13:50Z</time>
      </trkpt>
      <trkpt lon="78.521136448853781" lat="17.644545167825179">
        <ele>493.519</ele>
        <time>2024-09-25T11:13:50Z</time>
      </trkpt>
      <trkpt lon="78.521136760195532" lat="17.644546965970655">
        <ele>493.523</ele>
        <time>2024-09-25T11:13:50Z</time>
      </trkpt>
      <trkpt lon="78.521137072045548" lat="17.644548754421344">
        <ele>493.53</ele>
        <time>2024-09-25T11:13:50Z</time>
      </trkpt>
      <trkpt lon="78.521137385522565" lat="17.644550535444107">
        <ele>493.537</ele>
        <time>2024-09-25T11:13:50Z</time>
      </trkpt>
      <trkpt lon="78.521137701413423" lat="17.644552311005711">
        <ele>493.544</ele>
        <time>2024-09-25T11:13:50Z</time>
      </trkpt>
      <trkpt lon="78.521138020227426" lat="17.644554082778395">
        <ele>493.552</ele>
        <time>2024-09-25T11:13:50Z</time>
      </trkpt>
      <trkpt lon="78.521138342246957" lat="17.644555852154305">
        <ele>493.559</ele>
        <time>2024-09-25T11:13:50Z</time>
      </trkpt>
      <trkpt lon="78.521138667573567" lat="17.644557620266095">
        <ele>493.566</ele>
        <time>2024-09-25T11:13:50Z</time>
      </trkpt>
      <trkpt lon="78.521138996168943" lat="17.644559388011487">
        <ele>493.572</ele>
        <time>2024-09-25T11:13:50Z</time>
      </trkpt>
      <trkpt lon="78.521139327890708" lat="17.644561156079916">
        <ele>493.578</ele>
        <time>2024-09-25T11:13:50Z</time>
      </trkpt>
      <trkpt lon="78.521139662522941" lat="17.644562924979876">
        <ele>493.583</ele>
        <time>2024-09-25T11:13:50Z</time>
      </trkpt>
      <trkpt lon="78.52113999980179" lat="17.644564695065789">
        <ele>493.588</ele>
        <time>2024-09-25T11:13:50Z</time>
      </trkpt>
      <trkpt lon="78.521140339436471" lat="17.644566466563646">
        <ele>493.591</ele>
        <time>2024-09-25T11:13:50Z</time>
      </trkpt>
      <trkpt lon="78.521140681125956" lat="17.644568239594768">
        <ele>493.594</ele>
        <time>2024-09-25T11:13:50Z</time>
      </trkpt>
      <trkpt lon="78.521141024571961" lat="17.644570014197352">
        <ele>493.597</ele>
        <time>2024-09-25T11:13:50Z</time>
      </trkpt>
      <trkpt lon="78.521141369488646" lat="17.644571790345626">
        <ele>493.599</ele>
        <time>2024-09-25T11:13:50Z</time>
      </trkpt>
      <trkpt lon="78.521141715609446" lat="17.644573567966471">
        <ele>493.6</ele>
        <time>2024-09-25T11:13:50Z</time>
      </trkpt>
      <trkpt lon="78.521142062691609" lat="17.644575346953637">
        <ele>493.601</ele>
        <time>2024-09-25T11:13:50Z</time>
      </trkpt>
      <trkpt lon="78.521142532809776" lat="17.644577583663928">
        <ele>493.818</ele>
        <time>2024-09-25T11:13:51Z</time>
      </trkpt>
      <trkpt lon="78.521143008876223" lat="17.644579704729736">
        <ele>494</ele>
        <time>2024-09-25T11:13:51Z</time>
      </trkpt>
      <trkpt lon="78.521143488011944" lat="17.644581721393056">
        <ele>494.15</ele>
        <time>2024-09-25T11:13:51Z</time>
      </trkpt>
      <trkpt lon="78.52114396794012" lat="17.644583645754068">
        <ele>494.27</ele>
        <time>2024-09-25T11:13:51Z</time>
      </trkpt>
      <trkpt lon="78.521144446916935" lat="17.644585490139651">
        <ele>494.365</ele>
        <time>2024-09-25T11:13:51Z</time>
      </trkpt>
      <trkpt lon="78.521144923660898" lat="17.644587266619464">
        <ele>494.436</ele>
        <time>2024-09-25T11:13:51Z</time>
      </trkpt>
      <trkpt lon="78.521145397283561" lat="17.644588986650099">
        <ele>494.487</ele>
        <time>2024-09-25T11:13:51Z</time>
      </trkpt>
      <trkpt lon="78.521145867223581" lat="17.644590660828147">
        <ele>494.521</ele>
        <time>2024-09-25T11:13:51Z</time>
      </trkpt>
      <trkpt lon="78.521146333185712" lat="17.644592298733897">
        <ele>494.542</ele>
        <time>2024-09-25T11:13:51Z</time>
      </trkpt>
      <trkpt lon="78.521146795085528" lat="17.644593908848815">
        <ele>494.551</ele>
        <time>2024-09-25T11:13:51Z</time>
      </trkpt>
      <trkpt lon="78.521147253000493" lat="17.644595498531519">
        <ele>494.552</ele>
        <time>2024-09-25T11:13:51Z</time>
      </trkpt>
      <trkpt lon="78.521147707127383" lat="17.644597074038636">
        <ele>494.546</ele>
        <time>2024-09-25T11:13:51Z</time>
      </trkpt>
      <trkpt lon="78.521148157746069" lat="17.644598640578813">
        <ele>494.535</ele>
        <time>2024-09-25T11:13:51Z</time>
      </trkpt>
      <trkpt lon="78.521148605189367" lat="17.644600202389825">
        <ele>494.521</ele>
        <time>2024-09-25T11:13:51Z</time>
      </trkpt>
      <trkpt lon="78.521149049818462" lat="17.644601762830408">
        <ele>494.505</ele>
        <time>2024-09-25T11:13:51Z</time>
      </trkpt>
      <trkpt lon="78.521149492003318" lat="17.64460332448003">
        <ele>494.489</ele>
        <time>2024-09-25T11:13:51Z</time>
      </trkpt>
      <trkpt lon="78.521149932107718" lat="17.64460488924114">
        <ele>494.472</ele>
        <time>2024-09-25T11:13:51Z</time>
      </trkpt>
      <trkpt lon="78.521150370478153" lat="17.644606458439775">
        <ele>494.455</ele>
        <time>2024-09-25T11:13:51Z</time>
      </trkpt>
      <trkpt lon="78.521150807436015" lat="17.644608032921411">
        <ele>494.44</ele>
        <time>2024-09-25T11:13:51Z</time>
      </trkpt>
      <trkpt lon="78.521151243272655" lat="17.644609613139909">
        <ele>494.426</ele>
        <time>2024-09-25T11:13:51Z</time>
      </trkpt>
      <trkpt lon="78.521151678246611" lat="17.644611199238163">
        <ele>494.413</ele>
        <time>2024-09-25T11:13:51Z</time>
      </trkpt>
      <trkpt lon="78.52115211258274" lat="17.644612791119684">
        <ele>494.402</ele>
        <time>2024-09-25T11:13:51Z</time>
      </trkpt>
      <trkpt lon="78.521152546472692" lat="17.644614388510899">
        <ele>494.392</ele>
        <time>2024-09-25T11:13:51Z</time>
      </trkpt>
      <trkpt lon="78.521152980076451" lat="17.644615991014231">
        <ele>494.384</ele>
        <time>2024-09-25T11:13:51Z</time>
      </trkpt>
      <trkpt lon="78.52115341352453" lat="17.644617598152443">
        <ele>494.377</ele>
        <time>2024-09-25T11:13:51Z</time>
      </trkpt>
      <trkpt lon="78.521153846920726" lat="17.644619209404823">
        <ele>494.372</ele>
        <time>2024-09-25T11:13:51Z</time>
      </trkpt>
      <trkpt lon="78.521154280345087" lat="17.644620824235965">
        <ele>494.367</ele>
        <time>2024-09-25T11:13:51Z</time>
      </trkpt>
      <trkpt lon="78.521154713856987" lat="17.644622442117992">
        <ele>494.364</ele>
        <time>2024-09-25T11:13:51Z</time>
      </trkpt>
      <trkpt lon="78.521155147498135" lat="17.644624062547024">
        <ele>494.362</ele>
        <time>2024-09-25T11:13:51Z</time>
      </trkpt>
      <trkpt lon="78.521155692724463" lat="17.644626137419063">
        <ele>494.291</ele>
        <time>2024-09-25T11:13:52Z</time>
      </trkpt>
      <trkpt lon="78.521156209733817" lat="17.644628138674648">
        <ele>494.232</ele>
        <time>2024-09-25T11:13:52Z</time>
      </trkpt>
      <trkpt lon="78.521156701293407" lat="17.644630070860654">
        <ele>494.184</ele>
        <time>2024-09-25T11:13:52Z</time>
      </trkpt>
      <trkpt lon="78.521157170373044" lat="17.644631939803311">
        <ele>494.146</ele>
        <time>2024-09-25T11:13:52Z</time>
      </trkpt>
      <trkpt lon="78.521157619992081" lat="17.644633752090897">
        <ele>494.116</ele>
        <time>2024-09-25T11:13:52Z</time>
      </trkpt>
      <trkpt lon="78.52115805310244" lat="17.644635514657331">
        <ele>494.094</ele>
        <time>2024-09-25T11:13:52Z</time>
      </trkpt>
      <trkpt lon="78.521158472502648" lat="17.644637234456287">
        <ele>494.078</ele>
        <time>2024-09-25T11:13:52Z</time>
      </trkpt>
      <trkpt lon="78.521158880778415" lat="17.644638918214813">
        <ele>494.067</ele>
        <time>2024-09-25T11:13:52Z</time>
      </trkpt>
      <trkpt lon="78.521159280265238" lat="17.644640572255518">
        <ele>494.061</ele>
        <time>2024-09-25T11:13:52Z</time>
      </trkpt>
      <trkpt lon="78.521159673028876" lat="17.644642202376552">
        <ele>494.059</ele>
        <time>2024-09-25T11:13:52Z</time>
      </trkpt>
      <trkpt lon="78.521160060860012" lat="17.644643813779357">
        <ele>494.059</ele>
        <time>2024-09-25T11:13:52Z</time>
      </trkpt>
      <trkpt lon="78.521160445279804" lat="17.644645411034929">
        <ele>494.062</ele>
        <time>2024-09-25T11:13:52Z</time>
      </trkpt>
      <trkpt lon="78.521160827553402" lat="17.64464699808028">
        <ele>494.066</ele>
        <time>2024-09-25T11:13:52Z</time>
      </trkpt>
      <trkpt lon="78.521161208709017" lat="17.644648578237764">
        <ele>494.071</ele>
        <time>2024-09-25T11:13:52Z</time>
      </trkpt>
      <trkpt lon="78.521161589560563" lat="17.64465015425105">
        <ele>494.076</ele>
        <time>2024-09-25T11:13:52Z</time>
      </trkpt>
      <trkpt lon="78.521161970732138" lat="17.644651728332281">
        <ele>494.082</ele>
        <time>2024-09-25T11:13:52Z</time>
      </trkpt>
      <trkpt lon="78.521162352683092" lat="17.644653302216096">
        <ele>494.088</ele>
        <time>2024-09-25T11:13:52Z</time>
      </trkpt>
      <trkpt lon="78.521162735732617" lat="17.644654877216951">
        <ele>494.093</ele>
        <time>2024-09-25T11:13:52Z</time>
      </trkpt>
      <trkpt lon="78.521163120083173" lat="17.64465645428691">
        <ele>494.098</ele>
        <time>2024-09-25T11:13:52Z</time>
      </trkpt>
      <trkpt lon="78.521163505842182" lat="17.644658034071796">
        <ele>494.103</ele>
        <time>2024-09-25T11:13:52Z</time>
      </trkpt>
      <trkpt lon="78.521163893041717" lat="17.644659616964155">
        <ele>494.107</ele>
        <time>2024-09-25T11:13:52Z</time>
      </trkpt>
      <trkpt lon="78.521164281655942" lat="17.644661203151976">
        <ele>494.111</ele>
        <time>2024-09-25T11:13:52Z</time>
      </trkpt>
      <trkpt lon="78.521164671616219" lat="17.644662792662515">
        <ele>494.114</ele>
        <time>2024-09-25T11:13:52Z</time>
      </trkpt>
      <trkpt lon="78.521165062824082" lat="17.644664385400922">
        <ele>494.117</ele>
        <time>2024-09-25T11:13:52Z</time>
      </trkpt>
      <trkpt lon="78.521165455161977" lat="17.644665981183611">
        <ele>494.119</ele>
        <time>2024-09-25T11:13:52Z</time>
      </trkpt>
      <trkpt lon="78.521165848502051" lat="17.644667579766448">
        <ele>494.121</ele>
        <time>2024-09-25T11:13:52Z</time>
      </trkpt>
      <trkpt lon="78.521166242713093" lat="17.644669180868167">
        <ele>494.122</ele>
        <time>2024-09-25T11:13:52Z</time>
      </trkpt>
      <trkpt lon="78.521166637665971" lat="17.644670784189259">
        <ele>494.123</ele>
        <time>2024-09-25T11:13:52Z</time>
      </trkpt>
      <trkpt lon="78.521167033237589" lat="17.644672389426884">
        <ele>494.124</ele>
        <time>2024-09-25T11:13:52Z</time>
      </trkpt>
      <trkpt lon="78.52116751630318" lat="17.644674466067109">
        <ele>494.208</ele>
        <time>2024-09-25T11:13:53Z</time>
      </trkpt>
      <trkpt lon="78.521167961647947" lat="17.644676487577783">
        <ele>494.279</ele>
        <time>2024-09-25T11:13:53Z</time>
      </trkpt>
      <trkpt lon="78.521168373846194" lat="17.64467845540436">
        <ele>494.338</ele>
        <time>2024-09-25T11:13:53Z</time>
      </trkpt>
      <trkpt lon="78.521168757497279" lat="17.644680372500833">
        <ele>494.384</ele>
        <time>2024-09-25T11:13:53Z</time>
      </trkpt>
      <trkpt lon="78.521169117059657" lat="17.644682242855779">
        <ele>494.421</ele>
        <time>2024-09-25T11:13:53Z</time>
      </trkpt>
      <trkpt lon="78.52116945673076" lat="17.644684071099142">
        <ele>494.449</ele>
        <time>2024-09-25T11:13:53Z</time>
      </trkpt>
      <trkpt lon="78.521169780365483" lat="17.644685862183533">
        <ele>494.469</ele>
        <time>2024-09-25T11:13:53Z</time>
      </trkpt>
      <trkpt lon="78.52117009142664" lat="17.644687621132803">
        <ele>494.482</ele>
        <time>2024-09-25T11:13:53Z</time>
      </trkpt>
      <trkpt lon="78.521170392961224" lat="17.644689352850033">
        <ele>494.49</ele>
        <time>2024-09-25T11:13:53Z</time>
      </trkpt>
      <trkpt lon="78.521170687596936" lat="17.644691061976982">
        <ele>494.493</ele>
        <time>2024-09-25T11:13:53Z</time>
      </trkpt>
      <trkpt lon="78.521170977554178" lat="17.644692752797219">
        <ele>494.493</ele>
        <time>2024-09-25T11:13:53Z</time>
      </trkpt>
      <trkpt lon="78.521171264669221" lat="17.644694429175541">
        <ele>494.491</ele>
        <time>2024-09-25T11:13:53Z</time>
      </trkpt>
      <trkpt lon="78.521171550424967" lat="17.644696094526843">
        <ele>494.487</ele>
        <time>2024-09-25T11:13:53Z</time>
      </trkpt>
      <trkpt lon="78.521171835986436" lat="17.644697751808284">
        <ele>494.481</ele>
        <time>2024-09-25T11:13:53Z</time>
      </trkpt>
      <trkpt lon="78.521172122238625" lat="17.644699403529273">
        <ele>494.475</ele>
        <time>2024-09-25T11:13:53Z</time>
      </trkpt>
      <trkpt lon="78.521172409824644" lat="17.644701051774561">
        <ele>494.468</ele>
        <time>2024-09-25T11:13:53Z</time>
      </trkpt>
      <trkpt lon="78.521172699182955" lat="17.644702698236358">
        <ele>494.462</ele>
        <time>2024-09-25T11:13:53Z</time>
      </trkpt>
      <trkpt lon="78.521172990582556" lat="17.644704344252229">
        <ele>494.455</ele>
        <time>2024-09-25T11:13:53Z</time>
      </trkpt>
      <trkpt lon="78.521173284155296" lat="17.644705990845932">
        <ele>494.449</ele>
        <time>2024-09-25T11:13:53Z</time>
      </trkpt>
      <trkpt lon="78.521173579925119" lat="17.644707638769123">
        <ele>494.444</ele>
        <time>2024-09-25T11:13:53Z</time>
      </trkpt>
      <trkpt lon="78.52117387783376" lat="17.644709288542249">
        <ele>494.439</ele>
        <time>2024-09-25T11:13:53Z</time>
      </trkpt>
      <trkpt lon="78.521174177763001" lat="17.644710940493376">
        <ele>494.434</ele>
        <time>2024-09-25T11:13:53Z</time>
      </trkpt>
      <trkpt lon="78.521174479553594" lat="17.644712594794168">
        <ele>494.43</ele>
        <time>2024-09-25T11:13:53Z</time>
      </trkpt>
      <trkpt lon="78.521174783020825" lat="17.644714251492431">
        <ele>494.427</ele>
        <time>2024-09-25T11:13:53Z</time>
      </trkpt>
      <trkpt lon="78.521175087967237" lat="17.644715910540928">
        <ele>494.425</ele>
        <time>2024-09-25T11:13:53Z</time>
      </trkpt>
      <trkpt lon="78.521175394192596" lat="17.64471757182244">
        <ele>494.423</ele>
        <time>2024-09-25T11:13:53Z</time>
      </trkpt>
      <trkpt lon="78.521175701501562" lat="17.644719235171056">
        <ele>494.421</ele>
        <time>2024-09-25T11:13:53Z</time>
      </trkpt>
      <trkpt lon="78.521176009709251" lat="17.644720900389913">
        <ele>494.42</ele>
        <time>2024-09-25T11:13:53Z</time>
      </trkpt>
      <trkpt lon="78.52117631864509" lat="17.644722567265667">
        <ele>494.419</ele>
        <time>2024-09-25T11:13:53Z</time>
      </trkpt>
      <trkpt lon="78.521176684525159" lat="17.644724674741312">
        <ele>494.547</ele>
        <time>2024-09-25T11:13:54Z</time>
      </trkpt>
      <trkpt lon="78.521177011357864" lat="17.644726683748061">
        <ele>494.656</ele>
        <time>2024-09-25T11:13:54Z</time>
      </trkpt>
      <trkpt lon="78.521177304374433" lat="17.644728603049618">
        <ele>494.745</ele>
        <time>2024-09-25T11:13:54Z</time>
      </trkpt>
      <trkpt lon="78.52117756869265" lat="17.644730442367582">
        <ele>494.818</ele>
        <time>2024-09-25T11:13:54Z</time>
      </trkpt>
      <trkpt lon="78.521177809167057" lat="17.644732211807991">
        <ele>494.874</ele>
        <time>2024-09-25T11:13:54Z</time>
      </trkpt>
      <trkpt lon="78.521178030285128" lat="17.64473392141571">
        <ele>494.917</ele>
        <time>2024-09-25T11:13:54Z</time>
      </trkpt>
      <trkpt lon="78.521178236101846" lat="17.644735580840653">
        <ele>494.948</ele>
        <time>2024-09-25T11:13:54Z</time>
      </trkpt>
      <trkpt lon="78.52117843020531" lat="17.644737199099868">
        <ele>494.969</ele>
        <time>2024-09-25T11:13:54Z</time>
      </trkpt>
      <trkpt lon="78.521178615707072" lat="17.644738784420195">
        <ele>494.982</ele>
        <time>2024-09-25T11:13:54Z</time>
      </trkpt>
      <trkpt lon="78.521178795251387" lat="17.644740344147088">
        <ele>494.988</ele>
        <time>2024-09-25T11:13:54Z</time>
      </trkpt>
      <trkpt lon="78.521178971038452" lat="17.644741884706502">
        <ele>494.989</ele>
        <time>2024-09-25T11:13:54Z</time>
      </trkpt>
      <trkpt lon="78.521179144857285" lat="17.644743411608086">
        <ele>494.986</ele>
        <time>2024-09-25T11:13:54Z</time>
      </trkpt>
      <trkpt lon="78.521179318124851" lat="17.644744929479426">
        <ele>494.98</ele>
        <time>2024-09-25T11:13:54Z</time>
      </trkpt>
      <trkpt lon="78.521179491928379" lat="17.644746442122475">
        <ele>494.972</ele>
        <time>2024-09-25T11:13:54Z</time>
      </trkpt>
      <trkpt lon="78.521179667068878" lat="17.644747952584783">
        <ele>494.963</ele>
        <time>2024-09-25T11:13:54Z</time>
      </trkpt>
      <trkpt lon="78.521179844103699" lat="17.644749463239371">
        <ele>494.953</ele>
        <time>2024-09-25T11:13:54Z</time>
      </trkpt>
      <trkpt lon="78.521180023387203" lat="17.644750975868387">
        <ele>494.943</ele>
        <time>2024-09-25T11:13:54Z</time>
      </trkpt>
      <trkpt lon="78.521180205108394" lat="17.644752491746669">
        <ele>494.933</ele>
        <time>2024-09-25T11:13:54Z</time>
      </trkpt>
      <trkpt lon="78.521180389325139" lat="17.644754011722362">
        <ele>494.924</ele>
        <time>2024-09-25T11:13:54Z</time>
      </trkpt>
      <trkpt lon="78.52118057599435" lat="17.644755536292518">
        <ele>494.916</ele>
        <time>2024-09-25T11:13:54Z</time>
      </trkpt>
      <trkpt lon="78.521180764998391" lat="17.644757065672259">
        <ele>494.908</ele>
        <time>2024-09-25T11:13:54Z</time>
      </trkpt>
      <trkpt lon="78.521180956167484" lat="17.644758599856715">
        <ele>494.902</ele>
        <time>2024-09-25T11:13:54Z</time>
      </trkpt>
      <trkpt lon="78.521181149298471" lat="17.644760138675352">
        <ele>494.896</ele>
        <time>2024-09-25T11:13:54Z</time>
      </trkpt>
      <trkpt lon="78.52118134417006" lat="17.644761681838677">
        <ele>494.891</ele>
        <time>2024-09-25T11:13:54Z</time>
      </trkpt>
      <trkpt lon="78.52118154055502" lat="17.644763228977581">
        <ele>494.887</ele>
        <time>2024-09-25T11:13:54Z</time>
      </trkpt>
      <trkpt lon="78.521181738229487" lat="17.644764779675757">
        <ele>494.884</ele>
        <time>2024-09-25T11:13:54Z</time>
      </trkpt>
      <trkpt lon="78.521181936979886" lat="17.64476633349577">
        <ele>494.881</ele>
        <time>2024-09-25T11:13:54Z</time>
      </trkpt>
      <trkpt lon="78.521182136607919" lat="17.644767889999468">
        <ele>494.879</ele>
        <time>2024-09-25T11:13:54Z</time>
      </trkpt>
      <trkpt lon="78.521182336933592" lat="17.644769448763348">
        <ele>494.878</ele>
        <time>2024-09-25T11:13:54Z</time>
      </trkpt>
      <trkpt lon="78.521182619730084" lat="17.644771491156249">
        <ele>494.811</ele>
        <time>2024-09-25T11:13:55Z</time>
      </trkpt>
      <trkpt lon="78.521182915601401" lat="17.644773501877882">
        <ele>494.756</ele>
        <time>2024-09-25T11:13:55Z</time>
      </trkpt>
      <trkpt lon="78.52118322118271" lat="17.644775478455092">
        <ele>494.71</ele>
        <time>2024-09-25T11:13:55Z</time>
      </trkpt>
      <trkpt lon="78.521183533600322" lat="17.644777420209387">
        <ele>494.673</ele>
        <time>2024-09-25T11:13:55Z</time>
      </trkpt>
      <trkpt lon="78.521183850450583" lat="17.644779327838677">
        <ele>494.645</ele>
        <time>2024-09-25T11:13:55Z</time>
      </trkpt>
      <trkpt lon="78.521184169767636" lat="17.644781203054173">
        <ele>494.623</ele>
        <time>2024-09-25T11:13:55Z</time>
      </trkpt>
      <trkpt lon="78.521184489983938" lat="17.644783048271524">
        <ele>494.608</ele>
        <time>2024-09-25T11:13:55Z</time>
      </trkpt>
      <trkpt lon="78.521184809886606" lat="17.644784866353479">
        <ele>494.598</ele>
        <time>2024-09-25T11:13:55Z</time>
      </trkpt>
      <trkpt lon="78.521185128572228" lat="17.644786660400417">
        <ele>494.592</ele>
        <time>2024-09-25T11:13:55Z</time>
      </trkpt>
      <trkpt lon="78.521185445402097" lat="17.644788433584164">
        <ele>494.59</ele>
        <time>2024-09-25T11:13:55Z</time>
      </trkpt>
      <trkpt lon="78.521185759959167" lat="17.644790189020249">
        <ele>494.59</ele>
        <time>2024-09-25T11:13:55Z</time>
      </trkpt>
      <trkpt lon="78.521186072007993" lat="17.644791929673563">
        <ele>494.592</ele>
        <time>2024-09-25T11:13:55Z</time>
      </trkpt>
      <trkpt lon="78.521186381458236" lat="17.644793658292478">
        <ele>494.595</ele>
        <time>2024-09-25T11:13:55Z</time>
      </trkpt>
      <trkpt lon="78.521186688332008" lat="17.644795377366705">
        <ele>494.6</ele>
        <time>2024-09-25T11:13:55Z</time>
      </trkpt>
      <trkpt lon="78.52118699273548" lat="17.644797089104504">
        <ele>494.605</ele>
        <time>2024-09-25T11:13:55Z</time>
      </trkpt>
      <trkpt lon="78.521187294834462" lat="17.644798795425281">
        <ele>494.61</ele>
        <time>2024-09-25T11:13:55Z</time>
      </trkpt>
      <trkpt lon="78.521187594833961" lat="17.644800497964045">
        <ele>494.616</ele>
        <time>2024-09-25T11:13:55Z</time>
      </trkpt>
      <trkpt lon="78.521187892961464" lat="17.644802198084633">
        <ele>494.621</ele>
        <time>2024-09-25T11:13:55Z</time>
      </trkpt>
      <trkpt lon="78.521188189453426" lat="17.644803896899113">
        <ele>494.625</ele>
        <time>2024-09-25T11:13:55Z</time>
      </trkpt>
      <trkpt lon="78.521188484544936" lat="17.644805595291132">
        <ele>494.63</ele>
        <time>2024-09-25T11:13:55Z</time>
      </trkpt>
      <trkpt lon="78.521188778461834" lat="17.644807293941476">
        <ele>494.634</ele>
        <time>2024-09-25T11:13:55Z</time>
      </trkpt>
      <trkpt lon="78.521189071415108" lat="17.644808993354353">
        <ele>494.637</ele>
        <time>2024-09-25T11:13:55Z</time>
      </trkpt>
      <trkpt lon="78.521189363597315" lat="17.644810693883368">
        <ele>494.64</ele>
        <time>2024-09-25T11:13:55Z</time>
      </trkpt>
      <trkpt lon="78.521189655180393" lat="17.644812395756311">
        <ele>494.643</ele>
        <time>2024-09-25T11:13:55Z</time>
      </trkpt>
      <trkpt lon="78.52118994631472" lat="17.644814099098213">
        <ele>494.645</ele>
        <time>2024-09-25T11:13:55Z</time>
      </trkpt>
      <trkpt lon="78.521190237129275" lat="17.644815803952312">
        <ele>494.646</ele>
        <time>2024-09-25T11:13:55Z</time>
      </trkpt>
      <trkpt lon="78.521190527732372" lat="17.64481751029869">
        <ele>494.648</ele>
        <time>2024-09-25T11:13:55Z</time>
      </trkpt>
      <trkpt lon="78.521190818213" lat="17.644819218070499">
        <ele>494.649</ele>
        <time>2024-09-25T11:13:55Z</time>
      </trkpt>
      <trkpt lon="78.521191108642512" lat="17.644820927167853">
        <ele>494.649</ele>
        <time>2024-09-25T11:13:55Z</time>
      </trkpt>
      <trkpt lon="78.521191521835618" lat="17.644823112587691">
        <ele>494.55</ele>
        <time>2024-09-25T11:13:56Z</time>
      </trkpt>
      <trkpt lon="78.52119195659283" lat="17.644825217701403">
        <ele>494.466</ele>
        <time>2024-09-25T11:13:56Z</time>
      </trkpt>
      <trkpt lon="78.521192407683301" lat="17.644827247908921">
        <ele>494.397</ele>
        <time>2024-09-25T11:13:56Z</time>
      </trkpt>
      <trkpt lon="78.521192870596693" lat="17.644829209882214">
        <ele>494.341</ele>
        <time>2024-09-25T11:13:56Z</time>
      </trkpt>
      <trkpt lon="78.521193341522434" lat="17.644831111020427">
        <ele>494.297</ele>
        <time>2024-09-25T11:13:56Z</time>
      </trkpt>
      <trkpt lon="78.521193817309793" lat="17.644832959013886">
        <ele>494.264</ele>
        <time>2024-09-25T11:13:56Z</time>
      </trkpt>
      <trkpt lon="78.521194295414872" lat="17.644834761505354">
        <ele>494.24</ele>
        <time>2024-09-25T11:13:56Z</time>
      </trkpt>
      <trkpt lon="78.521194773839554" lat="17.644836525836297">
        <ele>494.224</ele>
        <time>2024-09-25T11:13:56Z</time>
      </trkpt>
      <trkpt lon="78.521195251066516" lat="17.644838258866102">
        <ele>494.214</ele>
        <time>2024-09-25T11:13:56Z</time>
      </trkpt>
      <trkpt lon="78.52119572599355" lat="17.644839966852551">
        <ele>494.209</ele>
        <time>2024-09-25T11:13:56Z</time>
      </trkpt>
      <trkpt lon="78.521196197869727" lat="17.644841655382578">
        <ele>494.208</ele>
        <time>2024-09-25T11:13:56Z</time>
      </trkpt>
      <trkpt lon="78.521196666234886" lat="17.644843329343413">
        <ele>494.211</ele>
        <time>2024-09-25T11:13:56Z</time>
      </trkpt>
      <trkpt lon="78.521197130864124" lat="17.644844992925087">
        <ele>494.215</ele>
        <time>2024-09-25T11:13:56Z</time>
      </trkpt>
      <trkpt lon="78.521197591717623" lat="17.644846649646578">
        <ele>494.221</ele>
        <time>2024-09-25T11:13:56Z</time>
      </trkpt>
      <trkpt lon="78.521198048896494" lat="17.644848302398792">
        <ele>494.228</ele>
        <time>2024-09-25T11:13:56Z</time>
      </trkpt>
      <trkpt lon="78.521198502604577" lat="17.644849953498788">
        <ele>494.236</ele>
        <time>2024-09-25T11:13:56Z</time>
      </trkpt>
      <trkpt lon="78.521198953116084" lat="17.644851604750581">
        <ele>494.244</ele>
        <time>2024-09-25T11:13:56Z</time>
      </trkpt>
      <trkpt lon="78.521199400748714" lat="17.644853257508792">
        <ele>494.251</ele>
        <time>2024-09-25T11:13:56Z</time>
      </trkpt>
      <trkpt lon="78.521199845841949" lat="17.644854912742243">
        <ele>494.258</ele>
        <time>2024-09-25T11:13:56Z</time>
      </trkpt>
      <trkpt lon="78.521200288739863" lat="17.644856571095278">
        <ele>494.265</ele>
        <time>2024-09-25T11:13:56Z</time>
      </trkpt>
      <trkpt lon="78.521200729778073" lat="17.644858232945282">
        <ele>494.271</ele>
        <time>2024-09-25T11:13:56Z</time>
      </trkpt>
      <trkpt lon="78.521201169274178" lat="17.64485989845528">
        <ele>494.276</ele>
        <time>2024-09-25T11:13:56Z</time>
      </trkpt>
      <trkpt lon="78.521201607521149" lat="17.64486156762106">
        <ele>494.28</ele>
        <time>2024-09-25T11:13:56Z</time>
      </trkpt>
      <trkpt lon="78.521202044783195" lat="17.644863240312478">
        <ele>494.284</ele>
        <time>2024-09-25T11:13:56Z</time>
      </trkpt>
      <trkpt lon="78.52120248129367" lat="17.644864916308997">
        <ele>494.287</ele>
        <time>2024-09-25T11:13:56Z</time>
      </trkpt>
      <trkpt lon="78.521202917254598" lat="17.644866595329585">
        <ele>494.29</ele>
        <time>2024-09-25T11:13:56Z</time>
      </trkpt>
      <trkpt lon="78.521203352837375" lat="17.644868277057373">
        <ele>494.292</ele>
        <time>2024-09-25T11:13:56Z</time>
      </trkpt>
      <trkpt lon="78.521203788184309" lat="17.644869961159479">
        <ele>494.293</ele>
        <time>2024-09-25T11:13:56Z</time>
      </trkpt>
      <trkpt lon="78.521204223410862" lat="17.644871647302519">
        <ele>494.294</ele>
        <time>2024-09-25T11:13:56Z</time>
      </trkpt>
      <trkpt lon="78.521204782584732" lat="17.644873871615346">
        <ele>494.336</ele>
        <time>2024-09-25T11:13:57Z</time>
      </trkpt>
      <trkpt lon="78.521205323516938" lat="17.64487607430166">
        <ele>494.372</ele>
        <time>2024-09-25T11:13:57Z</time>
      </trkpt>
      <trkpt lon="78.521205847239315" lat="17.64487825050929">
        <ele>494.401</ele>
        <time>2024-09-25T11:13:57Z</time>
      </trkpt>
      <trkpt lon="78.521206355127376" lat="17.64488039750016">
        <ele>494.424</ele>
        <time>2024-09-25T11:13:57Z</time>
      </trkpt>
      <trkpt lon="78.521206848767889" lat="17.644882514224953">
        <ele>494.442</ele>
        <time>2024-09-25T11:13:57Z</time>
      </trkpt>
      <trkpt lon="78.521207329851819" lat="17.644884600943776">
        <ele>494.455</ele>
        <time>2024-09-25T11:13:57Z</time>
      </trkpt>
      <trkpt lon="78.521207800089897" lat="17.644886658894784">
        <ele>494.465</ele>
        <time>2024-09-25T11:13:57Z</time>
      </trkpt>
      <trkpt lon="78.521208261148359" lat="17.644888690010394">
        <ele>494.471</ele>
        <time>2024-09-25T11:13:57Z</time>
      </trkpt>
      <trkpt lon="78.521208714602054" lat="17.644890696679258">
        <ele>494.475</ele>
        <time>2024-09-25T11:13:57Z</time>
      </trkpt>
      <trkpt lon="78.521209161902235" lat="17.644892681550999">
        <ele>494.477</ele>
        <time>2024-09-25T11:13:57Z</time>
      </trkpt>
      <trkpt lon="78.521209604356571" lat="17.644894647379928">
        <ele>494.476</ele>
        <time>2024-09-25T11:13:57Z</time>
      </trkpt>
      <trkpt lon="78.521210043119112" lat="17.644896596903624">
        <ele>494.475</ele>
        <time>2024-09-25T11:13:57Z</time>
      </trkpt>
      <trkpt lon="78.521210479187999" lat="17.644898532751991">
        <ele>494.473</ele>
        <time>2024-09-25T11:13:57Z</time>
      </trkpt>
      <trkpt lon="78.521210913409192" lat="17.64490045738242">
        <ele>494.47</ele>
        <time>2024-09-25T11:13:57Z</time>
      </trkpt>
      <trkpt lon="78.521211346484563" lat="17.644902373036906">
        <ele>494.467</ele>
        <time>2024-09-25T11:13:57Z</time>
      </trkpt>
      <trkpt lon="78.521211778982988" lat="17.644904281717242">
        <ele>494.463</ele>
        <time>2024-09-25T11:13:57Z</time>
      </trkpt>
      <trkpt lon="78.521212211353316" lat="17.644906185174609">
        <ele>494.46</ele>
        <time>2024-09-25T11:13:57Z</time>
      </trkpt>
      <trkpt lon="78.521212643938384" lat="17.644908084910465">
        <ele>494.457</ele>
        <time>2024-09-25T11:13:57Z</time>
      </trkpt>
      <trkpt lon="78.521213076989127" lat="17.644909982185869">
        <ele>494.454</ele>
        <time>2024-09-25T11:13:57Z</time>
      </trkpt>
      <trkpt lon="78.521213510678564" lat="17.644911878036886">
        <ele>494.451</ele>
        <time>2024-09-25T11:13:57Z</time>
      </trkpt>
      <trkpt lon="78.521213945114923" lat="17.644913773293986">
        <ele>494.448</ele>
        <time>2024-09-25T11:13:57Z</time>
      </trkpt>
      <trkpt lon="78.52121438035384" lat="17.644915668603808">
        <ele>494.446</ele>
        <time>2024-09-25T11:13:57Z</time>
      </trkpt>
      <trkpt lon="78.521214816409369" lat="17.644917564451969">
        <ele>494.444</ele>
        <time>2024-09-25T11:13:57Z</time>
      </trkpt>
      <trkpt lon="78.52121525326379" lat="17.64491946118585">
        <ele>494.443</ele>
        <time>2024-09-25T11:13:57Z</time>
      </trkpt>
      <trkpt lon="78.521215690875991" lat="17.644921359036537">
        <ele>494.441</ele>
        <time>2024-09-25T11:13:57Z</time>
      </trkpt>
      <trkpt lon="78.521216129188616" lat="17.644923258139446">
        <ele>494.44</ele>
        <time>2024-09-25T11:13:57Z</time>
      </trkpt>
      <trkpt lon="78.521216568134165" lat="17.644925158553171">
        <ele>494.439</ele>
        <time>2024-09-25T11:13:57Z</time>
      </trkpt>
      <trkpt lon="78.521217007639734" lat="17.644927060276359">
        <ele>494.439</ele>
        <time>2024-09-25T11:13:57Z</time>
      </trkpt>
      <trkpt lon="78.521217447630931" lat="17.644928963262505">
        <ele>494.438</ele>
        <time>2024-09-25T11:13:57Z</time>
      </trkpt>
      <trkpt lon="78.521218022779635" lat="17.644931304346748">
        <ele>494.371</ele>
        <time>2024-09-25T11:13:58Z</time>
      </trkpt>
      <trkpt lon="78.521218587846789" lat="17.644933478257602">
        <ele>494.314</ele>
        <time>2024-09-25T11:13:58Z</time>
      </trkpt>
      <trkpt lon="78.521219142348414" lat="17.644935504667963">
        <ele>494.268</ele>
        <time>2024-09-25T11:13:58Z</time>
      </trkpt>
      <trkpt lon="78.521219686286656" lat="17.644937403530108">
        <ele>494.23</ele>
        <time>2024-09-25T11:13:58Z</time>
      </trkpt>
      <trkpt lon="78.52122022002996" lat="17.644939194314006">
        <ele>494.201</ele>
        <time>2024-09-25T11:13:58Z</time>
      </trkpt>
      <trkpt lon="78.521220744210126" lat="17.644940895449871">
        <ele>494.179</ele>
        <time>2024-09-25T11:13:58Z</time>
      </trkpt>
      <trkpt lon="78.521221259635553" lat="17.644942523944071">
        <ele>494.163</ele>
        <time>2024-09-25T11:13:58Z</time>
      </trkpt>
      <trkpt lon="78.521221767219657" lat="17.644944095139046">
        <ele>494.152</ele>
        <time>2024-09-25T11:13:58Z</time>
      </trkpt>
      <trkpt lon="78.521222267923292" lat="17.644945622590118">
        <ele>494.146</ele>
        <time>2024-09-25T11:13:58Z</time>
      </trkpt>
      <trkpt lon="78.521222762709726" lat="17.644947118034672">
        <ele>494.143</ele>
        <time>2024-09-25T11:13:58Z</time>
      </trkpt>
      <trkpt lon="78.521223252510595" lat="17.644948591432101">
        <ele>494.143</ele>
        <time>2024-09-25T11:13:58Z</time>
      </trkpt>
      <trkpt lon="78.521223738201314" lat="17.644950051055609">
        <ele>494.145</ele>
        <time>2024-09-25T11:13:58Z</time>
      </trkpt>
      <trkpt lon="78.521224220584529" lat="17.644951503620035">
        <ele>494.148</ele>
        <time>2024-09-25T11:13:58Z</time>
      </trkpt>
      <trkpt lon="78.521224700380159" lat="17.644952954432281">
        <ele>494.152</ele>
        <time>2024-09-25T11:13:58Z</time>
      </trkpt>
      <trkpt lon="78.521225178220718" lat="17.644954407553616">
        <ele>494.157</ele>
        <time>2024-09-25T11:13:58Z</time>
      </trkpt>
      <trkpt lon="78.521225654650962" lat="17.644955865965301">
        <ele>494.163</ele>
        <time>2024-09-25T11:13:58Z</time>
      </trkpt>
      <trkpt lon="78.521226130130486" lat="17.644957331730932">
        <ele>494.168</ele>
        <time>2024-09-25T11:13:58Z</time>
      </trkpt>
      <trkpt lon="78.521226605038748" lat="17.644958806150679">
        <ele>494.173</ele>
        <time>2024-09-25T11:13:58Z</time>
      </trkpt>
      <trkpt lon="78.521227079681651" lat="17.644960289904084">
        <ele>494.178</ele>
        <time>2024-09-25T11:13:58Z</time>
      </trkpt>
      <trkpt lon="78.521227554298974" lat="17.644961783179244">
        <ele>494.182</ele>
        <time>2024-09-25T11:13:58Z</time>
      </trkpt>
      <trkpt lon="78.52122802907239" lat="17.644963285787274">
        <ele>494.186</ele>
        <time>2024-09-25T11:13:58Z</time>
      </trkpt>
      <trkpt lon="78.52122850413339" lat="17.644964797261661">
        <ele>494.19</ele>
        <time>2024-09-25T11:13:58Z</time>
      </trkpt>
      <trkpt lon="78.521228979571163" lat="17.644966316942828">
        <ele>494.193</ele>
        <time>2024-09-25T11:13:58Z</time>
      </trkpt>
      <trkpt lon="78.521229455439794" lat="17.644967844048555">
        <ele>494.195</ele>
        <time>2024-09-25T11:13:58Z</time>
      </trkpt>
      <trkpt lon="78.521229931765106" lat="17.64496937773135">
        <ele>494.197</ele>
        <time>2024-09-25T11:13:58Z</time>
      </trkpt>
      <trkpt lon="78.521230408550721" lat="17.644970917123942">
        <ele>494.199</ele>
        <time>2024-09-25T11:13:58Z</time>
      </trkpt>
      <trkpt lon="78.521230885783382" lat="17.644972461374277">
        <ele>494.2</ele>
        <time>2024-09-25T11:13:58Z</time>
      </trkpt>
      <trkpt lon="78.521231363437565" lat="17.644974009671351">
        <ele>494.201</ele>
        <time>2024-09-25T11:13:58Z</time>
      </trkpt>
      <trkpt lon="78.521231841479363" lat="17.644975561263287">
        <ele>494.202</ele>
        <time>2024-09-25T11:13:58Z</time>
      </trkpt>
      <trkpt lon="78.521232425118711" lat="17.64497760107459">
        <ele>493.984</ele>
        <time>2024-09-25T11:13:59Z</time>
      </trkpt>
      <trkpt lon="78.521232963015251" lat="17.644979615208658">
        <ele>493.799</ele>
        <time>2024-09-25T11:13:59Z</time>
      </trkpt>
      <trkpt lon="78.521233460761351" lat="17.644981600072828">
        <ele>493.647</ele>
        <time>2024-09-25T11:13:59Z</time>
      </trkpt>
      <trkpt lon="78.521233923966975" lat="17.644983553975401">
        <ele>493.525</ele>
        <time>2024-09-25T11:13:59Z</time>
      </trkpt>
      <trkpt lon="78.521234358060582" lat="17.644985476716418">
        <ele>493.429</ele>
        <time>2024-09-25T11:13:59Z</time>
      </trkpt>
      <trkpt lon="78.521234768145263" lat="17.644987369227355">
        <ele>493.356</ele>
        <time>2024-09-25T11:13:59Z</time>
      </trkpt>
      <trkpt lon="78.521235158901618" lat="17.64498923326024">
        <ele>493.303</ele>
        <time>2024-09-25T11:13:59Z</time>
      </trkpt>
      <trkpt lon="78.521235534529183" lat="17.644991071124789">
        <ele>493.268</ele>
        <time>2024-09-25T11:13:59Z</time>
      </trkpt>
      <trkpt lon="78.52123589871907" lat="17.644992885470899">
        <ele>493.246</ele>
        <time>2024-09-25T11:13:59Z</time>
      </trkpt>
      <trkpt lon="78.521236254650901" lat="17.64499467911288">
        <ele>493.236</ele>
        <time>2024-09-25T11:13:59Z</time>
      </trkpt>
      <trkpt lon="78.521236605008326" lat="17.644996454891238">
        <ele>493.235</ele>
        <time>2024-09-25T11:13:59Z</time>
      </trkpt>
      <trkpt lon="78.521236952007897" lat="17.644998215567579">
        <ele>493.241</ele>
        <time>2024-09-25T11:13:59Z</time>
      </trkpt>
      <trkpt lon="78.521237297437153" lat="17.64499996374812">
        <ele>493.251</ele>
        <time>2024-09-25T11:13:59Z</time>
      </trkpt>
      <trkpt lon="78.52123764269804" lat="17.645001701831429">
        <ele>493.265</ele>
        <time>2024-09-25T11:13:59Z</time>
      </trkpt>
      <trkpt lon="78.521237988853244" lat="17.645003431976264">
        <ele>493.28</ele>
        <time>2024-09-25T11:13:59Z</time>
      </trkpt>
      <trkpt lon="78.521238336672781" lat="17.645005156085613">
        <ele>493.297</ele>
        <time>2024-09-25T11:13:59Z</time>
      </trkpt>
      <trkpt lon="78.521238686679283" lat="17.645006875803592">
        <ele>493.314</ele>
        <time>2024-09-25T11:13:59Z</time>
      </trkpt>
      <trkpt lon="78.521239039190789" lat="17.645008592522068">
        <ele>493.331</ele>
        <time>2024-09-25T11:13:59Z</time>
      </trkpt>
      <trkpt lon="78.521239394360023" lat="17.645010307394418">
        <ele>493.346</ele>
        <time>2024-09-25T11:13:59Z</time>
      </trkpt>
      <trkpt lon="78.521239752209837" lat="17.645012021354194">
        <ele>493.36</ele>
        <time>2024-09-25T11:13:59Z</time>
      </trkpt>
      <trkpt lon="78.521240112664316" lat="17.645013735136814">
        <ele>493.373</ele>
        <time>2024-09-25T11:13:59Z</time>
      </trkpt>
      <trkpt lon="78.521240475575823" lat="17.645015449302797">
        <ele>493.385</ele>
        <time>2024-09-25T11:13:59Z</time>
      </trkpt>
      <trkpt lon="78.521240840747737" lat="17.645017164261365">
        <ele>493.394</ele>
        <time>2024-09-25T11:13:59Z</time>
      </trkpt>
      <trkpt lon="78.52124120795331" lat="17.64501888029346">
        <ele>493.403</ele>
        <time>2024-09-25T11:13:59Z</time>
      </trkpt>
      <trkpt lon="78.521241576950999" lat="17.645020597573581">
        <ele>493.41</ele>
        <time>2024-09-25T11:13:59Z</time>
      </trkpt>
      <trkpt lon="78.521241947496492" lat="17.64502231618993">
        <ele>493.415</ele>
        <time>2024-09-25T11:13:59Z</time>
      </trkpt>
      <trkpt lon="78.52124231935187" lat="17.645024036162589">
        <ele>493.419</ele>
        <time>2024-09-25T11:13:59Z</time>
      </trkpt>
      <trkpt lon="78.521242692292304" lat="17.645025757459585">
        <ele>493.423</ele>
        <time>2024-09-25T11:13:59Z</time>
      </trkpt>
      <trkpt lon="78.521243066110614" lat="17.645027480010828">
        <ele>493.425</ele>
        <time>2024-09-25T11:13:59Z</time>
      </trkpt>
      <trkpt lon="78.521243548209981" lat="17.645029668444412">
        <ele>493.368</ele>
        <time>2024-09-25T11:14:00Z</time>
      </trkpt>
      <trkpt lon="78.521244016254599" lat="17.64503176394776">
        <ele>493.32</ele>
        <time>2024-09-25T11:14:00Z</time>
      </trkpt>
      <trkpt lon="78.521244470750986" lat="17.645033774077451">
        <ele>493.28</ele>
        <time>2024-09-25T11:14:00Z</time>
      </trkpt>
      <trkpt lon="78.521244912551523" lat="17.645035707494692">
        <ele>493.248</ele>
        <time>2024-09-25T11:14:00Z</time>
      </trkpt>
      <trkpt lon="78.521245342739633" lat="17.645037573392582">
        <ele>493.222</ele>
        <time>2024-09-25T11:14:00Z</time>
      </trkpt>
      <trkpt lon="78.52124576253533" lat="17.645039381045898">
        <ele>493.202</ele>
        <time>2024-09-25T11:14:00Z</time>
      </trkpt>
      <trkpt lon="78.521246173219168" lat="17.645041139468898">
        <ele>493.188</ele>
        <time>2024-09-25T11:14:00Z</time>
      </trkpt>
      <trkpt lon="78.521246576072926" lat="17.645042857166391">
        <ele>493.178</ele>
        <time>2024-09-25T11:14:00Z</time>
      </trkpt>
      <trkpt lon="78.521246972334751" lat="17.645044541963781">
        <ele>493.171</ele>
        <time>2024-09-25T11:14:00Z</time>
      </trkpt>
      <trkpt lon="78.521247363166893" lat="17.645046200902577">
        <ele>493.168</ele>
        <time>2024-09-25T11:14:00Z</time>
      </trkpt>
      <trkpt lon="78.521247749634057" lat="17.64504784018882">
        <ele>493.167</ele>
        <time>2024-09-25T11:14:00Z</time>
      </trkpt>
      <trkpt lon="78.521248132690431" lat="17.645049465183227">
        <ele>493.168</ele>
        <time>2024-09-25T11:14:00Z</time>
      </trkpt>
      <trkpt lon="78.521248513173717" lat="17.645051080423144">
        <ele>493.17</ele>
        <time>2024-09-25T11:14:00Z</time>
      </trkpt>
      <trkpt lon="78.521248891804788" lat="17.645052689667651">
        <ele>493.173</ele>
        <time>2024-09-25T11:14:00Z</time>
      </trkpt>
      <trkpt lon="78.521249269191358" lat="17.645054295958612">
        <ele>493.177</ele>
        <time>2024-09-25T11:14:00Z</time>
      </trkpt>
      <trkpt lon="78.521249645834743" lat="17.64505590169161">
        <ele>493.181</ele>
        <time>2024-09-25T11:14:00Z</time>
      </trkpt>
      <trkpt lon="78.521250022138673" lat="17.645057508691849">
        <ele>493.185</ele>
        <time>2024-09-25T11:14:00Z</time>
      </trkpt>
      <trkpt lon="78.521250398419269" lat="17.645059118291186">
        <ele>493.189</ele>
        <time>2024-09-25T11:14:00Z</time>
      </trkpt>
      <trkpt lon="78.521250774915615" lat="17.64506073140333">
        <ele>493.193</ele>
        <time>2024-09-25T11:14:00Z</time>
      </trkpt>
      <trkpt lon="78.521251151800485" lat="17.645062348595058">
        <ele>493.197</ele>
        <time>2024-09-25T11:14:00Z</time>
      </trkpt>
      <trkpt lon="78.521251529190579" lat="17.645063970151927">
        <ele>493.2</ele>
        <time>2024-09-25T11:14:00Z</time>
      </trkpt>
      <trkpt lon="78.521251907156369" lat="17.645065596137606">
        <ele>493.203</ele>
        <time>2024-09-25T11:14:00Z</time>
      </trkpt>
      <trkpt lon="78.521252285730952" lat="17.645067226446276">
        <ele>493.205</ele>
        <time>2024-09-25T11:14:00Z</time>
      </trkpt>
      <trkpt lon="78.521252664918137" lat="17.645068860848035">
        <ele>493.208</ele>
        <time>2024-09-25T11:14:00Z</time>
      </trkpt>
      <trkpt lon="78.52125304469952" lat="17.645070499027433">
        <ele>493.209</ele>
        <time>2024-09-25T11:14:00Z</time>
      </trkpt>
      <trkpt lon="78.521253425040626" lat="17.645072140615486">
        <ele>493.211</ele>
        <time>2024-09-25T11:14:00Z</time>
      </trkpt>
      <trkpt lon="78.521253805895967" lat="17.645073785215665">
        <ele>493.212</ele>
        <time>2024-09-25T11:14:00Z</time>
      </trkpt>
      <trkpt lon="78.521254187213458" lat="17.645075432424456">
        <ele>493.213</ele>
        <time>2024-09-25T11:14:00Z</time>
      </trkpt>
      <trkpt lon="78.521254568937735" lat="17.645077081847088">
        <ele>493.214</ele>
        <time>2024-09-25T11:14:00Z</time>
      </trkpt>
      <trkpt lon="78.521255032946058" lat="17.645079221617578">
        <ele>493.231</ele>
        <time>2024-09-25T11:14:01Z</time>
      </trkpt>
      <trkpt lon="78.521255458707486" lat="17.645081309830449">
        <ele>493.246</ele>
        <time>2024-09-25T11:14:01Z</time>
      </trkpt>
      <trkpt lon="78.521255850980822" lat="17.645083347050562">
        <ele>493.258</ele>
        <time>2024-09-25T11:14:01Z</time>
      </trkpt>
      <trkpt lon="78.521256214516342" lat="17.645085335474647">
        <ele>493.268</ele>
        <time>2024-09-25T11:14:01Z</time>
      </trkpt>
      <trkpt lon="78.521256553892911" lat="17.645087278453271">
        <ele>493.275</ele>
        <time>2024-09-25T11:14:01Z</time>
      </trkpt>
      <trkpt lon="78.521256873401185" lat="17.645089180090423">
        <ele>493.281</ele>
        <time>2024-09-25T11:14:01Z</time>
      </trkpt>
      <trkpt lon="78.521257176965491" lat="17.645091044915503">
        <ele>493.285</ele>
        <time>2024-09-25T11:14:01Z</time>
      </trkpt>
      <trkpt lon="78.521257468097815" lat="17.645092877621281">
        <ele>493.288</ele>
        <time>2024-09-25T11:14:01Z</time>
      </trkpt>
      <trkpt lon="78.521257749877265" lat="17.645094682860723">
        <ele>493.289</ele>
        <time>2024-09-25T11:14:01Z</time>
      </trkpt>
      <trkpt lon="78.521258024949759" lat="17.645096465095182">
        <ele>493.29</ele>
        <time>2024-09-25T11:14:01Z</time>
      </trkpt>
      <trkpt lon="78.521258295542722" lat="17.645098228486635">
        <ele>493.29</ele>
        <time>2024-09-25T11:14:01Z</time>
      </trkpt>
      <trkpt lon="78.521258563490818" lat="17.645099976826845">
        <ele>493.289</ele>
        <time>2024-09-25T11:14:01Z</time>
      </trkpt>
      <trkpt lon="78.521258830268906" lat="17.645101713496821">
        <ele>493.288</ele>
        <time>2024-09-25T11:14:01Z</time>
      </trkpt>
      <trkpt lon="78.521259097029372" lat="17.645103441450509">
        <ele>493.287</ele>
        <time>2024-09-25T11:14:01Z</time>
      </trkpt>
      <trkpt lon="78.521259364641523" lat="17.645105163217355">
        <ele>493.285</ele>
        <time>2024-09-25T11:14:01Z</time>
      </trkpt>
      <trkpt lon="78.521259633731077" lat="17.645106880918949">
        <ele>493.284</ele>
        <time>2024-09-25T11:14:01Z</time>
      </trkpt>
      <trkpt lon="78.521259904718406" lat="17.645108596295767">
        <ele>493.282</ele>
        <time>2024-09-25T11:14:01Z</time>
      </trkpt>
      <trkpt lon="78.521260177854487" lat="17.645110310740542">
        <ele>493.281</ele>
        <time>2024-09-25T11:14:01Z</time>
      </trkpt>
      <trkpt lon="78.521260453253873" lat="17.645112025335511">
        <ele>493.28</ele>
        <time>2024-09-25T11:14:01Z</time>
      </trkpt>
      <trkpt lon="78.521260730924311" lat="17.645113740891254">
        <ele>493.279</ele>
        <time>2024-09-25T11:14:01Z</time>
      </trkpt>
      <trkpt lon="78.521261010792784" lat="17.645115457985444">
        <ele>493.278</ele>
        <time>2024-09-25T11:14:01Z</time>
      </trkpt>
      <trkpt lon="78.521261292727928" lat="17.64511717700011">
        <ele>493.277</ele>
        <time>2024-09-25T11:14:01Z</time>
      </trkpt>
      <trkpt lon="78.521261576558913" lat="17.645118898156529">
        <ele>493.276</ele>
        <time>2024-09-25T11:14:01Z</time>
      </trkpt>
      <trkpt lon="78.521261862091137" lat="17.645120621547125">
        <ele>493.275</ele>
        <time>2024-09-25T11:14:01Z</time>
      </trkpt>
      <trkpt lon="78.521262149118812" lat="17.645122347163973">
        <ele>493.275</ele>
        <time>2024-09-25T11:14:01Z</time>
      </trkpt>
      <trkpt lon="78.521262437434899" lat="17.645124074923796">
        <ele>493.274</ele>
        <time>2024-09-25T11:14:01Z</time>
      </trkpt>
      <trkpt lon="78.521262726838586" lat="17.645125804689382">
        <ele>493.274</ele>
        <time>2024-09-25T11:14:01Z</time>
      </trkpt>
      <trkpt lon="78.521263017140697" lat="17.645127536287646">
        <ele>493.274</ele>
        <time>2024-09-25T11:14:01Z</time>
      </trkpt>
      <trkpt lon="78.521263308167448" lat="17.645129269524467">
        <ele>493.273</ele>
        <time>2024-09-25T11:14:01Z</time>
      </trkpt>
      <trkpt lon="78.521263689561323" lat="17.645131486525003">
        <ele>493.272</ele>
        <time>2024-09-25T11:14:02Z</time>
      </trkpt>
      <trkpt lon="78.521264065127852" lat="17.645133622714905">
        <ele>493.271</ele>
        <time>2024-09-25T11:14:02Z</time>
      </trkpt>
      <trkpt lon="78.521264434360276" lat="17.645135683430443">
        <ele>493.27</ele>
        <time>2024-09-25T11:14:02Z</time>
      </trkpt>
      <trkpt lon="78.521264797096578" lat="17.645137675315326">
        <ele>493.269</ele>
        <time>2024-09-25T11:14:02Z</time>
      </trkpt>
      <trkpt lon="78.52126515344024" lat="17.645139605768101">
        <ele>493.269</ele>
        <time>2024-09-25T11:14:02Z</time>
      </trkpt>
      <trkpt lon="78.521265503691282" lat="17.645141482499394">
        <ele>493.268</ele>
        <time>2024-09-25T11:14:02Z</time>
      </trkpt>
      <trkpt lon="78.521265848287442" lat="17.645143313187287">
        <ele>493.268</ele>
        <time>2024-09-25T11:14:02Z</time>
      </trkpt>
      <trkpt lon="78.521266187755074" lat="17.645145105218678">
        <ele>493.268</ele>
        <time>2024-09-25T11:14:02Z</time>
      </trkpt>
      <trkpt lon="78.52126652266908" lat="17.645146865504426">
        <ele>493.268</ele>
        <time>2024-09-25T11:14:02Z</time>
      </trkpt>
      <trkpt lon="78.521266853620972" lat="17.645148600356546">
        <ele>493.268</ele>
        <time>2024-09-25T11:14:02Z</time>
      </trkpt>
      <trkpt lon="78.521267181194233" lat="17.645150315416416">
        <ele>493.268</ele>
        <time>2024-09-25T11:14:02Z</time>
      </trkpt>
      <trkpt lon="78.521267505946057" lat="17.64515201562395">
        <ele>493.268</ele>
        <time>2024-09-25T11:14:02Z</time>
      </trkpt>
      <trkpt lon="78.521267828394414" lat="17.645153705218757">
        <ele>493.268</ele>
        <time>2024-09-25T11:14:02Z</time>
      </trkpt>
      <trkpt lon="78.521268149009785" lat="17.645155387765275">
        <ele>493.268</ele>
        <time>2024-09-25T11:14:02Z</time>
      </trkpt>
      <trkpt lon="78.521268468210465" lat="17.645157066195221">
        <ele>493.268</ele>
        <time>2024-09-25T11:14:02Z</time>
      </trkpt>
      <trkpt lon="78.521268786360935" lat="17.645158742861529">
        <ele>493.268</ele>
        <time>2024-09-25T11:14:02Z</time>
      </trkpt>
      <trkpt lon="78.521269103772383" lat="17.645160419599137">
        <ele>493.268</ele>
        <time>2024-09-25T11:14:02Z</time>
      </trkpt>
      <trkpt lon="78.521269420705067" lat="17.645162097788756">
        <ele>493.269</ele>
        <time>2024-09-25T11:14:02Z</time>
      </trkpt>
      <trkpt lon="78.521269737371782" lat="17.645163778420773">
        <ele>493.269</ele>
        <time>2024-09-25T11:14:02Z</time>
      </trkpt>
      <trkpt lon="78.521270053942203" lat="17.645165462156935">
        <ele>493.269</ele>
        <time>2024-09-25T11:14:02Z</time>
      </trkpt>
      <trkpt lon="78.521270370547583" lat="17.645167149388264">
        <ele>493.269</ele>
        <time>2024-09-25T11:14:02Z</time>
      </trkpt>
      <trkpt lon="78.521270687285607" lat="17.645168840288147">
        <ele>493.269</ele>
        <time>2024-09-25T11:14:02Z</time>
      </trkpt>
      <trkpt lon="78.521271004225341" lat="17.645170534859872">
        <ele>493.269</ele>
        <time>2024-09-25T11:14:02Z</time>
      </trkpt>
      <trkpt lon="78.521271321411831" lat="17.645172232978403">
        <ele>493.269</ele>
        <time>2024-09-25T11:14:02Z</time>
      </trkpt>
      <trkpt lon="78.521271638870459" lat="17.645173934426303">
        <ele>493.269</ele>
        <time>2024-09-25T11:14:02Z</time>
      </trkpt>
      <trkpt lon="78.521271956610917" lat="17.645175638924044">
        <ele>493.269</ele>
        <time>2024-09-25T11:14:02Z</time>
      </trkpt>
      <trkpt lon="78.521272274630718" lat="17.645177346154995">
        <ele>493.269</ele>
        <time>2024-09-25T11:14:02Z</time>
      </trkpt>
      <trkpt lon="78.52127259291828" lat="17.645179055785551">
        <ele>493.269</ele>
        <time>2024-09-25T11:14:02Z</time>
      </trkpt>
      <trkpt lon="78.521272911455583" lat="17.645180767480902">
        <ele>493.269</ele>
        <time>2024-09-25T11:14:02Z</time>
      </trkpt>
      <trkpt lon="78.521273347548544" lat="17.645182972890037">
        <ele>493.359</ele>
        <time>2024-09-25T11:14:03Z</time>
      </trkpt>
      <trkpt lon="78.521273792919928" lat="17.645185112000039">
        <ele>493.435</ele>
        <time>2024-09-25T11:14:03Z</time>
      </trkpt>
      <trkpt lon="78.521274244323351" lat="17.64518718766562">
        <ele>493.497</ele>
        <time>2024-09-25T11:14:03Z</time>
      </trkpt>
      <trkpt lon="78.521274699102193" lat="17.645189204242065">
        <ele>493.547</ele>
        <time>2024-09-25T11:14:03Z</time>
      </trkpt>
      <trkpt lon="78.521275155136593" lat="17.645191167064571">
        <ele>493.587</ele>
        <time>2024-09-25T11:14:03Z</time>
      </trkpt>
      <trkpt lon="78.521275610784983" lat="17.645193082021706">
        <ele>493.616</ele>
        <time>2024-09-25T11:14:03Z</time>
      </trkpt>
      <trkpt lon="78.521276064823326" lat="17.645194955214684">
        <ele>493.638</ele>
        <time>2024-09-25T11:14:03Z</time>
      </trkpt>
      <trkpt lon="78.521276516384845" lat="17.64519679269312">
        <ele>493.652</ele>
        <time>2024-09-25T11:14:03Z</time>
      </trkpt>
      <trkpt lon="78.521276964902157" lat="17.645198600257647">
        <ele>493.661</ele>
        <time>2024-09-25T11:14:03Z</time>
      </trkpt>
      <trkpt lon="78.521277410053273" lat="17.64520038331975">
        <ele>493.665</ele>
        <time>2024-09-25T11:14:03Z</time>
      </trkpt>
      <trkpt lon="78.521277851712398" lat="17.645202146809634">
        <ele>493.665</ele>
        <time>2024-09-25T11:14:03Z</time>
      </trkpt>
      <trkpt lon="78.521278289905965" lat="17.64520389512349">
        <ele>493.663</ele>
        <time>2024-09-25T11:14:03Z</time>
      </trkpt>
      <trkpt lon="78.521278724774291" lat="17.645205632102282">
        <ele>493.659</ele>
        <time>2024-09-25T11:14:03Z</time>
      </trkpt>
      <trkpt lon="78.521279156538583" lat="17.645207361035045">
        <ele>493.653</ele>
        <time>2024-09-25T11:14:03Z</time>
      </trkpt>
      <trkpt lon="78.521279585473394" lat="17.645209084680538">
        <ele>493.646</ele>
        <time>2024-09-25T11:14:03Z</time>
      </trkpt>
      <trkpt lon="78.521280011883974" lat="17.645210805301975">
        <ele>493.639</ele>
        <time>2024-09-25T11:14:03Z</time>
      </trkpt>
      <trkpt lon="78.521280436088091" lat="17.645212524710427">
        <ele>493.632</ele>
        <time>2024-09-25T11:14:03Z</time>
      </trkpt>
      <trkpt lon="78.521280858401894" lat="17.64521424431323">
        <ele>493.626</ele>
        <time>2024-09-25T11:14:03Z</time>
      </trkpt>
      <trkpt lon="78.521281279129369" lat="17.645215965164507">
        <ele>493.619</ele>
        <time>2024-09-25T11:14:03Z</time>
      </trkpt>
      <trkpt lon="78.521281698554731" lat="17.645217688015517">
        <ele>493.613</ele>
        <time>2024-09-25T11:14:03Z</time>
      </trkpt>
      <trkpt lon="78.521282116937471" lat="17.645219413363119">
        <ele>493.608</ele>
        <time>2024-09-25T11:14:03Z</time>
      </trkpt>
      <trkpt lon="78.521282534509396" lat="17.645221141495149">
        <ele>493.603</ele>
        <time>2024-09-25T11:14:03Z</time>
      </trkpt>
      <trkpt lon="78.52128295147341" lat="17.645222872531885">
        <ele>493.599</ele>
        <time>2024-09-25T11:14:03Z</time>
      </trkpt>
      <trkpt lon="78.52128336800358" lat="17.645224606463117">
        <ele>493.596</ele>
        <time>2024-09-25T11:14:03Z</time>
      </trkpt>
      <trkpt lon="78.521283784246165" lat="17.645226343180617">
        <ele>493.593</ele>
        <time>2024-09-25T11:14:03Z</time>
      </trkpt>
      <trkpt lon="78.521284200321446" lat="17.645228082506048">
        <ele>493.591</ele>
        <time>2024-09-25T11:14:03Z</time>
      </trkpt>
      <trkpt lon="78.521284616325843" lat="17.645229824214397">
        <ele>493.589</ele>
        <time>2024-09-25T11:14:03Z</time>
      </trkpt>
      <trkpt lon="78.521285032334561" lat="17.645231568053294">
        <ele>493.588</ele>
        <time>2024-09-25T11:14:03Z</time>
      </trkpt>
      <trkpt lon="78.521285448404115" lat="17.645233313758506">
        <ele>493.587</ele>
        <time>2024-09-25T11:14:03Z</time>
      </trkpt>
      <trkpt lon="78.521285950440856" lat="17.645235527944187">
        <ele>493.659</ele>
        <time>2024-09-25T11:14:04Z</time>
      </trkpt>
      <trkpt lon="78.521286407638243" lat="17.64523764494988">
        <ele>493.72</ele>
        <time>2024-09-25T11:14:04Z</time>
      </trkpt>
      <trkpt lon="78.521286825772506" lat="17.645239672897883">
        <ele>493.771</ele>
        <time>2024-09-25T11:14:04Z</time>
      </trkpt>
      <trkpt lon="78.52128721055449" lat="17.645241621003791">
        <ele>493.812</ele>
        <time>2024-09-25T11:14:04Z</time>
      </trkpt>
      <trkpt lon="78.521287567447416" lat="17.645243498987309">
        <ele>493.844</ele>
        <time>2024-09-25T11:14:04Z</time>
      </trkpt>
      <trkpt lon="78.521287901538088" lat="17.645245316610584">
        <ele>493.868</ele>
        <time>2024-09-25T11:14:04Z</time>
      </trkpt>
      <trkpt lon="78.521288217452934" lat="17.645247083328719">
        <ele>493.886</ele>
        <time>2024-09-25T11:14:04Z</time>
      </trkpt>
      <trkpt lon="78.521288519310644" lat="17.64524880803701">
        <ele>493.898</ele>
        <time>2024-09-25T11:14:04Z</time>
      </trkpt>
      <trkpt lon="78.521288810704149" lat="17.645250498899834">
        <ele>493.905</ele>
        <time>2024-09-25T11:14:04Z</time>
      </trkpt>
      <trkpt lon="78.521289094705281" lat="17.645252163247033">
        <ele>493.909</ele>
        <time>2024-09-25T11:14:04Z</time>
      </trkpt>
      <trkpt lon="78.521289373886333" lat="17.645253807524831">
        <ele>493.91</ele>
        <time>2024-09-25T11:14:04Z</time>
      </trkpt>
      <trkpt lon="78.521289650353765" lat="17.645255437289475">
        <ele>493.908</ele>
        <time>2024-09-25T11:14:04Z</time>
      </trkpt>
      <trkpt lon="78.521289925789674" lat="17.645257057233376">
        <ele>493.905</ele>
        <time>2024-09-25T11:14:04Z</time>
      </trkpt>
      <trkpt lon="78.521290201497905" lat="17.645258671234817">
        <ele>493.9</ele>
        <time>2024-09-25T11:14:04Z</time>
      </trkpt>
      <trkpt lon="78.521290478451832" lat="17.645260282423681">
        <ele>493.895</ele>
        <time>2024-09-25T11:14:04Z</time>
      </trkpt>
      <trkpt lon="78.521290757341959" lat="17.645261893257004">
        <ele>493.89</ele>
        <time>2024-09-25T11:14:04Z</time>
      </trkpt>
      <trkpt lon="78.521291038621541" lat="17.645263505599285">
        <ele>493.884</ele>
        <time>2024-09-25T11:14:04Z</time>
      </trkpt>
      <trkpt lon="78.52129132254926" lat="17.6452651208036">
        <ele>493.879</ele>
        <time>2024-09-25T11:14:04Z</time>
      </trkpt>
      <trkpt lon="78.521291609228172" lat="17.645266739790536">
        <ele>493.874</ele>
        <time>2024-09-25T11:14:04Z</time>
      </trkpt>
      <trkpt lon="78.521291898640413" lat="17.645268363122671">
        <ele>493.869</ele>
        <time>2024-09-25T11:14:04Z</time>
      </trkpt>
      <trkpt lon="78.52129219067757" lat="17.645269991073178">
        <ele>493.865</ele>
        <time>2024-09-25T11:14:04Z</time>
      </trkpt>
      <trkpt lon="78.521292485166754" lat="17.645271623687592">
        <ele>493.861</ele>
        <time>2024-09-25T11:14:04Z</time>
      </trkpt>
      <trkpt lon="78.521292781892512" lat="17.645273260838266">
        <ele>493.858</ele>
        <time>2024-09-25T11:14:04Z</time>
      </trkpt>
      <trkpt lon="78.521293080614754" lat="17.645274902271435">
        <ele>493.855</ele>
        <time>2024-09-25T11:14:04Z</time>
      </trkpt>
      <trkpt lon="78.521293381083126" lat="17.645276547647086">
        <ele>493.853</ele>
        <time>2024-09-25T11:14:04Z</time>
      </trkpt>
      <trkpt lon="78.521293683048313" lat="17.645278196571983">
        <ele>493.851</ele>
        <time>2024-09-25T11:14:04Z</time>
      </trkpt>
      <trkpt lon="78.521293986270351" lat="17.645279848626444">
        <ele>493.849</ele>
        <time>2024-09-25T11:14:04Z</time>
      </trkpt>
      <trkpt lon="78.521294290524736" lat="17.645281503385419">
        <ele>493.848</ele>
        <time>2024-09-25T11:14:04Z</time>
      </trkpt>
      <trkpt lon="78.521294595606363" lat="17.645283160434573">
        <ele>493.848</ele>
        <time>2024-09-25T11:14:04Z</time>
      </trkpt>
      <trkpt lon="78.521294989632352" lat="17.64528529197209">
        <ele>493.817</ele>
        <time>2024-09-25T11:14:05Z</time>
      </trkpt>
      <trkpt lon="78.521295372687959" lat="17.645287356427392">
        <ele>493.791</ele>
        <time>2024-09-25T11:14:05Z</time>
      </trkpt>
      <trkpt lon="78.521295745087286" lat="17.645289357044348">
        <ele>493.769</ele>
        <time>2024-09-25T11:14:05Z</time>
      </trkpt>
      <trkpt lon="78.521296107437152" lat="17.64529129848529">
        <ele>493.752</ele>
        <time>2024-09-25T11:14:05Z</time>
      </trkpt>
      <trkpt lon="78.521296460544008" lat="17.645293186319876">
        <ele>493.739</ele>
        <time>2024-09-25T11:14:05Z</time>
      </trkpt>
      <trkpt lon="78.521296805336789" lat="17.645295026608299">
        <ele>493.729</ele>
        <time>2024-09-25T11:14:05Z</time>
      </trkpt>
      <trkpt lon="78.521297142804457" lat="17.645296825570057">
        <ele>493.722</ele>
        <time>2024-09-25T11:14:05Z</time>
      </trkpt>
      <trkpt lon="78.521297473946888" lat="17.645298589328743">
        <ele>493.717</ele>
        <time>2024-09-25T11:14:05Z</time>
      </trkpt>
      <trkpt lon="78.521297799737511" lat="17.645300323722978">
        <ele>493.715</ele>
        <time>2024-09-25T11:14:05Z</time>
      </trkpt>
      <trkpt lon="78.521298121095953" lat="17.645302034173813">
        <ele>493.714</ele>
        <time>2024-09-25T11:14:05Z</time>
      </trkpt>
      <trkpt lon="78.52129843886938" lat="17.645303725599245">
        <ele>493.714</ele>
        <time>2024-09-25T11:14:05Z</time>
      </trkpt>
      <trkpt lon="78.521298753820901" lat="17.645305402367274">
        <ele>493.715</ele>
        <time>2024-09-25T11:14:05Z</time>
      </trkpt>
      <trkpt lon="78.52129906662374" lat="17.6453070682796">
        <ele>493.716</ele>
        <time>2024-09-25T11:14:05Z</time>
      </trkpt>
      <trkpt lon="78.521299377860032" lat="17.645308726579014">
        <ele>493.718</ele>
        <time>2024-09-25T11:14:05Z</time>
      </trkpt>
      <trkpt lon="78.521299688022978" lat="17.645310379974369">
        <ele>493.721</ele>
        <time>2024-09-25T11:14:05Z</time>
      </trkpt>
      <trkpt lon="78.52129999752168" lat="17.645312030677953">
        <ele>493.723</ele>
        <time>2024-09-25T11:14:05Z</time>
      </trkpt>
      <trkpt lon="78.521300306687536" lat="17.645313680450915">
        <ele>493.726</ele>
        <time>2024-09-25T11:14:05Z</time>
      </trkpt>
      <trkpt lon="78.521300615781968" lat="17.645315330653148">
        <ele>493.728</ele>
        <time>2024-09-25T11:14:05Z</time>
      </trkpt>
      <trkpt lon="78.521300925004496" lat="17.645316982294851">
        <ele>493.73</ele>
        <time>2024-09-25T11:14:05Z</time>
      </trkpt>
      <trkpt lon="78.521301234501081" lat="17.645318636087541">
        <ele>493.732</ele>
        <time>2024-09-25T11:14:05Z</time>
      </trkpt>
      <trkpt lon="78.521301544372236" lat="17.645320292492869">
        <ele>493.734</ele>
        <time>2024-09-25T11:14:05Z</time>
      </trkpt>
      <trkpt lon="78.521301854680701" lat="17.645321951768096">
        <ele>493.736</ele>
        <time>2024-09-25T11:14:05Z</time>
      </trkpt>
      <trkpt lon="78.521302165458593" lat="17.645323614007484">
        <ele>493.737</ele>
        <time>2024-09-25T11:14:05Z</time>
      </trkpt>
      <trkpt lon="78.521302476713842" lat="17.645325279179147">
        <ele>493.738</ele>
        <time>2024-09-25T11:14:05Z</time>
      </trkpt>
      <trkpt lon="78.521302788435833" lat="17.645326947157209">
        <ele>493.739</ele>
        <time>2024-09-25T11:14:05Z</time>
      </trkpt>
      <trkpt lon="78.521303100600335" lat="17.645328617749325">
        <ele>493.74</ele>
        <time>2024-09-25T11:14:05Z</time>
      </trkpt>
      <trkpt lon="78.521303413173726" lat="17.645330290719716">
        <ele>493.741</ele>
        <time>2024-09-25T11:14:05Z</time>
      </trkpt>
      <trkpt lon="78.521303726116486" lat="17.645331965808055">
        <ele>493.741</ele>
        <time>2024-09-25T11:14:05Z</time>
      </trkpt>
      <trkpt lon="78.521304039385953" lat="17.645333642744546">
        <ele>493.742</ele>
        <time>2024-09-25T11:14:05Z</time>
      </trkpt>
      <trkpt lon="78.521304463150358" lat="17.645335792353485">
        <ele>493.681</ele>
        <time>2024-09-25T11:14:06Z</time>
      </trkpt>
      <trkpt lon="78.521304891732029" lat="17.64533786769276">
        <ele>493.63</ele>
        <time>2024-09-25T11:14:06Z</time>
      </trkpt>
      <trkpt lon="78.52130532268616" lat="17.645339873212471">
        <ele>493.588</ele>
        <time>2024-09-25T11:14:06Z</time>
      </trkpt>
      <trkpt lon="78.521305754087436" lat="17.645341814691943">
        <ele>493.554</ele>
        <time>2024-09-25T11:14:06Z</time>
      </trkpt>
      <trkpt lon="78.521306184468983" lat="17.64534369871177">
        <ele>493.528</ele>
        <time>2024-09-25T11:14:06Z</time>
      </trkpt>
      <trkpt lon="78.521306612760455" lat="17.645345532228028">
        <ele>493.508</ele>
        <time>2024-09-25T11:14:06Z</time>
      </trkpt>
      <trkpt lon="78.521307038227619" lat="17.645347322238251">
        <ele>493.493</ele>
        <time>2024-09-25T11:14:06Z</time>
      </trkpt>
      <trkpt lon="78.521307460415059" lat="17.645349075528213">
        <ele>493.483</ele>
        <time>2024-09-25T11:14:06Z</time>
      </trkpt>
      <trkpt lon="78.521307879093385" lat="17.645350798488394">
        <ele>493.477</ele>
        <time>2024-09-25T11:14:06Z</time>
      </trkpt>
      <trkpt lon="78.521308294211551" lat="17.645352496989364">
        <ele>493.474</ele>
        <time>2024-09-25T11:14:06Z</time>
      </trkpt>
      <trkpt lon="78.521308705854722" lat="17.645354176305894">
        <ele>493.474</ele>
        <time>2024-09-25T11:14:06Z</time>
      </trkpt>
      <trkpt lon="78.521309114207781" lat="17.645355841080434">
        <ele>493.476</ele>
        <time>2024-09-25T11:14:06Z</time>
      </trkpt>
      <trkpt lon="78.521309519524351" lat="17.645357495317583">
        <ele>493.478</ele>
        <time>2024-09-25T11:14:06Z</time>
      </trkpt>
      <trkpt lon="78.521309922101068" lat="17.645359142402011">
        <ele>493.482</ele>
        <time>2024-09-25T11:14:06Z</time>
      </trkpt>
      <trkpt lon="78.521310322256696" lat="17.645360785133544">
        <ele>493.486</ele>
        <time>2024-09-25T11:14:06Z</time>
      </trkpt>
      <trkpt lon="78.521310720315611" lat="17.645362425773911">
        <ele>493.491</ele>
        <time>2024-09-25T11:14:06Z</time>
      </trkpt>
      <trkpt lon="78.521311116595157" lat="17.645364066100655">
        <ele>493.496</ele>
        <time>2024-09-25T11:14:06Z</time>
      </trkpt>
      <trkpt lon="78.52131151139632" lat="17.645365707464613">
        <ele>493.5</ele>
        <time>2024-09-25T11:14:06Z</time>
      </trkpt>
      <trkpt lon="78.521311904997361" lat="17.645367350848044">
        <ele>493.505</ele>
        <time>2024-09-25T11:14:06Z</time>
      </trkpt>
      <trkpt lon="78.521312297649715" lat="17.645368996921256">
        <ele>493.509</ele>
        <time>2024-09-25T11:14:06Z</time>
      </trkpt>
      <trkpt lon="78.521312689575836" lat="17.645370646096122">
        <ele>493.512</ele>
        <time>2024-09-25T11:14:06Z</time>
      </trkpt>
      <trkpt lon="78.521313080968667" lat="17.645372298575406">
        <ele>493.515</ele>
        <time>2024-09-25T11:14:06Z</time>
      </trkpt>
      <trkpt lon="78.521313471992158" lat="17.64537395439719">
        <ele>493.518</ele>
        <time>2024-09-25T11:14:06Z</time>
      </trkpt>
      <trkpt lon="78.521313862782719" lat="17.645375613474101">
        <ele>493.52</ele>
        <time>2024-09-25T11:14:06Z</time>
      </trkpt>
      <trkpt lon="78.521314253451266" lat="17.645377275627229">
        <ele>493.522</ele>
        <time>2024-09-25T11:14:06Z</time>
      </trkpt>
      <trkpt lon="78.521314644085663" lat="17.645378940614879">
        <ele>493.524</ele>
        <time>2024-09-25T11:14:06Z</time>
      </trkpt>
      <trkpt lon="78.521315034753314" lat="17.645380608156408">
        <ele>493.525</ele>
        <time>2024-09-25T11:14:06Z</time>
      </trkpt>
      <trkpt lon="78.521315425503886" lat="17.645382277951573">
        <ele>493.526</ele>
        <time>2024-09-25T11:14:06Z</time>
      </trkpt>
      <trkpt lon="78.521315816371938" lat="17.645383949695788">
        <ele>493.526</ele>
        <time>2024-09-25T11:14:06Z</time>
      </trkpt>
      <trkpt lon="78.521316300829966" lat="17.645386072646904">
        <ele>493.448</ele>
        <time>2024-09-25T11:14:07Z</time>
      </trkpt>
      <trkpt lon="78.521316753979647" lat="17.645388104723523">
        <ele>493.382</ele>
        <time>2024-09-25T11:14:07Z</time>
      </trkpt>
      <trkpt lon="78.521317179344365" lat="17.645390053303505">
        <ele>493.327</ele>
        <time>2024-09-25T11:14:07Z</time>
      </trkpt>
      <trkpt lon="78.521317580545031" lat="17.645391926848163">
        <ele>493.283</ele>
        <time>2024-09-25T11:14:07Z</time>
      </trkpt>
      <trkpt lon="78.521317961150331" lat="17.64539373434166">
        <ele>493.248</ele>
        <time>2024-09-25T11:14:07Z</time>
      </trkpt>
      <trkpt lon="78.521318324565669" lat="17.645395484850294">
        <ele>493.222</ele>
        <time>2024-09-25T11:14:07Z</time>
      </trkpt>
      <trkpt lon="78.521318673955079" lat="17.645397187187406">
        <ele>493.203</ele>
        <time>2024-09-25T11:14:07Z</time>
      </trkpt>
      <trkpt lon="78.521319012190759" lat="17.645398849669586">
        <ele>493.19</ele>
        <time>2024-09-25T11:14:07Z</time>
      </trkpt>
      <trkpt lon="78.521319341825162" lat="17.645400479950133">
        <ele>493.182</ele>
        <time>2024-09-25T11:14:07Z</time>
      </trkpt>
      <trkpt lon="78.521319665081108" lat="17.645402084916544">
        <ele>493.178</ele>
        <time>2024-09-25T11:14:07Z</time>
      </trkpt>
      <trkpt lon="78.52131998385569" lat="17.645403670639865">
        <ele>493.178</ele>
        <time>2024-09-25T11:14:07Z</time>
      </trkpt>
      <trkpt lon="78.52132029973464" lat="17.645405242364838">
        <ele>493.179</ele>
        <time>2024-09-25T11:14:07Z</time>
      </trkpt>
      <trkpt lon="78.521320614013803" lat="17.645406804531177">
        <ele>493.183</ele>
        <time>2024-09-25T11:14:07Z</time>
      </trkpt>
      <trkpt lon="78.521320927725611" lat="17.645408360817573">
        <ele>493.188</ele>
        <time>2024-09-25T11:14:07Z</time>
      </trkpt>
      <trkpt lon="78.521321241668019" lat="17.645409914201281">
        <ele>493.194</ele>
        <time>2024-09-25T11:14:07Z</time>
      </trkpt>
      <trkpt lon="78.521321556434557" lat="17.645411467027415">
        <ele>493.199</ele>
        <time>2024-09-25T11:14:07Z</time>
      </trkpt>
      <trkpt lon="78.521321872443963" lat="17.645413021083115">
        <ele>493.206</ele>
        <time>2024-09-25T11:14:07Z</time>
      </trkpt>
      <trkpt lon="78.521322189968757" lat="17.645414577672863">
        <ele>493.211</ele>
        <time>2024-09-25T11:14:07Z</time>
      </trkpt>
      <trkpt lon="78.521322509161749" lat="17.645416137691985">
        <ele>493.217</ele>
        <time>2024-09-25T11:14:07Z</time>
      </trkpt>
      <trkpt lon="78.521322830080166" lat="17.645417701696296">
        <ele>493.222</ele>
        <time>2024-09-25T11:14:07Z</time>
      </trkpt>
      <trkpt lon="78.521323152707254" lat="17.645419269966375">
        <ele>493.227</ele>
        <time>2024-09-25T11:14:07Z</time>
      </trkpt>
      <trkpt lon="78.52132347697102" lat="17.645420842565581">
        <ele>493.231</ele>
        <time>2024-09-25T11:14:07Z</time>
      </trkpt>
      <trkpt lon="78.521323802760378" lat="17.645422419391334">
        <ele>493.234</ele>
        <time>2024-09-25T11:14:07Z</time>
      </trkpt>
      <trkpt lon="78.521324129938577" lat="17.645424000219517">
        <ele>493.237</ele>
        <time>2024-09-25T11:14:07Z</time>
      </trkpt>
      <trkpt lon="78.521324458354314" lat="17.645425584742188">
        <ele>493.24</ele>
        <time>2024-09-25T11:14:07Z</time>
      </trkpt>
      <trkpt lon="78.521324787850574" lat="17.645427172598911">
        <ele>493.242</ele>
        <time>2024-09-25T11:14:07Z</time>
      </trkpt>
      <trkpt lon="78.521325118271434" lat="17.645428763402194">
        <ele>493.243</ele>
        <time>2024-09-25T11:14:07Z</time>
      </trkpt>
      <trkpt lon="78.521325449467284" lat="17.645430356757611">
        <ele>493.245</ele>
        <time>2024-09-25T11:14:07Z</time>
      </trkpt>
      <trkpt lon="78.521325781298401" lat="17.6454319522792">
        <ele>493.245</ele>
        <time>2024-09-25T11:14:07Z</time>
      </trkpt>
      <trkpt lon="78.521326215983549" lat="17.645434067511552">
        <ele>493.259</ele>
        <time>2024-09-25T11:14:08Z</time>
      </trkpt>
      <trkpt lon="78.521326643861073" lat="17.645436171101615">
        <ele>493.27</ele>
        <time>2024-09-25T11:14:08Z</time>
      </trkpt>
      <trkpt lon="78.521327064400054" lat="17.645438256888657">
        <ele>493.279</ele>
        <time>2024-09-25T11:14:08Z</time>
      </trkpt>
      <trkpt lon="78.521327477455173" lat="17.645440320846898">
        <ele>493.287</ele>
        <time>2024-09-25T11:14:08Z</time>
      </trkpt>
      <trkpt lon="78.521327883176795" lat="17.645442360699739">
        <ele>493.292</ele>
        <time>2024-09-25T11:14:08Z</time>
      </trkpt>
      <trkpt lon="78.521328281932909" lat="17.6454443755682">
        <ele>493.296</ele>
        <time>2024-09-25T11:14:08Z</time>
      </trkpt>
      <trkpt lon="78.521328674242881" lat="17.645446365657374">
        <ele>493.299</ele>
        <time>2024-09-25T11:14:08Z</time>
      </trkpt>
      <trkpt lon="78.52132906072201" lat="17.645448331982426">
        <ele>493.301</ele>
        <time>2024-09-25T11:14:08Z</time>
      </trkpt>
      <trkpt lon="78.521329442036674" lat="17.645450276133911">
        <ele>493.302</ele>
        <time>2024-09-25T11:14:08Z</time>
      </trkpt>
      <trkpt lon="78.521329818868551" lat="17.645452200080875">
        <ele>493.302</ele>
        <time>2024-09-25T11:14:08Z</time>
      </trkpt>
      <trkpt lon="78.521330191887159" lat="17.645454106009296">
        <ele>493.302</ele>
        <time>2024-09-25T11:14:08Z</time>
      </trkpt>
      <trkpt lon="78.521330561729641" lat="17.645455996192773">
        <ele>493.302</ele>
        <time>2024-09-25T11:14:08Z</time>
      </trkpt>
      <trkpt lon="78.521330928986572" lat="17.645457872891981">
        <ele>493.301</ele>
        <time>2024-09-25T11:14:08Z</time>
      </trkpt>
      <trkpt lon="78.521331294192947" lat="17.645459738279349">
        <ele>493.3</ele>
        <time>2024-09-25T11:14:08Z</time>
      </trkpt>
      <trkpt lon="78.521331657823268" lat="17.645461594385338">
        <ele>493.299</ele>
        <time>2024-09-25T11:14:08Z</time>
      </trkpt>
      <trkpt lon="78.521332020289933" lat="17.645463443062873">
        <ele>493.298</ele>
        <time>2024-09-25T11:14:08Z</time>
      </trkpt>
      <trkpt lon="78.521332381944248" lat="17.645465285966704">
        <ele>493.296</ele>
        <time>2024-09-25T11:14:08Z</time>
      </trkpt>
      <trkpt lon="78.521332743079242" lat="17.645467124544712">
        <ele>493.295</ele>
        <time>2024-09-25T11:14:08Z</time>
      </trkpt>
      <trkpt lon="78.521333103933841" lat="17.645468960038578">
        <ele>493.294</ele>
        <time>2024-09-25T11:14:08Z</time>
      </trkpt>
      <trkpt lon="78.521333464697904" lat="17.645470793491402">
        <ele>493.293</ele>
        <time>2024-09-25T11:14:08Z</time>
      </trkpt>
      <trkpt lon="78.521333825517658" lat="17.64547262576037">
        <ele>493.293</ele>
        <time>2024-09-25T11:14:08Z</time>
      </trkpt>
      <trkpt lon="78.52133418650142" lat="17.645474457532764">
        <ele>493.292</ele>
        <time>2024-09-25T11:14:08Z</time>
      </trkpt>
      <trkpt lon="78.521334547725132" lat="17.645476289343911">
        <ele>493.291</ele>
        <time>2024-09-25T11:14:08Z</time>
      </trkpt>
      <trkpt lon="78.521334909237723" lat="17.645478121595996">
        <ele>493.291</ele>
        <time>2024-09-25T11:14:08Z</time>
      </trkpt>
      <trkpt lon="78.52133527106605" lat="17.645479954576889">
        <ele>493.29</ele>
        <time>2024-09-25T11:14:08Z</time>
      </trkpt>
      <trkpt lon="78.521335633219365" lat="17.645481788478271">
        <ele>493.29</ele>
        <time>2024-09-25T11:14:08Z</time>
      </trkpt>
      <trkpt lon="78.521335995693377" lat="17.645483623412673">
        <ele>493.29</ele>
        <time>2024-09-25T11:14:08Z</time>
      </trkpt>
      <trkpt lon="78.52133635847369" lat="17.645485459429043">
        <ele>493.29</ele>
        <time>2024-09-25T11:14:08Z</time>
      </trkpt>
      <trkpt lon="78.521336721538859" lat="17.645487296526706">
        <ele>493.289</ele>
        <time>2024-09-25T11:14:08Z</time>
      </trkpt>
      <trkpt lon="78.521337133179898" lat="17.645489523545447">
        <ele>493.377</ele>
        <time>2024-09-25T11:14:09Z</time>
      </trkpt>
      <trkpt lon="78.521337483422485" lat="17.645491561345111">
        <ele>493.451</ele>
        <time>2024-09-25T11:14:09Z</time>
      </trkpt>
      <trkpt lon="78.521337781191789" lat="17.645493433814242">
        <ele>493.512</ele>
        <time>2024-09-25T11:14:09Z</time>
      </trkpt>
      <trkpt lon="78.521338035038056" lat="17.645495164702162">
        <ele>493.561</ele>
        <time>2024-09-25T11:14:09Z</time>
      </trkpt>
      <trkpt lon="78.521338252932026" lat="17.645496776828459">
        <ele>493.599</ele>
        <time>2024-09-25T11:14:09Z</time>
      </trkpt>
      <trkpt lon="78.521338442130727" lat="17.64549829151937">
        <ele>493.628</ele>
        <time>2024-09-25T11:14:09Z</time>
      </trkpt>
      <trkpt lon="78.521338609101207" lat="17.645499728234775">
        <ele>493.649</ele>
        <time>2024-09-25T11:14:09Z</time>
      </trkpt>
      <trkpt lon="78.521338759490376" lat="17.645501104351855">
        <ele>493.663</ele>
        <time>2024-09-25T11:14:09Z</time>
      </trkpt>
      <trkpt lon="78.521338898130807" lat="17.645502435074317">
        <ele>493.672</ele>
        <time>2024-09-25T11:14:09Z</time>
      </trkpt>
      <trkpt lon="78.521339029073417" lat="17.645503733439458">
        <ele>493.676</ele>
        <time>2024-09-25T11:14:09Z</time>
      </trkpt>
      <trkpt lon="78.521339155639168" lat="17.64550501039874">
        <ele>493.676</ele>
        <time>2024-09-25T11:14:09Z</time>
      </trkpt>
      <trkpt lon="78.52133928048346" lat="17.645506274950947">
        <ele>493.674</ele>
        <time>2024-09-25T11:14:09Z</time>
      </trkpt>
      <trkpt lon="78.521339405667746" lat="17.64550753431039">
        <ele>493.67</ele>
        <time>2024-09-25T11:14:09Z</time>
      </trkpt>
      <trkpt lon="78.521339532734217" lat="17.645508794095665">
        <ele>493.664</ele>
        <time>2024-09-25T11:14:09Z</time>
      </trkpt>
      <trkpt lon="78.521339662779994" lat="17.645510058527378">
        <ele>493.658</ele>
        <time>2024-09-25T11:14:09Z</time>
      </trkpt>
      <trkpt lon="78.52133979652865" lat="17.645511330625705">
        <ele>493.651</ele>
        <time>2024-09-25T11:14:09Z</time>
      </trkpt>
      <trkpt lon="78.521339934397005" lat="17.64551261240106">
        <ele>493.644</ele>
        <time>2024-09-25T11:14:09Z</time>
      </trkpt>
      <trkpt lon="78.521340076556228" lat="17.645513905032853">
        <ele>493.638</ele>
        <time>2024-09-25T11:14:09Z</time>
      </trkpt>
      <trkpt lon="78.521340222986311" lat="17.6455152090331">
        <ele>493.632</ele>
        <time>2024-09-25T11:14:09Z</time>
      </trkpt>
      <trkpt lon="78.52134037352387" lat="17.645516524392949">
        <ele>493.626</ele>
        <time>2024-09-25T11:14:09Z</time>
      </trkpt>
      <trkpt lon="78.52134052790305" lat="17.645517850711229">
        <ele>493.621</ele>
        <time>2024-09-25T11:14:09Z</time>
      </trkpt>
      <trkpt lon="78.521340685790079" lat="17.645519187304952">
        <ele>493.616</ele>
        <time>2024-09-25T11:14:09Z</time>
      </trkpt>
      <trkpt lon="78.521340846811512" lat="17.64552053330241">
        <ele>493.612</ele>
        <time>2024-09-25T11:14:09Z</time>
      </trkpt>
      <trkpt lon="78.521341010576961" lat="17.645521887719923">
        <ele>493.609</ele>
        <time>2024-09-25T11:14:09Z</time>
      </trkpt>
      <trkpt lon="78.521341176696879" lat="17.645523249523546">
        <ele>493.606</ele>
        <time>2024-09-25T11:14:09Z</time>
      </trkpt>
      <trkpt lon="78.521341344795843" lat="17.645524617677371">
        <ele>493.604</ele>
        <time>2024-09-25T11:14:09Z</time>
      </trkpt>
      <trkpt lon="78.521341514522135" lat="17.645525991179973">
        <ele>493.602</ele>
        <time>2024-09-25T11:14:09Z</time>
      </trkpt>
      <trkpt lon="78.521341685554077" lat="17.645527369090711">
        <ele>493.601</ele>
        <time>2024-09-25T11:14:09Z</time>
      </trkpt>
      <trkpt lon="78.521341857603858" lat="17.64552875054742">
        <ele>493.6</ele>
        <time>2024-09-25T11:14:09Z</time>
      </trkpt>
      <trkpt lon="78.521342103737581" lat="17.645530517568432">
        <ele>493.708</ele>
        <time>2024-09-25T11:14:10Z</time>
      </trkpt>
      <trkpt lon="78.521342363889516" lat="17.645532220389679">
        <ele>493.799</ele>
        <time>2024-09-25T11:14:10Z</time>
      </trkpt>
      <trkpt lon="78.52134263463806" lat="17.64553386300291">
        <ele>493.874</ele>
        <time>2024-09-25T11:14:10Z</time>
      </trkpt>
      <trkpt lon="78.521342913035909" lat="17.645535450508127">
        <ele>493.935</ele>
        <time>2024-09-25T11:14:10Z</time>
      </trkpt>
      <trkpt lon="78.521343196595723" lat="17.645536988663643">
        <ele>493.982</ele>
        <time>2024-09-25T11:14:10Z</time>
      </trkpt>
      <trkpt lon="78.521343483263237" lat="17.645538483524032">
        <ele>494.018</ele>
        <time>2024-09-25T11:14:10Z</time>
      </trkpt>
      <trkpt lon="78.521343771381964" lat="17.645539941156922">
        <ele>494.044</ele>
        <time>2024-09-25T11:14:10Z</time>
      </trkpt>
      <trkpt lon="78.521344059652847" lat="17.645541367429058">
        <ele>494.062</ele>
        <time>2024-09-25T11:14:10Z</time>
      </trkpt>
      <trkpt lon="78.521344347091315" lat="17.645542767852014">
        <ele>494.073</ele>
        <time>2024-09-25T11:14:10Z</time>
      </trkpt>
      <trkpt lon="78.52134463298411" lat="17.645544147478216">
        <ele>494.078</ele>
        <time>2024-09-25T11:14:10Z</time>
      </trkpt>
      <trkpt lon="78.521344916847283" lat="17.645545510838513">
        <ele>494.079</ele>
        <time>2024-09-25T11:14:10Z</time>
      </trkpt>
      <trkpt lon="78.521345198386456" lat="17.645546861913228">
        <ele>494.076</ele>
        <time>2024-09-25T11:14:10Z</time>
      </trkpt>
      <trkpt lon="78.521345477460457" lat="17.645548204129462">
        <ele>494.071</ele>
        <time>2024-09-25T11:14:10Z</time>
      </trkpt>
      <trkpt lon="78.521345754048468" lat="17.645549540378255">
        <ele>494.065</ele>
        <time>2024-09-25T11:14:10Z</time>
      </trkpt>
      <trkpt lon="78.521346028221174" lat="17.645550873046165">
        <ele>494.057</ele>
        <time>2024-09-25T11:14:10Z</time>
      </trkpt>
      <trkpt lon="78.521346300115695" lat="17.645552204056575">
        <ele>494.049</ele>
        <time>2024-09-25T11:14:10Z</time>
      </trkpt>
      <trkpt lon="78.521346569914527" lat="17.645553534916928">
        <ele>494.041</ele>
        <time>2024-09-25T11:14:10Z</time>
      </trkpt>
      <trkpt lon="78.52134683782802" lat="17.645554866768766">
        <ele>494.033</ele>
        <time>2024-09-25T11:14:10Z</time>
      </trkpt>
      <trkpt lon="78.52134710408022" lat="17.645556200438172">
        <ele>494.025</ele>
        <time>2024-09-25T11:14:10Z</time>
      </trkpt>
      <trkpt lon="78.521347368897722" lat="17.645557536484738">
        <ele>494.018</ele>
        <time>2024-09-25T11:14:10Z</time>
      </trkpt>
      <trkpt lon="78.521347632501119" lat="17.64555887524773">
        <ele>494.012</ele>
        <time>2024-09-25T11:14:10Z</time>
      </trkpt>
      <trkpt lon="78.521347895098913" lat="17.645560216888558">
        <ele>494.006</ele>
        <time>2024-09-25T11:14:10Z</time>
      </trkpt>
      <trkpt lon="78.521348156883164" lat="17.645561561428952">
        <ele>494.001</ele>
        <time>2024-09-25T11:14:10Z</time>
      </trkpt>
      <trkpt lon="78.521348418026932" lat="17.645562908784591">
        <ele>493.997</ele>
        <time>2024-09-25T11:14:10Z</time>
      </trkpt>
      <trkpt lon="78.521348678682884" lat="17.645564258794142">
        <ele>493.994</ele>
        <time>2024-09-25T11:14:10Z</time>
      </trkpt>
      <trkpt lon="78.521348938983081" lat="17.645565611243821">
        <ele>493.991</ele>
        <time>2024-09-25T11:14:10Z</time>
      </trkpt>
      <trkpt lon="78.521349199039406" lat="17.645566965887738">
        <ele>493.989</ele>
        <time>2024-09-25T11:14:10Z</time>
      </trkpt>
      <trkpt lon="78.521349458944655" lat="17.645568322464321">
        <ele>493.987</ele>
        <time>2024-09-25T11:14:10Z</time>
      </trkpt>
      <trkpt lon="78.521349718774047" lat="17.645569680709286">
        <ele>493.986</ele>
        <time>2024-09-25T11:14:10Z</time>
      </trkpt>
      <trkpt lon="78.521349991228007" lat="17.645571505370857">
        <ele>493.691</ele>
        <time>2024-09-25T11:14:11Z</time>
      </trkpt>
      <trkpt lon="78.52135020104518" lat="17.645573340276613">
        <ele>493.443</ele>
        <time>2024-09-25T11:14:11Z</time>
      </trkpt>
      <trkpt lon="78.521350357921847" lat="17.645575176668221">
        <ele>493.239</ele>
        <time>2024-09-25T11:14:11Z</time>
      </trkpt>
      <trkpt lon="78.521350471005746" lat="17.645577007891909">
        <ele>493.075</ele>
        <time>2024-09-25T11:14:11Z</time>
      </trkpt>
      <trkpt lon="78.5213505487135" lat="17.645578829111439">
        <ele>492.946</ele>
        <time>2024-09-25T11:14:11Z</time>
      </trkpt>
      <trkpt lon="78.521350598618241" lat="17.645580637028615">
        <ele>492.849</ele>
        <time>2024-09-25T11:14:11Z</time>
      </trkpt>
      <trkpt lon="78.521350627394312" lat="17.645582429619182">
        <ele>492.779</ele>
        <time>2024-09-25T11:14:11Z</time>
      </trkpt>
      <trkpt lon="78.521350640806702" lat="17.645584205889502">
        <ele>492.732</ele>
        <time>2024-09-25T11:14:11Z</time>
      </trkpt>
      <trkpt lon="78.521350643734721" lat="17.645585965657343">
        <ele>492.704</ele>
        <time>2024-09-25T11:14:11Z</time>
      </trkpt>
      <trkpt lon="78.521350640220575" lat="17.645587709358448">
        <ele>492.691</ele>
        <time>2024-09-25T11:14:11Z</time>
      </trkpt>
      <trkpt lon="78.521350633535064" lat="17.645589437879273">
        <ele>492.69</ele>
        <time>2024-09-25T11:14:11Z</time>
      </trkpt>
      <trkpt lon="78.521350626253934" lat="17.645591152415236">
        <ele>492.698</ele>
        <time>2024-09-25T11:14:11Z</time>
      </trkpt>
      <trkpt lon="78.521350620339476" lat="17.645592854353147">
        <ele>492.713</ele>
        <time>2024-09-25T11:14:11Z</time>
      </trkpt>
      <trkpt lon="78.521350617223447" lat="17.645594545175914">
        <ele>492.732</ele>
        <time>2024-09-25T11:14:11Z</time>
      </trkpt>
      <trkpt lon="78.521350617887947" lat="17.645596226387397">
        <ele>492.753</ele>
        <time>2024-09-25T11:14:11Z</time>
      </trkpt>
      <trkpt lon="78.521350622941995" lat="17.645597899455026">
        <ele>492.776</ele>
        <time>2024-09-25T11:14:11Z</time>
      </trkpt>
      <trkpt lon="78.521350632692233" lat="17.645599565767796">
        <ele>492.799</ele>
        <time>2024-09-25T11:14:11Z</time>
      </trkpt>
      <trkpt lon="78.521350647206717" lat="17.645601226607344">
        <ele>492.822</ele>
        <time>2024-09-25T11:14:11Z</time>
      </trkpt>
      <trkpt lon="78.521350666371305" lat="17.645602883129861">
        <ele>492.843</ele>
        <time>2024-09-25T11:14:11Z</time>
      </trkpt>
      <trkpt lon="78.521350689938444" lat="17.645604536356839">
        <ele>492.862</ele>
        <time>2024-09-25T11:14:11Z</time>
      </trkpt>
      <trkpt lon="78.521350717568637" lat="17.645606187172742">
        <ele>492.879</ele>
        <time>2024-09-25T11:14:11Z</time>
      </trkpt>
      <trkpt lon="78.521350748864862" lat="17.645607836328018">
        <ele>492.895</ele>
        <time>2024-09-25T11:14:11Z</time>
      </trkpt>
      <trkpt lon="78.521350783400521" lat="17.645609484446052">
        <ele>492.908</ele>
        <time>2024-09-25T11:14:11Z</time>
      </trkpt>
      <trkpt lon="78.521350820741532" lat="17.645611132032769">
        <ele>492.919</ele>
        <time>2024-09-25T11:14:11Z</time>
      </trkpt>
      <trkpt lon="78.521350860463258" lat="17.645612779488012">
        <ele>492.928</ele>
        <time>2024-09-25T11:14:11Z</time>
      </trkpt>
      <trkpt lon="78.521350902162894" lat="17.645614427117739">
        <ele>492.936</ele>
        <time>2024-09-25T11:14:11Z</time>
      </trkpt>
      <trkpt lon="78.521350945468143" lat="17.645616075146538">
        <ele>492.942</ele>
        <time>2024-09-25T11:14:11Z</time>
      </trkpt>
      <trkpt lon="78.521350990042578" lat="17.645617723729845">
        <ele>492.946</ele>
        <time>2024-09-25T11:14:11Z</time>
      </trkpt>
      <trkpt lon="78.521351035588538" lat="17.645619372965566">
        <ele>492.949</ele>
        <time>2024-09-25T11:14:11Z</time>
      </trkpt>
      <trkpt lon="78.521351160222721" lat="17.6456214402486">
        <ele>492.964</ele>
        <time>2024-09-25T11:14:12Z</time>
      </trkpt>
      <trkpt lon="78.521351338757526" lat="17.645623394945954">
        <ele>492.975</ele>
        <time>2024-09-25T11:14:12Z</time>
      </trkpt>
      <trkpt lon="78.521351561412516" lat="17.645625248485491">
        <ele>492.985</ele>
        <time>2024-09-25T11:14:12Z</time>
      </trkpt>
      <trkpt lon="78.521351819282799" lat="17.645627012994822">
        <ele>492.992</ele>
        <time>2024-09-25T11:14:12Z</time>
      </trkpt>
      <trkpt lon="78.521352104432708" lat="17.645628700707867">
        <ele>492.997</ele>
        <time>2024-09-25T11:14:12Z</time>
      </trkpt>
      <trkpt lon="78.521352409932874" lat="17.645630323513803">
        <ele>493</ele>
        <time>2024-09-25T11:14:12Z</time>
      </trkpt>
      <trkpt lon="78.521352729853035" lat="17.645631892629037">
        <ele>493.002</ele>
        <time>2024-09-25T11:14:12Z</time>
      </trkpt>
      <trkpt lon="78.521353059222108" lat="17.645633418373301">
        <ele>493.003</ele>
        <time>2024-09-25T11:14:12Z</time>
      </trkpt>
      <trkpt lon="78.521353393964645" lat="17.64563491003199">
        <ele>493.003</ele>
        <time>2024-09-25T11:14:12Z</time>
      </trkpt>
      <trkpt lon="78.5213537308219" lat="17.645636375788349">
        <ele>493.003</ele>
        <time>2024-09-25T11:14:12Z</time>
      </trkpt>
      <trkpt lon="78.521354067263943" lat="17.645637822710587">
        <ele>493.002</ele>
        <time>2024-09-25T11:14:12Z</time>
      </trkpt>
      <trkpt lon="78.521354401398071" lat="17.645639256780932">
        <ele>493.001</ele>
        <time>2024-09-25T11:14:12Z</time>
      </trkpt>
      <trkpt lon="78.521354731877707" lat="17.645640682955214">
        <ele>492.999</ele>
        <time>2024-09-25T11:14:12Z</time>
      </trkpt>
      <trkpt lon="78.521355057814702" lat="17.645642105243429">
        <ele>492.998</ele>
        <time>2024-09-25T11:14:12Z</time>
      </trkpt>
      <trkpt lon="78.521355378697294" lat="17.645643526803337">
        <ele>492.996</ele>
        <time>2024-09-25T11:14:12Z</time>
      </trkpt>
      <trkpt lon="78.521355694315275" lat="17.645644950040602">
        <ele>492.995</ele>
        <time>2024-09-25T11:14:12Z</time>
      </trkpt>
      <trkpt lon="78.521356004692976" lat="17.645646376710395">
        <ele>492.993</ele>
        <time>2024-09-25T11:14:12Z</time>
      </trkpt>
      <trkpt lon="78.521356310030782" lat="17.645647808016587">
        <ele>492.992</ele>
        <time>2024-09-25T11:14:12Z</time>
      </trkpt>
      <trkpt lon="78.521356610654749" lat="17.645649244705655">
        <ele>492.991</ele>
        <time>2024-09-25T11:14:12Z</time>
      </trkpt>
      <trkpt lon="78.521356906974361" lat="17.64565068715336">
        <ele>492.99</ele>
        <time>2024-09-25T11:14:12Z</time>
      </trkpt>
      <trkpt lon="78.521357199447777" lat="17.645652135442973">
        <ele>492.989</ele>
        <time>2024-09-25T11:14:12Z</time>
      </trkpt>
      <trkpt lon="78.521357488553974" lat="17.645653589434371">
        <ele>492.988</ele>
        <time>2024-09-25T11:14:12Z</time>
      </trkpt>
      <trkpt lon="78.521357774770934" lat="17.645655048823912">
        <ele>492.987</ele>
        <time>2024-09-25T11:14:12Z</time>
      </trkpt>
      <trkpt lon="78.521358058559287" lat="17.645656513195242">
        <ele>492.987</ele>
        <time>2024-09-25T11:14:12Z</time>
      </trkpt>
      <trkpt lon="78.521358340350631" lat="17.645657982061486">
        <ele>492.986</ele>
        <time>2024-09-25T11:14:12Z</time>
      </trkpt>
      <trkpt lon="78.521358620539658" lat="17.64565945489953">
        <ele>492.986</ele>
        <time>2024-09-25T11:14:12Z</time>
      </trkpt>
      <trkpt lon="78.521358899479551" lat="17.645660931177101">
        <ele>492.986</ele>
        <time>2024-09-25T11:14:12Z</time>
      </trkpt>
      <trkpt lon="78.521359177479894" lat="17.645662410373514">
        <ele>492.986</ele>
        <time>2024-09-25T11:14:12Z</time>
      </trkpt>
      <trkpt lon="78.521359454806728" lat="17.645663891994907">
        <ele>492.986</ele>
        <time>2024-09-25T11:14:12Z</time>
      </trkpt>
      <trkpt lon="78.521359707712676" lat="17.645665697324308">
        <ele>493.002</ele>
        <time>2024-09-25T11:14:13Z</time>
      </trkpt>
      <trkpt lon="78.521359861777597" lat="17.645667358000836">
        <ele>493.016</ele>
        <time>2024-09-25T11:14:13Z</time>
      </trkpt>
      <trkpt lon="78.521359933020548" lat="17.645668891738406">
        <ele>493.028</ele>
        <time>2024-09-25T11:14:13Z</time>
      </trkpt>
      <trkpt lon="78.521359936393281" lat="17.645670316298514">
        <ele>493.037</ele>
        <time>2024-09-25T11:14:13Z</time>
      </trkpt>
      <trkpt lon="78.521359885523708" lat="17.645671648861679">
        <ele>493.044</ele>
        <time>2024-09-25T11:14:13Z</time>
      </trkpt>
      <trkpt lon="78.521359792568532" lat="17.645672905573807">
        <ele>493.05</ele>
        <time>2024-09-25T11:14:13Z</time>
      </trkpt>
      <trkpt lon="78.521359668153295" lat="17.645674101240168">
        <ele>493.054</ele>
        <time>2024-09-25T11:14:13Z</time>
      </trkpt>
      <trkpt lon="78.521359521380219" lat="17.645675249141259">
        <ele>493.057</ele>
        <time>2024-09-25T11:14:13Z</time>
      </trkpt>
      <trkpt lon="78.521359359887242" lat="17.645676360946975">
        <ele>493.058</ele>
        <time>2024-09-25T11:14:13Z</time>
      </trkpt>
      <trkpt lon="78.521359189943084" lat="17.645677446707811">
        <ele>493.059</ele>
        <time>2024-09-25T11:14:13Z</time>
      </trkpt>
      <trkpt lon="78.521359016566763" lat="17.64567851490451">
        <ele>493.059</ele>
        <time>2024-09-25T11:14:13Z</time>
      </trkpt>
      <trkpt lon="78.521358843660863" lat="17.645679572539965">
        <ele>493.059</ele>
        <time>2024-09-25T11:14:13Z</time>
      </trkpt>
      <trkpt lon="78.521358674150889" lat="17.645680625259853">
        <ele>493.058</ele>
        <time>2024-09-25T11:14:13Z</time>
      </trkpt>
      <trkpt lon="78.521358510124188" lat="17.645681677490682">
        <ele>493.057</ele>
        <time>2024-09-25T11:14:13Z</time>
      </trkpt>
      <trkpt lon="78.521358352963816" lat="17.645682732586213">
        <ele>493.056</ele>
        <time>2024-09-25T11:14:13Z</time>
      </trkpt>
      <trkpt lon="78.521358203473866" lat="17.645683792975071">
        <ele>493.055</ele>
        <time>2024-09-25T11:14:13Z</time>
      </trkpt>
      <trkpt lon="78.521358061994093" lat="17.645684860304158">
        <ele>493.053</ele>
        <time>2024-09-25T11:14:13Z</time>
      </trkpt>
      <trkpt lon="78.521357928502425" lat="17.645685935573912">
        <ele>493.052</ele>
        <time>2024-09-25T11:14:13Z</time>
      </trkpt>
      <trkpt lon="78.521357802704813" lat="17.645687019262699">
        <ele>493.051</ele>
        <time>2024-09-25T11:14:13Z</time>
      </trkpt>
      <trkpt lon="78.521357684112374" lat="17.645688111438741">
        <ele>493.05</ele>
        <time>2024-09-25T11:14:13Z</time>
      </trkpt>
      <trkpt lon="78.521357572106382" lat="17.645689211858713">
        <ele>493.049</ele>
        <time>2024-09-25T11:14:13Z</time>
      </trkpt>
      <trkpt lon="78.52135746599167" lat="17.645690320052879">
        <ele>493.048</ele>
        <time>2024-09-25T11:14:13Z</time>
      </trkpt>
      <trkpt lon="78.521357365039592" lat="17.645691435397165">
        <ele>493.047</ele>
        <time>2024-09-25T11:14:13Z</time>
      </trkpt>
      <trkpt lon="78.521357268521626" lat="17.645692557172808">
        <ele>493.047</ele>
        <time>2024-09-25T11:14:13Z</time>
      </trkpt>
      <trkpt lon="78.521357175734593" lat="17.645693684614645">
        <ele>493.046</ele>
        <time>2024-09-25T11:14:13Z</time>
      </trkpt>
      <trkpt lon="78.521357086018853" lat="17.645694816949106">
        <ele>493.046</ele>
        <time>2024-09-25T11:14:13Z</time>
      </trkpt>
      <trkpt lon="78.5213569987705" lat="17.645695953423136">
        <ele>493.045</ele>
        <time>2024-09-25T11:14:13Z</time>
      </trkpt>
      <trkpt lon="78.521356913448599" lat="17.645697093325314">
        <ele>493.045</ele>
        <time>2024-09-25T11:14:13Z</time>
      </trkpt>
      <trkpt lon="78.521356829578508" lat="17.645698236000303">
        <ele>493.045</ele>
        <time>2024-09-25T11:14:13Z</time>
      </trkpt>
      <trkpt lon="78.521356864454717" lat="17.645699602030327">
        <ele>493.292</ele>
        <time>2024-09-25T11:14:14Z</time>
      </trkpt>
      <trkpt lon="78.521357023191726" lat="17.645700834368046">
        <ele>493.499</ele>
        <time>2024-09-25T11:14:14Z</time>
      </trkpt>
      <trkpt lon="78.521357284335608" lat="17.64570195047186">
        <ele>493.671</ele>
        <time>2024-09-25T11:14:14Z</time>
      </trkpt>
      <trkpt lon="78.521357628157588" lat="17.645702967538874">
        <ele>493.809</ele>
        <time>2024-09-25T11:14:14Z</time>
      </trkpt>
      <trkpt lon="78.521358036914449" lat="17.645703901971977">
        <ele>493.917</ele>
        <time>2024-09-25T11:14:14Z</time>
      </trkpt>
      <trkpt lon="78.521358494975971" lat="17.645704769005718">
        <ele>493.998</ele>
        <time>2024-09-25T11:14:14Z</time>
      </trkpt>
      <trkpt lon="78.521358988847567" lat="17.645705582464856">
        <ele>494.057</ele>
        <time>2024-09-25T11:14:14Z</time>
      </trkpt>
      <trkpt lon="78.521359507113104" lat="17.645706354631301">
        <ele>494.097</ele>
        <time>2024-09-25T11:14:14Z</time>
      </trkpt>
      <trkpt lon="78.521360040319792" lat="17.645707096197395">
        <ele>494.121</ele>
        <time>2024-09-25T11:14:14Z</time>
      </trkpt>
      <trkpt lon="78.521360580823071" lat="17.645707816285928">
        <ele>494.132</ele>
        <time>2024-09-25T11:14:14Z</time>
      </trkpt>
      <trkpt lon="78.521361122606947" lat="17.64570852251968">
        <ele>494.133</ele>
        <time>2024-09-25T11:14:14Z</time>
      </trkpt>
      <trkpt lon="78.521361661091987" lat="17.645709221125998">
        <ele>494.127</ele>
        <time>2024-09-25T11:14:14Z</time>
      </trkpt>
      <trkpt lon="78.5213621929407" lat="17.645709917064039">
        <ele>494.115</ele>
        <time>2024-09-25T11:14:14Z</time>
      </trkpt>
      <trkpt lon="78.521362715867738" lat="17.645710614164756">
        <ele>494.099</ele>
        <time>2024-09-25T11:14:14Z</time>
      </trkpt>
      <trkpt lon="78.521363228460203" lat="17.645711315275609">
        <ele>494.082</ele>
        <time>2024-09-25T11:14:14Z</time>
      </trkpt>
      <trkpt lon="78.521363730011913" lat="17.645712022403789">
        <ele>494.063</ele>
        <time>2024-09-25T11:14:14Z</time>
      </trkpt>
      <trkpt lon="78.521364220373997" lat="17.645712736853365">
        <ele>494.043</ele>
        <time>2024-09-25T11:14:14Z</time>
      </trkpt>
      <trkpt lon="78.521364699822826" lat="17.645713459353111">
        <ele>494.025</ele>
        <time>2024-09-25T11:14:14Z</time>
      </trkpt>
      <trkpt lon="78.521365168945763" lat="17.645714190172804">
        <ele>494.007</ele>
        <time>2024-09-25T11:14:14Z</time>
      </trkpt>
      <trkpt lon="78.521365628544132" lat="17.645714929226866">
        <ele>493.991</ele>
        <time>2024-09-25T11:14:14Z</time>
      </trkpt>
      <trkpt lon="78.52136607955282" lat="17.645715676164819">
        <ele>493.977</ele>
        <time>2024-09-25T11:14:14Z</time>
      </trkpt>
      <trkpt lon="78.521366522974816" lat="17.645716430448662">
        <ele>493.964</ele>
        <time>2024-09-25T11:14:14Z</time>
      </trkpt>
      <trkpt lon="78.521366959829706" lat="17.645717191417727">
        <ele>493.953</ele>
        <time>2024-09-25T11:14:14Z</time>
      </trkpt>
      <trkpt lon="78.52136739111414" lat="17.64571795834182">
        <ele>493.944</ele>
        <time>2024-09-25T11:14:14Z</time>
      </trkpt>
      <trkpt lon="78.521367817772841" lat="17.645718730463702">
        <ele>493.936</ele>
        <time>2024-09-25T11:14:14Z</time>
      </trkpt>
      <trkpt lon="78.521368240678612" lat="17.645719507032037">
        <ele>493.93</ele>
        <time>2024-09-25T11:14:14Z</time>
      </trkpt>
      <trkpt lon="78.521368660619714" lat="17.645720287326036">
        <ele>493.925</ele>
        <time>2024-09-25T11:14:14Z</time>
      </trkpt>
      <trkpt lon="78.521369078293318" lat="17.645721070672963">
        <ele>493.921</ele>
        <time>2024-09-25T11:14:14Z</time>
      </trkpt>
      <trkpt lon="78.521369494303727" lat="17.64572185645968">
        <ele>493.918</ele>
        <time>2024-09-25T11:14:14Z</time>
      </trkpt>
      <trkpt lon="78.52137011001733" lat="17.64572280341719">
        <ele>493.97</ele>
        <time>2024-09-25T11:14:15Z</time>
      </trkpt>
      <trkpt lon="78.521370776567139" lat="17.645723664842993">
        <ele>494.015</ele>
        <time>2024-09-25T11:14:15Z</time>
      </trkpt>
      <trkpt lon="78.521371483120717" lat="17.64572445156854">
        <ele>494.052</ele>
        <time>2024-09-25T11:14:15Z</time>
      </trkpt>
      <trkpt lon="78.521372220123098" lat="17.645725174353021">
        <ele>494.082</ele>
        <time>2024-09-25T11:14:15Z</time>
      </trkpt>
      <trkpt lon="78.521372979314123" lat="17.645725843527494">
        <ele>494.106</ele>
        <time>2024-09-25T11:14:15Z</time>
      </trkpt>
      <trkpt lon="78.521373753696608" lat="17.645726468741483">
        <ele>494.125</ele>
        <time>2024-09-25T11:14:15Z</time>
      </trkpt>
      <trkpt lon="78.521374537468333" lat="17.645727058795654">
        <ele>494.138</ele>
        <time>2024-09-25T11:14:15Z</time>
      </trkpt>
      <trkpt lon="78.521375325929441" lat="17.645727621545166">
        <ele>494.148</ele>
        <time>2024-09-25T11:14:15Z</time>
      </trkpt>
      <trkpt lon="78.521376115374267" lat="17.645728163859616">
        <ele>494.154</ele>
        <time>2024-09-25T11:14:15Z</time>
      </trkpt>
      <trkpt lon="78.52137690297522" lat="17.645728691627099">
        <ele>494.157</ele>
        <time>2024-09-25T11:14:15Z</time>
      </trkpt>
      <trkpt lon="78.521377686664863" lat="17.645729209791362">
        <ele>494.158</ele>
        <time>2024-09-25T11:14:15Z</time>
      </trkpt>
      <trkpt lon="78.521378465020589" lat="17.645729722412582">
        <ele>494.158</ele>
        <time>2024-09-25T11:14:15Z</time>
      </trkpt>
      <trkpt lon="78.521379237155244" lat="17.645730232743894">
        <ele>494.156</ele>
        <time>2024-09-25T11:14:15Z</time>
      </trkpt>
      <trkpt lon="78.521380002616127" lat="17.645730743317085">
        <ele>494.153</ele>
        <time>2024-09-25T11:14:15Z</time>
      </trkpt>
      <trkpt lon="78.52138076129377" lat="17.645731256032256">
        <ele>494.15</ele>
        <time>2024-09-25T11:14:15Z</time>
      </trkpt>
      <trkpt lon="78.521381513341211" lat="17.645731772247345">
        <ele>494.146</ele>
        <time>2024-09-25T11:14:15Z</time>
      </trkpt>
      <trkpt lon="78.521382259104072" lat="17.645732292864434">
        <ele>494.142</ele>
        <time>2024-09-25T11:14:15Z</time>
      </trkpt>
      <trkpt lon="78.52138299906116" lat="17.645732818410657">
        <ele>494.138</ele>
        <time>2024-09-25T11:14:15Z</time>
      </trkpt>
      <trkpt lon="78.521383733775025" lat="17.645733349112184">
        <ele>494.135</ele>
        <time>2024-09-25T11:14:15Z</time>
      </trkpt>
      <trkpt lon="78.521384463851845" lat="17.645733884960471">
        <ele>494.132</ele>
        <time>2024-09-25T11:14:15Z</time>
      </trkpt>
      <trkpt lon="78.521385189909566" lat="17.645734425770332">
        <ele>494.129</ele>
        <time>2024-09-25T11:14:15Z</time>
      </trkpt>
      <trkpt lon="78.521385912553612" lat="17.645734971229864">
        <ele>494.126</ele>
        <time>2024-09-25T11:14:15Z</time>
      </trkpt>
      <trkpt lon="78.521386632358897" lat="17.645735520942473">
        <ele>494.123</ele>
        <time>2024-09-25T11:14:15Z</time>
      </trkpt>
      <trkpt lon="78.521387349857406" lat="17.645736074461485">
        <ele>494.121</ele>
        <time>2024-09-25T11:14:15Z</time>
      </trkpt>
      <trkpt lon="78.521388065530246" lat="17.645736631318012">
        <ele>494.12</ele>
        <time>2024-09-25T11:14:15Z</time>
      </trkpt>
      <trkpt lon="78.521388779803516" lat="17.645737191042681">
        <ele>494.118</ele>
        <time>2024-09-25T11:14:15Z</time>
      </trkpt>
      <trkpt lon="78.52138949304701" lat="17.645737753182061">
        <ele>494.117</ele>
        <time>2024-09-25T11:14:15Z</time>
      </trkpt>
      <trkpt lon="78.521390205575244" lat="17.645738317310492">
        <ele>494.116</ele>
        <time>2024-09-25T11:14:15Z</time>
      </trkpt>
      <trkpt lon="78.521390917650137" lat="17.645738883038032">
        <ele>494.116</ele>
        <time>2024-09-25T11:14:15Z</time>
      </trkpt>
      <trkpt lon="78.521391841293621" lat="17.645739443741462">
        <ele>494.262</ele>
        <time>2024-09-25T11:14:16Z</time>
      </trkpt>
      <trkpt lon="78.521392742507388" lat="17.64573984082277">
        <ele>494.384</ele>
        <time>2024-09-25T11:14:16Z</time>
      </trkpt>
      <trkpt lon="78.521393621700696" lat="17.645740099997319">
        <ele>494.486</ele>
        <time>2024-09-25T11:14:16Z</time>
      </trkpt>
      <trkpt lon="78.521394479946807" lat="17.645740245439111">
        <ele>494.568</ele>
        <time>2024-09-25T11:14:16Z</time>
      </trkpt>
      <trkpt lon="78.521395318782211" lat="17.64574029932071">
        <ele>494.632</ele>
        <time>2024-09-25T11:14:16Z</time>
      </trkpt>
      <trkpt lon="78.521396140039286" lat="17.645740281535943">
        <ele>494.68</ele>
        <time>2024-09-25T11:14:16Z</time>
      </trkpt>
      <trkpt lon="78.521396945709768" lat="17.645740209569986">
        <ele>494.715</ele>
        <time>2024-09-25T11:14:16Z</time>
      </trkpt>
      <trkpt lon="78.521397737836367" lat="17.645740098485096">
        <ele>494.739</ele>
        <time>2024-09-25T11:14:16Z</time>
      </trkpt>
      <trkpt lon="78.521398518429265" lat="17.645739960994">
        <ele>494.753</ele>
        <time>2024-09-25T11:14:16Z</time>
      </trkpt>
      <trkpt lon="78.521399289404343" lat="17.645739807596808">
        <ele>494.76</ele>
        <time>2024-09-25T11:14:16Z</time>
      </trkpt>
      <trkpt lon="78.521400052539832" lat="17.645739646761079">
        <ele>494.761</ele>
        <time>2024-09-25T11:14:16Z</time>
      </trkpt>
      <trkpt lon="78.521400809448451" lat="17.645739485128111">
        <ele>494.757</ele>
        <time>2024-09-25T11:14:16Z</time>
      </trkpt>
      <trkpt lon="78.521401561562143" lat="17.645739327731913">
        <ele>494.75</ele>
        <time>2024-09-25T11:14:16Z</time>
      </trkpt>
      <trkpt lon="78.521402310126845" lat="17.645739178220065">
        <ele>494.741</ele>
        <time>2024-09-25T11:14:16Z</time>
      </trkpt>
      <trkpt lon="78.521403056205045" lat="17.645739039068342">
        <ele>494.73</ele>
        <time>2024-09-25T11:14:16Z</time>
      </trkpt>
      <trkpt lon="78.521403800683998" lat="17.645738911783234">
        <ele>494.719</ele>
        <time>2024-09-25T11:14:16Z</time>
      </trkpt>
      <trkpt lon="78.521404544288046" lat="17.645738797088235">
        <ele>494.708</ele>
        <time>2024-09-25T11:14:16Z</time>
      </trkpt>
      <trkpt lon="78.521405287593652" lat="17.645738695091488">
        <ele>494.697</ele>
        <time>2024-09-25T11:14:16Z</time>
      </trkpt>
      <trkpt lon="78.521406031045657" lat="17.645738605433515">
        <ele>494.687</ele>
        <time>2024-09-25T11:14:16Z</time>
      </trkpt>
      <trkpt lon="78.521406774974366" lat="17.645738527414821">
        <ele>494.677</ele>
        <time>2024-09-25T11:14:16Z</time>
      </trkpt>
      <trkpt lon="78.521407519612183" lat="17.645738460103892">
        <ele>494.669</ele>
        <time>2024-09-25T11:14:16Z</time>
      </trkpt>
      <trkpt lon="78.521408265109656" lat="17.645738402426677">
        <ele>494.661</ele>
        <time>2024-09-25T11:14:16Z</time>
      </trkpt>
      <trkpt lon="78.52140901155046" lat="17.645738353238954">
        <ele>494.655</ele>
        <time>2024-09-25T11:14:16Z</time>
      </trkpt>
      <trkpt lon="78.521409758964879" lat="17.645738311383379">
        <ele>494.649</ele>
        <time>2024-09-25T11:14:16Z</time>
      </trkpt>
      <trkpt lon="78.521410507341926" lat="17.645738275732871">
        <ele>494.644</ele>
        <time>2024-09-25T11:14:16Z</time>
      </trkpt>
      <trkpt lon="78.521411256639922" lat="17.645738245222336">
        <ele>494.641</ele>
        <time>2024-09-25T11:14:16Z</time>
      </trkpt>
      <trkpt lon="78.521412006795416" lat="17.645738218870378">
        <ele>494.638</ele>
        <time>2024-09-25T11:14:16Z</time>
      </trkpt>
      <trkpt lon="78.521412757730829" lat="17.645738195792784">
        <ele>494.636</ele>
        <time>2024-09-25T11:14:16Z</time>
      </trkpt>
      <trkpt lon="78.521413509360585" lat="17.645738175209303">
        <ele>494.634</ele>
        <time>2024-09-25T11:14:16Z</time>
      </trkpt>
      <trkpt lon="78.521414352143836" lat="17.645738012617471">
        <ele>494.731</ele>
        <time>2024-09-25T11:14:17Z</time>
      </trkpt>
      <trkpt lon="78.521415059942228" lat="17.645737736341044">
        <ele>494.814</ele>
        <time>2024-09-25T11:14:17Z</time>
      </trkpt>
      <trkpt lon="78.521415652600112" lat="17.645737366180946">
        <ele>494.882</ele>
        <time>2024-09-25T11:14:17Z</time>
      </trkpt>
      <trkpt lon="78.521416149075179" lat="17.64573692032392">
        <ele>494.937</ele>
        <time>2024-09-25T11:14:17Z</time>
      </trkpt>
      <trkpt lon="78.521416566998369" lat="17.645736415108288">
        <ele>494.98</ele>
        <time>2024-09-25T11:14:17Z</time>
      </trkpt>
      <trkpt lon="78.521416922388198" lat="17.6457358649116">
        <ele>495.013</ele>
        <time>2024-09-25T11:14:17Z</time>
      </trkpt>
      <trkpt lon="78.521417229491377" lat="17.645735282134027">
        <ele>495.037</ele>
        <time>2024-09-25T11:14:17Z</time>
      </trkpt>
      <trkpt lon="78.521417500724255" lat="17.645734677254506">
        <ele>495.053</ele>
        <time>2024-09-25T11:14:17Z</time>
      </trkpt>
      <trkpt lon="78.521417746692208" lat="17.645734058939812">
        <ele>495.063</ele>
        <time>2024-09-25T11:14:17Z</time>
      </trkpt>
      <trkpt lon="78.521417976267173" lat="17.64573343418968">
        <ele>495.068</ele>
        <time>2024-09-25T11:14:17Z</time>
      </trkpt>
      <trkpt lon="78.52141819670625" lat="17.645732808504114">
        <ele>495.069</ele>
        <time>2024-09-25T11:14:17Z</time>
      </trkpt>
      <trkpt lon="78.521418413797235" lat="17.645732186061593">
        <ele>495.067</ele>
        <time>2024-09-25T11:14:17Z</time>
      </trkpt>
      <trkpt lon="78.521418632019348" lat="17.645731569899294">
        <ele>495.063</ele>
        <time>2024-09-25T11:14:17Z</time>
      </trkpt>
      <trkpt lon="78.521418854709808" lat="17.645730962088575">
        <ele>495.057</ele>
        <time>2024-09-25T11:14:17Z</time>
      </trkpt>
      <trkpt lon="78.521419084229066" lat="17.645730363900817">
        <ele>495.05</ele>
        <time>2024-09-25T11:14:17Z</time>
      </trkpt>
      <trkpt lon="78.521419322119314" lat="17.64572977596022">
        <ele>495.043</ele>
        <time>2024-09-25T11:14:17Z</time>
      </trkpt>
      <trkpt lon="78.521419569252387" lat="17.645729198381432">
        <ele>495.035</ele>
        <time>2024-09-25T11:14:17Z</time>
      </trkpt>
      <trkpt lon="78.521419825964472" lat="17.645728630891021">
        <ele>495.028</ele>
        <time>2024-09-25T11:14:17Z</time>
      </trkpt>
      <trkpt lon="78.521420092176314" lat="17.645728072932521">
        <ele>495.021</ele>
        <time>2024-09-25T11:14:17Z</time>
      </trkpt>
      <trkpt lon="78.52142036749828" lat="17.645727523755411">
        <ele>495.015</ele>
        <time>2024-09-25T11:14:17Z</time>
      </trkpt>
      <trkpt lon="78.521420651320241" lat="17.645726982488977">
        <ele>495.009</ele>
        <time>2024-09-25T11:14:17Z</time>
      </trkpt>
      <trkpt lon="78.521420942887119" lat="17.645726448202126">
        <ele>495.004</ele>
        <time>2024-09-25T11:14:17Z</time>
      </trkpt>
      <trkpt lon="78.521421241360713" lat="17.645725919950596">
        <ele>495</ele>
        <time>2024-09-25T11:14:17Z</time>
      </trkpt>
      <trkpt lon="78.52142154586933" lat="17.645725396812985">
        <ele>494.996</ele>
        <time>2024-09-25T11:14:17Z</time>
      </trkpt>
      <trkpt lon="78.521421855546251" lat="17.645724877917122">
        <ele>494.993</ele>
        <time>2024-09-25T11:14:17Z</time>
      </trkpt>
      <trkpt lon="78.52142216955869" lat="17.645724362458242">
        <ele>494.991</ele>
        <time>2024-09-25T11:14:17Z</time>
      </trkpt>
      <trkpt lon="78.521422487128277" lat="17.645723849710336">
        <ele>494.989</ele>
        <time>2024-09-25T11:14:17Z</time>
      </trkpt>
      <trkpt lon="78.521422807544724" lat="17.645723339031981">
        <ele>494.987</ele>
        <time>2024-09-25T11:14:17Z</time>
      </trkpt>
      <trkpt lon="78.521423130173773" lat="17.645722829867786">
        <ele>494.986</ele>
        <time>2024-09-25T11:14:17Z</time>
      </trkpt>
      <trkpt lon="78.521423474967122" lat="17.645722151887504">
        <ele>494.947</ele>
        <time>2024-09-25T11:14:18Z</time>
      </trkpt>
      <trkpt lon="78.521423747675698" lat="17.645721475243565">
        <ele>494.915</ele>
        <time>2024-09-25T11:14:18Z</time>
      </trkpt>
      <trkpt lon="78.521423959109967" lat="17.64572080210668">
        <ele>494.889</ele>
        <time>2024-09-25T11:14:18Z</time>
      </trkpt>
      <trkpt lon="78.521424119547021" lat="17.645720133991372">
        <ele>494.868</ele>
        <time>2024-09-25T11:14:18Z</time>
      </trkpt>
      <trkpt lon="78.521424238504977" lat="17.645719471864915">
        <ele>494.851</ele>
        <time>2024-09-25T11:14:18Z</time>
      </trkpt>
      <trkpt lon="78.52142432459928" lat="17.645718816248468">
        <ele>494.839</ele>
        <time>2024-09-25T11:14:18Z</time>
      </trkpt>
      <trkpt lon="78.521424385465679" lat="17.645718167308807">
        <ele>494.83</ele>
        <time>2024-09-25T11:14:18Z</time>
      </trkpt>
      <trkpt lon="78.521424427736292" lat="17.645717524939769">
        <ele>494.824</ele>
        <time>2024-09-25T11:14:18Z</time>
      </trkpt>
      <trkpt lon="78.521424457056298" lat="17.645716888833135">
        <ele>494.821</ele>
        <time>2024-09-25T11:14:18Z</time>
      </trkpt>
      <trkpt lon="78.521424478130911" lat="17.645716258539078">
        <ele>494.82</ele>
        <time>2024-09-25T11:14:18Z</time>
      </trkpt>
      <trkpt lon="78.521424494793337" lat="17.645715633516648">
        <ele>494.82</ele>
        <time>2024-09-25T11:14:18Z</time>
      </trkpt>
      <trkpt lon="78.521424510086334" lat="17.645715013174982">
        <ele>494.821</ele>
        <time>2024-09-25T11:14:18Z</time>
      </trkpt>
      <trkpt lon="78.52142452635114" lat="17.645714396906133">
        <ele>494.823</ele>
        <time>2024-09-25T11:14:18Z</time>
      </trkpt>
      <trkpt lon="78.521424545318879" lat="17.645713784110367">
        <ele>494.826</ele>
        <time>2024-09-25T11:14:18Z</time>
      </trkpt>
      <trkpt lon="78.521424568200601" lat="17.645713174214979">
        <ele>494.829</ele>
        <time>2024-09-25T11:14:18Z</time>
      </trkpt>
      <trkpt lon="78.521424595773311" lat="17.645712566687532">
        <ele>494.832</ele>
        <time>2024-09-25T11:14:18Z</time>
      </trkpt>
      <trkpt lon="78.521424628459812" lat="17.645711961044427">
        <ele>494.835</ele>
        <time>2024-09-25T11:14:18Z</time>
      </trkpt>
      <trkpt lon="78.521424666401202" lat="17.645711356855678">
        <ele>494.838</ele>
        <time>2024-09-25T11:14:18Z</time>
      </trkpt>
      <trkpt lon="78.521424709521369" lat="17.645710753746648">
        <ele>494.841</ele>
        <time>2024-09-25T11:14:18Z</time>
      </trkpt>
      <trkpt lon="78.521424757583091" lat="17.645710151397434">
        <ele>494.843</ele>
        <time>2024-09-25T11:14:18Z</time>
      </trkpt>
      <trkpt lon="78.521424810235885" lat="17.645709549540491">
        <ele>494.846</ele>
        <time>2024-09-25T11:14:18Z</time>
      </trkpt>
      <trkpt lon="78.521424867056155" lat="17.645708947957058">
        <ele>494.848</ele>
        <time>2024-09-25T11:14:18Z</time>
      </trkpt>
      <trkpt lon="78.521424927579844" lat="17.64570834647272">
        <ele>494.849</ele>
        <time>2024-09-25T11:14:18Z</time>
      </trkpt>
      <trkpt lon="78.521424991328516" lat="17.645707744952567">
        <ele>494.851</ele>
        <time>2024-09-25T11:14:18Z</time>
      </trkpt>
      <trkpt lon="78.521425057829504" lat="17.645707143296136">
        <ele>494.852</ele>
        <time>2024-09-25T11:14:18Z</time>
      </trkpt>
      <trkpt lon="78.521425126630973" lat="17.645706541432435">
        <ele>494.853</ele>
        <time>2024-09-25T11:14:18Z</time>
      </trkpt>
      <trkpt lon="78.521425197312354" lat="17.645705939315146">
        <ele>494.854</ele>
        <time>2024-09-25T11:14:18Z</time>
      </trkpt>
      <trkpt lon="78.521425269491374" lat="17.645705336918162">
        <ele>494.854</ele>
        <time>2024-09-25T11:14:18Z</time>
      </trkpt>
      <trkpt lon="78.521425342827868" lat="17.645704734231519">
        <ele>494.855</ele>
        <time>2024-09-25T11:14:18Z</time>
      </trkpt>
      <trkpt lon="78.52142542208162" lat="17.645703986680967">
        <ele>494.832</ele>
        <time>2024-09-25T11:14:19Z</time>
      </trkpt>
      <trkpt lon="78.521425485697151" lat="17.645703286877094">
        <ele>494.814</ele>
        <time>2024-09-25T11:14:19Z</time>
      </trkpt>
      <trkpt lon="78.521425535940168" lat="17.645702629495048">
        <ele>494.798</ele>
        <time>2024-09-25T11:14:19Z</time>
      </trkpt>
      <trkpt lon="78.521425574983013" lat="17.645702009047596">
        <ele>494.786</ele>
        <time>2024-09-25T11:14:19Z</time>
      </trkpt>
      <trkpt lon="78.521425604852183" lat="17.645701420115685">
        <ele>494.776</ele>
        <time>2024-09-25T11:14:19Z</time>
      </trkpt>
      <trkpt lon="78.521425627393896" lat="17.645700857519834">
        <ele>494.768</ele>
        <time>2024-09-25T11:14:19Z</time>
      </trkpt>
      <trkpt lon="78.521425644254336" lat="17.645700316441051">
        <ele>494.763</ele>
        <time>2024-09-25T11:14:19Z</time>
      </trkpt>
      <trkpt lon="78.521425656871699" lat="17.645699792499435">
        <ele>494.759</ele>
        <time>2024-09-25T11:14:19Z</time>
      </trkpt>
      <trkpt lon="78.521425666477526" lat="17.645699281798194">
        <ele>494.757</ele>
        <time>2024-09-25T11:14:19Z</time>
      </trkpt>
      <trkpt lon="78.521425674104719" lat="17.645698780940037">
        <ele>494.756</ele>
        <time>2024-09-25T11:14:19Z</time>
      </trkpt>
      <trkpt lon="78.521425680600615" lat="17.645698287022196">
        <ele>494.755</ele>
        <time>2024-09-25T11:14:19Z</time>
      </trkpt>
      <trkpt lon="78.521425686643255" lat="17.645697797615483">
        <ele>494.756</ele>
        <time>2024-09-25T11:14:19Z</time>
      </trkpt>
      <trkpt lon="78.521425692759493" lat="17.645697310732078">
        <ele>494.757</ele>
        <time>2024-09-25T11:14:19Z</time>
      </trkpt>
      <trkpt lon="78.521425699343922" lat="17.645696824785897">
        <ele>494.758</ele>
        <time>2024-09-25T11:14:19Z</time>
      </trkpt>
      <trkpt lon="78.521425706677718" lat="17.645696338548774">
        <ele>494.76</ele>
        <time>2024-09-25T11:14:19Z</time>
      </trkpt>
      <trkpt lon="78.521425714946844" lat="17.645695851105003">
        <ele>494.761</ele>
        <time>2024-09-25T11:14:19Z</time>
      </trkpt>
      <trkpt lon="78.521425724258975" lat="17.645695361806219">
        <ele>494.763</ele>
        <time>2024-09-25T11:14:19Z</time>
      </trkpt>
      <trkpt lon="78.521425734659061" lat="17.645694870228095">
        <ele>494.765</ele>
        <time>2024-09-25T11:14:19Z</time>
      </trkpt>
      <trkpt lon="78.521425746143208" lat="17.645694376129928">
        <ele>494.766</ele>
        <time>2024-09-25T11:14:19Z</time>
      </trkpt>
      <trkpt lon="78.521425758670816" lat="17.645693879417788">
        <ele>494.768</ele>
        <time>2024-09-25T11:14:19Z</time>
      </trkpt>
      <trkpt lon="78.52142577217505" lat="17.645693380111656">
        <ele>494.769</ele>
        <time>2024-09-25T11:14:19Z</time>
      </trkpt>
      <trkpt lon="78.521425786571612" lat="17.64569287831667">
        <ele>494.77</ele>
        <time>2024-09-25T11:14:19Z</time>
      </trkpt>
      <trkpt lon="78.521425801765986" lat="17.645692374198529">
        <ele>494.771</ele>
        <time>2024-09-25T11:14:19Z</time>
      </trkpt>
      <trkpt lon="78.521425817659193" lat="17.645691867962817">
        <ele>494.772</ele>
        <time>2024-09-25T11:14:19Z</time>
      </trkpt>
      <trkpt lon="78.521425834152339" lat="17.645691359838047">
        <ele>494.773</ele>
        <time>2024-09-25T11:14:19Z</time>
      </trkpt>
      <trkpt lon="78.521425851150084" lat="17.645690850062085">
        <ele>494.773</ele>
        <time>2024-09-25T11:14:19Z</time>
      </trkpt>
      <trkpt lon="78.521425868563014" lat="17.645690338871574">
        <ele>494.774</ele>
        <time>2024-09-25T11:14:19Z</time>
      </trkpt>
      <trkpt lon="78.521425886309288" lat="17.645689826494035">
        <ele>494.774</ele>
        <time>2024-09-25T11:14:19Z</time>
      </trkpt>
      <trkpt lon="78.521425904315649" lat="17.645689313142192">
        <ele>494.774</ele>
        <time>2024-09-25T11:14:19Z</time>
      </trkpt>
      <trkpt lon="78.521425860248712" lat="17.645688559671989">
        <ele>494.828</ele>
        <time>2024-09-25T11:14:20Z</time>
      </trkpt>
      <trkpt lon="78.52142575879077" lat="17.645687748477901">
        <ele>494.873</ele>
        <time>2024-09-25T11:14:20Z</time>
      </trkpt>
      <trkpt lon="78.521425609895857" lat="17.645686892353499">
        <ele>494.911</ele>
        <time>2024-09-25T11:14:20Z</time>
      </trkpt>
      <trkpt lon="78.521425422714927" lat="17.645686002503158">
        <ele>494.941</ele>
        <time>2024-09-25T11:14:20Z</time>
      </trkpt>
      <trkpt lon="78.521425205475751" lat="17.645685088544194">
        <ele>494.964</ele>
        <time>2024-09-25T11:14:20Z</time>
      </trkpt>
      <trkpt lon="78.521424965424444" lat="17.645684158563544">
        <ele>494.982</ele>
        <time>2024-09-25T11:14:20Z</time>
      </trkpt>
      <trkpt lon="78.521424708815459" lat="17.645683219213687">
        <ele>494.995</ele>
        <time>2024-09-25T11:14:20Z</time>
      </trkpt>
      <trkpt lon="78.52142444093856" lat="17.645682275834751">
        <ele>495.003</ele>
        <time>2024-09-25T11:14:20Z</time>
      </trkpt>
      <trkpt lon="78.521424166172565" lat="17.645681332592137">
        <ele>495.009</ele>
        <time>2024-09-25T11:14:20Z</time>
      </trkpt>
      <trkpt lon="78.521423888057555" lat="17.645680392621049">
        <ele>495.011</ele>
        <time>2024-09-25T11:14:20Z</time>
      </trkpt>
      <trkpt lon="78.521423609378402" lat="17.645679458171241">
        <ele>495.011</ele>
        <time>2024-09-25T11:14:20Z</time>
      </trkpt>
      <trkpt lon="78.521423332253974" lat="17.645678530746856">
        <ele>495.01</ele>
        <time>2024-09-25T11:14:20Z</time>
      </trkpt>
      <trkpt lon="78.521423058227512" lat="17.645677611237765">
        <ele>495.007</ele>
        <time>2024-09-25T11:14:20Z</time>
      </trkpt>
      <trkpt lon="78.521422788354755" lat="17.645676700039868">
        <ele>495.004</ele>
        <time>2024-09-25T11:14:20Z</time>
      </trkpt>
      <trkpt lon="78.521422523287285" lat="17.645675797162959">
        <ele>495</ele>
        <time>2024-09-25T11:14:20Z</time>
      </trkpt>
      <trkpt lon="78.521422263349379" lat="17.64567490232545">
        <ele>494.995</ele>
        <time>2024-09-25T11:14:20Z</time>
      </trkpt>
      <trkpt lon="78.521422008607331" lat="17.645674015035869">
        <ele>494.991</ele>
        <time>2024-09-25T11:14:20Z</time>
      </trkpt>
      <trkpt lon="78.521421758930671" lat="17.64567313466161">
        <ele>494.987</ele>
        <time>2024-09-25T11:14:20Z</time>
      </trkpt>
      <trkpt lon="78.521421514045159" lat="17.645672260485636">
        <ele>494.983</ele>
        <time>2024-09-25T11:14:20Z</time>
      </trkpt>
      <trkpt lon="78.521421273577644" lat="17.645671391752174">
        <ele>494.98</ele>
        <time>2024-09-25T11:14:20Z</time>
      </trkpt>
      <trkpt lon="78.521421037093432" lat="17.645670527702503">
        <ele>494.977</ele>
        <time>2024-09-25T11:14:20Z</time>
      </trkpt>
      <trkpt lon="78.521420804126478" lat="17.645669667602018">
        <ele>494.974</ele>
        <time>2024-09-25T11:14:20Z</time>
      </trkpt>
      <trkpt lon="78.521420574203347" lat="17.645668810759812">
        <ele>494.971</ele>
        <time>2024-09-25T11:14:20Z</time>
      </trkpt>
      <trkpt lon="78.521420346861419" lat="17.645667956541914">
        <ele>494.969</ele>
        <time>2024-09-25T11:14:20Z</time>
      </trkpt>
      <trkpt lon="78.521420121662359" lat="17.645667104379285">
        <ele>494.968</ele>
        <time>2024-09-25T11:14:20Z</time>
      </trkpt>
      <trkpt lon="78.521419898201287" lat="17.645666253771598">
        <ele>494.966</ele>
        <time>2024-09-25T11:14:20Z</time>
      </trkpt>
      <trkpt lon="78.521419676112671" lat="17.645665404287694">
        <ele>494.965</ele>
        <time>2024-09-25T11:14:20Z</time>
      </trkpt>
      <trkpt lon="78.521419455073271" lat="17.645664555563535">
        <ele>494.964</ele>
        <time>2024-09-25T11:14:20Z</time>
      </trkpt>
      <trkpt lon="78.52141923480302" lat="17.645663707298318">
        <ele>494.964</ele>
        <time>2024-09-25T11:14:20Z</time>
      </trkpt>
      <trkpt lon="78.521418964218725" lat="17.645662570470328">
        <ele>494.93</ele>
        <time>2024-09-25T11:14:21Z</time>
      </trkpt>
      <trkpt lon="78.521418713388982" lat="17.645661429647848">
        <ele>494.901</ele>
        <time>2024-09-25T11:14:21Z</time>
      </trkpt>
      <trkpt lon="78.521418479875635" lat="17.645660289732472">
        <ele>494.877</ele>
        <time>2024-09-25T11:14:21Z</time>
      </trkpt>
      <trkpt lon="78.52141826123939" lat="17.645659154387598">
        <ele>494.859</ele>
        <time>2024-09-25T11:14:21Z</time>
      </trkpt>
      <trkpt lon="78.521418055124826" lat="17.645658026216022">
        <ele>494.844</ele>
        <time>2024-09-25T11:14:21Z</time>
      </trkpt>
      <trkpt lon="78.521417859321502" lat="17.645656906930654">
        <ele>494.833</ele>
        <time>2024-09-25T11:14:21Z</time>
      </trkpt>
      <trkpt lon="78.52141767180504" lat="17.645655797514092">
        <ele>494.825</ele>
        <time>2024-09-25T11:14:21Z</time>
      </trkpt>
      <trkpt lon="78.521417490761664" lat="17.645654698364311">
        <ele>494.82</ele>
        <time>2024-09-25T11:14:21Z</time>
      </trkpt>
      <trkpt lon="78.521417314599304" lat="17.645653609424748">
        <ele>494.816</ele>
        <time>2024-09-25T11:14:21Z</time>
      </trkpt>
      <trkpt lon="78.521417141948334" lat="17.645652530298182">
        <ele>494.815</ele>
        <time>2024-09-25T11:14:21Z</time>
      </trkpt>
      <trkpt lon="78.521416971654332" lat="17.645651460344382">
        <ele>494.815</ele>
        <time>2024-09-25T11:14:21Z</time>
      </trkpt>
      <trkpt lon="78.521416802765259" lat="17.645650398762172">
        <ele>494.816</ele>
        <time>2024-09-25T11:14:21Z</time>
      </trkpt>
      <trkpt lon="78.521416634514623" lat="17.645649344656871">
        <ele>494.818</ele>
        <time>2024-09-25T11:14:21Z</time>
      </trkpt>
      <trkpt lon="78.521416466302497" lat="17.64564829709439">
        <ele>494.82</ele>
        <time>2024-09-25T11:14:21Z</time>
      </trkpt>
      <trkpt lon="78.521416297675287" lat="17.645647255143377">
        <ele>494.823</ele>
        <time>2024-09-25T11:14:21Z</time>
      </trkpt>
      <trkpt lon="78.521416128305489" lat="17.645646217906883">
        <ele>494.826</ele>
        <time>2024-09-25T11:14:21Z</time>
      </trkpt>
      <trkpt lon="78.521415957971996" lat="17.645645184545035">
        <ele>494.828</ele>
        <time>2024-09-25T11:14:21Z</time>
      </trkpt>
      <trkpt lon="78.52141578654161" lat="17.645644154290171">
        <ele>494.831</ele>
        <time>2024-09-25T11:14:21Z</time>
      </trkpt>
      <trkpt lon="78.521415613952058" lat="17.645643126455713">
        <ele>494.833</ele>
        <time>2024-09-25T11:14:21Z</time>
      </trkpt>
      <trkpt lon="78.521415440196591" lat="17.645642100440039">
        <ele>494.836</ele>
        <time>2024-09-25T11:14:21Z</time>
      </trkpt>
      <trkpt lon="78.521415265310651" lat="17.645641075726484">
        <ele>494.838</ele>
        <time>2024-09-25T11:14:21Z</time>
      </trkpt>
      <trkpt lon="78.521415089360218" lat="17.645640051880349">
        <ele>494.839</ele>
        <time>2024-09-25T11:14:21Z</time>
      </trkpt>
      <trkpt lon="78.521414912431993" lat="17.645639028543826">
        <ele>494.841</ele>
        <time>2024-09-25T11:14:21Z</time>
      </trkpt>
      <trkpt lon="78.521414734625267" lat="17.645638005429504">
        <ele>494.842</ele>
        <time>2024-09-25T11:14:21Z</time>
      </trkpt>
      <trkpt lon="78.521414556045428" lat="17.645636982313004">
        <ele>494.843</ele>
        <time>2024-09-25T11:14:21Z</time>
      </trkpt>
      <trkpt lon="78.521414376798745" lat="17.645635959025263">
        <ele>494.844</ele>
        <time>2024-09-25T11:14:21Z</time>
      </trkpt>
      <trkpt lon="78.521414196988502" lat="17.645634935444782">
        <ele>494.845</ele>
        <time>2024-09-25T11:14:21Z</time>
      </trkpt>
      <trkpt lon="78.521414016712114" lat="17.645633911490151">
        <ele>494.845</ele>
        <time>2024-09-25T11:14:21Z</time>
      </trkpt>
      <trkpt lon="78.521413836059196" lat="17.645632887112981">
        <ele>494.846</ele>
        <time>2024-09-25T11:14:21Z</time>
      </trkpt>
      <trkpt lon="78.521413610726071" lat="17.645631554597617">
        <ele>494.859</ele>
        <time>2024-09-25T11:14:22Z</time>
      </trkpt>
      <trkpt lon="78.521413398610122" lat="17.645630251117577">
        <ele>494.87</ele>
        <time>2024-09-25T11:14:22Z</time>
      </trkpt>
      <trkpt lon="78.521413198336859" lat="17.645628976753542">
        <ele>494.879</ele>
        <time>2024-09-25T11:14:22Z</time>
      </trkpt>
      <trkpt lon="78.521413008458921" lat="17.645627730555169">
        <ele>494.887</ele>
        <time>2024-09-25T11:14:22Z</time>
      </trkpt>
      <trkpt lon="78.52141282752423" lat="17.645626510827906">
        <ele>494.892</ele>
        <time>2024-09-25T11:14:22Z</time>
      </trkpt>
      <trkpt lon="78.521412654127587" lat="17.645625315375057">
        <ele>494.896</ele>
        <time>2024-09-25T11:14:22Z</time>
      </trkpt>
      <trkpt lon="78.521412486947966" lat="17.645624141697692">
        <ele>494.899</ele>
        <time>2024-09-25T11:14:22Z</time>
      </trkpt>
      <trkpt lon="78.521412324773621" lat="17.645622987155839">
        <ele>494.901</ele>
        <time>2024-09-25T11:14:22Z</time>
      </trkpt>
      <trkpt lon="78.521412166517308" lat="17.645621849094887">
        <ele>494.903</ele>
        <time>2024-09-25T11:14:22Z</time>
      </trkpt>
      <trkpt lon="78.521412011223362" lat="17.645620724941381">
        <ele>494.903</ele>
        <time>2024-09-25T11:14:22Z</time>
      </trkpt>
      <trkpt lon="78.521411858068518" lat="17.645619612272423">
        <ele>494.903</ele>
        <time>2024-09-25T11:14:22Z</time>
      </trkpt>
      <trkpt lon="78.521411706357895" lat="17.645618508862739">
        <ele>494.903</ele>
        <time>2024-09-25T11:14:22Z</time>
      </trkpt>
      <trkpt lon="78.521411555517531" lat="17.645617412713332">
        <ele>494.902</ele>
        <time>2024-09-25T11:14:22Z</time>
      </trkpt>
      <trkpt lon="78.521411405084535" lat="17.645616322065173">
        <ele>494.901</ele>
        <time>2024-09-25T11:14:22Z</time>
      </trkpt>
      <trkpt lon="78.521411254695821" lat="17.645615235401227">
        <ele>494.9</ele>
        <time>2024-09-25T11:14:22Z</time>
      </trkpt>
      <trkpt lon="78.521411104076165" lat="17.645614151439567">
        <ele>494.899</ele>
        <time>2024-09-25T11:14:22Z</time>
      </trkpt>
      <trkpt lon="78.521410953026091" lat="17.645613069119999">
        <ele>494.898</ele>
        <time>2024-09-25T11:14:22Z</time>
      </trkpt>
      <trkpt lon="78.521410801410212" lat="17.645611987586321">
        <ele>494.897</ele>
        <time>2024-09-25T11:14:22Z</time>
      </trkpt>
      <trkpt lon="78.521410649146091" lat="17.6456109061658">
        <ele>494.896</ele>
        <time>2024-09-25T11:14:22Z</time>
      </trkpt>
      <trkpt lon="78.521410496194136" lat="17.645609824347407">
        <ele>494.895</ele>
        <time>2024-09-25T11:14:22Z</time>
      </trkpt>
      <trkpt lon="78.52141034254835" lat="17.645608741759723">
        <ele>494.894</ele>
        <time>2024-09-25T11:14:22Z</time>
      </trkpt>
      <trkpt lon="78.52141018822833" lat="17.645607658149501">
        <ele>494.893</ele>
        <time>2024-09-25T11:14:22Z</time>
      </trkpt>
      <trkpt lon="78.521410033272247" lat="17.645606573361338">
        <ele>494.893</ele>
        <time>2024-09-25T11:14:22Z</time>
      </trkpt>
      <trkpt lon="78.521409877730989" lat="17.645605487319003">
        <ele>494.892</ele>
        <time>2024-09-25T11:14:22Z</time>
      </trkpt>
      <trkpt lon="78.521409721663233" lat="17.645604400008583">
        <ele>494.892</ele>
        <time>2024-09-25T11:14:22Z</time>
      </trkpt>
      <trkpt lon="78.521409565131478" lat="17.645603311463631">
        <ele>494.892</ele>
        <time>2024-09-25T11:14:22Z</time>
      </trkpt>
      <trkpt lon="78.521409408198977" lat="17.645602221752323">
        <ele>494.891</ele>
        <time>2024-09-25T11:14:22Z</time>
      </trkpt>
      <trkpt lon="78.521409250927306" lat="17.645601130966543">
        <ele>494.891</ele>
        <time>2024-09-25T11:14:22Z</time>
      </trkpt>
      <trkpt lon="78.521409093374658" lat="17.645600039212884">
        <ele>494.891</ele>
        <time>2024-09-25T11:14:22Z</time>
      </trkpt>
      <trkpt lon="78.521408889993069" lat="17.645598606044562">
        <ele>494.882</ele>
        <time>2024-09-25T11:14:23Z</time>
      </trkpt>
      <trkpt lon="78.521408692387624" lat="17.645597192835943">
        <ele>494.874</ele>
        <time>2024-09-25T11:14:23Z</time>
      </trkpt>
      <trkpt lon="78.521408500361275" lat="17.645595801649463">
        <ele>494.868</ele>
        <time>2024-09-25T11:14:23Z</time>
      </trkpt>
      <trkpt lon="78.52140831357174" lat="17.645594433275008">
        <ele>494.863</ele>
        <time>2024-09-25T11:14:23Z</time>
      </trkpt>
      <trkpt lon="78.52140813157915" lat="17.64559308751577">
        <ele>494.859</ele>
        <time>2024-09-25T11:14:23Z</time>
      </trkpt>
      <trkpt lon="78.521407953885316" lat="17.645591763437981">
        <ele>494.856</ele>
        <time>2024-09-25T11:14:23Z</time>
      </trkpt>
      <trkpt lon="78.521407779965401" lat="17.645590459584785">
        <ele>494.854</ele>
        <time>2024-09-25T11:14:23Z</time>
      </trkpt>
      <trkpt lon="78.521407609292709" lat="17.645589174155599">
        <ele>494.853</ele>
        <time>2024-09-25T11:14:23Z</time>
      </trkpt>
      <trkpt lon="78.521407441357468" lat="17.645587905153263">
        <ele>494.852</ele>
        <time>2024-09-25T11:14:23Z</time>
      </trkpt>
      <trkpt lon="78.521407275680289" lat="17.645586650501802">
        <ele>494.852</ele>
        <time>2024-09-25T11:14:23Z</time>
      </trkpt>
      <trkpt lon="78.521407111821404" lat="17.645585408137922">
        <ele>494.852</ele>
        <time>2024-09-25T11:14:23Z</time>
      </trkpt>
      <trkpt lon="78.521406949386162" lat="17.645584176079542">
        <ele>494.852</ele>
        <time>2024-09-25T11:14:23Z</time>
      </trkpt>
      <trkpt lon="78.521406788027619" lat="17.645582952474641">
        <ele>494.853</ele>
        <time>2024-09-25T11:14:23Z</time>
      </trkpt>
      <trkpt lon="78.521406627446851" lat="17.645581735633552">
        <ele>494.853</ele>
        <time>2024-09-25T11:14:23Z</time>
      </trkpt>
      <trkpt lon="78.521406467391529" lat="17.645580524047684">
        <ele>494.854</ele>
        <time>2024-09-25T11:14:23Z</time>
      </trkpt>
      <trkpt lon="78.52140630765318" lat="17.645579316397324">
        <ele>494.855</ele>
        <time>2024-09-25T11:14:23Z</time>
      </trkpt>
      <trkpt lon="78.521406148063647" lat="17.645578111550975">
        <ele>494.855</ele>
        <time>2024-09-25T11:14:23Z</time>
      </trkpt>
      <trkpt lon="78.521405988490997" lat="17.645576908558315">
        <ele>494.856</ele>
        <time>2024-09-25T11:14:23Z</time>
      </trkpt>
      <trkpt lon="78.521405828835199" lat="17.64557570663861">
        <ele>494.857</ele>
        <time>2024-09-25T11:14:23Z</time>
      </trkpt>
      <trkpt lon="78.521405669023736" lat="17.645574505166053">
        <ele>494.857</ele>
        <time>2024-09-25T11:14:23Z</time>
      </trkpt>
      <trkpt lon="78.521405509007366" lat="17.645573303653379">
        <ele>494.858</ele>
        <time>2024-09-25T11:14:23Z</time>
      </trkpt>
      <trkpt lon="78.521405348756048" lat="17.645572101734675">
        <ele>494.858</ele>
        <time>2024-09-25T11:14:23Z</time>
      </trkpt>
      <trkpt lon="78.521405188255329" lat="17.645570899148211">
        <ele>494.859</ele>
        <time>2024-09-25T11:14:23Z</time>
      </trkpt>
      <trkpt lon="78.521405027502951" lat="17.645569695719878">
        <ele>494.859</ele>
        <time>2024-09-25T11:14:23Z</time>
      </trkpt>
      <trkpt lon="78.521404866505961" lat="17.645568491347671">
        <ele>494.859</ele>
        <time>2024-09-25T11:14:23Z</time>
      </trkpt>
      <trkpt lon="78.521404705278172" lat="17.645567285987472">
        <ele>494.859</ele>
        <time>2024-09-25T11:14:23Z</time>
      </trkpt>
      <trkpt lon="78.521404543838017" lat="17.645566079640339">
        <ele>494.86</ele>
        <time>2024-09-25T11:14:23Z</time>
      </trkpt>
      <trkpt lon="78.521404382206754" lat="17.64556487234135">
        <ele>494.86</ele>
        <time>2024-09-25T11:14:23Z</time>
      </trkpt>
      <trkpt lon="78.521404220407049" lat="17.645563664149993">
        <ele>494.86</ele>
        <time>2024-09-25T11:14:23Z</time>
      </trkpt>
      <trkpt lon="78.52140400995745" lat="17.645562104468489">
        <ele>494.718</ele>
        <time>2024-09-25T11:14:24Z</time>
      </trkpt>
      <trkpt lon="78.521403804110903" lat="17.645560589098643">
        <ele>494.599</ele>
        <time>2024-09-25T11:14:24Z</time>
      </trkpt>
      <trkpt lon="78.521403602886508" lat="17.645559116405533">
        <ele>494.501</ele>
        <time>2024-09-25T11:14:24Z</time>
      </trkpt>
      <trkpt lon="78.521403406138162" lat="17.645557683674607">
        <ele>494.422</ele>
        <time>2024-09-25T11:14:24Z</time>
      </trkpt>
      <trkpt lon="78.521403213600252" lat="17.645556287471745">
        <ele>494.36</ele>
        <time>2024-09-25T11:14:24Z</time>
      </trkpt>
      <trkpt lon="78.521403024926343" lat="17.64555492393967">
        <ele>494.313</ele>
        <time>2024-09-25T11:14:24Z</time>
      </trkpt>
      <trkpt lon="78.521402839721091" lat="17.64555358903608">
        <ele>494.279</ele>
        <time>2024-09-25T11:14:24Z</time>
      </trkpt>
      <trkpt lon="78.521402657566028" lat="17.645552278719588">
        <ele>494.256</ele>
        <time>2024-09-25T11:14:24Z</time>
      </trkpt>
      <trkpt lon="78.521402478039775" lat="17.645550989089852">
        <ele>494.242</ele>
        <time>2024-09-25T11:14:24Z</time>
      </trkpt>
      <trkpt lon="78.521402300733371" lat="17.645549716488297">
        <ele>494.236</ele>
        <time>2024-09-25T11:14:24Z</time>
      </trkpt>
      <trkpt lon="78.521402125261446" lat="17.645548457565663">
        <ele>494.235</ele>
        <time>2024-09-25T11:14:24Z</time>
      </trkpt>
      <trkpt lon="78.521401951269837" lat="17.645547209322167">
        <ele>494.239</ele>
        <time>2024-09-25T11:14:24Z</time>
      </trkpt>
      <trkpt lon="78.521401778440108" lat="17.645545969125649">
        <ele>494.246</ele>
        <time>2024-09-25T11:14:24Z</time>
      </trkpt>
      <trkpt lon="78.521401606491878" lat="17.645544734712491">
        <ele>494.255</ele>
        <time>2024-09-25T11:14:24Z</time>
      </trkpt>
      <trkpt lon="78.521401435183193" lat="17.645543504175482">
        <ele>494.265</ele>
        <time>2024-09-25T11:14:24Z</time>
      </trkpt>
      <trkpt lon="78.521401264309446" lat="17.645542275942322">
        <ele>494.276</ele>
        <time>2024-09-25T11:14:24Z</time>
      </trkpt>
      <trkpt lon="78.5214010937013" lat="17.645541048747784">
        <ele>494.287</ele>
        <time>2024-09-25T11:14:24Z</time>
      </trkpt>
      <trkpt lon="78.521400923221876" lat="17.645539821602043">
        <ele>494.297</ele>
        <time>2024-09-25T11:14:24Z</time>
      </trkpt>
      <trkpt lon="78.521400752763526" lat="17.645538593757266">
        <ele>494.308</ele>
        <time>2024-09-25T11:14:24Z</time>
      </trkpt>
      <trkpt lon="78.521400582244368" lat="17.645537364673995">
        <ele>494.317</ele>
        <time>2024-09-25T11:14:24Z</time>
      </trkpt>
      <trkpt lon="78.521400411604787" lat="17.645536133988593">
        <ele>494.325</ele>
        <time>2024-09-25T11:14:24Z</time>
      </trkpt>
      <trkpt lon="78.521400240804027" lat="17.645534901482581">
        <ele>494.332</ele>
        <time>2024-09-25T11:14:24Z</time>
      </trkpt>
      <trkpt lon="78.521400069816977" lat="17.645533667054501">
        <ele>494.339</ele>
        <time>2024-09-25T11:14:24Z</time>
      </trkpt>
      <trkpt lon="78.521399898631159" lat="17.645532430694622">
        <ele>494.344</ele>
        <time>2024-09-25T11:14:24Z</time>
      </trkpt>
      <trkpt lon="78.521399727244074" lat="17.645531192462691">
        <ele>494.349</ele>
        <time>2024-09-25T11:14:24Z</time>
      </trkpt>
      <trkpt lon="78.52139955566085" lat="17.64552995246877">
        <ele>494.352</ele>
        <time>2024-09-25T11:14:24Z</time>
      </trkpt>
      <trkpt lon="78.521399383892131" lat="17.645528710857015">
        <ele>494.355</ele>
        <time>2024-09-25T11:14:24Z</time>
      </trkpt>
      <trkpt lon="78.521399211952399" lat="17.645527467792277">
        <ele>494.357</ele>
        <time>2024-09-25T11:14:24Z</time>
      </trkpt>
      <trkpt lon="78.521399039858522" lat="17.645526223449281">
        <ele>494.359</ele>
        <time>2024-09-25T11:14:24Z</time>
      </trkpt>
      <trkpt lon="78.521398818187777" lat="17.645524599520083">
        <ele>494.211</ele>
        <time>2024-09-25T11:14:25Z</time>
      </trkpt>
      <trkpt lon="78.521398603239163" lat="17.645523006379026">
        <ele>494.087</ele>
        <time>2024-09-25T11:14:25Z</time>
      </trkpt>
      <trkpt lon="78.521398394710445" lat="17.64552144498321">
        <ele>493.984</ele>
        <time>2024-09-25T11:14:25Z</time>
      </trkpt>
      <trkpt lon="78.521398192150841" lat="17.645519914951628">
        <ele>493.901</ele>
        <time>2024-09-25T11:14:25Z</time>
      </trkpt>
      <trkpt lon="78.521397995013217" lat="17.64551841490783">
        <ele>493.836</ele>
        <time>2024-09-25T11:14:25Z</time>
      </trkpt>
      <trkpt lon="78.521397802696882" lat="17.645516942772776">
        <ele>493.786</ele>
        <time>2024-09-25T11:14:25Z</time>
      </trkpt>
      <trkpt lon="78.521397614581545" lat="17.645515496010006">
        <ele>493.751</ele>
        <time>2024-09-25T11:14:25Z</time>
      </trkpt>
      <trkpt lon="78.521397430053739" lat="17.645514071826348">
        <ele>493.726</ele>
        <time>2024-09-25T11:14:25Z</time>
      </trkpt>
      <trkpt lon="78.521397248526426" lat="17.645512667332113">
        <ele>493.711</ele>
        <time>2024-09-25T11:14:25Z</time>
      </trkpt>
      <trkpt lon="78.521397069452902" lat="17.645511279665214">
        <ele>493.704</ele>
        <time>2024-09-25T11:14:25Z</time>
      </trkpt>
      <trkpt lon="78.521396892335815" lat="17.645509906083767">
        <ele>493.703</ele>
        <time>2024-09-25T11:14:25Z</time>
      </trkpt>
      <trkpt lon="78.521396716732326" lat="17.645508544031724">
        <ele>493.707</ele>
        <time>2024-09-25T11:14:25Z</time>
      </trkpt>
      <trkpt lon="78.521396542256028" lat="17.645507191181892">
        <ele>493.713</ele>
        <time>2024-09-25T11:14:25Z</time>
      </trkpt>
      <trkpt lon="78.521396368576518" lat="17.645505845460416">
        <ele>493.722</ele>
        <time>2024-09-25T11:14:25Z</time>
      </trkpt>
      <trkpt lon="78.521396195417054" lat="17.645504505056422">
        <ele>493.733</ele>
        <time>2024-09-25T11:14:25Z</time>
      </trkpt>
      <trkpt lon="78.521396022550945" lat="17.645503168420181">
        <ele>493.744</ele>
        <time>2024-09-25T11:14:25Z</time>
      </trkpt>
      <trkpt lon="78.521395849797145" lat="17.645501834252634">
        <ele>493.755</ele>
        <time>2024-09-25T11:14:25Z</time>
      </trkpt>
      <trkpt lon="78.521395677015249" lat="17.64550050148879">
        <ele>493.766</ele>
        <time>2024-09-25T11:14:25Z</time>
      </trkpt>
      <trkpt lon="78.52139550410044" lat="17.645499169277095">
        <ele>493.777</ele>
        <time>2024-09-25T11:14:25Z</time>
      </trkpt>
      <trkpt lon="78.52139533097828" lat="17.645497836956462">
        <ele>493.786</ele>
        <time>2024-09-25T11:14:25Z</time>
      </trkpt>
      <trkpt lon="78.521395157599869" lat="17.645496504032327">
        <ele>493.795</ele>
        <time>2024-09-25T11:14:25Z</time>
      </trkpt>
      <trkpt lon="78.521394983937256" lat="17.645495170152849">
        <ele>493.803</ele>
        <time>2024-09-25T11:14:25Z</time>
      </trkpt>
      <trkpt lon="78.521394809979213" lat="17.645493835085983">
        <ele>493.809</ele>
        <time>2024-09-25T11:14:25Z</time>
      </trkpt>
      <trkpt lon="78.521394635727574" lat="17.64549249869804">
        <ele>493.815</ele>
        <time>2024-09-25T11:14:25Z</time>
      </trkpt>
      <trkpt lon="78.521394461193893" lat="17.645491160934125">
        <ele>493.819</ele>
        <time>2024-09-25T11:14:25Z</time>
      </trkpt>
      <trkpt lon="78.521394286396685" lat="17.645489821800641">
        <ele>493.823</ele>
        <time>2024-09-25T11:14:25Z</time>
      </trkpt>
      <trkpt lon="78.521394111359044" lat="17.645488481349989">
        <ele>493.826</ele>
        <time>2024-09-25T11:14:25Z</time>
      </trkpt>
      <trkpt lon="78.521393936106747" lat="17.645487139667402">
        <ele>493.828</ele>
        <time>2024-09-25T11:14:25Z</time>
      </trkpt>
      <trkpt lon="78.521393760666669" lat="17.645485796859923">
        <ele>493.83</ele>
        <time>2024-09-25T11:14:25Z</time>
      </trkpt>
      <trkpt lon="78.521393517646359" lat="17.645484071941389">
        <ele>493.747</ele>
        <time>2024-09-25T11:14:26Z</time>
      </trkpt>
      <trkpt lon="78.52139326711638" lat="17.645482403463102">
        <ele>493.676</ele>
        <time>2024-09-25T11:14:26Z</time>
      </trkpt>
      <trkpt lon="78.521393011291181" lat="17.645480788359265">
        <ele>493.618</ele>
        <time>2024-09-25T11:14:26Z</time>
      </trkpt>
      <trkpt lon="78.521392752023971" lat="17.645479222465188">
        <ele>493.571</ele>
        <time>2024-09-25T11:14:26Z</time>
      </trkpt>
      <trkpt lon="78.521392490831246" lat="17.645477700932464">
        <ele>493.534</ele>
        <time>2024-09-25T11:14:26Z</time>
      </trkpt>
      <trkpt lon="78.521392228923034" lat="17.645476218565651">
        <ele>493.506</ele>
        <time>2024-09-25T11:14:26Z</time>
      </trkpt>
      <trkpt lon="78.52139196723634" lat="17.645474770088153">
        <ele>493.485</ele>
        <time>2024-09-25T11:14:26Z</time>
      </trkpt>
      <trkpt lon="78.521391706469771" lat="17.645473350345451">
        <ele>493.471</ele>
        <time>2024-09-25T11:14:26Z</time>
      </trkpt>
      <trkpt lon="78.52139144711802" lat="17.645471954454052">
        <ele>493.463</ele>
        <time>2024-09-25T11:14:26Z</time>
      </trkpt>
      <trkpt lon="78.52139118950484" lat="17.64547057790438">
        <ele>493.458</ele>
        <time>2024-09-25T11:14:26Z</time>
      </trkpt>
      <trkpt lon="78.521390933813919" lat="17.645469216625315">
        <ele>493.457</ele>
        <time>2024-09-25T11:14:26Z</time>
      </trkpt>
      <trkpt lon="78.521390680116951" lat="17.645467867017658">
        <ele>493.459</ele>
        <time>2024-09-25T11:14:26Z</time>
      </trkpt>
      <trkpt lon="78.521390428398746" lat="17.645466525962934">
        <ele>493.463</ele>
        <time>2024-09-25T11:14:26Z</time>
      </trkpt>
      <trkpt lon="78.521390178579125" lat="17.645465190813358">
        <ele>493.468</ele>
        <time>2024-09-25T11:14:26Z</time>
      </trkpt>
      <trkpt lon="78.521389930531697" lat="17.645463859367908">
        <ele>493.474</ele>
        <time>2024-09-25T11:14:26Z</time>
      </trkpt>
      <trkpt lon="78.521389684099674" lat="17.645462529838777">
        <ele>493.48</ele>
        <time>2024-09-25T11:14:26Z</time>
      </trkpt>
      <trkpt lon="78.521389439108745" lat="17.645461200811738">
        <ele>493.486</ele>
        <time>2024-09-25T11:14:26Z</time>
      </trkpt>
      <trkpt lon="78.521389195377452" lat="17.645459871203286">
        <ele>493.492</ele>
        <time>2024-09-25T11:14:26Z</time>
      </trkpt>
      <trkpt lon="78.521388952725275" lat="17.64545854021685">
        <ele>493.498</ele>
        <time>2024-09-25T11:14:26Z</time>
      </trkpt>
      <trkpt lon="78.52138871097867" lat="17.64545720729982">
        <ele>493.503</ele>
        <time>2024-09-25T11:14:26Z</time>
      </trkpt>
      <trkpt lon="78.521388469975349" lat="17.645455872102676">
        <ele>493.508</ele>
        <time>2024-09-25T11:14:26Z</time>
      </trkpt>
      <trkpt lon="78.521388229567179" lat="17.645454534441129">
        <ele>493.513</ele>
        <time>2024-09-25T11:14:26Z</time>
      </trkpt>
      <trkpt lon="78.521387989621815" lat="17.645453194261851">
        <ele>493.516</ele>
        <time>2024-09-25T11:14:26Z</time>
      </trkpt>
      <trkpt lon="78.521387750023422" lat="17.645451851612076">
        <ele>493.52</ele>
        <time>2024-09-25T11:14:26Z</time>
      </trkpt>
      <trkpt lon="78.521387510672639" lat="17.645450506613212">
        <ele>493.522</ele>
        <time>2024-09-25T11:14:26Z</time>
      </trkpt>
      <trkpt lon="78.521387271485949" lat="17.64544915943835">
        <ele>493.524</ele>
        <time>2024-09-25T11:14:26Z</time>
      </trkpt>
      <trkpt lon="78.521387032394728" lat="17.64544781029355">
        <ele>493.526</ele>
        <time>2024-09-25T11:14:26Z</time>
      </trkpt>
      <trkpt lon="78.521386793343893" lat="17.645446459402553">
        <ele>493.527</ele>
        <time>2024-09-25T11:14:26Z</time>
      </trkpt>
      <trkpt lon="78.521386554290558" lat="17.645445106994661">
        <ele>493.528</ele>
        <time>2024-09-25T11:14:26Z</time>
      </trkpt>
      <trkpt lon="78.521386255742442" lat="17.645443361608425">
        <ele>493.421</ele>
        <time>2024-09-25T11:14:27Z</time>
      </trkpt>
      <trkpt lon="78.521385974447796" lat="17.645441666170917">
        <ele>493.331</ele>
        <time>2024-09-25T11:14:27Z</time>
      </trkpt>
      <trkpt lon="78.521385708577213" lat="17.645440018842596">
        <ele>493.256</ele>
        <time>2024-09-25T11:14:27Z</time>
      </trkpt>
      <trkpt lon="78.521385456215953" lat="17.645438416565998">
        <ele>493.196</ele>
        <time>2024-09-25T11:14:27Z</time>
      </trkpt>
      <trkpt lon="78.521385215451531" lat="17.645436855471754">
        <ele>493.148</ele>
        <time>2024-09-25T11:14:27Z</time>
      </trkpt>
      <trkpt lon="78.521384984439507" lat="17.645435331212852">
        <ele>493.112</ele>
        <time>2024-09-25T11:14:27Z</time>
      </trkpt>
      <trkpt lon="78.521384761450861" lat="17.645433839233196">
        <ele>493.086</ele>
        <time>2024-09-25T11:14:27Z</time>
      </trkpt>
      <trkpt lon="78.521384544903555" lat="17.645432374977297">
        <ele>493.069</ele>
        <time>2024-09-25T11:14:27Z</time>
      </trkpt>
      <trkpt lon="78.52138433338132" lat="17.645430934048342">
        <ele>493.058</ele>
        <time>2024-09-25T11:14:27Z</time>
      </trkpt>
      <trkpt lon="78.521384125642044" lat="17.645429512321822">
        <ele>493.053</ele>
        <time>2024-09-25T11:14:27Z</time>
      </trkpt>
      <trkpt lon="78.52138392061805" lat="17.645428106021733">
        <ele>493.052</ele>
        <time>2024-09-25T11:14:27Z</time>
      </trkpt>
      <trkpt lon="78.521383717410174" lat="17.645426711765921">
        <ele>493.055</ele>
        <time>2024-09-25T11:14:27Z</time>
      </trkpt>
      <trkpt lon="78.521383515277535" lat="17.645425326586579">
        <ele>493.06</ele>
        <time>2024-09-25T11:14:27Z</time>
      </trkpt>
      <trkpt lon="78.521383313624341" lat="17.645423947931317">
        <ele>493.066</ele>
        <time>2024-09-25T11:14:27Z</time>
      </trkpt>
      <trkpt lon="78.521383111984804" lat="17.645422573649519">
        <ele>493.074</ele>
        <time>2024-09-25T11:14:27Z</time>
      </trkpt>
      <trkpt lon="78.521382910007304" lat="17.645421201968137">
        <ele>493.082</ele>
        <time>2024-09-25T11:14:27Z</time>
      </trkpt>
      <trkpt lon="78.521382707438562" lat="17.645419831460313">
        <ele>493.09</ele>
        <time>2024-09-25T11:14:27Z</time>
      </trkpt>
      <trkpt lon="78.521382504108175" lat="17.645418461009697">
        <ele>493.098</ele>
        <time>2024-09-25T11:14:27Z</time>
      </trkpt>
      <trkpt lon="78.521382299914123" lat="17.645417089772781">
        <ele>493.106</ele>
        <time>2024-09-25T11:14:27Z</time>
      </trkpt>
      <trkpt lon="78.521382094809525" lat="17.64541571714102">
        <ele>493.113</ele>
        <time>2024-09-25T11:14:27Z</time>
      </trkpt>
      <trkpt lon="78.521381888790643" lat="17.645414342704136">
        <ele>493.119</ele>
        <time>2024-09-25T11:14:27Z</time>
      </trkpt>
      <trkpt lon="78.521381681886425" lat="17.645412966215531">
        <ele>493.125</ele>
        <time>2024-09-25T11:14:27Z</time>
      </trkpt>
      <trkpt lon="78.521381474149422" lat="17.645411587560581">
        <ele>493.13</ele>
        <time>2024-09-25T11:14:27Z</time>
      </trkpt>
      <trkpt lon="78.521381265648188" lat="17.645410206728112">
        <ele>493.134</ele>
        <time>2024-09-25T11:14:27Z</time>
      </trkpt>
      <trkpt lon="78.521381056460925" lat="17.645408823785324">
        <ele>493.137</ele>
        <time>2024-09-25T11:14:27Z</time>
      </trkpt>
      <trkpt lon="78.521380846670411" lat="17.645407438856157">
        <ele>493.14</ele>
        <time>2024-09-25T11:14:27Z</time>
      </trkpt>
      <trkpt lon="78.521380636359993" lat="17.645406052103034">
        <ele>493.142</ele>
        <time>2024-09-25T11:14:27Z</time>
      </trkpt>
      <trkpt lon="78.521380425610587" lat="17.64540466371173">
        <ele>493.144</ele>
        <time>2024-09-25T11:14:27Z</time>
      </trkpt>
      <trkpt lon="78.521380214498393" lat="17.645403273879179">
        <ele>493.145</ele>
        <time>2024-09-25T11:14:27Z</time>
      </trkpt>
      <trkpt lon="78.52137993230329" lat="17.645401468175635">
        <ele>493.201</ele>
        <time>2024-09-25T11:14:28Z</time>
      </trkpt>
      <trkpt lon="78.521379649682459" lat="17.645399703695496">
        <ele>493.248</ele>
        <time>2024-09-25T11:14:28Z</time>
      </trkpt>
      <trkpt lon="78.52137936780413" lat="17.645397980308832">
        <ele>493.287</ele>
        <time>2024-09-25T11:14:28Z</time>
      </trkpt>
      <trkpt lon="78.521379087523172" lat="17.645396296490567">
        <ele>493.318</ele>
        <time>2024-09-25T11:14:28Z</time>
      </trkpt>
      <trkpt lon="78.521378809428498" lat="17.645394649716902">
        <ele>493.342</ele>
        <time>2024-09-25T11:14:28Z</time>
      </trkpt>
      <trkpt lon="78.521378533888125" lat="17.64539303679884">
        <ele>493.36</ele>
        <time>2024-09-25T11:14:28Z</time>
      </trkpt>
      <trkpt lon="78.521378261090746" lat="17.645391454156687">
        <ele>493.373</ele>
        <time>2024-09-25T11:14:28Z</time>
      </trkpt>
      <trkpt lon="78.521377991083369" lat="17.645389898040559">
        <ele>493.382</ele>
        <time>2024-09-25T11:14:28Z</time>
      </trkpt>
      <trkpt lon="78.52137772380452" lat="17.645388364702519">
        <ele>493.387</ele>
        <time>2024-09-25T11:14:28Z</time>
      </trkpt>
      <trkpt lon="78.521377459113083" lat="17.645386850526251">
        <ele>493.389</ele>
        <time>2024-09-25T11:14:28Z</time>
      </trkpt>
      <trkpt lon="78.52137719681285" lat="17.64538535212025">
        <ele>493.389</ele>
        <time>2024-09-25T11:14:28Z</time>
      </trkpt>
      <trkpt lon="78.521376936672851" lat="17.645383866380261">
        <ele>493.387</ele>
        <time>2024-09-25T11:14:28Z</time>
      </trkpt>
      <trkpt lon="78.521376678443957" lat="17.645382390526365">
        <ele>493.384</ele>
        <time>2024-09-25T11:14:28Z</time>
      </trkpt>
      <trkpt lon="78.521376421872034" lat="17.645380922119692">
        <ele>493.38</ele>
        <time>2024-09-25T11:14:28Z</time>
      </trkpt>
      <trkpt lon="78.52137616670791" lat="17.64537945906314">
        <ele>493.376</ele>
        <time>2024-09-25T11:14:28Z</time>
      </trkpt>
      <trkpt lon="78.521375912714916" lat="17.645377999590078">
        <ele>493.372</ele>
        <time>2024-09-25T11:14:28Z</time>
      </trkpt>
      <trkpt lon="78.52137565967395" lat="17.645376542244342">
        <ele>493.367</ele>
        <time>2024-09-25T11:14:28Z</time>
      </trkpt>
      <trkpt lon="78.52137540738677" lat="17.645375085854376">
        <ele>493.363</ele>
        <time>2024-09-25T11:14:28Z</time>
      </trkpt>
      <trkpt lon="78.521375155677802" lat="17.645373629503844">
        <ele>493.359</ele>
        <time>2024-09-25T11:14:28Z</time>
      </trkpt>
      <trkpt lon="78.521374904394577" lat="17.645372172500633">
        <ele>493.355</ele>
        <time>2024-09-25T11:14:28Z</time>
      </trkpt>
      <trkpt lon="78.521374653407392" lat="17.645370714345681">
        <ele>493.352</ele>
        <time>2024-09-25T11:14:28Z</time>
      </trkpt>
      <trkpt lon="78.521374402608188" lat="17.645369254702789">
        <ele>493.349</ele>
        <time>2024-09-25T11:14:28Z</time>
      </trkpt>
      <trkpt lon="78.521374151909001" lat="17.645367793370198">
        <ele>493.346</ele>
        <time>2024-09-25T11:14:28Z</time>
      </trkpt>
      <trkpt lon="78.521373901240025" lat="17.6453663302545">
        <ele>493.344</ele>
        <time>2024-09-25T11:14:28Z</time>
      </trkpt>
      <trkpt lon="78.521373650547602" lat="17.645364865347211">
        <ele>493.342</ele>
        <time>2024-09-25T11:14:28Z</time>
      </trkpt>
      <trkpt lon="78.521373399792083" lat="17.645363398704152">
        <ele>493.341</ele>
        <time>2024-09-25T11:14:28Z</time>
      </trkpt>
      <trkpt lon="78.521373148945798" lat="17.645361930427686">
        <ele>493.34</ele>
        <time>2024-09-25T11:14:28Z</time>
      </trkpt>
      <trkpt lon="78.521372897991" lat="17.645360460651698">
        <ele>493.339</ele>
        <time>2024-09-25T11:14:28Z</time>
      </trkpt>
      <trkpt lon="78.521372646918138" lat="17.6453589895292">
        <ele>493.338</ele>
        <time>2024-09-25T11:14:28Z</time>
      </trkpt>
      <trkpt lon="78.521372306299938" lat="17.645357083304646">
        <ele>493.282</ele>
        <time>2024-09-25T11:14:29Z</time>
      </trkpt>
      <trkpt lon="78.521371960993477" lat="17.645355225018154">
        <ele>493.234</ele>
        <time>2024-09-25T11:14:29Z</time>
      </trkpt>
      <trkpt lon="78.521371613089684" lat="17.645353413759828">
        <ele>493.194</ele>
        <time>2024-09-25T11:14:29Z</time>
      </trkpt>
      <trkpt lon="78.521371264254938" lat="17.645351647210536">
        <ele>493.163</ele>
        <time>2024-09-25T11:14:29Z</time>
      </trkpt>
      <trkpt lon="78.521370915777709" lat="17.645349922069375">
        <ele>493.138</ele>
        <time>2024-09-25T11:14:29Z</time>
      </trkpt>
      <trkpt lon="78.521370568616859" lat="17.645348234410008">
        <ele>493.119</ele>
        <time>2024-09-25T11:14:29Z</time>
      </trkpt>
      <trkpt lon="78.521370223449452" lat="17.645346579971005">
        <ele>493.106</ele>
        <time>2024-09-25T11:14:29Z</time>
      </trkpt>
      <trkpt lon="78.521369880716662" lat="17.645344954386307">
        <ele>493.097</ele>
        <time>2024-09-25T11:14:29Z</time>
      </trkpt>
      <trkpt lon="78.521369540666484" lat="17.645343353362641">
        <ele>493.092</ele>
        <time>2024-09-25T11:14:29Z</time>
      </trkpt>
      <trkpt lon="78.521369203392723" lat="17.645341772810688">
        <ele>493.089</ele>
        <time>2024-09-25T11:14:29Z</time>
      </trkpt>
      <trkpt lon="78.521368868869644" lat="17.64534020893689">
        <ele>493.089</ele>
        <time>2024-09-25T11:14:29Z</time>
      </trkpt>
      <trkpt lon="78.521368536982308" lat="17.645338658302389">
        <ele>493.091</ele>
        <time>2024-09-25T11:14:29Z</time>
      </trkpt>
      <trkpt lon="78.521368207552584" lat="17.645337117855139">
        <ele>493.094</ele>
        <time>2024-09-25T11:14:29Z</time>
      </trkpt>
      <trkpt lon="78.521367880360799" lat="17.645335584940657">
        <ele>493.098</ele>
        <time>2024-09-25T11:14:29Z</time>
      </trkpt>
      <trkpt lon="78.52136755516365" lat="17.645334057296349">
        <ele>493.102</ele>
        <time>2024-09-25T11:14:29Z</time>
      </trkpt>
      <trkpt lon="78.521367231708467" lat="17.645332533033613">
        <ele>493.106</ele>
        <time>2024-09-25T11:14:29Z</time>
      </trkpt>
      <trkpt lon="78.521366909744273" lat="17.645331010611351">
        <ele>493.111</ele>
        <time>2024-09-25T11:14:29Z</time>
      </trkpt>
      <trkpt lon="78.521366589030109" lat="17.645329488803938">
        <ele>493.115</ele>
        <time>2024-09-25T11:14:29Z</time>
      </trkpt>
      <trkpt lon="78.52136626934093" lat="17.645327966666127">
        <ele>493.119</ele>
        <time>2024-09-25T11:14:29Z</time>
      </trkpt>
      <trkpt lon="78.521365950471477" lat="17.645326443496856">
        <ele>493.123</ele>
        <time>2024-09-25T11:14:29Z</time>
      </trkpt>
      <trkpt lon="78.52136563223857" lat="17.645324918803468">
        <ele>493.126</ele>
        <time>2024-09-25T11:14:29Z</time>
      </trkpt>
      <trkpt lon="78.521365314482011" lat="17.645323392267525">
        <ele>493.129</ele>
        <time>2024-09-25T11:14:29Z</time>
      </trkpt>
      <trkpt lon="78.521364997064509" lat="17.645321863712972">
        <ele>493.132</ele>
        <time>2024-09-25T11:14:29Z</time>
      </trkpt>
      <trkpt lon="78.521364679870771" lat="17.645320333077205">
        <ele>493.134</ele>
        <time>2024-09-25T11:14:29Z</time>
      </trkpt>
      <trkpt lon="78.521364362806139" lat="17.645318800385308">
        <ele>493.136</ele>
        <time>2024-09-25T11:14:29Z</time>
      </trkpt>
      <trkpt lon="78.521364045794783" lat="17.645317265727591">
        <ele>493.137</ele>
        <time>2024-09-25T11:14:29Z</time>
      </trkpt>
      <trkpt lon="78.521363728777658" lat="17.645315729240409">
        <ele>493.138</ele>
        <time>2024-09-25T11:14:29Z</time>
      </trkpt>
      <trkpt lon="78.521363411710496" lat="17.645314191090083">
        <ele>493.139</ele>
        <time>2024-09-25T11:14:29Z</time>
      </trkpt>
      <trkpt lon="78.521363094561622" lat="17.645312651459747">
        <ele>493.14</ele>
        <time>2024-09-25T11:14:29Z</time>
      </trkpt>
      <trkpt lon="78.521362700058816" lat="17.645310670066561">
        <ele>493.06</ele>
        <time>2024-09-25T11:14:30Z</time>
      </trkpt>
      <trkpt lon="78.521362329764358" lat="17.645308750295282">
        <ele>492.993</ele>
        <time>2024-09-25T11:14:30Z</time>
      </trkpt>
      <trkpt lon="78.521361981027979" lat="17.645306889192224">
        <ele>492.938</ele>
        <time>2024-09-25T11:14:30Z</time>
      </trkpt>
      <trkpt lon="78.521361651103234" lat="17.645305082493369">
        <ele>492.893</ele>
        <time>2024-09-25T11:14:30Z</time>
      </trkpt>
      <trkpt lon="78.521361337266484" lat="17.645303325095025">
        <ele>492.858</ele>
        <time>2024-09-25T11:14:30Z</time>
      </trkpt>
      <trkpt lon="78.521361036905844" lat="17.645301611437798">
        <ele>492.832</ele>
        <time>2024-09-25T11:14:30Z</time>
      </trkpt>
      <trkpt lon="78.521360747584481" lat="17.645299935811838">
        <ele>492.812</ele>
        <time>2024-09-25T11:14:30Z</time>
      </trkpt>
      <trkpt lon="78.521360467082047" lat="17.645298292592177">
        <ele>492.799</ele>
        <time>2024-09-25T11:14:30Z</time>
      </trkpt>
      <trkpt lon="78.521360193418559" lat="17.645296676413199">
        <ele>492.791</ele>
        <time>2024-09-25T11:14:30Z</time>
      </trkpt>
      <trkpt lon="78.521359924863972" lat="17.645295082291121">
        <ele>492.787</ele>
        <time>2024-09-25T11:14:30Z</time>
      </trkpt>
      <trkpt lon="78.521359659936707" lat="17.645293505703066">
        <ele>492.787</ele>
        <time>2024-09-25T11:14:30Z</time>
      </trkpt>
      <trkpt lon="78.521359397393951" lat="17.645291942630688">
        <ele>492.789</ele>
        <time>2024-09-25T11:14:30Z</time>
      </trkpt>
      <trkpt lon="78.521359136216034" lat="17.645290389575504">
        <ele>492.793</ele>
        <time>2024-09-25T11:14:30Z</time>
      </trkpt>
      <trkpt lon="78.521358875586955" lat="17.645288843552422">
        <ele>492.797</ele>
        <time>2024-09-25T11:14:30Z</time>
      </trkpt>
      <trkpt lon="78.521358614872497" lat="17.645287302067008">
        <ele>492.803</ele>
        <time>2024-09-25T11:14:30Z</time>
      </trkpt>
      <trkpt lon="78.521358353597549" lat="17.645285763081333">
        <ele>492.809</ele>
        <time>2024-09-25T11:14:30Z</time>
      </trkpt>
      <trkpt lon="78.521358091423451" lat="17.645284224972364">
        <ele>492.815</ele>
        <time>2024-09-25T11:14:30Z</time>
      </trkpt>
      <trkpt lon="78.521357828126128" lat="17.645282686486183">
        <ele>492.821</ele>
        <time>2024-09-25T11:14:30Z</time>
      </trkpt>
      <trkpt lon="78.521357563575663" lat="17.645281146690664">
        <ele>492.827</ele>
        <time>2024-09-25T11:14:30Z</time>
      </trkpt>
      <trkpt lon="78.521357297717671" lat="17.645279604928632">
        <ele>492.832</ele>
        <time>2024-09-25T11:14:30Z</time>
      </trkpt>
      <trkpt lon="78.521357030556544" lat="17.645278060772998">
        <ele>492.837</ele>
        <time>2024-09-25T11:14:30Z</time>
      </trkpt>
      <trkpt lon="78.521356762140854" lat="17.645276513984935">
        <ele>492.841</ele>
        <time>2024-09-25T11:14:30Z</time>
      </trkpt>
      <trkpt lon="78.521356492550808" lat="17.645274964475835">
        <ele>492.844</ele>
        <time>2024-09-25T11:14:30Z</time>
      </trkpt>
      <trkpt lon="78.521356221887601" lat="17.645273412273404">
        <ele>492.847</ele>
        <time>2024-09-25T11:14:30Z</time>
      </trkpt>
      <trkpt lon="78.521355950264848" lat="17.645271857492066">
        <ele>492.85</ele>
        <time>2024-09-25T11:14:30Z</time>
      </trkpt>
      <trkpt lon="78.521355677801466" lat="17.645270300307637">
        <ele>492.852</ele>
        <time>2024-09-25T11:14:30Z</time>
      </trkpt>
      <trkpt lon="78.521355404616315" lat="17.645268740936103">
        <ele>492.854</ele>
        <time>2024-09-25T11:14:30Z</time>
      </trkpt>
      <trkpt lon="78.521355130824048" lat="17.645267179616241">
        <ele>492.855</ele>
        <time>2024-09-25T11:14:30Z</time>
      </trkpt>
      <trkpt lon="78.521354856532199" lat="17.645265616595701">
        <ele>492.856</ele>
        <time>2024-09-25T11:14:30Z</time>
      </trkpt>
      <trkpt lon="78.521354492321407" lat="17.645263620730816">
        <ele>492.811</ele>
        <time>2024-09-25T11:14:31Z</time>
      </trkpt>
      <trkpt lon="78.521354129610728" lat="17.645261700580537">
        <ele>492.773</ele>
        <time>2024-09-25T11:14:31Z</time>
      </trkpt>
      <trkpt lon="78.521353769560477" lat="17.645259850857848">
        <ele>492.741</ele>
        <time>2024-09-25T11:14:31Z</time>
      </trkpt>
      <trkpt lon="78.521353412952891" lat="17.645258065131426">
        <ele>492.716</ele>
        <time>2024-09-25T11:14:31Z</time>
      </trkpt>
      <trkpt lon="78.521353060258107" lat="17.645256336330725">
        <ele>492.696</ele>
        <time>2024-09-25T11:14:31Z</time>
      </trkpt>
      <trkpt lon="78.521352711694604" lat="17.645254657148872">
        <ele>492.68</ele>
        <time>2024-09-25T11:14:31Z</time>
      </trkpt>
      <trkpt lon="78.521352367283626" lat="17.64525302035462">
        <ele>492.669</ele>
        <time>2024-09-25T11:14:31Z</time>
      </trkpt>
      <trkpt lon="78.521352026896949" lat="17.645251419024863">
        <ele>492.662</ele>
        <time>2024-09-25T11:14:31Z</time>
      </trkpt>
      <trkpt lon="78.521351690298175" lat="17.645249846709209">
        <ele>492.657</ele>
        <time>2024-09-25T11:14:31Z</time>
      </trkpt>
      <trkpt lon="78.521351357177551" lat="17.645248297537623">
        <ele>492.655</ele>
        <time>2024-09-25T11:14:31Z</time>
      </trkpt>
      <trkpt lon="78.521351027180771" lat="17.645246766281407">
        <ele>492.654</ele>
        <time>2024-09-25T11:14:31Z</time>
      </trkpt>
      <trkpt lon="78.521350699932285" lat="17.645245248376906">
        <ele>492.655</ele>
        <time>2024-09-25T11:14:31Z</time>
      </trkpt>
      <trkpt lon="78.52135037505353" lat="17.645243739920275">
        <ele>492.657</ele>
        <time>2024-09-25T11:14:31Z</time>
      </trkpt>
      <trkpt lon="78.521350052176885" lat="17.64524223764062">
        <ele>492.66</ele>
        <time>2024-09-25T11:14:31Z</time>
      </trkpt>
      <trkpt lon="78.521349730955635" lat="17.645240738857762">
        <ele>492.663</ele>
        <time>2024-09-25T11:14:31Z</time>
      </trkpt>
      <trkpt lon="78.521349411070986" lat="17.645239241429906">
        <ele>492.666</ele>
        <time>2024-09-25T11:14:31Z</time>
      </trkpt>
      <trkpt lon="78.521349092236193" lat="17.645237743695475">
        <ele>492.67</ele>
        <time>2024-09-25T11:14:31Z</time>
      </trkpt>
      <trkpt lon="78.521348774198614" lat="17.645236244412594">
        <ele>492.673</ele>
        <time>2024-09-25T11:14:31Z</time>
      </trkpt>
      <trkpt lon="78.521348456740157" lat="17.6452347426989">
        <ele>492.676</ele>
        <time>2024-09-25T11:14:31Z</time>
      </trkpt>
      <trkpt lon="78.521348139676292" lat="17.64523323797366">
        <ele>492.679</ele>
        <time>2024-09-25T11:14:31Z</time>
      </trkpt>
      <trkpt lon="78.521347822854196" lat="17.645231729903706">
        <ele>492.682</ele>
        <time>2024-09-25T11:14:31Z</time>
      </trkpt>
      <trkpt lon="78.521347506150292" lat="17.645230218354051">
        <ele>492.684</ele>
        <time>2024-09-25T11:14:31Z</time>
      </trkpt>
      <trkpt lon="78.521347189467335" lat="17.645228703343779">
        <ele>492.686</ele>
        <time>2024-09-25T11:14:31Z</time>
      </trkpt>
      <trkpt lon="78.521346872731272" lat="17.645227185007464">
        <ele>492.688</ele>
        <time>2024-09-25T11:14:31Z</time>
      </trkpt>
      <trkpt lon="78.521346555888115" lat="17.645225663562062">
        <ele>492.689</ele>
        <time>2024-09-25T11:14:31Z</time>
      </trkpt>
      <trkpt lon="78.521346238900918" lat="17.64522413927909">
        <ele>492.69</ele>
        <time>2024-09-25T11:14:31Z</time>
      </trkpt>
      <trkpt lon="78.5213459217468" lat="17.645222612461772">
        <ele>492.691</ele>
        <time>2024-09-25T11:14:31Z</time>
      </trkpt>
      <trkpt lon="78.521345604414321" lat="17.645221083426691">
        <ele>492.692</ele>
        <time>2024-09-25T11:14:31Z</time>
      </trkpt>
      <trkpt lon="78.521345286901067" lat="17.645219552489518">
        <ele>492.692</ele>
        <time>2024-09-25T11:14:31Z</time>
      </trkpt>
      <trkpt lon="78.521344869206303" lat="17.64521758603663">
        <ele>492.827</ele>
        <time>2024-09-25T11:14:32Z</time>
      </trkpt>
      <trkpt lon="78.521344456586533" lat="17.645215683990653">
        <ele>492.94</ele>
        <time>2024-09-25T11:14:32Z</time>
      </trkpt>
      <trkpt lon="78.521344049758696" lat="17.645213842907044">
        <ele>493.034</ele>
        <time>2024-09-25T11:14:32Z</time>
      </trkpt>
      <trkpt lon="78.521343649062118" lat="17.645212058072083">
        <ele>493.109</ele>
        <time>2024-09-25T11:14:32Z</time>
      </trkpt>
      <trkpt lon="78.521343254539644" lat="17.645210323979047">
        <ele>493.168</ele>
        <time>2024-09-25T11:14:32Z</time>
      </trkpt>
      <trkpt lon="78.521342866009164" lat="17.645208634714649">
        <ele>493.212</ele>
        <time>2024-09-25T11:14:32Z</time>
      </trkpt>
      <trkpt lon="78.521342483125295" lat="17.645206984264515">
        <ele>493.244</ele>
        <time>2024-09-25T11:14:32Z</time>
      </trkpt>
      <trkpt lon="78.521342105431572" lat="17.645205366746939">
        <ele>493.265</ele>
        <time>2024-09-25T11:14:32Z</time>
      </trkpt>
      <trkpt lon="78.52134173240367" lat="17.645203776584477">
        <ele>493.278</ele>
        <time>2024-09-25T11:14:32Z</time>
      </trkpt>
      <trkpt lon="78.521341363484296" lat="17.645202208622749">
        <ele>493.284</ele>
        <time>2024-09-25T11:14:32Z</time>
      </trkpt>
      <trkpt lon="78.521340998110674" lat="17.64520065820529">
        <ele>493.285</ele>
        <time>2024-09-25T11:14:32Z</time>
      </trkpt>
      <trkpt lon="78.521340635735427" lat="17.645199121212702">
        <ele>493.281</ele>
        <time>2024-09-25T11:14:32Z</time>
      </trkpt>
      <trkpt lon="78.521340275841808" lat="17.645197594073473">
        <ele>493.274</ele>
        <time>2024-09-25T11:14:32Z</time>
      </trkpt>
      <trkpt lon="78.521339917954094" lat="17.645196073753148">
        <ele>493.266</ele>
        <time>2024-09-25T11:14:32Z</time>
      </trkpt>
      <trkpt lon="78.521339561644027" lat="17.645194557727496">
        <ele>493.256</ele>
        <time>2024-09-25T11:14:32Z</time>
      </trkpt>
      <trkpt lon="78.521339206533995" lat="17.645193043944563">
        <ele>493.245</ele>
        <time>2024-09-25T11:14:32Z</time>
      </trkpt>
      <trkpt lon="78.521338852297646" lat="17.645191530779659">
        <ele>493.235</ele>
        <time>2024-09-25T11:14:32Z</time>
      </trkpt>
      <trkpt lon="78.52133849865865" lat="17.645190016986614">
        <ele>493.225</ele>
        <time>2024-09-25T11:14:32Z</time>
      </trkpt>
      <trkpt lon="78.521338145387944" lat="17.645188501647855">
        <ele>493.215</ele>
        <time>2024-09-25T11:14:32Z</time>
      </trkpt>
      <trkpt lon="78.521337792300073" lat="17.645186984125385">
        <ele>493.206</ele>
        <time>2024-09-25T11:14:32Z</time>
      </trkpt>
      <trkpt lon="78.52133743924891" lat="17.645185464014109">
        <ele>493.198</ele>
        <time>2024-09-25T11:14:32Z</time>
      </trkpt>
      <trkpt lon="78.521337086122998" lat="17.645183941098562">
        <ele>493.191</ele>
        <time>2024-09-25T11:14:32Z</time>
      </trkpt>
      <trkpt lon="78.521336732840922" lat="17.645182415313716">
        <ele>493.185</ele>
        <time>2024-09-25T11:14:32Z</time>
      </trkpt>
      <trkpt lon="78.521336379346735" lat="17.645180886710204">
        <ele>493.18</ele>
        <time>2024-09-25T11:14:32Z</time>
      </trkpt>
      <trkpt lon="78.521336025605635" lat="17.64517935542408">
        <ele>493.176</ele>
        <time>2024-09-25T11:14:32Z</time>
      </trkpt>
      <trkpt lon="78.521335671599957" lat="17.645177821651064">
        <ele>493.173</ele>
        <time>2024-09-25T11:14:32Z</time>
      </trkpt>
      <trkpt lon="78.521335317325565" lat="17.645176285625066">
        <ele>493.17</ele>
        <time>2024-09-25T11:14:32Z</time>
      </trkpt>
      <trkpt lon="78.5213349627887" lat="17.645174747600656">
        <ele>493.168</ele>
        <time>2024-09-25T11:14:32Z</time>
      </trkpt>
      <trkpt lon="78.521334608003173" lat="17.645173207839132">
        <ele>493.166</ele>
        <time>2024-09-25T11:14:32Z</time>
      </trkpt>
      <trkpt lon="78.521334147458177" lat="17.645171205431549">
        <ele>493.126</ele>
        <time>2024-09-25T11:14:33Z</time>
      </trkpt>
      <trkpt lon="78.521333697779468" lat="17.64516924707522">
        <ele>493.093</ele>
        <time>2024-09-25T11:14:33Z</time>
      </trkpt>
      <trkpt lon="78.521333258862285" lat="17.645167332923734">
        <ele>493.065</ele>
        <time>2024-09-25T11:14:33Z</time>
      </trkpt>
      <trkpt lon="78.52133283025394" lat="17.645165461557674">
        <ele>493.044</ele>
        <time>2024-09-25T11:14:33Z</time>
      </trkpt>
      <trkpt lon="78.521332411255173" lat="17.645163630421173">
        <ele>493.027</ele>
        <time>2024-09-25T11:14:33Z</time>
      </trkpt>
      <trkpt lon="78.521332001005135" lat="17.645161836190443">
        <ele>493.014</ele>
        <time>2024-09-25T11:14:33Z</time>
      </trkpt>
      <trkpt lon="78.521331598551072" lat="17.645160075078259">
        <ele>493.005</ele>
        <time>2024-09-25T11:14:33Z</time>
      </trkpt>
      <trkpt lon="78.521331202904022" lat="17.645158343079572">
        <ele>492.999</ele>
        <time>2024-09-25T11:14:33Z</time>
      </trkpt>
      <trkpt lon="78.521330813082145" lat="17.645156636164238">
        <ele>492.996</ele>
        <time>2024-09-25T11:14:33Z</time>
      </trkpt>
      <trkpt lon="78.521330428142932" lat="17.645154950423148">
        <ele>492.995</ele>
        <time>2024-09-25T11:14:33Z</time>
      </trkpt>
      <trkpt lon="78.521330047206391" lat="17.645153282174196">
        <ele>492.995</ele>
        <time>2024-09-25T11:14:33Z</time>
      </trkpt>
      <trkpt lon="78.521329669470134" lat="17.645151628034267">
        <ele>492.996</ele>
        <time>2024-09-25T11:14:33Z</time>
      </trkpt>
      <trkpt lon="78.521329294218177" lat="17.645149984963119">
        <ele>492.999</ele>
        <time>2024-09-25T11:14:33Z</time>
      </trkpt>
      <trkpt lon="78.52132892082453" lat="17.645148350284572">
        <ele>493.001</ele>
        <time>2024-09-25T11:14:33Z</time>
      </trkpt>
      <trkpt lon="78.521328548752763" lat="17.645146721689805">
        <ele>493.004</ele>
        <time>2024-09-25T11:14:33Z</time>
      </trkpt>
      <trkpt lon="78.521328177552604" lat="17.645145097227115">
        <ele>493.008</ele>
        <time>2024-09-25T11:14:33Z</time>
      </trkpt>
      <trkpt lon="78.521327806854359" lat="17.645143475281767">
        <ele>493.011</ele>
        <time>2024-09-25T11:14:33Z</time>
      </trkpt>
      <trkpt lon="78.521327436361901" lat="17.645141854549131">
        <ele>493.014</ele>
        <time>2024-09-25T11:14:33Z</time>
      </trkpt>
      <trkpt lon="78.521327065844901" lat="17.645140234003637">
        <ele>493.017</ele>
        <time>2024-09-25T11:14:33Z</time>
      </trkpt>
      <trkpt lon="78.52132669513054" lat="17.645138612865697">
        <ele>493.02</ele>
        <time>2024-09-25T11:14:33Z</time>
      </trkpt>
      <trkpt lon="78.521326324095412" lat="17.645136990568218">
        <ele>493.022</ele>
        <time>2024-09-25T11:14:33Z</time>
      </trkpt>
      <trkpt lon="78.521325952657648" lat="17.645135366723988">
        <ele>493.024</ele>
        <time>2024-09-25T11:14:33Z</time>
      </trkpt>
      <trkpt lon="78.521325580769499" lat="17.645133741094835">
        <ele>493.026</ele>
        <time>2024-09-25T11:14:33Z</time>
      </trkpt>
      <trkpt lon="78.521325208410616" lat="17.645132113563218">
        <ele>493.028</ele>
        <time>2024-09-25T11:14:33Z</time>
      </trkpt>
      <trkpt lon="78.521324835582021" lat="17.645130484106591">
        <ele>493.029</ele>
        <time>2024-09-25T11:14:33Z</time>
      </trkpt>
      <trkpt lon="78.521324462300768" lat="17.645128852774821">
        <ele>493.03</ele>
        <time>2024-09-25T11:14:33Z</time>
      </trkpt>
      <trkpt lon="78.521324088595478" lat="17.64512721967062">
        <ele>493.031</ele>
        <time>2024-09-25T11:14:33Z</time>
      </trkpt>
      <trkpt lon="78.521323714502415" lat="17.645125584932966">
        <ele>493.031</ele>
        <time>2024-09-25T11:14:33Z</time>
      </trkpt>
      <trkpt lon="78.521323340062381" lat="17.645123948723352">
        <ele>493.032</ele>
        <time>2024-09-25T11:14:33Z</time>
      </trkpt>
      <trkpt lon="78.521322854170108" lat="17.645121846958343">
        <ele>492.98</ele>
        <time>2024-09-25T11:14:34Z</time>
      </trkpt>
      <trkpt lon="78.521322379880132" lat="17.645119813999941">
        <ele>492.936</ele>
        <time>2024-09-25T11:14:34Z</time>
      </trkpt>
      <trkpt lon="78.521321917066672" lat="17.645117846116186">
        <ele>492.9</ele>
        <time>2024-09-25T11:14:34Z</time>
      </trkpt>
      <trkpt lon="78.521321465236326" lat="17.645115938233896">
        <ele>492.871</ele>
        <time>2024-09-25T11:14:34Z</time>
      </trkpt>
      <trkpt lon="78.521321023635721" lat="17.645114084445034">
        <ele>492.849</ele>
        <time>2024-09-25T11:14:34Z</time>
      </trkpt>
      <trkpt lon="78.52132059134172" lat="17.645112278417422">
        <ele>492.831</ele>
        <time>2024-09-25T11:14:34Z</time>
      </trkpt>
      <trkpt lon="78.52132016733519" lat="17.645110513719054">
        <ele>492.819</ele>
        <time>2024-09-25T11:14:34Z</time>
      </trkpt>
      <trkpt lon="78.52131975056011" lat="17.645108784066064">
        <ele>492.81</ele>
        <time>2024-09-25T11:14:34Z</time>
      </trkpt>
      <trkpt lon="78.521319339969281" lat="17.645107083504488">
        <ele>492.805</ele>
        <time>2024-09-25T11:14:34Z</time>
      </trkpt>
      <trkpt lon="78.521318934558536" lat="17.645105406535816">
        <ele>492.803</ele>
        <time>2024-09-25T11:14:34Z</time>
      </trkpt>
      <trkpt lon="78.521318533391039" lat="17.645103748195826">
        <ele>492.802</ele>
        <time>2024-09-25T11:14:34Z</time>
      </trkpt>
      <trkpt lon="78.521318135613171" lat="17.645102104095457">
        <ele>492.804</ele>
        <time>2024-09-25T11:14:34Z</time>
      </trkpt>
      <trkpt lon="78.521317740463815" lat="17.645100470431636">
        <ele>492.806</ele>
        <time>2024-09-25T11:14:34Z</time>
      </trkpt>
      <trkpt lon="78.521317347277886" lat="17.645098843975102">
        <ele>492.809</ele>
        <time>2024-09-25T11:14:34Z</time>
      </trkpt>
      <trkpt lon="78.521316955485872" lat="17.645097222041276">
        <ele>492.813</ele>
        <time>2024-09-25T11:14:34Z</time>
      </trkpt>
      <trkpt lon="78.521316564610061" lat="17.645095602449416">
        <ele>492.817</ele>
        <time>2024-09-25T11:14:34Z</time>
      </trkpt>
      <trkpt lon="78.521316174258487" lat="17.645093983474315">
        <ele>492.821</ele>
        <time>2024-09-25T11:14:34Z</time>
      </trkpt>
      <trkpt lon="78.521315784117519" lat="17.645092363794056">
        <ele>492.825</ele>
        <time>2024-09-25T11:14:34Z</time>
      </trkpt>
      <trkpt lon="78.521315393943411" lat="17.645090742436654">
        <ele>492.828</ele>
        <time>2024-09-25T11:14:34Z</time>
      </trkpt>
      <trkpt lon="78.521315003553568" lat="17.645089118727658">
        <ele>492.832</ele>
        <time>2024-09-25T11:14:34Z</time>
      </trkpt>
      <trkpt lon="78.521314612817832" lat="17.645087492240318">
        <ele>492.835</ele>
        <time>2024-09-25T11:14:34Z</time>
      </trkpt>
      <trkpt lon="78.521314221650115" lat="17.64508586274944">
        <ele>492.837</ele>
        <time>2024-09-25T11:14:34Z</time>
      </trkpt>
      <trkpt lon="78.521313830000537" lat="17.645084230189575">
        <ele>492.84</ele>
        <time>2024-09-25T11:14:34Z</time>
      </trkpt>
      <trkpt lon="78.521313437848193" lat="17.645082594617971">
        <ele>492.842</ele>
        <time>2024-09-25T11:14:34Z</time>
      </trkpt>
      <trkpt lon="78.521313045194816" lat="17.645080956182372">
        <ele>492.843</ele>
        <time>2024-09-25T11:14:34Z</time>
      </trkpt>
      <trkpt lon="78.521312652059109" lat="17.645079315093621">
        <ele>492.844</ele>
        <time>2024-09-25T11:14:34Z</time>
      </trkpt>
      <trkpt lon="78.521312258471909" lat="17.645077671602795">
        <ele>492.846</ele>
        <time>2024-09-25T11:14:34Z</time>
      </trkpt>
      <trkpt lon="78.521311864472153" lat="17.645076025982579">
        <ele>492.846</ele>
        <time>2024-09-25T11:14:34Z</time>
      </trkpt>
      <trkpt lon="78.521311470103512" lat="17.645074378512479">
        <ele>492.847</ele>
        <time>2024-09-25T11:14:34Z</time>
      </trkpt>
      <trkpt lon="78.521311010520733" lat="17.645072352575223">
        <ele>492.758</ele>
        <time>2024-09-25T11:14:35Z</time>
      </trkpt>
      <trkpt lon="78.521310607123922" lat="17.645070471968378">
        <ele>492.684</ele>
        <time>2024-09-25T11:14:35Z</time>
      </trkpt>
      <trkpt lon="78.521310252068147" lat="17.645068719630725">
        <ele>492.622</ele>
        <time>2024-09-25T11:14:35Z</time>
      </trkpt>
      <trkpt lon="78.521309937760947" lat="17.645067078246587">
        <ele>492.572</ele>
        <time>2024-09-25T11:14:35Z</time>
      </trkpt>
      <trkpt lon="78.521309657063824" lat="17.645065530909832">
        <ele>492.534</ele>
        <time>2024-09-25T11:14:35Z</time>
      </trkpt>
      <trkpt lon="78.521309403428432" lat="17.645064061610178">
        <ele>492.504</ele>
        <time>2024-09-25T11:14:35Z</time>
      </trkpt>
      <trkpt lon="78.521309170978697" lat="17.645062655568676">
        <ele>492.483</ele>
        <time>2024-09-25T11:14:35Z</time>
      </trkpt>
      <trkpt lon="78.521308954549397" lat="17.645061299447828">
        <ele>492.468</ele>
        <time>2024-09-25T11:14:35Z</time>
      </trkpt>
      <trkpt lon="78.521308749690533" lat="17.64505998145993">
        <ele>492.459</ele>
        <time>2024-09-25T11:14:35Z</time>
      </trkpt>
      <trkpt lon="78.521308552645763" lat="17.645058691394897">
        <ele>492.455</ele>
        <time>2024-09-25T11:14:35Z</time>
      </trkpt>
      <trkpt lon="78.521308360312162" lat="17.645057420586486">
        <ele>492.455</ele>
        <time>2024-09-25T11:14:35Z</time>
      </trkpt>
      <trkpt lon="78.521308170187055" lat="17.645056161833175">
        <ele>492.457</ele>
        <time>2024-09-25T11:14:35Z</time>
      </trkpt>
      <trkpt lon="78.521307980307213" lat="17.645054909287683">
        <ele>492.461</ele>
        <time>2024-09-25T11:14:35Z</time>
      </trkpt>
      <trkpt lon="78.521307789184178" lat="17.645053658326656">
        <ele>492.466</ele>
        <time>2024-09-25T11:14:35Z</time>
      </trkpt>
      <trkpt lon="78.521307595739131" lat="17.645052405409906">
        <ele>492.473</ele>
        <time>2024-09-25T11:14:35Z</time>
      </trkpt>
      <trkpt lon="78.521307399239475" lat="17.645051147936702">
        <ele>492.48</ele>
        <time>2024-09-25T11:14:35Z</time>
      </trkpt>
      <trkpt lon="78.521307199239033" lat="17.645049884104814">
        <ele>492.486</ele>
        <time>2024-09-25T11:14:35Z</time>
      </trkpt>
      <trkpt lon="78.521306995523062" lat="17.645048612776527">
        <ele>492.493</ele>
        <time>2024-09-25T11:14:35Z</time>
      </trkpt>
      <trkpt lon="78.521306788058723" lat="17.645047333354555">
        <ele>492.499</ele>
        <time>2024-09-25T11:14:35Z</time>
      </trkpt>
      <trkpt lon="78.521306576951417" lat="17.645046045669737">
        <ele>492.505</ele>
        <time>2024-09-25T11:14:35Z</time>
      </trkpt>
      <trkpt lon="78.521306362407159" lat="17.645044749881524">
        <ele>492.51</ele>
        <time>2024-09-25T11:14:35Z</time>
      </trkpt>
      <trkpt lon="78.52130614470056" lat="17.645043446391533">
        <ele>492.515</ele>
        <time>2024-09-25T11:14:35Z</time>
      </trkpt>
      <trkpt lon="78.521305924148479" lat="17.645042135769977">
        <ele>492.519</ele>
        <time>2024-09-25T11:14:35Z</time>
      </trkpt>
      <trkpt lon="78.521305701088579" lat="17.645040818694373">
        <ele>492.522</ele>
        <time>2024-09-25T11:14:35Z</time>
      </trkpt>
      <trkpt lon="78.521305475862505" lat="17.645039495899582">
        <ele>492.525</ele>
        <time>2024-09-25T11:14:35Z</time>
      </trkpt>
      <trkpt lon="78.521305248803017" lat="17.645038168138182">
        <ele>492.527</ele>
        <time>2024-09-25T11:14:35Z</time>
      </trkpt>
      <trkpt lon="78.521305020224617" lat="17.645036836149956">
        <ele>492.529</ele>
        <time>2024-09-25T11:14:35Z</time>
      </trkpt>
      <trkpt lon="78.521304790417133" lat="17.645035500639359">
        <ele>492.53</ele>
        <time>2024-09-25T11:14:35Z</time>
      </trkpt>
      <trkpt lon="78.52130455964172" lat="17.645034162259751">
        <ele>492.531</ele>
        <time>2024-09-25T11:14:35Z</time>
      </trkpt>
      <trkpt lon="78.521304268762506" lat="17.645032387030174">
        <ele>492.717</ele>
        <time>2024-09-25T11:14:36Z</time>
      </trkpt>
      <trkpt lon="78.521303992207265" lat="17.645030620719918">
        <ele>492.874</ele>
        <time>2024-09-25T11:14:36Z</time>
      </trkpt>
      <trkpt lon="78.521303728714742" lat="17.64502886874962">
        <ele>493.003</ele>
        <time>2024-09-25T11:14:36Z</time>
      </trkpt>
      <trkpt lon="78.521303476880547" lat="17.645027134707419">
        <ele>493.107</ele>
        <time>2024-09-25T11:14:36Z</time>
      </trkpt>
      <trkpt lon="78.521303235241135" lat="17.645025420675488">
        <ele>493.188</ele>
        <time>2024-09-25T11:14:36Z</time>
      </trkpt>
      <trkpt lon="78.521303002339195" lat="17.645023727528468">
        <ele>493.249</ele>
        <time>2024-09-25T11:14:36Z</time>
      </trkpt>
      <trkpt lon="78.521302776772771" lat="17.645022055200361">
        <ele>493.293</ele>
        <time>2024-09-25T11:14:36Z</time>
      </trkpt>
      <trkpt lon="78.521302557230271" lat="17.645020402918398">
        <ele>493.323</ele>
        <time>2024-09-25T11:14:36Z</time>
      </trkpt>
      <trkpt lon="78.521302342513806" lat="17.645018769403872">
        <ele>493.34</ele>
        <time>2024-09-25T11:14:36Z</time>
      </trkpt>
      <trkpt lon="78.521302131552758" lat="17.645017153041096">
        <ele>493.348</ele>
        <time>2024-09-25T11:14:36Z</time>
      </trkpt>
      <trkpt lon="78.521301923409681" lat="17.645015552016474">
        <ele>493.349</ele>
        <time>2024-09-25T11:14:36Z</time>
      </trkpt>
      <trkpt lon="78.521301717280025" lat="17.645013964430216">
        <ele>493.344</ele>
        <time>2024-09-25T11:14:36Z</time>
      </trkpt>
      <trkpt lon="78.521301512487412" lat="17.645012388383531">
        <ele>493.335</ele>
        <time>2024-09-25T11:14:36Z</time>
      </trkpt>
      <trkpt lon="78.521301308475515" lat="17.645010822044313">
        <ele>493.323</ele>
        <time>2024-09-25T11:14:36Z</time>
      </trkpt>
      <trkpt lon="78.521301104797885" lat="17.645009263694373">
        <ele>493.309</ele>
        <time>2024-09-25T11:14:36Z</time>
      </trkpt>
      <trkpt lon="78.521300901106358" lat="17.645007711761043">
        <ele>493.294</ele>
        <time>2024-09-25T11:14:36Z</time>
      </trkpt>
      <trkpt lon="78.521300697138955" lat="17.645006164835983">
        <ele>493.28</ele>
        <time>2024-09-25T11:14:36Z</time>
      </trkpt>
      <trkpt lon="78.52130049270778" lat="17.645004621683633">
        <ele>493.266</ele>
        <time>2024-09-25T11:14:36Z</time>
      </trkpt>
      <trkpt lon="78.521300287687296" lat="17.645003081241587">
        <ele>493.253</ele>
        <time>2024-09-25T11:14:36Z</time>
      </trkpt>
      <trkpt lon="78.52130008200335" lat="17.645001542614857">
        <ele>493.24</ele>
        <time>2024-09-25T11:14:36Z</time>
      </trkpt>
      <trkpt lon="78.521299875623086" lat="17.645000005065743">
        <ele>493.229</ele>
        <time>2024-09-25T11:14:36Z</time>
      </trkpt>
      <trkpt lon="78.521299668545893" lat="17.64499846800074">
        <ele>493.22</ele>
        <time>2024-09-25T11:14:36Z</time>
      </trkpt>
      <trkpt lon="78.521299460795547" lat="17.644996930955628">
        <ele>493.211</ele>
        <time>2024-09-25T11:14:36Z</time>
      </trkpt>
      <trkpt lon="78.521299252413328" lat="17.644995393579791">
        <ele>493.204</ele>
        <time>2024-09-25T11:14:36Z</time>
      </trkpt>
      <trkpt lon="78.521299043452302" lat="17.644993855620406">
        <ele>493.198</ele>
        <time>2024-09-25T11:14:36Z</time>
      </trkpt>
      <trkpt lon="78.521298833972565" lat="17.644992316907167">
        <ele>493.194</ele>
        <time>2024-09-25T11:14:36Z</time>
      </trkpt>
      <trkpt lon="78.52129862403747" lat="17.644990777337863">
        <ele>493.19</ele>
        <time>2024-09-25T11:14:36Z</time>
      </trkpt>
      <trkpt lon="78.521298413710554" lat="17.644989236865189">
        <ele>493.187</ele>
        <time>2024-09-25T11:14:36Z</time>
      </trkpt>
      <trkpt lon="78.521298203053306" lat="17.644987695484854">
        <ele>493.185</ele>
        <time>2024-09-25T11:14:36Z</time>
      </trkpt>
      <trkpt lon="78.521297946521955" lat="17.644985753017114">
        <ele>493.109</ele>
        <time>2024-09-25T11:14:37Z</time>
      </trkpt>
      <trkpt lon="78.521297710708367" lat="17.644983907033474">
        <ele>493.045</ele>
        <time>2024-09-25T11:14:37Z</time>
      </trkpt>
      <trkpt lon="78.521297493064083" lat="17.644982148412982">
        <ele>492.992</ele>
        <time>2024-09-25T11:14:37Z</time>
      </trkpt>
      <trkpt lon="78.521297291036959" lat="17.644980467246079">
        <ele>492.95</ele>
        <time>2024-09-25T11:14:37Z</time>
      </trkpt>
      <trkpt lon="78.521297102160844" lat="17.644978853372898">
        <ele>492.918</ele>
        <time>2024-09-25T11:14:37Z</time>
      </trkpt>
      <trkpt lon="78.521296924119966" lat="17.644977296797734">
        <ele>492.893</ele>
        <time>2024-09-25T11:14:37Z</time>
      </trkpt>
      <trkpt lon="78.52129675479236" lat="17.644975787995758">
        <ele>492.876</ele>
        <time>2024-09-25T11:14:37Z</time>
      </trkpt>
      <trkpt lon="78.521296592275846" lat="17.644974318127893">
        <ele>492.864</ele>
        <time>2024-09-25T11:14:37Z</time>
      </trkpt>
      <trkpt lon="78.521296434900023" lat="17.644972879178962">
        <ele>492.858</ele>
        <time>2024-09-25T11:14:37Z</time>
      </trkpt>
      <trkpt lon="78.521296281227151" lat="17.644971464033208">
        <ele>492.855</ele>
        <time>2024-09-25T11:14:37Z</time>
      </trkpt>
      <trkpt lon="78.52129613004486" lat="17.644970066500012">
        <ele>492.855</ele>
        <time>2024-09-25T11:14:37Z</time>
      </trkpt>
      <trkpt lon="78.521295980352747" lat="17.644968681301116">
        <ele>492.858</ele>
        <time>2024-09-25T11:14:37Z</time>
      </trkpt>
      <trkpt lon="78.521295831344929" lat="17.644967304029333">
        <ele>492.862</ele>
        <time>2024-09-25T11:14:37Z</time>
      </trkpt>
      <trkpt lon="78.521295682390146" lat="17.64496593108715">
        <ele>492.867</ele>
        <time>2024-09-25T11:14:37Z</time>
      </trkpt>
      <trkpt lon="78.521295533010729" lat="17.644964559612347">
        <ele>492.873</ele>
        <time>2024-09-25T11:14:37Z</time>
      </trkpt>
      <trkpt lon="78.521295382861354" lat="17.644963187396378">
        <ele>492.879</ele>
        <time>2024-09-25T11:14:37Z</time>
      </trkpt>
      <trkpt lon="78.521295231708422" lat="17.64496181280014">
        <ele>492.885</ele>
        <time>2024-09-25T11:14:37Z</time>
      </trkpt>
      <trkpt lon="78.521295079410706" lat="17.644960434670732">
        <ele>492.891</ele>
        <time>2024-09-25T11:14:37Z</time>
      </trkpt>
      <trkpt lon="78.521294925901515" lat="17.644959052261765">
        <ele>492.897</ele>
        <time>2024-09-25T11:14:37Z</time>
      </trkpt>
      <trkpt lon="78.521294771172634" lat="17.644957665159232">
        <ele>492.902</ele>
        <time>2024-09-25T11:14:37Z</time>
      </trkpt>
      <trkpt lon="78.521294615260246" lat="17.644956273214049">
        <ele>492.907</ele>
        <time>2024-09-25T11:14:37Z</time>
      </trkpt>
      <trkpt lon="78.521294458232717" lat="17.644954876482018">
        <ele>492.91</ele>
        <time>2024-09-25T11:14:37Z</time>
      </trkpt>
      <trkpt lon="78.521294300180315" lat="17.644953475171441">
        <ele>492.914</ele>
        <time>2024-09-25T11:14:37Z</time>
      </trkpt>
      <trkpt lon="78.521294141206653" lat="17.644952069598354">
        <ele>492.917</ele>
        <time>2024-09-25T11:14:37Z</time>
      </trkpt>
      <trkpt lon="78.521293981421877" lat="17.644950660149018">
        <ele>492.919</ele>
        <time>2024-09-25T11:14:37Z</time>
      </trkpt>
      <trkpt lon="78.521293820937146" lat="17.644949247249219">
        <ele>492.921</ele>
        <time>2024-09-25T11:14:37Z</time>
      </trkpt>
      <trkpt lon="78.521293659860589" lat="17.644947831339756">
        <ele>492.923</ele>
        <time>2024-09-25T11:14:37Z</time>
      </trkpt>
      <trkpt lon="78.521293498294256" lat="17.644946412857436">
        <ele>492.924</ele>
        <time>2024-09-25T11:14:37Z</time>
      </trkpt>
      <trkpt lon="78.521293336332079" lat="17.644944992220879">
        <ele>492.925</ele>
        <time>2024-09-25T11:14:37Z</time>
      </trkpt>
      <trkpt lon="78.521293064221467" lat="17.644943101069554">
        <ele>492.986</ele>
        <time>2024-09-25T11:14:38Z</time>
      </trkpt>
      <trkpt lon="78.521292744914277" lat="17.644941213694295">
        <ele>493.038</ele>
        <time>2024-09-25T11:14:38Z</time>
      </trkpt>
      <trkpt lon="78.521292387539745" lat="17.644939336761027">
        <ele>493.08</ele>
        <time>2024-09-25T11:14:38Z</time>
      </trkpt>
      <trkpt lon="78.521292000301671" lat="17.644937474931986">
        <ele>493.114</ele>
        <time>2024-09-25T11:14:38Z</time>
      </trkpt>
      <trkpt lon="78.521291590421356" lat="17.64493563119709">
        <ele>493.141</ele>
        <time>2024-09-25T11:14:38Z</time>
      </trkpt>
      <trkpt lon="78.521291164128655" lat="17.64493380718179">
        <ele>493.161</ele>
        <time>2024-09-25T11:14:38Z</time>
      </trkpt>
      <trkpt lon="78.521290726689742" lat="17.644932003426533">
        <ele>493.175</ele>
        <time>2024-09-25T11:14:38Z</time>
      </trkpt>
      <trkpt lon="78.521290282461393" lat="17.644930219635111">
        <ele>493.185</ele>
        <time>2024-09-25T11:14:38Z</time>
      </trkpt>
      <trkpt lon="78.521289834963653" lat="17.644928454890902">
        <ele>493.191</ele>
        <time>2024-09-25T11:14:38Z</time>
      </trkpt>
      <trkpt lon="78.521289386963488" lat="17.64492670784146">
        <ele>493.193</ele>
        <time>2024-09-25T11:14:38Z</time>
      </trkpt>
      <trkpt lon="78.521288940564162" lat="17.644924976852771">
        <ele>493.193</ele>
        <time>2024-09-25T11:14:38Z</time>
      </trkpt>
      <trkpt lon="78.521288497295529" lat="17.644923260135304">
        <ele>493.191</ele>
        <time>2024-09-25T11:14:38Z</time>
      </trkpt>
      <trkpt lon="78.521288058202089" lat="17.644921555844466">
        <ele>493.188</ele>
        <time>2024-09-25T11:14:38Z</time>
      </trkpt>
      <trkpt lon="78.521287623926227" lat="17.644919862158211">
        <ele>493.184</ele>
        <time>2024-09-25T11:14:38Z</time>
      </trkpt>
      <trkpt lon="78.521287194784847" lat="17.644918177334759">
        <ele>493.179</ele>
        <time>2024-09-25T11:14:38Z</time>
      </trkpt>
      <trkpt lon="78.521286770838557" lat="17.644916499753332">
        <ele>493.174</ele>
        <time>2024-09-25T11:14:38Z</time>
      </trkpt>
      <trkpt lon="78.521286351952583" lat="17.644914827940664">
        <ele>493.17</ele>
        <time>2024-09-25T11:14:38Z</time>
      </trkpt>
      <trkpt lon="78.521285937849598" lat="17.644913160585826">
        <ele>493.165</ele>
        <time>2024-09-25T11:14:38Z</time>
      </trkpt>
      <trkpt lon="78.521285528154465" lat="17.644911496545813">
        <ele>493.16</ele>
        <time>2024-09-25T11:14:38Z</time>
      </trkpt>
      <trkpt lon="78.521285122431294" lat="17.64490983484389">
        <ele>493.156</ele>
        <time>2024-09-25T11:14:38Z</time>
      </trkpt>
      <trkpt lon="78.521284720213572" lat="17.644908174662575">
        <ele>493.153</ele>
        <time>2024-09-25T11:14:38Z</time>
      </trkpt>
      <trkpt lon="78.521284321027906" lat="17.644906515332835">
        <ele>493.15</ele>
        <time>2024-09-25T11:14:38Z</time>
      </trkpt>
      <trkpt lon="78.521283924412117" lat="17.644904856320757">
        <ele>493.147</ele>
        <time>2024-09-25T11:14:38Z</time>
      </trkpt>
      <trkpt lon="78.521283529928567" lat="17.644903197212845">
        <ele>493.144</ele>
        <time>2024-09-25T11:14:38Z</time>
      </trkpt>
      <trkpt lon="78.521283137173327" lat="17.644901537700726">
        <ele>493.143</ele>
        <time>2024-09-25T11:14:38Z</time>
      </trkpt>
      <trkpt lon="78.521282745781861" lat="17.644899877565983">
        <ele>493.141</ele>
        <time>2024-09-25T11:14:38Z</time>
      </trkpt>
      <trkpt lon="78.521282355432021" lat="17.644898216665588">
        <ele>493.14</ele>
        <time>2024-09-25T11:14:38Z</time>
      </trkpt>
      <trkpt lon="78.521281965844793" lat="17.644896554918319">
        <ele>493.139</ele>
        <time>2024-09-25T11:14:38Z</time>
      </trkpt>
      <trkpt lon="78.52128157678338" lat="17.644894892292356">
        <ele>493.138</ele>
        <time>2024-09-25T11:14:38Z</time>
      </trkpt>
      <trkpt lon="78.521281050684323" lat="17.644892729704679">
        <ele>493.018</ele>
        <time>2024-09-25T11:14:39Z</time>
      </trkpt>
      <trkpt lon="78.521280518830693" lat="17.644890614440477">
        <ele>492.916</ele>
        <time>2024-09-25T11:14:39Z</time>
      </trkpt>
      <trkpt lon="78.521279984127446" lat="17.644888546608613">
        <ele>492.833</ele>
        <time>2024-09-25T11:14:39Z</time>
      </trkpt>
      <trkpt lon="78.521279448863339" lat="17.644886524643859">
        <ele>492.766</ele>
        <time>2024-09-25T11:14:39Z</time>
      </trkpt>
      <trkpt lon="78.521278914783139" lat="17.644884545773415">
        <ele>492.713</ele>
        <time>2024-09-25T11:14:39Z</time>
      </trkpt>
      <trkpt lon="78.52127838316099" lat="17.644882606410469">
        <ele>492.674</ele>
        <time>2024-09-25T11:14:39Z</time>
      </trkpt>
      <trkpt lon="78.521277854871983" lat="17.644880702479178">
        <ele>492.645</ele>
        <time>2024-09-25T11:14:39Z</time>
      </trkpt>
      <trkpt lon="78.521277330460023" lat="17.644878829676593">
        <ele>492.626</ele>
        <time>2024-09-25T11:14:39Z</time>
      </trkpt>
      <trkpt lon="78.521276810200447" lat="17.644876983678014">
        <ele>492.615</ele>
        <time>2024-09-25T11:14:39Z</time>
      </trkpt>
      <trkpt lon="78.521276294156635" lat="17.64487516029255">
        <ele>492.61</ele>
        <time>2024-09-25T11:14:39Z</time>
      </trkpt>
      <trkpt lon="78.521275782229921" lat="17.644873355575694">
        <ele>492.609</ele>
        <time>2024-09-25T11:14:39Z</time>
      </trkpt>
      <trkpt lon="78.521275274202964" lat="17.644871565905685">
        <ele>492.613</ele>
        <time>2024-09-25T11:14:39Z</time>
      </trkpt>
      <trkpt lon="78.521274769776497" lat="17.644869788029819">
        <ele>492.619</ele>
        <time>2024-09-25T11:14:39Z</time>
      </trkpt>
      <trkpt lon="78.521274268599896" lat="17.644868019086552">
        <ele>492.626</ele>
        <time>2024-09-25T11:14:39Z</time>
      </trkpt>
      <trkpt lon="78.521273770295963" lat="17.644866256608591">
        <ele>492.635</ele>
        <time>2024-09-25T11:14:39Z</time>
      </trkpt>
      <trkpt lon="78.521273274480606" lat="17.64486449851152">
        <ele>492.645</ele>
        <time>2024-09-25T11:14:39Z</time>
      </trkpt>
      <trkpt lon="78.521272780777878" lat="17.644862743071929">
        <ele>492.654</ele>
        <time>2024-09-25T11:14:39Z</time>
      </trkpt>
      <trkpt lon="78.521272288831" lat="17.64486098889839">
        <ele>492.663</ele>
        <time>2024-09-25T11:14:39Z</time>
      </trkpt>
      <trkpt lon="78.521271798310039" lat="17.644859234898057">
        <ele>492.672</ele>
        <time>2024-09-25T11:14:39Z</time>
      </trkpt>
      <trkpt lon="78.521271308916781" lat="17.644857480241111">
        <ele>492.68</ele>
        <time>2024-09-25T11:14:39Z</time>
      </trkpt>
      <trkpt lon="78.521270820387272" lat="17.644855724324824">
        <ele>492.687</ele>
        <time>2024-09-25T11:14:39Z</time>
      </trkpt>
      <trkpt lon="78.52127033249252" lat="17.644853966738587">
        <ele>492.693</ele>
        <time>2024-09-25T11:14:39Z</time>
      </trkpt>
      <trkpt lon="78.521269845037878" lat="17.644852207230869">
        <ele>492.698</ele>
        <time>2024-09-25T11:14:39Z</time>
      </trkpt>
      <trkpt lon="78.521269357861328" lat="17.644850445678799">
        <ele>492.703</ele>
        <time>2024-09-25T11:14:39Z</time>
      </trkpt>
      <trkpt lon="78.521268870831079" lat="17.64484868206074">
        <ele>492.707</ele>
        <time>2024-09-25T11:14:39Z</time>
      </trkpt>
      <trkpt lon="78.521268383842724" lat="17.644846916432147">
        <ele>492.71</ele>
        <time>2024-09-25T11:14:39Z</time>
      </trkpt>
      <trkpt lon="78.52126789681607" lat="17.644845148904643">
        <ele>492.712</ele>
        <time>2024-09-25T11:14:39Z</time>
      </trkpt>
      <trkpt lon="78.521267409692015" lat="17.644843379628316">
        <ele>492.714</ele>
        <time>2024-09-25T11:14:39Z</time>
      </trkpt>
      <trkpt lon="78.52126692242939" lat="17.644841608777035">
        <ele>492.715</ele>
        <time>2024-09-25T11:14:39Z</time>
      </trkpt>
      <trkpt lon="78.5212663390232" lat="17.644839393816977">
        <ele>492.545</ele>
        <time>2024-09-25T11:14:40Z</time>
      </trkpt>
      <trkpt lon="78.521265811922063" lat="17.644837303658925">
        <ele>492.401</ele>
        <time>2024-09-25T11:14:40Z</time>
      </trkpt>
      <trkpt lon="78.521265333704505" lat="17.644835325434777">
        <ele>492.283</ele>
        <time>2024-09-25T11:14:40Z</time>
      </trkpt>
      <trkpt lon="78.521264897078439" lat="17.644833445556998">
        <ele>492.187</ele>
        <time>2024-09-25T11:14:40Z</time>
      </trkpt>
      <trkpt lon="78.521264495102542" lat="17.644831650367628">
        <ele>492.112</ele>
        <time>2024-09-25T11:14:40Z</time>
      </trkpt>
      <trkpt lon="78.521264121340948" lat="17.644829926629921">
        <ele>492.055</ele>
        <time>2024-09-25T11:14:40Z</time>
      </trkpt>
      <trkpt lon="78.521263769962346" lat="17.644828261884385">
        <ele>492.014</ele>
        <time>2024-09-25T11:14:40Z</time>
      </trkpt>
      <trkpt lon="78.521263435793699" lat="17.644826644690109">
        <ele>491.986</ele>
        <time>2024-09-25T11:14:40Z</time>
      </trkpt>
      <trkpt lon="78.521263114337799" lat="17.64482506477135">
        <ele>491.969</ele>
        <time>2024-09-25T11:14:40Z</time>
      </trkpt>
      <trkpt lon="78.521262801763029" lat="17.644823513087552">
        <ele>491.961</ele>
        <time>2024-09-25T11:14:40Z</time>
      </trkpt>
      <trkpt lon="78.521262494872673" lat="17.644821981843226">
        <ele>491.959</ele>
        <time>2024-09-25T11:14:40Z</time>
      </trkpt>
      <trkpt lon="78.521262191059591" lat="17.644820464452174">
        <ele>491.964</ele>
        <time>2024-09-25T11:14:40Z</time>
      </trkpt>
      <trkpt lon="78.521261888251573" lat="17.644818955468505">
        <ele>491.971</ele>
        <time>2024-09-25T11:14:40Z</time>
      </trkpt>
      <trkpt lon="78.521261584851658" lat="17.64481745049504">
        <ele>491.982</ele>
        <time>2024-09-25T11:14:40Z</time>
      </trkpt>
      <trkpt lon="78.521261279676594" lat="17.644815946077845">
        <ele>491.994</ele>
        <time>2024-09-25T11:14:40Z</time>
      </trkpt>
      <trkpt lon="78.521260971896083" lat="17.644814439593976">
        <ele>492.007</ele>
        <time>2024-09-25T11:14:40Z</time>
      </trkpt>
      <trkpt lon="78.521260660974718" lat="17.644812929137991">
        <ele>492.02</ele>
        <time>2024-09-25T11:14:40Z</time>
      </trkpt>
      <trkpt lon="78.521260346617979" lat="17.644811413411482">
        <ele>492.033</ele>
        <time>2024-09-25T11:14:40Z</time>
      </trkpt>
      <trkpt lon="78.521260028723134" lat="17.644809891618731">
        <ele>492.045</ele>
        <time>2024-09-25T11:14:40Z</time>
      </trkpt>
      <trkpt lon="78.521259707335659" lat="17.644808363370586">
        <ele>492.056</ele>
        <time>2024-09-25T11:14:40Z</time>
      </trkpt>
      <trkpt lon="78.521259382611092" lat="17.64480682859789">
        <ele>492.066</ele>
        <time>2024-09-25T11:14:40Z</time>
      </trkpt>
      <trkpt lon="78.52125905478259" lat="17.644805287475098">
        <ele>492.075</ele>
        <time>2024-09-25T11:14:40Z</time>
      </trkpt>
      <trkpt lon="78.521258724133716" lat="17.644803740354259">
        <ele>492.083</ele>
        <time>2024-09-25T11:14:40Z</time>
      </trkpt>
      <trkpt lon="78.521258390976172" lat="17.644802187709054">
        <ele>492.089</ele>
        <time>2024-09-25T11:14:40Z</time>
      </trkpt>
      <trkpt lon="78.521258055632032" lat="17.644800630088405">
        <ele>492.094</ele>
        <time>2024-09-25T11:14:40Z</time>
      </trkpt>
      <trkpt lon="78.521257718420031" lat="17.644799068078893">
        <ele>492.099</ele>
        <time>2024-09-25T11:14:40Z</time>
      </trkpt>
      <trkpt lon="78.521257379645277" lat="17.644797502275111">
        <ele>492.102</ele>
        <time>2024-09-25T11:14:40Z</time>
      </trkpt>
      <trkpt lon="78.521257039592101" lat="17.644795933257043">
        <ele>492.105</ele>
        <time>2024-09-25T11:14:40Z</time>
      </trkpt>
      <trkpt lon="78.521256698519167" lat="17.644794361573521">
        <ele>492.107</ele>
        <time>2024-09-25T11:14:40Z</time>
      </trkpt>
      <trkpt lon="78.521256259835411" lat="17.644792355498673">
        <ele>492.043</ele>
        <time>2024-09-25T11:14:41Z</time>
      </trkpt>
      <trkpt lon="78.52125583494923" lat="17.644790426192163">
        <ele>491.989</ele>
        <time>2024-09-25T11:14:41Z</time>
      </trkpt>
      <trkpt lon="78.521255423249826" lat="17.644788568321363">
        <ele>491.945</ele>
        <time>2024-09-25T11:14:41Z</time>
      </trkpt>
      <trkpt lon="78.521255023818782" lat="17.644786775385558">
        <ele>491.908</ele>
        <time>2024-09-25T11:14:41Z</time>
      </trkpt>
      <trkpt lon="78.521254635537773" lat="17.644785040229284">
        <ele>491.88</ele>
        <time>2024-09-25T11:14:41Z</time>
      </trkpt>
      <trkpt lon="78.52125425717648" lat="17.644783355452013">
        <ele>491.858</ele>
        <time>2024-09-25T11:14:41Z</time>
      </trkpt>
      <trkpt lon="78.521253887463018" lat="17.644781713725497">
        <ele>491.842</ele>
        <time>2024-09-25T11:14:41Z</time>
      </trkpt>
      <trkpt lon="78.521253525138277" lat="17.644780108030478">
        <ele>491.831</ele>
        <time>2024-09-25T11:14:41Z</time>
      </trkpt>
      <trkpt lon="78.521253168996509" lat="17.644778531824389">
        <ele>491.824</ele>
        <time>2024-09-25T11:14:41Z</time>
      </trkpt>
      <trkpt lon="78.521252817914089" lat="17.644776979151228">
        <ele>491.821</ele>
        <time>2024-09-25T11:14:41Z</time>
      </trkpt>
      <trkpt lon="78.521252470868305" lat="17.644775444703978">
        <ele>491.82</ele>
        <time>2024-09-25T11:14:41Z</time>
      </trkpt>
      <trkpt lon="78.521252126948013" lat="17.644773923849172">
        <ele>491.821</ele>
        <time>2024-09-25T11:14:41Z</time>
      </trkpt>
      <trkpt lon="78.521251785357848" lat="17.644772412621972">
        <ele>491.824</ele>
        <time>2024-09-25T11:14:41Z</time>
      </trkpt>
      <trkpt lon="78.521251445417306" lat="17.644770907699268">
        <ele>491.828</ele>
        <time>2024-09-25T11:14:41Z</time>
      </trkpt>
      <trkpt lon="78.521251106556164" lat="17.644769406357099">
        <ele>491.832</ele>
        <time>2024-09-25T11:14:41Z</time>
      </trkpt>
      <trkpt lon="78.52125076830707" lat="17.644767906417744">
        <ele>491.837</ele>
        <time>2024-09-25T11:14:41Z</time>
      </trkpt>
      <trkpt lon="78.521250430296462" lat="17.644766406190893">
        <ele>491.841</ele>
        <time>2024-09-25T11:14:41Z</time>
      </trkpt>
      <trkpt lon="78.521250092234482" lat="17.644764904412344">
        <ele>491.846</ele>
        <time>2024-09-25T11:14:41Z</time>
      </trkpt>
      <trkpt lon="78.521249753904385" lat="17.644763400183013">
        <ele>491.85</ele>
        <time>2024-09-25T11:14:41Z</time>
      </trkpt>
      <trkpt lon="78.521249415152141" lat="17.644761892910275">
        <ele>491.854</ele>
        <time>2024-09-25T11:14:41Z</time>
      </trkpt>
      <trkpt lon="78.521249075876256" lat="17.644760382253082">
        <ele>491.858</ele>
        <time>2024-09-25T11:14:41Z</time>
      </trkpt>
      <trkpt lon="78.521248736018421" lat="17.644758868071893">
        <ele>491.861</ele>
        <time>2024-09-25T11:14:41Z</time>
      </trkpt>
      <trkpt lon="78.521248395554906" lat="17.644757350383905">
        <ele>491.864</ele>
        <time>2024-09-25T11:14:41Z</time>
      </trkpt>
      <trkpt lon="78.521248054488851" lat="17.644755829323874">
        <ele>491.867</ele>
        <time>2024-09-25T11:14:41Z</time>
      </trkpt>
      <trkpt lon="78.521247712843532" lat="17.644754305110474">
        <ele>491.869</ele>
        <time>2024-09-25T11:14:41Z</time>
      </trkpt>
      <trkpt lon="78.521247370656639" lat="17.644752778018077">
        <ele>491.87</ele>
        <time>2024-09-25T11:14:41Z</time>
      </trkpt>
      <trkpt lon="78.521247027975377" lat="17.644751248353476">
        <ele>491.872</ele>
        <time>2024-09-25T11:14:41Z</time>
      </trkpt>
      <trkpt lon="78.5212466848525" lat="17.644749716437278">
        <ele>491.873</ele>
        <time>2024-09-25T11:14:41Z</time>
      </trkpt>
      <trkpt lon="78.521246341343115" lat="17.644748182589353">
        <ele>491.873</ele>
        <time>2024-09-25T11:14:41Z</time>
      </trkpt>
      <trkpt lon="78.521245943379526" lat="17.644746268914776">
        <ele>491.832</ele>
        <time>2024-09-25T11:14:42Z</time>
      </trkpt>
      <trkpt lon="78.521245596348834" lat="17.64474446741993">
        <ele>491.796</ele>
        <time>2024-09-25T11:14:42Z</time>
      </trkpt>
      <trkpt lon="78.521245293073051" lat="17.644742766295224">
        <ele>491.767</ele>
        <time>2024-09-25T11:14:42Z</time>
      </trkpt>
      <trkpt lon="78.52124502662177" lat="17.644741153152651">
        <ele>491.743</ele>
        <time>2024-09-25T11:14:42Z</time>
      </trkpt>
      <trkpt lon="78.521244790491821" lat="17.644739615598404">
        <ele>491.725</ele>
        <time>2024-09-25T11:14:42Z</time>
      </trkpt>
      <trkpt lon="78.521244578728016" lat="17.644738141664728">
        <ele>491.711</ele>
        <time>2024-09-25T11:14:42Z</time>
      </trkpt>
      <trkpt lon="78.521244385995004" lat="17.644736720120669">
        <ele>491.7</ele>
        <time>2024-09-25T11:14:42Z</time>
      </trkpt>
      <trkpt lon="78.52124420761001" lat="17.644735340680707">
        <ele>491.693</ele>
        <time>2024-09-25T11:14:42Z</time>
      </trkpt>
      <trkpt lon="78.521244039544783" lat="17.644733994129233">
        <ele>491.689</ele>
        <time>2024-09-25T11:14:42Z</time>
      </trkpt>
      <trkpt lon="78.521243878404377" lat="17.644732672377192">
        <ele>491.687</ele>
        <time>2024-09-25T11:14:42Z</time>
      </trkpt>
      <trkpt lon="78.521243721389141" lat="17.644731368465663">
        <ele>491.687</ele>
        <time>2024-09-25T11:14:42Z</time>
      </trkpt>
      <trkpt lon="78.52124356624536" lat="17.644730076529321">
        <ele>491.687</ele>
        <time>2024-09-25T11:14:42Z</time>
      </trkpt>
      <trkpt lon="78.521243411209184" lat="17.644728791730909">
        <ele>491.689</ele>
        <time>2024-09-25T11:14:42Z</time>
      </trkpt>
      <trkpt lon="78.521243254947265" lat="17.644727510176132">
        <ele>491.692</ele>
        <time>2024-09-25T11:14:42Z</time>
      </trkpt>
      <trkpt lon="78.521243096497059" lat="17.644726228816761">
        <ele>491.695</ele>
        <time>2024-09-25T11:14:42Z</time>
      </trkpt>
      <trkpt lon="78.521242935208988" lat="17.644724945348209">
        <ele>491.698</ele>
        <time>2024-09-25T11:14:42Z</time>
      </trkpt>
      <trkpt lon="78.521242770691913" lat="17.644723658106489">
        <ele>491.701</ele>
        <time>2024-09-25T11:14:42Z</time>
      </trkpt>
      <trkpt lon="78.521242602763195" lat="17.644722365968303">
        <ele>491.704</ele>
        <time>2024-09-25T11:14:42Z</time>
      </trkpt>
      <trkpt lon="78.521242431403579" lat="17.644721068256942">
        <ele>491.707</ele>
        <time>2024-09-25T11:14:42Z</time>
      </trkpt>
      <trkpt lon="78.521242256717741" lat="17.644719764655839">
        <ele>491.71</ele>
        <time>2024-09-25T11:14:42Z</time>
      </trkpt>
      <trkpt lon="78.521242078900073" lat="17.64471845513091">
        <ele>491.712</ele>
        <time>2024-09-25T11:14:42Z</time>
      </trkpt>
      <trkpt lon="78.521241898205901" lat="17.644717139862188">
        <ele>491.714</ele>
        <time>2024-09-25T11:14:42Z</time>
      </trkpt>
      <trkpt lon="78.521241714927569" lat="17.64471581918486">
        <ele>491.716</ele>
        <time>2024-09-25T11:14:42Z</time>
      </trkpt>
      <trkpt lon="78.521241529375217" lat="17.644714493539439">
        <ele>491.718</ele>
        <time>2024-09-25T11:14:42Z</time>
      </trkpt>
      <trkpt lon="78.521241341861611" lat="17.644713163430517">
        <ele>491.719</ele>
        <time>2024-09-25T11:14:42Z</time>
      </trkpt>
      <trkpt lon="78.521241152690607" lat="17.644711829393479">
        <ele>491.72</ele>
        <time>2024-09-25T11:14:42Z</time>
      </trkpt>
      <trkpt lon="78.521240962148838" lat="17.644710491968329">
        <ele>491.721</ele>
        <time>2024-09-25T11:14:42Z</time>
      </trkpt>
      <trkpt lon="78.521240770499958" lat="17.644709151679795">
        <ele>491.722</ele>
        <time>2024-09-25T11:14:42Z</time>
      </trkpt>
      <trkpt lon="78.521240577981189" lat="17.644707809022869">
        <ele>491.722</ele>
        <time>2024-09-25T11:14:42Z</time>
      </trkpt>
      <trkpt lon="78.52124026737971" lat="17.644706041678194">
        <ele>491.818</ele>
        <time>2024-09-25T11:14:43Z</time>
      </trkpt>
      <trkpt lon="78.521239911467362" lat="17.644704294754554">
        <ele>491.898</ele>
        <time>2024-09-25T11:14:43Z</time>
      </trkpt>
      <trkpt lon="78.521239519242712" lat="17.644702571626379">
        <ele>491.965</ele>
        <time>2024-09-25T11:14:43Z</time>
      </trkpt>
      <trkpt lon="78.521239098750129" lat="17.644700874010972">
        <ele>492.018</ele>
        <time>2024-09-25T11:14:43Z</time>
      </trkpt>
      <trkpt lon="78.521238657035298" lat="17.644699202316836">
        <ele>492.06</ele>
        <time>2024-09-25T11:14:43Z</time>
      </trkpt>
      <trkpt lon="78.521238200146414" lat="17.644697555951677">
        <ele>492.091</ele>
        <time>2024-09-25T11:14:43Z</time>
      </trkpt>
      <trkpt lon="78.521237733169656" lat="17.644695933589368">
        <ele>492.114</ele>
        <time>2024-09-25T11:14:43Z</time>
      </trkpt>
      <trkpt lon="78.521237260289411" lat="17.644694333396668">
        <ele>492.129</ele>
        <time>2024-09-25T11:14:43Z</time>
      </trkpt>
      <trkpt lon="78.521236784864968" lat="17.644692753221708">
        <ele>492.138</ele>
        <time>2024-09-25T11:14:43Z</time>
      </trkpt>
      <trkpt lon="78.521236309516965" lat="17.644691190747182">
        <ele>492.142</ele>
        <time>2024-09-25T11:14:43Z</time>
      </trkpt>
      <trkpt lon="78.521235836218224" lat="17.64468964361156">
        <ele>492.142</ele>
        <time>2024-09-25T11:14:43Z</time>
      </trkpt>
      <trkpt lon="78.521235366384715" lat="17.644688109501963">
        <ele>492.14</ele>
        <time>2024-09-25T11:14:43Z</time>
      </trkpt>
      <trkpt lon="78.521234900963478" lat="17.644686586222544">
        <ele>492.135</ele>
        <time>2024-09-25T11:14:43Z</time>
      </trkpt>
      <trkpt lon="78.521234440515187" lat="17.6446850717419">
        <ele>492.129</ele>
        <time>2024-09-25T11:14:43Z</time>
      </trkpt>
      <trkpt lon="78.521233985289754" lat="17.644683564223168">
        <ele>492.122</ele>
        <time>2024-09-25T11:14:43Z</time>
      </trkpt>
      <trkpt lon="78.521233535294201" lat="17.644682062039905">
        <ele>492.114</ele>
        <time>2024-09-25T11:14:43Z</time>
      </trkpt>
      <trkpt lon="78.521233090352197" lat="17.644680563780778">
        <ele>492.107</ele>
        <time>2024-09-25T11:14:43Z</time>
      </trkpt>
      <trkpt lon="78.521232650155284" lat="17.644679068245622">
        <ele>492.1</ele>
        <time>2024-09-25T11:14:43Z</time>
      </trkpt>
      <trkpt lon="78.521232214306181" lat="17.644677574435136">
        <ele>492.093</ele>
        <time>2024-09-25T11:14:43Z</time>
      </trkpt>
      <trkpt lon="78.52123178235442" lat="17.644676081536133">
        <ele>492.087</ele>
        <time>2024-09-25T11:14:43Z</time>
      </trkpt>
      <trkpt lon="78.521231353825044" lat="17.64467458890396">
        <ele>492.081</ele>
        <time>2024-09-25T11:14:43Z</time>
      </trkpt>
      <trkpt lon="78.521230928241209" lat="17.644673096043405">
        <ele>492.076</ele>
        <time>2024-09-25T11:14:43Z</time>
      </trkpt>
      <trkpt lon="78.521230505141148" lat="17.644671602589103">
        <ele>492.072</ele>
        <time>2024-09-25T11:14:43Z</time>
      </trkpt>
      <trkpt lon="78.52123008409049" lat="17.644670108286252">
        <ele>492.068</ele>
        <time>2024-09-25T11:14:43Z</time>
      </trkpt>
      <trkpt lon="78.521229664690679" lat="17.644668612972257">
        <ele>492.065</ele>
        <time>2024-09-25T11:14:43Z</time>
      </trkpt>
      <trkpt lon="78.5212292465839" lat="17.644667116559653">
        <ele>492.063</ele>
        <time>2024-09-25T11:14:43Z</time>
      </trkpt>
      <trkpt lon="78.521228829455552" lat="17.644665619020671">
        <ele>492.061</ele>
        <time>2024-09-25T11:14:43Z</time>
      </trkpt>
      <trkpt lon="78.521228413034478" lat="17.644664120373491">
        <ele>492.059</ele>
        <time>2024-09-25T11:14:43Z</time>
      </trkpt>
      <trkpt lon="78.521227997091728" lat="17.644662620670314">
        <ele>492.058</ele>
        <time>2024-09-25T11:14:43Z</time>
      </trkpt>
      <trkpt lon="78.521227443415953" lat="17.644660682230359">
        <ele>492.035</ele>
        <time>2024-09-25T11:14:44Z</time>
      </trkpt>
      <trkpt lon="78.521226890985062" lat="17.644658796772088">
        <ele>492.016</ele>
        <time>2024-09-25T11:14:44Z</time>
      </trkpt>
      <trkpt lon="78.521226341614437" lat="17.644656962612963">
        <ele>492.001</ele>
        <time>2024-09-25T11:14:44Z</time>
      </trkpt>
      <trkpt lon="78.521225796566284" lat="17.64465517670309">
        <ele>491.988</ele>
        <time>2024-09-25T11:14:44Z</time>
      </trkpt>
      <trkpt lon="78.521225256641927" lat="17.644653435067767">
        <ele>491.979</ele>
        <time>2024-09-25T11:14:44Z</time>
      </trkpt>
      <trkpt lon="78.52122472226749" lat="17.644651733173188">
        <ele>491.971</ele>
        <time>2024-09-25T11:14:44Z</time>
      </trkpt>
      <trkpt lon="78.521224193571442" lat="17.644650066221541">
        <ele>491.966</ele>
        <time>2024-09-25T11:14:44Z</time>
      </trkpt>
      <trkpt lon="78.521223670453423" lat="17.644648429382627">
        <ele>491.963</ele>
        <time>2024-09-25T11:14:44Z</time>
      </trkpt>
      <trkpt lon="78.521223152644069" lat="17.644646817969587">
        <ele>491.961</ele>
        <time>2024-09-25T11:14:44Z</time>
      </trkpt>
      <trkpt lon="78.521222639755948" lat="17.644645227566368">
        <ele>491.961</ele>
        <time>2024-09-25T11:14:44Z</time>
      </trkpt>
      <trkpt lon="78.521222131326098" lat="17.644643654114436">
        <ele>491.961</ele>
        <time>2024-09-25T11:14:44Z</time>
      </trkpt>
      <trkpt lon="78.521221626850718" lat="17.644642093965704">
        <ele>491.962</ele>
        <time>2024-09-25T11:14:44Z</time>
      </trkpt>
      <trkpt lon="78.521221125812701" lat="17.644640543908178">
        <ele>491.963</ele>
        <time>2024-09-25T11:14:44Z</time>
      </trkpt>
      <trkpt lon="78.521220627702846" lat="17.644639001170148">
        <ele>491.965</ele>
        <time>2024-09-25T11:14:44Z</time>
      </trkpt>
      <trkpt lon="78.521220132035609" lat="17.644637463408063">
        <ele>491.966</ele>
        <time>2024-09-25T11:14:44Z</time>
      </trkpt>
      <trkpt lon="78.521219638360179" lat="17.644635928682497">
        <ele>491.968</ele>
        <time>2024-09-25T11:14:44Z</time>
      </trkpt>
      <trkpt lon="78.521219146267555" lat="17.644634395426035">
        <ele>491.97</ele>
        <time>2024-09-25T11:14:44Z</time>
      </trkpt>
      <trkpt lon="78.521218655394435" lat="17.644632862406112">
        <ele>491.972</ele>
        <time>2024-09-25T11:14:44Z</time>
      </trkpt>
      <trkpt lon="78.521218165424614" lat="17.644631328685382">
        <ele>491.974</ele>
        <time>2024-09-25T11:14:44Z</time>
      </trkpt>
      <trkpt lon="78.521217676088355" lat="17.644629793581604">
        <ele>491.975</ele>
        <time>2024-09-25T11:14:44Z</time>
      </trkpt>
      <trkpt lon="78.521217187160332" lat="17.644628256628522">
        <ele>491.977</ele>
        <time>2024-09-25T11:14:44Z</time>
      </trkpt>
      <trkpt lon="78.521216698456513" lat="17.644626717538895">
        <ele>491.978</ele>
        <time>2024-09-25T11:14:44Z</time>
      </trkpt>
      <trkpt lon="78.521216209830371" lat="17.644625176170386">
        <ele>491.979</ele>
        <time>2024-09-25T11:14:44Z</time>
      </trkpt>
      <trkpt lon="78.521215721168787" lat="17.644623632494852">
        <ele>491.98</ele>
        <time>2024-09-25T11:14:44Z</time>
      </trkpt>
      <trkpt lon="78.521215232387675" lat="17.644622086571196">
        <ele>491.98</ele>
        <time>2024-09-25T11:14:44Z</time>
      </trkpt>
      <trkpt lon="78.521214743427848" lat="17.644620538521895">
        <ele>491.981</ele>
        <time>2024-09-25T11:14:44Z</time>
      </trkpt>
      <trkpt lon="78.521214254250864" lat="17.644618988513091">
        <ele>491.981</ele>
        <time>2024-09-25T11:14:44Z</time>
      </trkpt>
      <trkpt lon="78.521213764835295" lat="17.644617436738084">
        <ele>491.982</ele>
        <time>2024-09-25T11:14:44Z</time>
      </trkpt>
      <trkpt lon="78.521213275173267" lat="17.644615883403919">
        <ele>491.982</ele>
        <time>2024-09-25T11:14:44Z</time>
      </trkpt>
      <trkpt lon="78.521212659137262" lat="17.644613929074627">
        <ele>491.951</ele>
        <time>2024-09-25T11:14:45Z</time>
      </trkpt>
      <trkpt lon="78.521212074598225" lat="17.644612074570478">
        <ele>491.924</ele>
        <time>2024-09-25T11:14:45Z</time>
      </trkpt>
      <trkpt lon="78.521211518509219" lat="17.644610310313375">
        <ele>491.903</ele>
        <time>2024-09-25T11:14:45Z</time>
      </trkpt>
      <trkpt lon="78.521210987585391" lat="17.644608625948997">
        <ele>491.885</ele>
        <time>2024-09-25T11:14:45Z</time>
      </trkpt>
      <trkpt lon="78.521210478476604" lat="17.644607010897509">
        <ele>491.871</ele>
        <time>2024-09-25T11:14:45Z</time>
      </trkpt>
      <trkpt lon="78.521209987899837" lat="17.644605454776492">
        <ele>491.861</ele>
        <time>2024-09-25T11:14:45Z</time>
      </trkpt>
      <trkpt lon="78.521209512736732" lat="17.644603947712916">
        <ele>491.853</ele>
        <time>2024-09-25T11:14:45Z</time>
      </trkpt>
      <trkpt lon="78.521209050101291" lat="17.644602480560632">
        <ele>491.848</ele>
        <time>2024-09-25T11:14:45Z</time>
      </trkpt>
      <trkpt lon="78.521208597382952" lat="17.644601045039042">
        <ele>491.845</ele>
        <time>2024-09-25T11:14:45Z</time>
      </trkpt>
      <trkpt lon="78.521208152269409" lat="17.644599633807598">
        <ele>491.843</ele>
        <time>2024-09-25T11:14:45Z</time>
      </trkpt>
      <trkpt lon="78.521207712753508" lat="17.644598240489309">
        <ele>491.843</ele>
        <time>2024-09-25T11:14:45Z</time>
      </trkpt>
      <trkpt lon="78.521207277127829" lat="17.644596859655">
        <ele>491.844</ele>
        <time>2024-09-25T11:14:45Z</time>
      </trkpt>
      <trkpt lon="78.521206843970177" lat="17.64459548677851">
        <ele>491.845</ele>
        <time>2024-09-25T11:14:45Z</time>
      </trkpt>
      <trkpt lon="78.52120641212278" lat="17.644594118171582">
        <ele>491.847</ele>
        <time>2024-09-25T11:14:45Z</time>
      </trkpt>
      <trkpt lon="78.521205980667375" lat="17.644592750905677">
        <ele>491.849</ele>
        <time>2024-09-25T11:14:45Z</time>
      </trkpt>
      <trkpt lon="78.521205548898152" lat="17.644591382726642">
        <ele>491.852</ele>
        <time>2024-09-25T11:14:45Z</time>
      </trkpt>
      <trkpt lon="78.521205116293956" lat="17.644590011966972">
        <ele>491.854</ele>
        <time>2024-09-25T11:14:45Z</time>
      </trkpt>
      <trkpt lon="78.521204682490946" lat="17.6445886374593">
        <ele>491.857</ele>
        <time>2024-09-25T11:14:45Z</time>
      </trkpt>
      <trkpt lon="78.521204247256463" lat="17.644587258453814">
        <ele>491.859</ele>
        <time>2024-09-25T11:14:45Z</time>
      </trkpt>
      <trkpt lon="78.521203810464868" lat="17.644585874541491">
        <ele>491.861</ele>
        <time>2024-09-25T11:14:45Z</time>
      </trkpt>
      <trkpt lon="78.52120337207549" lat="17.644584485584421">
        <ele>491.863</ele>
        <time>2024-09-25T11:14:45Z</time>
      </trkpt>
      <trkpt lon="78.521202932113184" lat="17.644583091653839">
        <ele>491.864</ele>
        <time>2024-09-25T11:14:45Z</time>
      </trkpt>
      <trkpt lon="78.521202490651319" lat="17.644581692976171">
        <ele>491.866</ele>
        <time>2024-09-25T11:14:45Z</time>
      </trkpt>
      <trkpt lon="78.52120204779726" lat="17.64458028988696">
        <ele>491.867</ele>
        <time>2024-09-25T11:14:45Z</time>
      </trkpt>
      <trkpt lon="78.521201603680325" lat="17.644578882792352">
        <ele>491.868</ele>
        <time>2024-09-25T11:14:45Z</time>
      </trkpt>
      <trkpt lon="78.521201158441812" lat="17.644577472137613">
        <ele>491.869</ele>
        <time>2024-09-25T11:14:45Z</time>
      </trkpt>
      <trkpt lon="78.521200712227198" lat="17.644576058382029">
        <ele>491.869</ele>
        <time>2024-09-25T11:14:45Z</time>
      </trkpt>
      <trkpt lon="78.52120026518007" lat="17.644574641979506">
        <ele>491.87</ele>
        <time>2024-09-25T11:14:45Z</time>
      </trkpt>
      <trkpt lon="78.521199817437534" lat="17.644573223364134">
        <ele>491.87</ele>
        <time>2024-09-25T11:14:45Z</time>
      </trkpt>
      <trkpt lon="78.521199280733043" lat="17.644571418650383">
        <ele>492.049</ele>
        <time>2024-09-25T11:14:46Z</time>
      </trkpt>
      <trkpt lon="78.521198795215597" lat="17.644569688294684">
        <ele>492.2</ele>
        <time>2024-09-25T11:14:46Z</time>
      </trkpt>
      <trkpt lon="78.521198354217233" lat="17.644568026575502">
        <ele>492.325</ele>
        <time>2024-09-25T11:14:46Z</time>
      </trkpt>
      <trkpt lon="78.521197951165405" lat="17.644566426796171">
        <ele>492.425</ele>
        <time>2024-09-25T11:14:46Z</time>
      </trkpt>
      <trkpt lon="78.52119757978781" lat="17.644564881757539">
        <ele>492.503</ele>
        <time>2024-09-25T11:14:46Z</time>
      </trkpt>
      <trkpt lon="78.521197234256263" lat="17.644563384131672">
        <ele>492.562</ele>
        <time>2024-09-25T11:14:46Z</time>
      </trkpt>
      <trkpt lon="78.521196909279766" lat="17.644561926748068">
        <ele>492.605</ele>
        <time>2024-09-25T11:14:46Z</time>
      </trkpt>
      <trkpt lon="78.521196600156031" lat="17.644560502803913">
        <ele>492.634</ele>
        <time>2024-09-25T11:14:46Z</time>
      </trkpt>
      <trkpt lon="78.521196302789875" lat="17.644559106009822">
        <ele>492.651</ele>
        <time>2024-09-25T11:14:46Z</time>
      </trkpt>
      <trkpt lon="78.521196013685923" lat="17.644557730681861">
        <ele>492.659</ele>
        <time>2024-09-25T11:14:46Z</time>
      </trkpt>
      <trkpt lon="78.521195729922383" lat="17.644556371789896">
        <ele>492.66</ele>
        <time>2024-09-25T11:14:46Z</time>
      </trkpt>
      <trkpt lon="78.521195449111289" lat="17.644555024971325">
        <ele>492.655</ele>
        <time>2024-09-25T11:14:46Z</time>
      </trkpt>
      <trkpt lon="78.521195169350037" lat="17.644553686518265">
        <ele>492.646</ele>
        <time>2024-09-25T11:14:46Z</time>
      </trkpt>
      <trkpt lon="78.521194889167916" lat="17.644552353345112">
        <ele>492.635</ele>
        <time>2024-09-25T11:14:46Z</time>
      </trkpt>
      <trkpt lon="78.521194607470932" lat="17.644551022942537">
        <ele>492.622</ele>
        <time>2024-09-25T11:14:46Z</time>
      </trkpt>
      <trkpt lon="78.521194323487038" lat="17.644549693322741">
        <ele>492.608</ele>
        <time>2024-09-25T11:14:46Z</time>
      </trkpt>
      <trkpt lon="78.521194036713638" lat="17.644548362960116">
        <ele>492.594</ele>
        <time>2024-09-25T11:14:46Z</time>
      </trkpt>
      <trkpt lon="78.521193746868761" lat="17.644547030730422">
        <ele>492.58</ele>
        <time>2024-09-25T11:14:46Z</time>
      </trkpt>
      <trkpt lon="78.521193453846507" lat="17.644545695851033">
        <ele>492.568</ele>
        <time>2024-09-25T11:14:46Z</time>
      </trkpt>
      <trkpt lon="78.52119315767743" lat="17.644544357824017">
        <ele>492.556</ele>
        <time>2024-09-25T11:14:46Z</time>
      </trkpt>
      <trkpt lon="78.521192858493819" lat="17.644543016383341">
        <ele>492.545</ele>
        <time>2024-09-25T11:14:46Z</time>
      </trkpt>
      <trkpt lon="78.521192556500083" lat="17.644541671447016">
        <ele>492.536</ele>
        <time>2024-09-25T11:14:46Z</time>
      </trkpt>
      <trkpt lon="78.521192251947909" lat="17.644540323074633">
        <ele>492.528</ele>
        <time>2024-09-25T11:14:46Z</time>
      </trkpt>
      <trkpt lon="78.521191945115902" lat="17.64453897143045">
        <ele>492.521</ele>
        <time>2024-09-25T11:14:46Z</time>
      </trkpt>
      <trkpt lon="78.52119163629321" lat="17.644537616751911">
        <ele>492.515</ele>
        <time>2024-09-25T11:14:46Z</time>
      </trkpt>
      <trkpt lon="78.521191325766949" lat="17.644536259323392">
        <ele>492.511</ele>
        <time>2024-09-25T11:14:46Z</time>
      </trkpt>
      <trkpt lon="78.521191013812739" lat="17.644534899454747">
        <ele>492.507</ele>
        <time>2024-09-25T11:14:46Z</time>
      </trkpt>
      <trkpt lon="78.52119070068791" lat="17.644533537464312">
        <ele>492.505</ele>
        <time>2024-09-25T11:14:46Z</time>
      </trkpt>
      <trkpt lon="78.521190386627097" lat="17.644532173665731">
        <ele>492.503</ele>
        <time>2024-09-25T11:14:46Z</time>
      </trkpt>
      <trkpt lon="78.521189987378378" lat="17.644530426690491">
        <ele>492.677</ele>
        <time>2024-09-25T11:14:47Z</time>
      </trkpt>
      <trkpt lon="78.521189604803382" lat="17.644528741136586">
        <ele>492.824</ele>
        <time>2024-09-25T11:14:47Z</time>
      </trkpt>
      <trkpt lon="78.521189237641906" lat="17.644527113235522">
        <ele>492.945</ele>
        <time>2024-09-25T11:14:47Z</time>
      </trkpt>
      <trkpt lon="78.521188884408659" lat="17.644525538144311">
        <ele>493.043</ele>
        <time>2024-09-25T11:14:47Z</time>
      </trkpt>
      <trkpt lon="78.521188543500315" lat="17.644524010378198">
        <ele>493.12</ele>
        <time>2024-09-25T11:14:47Z</time>
      </trkpt>
      <trkpt lon="78.521188213280254" lat="17.644522524159143">
        <ele>493.179</ele>
        <time>2024-09-25T11:14:47Z</time>
      </trkpt>
      <trkpt lon="78.521187892143516" lat="17.644521073688679">
        <ele>493.221</ele>
        <time>2024-09-25T11:14:47Z</time>
      </trkpt>
      <trkpt lon="78.521187578564849" lat="17.644519653354312">
        <ele>493.25</ele>
        <time>2024-09-25T11:14:47Z</time>
      </trkpt>
      <trkpt lon="78.521187271132007" lat="17.644518257878666">
        <ele>493.268</ele>
        <time>2024-09-25T11:14:47Z</time>
      </trkpt>
      <trkpt lon="78.521186968566951" lat="17.644516882420248">
        <ele>493.276</ele>
        <time>2024-09-25T11:14:47Z</time>
      </trkpt>
      <trkpt lon="78.521186669737233" lat="17.64451552263429">
        <ele>493.278</ele>
        <time>2024-09-25T11:14:47Z</time>
      </trkpt>
      <trkpt lon="78.521186373659475" lat="17.644514174701353">
        <ele>493.274</ele>
        <time>2024-09-25T11:14:47Z</time>
      </trkpt>
      <trkpt lon="78.521186079496843" lat="17.644512835330627">
        <ele>493.266</ele>
        <time>2024-09-25T11:14:47Z</time>
      </trkpt>
      <trkpt lon="78.521185786551968" lat="17.644511501744105">
        <ele>493.255</ele>
        <time>2024-09-25T11:14:47Z</time>
      </trkpt>
      <trkpt lon="78.521185494256883" lat="17.644510171646797">
        <ele>493.243</ele>
        <time>2024-09-25T11:14:47Z</time>
      </trkpt>
      <trkpt lon="78.521185202160879" lat="17.644508843187531">
        <ele>493.23</ele>
        <time>2024-09-25T11:14:47Z</time>
      </trkpt>
      <trkpt lon="78.521184909917309" lat="17.644507514913965">
        <ele>493.216</ele>
        <time>2024-09-25T11:14:47Z</time>
      </trkpt>
      <trkpt lon="78.521184617269981" lat="17.644506185724865">
        <ele>493.203</ele>
        <time>2024-09-25T11:14:47Z</time>
      </trkpt>
      <trkpt lon="78.521184324039766" lat="17.644504854821893">
        <ele>493.191</ele>
        <time>2024-09-25T11:14:47Z</time>
      </trkpt>
      <trkpt lon="78.521184030111911" lat="17.64450352166277">
        <ele>493.18</ele>
        <time>2024-09-25T11:14:47Z</time>
      </trkpt>
      <trkpt lon="78.521183735424131" lat="17.644502185917077">
        <ele>493.169</ele>
        <time>2024-09-25T11:14:47Z</time>
      </trkpt>
      <trkpt lon="78.521183439955877" lat="17.644500847425562">
        <ele>493.16</ele>
        <time>2024-09-25T11:14:47Z</time>
      </trkpt>
      <trkpt lon="78.521183143718744" lat="17.644499506163541">
        <ele>493.153</ele>
        <time>2024-09-25T11:14:47Z</time>
      </trkpt>
      <trkpt lon="78.521182846748189" lat="17.64449816220862">
        <ele>493.146</ele>
        <time>2024-09-25T11:14:47Z</time>
      </trkpt>
      <trkpt lon="78.521182549096409" lat="17.644496815712827">
        <ele>493.14</ele>
        <time>2024-09-25T11:14:47Z</time>
      </trkpt>
      <trkpt lon="78.521182250826399" lat="17.644495466879007">
        <ele>493.136</ele>
        <time>2024-09-25T11:14:47Z</time>
      </trkpt>
      <trkpt lon="78.521181952007126" lat="17.644494115941253">
        <ele>493.132</ele>
        <time>2024-09-25T11:14:47Z</time>
      </trkpt>
      <trkpt lon="78.521181652709643" lat="17.64449276314911">
        <ele>493.13</ele>
        <time>2024-09-25T11:14:47Z</time>
      </trkpt>
      <trkpt lon="78.521181353004138" lat="17.644491408755076">
        <ele>493.128</ele>
        <time>2024-09-25T11:14:47Z</time>
      </trkpt>
      <trkpt lon="78.521180956885289" lat="17.644489636035939">
        <ele>493.242</ele>
        <time>2024-09-25T11:14:48Z</time>
      </trkpt>
      <trkpt lon="78.5211805639875" lat="17.64448789247475">
        <ele>493.339</ele>
        <time>2024-09-25T11:14:48Z</time>
      </trkpt>
      <trkpt lon="78.521180175285423" lat="17.64448617989601">
        <ele>493.419</ele>
        <time>2024-09-25T11:14:48Z</time>
      </trkpt>
      <trkpt lon="78.521179791368056" lat="17.644484498599063">
        <ele>493.484</ele>
        <time>2024-09-25T11:14:48Z</time>
      </trkpt>
      <trkpt lon="78.52117941251322" lat="17.644482847723168">
        <ele>493.535</ele>
        <time>2024-09-25T11:14:48Z</time>
      </trkpt>
      <trkpt lon="78.521179038754553" lat="17.644481225562998">
        <ele>493.574</ele>
        <time>2024-09-25T11:14:48Z</time>
      </trkpt>
      <trkpt lon="78.521178669940383" lat="17.644479629835782">
        <ele>493.602</ele>
        <time>2024-09-25T11:14:48Z</time>
      </trkpt>
      <trkpt lon="78.521178305784687" lat="17.644478057902738">
        <ele>493.621</ele>
        <time>2024-09-25T11:14:48Z</time>
      </trkpt>
      <trkpt lon="78.521177945910082" lat="17.644476506948365">
        <ele>493.633</ele>
        <time>2024-09-25T11:14:48Z</time>
      </trkpt>
      <trkpt lon="78.521177589883379" lat="17.644474974121724">
        <ele>493.639</ele>
        <time>2024-09-25T11:14:48Z</time>
      </trkpt>
      <trkpt lon="78.521177237244416" lat="17.644473456644171">
        <ele>493.64</ele>
        <time>2024-09-25T11:14:48Z</time>
      </trkpt>
      <trkpt lon="78.521176887528668" lat="17.644471951888068">
        <ele>493.637</ele>
        <time>2024-09-25T11:14:48Z</time>
      </trkpt>
      <trkpt lon="78.521176540284458" lat="17.644470457430856">
        <ele>493.632</ele>
        <time>2024-09-25T11:14:48Z</time>
      </trkpt>
      <trkpt lon="78.521176195085445" lat="17.644468971088699">
        <ele>493.625</ele>
        <time>2024-09-25T11:14:48Z</time>
      </trkpt>
      <trkpt lon="78.52117585153924" lat="17.644467490933565">
        <ele>493.617</ele>
        <time>2024-09-25T11:14:48Z</time>
      </trkpt>
      <trkpt lon="78.521175509292647" lat="17.644466015297194">
        <ele>493.609</ele>
        <time>2024-09-25T11:14:48Z</time>
      </trkpt>
      <trkpt lon="78.521175168034276" lat="17.644464542765103">
        <ele>493.6</ele>
        <time>2024-09-25T11:14:48Z</time>
      </trkpt>
      <trkpt lon="78.521174827495088" lat="17.644463072163223">
        <ele>493.592</ele>
        <time>2024-09-25T11:14:48Z</time>
      </trkpt>
      <trkpt lon="78.521174487447311" lat="17.644461602539486">
        <ele>493.584</ele>
        <time>2024-09-25T11:14:48Z</time>
      </trkpt>
      <trkpt lon="78.521174147702155" lat="17.644460133142235">
        <ele>493.576</ele>
        <time>2024-09-25T11:14:48Z</time>
      </trkpt>
      <trkpt lon="78.521173808106823" lat="17.644458663397">
        <ele>493.569</ele>
        <time>2024-09-25T11:14:48Z</time>
      </trkpt>
      <trkpt lon="78.521173468540908" lat="17.644457192882818">
        <ele>493.563</ele>
        <time>2024-09-25T11:14:48Z</time>
      </trkpt>
      <trkpt lon="78.52117312891265" lat="17.644455721309068">
        <ele>493.558</ele>
        <time>2024-09-25T11:14:48Z</time>
      </trkpt>
      <trkpt lon="78.521172789155003" lat="17.644454248493471">
        <ele>493.554</ele>
        <time>2024-09-25T11:14:48Z</time>
      </trkpt>
      <trkpt lon="78.52117244922195" lat="17.644452774341747">
        <ele>493.55</ele>
        <time>2024-09-25T11:14:48Z</time>
      </trkpt>
      <trkpt lon="78.521172109084915" lat="17.644451298829235">
        <ele>493.547</ele>
        <time>2024-09-25T11:14:48Z</time>
      </trkpt>
      <trkpt lon="78.521171768729403" lat="17.644449821984601">
        <ele>493.545</ele>
        <time>2024-09-25T11:14:48Z</time>
      </trkpt>
      <trkpt lon="78.521171428152073" lat="17.64444834387572">
        <ele>493.543</ele>
        <time>2024-09-25T11:14:48Z</time>
      </trkpt>
      <trkpt lon="78.521171087358141" lat="17.644446864597658">
        <ele>493.542</ele>
        <time>2024-09-25T11:14:48Z</time>
      </trkpt>
      <trkpt lon="78.521170597474921" lat="17.644444922253701">
        <ele>493.624</ele>
        <time>2024-09-25T11:14:49Z</time>
      </trkpt>
      <trkpt lon="78.521170078007728" lat="17.64444300660125">
        <ele>493.693</ele>
        <time>2024-09-25T11:14:49Z</time>
      </trkpt>
      <trkpt lon="78.521169535873881" lat="17.644441120480348">
        <ele>493.75</ele>
        <time>2024-09-25T11:14:49Z</time>
      </trkpt>
      <trkpt lon="78.52116897707495" lat="17.644439265006252">
        <ele>493.796</ele>
        <time>2024-09-25T11:14:49Z</time>
      </trkpt>
      <trkpt lon="78.521168406713784" lat="17.644437439955333">
        <ele>493.832</ele>
        <time>2024-09-25T11:14:49Z</time>
      </trkpt>
      <trkpt lon="78.521167829038518" lat="17.644435644102447">
        <ele>493.859</ele>
        <time>2024-09-25T11:14:49Z</time>
      </trkpt>
      <trkpt lon="78.521167247505488" lat="17.644433875510042">
        <ele>493.879</ele>
        <time>2024-09-25T11:14:49Z</time>
      </trkpt>
      <trkpt lon="78.521166664854121" lat="17.644432131770834">
        <ele>493.893</ele>
        <time>2024-09-25T11:14:49Z</time>
      </trkpt>
      <trkpt lon="78.521166083188248" lat="17.644430410207047">
        <ele>493.901</ele>
        <time>2024-09-25T11:14:49Z</time>
      </trkpt>
      <trkpt lon="78.521165504059567" lat="17.644428708029995">
        <ele>493.905</ele>
        <time>2024-09-25T11:14:49Z</time>
      </trkpt>
      <trkpt lon="78.521164928549652" lat="17.644427022464246">
        <ele>493.906</ele>
        <time>2024-09-25T11:14:49Z</time>
      </trkpt>
      <trkpt lon="78.521164357348141" lat="17.644425350840741">
        <ele>493.904</ele>
        <time>2024-09-25T11:14:49Z</time>
      </trkpt>
      <trkpt lon="78.521163790825256" lat="17.644423690663302">
        <ele>493.901</ele>
        <time>2024-09-25T11:14:49Z</time>
      </trkpt>
      <trkpt lon="78.521163229097581" lat="17.64442203965276">
        <ele>493.896</ele>
        <time>2024-09-25T11:14:49Z</time>
      </trkpt>
      <trkpt lon="78.52116267208649" lat="17.644420395772684">
        <ele>493.89</ele>
        <time>2024-09-25T11:14:49Z</time>
      </trkpt>
      <trkpt lon="78.521162119568913" lat="17.644418757240349">
        <ele>493.884</ele>
        <time>2024-09-25T11:14:49Z</time>
      </trkpt>
      <trkpt lon="78.521161571220617" lat="17.644417122526182">
        <ele>493.878</ele>
        <time>2024-09-25T11:14:49Z</time>
      </trkpt>
      <trkpt lon="78.521161026652422" lat="17.644415490344567">
        <ele>493.872</ele>
        <time>2024-09-25T11:14:49Z</time>
      </trkpt>
      <trkpt lon="78.521160485439651" lat="17.644413859638444">
        <ele>493.866</ele>
        <time>2024-09-25T11:14:49Z</time>
      </trkpt>
      <trkpt lon="78.521159947145676" lat="17.644412229559723">
        <ele>493.86</ele>
        <time>2024-09-25T11:14:49Z</time>
      </trkpt>
      <trkpt lon="78.521159411339966" lat="17.64441059944733">
        <ele>493.856</ele>
        <time>2024-09-25T11:14:49Z</time>
      </trkpt>
      <trkpt lon="78.521158877611583" lat="17.644408968804097">
        <ele>493.852</ele>
        <time>2024-09-25T11:14:49Z</time>
      </trkpt>
      <trkpt lon="78.521158345578584" lat="17.644407337273687">
        <ele>493.848</ele>
        <time>2024-09-25T11:14:49Z</time>
      </trkpt>
      <trkpt lon="78.52115781489421" lat="17.6444057046183">
        <ele>493.845</ele>
        <time>2024-09-25T11:14:49Z</time>
      </trkpt>
      <trkpt lon="78.521157285250226" lat="17.64440407069775">
        <ele>493.842</ele>
        <time>2024-09-25T11:14:49Z</time>
      </trkpt>
      <trkpt lon="78.521156756378133" lat="17.644402435450296">
        <ele>493.84</ele>
        <time>2024-09-25T11:14:49Z</time>
      </trkpt>
      <trkpt lon="78.521156228048724" lat="17.644400798875481">
        <ele>493.838</ele>
        <time>2024-09-25T11:14:49Z</time>
      </trkpt>
      <trkpt lon="78.521155700070395" lat="17.644399161019059">
        <ele>493.837</ele>
        <time>2024-09-25T11:14:49Z</time>
      </trkpt>
      <trkpt lon="78.521155172286484" lat="17.64439752196003">
        <ele>493.836</ele>
        <time>2024-09-25T11:14:49Z</time>
      </trkpt>
      <trkpt lon="78.521154529584948" lat="17.644395446290225">
        <ele>493.738</ele>
        <time>2024-09-25T11:14:50Z</time>
      </trkpt>
      <trkpt lon="78.521153938839106" lat="17.644393464632159">
        <ele>493.655</ele>
        <time>2024-09-25T11:14:50Z</time>
      </trkpt>
      <trkpt lon="78.521153393558549" lat="17.644391568821092">
        <ele>493.587</ele>
        <time>2024-09-25T11:14:50Z</time>
      </trkpt>
      <trkpt lon="78.521152887271754" lat="17.64438974972094">
        <ele>493.532</ele>
        <time>2024-09-25T11:14:50Z</time>
      </trkpt>
      <trkpt lon="78.521152413746165" lat="17.644387997780672">
        <ele>493.489</ele>
        <time>2024-09-25T11:14:50Z</time>
      </trkpt>
      <trkpt lon="78.521151967145812" lat="17.644386303468181">
        <ele>493.457</ele>
        <time>2024-09-25T11:14:50Z</time>
      </trkpt>
      <trkpt lon="78.521151542136366" lat="17.644384657596667">
        <ele>493.434</ele>
        <time>2024-09-25T11:14:50Z</time>
      </trkpt>
      <trkpt lon="78.521151133946901" lat="17.644383051558659">
        <ele>493.418</ele>
        <time>2024-09-25T11:14:50Z</time>
      </trkpt>
      <trkpt lon="78.521150738396869" lat="17.644381477482337">
        <ele>493.409</ele>
        <time>2024-09-25T11:14:50Z</time>
      </trkpt>
      <trkpt lon="78.521150351895969" lat="17.644379928323804">
        <ele>493.405</ele>
        <time>2024-09-25T11:14:50Z</time>
      </trkpt>
      <trkpt lon="78.521149971423498" lat="17.644378397907886">
        <ele>493.405</ele>
        <time>2024-09-25T11:14:50Z</time>
      </trkpt>
      <trkpt lon="78.521149594493025" lat="17.644376880928732">
        <ele>493.408</ele>
        <time>2024-09-25T11:14:50Z</time>
      </trkpt>
      <trkpt lon="78.521149219107258" lat="17.644375372920063">
        <ele>493.413</ele>
        <time>2024-09-25T11:14:50Z</time>
      </trkpt>
      <trkpt lon="78.521148843706939" lat="17.644373870203591">
        <ele>493.419</ele>
        <time>2024-09-25T11:14:50Z</time>
      </trkpt>
      <trkpt lon="78.5211484671172" lat="17.644372369822772">
        <ele>493.426</ele>
        <time>2024-09-25T11:14:50Z</time>
      </trkpt>
      <trkpt lon="78.521148088493703" lat="17.644370869467807">
        <ele>493.434</ele>
        <time>2024-09-25T11:14:50Z</time>
      </trkpt>
      <trkpt lon="78.521147707270586" lat="17.644369367396624">
        <ele>493.442</ele>
        <time>2024-09-25T11:14:50Z</time>
      </trkpt>
      <trkpt lon="78.52114732311162" lat="17.644367862355637">
        <ele>493.449</ele>
        <time>2024-09-25T11:14:50Z</time>
      </trkpt>
      <trkpt lon="78.521146935865275" lat="17.644366353503003">
        <ele>493.456</ele>
        <time>2024-09-25T11:14:50Z</time>
      </trkpt>
      <trkpt lon="78.521146545524559" lat="17.644364840336507">
        <ele>493.463</ele>
        <time>2024-09-25T11:14:50Z</time>
      </trkpt>
      <trkpt lon="78.521146152191662" lat="17.644363322627388">
        <ele>493.469</ele>
        <time>2024-09-25T11:14:50Z</time>
      </trkpt>
      <trkpt lon="78.521145756047531" lat="17.644361800360961">
        <ele>493.474</ele>
        <time>2024-09-25T11:14:50Z</time>
      </trkpt>
      <trkpt lon="78.521145357326205" lat="17.64436027368443">
        <ele>493.478</ele>
        <time>2024-09-25T11:14:50Z</time>
      </trkpt>
      <trkpt lon="78.521144956293597" lat="17.644358742861915">
        <ele>493.482</ele>
        <time>2024-09-25T11:14:50Z</time>
      </trkpt>
      <trkpt lon="78.521144553230442" lat="17.644357208236503">
        <ele>493.485</ele>
        <time>2024-09-25T11:14:50Z</time>
      </trkpt>
      <trkpt lon="78.521144148418855" lat="17.644355670198888">
        <ele>493.487</ele>
        <time>2024-09-25T11:14:50Z</time>
      </trkpt>
      <trkpt lon="78.521143742132253" lat="17.644354129162078">
        <ele>493.489</ele>
        <time>2024-09-25T11:14:50Z</time>
      </trkpt>
      <trkpt lon="78.521143334627936" lat="17.644352585541569">
        <ele>493.491</ele>
        <time>2024-09-25T11:14:50Z</time>
      </trkpt>
      <trkpt lon="78.52114292614219" lat="17.6443510397403">
        <ele>493.492</ele>
        <time>2024-09-25T11:14:50Z</time>
      </trkpt>
      <trkpt lon="78.521142387854269" lat="17.644349067583889">
        <ele>493.554</ele>
        <time>2024-09-25T11:14:51Z</time>
      </trkpt>
      <trkpt lon="78.521141855232941" lat="17.64434717170619">
        <ele>493.606</ele>
        <time>2024-09-25T11:14:51Z</time>
      </trkpt>
      <trkpt lon="78.521141329428417" lat="17.644345346683419">
        <ele>493.648</ele>
        <time>2024-09-25T11:14:51Z</time>
      </trkpt>
      <trkpt lon="78.521140811070978" lat="17.644343585966325">
        <ele>493.683</ele>
        <time>2024-09-25T11:14:51Z</time>
      </trkpt>
      <trkpt lon="78.521140300377112" lat="17.644341882384708">
        <ele>493.709</ele>
        <time>2024-09-25T11:14:51Z</time>
      </trkpt>
      <trkpt lon="78.521139797243876" lat="17.644340228549293">
        <ele>493.729</ele>
        <time>2024-09-25T11:14:51Z</time>
      </trkpt>
      <trkpt lon="78.52113930133109" lat="17.644338617162298">
        <ele>493.744</ele>
        <time>2024-09-25T11:14:51Z</time>
      </trkpt>
      <trkpt lon="78.521138812131568" lat="17.644337041248356">
        <ele>493.753</ele>
        <time>2024-09-25T11:14:51Z</time>
      </trkpt>
      <trkpt lon="78.521138329029824" lat="17.644335494317367">
        <ele>493.759</ele>
        <time>2024-09-25T11:14:51Z</time>
      </trkpt>
      <trkpt lon="78.521137851350119" lat="17.644333970470456">
        <ele>493.761</ele>
        <time>2024-09-25T11:14:51Z</time>
      </trkpt>
      <trkpt lon="78.521137378394798" lat="17.644332464459261">
        <ele>493.761</ele>
        <time>2024-09-25T11:14:51Z</time>
      </trkpt>
      <trkpt lon="78.521136909473867" lat="17.644330971708079">
        <ele>493.759</ele>
        <time>2024-09-25T11:14:51Z</time>
      </trkpt>
      <trkpt lon="78.521136443927105" lat="17.644329488307161">
        <ele>493.756</ele>
        <time>2024-09-25T11:14:51Z</time>
      </trkpt>
      <trkpt lon="78.521135981139622" lat="17.644328010984548">
        <ele>493.752</ele>
        <time>2024-09-25T11:14:51Z</time>
      </trkpt>
      <trkpt lon="78.521135520552065" lat="17.644326537062703">
        <ele>493.747</ele>
        <time>2024-09-25T11:14:51Z</time>
      </trkpt>
      <trkpt lon="78.521135061666428" lat="17.644325064405145">
        <ele>493.742</ele>
        <time>2024-09-25T11:14:51Z</time>
      </trkpt>
      <trkpt lon="78.521134604048157" lat="17.644323591357448">
        <ele>493.737</ele>
        <time>2024-09-25T11:14:51Z</time>
      </trkpt>
      <trkpt lon="78.521134147325711" lat="17.644322116686041">
        <ele>493.733</ele>
        <time>2024-09-25T11:14:51Z</time>
      </trkpt>
      <trkpt lon="78.521133691187856" lat="17.644320639517424">
        <ele>493.728</ele>
        <time>2024-09-25T11:14:51Z</time>
      </trkpt>
      <trkpt lon="78.521133235379693" lat="17.64431915927986">
        <ele>493.724</ele>
        <time>2024-09-25T11:14:51Z</time>
      </trkpt>
      <trkpt lon="78.521132779697652" lat="17.644317675648953">
        <ele>493.72</ele>
        <time>2024-09-25T11:14:51Z</time>
      </trkpt>
      <trkpt lon="78.521132323983863" lat="17.64431618849801">
        <ele>493.717</ele>
        <time>2024-09-25T11:14:51Z</time>
      </trkpt>
      <trkpt lon="78.521131868120463" lat="17.64431469785378">
        <ele>493.714</ele>
        <time>2024-09-25T11:14:51Z</time>
      </trkpt>
      <trkpt lon="78.521131412023749" lat="17.644313203857745">
        <ele>493.712</ele>
        <time>2024-09-25T11:14:51Z</time>
      </trkpt>
      <trkpt lon="78.521130955638753" lat="17.64431170673296">
        <ele>493.71</ele>
        <time>2024-09-25T11:14:51Z</time>
      </trkpt>
      <trkpt lon="78.52113049893407" lat="17.644310206756224">
        <ele>493.708</ele>
        <time>2024-09-25T11:14:51Z</time>
      </trkpt>
      <trkpt lon="78.521130041897109" lat="17.64430870423524">
        <ele>493.707</ele>
        <time>2024-09-25T11:14:51Z</time>
      </trkpt>
      <trkpt lon="78.521129584529916" lat="17.644307199490317">
        <ele>493.706</ele>
        <time>2024-09-25T11:14:51Z</time>
      </trkpt>
      <trkpt lon="78.521129126845508" lat="17.644305692840149">
        <ele>493.706</ele>
        <time>2024-09-25T11:14:51Z</time>
      </trkpt>
    </trkseg>
  </trk>
</gpx>
